<?xml version="1.0" encoding="UTF-8" standalone="no" ?>
<gpx xmlns="http://www.topografix.com/GPX/1/1" xmlns:xsi="http://www.w3.org/2001/XMLSchema-instance" xsi:schemaLocation="http://www.topografix.com/GPX/1/1 http://www.topografix.com/GPX/1/1/gpx.xsd" version="1.1" creator="VisuGPX - https://www.visugpx.com">
  <metadata>
    <name>2018-07-08 Bike ride-Amberieux en Dombes O via Toussieux 41k</name>
    <desc><![CDATA[2018-07-08 Bike ride-Amberieux en Dombes O via Toussieux 41k]]></desc>
  </metadata>
  <wpt lat="45.92455" lon="4.73715">
    <ele>174</ele>
    <name><![CDATA[2018-07-08 10:28 (Start)]]></name>
  </wpt>
  <wpt lat="45.92458" lon="4.73707">
    <ele>174</ele>
    <name><![CDATA[2018-07-08 10:28 (End)]]></name>
  </wpt>
  <trk>
    <name><![CDATA[2018-07-08 10:28]]></name>
    <trkseg>
      <trkpt lat="45.92455" lon="4.73715">
        <ele>174</ele>
        <time>2018-07-08T08:28:04.781Z</time>
      </trkpt>
      <trkpt lat="45.92455" lon="4.73716">
        <ele>174</ele>
        <time>2018-07-08T08:28:08Z</time>
      </trkpt>
      <trkpt lat="45.9246" lon="4.73712">
        <ele>174</ele>
        <time>2018-07-08T08:28:35Z</time>
      </trkpt>
      <trkpt lat="45.9246" lon="4.73712">
        <ele>174</ele>
        <time>2018-07-08T08:28:36Z</time>
      </trkpt>
      <trkpt lat="45.92465" lon="4.73702">
        <ele>174</ele>
        <time>2018-07-08T08:28:45Z</time>
      </trkpt>
      <trkpt lat="45.92464" lon="4.73699">
        <ele>174</ele>
        <time>2018-07-08T08:28:46Z</time>
      </trkpt>
      <trkpt lat="45.92463" lon="4.73687">
        <ele>174</ele>
        <time>2018-07-08T08:28:50Z</time>
      </trkpt>
      <trkpt lat="45.92463" lon="4.73683">
        <ele>174</ele>
        <time>2018-07-08T08:28:51Z</time>
      </trkpt>
      <trkpt lat="45.92463" lon="4.73671">
        <ele>174</ele>
        <time>2018-07-08T08:28:54Z</time>
      </trkpt>
      <trkpt lat="45.92464" lon="4.73666">
        <ele>174</ele>
        <time>2018-07-08T08:28:55Z</time>
      </trkpt>
      <trkpt lat="45.92465" lon="4.73657">
        <ele>174</ele>
        <time>2018-07-08T08:28:57Z</time>
      </trkpt>
      <trkpt lat="45.92467" lon="4.73653">
        <ele>174</ele>
        <time>2018-07-08T08:28:58Z</time>
      </trkpt>
      <trkpt lat="45.92474" lon="4.73646">
        <ele>174</ele>
        <time>2018-07-08T08:29:01Z</time>
      </trkpt>
      <trkpt lat="45.92477" lon="4.73645">
        <ele>174</ele>
        <time>2018-07-08T08:29:02Z</time>
      </trkpt>
      <trkpt lat="45.92481" lon="4.73645">
        <ele>174</ele>
        <time>2018-07-08T08:29:03Z</time>
      </trkpt>
      <trkpt lat="45.92491" lon="4.73645">
        <ele>174</ele>
        <time>2018-07-08T08:29:04Z</time>
      </trkpt>
      <trkpt lat="45.92499" lon="4.73644">
        <ele>174</ele>
        <time>2018-07-08T08:29:06Z</time>
      </trkpt>
      <trkpt lat="45.92503" lon="4.73644">
        <ele>174</ele>
        <time>2018-07-08T08:29:07Z</time>
      </trkpt>
      <trkpt lat="45.92507" lon="4.73642">
        <ele>174</ele>
        <time>2018-07-08T08:29:08Z</time>
      </trkpt>
      <trkpt lat="45.92512" lon="4.73642">
        <ele>174</ele>
        <time>2018-07-08T08:29:09Z</time>
      </trkpt>
      <trkpt lat="45.92519" lon="4.73642">
        <ele>173</ele>
        <time>2018-07-08T08:29:11Z</time>
      </trkpt>
      <trkpt lat="45.92523" lon="4.73643">
        <ele>173</ele>
        <time>2018-07-08T08:29:12Z</time>
      </trkpt>
      <trkpt lat="45.9253" lon="4.7364">
        <ele>173</ele>
        <time>2018-07-08T08:29:14Z</time>
      </trkpt>
      <trkpt lat="45.92534" lon="4.7364">
        <ele>173</ele>
        <time>2018-07-08T08:29:15Z</time>
      </trkpt>
      <trkpt lat="45.92542" lon="4.73638">
        <ele>173</ele>
        <time>2018-07-08T08:29:17Z</time>
      </trkpt>
      <trkpt lat="45.92547" lon="4.73637">
        <ele>173</ele>
        <time>2018-07-08T08:29:18Z</time>
      </trkpt>
      <trkpt lat="45.92552" lon="4.73636">
        <ele>173</ele>
        <time>2018-07-08T08:29:19Z</time>
      </trkpt>
      <trkpt lat="45.92559" lon="4.73634">
        <ele>173</ele>
        <time>2018-07-08T08:29:20Z</time>
      </trkpt>
      <trkpt lat="45.92564" lon="4.73633">
        <ele>173</ele>
        <time>2018-07-08T08:29:21Z</time>
      </trkpt>
      <trkpt lat="45.92569" lon="4.73632">
        <ele>173</ele>
        <time>2018-07-08T08:29:22Z</time>
      </trkpt>
      <trkpt lat="45.92572" lon="4.7363">
        <ele>173</ele>
        <time>2018-07-08T08:29:23Z</time>
      </trkpt>
      <trkpt lat="45.92579" lon="4.73629">
        <ele>173</ele>
        <time>2018-07-08T08:29:24Z</time>
      </trkpt>
      <trkpt lat="45.92584" lon="4.73627">
        <ele>172</ele>
        <time>2018-07-08T08:29:25Z</time>
      </trkpt>
      <trkpt lat="45.92589" lon="4.73628">
        <ele>172</ele>
        <time>2018-07-08T08:29:26Z</time>
      </trkpt>
      <trkpt lat="45.92595" lon="4.73629">
        <ele>172</ele>
        <time>2018-07-08T08:29:27Z</time>
      </trkpt>
      <trkpt lat="45.926" lon="4.7363">
        <ele>172</ele>
        <time>2018-07-08T08:29:28Z</time>
      </trkpt>
      <trkpt lat="45.92604" lon="4.73632">
        <ele>173</ele>
        <time>2018-07-08T08:29:29Z</time>
      </trkpt>
      <trkpt lat="45.92609" lon="4.73632">
        <ele>173</ele>
        <time>2018-07-08T08:29:30Z</time>
      </trkpt>
      <trkpt lat="45.92614" lon="4.73634">
        <ele>173</ele>
        <time>2018-07-08T08:29:31Z</time>
      </trkpt>
      <trkpt lat="45.92618" lon="4.73641">
        <ele>173</ele>
        <time>2018-07-08T08:29:32Z</time>
      </trkpt>
      <trkpt lat="45.92622" lon="4.73646">
        <ele>173</ele>
        <time>2018-07-08T08:29:33Z</time>
      </trkpt>
      <trkpt lat="45.92626" lon="4.73651">
        <ele>173</ele>
        <time>2018-07-08T08:29:34Z</time>
      </trkpt>
      <trkpt lat="45.92629" lon="4.73656">
        <ele>173</ele>
        <time>2018-07-08T08:29:35Z</time>
      </trkpt>
      <trkpt lat="45.92632" lon="4.73663">
        <ele>173</ele>
        <time>2018-07-08T08:29:36Z</time>
      </trkpt>
      <trkpt lat="45.92634" lon="4.7367">
        <ele>173</ele>
        <time>2018-07-08T08:29:37Z</time>
      </trkpt>
      <trkpt lat="45.92636" lon="4.73676">
        <ele>173</ele>
        <time>2018-07-08T08:29:38Z</time>
      </trkpt>
      <trkpt lat="45.9264" lon="4.73681">
        <ele>173</ele>
        <time>2018-07-08T08:29:39Z</time>
      </trkpt>
      <trkpt lat="45.92643" lon="4.73686">
        <ele>173</ele>
        <time>2018-07-08T08:29:40Z</time>
      </trkpt>
      <trkpt lat="45.92646" lon="4.73692">
        <ele>173</ele>
        <time>2018-07-08T08:29:41Z</time>
      </trkpt>
      <trkpt lat="45.92649" lon="4.73696">
        <ele>173</ele>
        <time>2018-07-08T08:29:42Z</time>
      </trkpt>
      <trkpt lat="45.92654" lon="4.73698">
        <ele>173</ele>
        <time>2018-07-08T08:29:43Z</time>
      </trkpt>
      <trkpt lat="45.92659" lon="4.73703">
        <ele>173</ele>
        <time>2018-07-08T08:29:44Z</time>
      </trkpt>
      <trkpt lat="45.92662" lon="4.73706">
        <ele>173</ele>
        <time>2018-07-08T08:29:45Z</time>
      </trkpt>
      <trkpt lat="45.92667" lon="4.73708">
        <ele>174</ele>
        <time>2018-07-08T08:29:46Z</time>
      </trkpt>
      <trkpt lat="45.92671" lon="4.7371">
        <ele>174</ele>
        <time>2018-07-08T08:29:47Z</time>
      </trkpt>
      <trkpt lat="45.92676" lon="4.7371">
        <ele>174</ele>
        <time>2018-07-08T08:29:48Z</time>
      </trkpt>
      <trkpt lat="45.9268" lon="4.73712">
        <ele>173</ele>
        <time>2018-07-08T08:29:49Z</time>
      </trkpt>
      <trkpt lat="45.92685" lon="4.73713">
        <ele>173</ele>
        <time>2018-07-08T08:29:50Z</time>
      </trkpt>
      <trkpt lat="45.92691" lon="4.73714">
        <ele>173</ele>
        <time>2018-07-08T08:29:51Z</time>
      </trkpt>
      <trkpt lat="45.92695" lon="4.73717">
        <ele>173</ele>
        <time>2018-07-08T08:29:52Z</time>
      </trkpt>
      <trkpt lat="45.927" lon="4.73717">
        <ele>173</ele>
        <time>2018-07-08T08:29:53Z</time>
      </trkpt>
      <trkpt lat="45.92705" lon="4.73719">
        <ele>173</ele>
        <time>2018-07-08T08:29:54Z</time>
      </trkpt>
      <trkpt lat="45.9271" lon="4.7372">
        <ele>173</ele>
        <time>2018-07-08T08:29:55Z</time>
      </trkpt>
      <trkpt lat="45.92715" lon="4.73721">
        <ele>173</ele>
        <time>2018-07-08T08:29:56Z</time>
      </trkpt>
      <trkpt lat="45.92722" lon="4.73722">
        <ele>173</ele>
        <time>2018-07-08T08:29:57Z</time>
      </trkpt>
      <trkpt lat="45.92728" lon="4.73724">
        <ele>173</ele>
        <time>2018-07-08T08:29:58Z</time>
      </trkpt>
      <trkpt lat="45.92733" lon="4.73725">
        <ele>173</ele>
        <time>2018-07-08T08:29:59Z</time>
      </trkpt>
      <trkpt lat="45.92737" lon="4.73727">
        <ele>173</ele>
        <time>2018-07-08T08:30:00Z</time>
      </trkpt>
      <trkpt lat="45.92741" lon="4.73728">
        <ele>173</ele>
        <time>2018-07-08T08:30:01Z</time>
      </trkpt>
      <trkpt lat="45.92746" lon="4.73729">
        <ele>173</ele>
        <time>2018-07-08T08:30:02Z</time>
      </trkpt>
      <trkpt lat="45.92752" lon="4.73737">
        <ele>173</ele>
        <time>2018-07-08T08:30:04Z</time>
      </trkpt>
      <trkpt lat="45.92757" lon="4.73738">
        <ele>173</ele>
        <time>2018-07-08T08:30:05Z</time>
      </trkpt>
      <trkpt lat="45.92764" lon="4.73741">
        <ele>173</ele>
        <time>2018-07-08T08:30:07Z</time>
      </trkpt>
      <trkpt lat="45.92766" lon="4.73741">
        <ele>172</ele>
        <time>2018-07-08T08:30:08Z</time>
      </trkpt>
      <trkpt lat="45.92774" lon="4.73748">
        <ele>172</ele>
        <time>2018-07-08T08:30:13Z</time>
      </trkpt>
      <trkpt lat="45.92775" lon="4.73751">
        <ele>173</ele>
        <time>2018-07-08T08:30:14Z</time>
      </trkpt>
      <trkpt lat="45.92781" lon="4.73759">
        <ele>173</ele>
        <time>2018-07-08T08:30:15Z</time>
      </trkpt>
      <trkpt lat="45.92785" lon="4.73762">
        <ele>173</ele>
        <time>2018-07-08T08:30:16Z</time>
      </trkpt>
      <trkpt lat="45.92789" lon="4.73764">
        <ele>173</ele>
        <time>2018-07-08T08:30:17Z</time>
      </trkpt>
      <trkpt lat="45.92797" lon="4.73764">
        <ele>173</ele>
        <time>2018-07-08T08:30:18Z</time>
      </trkpt>
      <trkpt lat="45.92802" lon="4.73766">
        <ele>173</ele>
        <time>2018-07-08T08:30:19Z</time>
      </trkpt>
      <trkpt lat="45.92806" lon="4.73768">
        <ele>173</ele>
        <time>2018-07-08T08:30:20Z</time>
      </trkpt>
      <trkpt lat="45.92812" lon="4.73772">
        <ele>173</ele>
        <time>2018-07-08T08:30:21Z</time>
      </trkpt>
      <trkpt lat="45.92815" lon="4.73775">
        <ele>173</ele>
        <time>2018-07-08T08:30:22Z</time>
      </trkpt>
      <trkpt lat="45.9282" lon="4.73778">
        <ele>173</ele>
        <time>2018-07-08T08:30:23Z</time>
      </trkpt>
      <trkpt lat="45.92824" lon="4.73782">
        <ele>173</ele>
        <time>2018-07-08T08:30:24Z</time>
      </trkpt>
      <trkpt lat="45.92828" lon="4.73785">
        <ele>173</ele>
        <time>2018-07-08T08:30:25Z</time>
      </trkpt>
      <trkpt lat="45.92832" lon="4.73789">
        <ele>173</ele>
        <time>2018-07-08T08:30:26Z</time>
      </trkpt>
      <trkpt lat="45.9284" lon="4.73793">
        <ele>173</ele>
        <time>2018-07-08T08:30:28Z</time>
      </trkpt>
      <trkpt lat="45.92843" lon="4.73797">
        <ele>173</ele>
        <time>2018-07-08T08:30:29Z</time>
      </trkpt>
      <trkpt lat="45.92849" lon="4.73798">
        <ele>173</ele>
        <time>2018-07-08T08:30:30Z</time>
      </trkpt>
      <trkpt lat="45.92853" lon="4.73803">
        <ele>173</ele>
        <time>2018-07-08T08:30:31Z</time>
      </trkpt>
      <trkpt lat="45.92854" lon="4.7381">
        <ele>173</ele>
        <time>2018-07-08T08:30:32Z</time>
      </trkpt>
      <trkpt lat="45.92856" lon="4.73818">
        <ele>173</ele>
        <time>2018-07-08T08:30:33Z</time>
      </trkpt>
      <trkpt lat="45.92859" lon="4.73826">
        <ele>173</ele>
        <time>2018-07-08T08:30:34Z</time>
      </trkpt>
      <trkpt lat="45.92862" lon="4.73834">
        <ele>173</ele>
        <time>2018-07-08T08:30:35Z</time>
      </trkpt>
      <trkpt lat="45.92865" lon="4.73841">
        <ele>173</ele>
        <time>2018-07-08T08:30:36Z</time>
      </trkpt>
      <trkpt lat="45.92868" lon="4.73849">
        <ele>173</ele>
        <time>2018-07-08T08:30:37Z</time>
      </trkpt>
      <trkpt lat="45.9287" lon="4.73857">
        <ele>173</ele>
        <time>2018-07-08T08:30:38Z</time>
      </trkpt>
      <trkpt lat="45.92872" lon="4.73864">
        <ele>173</ele>
        <time>2018-07-08T08:30:39Z</time>
      </trkpt>
      <trkpt lat="45.92874" lon="4.73873">
        <ele>173</ele>
        <time>2018-07-08T08:30:40Z</time>
      </trkpt>
      <trkpt lat="45.92875" lon="4.73881">
        <ele>173</ele>
        <time>2018-07-08T08:30:41Z</time>
      </trkpt>
      <trkpt lat="45.92877" lon="4.73889">
        <ele>173</ele>
        <time>2018-07-08T08:30:42Z</time>
      </trkpt>
      <trkpt lat="45.92878" lon="4.73896">
        <ele>173</ele>
        <time>2018-07-08T08:30:43Z</time>
      </trkpt>
      <trkpt lat="45.92881" lon="4.73904">
        <ele>173</ele>
        <time>2018-07-08T08:30:44Z</time>
      </trkpt>
      <trkpt lat="45.92882" lon="4.73913">
        <ele>173</ele>
        <time>2018-07-08T08:30:45Z</time>
      </trkpt>
      <trkpt lat="45.92881" lon="4.73922">
        <ele>172</ele>
        <time>2018-07-08T08:30:46Z</time>
      </trkpt>
      <trkpt lat="45.92881" lon="4.73929">
        <ele>172</ele>
        <time>2018-07-08T08:30:47Z</time>
      </trkpt>
      <trkpt lat="45.92881" lon="4.73937">
        <ele>172</ele>
        <time>2018-07-08T08:30:48Z</time>
      </trkpt>
      <trkpt lat="45.92882" lon="4.73944">
        <ele>172</ele>
        <time>2018-07-08T08:30:49Z</time>
      </trkpt>
      <trkpt lat="45.92882" lon="4.73952">
        <ele>172</ele>
        <time>2018-07-08T08:30:50Z</time>
      </trkpt>
      <trkpt lat="45.92882" lon="4.73959">
        <ele>172</ele>
        <time>2018-07-08T08:30:51Z</time>
      </trkpt>
      <trkpt lat="45.92882" lon="4.73965">
        <ele>172</ele>
        <time>2018-07-08T08:30:52Z</time>
      </trkpt>
      <trkpt lat="45.92882" lon="4.73972">
        <ele>172</ele>
        <time>2018-07-08T08:30:53Z</time>
      </trkpt>
      <trkpt lat="45.92881" lon="4.73979">
        <ele>172</ele>
        <time>2018-07-08T08:30:54Z</time>
      </trkpt>
      <trkpt lat="45.92879" lon="4.73985">
        <ele>172</ele>
        <time>2018-07-08T08:30:55Z</time>
      </trkpt>
      <trkpt lat="45.92878" lon="4.73991">
        <ele>172</ele>
        <time>2018-07-08T08:30:56Z</time>
      </trkpt>
      <trkpt lat="45.92877" lon="4.74">
        <ele>172</ele>
        <time>2018-07-08T08:30:57Z</time>
      </trkpt>
      <trkpt lat="45.92877" lon="4.74008">
        <ele>172</ele>
        <time>2018-07-08T08:30:58Z</time>
      </trkpt>
      <trkpt lat="45.92875" lon="4.74015">
        <ele>172</ele>
        <time>2018-07-08T08:30:59Z</time>
      </trkpt>
      <trkpt lat="45.92875" lon="4.74023">
        <ele>172</ele>
        <time>2018-07-08T08:31:00Z</time>
      </trkpt>
      <trkpt lat="45.92874" lon="4.74029">
        <ele>172</ele>
        <time>2018-07-08T08:31:01Z</time>
      </trkpt>
      <trkpt lat="45.92873" lon="4.74038">
        <ele>172</ele>
        <time>2018-07-08T08:31:02Z</time>
      </trkpt>
      <trkpt lat="45.9287" lon="4.74045">
        <ele>172</ele>
        <time>2018-07-08T08:31:03Z</time>
      </trkpt>
      <trkpt lat="45.92866" lon="4.74051">
        <ele>172</ele>
        <time>2018-07-08T08:31:04Z</time>
      </trkpt>
      <trkpt lat="45.92862" lon="4.74057">
        <ele>172</ele>
        <time>2018-07-08T08:31:05Z</time>
      </trkpt>
      <trkpt lat="45.92857" lon="4.74061">
        <ele>172</ele>
        <time>2018-07-08T08:31:06Z</time>
      </trkpt>
      <trkpt lat="45.92853" lon="4.74067">
        <ele>172</ele>
        <time>2018-07-08T08:31:07Z</time>
      </trkpt>
      <trkpt lat="45.92849" lon="4.74072">
        <ele>172</ele>
        <time>2018-07-08T08:31:08Z</time>
      </trkpt>
      <trkpt lat="45.92845" lon="4.74079">
        <ele>172</ele>
        <time>2018-07-08T08:31:09Z</time>
      </trkpt>
      <trkpt lat="45.92839" lon="4.74085">
        <ele>171</ele>
        <time>2018-07-08T08:31:10Z</time>
      </trkpt>
      <trkpt lat="45.92835" lon="4.7409">
        <ele>171</ele>
        <time>2018-07-08T08:31:11Z</time>
      </trkpt>
      <trkpt lat="45.9283" lon="4.74097">
        <ele>171</ele>
        <time>2018-07-08T08:31:12Z</time>
      </trkpt>
      <trkpt lat="45.92826" lon="4.74103">
        <ele>171</ele>
        <time>2018-07-08T08:31:13Z</time>
      </trkpt>
      <trkpt lat="45.92821" lon="4.74108">
        <ele>171</ele>
        <time>2018-07-08T08:31:14Z</time>
      </trkpt>
      <trkpt lat="45.92815" lon="4.74114">
        <ele>172</ele>
        <time>2018-07-08T08:31:15Z</time>
      </trkpt>
      <trkpt lat="45.9281" lon="4.74118">
        <ele>172</ele>
        <time>2018-07-08T08:31:16Z</time>
      </trkpt>
      <trkpt lat="45.92805" lon="4.74124">
        <ele>172</ele>
        <time>2018-07-08T08:31:17Z</time>
      </trkpt>
      <trkpt lat="45.92801" lon="4.7413">
        <ele>172</ele>
        <time>2018-07-08T08:31:18Z</time>
      </trkpt>
      <trkpt lat="45.92795" lon="4.74136">
        <ele>172</ele>
        <time>2018-07-08T08:31:19Z</time>
      </trkpt>
      <trkpt lat="45.9279" lon="4.74141">
        <ele>172</ele>
        <time>2018-07-08T08:31:20Z</time>
      </trkpt>
      <trkpt lat="45.92785" lon="4.74146">
        <ele>172</ele>
        <time>2018-07-08T08:31:21Z</time>
      </trkpt>
      <trkpt lat="45.9278" lon="4.74151">
        <ele>172</ele>
        <time>2018-07-08T08:31:22Z</time>
      </trkpt>
      <trkpt lat="45.92775" lon="4.74156">
        <ele>172</ele>
        <time>2018-07-08T08:31:23Z</time>
      </trkpt>
      <trkpt lat="45.9277" lon="4.74161">
        <ele>172</ele>
        <time>2018-07-08T08:31:24Z</time>
      </trkpt>
      <trkpt lat="45.92765" lon="4.74168">
        <ele>172</ele>
        <time>2018-07-08T08:31:25Z</time>
      </trkpt>
      <trkpt lat="45.92759" lon="4.74174">
        <ele>172</ele>
        <time>2018-07-08T08:31:26Z</time>
      </trkpt>
      <trkpt lat="45.92753" lon="4.74179">
        <ele>172</ele>
        <time>2018-07-08T08:31:27Z</time>
      </trkpt>
      <trkpt lat="45.92746" lon="4.74184">
        <ele>172</ele>
        <time>2018-07-08T08:31:28Z</time>
      </trkpt>
      <trkpt lat="45.92742" lon="4.74189">
        <ele>172</ele>
        <time>2018-07-08T08:31:29Z</time>
      </trkpt>
      <trkpt lat="45.92738" lon="4.74195">
        <ele>171</ele>
        <time>2018-07-08T08:31:30Z</time>
      </trkpt>
      <trkpt lat="45.92732" lon="4.74201">
        <ele>171</ele>
        <time>2018-07-08T08:31:31Z</time>
      </trkpt>
      <trkpt lat="45.92727" lon="4.74207">
        <ele>171</ele>
        <time>2018-07-08T08:31:32Z</time>
      </trkpt>
      <trkpt lat="45.92722" lon="4.74214">
        <ele>171</ele>
        <time>2018-07-08T08:31:33Z</time>
      </trkpt>
      <trkpt lat="45.92719" lon="4.74219">
        <ele>171</ele>
        <time>2018-07-08T08:31:34Z</time>
      </trkpt>
      <trkpt lat="45.92716" lon="4.74225">
        <ele>171</ele>
        <time>2018-07-08T08:31:35Z</time>
      </trkpt>
      <trkpt lat="45.92712" lon="4.74231">
        <ele>171</ele>
        <time>2018-07-08T08:31:36Z</time>
      </trkpt>
      <trkpt lat="45.92708" lon="4.74236">
        <ele>171</ele>
        <time>2018-07-08T08:31:37Z</time>
      </trkpt>
      <trkpt lat="45.92702" lon="4.74245">
        <ele>171</ele>
        <time>2018-07-08T08:31:39Z</time>
      </trkpt>
      <trkpt lat="45.92697" lon="4.74251">
        <ele>171</ele>
        <time>2018-07-08T08:31:40Z</time>
      </trkpt>
      <trkpt lat="45.92694" lon="4.74257">
        <ele>171</ele>
        <time>2018-07-08T08:31:41Z</time>
      </trkpt>
      <trkpt lat="45.9269" lon="4.74263">
        <ele>171</ele>
        <time>2018-07-08T08:31:42Z</time>
      </trkpt>
      <trkpt lat="45.92685" lon="4.74274">
        <ele>171</ele>
        <time>2018-07-08T08:31:44Z</time>
      </trkpt>
      <trkpt lat="45.92684" lon="4.74279">
        <ele>171</ele>
        <time>2018-07-08T08:31:45Z</time>
      </trkpt>
      <trkpt lat="45.92681" lon="4.74284">
        <ele>171</ele>
        <time>2018-07-08T08:31:46Z</time>
      </trkpt>
      <trkpt lat="45.92679" lon="4.74291">
        <ele>171</ele>
        <time>2018-07-08T08:31:47Z</time>
      </trkpt>
      <trkpt lat="45.92674" lon="4.743">
        <ele>171</ele>
        <time>2018-07-08T08:31:49Z</time>
      </trkpt>
      <trkpt lat="45.92672" lon="4.74304">
        <ele>171</ele>
        <time>2018-07-08T08:31:50Z</time>
      </trkpt>
      <trkpt lat="45.92668" lon="4.7431">
        <ele>171</ele>
        <time>2018-07-08T08:31:51Z</time>
      </trkpt>
      <trkpt lat="45.92665" lon="4.74317">
        <ele>171</ele>
        <time>2018-07-08T08:31:52Z</time>
      </trkpt>
      <trkpt lat="45.92662" lon="4.74324">
        <ele>171</ele>
        <time>2018-07-08T08:31:53Z</time>
      </trkpt>
      <trkpt lat="45.92657" lon="4.7433">
        <ele>171</ele>
        <time>2018-07-08T08:31:54Z</time>
      </trkpt>
      <trkpt lat="45.92653" lon="4.74336">
        <ele>171</ele>
        <time>2018-07-08T08:31:55Z</time>
      </trkpt>
      <trkpt lat="45.9265" lon="4.74345">
        <ele>171</ele>
        <time>2018-07-08T08:31:56Z</time>
      </trkpt>
      <trkpt lat="45.92646" lon="4.74351">
        <ele>171</ele>
        <time>2018-07-08T08:31:57Z</time>
      </trkpt>
      <trkpt lat="45.92642" lon="4.74357">
        <ele>171</ele>
        <time>2018-07-08T08:31:58Z</time>
      </trkpt>
      <trkpt lat="45.92638" lon="4.74364">
        <ele>171</ele>
        <time>2018-07-08T08:31:59Z</time>
      </trkpt>
      <trkpt lat="45.92634" lon="4.74371">
        <ele>171</ele>
        <time>2018-07-08T08:32:00Z</time>
      </trkpt>
      <trkpt lat="45.9263" lon="4.74378">
        <ele>170</ele>
        <time>2018-07-08T08:32:01Z</time>
      </trkpt>
      <trkpt lat="45.92626" lon="4.74384">
        <ele>170</ele>
        <time>2018-07-08T08:32:02Z</time>
      </trkpt>
      <trkpt lat="45.92621" lon="4.74393">
        <ele>170</ele>
        <time>2018-07-08T08:32:04Z</time>
      </trkpt>
      <trkpt lat="45.92616" lon="4.74401">
        <ele>170</ele>
        <time>2018-07-08T08:32:05Z</time>
      </trkpt>
      <trkpt lat="45.92615" lon="4.74408">
        <ele>170</ele>
        <time>2018-07-08T08:32:06Z</time>
      </trkpt>
      <trkpt lat="45.92611" lon="4.74415">
        <ele>170</ele>
        <time>2018-07-08T08:32:07Z</time>
      </trkpt>
      <trkpt lat="45.92605" lon="4.74422">
        <ele>170</ele>
        <time>2018-07-08T08:32:08Z</time>
      </trkpt>
      <trkpt lat="45.92601" lon="4.74429">
        <ele>170</ele>
        <time>2018-07-08T08:32:09Z</time>
      </trkpt>
      <trkpt lat="45.92597" lon="4.74436">
        <ele>170</ele>
        <time>2018-07-08T08:32:10Z</time>
      </trkpt>
      <trkpt lat="45.92594" lon="4.74446">
        <ele>170</ele>
        <time>2018-07-08T08:32:11Z</time>
      </trkpt>
      <trkpt lat="45.9259" lon="4.74454">
        <ele>170</ele>
        <time>2018-07-08T08:32:12Z</time>
      </trkpt>
      <trkpt lat="45.92586" lon="4.74461">
        <ele>170</ele>
        <time>2018-07-08T08:32:13Z</time>
      </trkpt>
      <trkpt lat="45.92582" lon="4.74468">
        <ele>170</ele>
        <time>2018-07-08T08:32:14Z</time>
      </trkpt>
      <trkpt lat="45.92578" lon="4.74475">
        <ele>170</ele>
        <time>2018-07-08T08:32:15Z</time>
      </trkpt>
      <trkpt lat="45.92574" lon="4.74481">
        <ele>170</ele>
        <time>2018-07-08T08:32:16Z</time>
      </trkpt>
      <trkpt lat="45.92571" lon="4.74487">
        <ele>170</ele>
        <time>2018-07-08T08:32:17Z</time>
      </trkpt>
      <trkpt lat="45.92566" lon="4.74495">
        <ele>170</ele>
        <time>2018-07-08T08:32:18Z</time>
      </trkpt>
      <trkpt lat="45.92563" lon="4.74502">
        <ele>170</ele>
        <time>2018-07-08T08:32:19Z</time>
      </trkpt>
      <trkpt lat="45.92558" lon="4.74509">
        <ele>170</ele>
        <time>2018-07-08T08:32:20Z</time>
      </trkpt>
      <trkpt lat="45.92554" lon="4.74516">
        <ele>170</ele>
        <time>2018-07-08T08:32:21Z</time>
      </trkpt>
      <trkpt lat="45.92549" lon="4.74521">
        <ele>170</ele>
        <time>2018-07-08T08:32:22Z</time>
      </trkpt>
      <trkpt lat="45.92546" lon="4.74529">
        <ele>170</ele>
        <time>2018-07-08T08:32:23Z</time>
      </trkpt>
      <trkpt lat="45.92543" lon="4.74534">
        <ele>170</ele>
        <time>2018-07-08T08:32:24Z</time>
      </trkpt>
      <trkpt lat="45.92538" lon="4.7454">
        <ele>171</ele>
        <time>2018-07-08T08:32:25Z</time>
      </trkpt>
      <trkpt lat="45.92533" lon="4.74546">
        <ele>171</ele>
        <time>2018-07-08T08:32:26Z</time>
      </trkpt>
      <trkpt lat="45.92529" lon="4.74552">
        <ele>171</ele>
        <time>2018-07-08T08:32:27Z</time>
      </trkpt>
      <trkpt lat="45.92525" lon="4.74559">
        <ele>171</ele>
        <time>2018-07-08T08:32:28Z</time>
      </trkpt>
      <trkpt lat="45.92521" lon="4.74567">
        <ele>171</ele>
        <time>2018-07-08T08:32:29Z</time>
      </trkpt>
      <trkpt lat="45.92516" lon="4.74575">
        <ele>171</ele>
        <time>2018-07-08T08:32:30Z</time>
      </trkpt>
      <trkpt lat="45.92512" lon="4.74581">
        <ele>171</ele>
        <time>2018-07-08T08:32:31Z</time>
      </trkpt>
      <trkpt lat="45.92507" lon="4.74588">
        <ele>171</ele>
        <time>2018-07-08T08:32:32Z</time>
      </trkpt>
      <trkpt lat="45.92502" lon="4.74593">
        <ele>171</ele>
        <time>2018-07-08T08:32:33Z</time>
      </trkpt>
      <trkpt lat="45.92497" lon="4.74599">
        <ele>171</ele>
        <time>2018-07-08T08:32:34Z</time>
      </trkpt>
      <trkpt lat="45.92491" lon="4.74605">
        <ele>171</ele>
        <time>2018-07-08T08:32:35Z</time>
      </trkpt>
      <trkpt lat="45.92486" lon="4.7461">
        <ele>171</ele>
        <time>2018-07-08T08:32:36Z</time>
      </trkpt>
      <trkpt lat="45.92481" lon="4.74618">
        <ele>171</ele>
        <time>2018-07-08T08:32:37Z</time>
      </trkpt>
      <trkpt lat="45.92476" lon="4.74624">
        <ele>171</ele>
        <time>2018-07-08T08:32:38Z</time>
      </trkpt>
      <trkpt lat="45.92471" lon="4.74631">
        <ele>171</ele>
        <time>2018-07-08T08:32:39Z</time>
      </trkpt>
      <trkpt lat="45.92467" lon="4.74637">
        <ele>171</ele>
        <time>2018-07-08T08:32:40Z</time>
      </trkpt>
      <trkpt lat="45.92463" lon="4.74644">
        <ele>171</ele>
        <time>2018-07-08T08:32:41Z</time>
      </trkpt>
      <trkpt lat="45.92458" lon="4.74652">
        <ele>171</ele>
        <time>2018-07-08T08:32:42Z</time>
      </trkpt>
      <trkpt lat="45.92454" lon="4.7466">
        <ele>171</ele>
        <time>2018-07-08T08:32:43Z</time>
      </trkpt>
      <trkpt lat="45.9245" lon="4.74668">
        <ele>171</ele>
        <time>2018-07-08T08:32:44Z</time>
      </trkpt>
      <trkpt lat="45.92446" lon="4.74674">
        <ele>171</ele>
        <time>2018-07-08T08:32:45Z</time>
      </trkpt>
      <trkpt lat="45.92442" lon="4.74683">
        <ele>171</ele>
        <time>2018-07-08T08:32:46Z</time>
      </trkpt>
      <trkpt lat="45.92439" lon="4.74692">
        <ele>171</ele>
        <time>2018-07-08T08:32:47Z</time>
      </trkpt>
      <trkpt lat="45.92434" lon="4.74704">
        <ele>171</ele>
        <time>2018-07-08T08:32:48Z</time>
      </trkpt>
      <trkpt lat="45.9243" lon="4.74711">
        <ele>171</ele>
        <time>2018-07-08T08:32:49Z</time>
      </trkpt>
      <trkpt lat="45.92426" lon="4.74719">
        <ele>171</ele>
        <time>2018-07-08T08:32:50Z</time>
      </trkpt>
      <trkpt lat="45.92423" lon="4.74727">
        <ele>171</ele>
        <time>2018-07-08T08:32:51Z</time>
      </trkpt>
      <trkpt lat="45.9242" lon="4.74735">
        <ele>171</ele>
        <time>2018-07-08T08:32:52Z</time>
      </trkpt>
      <trkpt lat="45.92417" lon="4.74745">
        <ele>172</ele>
        <time>2018-07-08T08:32:53Z</time>
      </trkpt>
      <trkpt lat="45.92414" lon="4.74753">
        <ele>172</ele>
        <time>2018-07-08T08:32:54Z</time>
      </trkpt>
      <trkpt lat="45.92412" lon="4.74762">
        <ele>172</ele>
        <time>2018-07-08T08:32:55Z</time>
      </trkpt>
      <trkpt lat="45.9241" lon="4.74771">
        <ele>172</ele>
        <time>2018-07-08T08:32:56Z</time>
      </trkpt>
      <trkpt lat="45.92409" lon="4.7478">
        <ele>171</ele>
        <time>2018-07-08T08:32:57Z</time>
      </trkpt>
      <trkpt lat="45.92407" lon="4.7479">
        <ele>171</ele>
        <time>2018-07-08T08:32:58Z</time>
      </trkpt>
      <trkpt lat="45.92405" lon="4.74799">
        <ele>171</ele>
        <time>2018-07-08T08:32:59Z</time>
      </trkpt>
      <trkpt lat="45.92404" lon="4.7481">
        <ele>171</ele>
        <time>2018-07-08T08:33:00Z</time>
      </trkpt>
      <trkpt lat="45.92402" lon="4.74821">
        <ele>171</ele>
        <time>2018-07-08T08:33:01Z</time>
      </trkpt>
      <trkpt lat="45.924" lon="4.74831">
        <ele>171</ele>
        <time>2018-07-08T08:33:02Z</time>
      </trkpt>
      <trkpt lat="45.92397" lon="4.74841">
        <ele>171</ele>
        <time>2018-07-08T08:33:03Z</time>
      </trkpt>
      <trkpt lat="45.92395" lon="4.74851">
        <ele>171</ele>
        <time>2018-07-08T08:33:04Z</time>
      </trkpt>
      <trkpt lat="45.92391" lon="4.74859">
        <ele>171</ele>
        <time>2018-07-08T08:33:05Z</time>
      </trkpt>
      <trkpt lat="45.92388" lon="4.74869">
        <ele>171</ele>
        <time>2018-07-08T08:33:06Z</time>
      </trkpt>
      <trkpt lat="45.92384" lon="4.74878">
        <ele>171</ele>
        <time>2018-07-08T08:33:07Z</time>
      </trkpt>
      <trkpt lat="45.92381" lon="4.74887">
        <ele>171</ele>
        <time>2018-07-08T08:33:08Z</time>
      </trkpt>
      <trkpt lat="45.92377" lon="4.74895">
        <ele>171</ele>
        <time>2018-07-08T08:33:09Z</time>
      </trkpt>
      <trkpt lat="45.92373" lon="4.74904">
        <ele>171</ele>
        <time>2018-07-08T08:33:10Z</time>
      </trkpt>
      <trkpt lat="45.9237" lon="4.74914">
        <ele>171</ele>
        <time>2018-07-08T08:33:11Z</time>
      </trkpt>
      <trkpt lat="45.92366" lon="4.74922">
        <ele>170</ele>
        <time>2018-07-08T08:33:12Z</time>
      </trkpt>
      <trkpt lat="45.92363" lon="4.7493">
        <ele>170</ele>
        <time>2018-07-08T08:33:13Z</time>
      </trkpt>
      <trkpt lat="45.9236" lon="4.7494">
        <ele>170</ele>
        <time>2018-07-08T08:33:14Z</time>
      </trkpt>
      <trkpt lat="45.92357" lon="4.74949">
        <ele>170</ele>
        <time>2018-07-08T08:33:15Z</time>
      </trkpt>
      <trkpt lat="45.92353" lon="4.74958">
        <ele>170</ele>
        <time>2018-07-08T08:33:16Z</time>
      </trkpt>
      <trkpt lat="45.9235" lon="4.74966">
        <ele>170</ele>
        <time>2018-07-08T08:33:17Z</time>
      </trkpt>
      <trkpt lat="45.92346" lon="4.74974">
        <ele>170</ele>
        <time>2018-07-08T08:33:18Z</time>
      </trkpt>
      <trkpt lat="45.92343" lon="4.74982">
        <ele>170</ele>
        <time>2018-07-08T08:33:19Z</time>
      </trkpt>
      <trkpt lat="45.9234" lon="4.7499">
        <ele>170</ele>
        <time>2018-07-08T08:33:20Z</time>
      </trkpt>
      <trkpt lat="45.92337" lon="4.74998">
        <ele>170</ele>
        <time>2018-07-08T08:33:21Z</time>
      </trkpt>
      <trkpt lat="45.92334" lon="4.75007">
        <ele>170</ele>
        <time>2018-07-08T08:33:22Z</time>
      </trkpt>
      <trkpt lat="45.92332" lon="4.75013">
        <ele>171</ele>
        <time>2018-07-08T08:33:23Z</time>
      </trkpt>
      <trkpt lat="45.92329" lon="4.7502">
        <ele>171</ele>
        <time>2018-07-08T08:33:24Z</time>
      </trkpt>
      <trkpt lat="45.92326" lon="4.75029">
        <ele>171</ele>
        <time>2018-07-08T08:33:25Z</time>
      </trkpt>
      <trkpt lat="45.92322" lon="4.75035">
        <ele>171</ele>
        <time>2018-07-08T08:33:26Z</time>
      </trkpt>
      <trkpt lat="45.92319" lon="4.75041">
        <ele>172</ele>
        <time>2018-07-08T08:33:27Z</time>
      </trkpt>
      <trkpt lat="45.92315" lon="4.75048">
        <ele>172</ele>
        <time>2018-07-08T08:33:28Z</time>
      </trkpt>
      <trkpt lat="45.92311" lon="4.75055">
        <ele>172</ele>
        <time>2018-07-08T08:33:29Z</time>
      </trkpt>
      <trkpt lat="45.92307" lon="4.75062">
        <ele>172</ele>
        <time>2018-07-08T08:33:30Z</time>
      </trkpt>
      <trkpt lat="45.92302" lon="4.75068">
        <ele>172</ele>
        <time>2018-07-08T08:33:31Z</time>
      </trkpt>
      <trkpt lat="45.92297" lon="4.75074">
        <ele>172</ele>
        <time>2018-07-08T08:33:32Z</time>
      </trkpt>
      <trkpt lat="45.92292" lon="4.7508">
        <ele>172</ele>
        <time>2018-07-08T08:33:33Z</time>
      </trkpt>
      <trkpt lat="45.92287" lon="4.75087">
        <ele>173</ele>
        <time>2018-07-08T08:33:34Z</time>
      </trkpt>
      <trkpt lat="45.92282" lon="4.75092">
        <ele>173</ele>
        <time>2018-07-08T08:33:35Z</time>
      </trkpt>
      <trkpt lat="45.92278" lon="4.75097">
        <ele>173</ele>
        <time>2018-07-08T08:33:36Z</time>
      </trkpt>
      <trkpt lat="45.92273" lon="4.75102">
        <ele>173</ele>
        <time>2018-07-08T08:33:37Z</time>
      </trkpt>
      <trkpt lat="45.92268" lon="4.75108">
        <ele>174</ele>
        <time>2018-07-08T08:33:38Z</time>
      </trkpt>
      <trkpt lat="45.92263" lon="4.75113">
        <ele>174</ele>
        <time>2018-07-08T08:33:39Z</time>
      </trkpt>
      <trkpt lat="45.92258" lon="4.75118">
        <ele>174</ele>
        <time>2018-07-08T08:33:40Z</time>
      </trkpt>
      <trkpt lat="45.92253" lon="4.75124">
        <ele>174</ele>
        <time>2018-07-08T08:33:41Z</time>
      </trkpt>
      <trkpt lat="45.92248" lon="4.75129">
        <ele>174</ele>
        <time>2018-07-08T08:33:42Z</time>
      </trkpt>
      <trkpt lat="45.92243" lon="4.75135">
        <ele>174</ele>
        <time>2018-07-08T08:33:43Z</time>
      </trkpt>
      <trkpt lat="45.9224" lon="4.75139">
        <ele>174</ele>
        <time>2018-07-08T08:33:44Z</time>
      </trkpt>
      <trkpt lat="45.92236" lon="4.75146">
        <ele>174</ele>
        <time>2018-07-08T08:33:45Z</time>
      </trkpt>
      <trkpt lat="45.92231" lon="4.75152">
        <ele>174</ele>
        <time>2018-07-08T08:33:46Z</time>
      </trkpt>
      <trkpt lat="45.92227" lon="4.75158">
        <ele>174</ele>
        <time>2018-07-08T08:33:47Z</time>
      </trkpt>
      <trkpt lat="45.92223" lon="4.75164">
        <ele>174</ele>
        <time>2018-07-08T08:33:48Z</time>
      </trkpt>
      <trkpt lat="45.9222" lon="4.75171">
        <ele>175</ele>
        <time>2018-07-08T08:33:49Z</time>
      </trkpt>
      <trkpt lat="45.92218" lon="4.75177">
        <ele>175</ele>
        <time>2018-07-08T08:33:50Z</time>
      </trkpt>
      <trkpt lat="45.92216" lon="4.75183">
        <ele>175</ele>
        <time>2018-07-08T08:33:51Z</time>
      </trkpt>
      <trkpt lat="45.92214" lon="4.7519">
        <ele>175</ele>
        <time>2018-07-08T08:33:52Z</time>
      </trkpt>
      <trkpt lat="45.92214" lon="4.75196">
        <ele>175</ele>
        <time>2018-07-08T08:33:53Z</time>
      </trkpt>
      <trkpt lat="45.92212" lon="4.75203">
        <ele>175</ele>
        <time>2018-07-08T08:33:54Z</time>
      </trkpt>
      <trkpt lat="45.92212" lon="4.7521">
        <ele>175</ele>
        <time>2018-07-08T08:33:55Z</time>
      </trkpt>
      <trkpt lat="45.92212" lon="4.75218">
        <ele>175</ele>
        <time>2018-07-08T08:33:56Z</time>
      </trkpt>
      <trkpt lat="45.92211" lon="4.75224">
        <ele>175</ele>
        <time>2018-07-08T08:33:57Z</time>
      </trkpt>
      <trkpt lat="45.92212" lon="4.75232">
        <ele>175</ele>
        <time>2018-07-08T08:33:58Z</time>
      </trkpt>
      <trkpt lat="45.92213" lon="4.75244">
        <ele>175</ele>
        <time>2018-07-08T08:34:00Z</time>
      </trkpt>
      <trkpt lat="45.92212" lon="4.75251">
        <ele>175</ele>
        <time>2018-07-08T08:34:01Z</time>
      </trkpt>
      <trkpt lat="45.92212" lon="4.75259">
        <ele>175</ele>
        <time>2018-07-08T08:34:02Z</time>
      </trkpt>
      <trkpt lat="45.92212" lon="4.75265">
        <ele>176</ele>
        <time>2018-07-08T08:34:03Z</time>
      </trkpt>
      <trkpt lat="45.92211" lon="4.75274">
        <ele>176</ele>
        <time>2018-07-08T08:34:04Z</time>
      </trkpt>
      <trkpt lat="45.9221" lon="4.75284">
        <ele>176</ele>
        <time>2018-07-08T08:34:05Z</time>
      </trkpt>
      <trkpt lat="45.9221" lon="4.75293">
        <ele>176</ele>
        <time>2018-07-08T08:34:06Z</time>
      </trkpt>
      <trkpt lat="45.9221" lon="4.75298">
        <ele>176</ele>
        <time>2018-07-08T08:34:07Z</time>
      </trkpt>
      <trkpt lat="45.92209" lon="4.75305">
        <ele>176</ele>
        <time>2018-07-08T08:34:08Z</time>
      </trkpt>
      <trkpt lat="45.92208" lon="4.75314">
        <ele>176</ele>
        <time>2018-07-08T08:34:09Z</time>
      </trkpt>
      <trkpt lat="45.92208" lon="4.75323">
        <ele>176</ele>
        <time>2018-07-08T08:34:10Z</time>
      </trkpt>
      <trkpt lat="45.92207" lon="4.75331">
        <ele>176</ele>
        <time>2018-07-08T08:34:11Z</time>
      </trkpt>
      <trkpt lat="45.92206" lon="4.75339">
        <ele>177</ele>
        <time>2018-07-08T08:34:12Z</time>
      </trkpt>
      <trkpt lat="45.92204" lon="4.75347">
        <ele>177</ele>
        <time>2018-07-08T08:34:13Z</time>
      </trkpt>
      <trkpt lat="45.92201" lon="4.75354">
        <ele>177</ele>
        <time>2018-07-08T08:34:14Z</time>
      </trkpt>
      <trkpt lat="45.92201" lon="4.75359">
        <ele>177</ele>
        <time>2018-07-08T08:34:15Z</time>
      </trkpt>
      <trkpt lat="45.92197" lon="4.75366">
        <ele>177</ele>
        <time>2018-07-08T08:34:16Z</time>
      </trkpt>
      <trkpt lat="45.92194" lon="4.75374">
        <ele>177</ele>
        <time>2018-07-08T08:34:17Z</time>
      </trkpt>
      <trkpt lat="45.92193" lon="4.75381">
        <ele>177</ele>
        <time>2018-07-08T08:34:18Z</time>
      </trkpt>
      <trkpt lat="45.9219" lon="4.75388">
        <ele>177</ele>
        <time>2018-07-08T08:34:19Z</time>
      </trkpt>
      <trkpt lat="45.92186" lon="4.75395">
        <ele>177</ele>
        <time>2018-07-08T08:34:20Z</time>
      </trkpt>
      <trkpt lat="45.92183" lon="4.75402">
        <ele>177</ele>
        <time>2018-07-08T08:34:21Z</time>
      </trkpt>
      <trkpt lat="45.92182" lon="4.7541">
        <ele>177</ele>
        <time>2018-07-08T08:34:22Z</time>
      </trkpt>
      <trkpt lat="45.92178" lon="4.75417">
        <ele>177</ele>
        <time>2018-07-08T08:34:23Z</time>
      </trkpt>
      <trkpt lat="45.92175" lon="4.75424">
        <ele>177</ele>
        <time>2018-07-08T08:34:24Z</time>
      </trkpt>
      <trkpt lat="45.92172" lon="4.7543">
        <ele>177</ele>
        <time>2018-07-08T08:34:25Z</time>
      </trkpt>
      <trkpt lat="45.92169" lon="4.75438">
        <ele>177</ele>
        <time>2018-07-08T08:34:26Z</time>
      </trkpt>
      <trkpt lat="45.92164" lon="4.75448">
        <ele>176</ele>
        <time>2018-07-08T08:34:27Z</time>
      </trkpt>
      <trkpt lat="45.92161" lon="4.75458">
        <ele>176</ele>
        <time>2018-07-08T08:34:28Z</time>
      </trkpt>
      <trkpt lat="45.92158" lon="4.75467">
        <ele>176</ele>
        <time>2018-07-08T08:34:29Z</time>
      </trkpt>
      <trkpt lat="45.92155" lon="4.75474">
        <ele>176</ele>
        <time>2018-07-08T08:34:30Z</time>
      </trkpt>
      <trkpt lat="45.92151" lon="4.75482">
        <ele>176</ele>
        <time>2018-07-08T08:34:31Z</time>
      </trkpt>
      <trkpt lat="45.92146" lon="4.75491">
        <ele>176</ele>
        <time>2018-07-08T08:34:32Z</time>
      </trkpt>
      <trkpt lat="45.92144" lon="4.755">
        <ele>175</ele>
        <time>2018-07-08T08:34:33Z</time>
      </trkpt>
      <trkpt lat="45.9214" lon="4.75506">
        <ele>174</ele>
        <time>2018-07-08T08:34:34Z</time>
      </trkpt>
      <trkpt lat="45.92136" lon="4.75514">
        <ele>174</ele>
        <time>2018-07-08T08:34:35Z</time>
      </trkpt>
      <trkpt lat="45.92132" lon="4.75526">
        <ele>174</ele>
        <time>2018-07-08T08:34:36Z</time>
      </trkpt>
      <trkpt lat="45.92128" lon="4.75535">
        <ele>174</ele>
        <time>2018-07-08T08:34:37Z</time>
      </trkpt>
      <trkpt lat="45.92124" lon="4.75541">
        <ele>174</ele>
        <time>2018-07-08T08:34:38Z</time>
      </trkpt>
      <trkpt lat="45.9212" lon="4.7555">
        <ele>174</ele>
        <time>2018-07-08T08:34:39Z</time>
      </trkpt>
      <trkpt lat="45.92116" lon="4.75557">
        <ele>174</ele>
        <time>2018-07-08T08:34:40Z</time>
      </trkpt>
      <trkpt lat="45.92112" lon="4.75565">
        <ele>174</ele>
        <time>2018-07-08T08:34:41Z</time>
      </trkpt>
      <trkpt lat="45.9211" lon="4.7557">
        <ele>174</ele>
        <time>2018-07-08T08:34:42Z</time>
      </trkpt>
      <trkpt lat="45.92109" lon="4.75583">
        <ele>174</ele>
        <time>2018-07-08T08:34:44Z</time>
      </trkpt>
      <trkpt lat="45.92111" lon="4.75587">
        <ele>174</ele>
        <time>2018-07-08T08:34:45Z</time>
      </trkpt>
      <trkpt lat="45.92114" lon="4.75593">
        <ele>174</ele>
        <time>2018-07-08T08:34:46Z</time>
      </trkpt>
      <trkpt lat="45.92119" lon="4.75597">
        <ele>174</ele>
        <time>2018-07-08T08:34:47Z</time>
      </trkpt>
      <trkpt lat="45.92124" lon="4.75601">
        <ele>174</ele>
        <time>2018-07-08T08:34:48Z</time>
      </trkpt>
      <trkpt lat="45.92129" lon="4.75604">
        <ele>174</ele>
        <time>2018-07-08T08:34:49Z</time>
      </trkpt>
      <trkpt lat="45.92136" lon="4.75613">
        <ele>174</ele>
        <time>2018-07-08T08:34:51Z</time>
      </trkpt>
      <trkpt lat="45.9214" lon="4.75617">
        <ele>174</ele>
        <time>2018-07-08T08:34:52Z</time>
      </trkpt>
      <trkpt lat="45.92146" lon="4.75621">
        <ele>174</ele>
        <time>2018-07-08T08:34:53Z</time>
      </trkpt>
      <trkpt lat="45.92152" lon="4.75626">
        <ele>174</ele>
        <time>2018-07-08T08:34:54Z</time>
      </trkpt>
      <trkpt lat="45.92158" lon="4.7563">
        <ele>174</ele>
        <time>2018-07-08T08:34:55Z</time>
      </trkpt>
      <trkpt lat="45.92163" lon="4.75635">
        <ele>174</ele>
        <time>2018-07-08T08:34:56Z</time>
      </trkpt>
      <trkpt lat="45.92166" lon="4.75641">
        <ele>174</ele>
        <time>2018-07-08T08:34:57Z</time>
      </trkpt>
      <trkpt lat="45.92171" lon="4.75646">
        <ele>174</ele>
        <time>2018-07-08T08:34:58Z</time>
      </trkpt>
      <trkpt lat="45.92177" lon="4.75651">
        <ele>174</ele>
        <time>2018-07-08T08:34:59Z</time>
      </trkpt>
      <trkpt lat="45.92182" lon="4.75655">
        <ele>174</ele>
        <time>2018-07-08T08:35:00Z</time>
      </trkpt>
      <trkpt lat="45.92187" lon="4.7566">
        <ele>174</ele>
        <time>2018-07-08T08:35:01Z</time>
      </trkpt>
      <trkpt lat="45.92192" lon="4.75663">
        <ele>174</ele>
        <time>2018-07-08T08:35:02Z</time>
      </trkpt>
      <trkpt lat="45.92197" lon="4.75669">
        <ele>174</ele>
        <time>2018-07-08T08:35:03Z</time>
      </trkpt>
      <trkpt lat="45.92201" lon="4.75674">
        <ele>174</ele>
        <time>2018-07-08T08:35:04Z</time>
      </trkpt>
      <trkpt lat="45.92205" lon="4.7568">
        <ele>174</ele>
        <time>2018-07-08T08:35:05Z</time>
      </trkpt>
      <trkpt lat="45.92209" lon="4.75684">
        <ele>174</ele>
        <time>2018-07-08T08:35:06Z</time>
      </trkpt>
      <trkpt lat="45.92215" lon="4.75689">
        <ele>174</ele>
        <time>2018-07-08T08:35:07Z</time>
      </trkpt>
      <trkpt lat="45.9222" lon="4.75693">
        <ele>174</ele>
        <time>2018-07-08T08:35:08Z</time>
      </trkpt>
      <trkpt lat="45.92223" lon="4.75698">
        <ele>174</ele>
        <time>2018-07-08T08:35:09Z</time>
      </trkpt>
      <trkpt lat="45.92227" lon="4.75703">
        <ele>174</ele>
        <time>2018-07-08T08:35:10Z</time>
      </trkpt>
      <trkpt lat="45.92231" lon="4.75709">
        <ele>174</ele>
        <time>2018-07-08T08:35:11Z</time>
      </trkpt>
      <trkpt lat="45.92235" lon="4.75713">
        <ele>174</ele>
        <time>2018-07-08T08:35:12Z</time>
      </trkpt>
      <trkpt lat="45.92239" lon="4.75721">
        <ele>174</ele>
        <time>2018-07-08T08:35:13Z</time>
      </trkpt>
      <trkpt lat="45.92242" lon="4.75728">
        <ele>174</ele>
        <time>2018-07-08T08:35:14Z</time>
      </trkpt>
      <trkpt lat="45.92244" lon="4.75735">
        <ele>174</ele>
        <time>2018-07-08T08:35:15Z</time>
      </trkpt>
      <trkpt lat="45.92247" lon="4.75742">
        <ele>174</ele>
        <time>2018-07-08T08:35:16Z</time>
      </trkpt>
      <trkpt lat="45.9225" lon="4.75751">
        <ele>174</ele>
        <time>2018-07-08T08:35:17Z</time>
      </trkpt>
      <trkpt lat="45.92252" lon="4.75757">
        <ele>174</ele>
        <time>2018-07-08T08:35:18Z</time>
      </trkpt>
      <trkpt lat="45.92253" lon="4.75765">
        <ele>174</ele>
        <time>2018-07-08T08:35:19Z</time>
      </trkpt>
      <trkpt lat="45.92253" lon="4.75772">
        <ele>174</ele>
        <time>2018-07-08T08:35:20Z</time>
      </trkpt>
      <trkpt lat="45.92254" lon="4.7578">
        <ele>174</ele>
        <time>2018-07-08T08:35:21Z</time>
      </trkpt>
      <trkpt lat="45.92256" lon="4.75786">
        <ele>174</ele>
        <time>2018-07-08T08:35:22Z</time>
      </trkpt>
      <trkpt lat="45.92258" lon="4.75792">
        <ele>174</ele>
        <time>2018-07-08T08:35:23Z</time>
      </trkpt>
      <trkpt lat="45.92261" lon="4.75799">
        <ele>174</ele>
        <time>2018-07-08T08:35:24Z</time>
      </trkpt>
      <trkpt lat="45.92263" lon="4.75805">
        <ele>174</ele>
        <time>2018-07-08T08:35:25Z</time>
      </trkpt>
      <trkpt lat="45.92264" lon="4.75811">
        <ele>174</ele>
        <time>2018-07-08T08:35:26Z</time>
      </trkpt>
      <trkpt lat="45.92268" lon="4.75818">
        <ele>174</ele>
        <time>2018-07-08T08:35:27Z</time>
      </trkpt>
      <trkpt lat="45.92272" lon="4.75822">
        <ele>174</ele>
        <time>2018-07-08T08:35:28Z</time>
      </trkpt>
      <trkpt lat="45.92277" lon="4.75826">
        <ele>174</ele>
        <time>2018-07-08T08:35:29Z</time>
      </trkpt>
      <trkpt lat="45.92281" lon="4.7583">
        <ele>174</ele>
        <time>2018-07-08T08:35:30Z</time>
      </trkpt>
      <trkpt lat="45.92286" lon="4.75834">
        <ele>173</ele>
        <time>2018-07-08T08:35:31Z</time>
      </trkpt>
      <trkpt lat="45.92291" lon="4.75838">
        <ele>173</ele>
        <time>2018-07-08T08:35:32Z</time>
      </trkpt>
      <trkpt lat="45.92297" lon="4.75841">
        <ele>173</ele>
        <time>2018-07-08T08:35:33Z</time>
      </trkpt>
      <trkpt lat="45.92303" lon="4.75844">
        <ele>173</ele>
        <time>2018-07-08T08:35:34Z</time>
      </trkpt>
      <trkpt lat="45.92307" lon="4.75846">
        <ele>173</ele>
        <time>2018-07-08T08:35:35Z</time>
      </trkpt>
      <trkpt lat="45.92313" lon="4.75851">
        <ele>173</ele>
        <time>2018-07-08T08:35:36Z</time>
      </trkpt>
      <trkpt lat="45.92319" lon="4.75854">
        <ele>174</ele>
        <time>2018-07-08T08:35:37Z</time>
      </trkpt>
      <trkpt lat="45.92325" lon="4.75858">
        <ele>173</ele>
        <time>2018-07-08T08:35:38Z</time>
      </trkpt>
      <trkpt lat="45.92331" lon="4.75862">
        <ele>173</ele>
        <time>2018-07-08T08:35:39Z</time>
      </trkpt>
      <trkpt lat="45.92338" lon="4.75866">
        <ele>173</ele>
        <time>2018-07-08T08:35:40Z</time>
      </trkpt>
      <trkpt lat="45.92343" lon="4.75869">
        <ele>173</ele>
        <time>2018-07-08T08:35:41Z</time>
      </trkpt>
      <trkpt lat="45.92348" lon="4.75872">
        <ele>173</ele>
        <time>2018-07-08T08:35:42Z</time>
      </trkpt>
      <trkpt lat="45.92354" lon="4.75875">
        <ele>173</ele>
        <time>2018-07-08T08:35:43Z</time>
      </trkpt>
      <trkpt lat="45.92359" lon="4.75879">
        <ele>173</ele>
        <time>2018-07-08T08:35:44Z</time>
      </trkpt>
      <trkpt lat="45.92364" lon="4.75883">
        <ele>173</ele>
        <time>2018-07-08T08:35:45Z</time>
      </trkpt>
      <trkpt lat="45.92368" lon="4.75888">
        <ele>173</ele>
        <time>2018-07-08T08:35:46Z</time>
      </trkpt>
      <trkpt lat="45.92372" lon="4.75892">
        <ele>173</ele>
        <time>2018-07-08T08:35:47Z</time>
      </trkpt>
      <trkpt lat="45.92376" lon="4.75897">
        <ele>173</ele>
        <time>2018-07-08T08:35:48Z</time>
      </trkpt>
      <trkpt lat="45.92381" lon="4.759">
        <ele>173</ele>
        <time>2018-07-08T08:35:49Z</time>
      </trkpt>
      <trkpt lat="45.92387" lon="4.75904">
        <ele>173</ele>
        <time>2018-07-08T08:35:50Z</time>
      </trkpt>
      <trkpt lat="45.92392" lon="4.75908">
        <ele>173</ele>
        <time>2018-07-08T08:35:51Z</time>
      </trkpt>
      <trkpt lat="45.92397" lon="4.75911">
        <ele>173</ele>
        <time>2018-07-08T08:35:52Z</time>
      </trkpt>
      <trkpt lat="45.92403" lon="4.75915">
        <ele>172</ele>
        <time>2018-07-08T08:35:53Z</time>
      </trkpt>
      <trkpt lat="45.92409" lon="4.75917">
        <ele>172</ele>
        <time>2018-07-08T08:35:54Z</time>
      </trkpt>
      <trkpt lat="45.92414" lon="4.7592">
        <ele>172</ele>
        <time>2018-07-08T08:35:55Z</time>
      </trkpt>
      <trkpt lat="45.92418" lon="4.75923">
        <ele>172</ele>
        <time>2018-07-08T08:35:56Z</time>
      </trkpt>
      <trkpt lat="45.92424" lon="4.75926">
        <ele>172</ele>
        <time>2018-07-08T08:35:57Z</time>
      </trkpt>
      <trkpt lat="45.92428" lon="4.7593">
        <ele>172</ele>
        <time>2018-07-08T08:35:58Z</time>
      </trkpt>
      <trkpt lat="45.92433" lon="4.75935">
        <ele>172</ele>
        <time>2018-07-08T08:35:59Z</time>
      </trkpt>
      <trkpt lat="45.92439" lon="4.7594">
        <ele>172</ele>
        <time>2018-07-08T08:36:00Z</time>
      </trkpt>
      <trkpt lat="45.92444" lon="4.75943">
        <ele>172</ele>
        <time>2018-07-08T08:36:01Z</time>
      </trkpt>
      <trkpt lat="45.92448" lon="4.75947">
        <ele>172</ele>
        <time>2018-07-08T08:36:02Z</time>
      </trkpt>
      <trkpt lat="45.92455" lon="4.75955">
        <ele>172</ele>
        <time>2018-07-08T08:36:04Z</time>
      </trkpt>
      <trkpt lat="45.9246" lon="4.75958">
        <ele>172</ele>
        <time>2018-07-08T08:36:05Z</time>
      </trkpt>
      <trkpt lat="45.92464" lon="4.75962">
        <ele>172</ele>
        <time>2018-07-08T08:36:06Z</time>
      </trkpt>
      <trkpt lat="45.92468" lon="4.75966">
        <ele>172</ele>
        <time>2018-07-08T08:36:07Z</time>
      </trkpt>
      <trkpt lat="45.92473" lon="4.75969">
        <ele>172</ele>
        <time>2018-07-08T08:36:08Z</time>
      </trkpt>
      <trkpt lat="45.92477" lon="4.75972">
        <ele>172</ele>
        <time>2018-07-08T08:36:09Z</time>
      </trkpt>
      <trkpt lat="45.92482" lon="4.75976">
        <ele>172</ele>
        <time>2018-07-08T08:36:10Z</time>
      </trkpt>
      <trkpt lat="45.92486" lon="4.75979">
        <ele>172</ele>
        <time>2018-07-08T08:36:11Z</time>
      </trkpt>
      <trkpt lat="45.92493" lon="4.75985">
        <ele>172</ele>
        <time>2018-07-08T08:36:13Z</time>
      </trkpt>
      <trkpt lat="45.92499" lon="4.75988">
        <ele>172</ele>
        <time>2018-07-08T08:36:14Z</time>
      </trkpt>
      <trkpt lat="45.92506" lon="4.75995">
        <ele>172</ele>
        <time>2018-07-08T08:36:16Z</time>
      </trkpt>
      <trkpt lat="45.9251" lon="4.75998">
        <ele>172</ele>
        <time>2018-07-08T08:36:17Z</time>
      </trkpt>
      <trkpt lat="45.92517" lon="4.76001">
        <ele>172</ele>
        <time>2018-07-08T08:36:19Z</time>
      </trkpt>
      <trkpt lat="45.92521" lon="4.76005">
        <ele>172</ele>
        <time>2018-07-08T08:36:20Z</time>
      </trkpt>
      <trkpt lat="45.92525" lon="4.76008">
        <ele>172</ele>
        <time>2018-07-08T08:36:21Z</time>
      </trkpt>
      <trkpt lat="45.92529" lon="4.76011">
        <ele>172</ele>
        <time>2018-07-08T08:36:22Z</time>
      </trkpt>
      <trkpt lat="45.92534" lon="4.76014">
        <ele>172</ele>
        <time>2018-07-08T08:36:23Z</time>
      </trkpt>
      <trkpt lat="45.92538" lon="4.76019">
        <ele>172</ele>
        <time>2018-07-08T08:36:24Z</time>
      </trkpt>
      <trkpt lat="45.92543" lon="4.76022">
        <ele>172</ele>
        <time>2018-07-08T08:36:25Z</time>
      </trkpt>
      <trkpt lat="45.92548" lon="4.76025">
        <ele>172</ele>
        <time>2018-07-08T08:36:26Z</time>
      </trkpt>
      <trkpt lat="45.92551" lon="4.76028">
        <ele>172</ele>
        <time>2018-07-08T08:36:27Z</time>
      </trkpt>
      <trkpt lat="45.92556" lon="4.76031">
        <ele>172</ele>
        <time>2018-07-08T08:36:28Z</time>
      </trkpt>
      <trkpt lat="45.9256" lon="4.76034">
        <ele>172</ele>
        <time>2018-07-08T08:36:29Z</time>
      </trkpt>
      <trkpt lat="45.92565" lon="4.76037">
        <ele>172</ele>
        <time>2018-07-08T08:36:30Z</time>
      </trkpt>
      <trkpt lat="45.9257" lon="4.7604">
        <ele>172</ele>
        <time>2018-07-08T08:36:31Z</time>
      </trkpt>
      <trkpt lat="45.92575" lon="4.76041">
        <ele>172</ele>
        <time>2018-07-08T08:36:32Z</time>
      </trkpt>
      <trkpt lat="45.9258" lon="4.76046">
        <ele>171</ele>
        <time>2018-07-08T08:36:33Z</time>
      </trkpt>
      <trkpt lat="45.92583" lon="4.7605">
        <ele>171</ele>
        <time>2018-07-08T08:36:34Z</time>
      </trkpt>
      <trkpt lat="45.92588" lon="4.76053">
        <ele>171</ele>
        <time>2018-07-08T08:36:35Z</time>
      </trkpt>
      <trkpt lat="45.92593" lon="4.76056">
        <ele>171</ele>
        <time>2018-07-08T08:36:36Z</time>
      </trkpt>
      <trkpt lat="45.92597" lon="4.76058">
        <ele>171</ele>
        <time>2018-07-08T08:36:37Z</time>
      </trkpt>
      <trkpt lat="45.92602" lon="4.76061">
        <ele>171</ele>
        <time>2018-07-08T08:36:38Z</time>
      </trkpt>
      <trkpt lat="45.92607" lon="4.76065">
        <ele>171</ele>
        <time>2018-07-08T08:36:39Z</time>
      </trkpt>
      <trkpt lat="45.92611" lon="4.76069">
        <ele>171</ele>
        <time>2018-07-08T08:36:40Z</time>
      </trkpt>
      <trkpt lat="45.92616" lon="4.76072">
        <ele>171</ele>
        <time>2018-07-08T08:36:41Z</time>
      </trkpt>
      <trkpt lat="45.9262" lon="4.76076">
        <ele>171</ele>
        <time>2018-07-08T08:36:42Z</time>
      </trkpt>
      <trkpt lat="45.92626" lon="4.76079">
        <ele>170</ele>
        <time>2018-07-08T08:36:43Z</time>
      </trkpt>
      <trkpt lat="45.92631" lon="4.76083">
        <ele>170</ele>
        <time>2018-07-08T08:36:44Z</time>
      </trkpt>
      <trkpt lat="45.92636" lon="4.76087">
        <ele>170</ele>
        <time>2018-07-08T08:36:45Z</time>
      </trkpt>
      <trkpt lat="45.92642" lon="4.76091">
        <ele>170</ele>
        <time>2018-07-08T08:36:46Z</time>
      </trkpt>
      <trkpt lat="45.92649" lon="4.76094">
        <ele>170</ele>
        <time>2018-07-08T08:36:47Z</time>
      </trkpt>
      <trkpt lat="45.92654" lon="4.76098">
        <ele>170</ele>
        <time>2018-07-08T08:36:48Z</time>
      </trkpt>
      <trkpt lat="45.92659" lon="4.76101">
        <ele>170</ele>
        <time>2018-07-08T08:36:49Z</time>
      </trkpt>
      <trkpt lat="45.92664" lon="4.76106">
        <ele>170</ele>
        <time>2018-07-08T08:36:50Z</time>
      </trkpt>
      <trkpt lat="45.9267" lon="4.7611">
        <ele>169</ele>
        <time>2018-07-08T08:36:51Z</time>
      </trkpt>
      <trkpt lat="45.92675" lon="4.76114">
        <ele>169</ele>
        <time>2018-07-08T08:36:52Z</time>
      </trkpt>
      <trkpt lat="45.92681" lon="4.76117">
        <ele>169</ele>
        <time>2018-07-08T08:36:53Z</time>
      </trkpt>
      <trkpt lat="45.92688" lon="4.76121">
        <ele>169</ele>
        <time>2018-07-08T08:36:54Z</time>
      </trkpt>
      <trkpt lat="45.92695" lon="4.76125">
        <ele>169</ele>
        <time>2018-07-08T08:36:55Z</time>
      </trkpt>
      <trkpt lat="45.92701" lon="4.76129">
        <ele>169</ele>
        <time>2018-07-08T08:36:56Z</time>
      </trkpt>
      <trkpt lat="45.92708" lon="4.76134">
        <ele>169</ele>
        <time>2018-07-08T08:36:57Z</time>
      </trkpt>
      <trkpt lat="45.92715" lon="4.76139">
        <ele>168</ele>
        <time>2018-07-08T08:36:58Z</time>
      </trkpt>
      <trkpt lat="45.92721" lon="4.76143">
        <ele>168</ele>
        <time>2018-07-08T08:36:59Z</time>
      </trkpt>
      <trkpt lat="45.92727" lon="4.76148">
        <ele>168</ele>
        <time>2018-07-08T08:37:00Z</time>
      </trkpt>
      <trkpt lat="45.92732" lon="4.76155">
        <ele>168</ele>
        <time>2018-07-08T08:37:01Z</time>
      </trkpt>
      <trkpt lat="45.92736" lon="4.76161">
        <ele>168</ele>
        <time>2018-07-08T08:37:02Z</time>
      </trkpt>
      <trkpt lat="45.92746" lon="4.76164">
        <ele>167</ele>
        <time>2018-07-08T08:37:03Z</time>
      </trkpt>
      <trkpt lat="45.92752" lon="4.76169">
        <ele>167</ele>
        <time>2018-07-08T08:37:04Z</time>
      </trkpt>
      <trkpt lat="45.92757" lon="4.76175">
        <ele>167</ele>
        <time>2018-07-08T08:37:05Z</time>
      </trkpt>
      <trkpt lat="45.92764" lon="4.76179">
        <ele>167</ele>
        <time>2018-07-08T08:37:06Z</time>
      </trkpt>
      <trkpt lat="45.9277" lon="4.76185">
        <ele>167</ele>
        <time>2018-07-08T08:37:07Z</time>
      </trkpt>
      <trkpt lat="45.92775" lon="4.7619">
        <ele>168</ele>
        <time>2018-07-08T08:37:08Z</time>
      </trkpt>
      <trkpt lat="45.92779" lon="4.76195">
        <ele>168</ele>
        <time>2018-07-08T08:37:09Z</time>
      </trkpt>
      <trkpt lat="45.92784" lon="4.76201">
        <ele>168</ele>
        <time>2018-07-08T08:37:10Z</time>
      </trkpt>
      <trkpt lat="45.9279" lon="4.76207">
        <ele>168</ele>
        <time>2018-07-08T08:37:11Z</time>
      </trkpt>
      <trkpt lat="45.92795" lon="4.76212">
        <ele>168</ele>
        <time>2018-07-08T08:37:12Z</time>
      </trkpt>
      <trkpt lat="45.92801" lon="4.76217">
        <ele>168</ele>
        <time>2018-07-08T08:37:13Z</time>
      </trkpt>
      <trkpt lat="45.92807" lon="4.76223">
        <ele>168</ele>
        <time>2018-07-08T08:37:14Z</time>
      </trkpt>
      <trkpt lat="45.92813" lon="4.76228">
        <ele>168</ele>
        <time>2018-07-08T08:37:15Z</time>
      </trkpt>
      <trkpt lat="45.92819" lon="4.76235">
        <ele>168</ele>
        <time>2018-07-08T08:37:16Z</time>
      </trkpt>
      <trkpt lat="45.92825" lon="4.76241">
        <ele>169</ele>
        <time>2018-07-08T08:37:17Z</time>
      </trkpt>
      <trkpt lat="45.92831" lon="4.76246">
        <ele>169</ele>
        <time>2018-07-08T08:37:18Z</time>
      </trkpt>
      <trkpt lat="45.92836" lon="4.76251">
        <ele>169</ele>
        <time>2018-07-08T08:37:19Z</time>
      </trkpt>
      <trkpt lat="45.9284" lon="4.76257">
        <ele>169</ele>
        <time>2018-07-08T08:37:20Z</time>
      </trkpt>
      <trkpt lat="45.92845" lon="4.76263">
        <ele>169</ele>
        <time>2018-07-08T08:37:21Z</time>
      </trkpt>
      <trkpt lat="45.9285" lon="4.76268">
        <ele>169</ele>
        <time>2018-07-08T08:37:22Z</time>
      </trkpt>
      <trkpt lat="45.92854" lon="4.76273">
        <ele>169</ele>
        <time>2018-07-08T08:37:23Z</time>
      </trkpt>
      <trkpt lat="45.9286" lon="4.76278">
        <ele>169</ele>
        <time>2018-07-08T08:37:24Z</time>
      </trkpt>
      <trkpt lat="45.92866" lon="4.76282">
        <ele>169</ele>
        <time>2018-07-08T08:37:25Z</time>
      </trkpt>
      <trkpt lat="45.92872" lon="4.76286">
        <ele>169</ele>
        <time>2018-07-08T08:37:26Z</time>
      </trkpt>
      <trkpt lat="45.92878" lon="4.7629">
        <ele>169</ele>
        <time>2018-07-08T08:37:27Z</time>
      </trkpt>
      <trkpt lat="45.92883" lon="4.76295">
        <ele>169</ele>
        <time>2018-07-08T08:37:28Z</time>
      </trkpt>
      <trkpt lat="45.92887" lon="4.76302">
        <ele>169</ele>
        <time>2018-07-08T08:37:29Z</time>
      </trkpt>
      <trkpt lat="45.92892" lon="4.76308">
        <ele>169</ele>
        <time>2018-07-08T08:37:30Z</time>
      </trkpt>
      <trkpt lat="45.92897" lon="4.76313">
        <ele>169</ele>
        <time>2018-07-08T08:37:31Z</time>
      </trkpt>
      <trkpt lat="45.92901" lon="4.76319">
        <ele>169</ele>
        <time>2018-07-08T08:37:32Z</time>
      </trkpt>
      <trkpt lat="45.92906" lon="4.76324">
        <ele>169</ele>
        <time>2018-07-08T08:37:33Z</time>
      </trkpt>
      <trkpt lat="45.92912" lon="4.76328">
        <ele>169</ele>
        <time>2018-07-08T08:37:34Z</time>
      </trkpt>
      <trkpt lat="45.92917" lon="4.76334">
        <ele>169</ele>
        <time>2018-07-08T08:37:35Z</time>
      </trkpt>
      <trkpt lat="45.92923" lon="4.76339">
        <ele>169</ele>
        <time>2018-07-08T08:37:36Z</time>
      </trkpt>
      <trkpt lat="45.92928" lon="4.76344">
        <ele>169</ele>
        <time>2018-07-08T08:37:37Z</time>
      </trkpt>
      <trkpt lat="45.92932" lon="4.76349">
        <ele>169</ele>
        <time>2018-07-08T08:37:38Z</time>
      </trkpt>
      <trkpt lat="45.92938" lon="4.76353">
        <ele>169</ele>
        <time>2018-07-08T08:37:39Z</time>
      </trkpt>
      <trkpt lat="45.92944" lon="4.76359">
        <ele>169</ele>
        <time>2018-07-08T08:37:40Z</time>
      </trkpt>
      <trkpt lat="45.9295" lon="4.76366">
        <ele>169</ele>
        <time>2018-07-08T08:37:41Z</time>
      </trkpt>
      <trkpt lat="45.92957" lon="4.76372">
        <ele>169</ele>
        <time>2018-07-08T08:37:42Z</time>
      </trkpt>
      <trkpt lat="45.92961" lon="4.76376">
        <ele>169</ele>
        <time>2018-07-08T08:37:43Z</time>
      </trkpt>
      <trkpt lat="45.92967" lon="4.76382">
        <ele>169</ele>
        <time>2018-07-08T08:37:44Z</time>
      </trkpt>
      <trkpt lat="45.92972" lon="4.76385">
        <ele>169</ele>
        <time>2018-07-08T08:37:45Z</time>
      </trkpt>
      <trkpt lat="45.92977" lon="4.76391">
        <ele>169</ele>
        <time>2018-07-08T08:37:46Z</time>
      </trkpt>
      <trkpt lat="45.92983" lon="4.76397">
        <ele>169</ele>
        <time>2018-07-08T08:37:47Z</time>
      </trkpt>
      <trkpt lat="45.92987" lon="4.76402">
        <ele>169</ele>
        <time>2018-07-08T08:37:48Z</time>
      </trkpt>
      <trkpt lat="45.92991" lon="4.76407">
        <ele>169</ele>
        <time>2018-07-08T08:37:49Z</time>
      </trkpt>
      <trkpt lat="45.92996" lon="4.76411">
        <ele>169</ele>
        <time>2018-07-08T08:37:50Z</time>
      </trkpt>
      <trkpt lat="45.93" lon="4.76415">
        <ele>169</ele>
        <time>2018-07-08T08:37:51Z</time>
      </trkpt>
      <trkpt lat="45.93004" lon="4.76421">
        <ele>169</ele>
        <time>2018-07-08T08:37:52Z</time>
      </trkpt>
      <trkpt lat="45.93008" lon="4.76426">
        <ele>169</ele>
        <time>2018-07-08T08:37:53Z</time>
      </trkpt>
      <trkpt lat="45.93013" lon="4.76429">
        <ele>169</ele>
        <time>2018-07-08T08:37:54Z</time>
      </trkpt>
      <trkpt lat="45.93019" lon="4.76434">
        <ele>169</ele>
        <time>2018-07-08T08:37:55Z</time>
      </trkpt>
      <trkpt lat="45.93024" lon="4.7644">
        <ele>169</ele>
        <time>2018-07-08T08:37:56Z</time>
      </trkpt>
      <trkpt lat="45.93028" lon="4.76446">
        <ele>169</ele>
        <time>2018-07-08T08:37:57Z</time>
      </trkpt>
      <trkpt lat="45.93032" lon="4.76452">
        <ele>169</ele>
        <time>2018-07-08T08:37:58Z</time>
      </trkpt>
      <trkpt lat="45.93038" lon="4.76457">
        <ele>169</ele>
        <time>2018-07-08T08:37:59Z</time>
      </trkpt>
      <trkpt lat="45.93043" lon="4.76462">
        <ele>169</ele>
        <time>2018-07-08T08:38:00Z</time>
      </trkpt>
      <trkpt lat="45.93049" lon="4.76467">
        <ele>169</ele>
        <time>2018-07-08T08:38:01Z</time>
      </trkpt>
      <trkpt lat="45.93054" lon="4.7647">
        <ele>169</ele>
        <time>2018-07-08T08:38:02Z</time>
      </trkpt>
      <trkpt lat="45.93059" lon="4.76475">
        <ele>169</ele>
        <time>2018-07-08T08:38:03Z</time>
      </trkpt>
      <trkpt lat="45.93064" lon="4.7648">
        <ele>169</ele>
        <time>2018-07-08T08:38:04Z</time>
      </trkpt>
      <trkpt lat="45.9307" lon="4.76482">
        <ele>169</ele>
        <time>2018-07-08T08:38:05Z</time>
      </trkpt>
      <trkpt lat="45.93075" lon="4.76487">
        <ele>170</ele>
        <time>2018-07-08T08:38:06Z</time>
      </trkpt>
      <trkpt lat="45.9308" lon="4.76493">
        <ele>170</ele>
        <time>2018-07-08T08:38:07Z</time>
      </trkpt>
      <trkpt lat="45.93085" lon="4.76497">
        <ele>170</ele>
        <time>2018-07-08T08:38:08Z</time>
      </trkpt>
      <trkpt lat="45.93089" lon="4.76502">
        <ele>170</ele>
        <time>2018-07-08T08:38:09Z</time>
      </trkpt>
      <trkpt lat="45.93095" lon="4.76508">
        <ele>170</ele>
        <time>2018-07-08T08:38:10Z</time>
      </trkpt>
      <trkpt lat="45.93102" lon="4.76513">
        <ele>170</ele>
        <time>2018-07-08T08:38:11Z</time>
      </trkpt>
      <trkpt lat="45.93107" lon="4.76516">
        <ele>170</ele>
        <time>2018-07-08T08:38:12Z</time>
      </trkpt>
      <trkpt lat="45.9311" lon="4.76522">
        <ele>170</ele>
        <time>2018-07-08T08:38:13Z</time>
      </trkpt>
      <trkpt lat="45.93114" lon="4.76526">
        <ele>170</ele>
        <time>2018-07-08T08:38:14Z</time>
      </trkpt>
      <trkpt lat="45.9312" lon="4.76531">
        <ele>170</ele>
        <time>2018-07-08T08:38:15Z</time>
      </trkpt>
      <trkpt lat="45.93124" lon="4.76537">
        <ele>170</ele>
        <time>2018-07-08T08:38:16Z</time>
      </trkpt>
      <trkpt lat="45.93128" lon="4.76542">
        <ele>170</ele>
        <time>2018-07-08T08:38:17Z</time>
      </trkpt>
      <trkpt lat="45.93132" lon="4.76547">
        <ele>170</ele>
        <time>2018-07-08T08:38:18Z</time>
      </trkpt>
      <trkpt lat="45.93136" lon="4.76551">
        <ele>170</ele>
        <time>2018-07-08T08:38:19Z</time>
      </trkpt>
      <trkpt lat="45.93141" lon="4.76555">
        <ele>170</ele>
        <time>2018-07-08T08:38:20Z</time>
      </trkpt>
      <trkpt lat="45.93145" lon="4.7656">
        <ele>170</ele>
        <time>2018-07-08T08:38:21Z</time>
      </trkpt>
      <trkpt lat="45.9315" lon="4.76566">
        <ele>170</ele>
        <time>2018-07-08T08:38:22Z</time>
      </trkpt>
      <trkpt lat="45.93154" lon="4.76571">
        <ele>170</ele>
        <time>2018-07-08T08:38:23Z</time>
      </trkpt>
      <trkpt lat="45.93159" lon="4.76576">
        <ele>171</ele>
        <time>2018-07-08T08:38:24Z</time>
      </trkpt>
      <trkpt lat="45.93164" lon="4.76581">
        <ele>171</ele>
        <time>2018-07-08T08:38:25Z</time>
      </trkpt>
      <trkpt lat="45.93168" lon="4.76586">
        <ele>171</ele>
        <time>2018-07-08T08:38:26Z</time>
      </trkpt>
      <trkpt lat="45.93173" lon="4.7659">
        <ele>171</ele>
        <time>2018-07-08T08:38:27Z</time>
      </trkpt>
      <trkpt lat="45.93178" lon="4.76595">
        <ele>171</ele>
        <time>2018-07-08T08:38:28Z</time>
      </trkpt>
      <trkpt lat="45.93182" lon="4.76598">
        <ele>171</ele>
        <time>2018-07-08T08:38:29Z</time>
      </trkpt>
      <trkpt lat="45.93186" lon="4.76603">
        <ele>171</ele>
        <time>2018-07-08T08:38:30Z</time>
      </trkpt>
      <trkpt lat="45.93191" lon="4.76607">
        <ele>171</ele>
        <time>2018-07-08T08:38:31Z</time>
      </trkpt>
      <trkpt lat="45.93196" lon="4.76611">
        <ele>170</ele>
        <time>2018-07-08T08:38:32Z</time>
      </trkpt>
      <trkpt lat="45.93202" lon="4.76615">
        <ele>170</ele>
        <time>2018-07-08T08:38:33Z</time>
      </trkpt>
      <trkpt lat="45.93205" lon="4.76619">
        <ele>170</ele>
        <time>2018-07-08T08:38:34Z</time>
      </trkpt>
      <trkpt lat="45.9321" lon="4.76623">
        <ele>170</ele>
        <time>2018-07-08T08:38:35Z</time>
      </trkpt>
      <trkpt lat="45.93213" lon="4.76628">
        <ele>170</ele>
        <time>2018-07-08T08:38:36Z</time>
      </trkpt>
      <trkpt lat="45.93218" lon="4.76632">
        <ele>171</ele>
        <time>2018-07-08T08:38:37Z</time>
      </trkpt>
      <trkpt lat="45.93223" lon="4.76636">
        <ele>171</ele>
        <time>2018-07-08T08:38:38Z</time>
      </trkpt>
      <trkpt lat="45.93227" lon="4.7664">
        <ele>171</ele>
        <time>2018-07-08T08:38:39Z</time>
      </trkpt>
      <trkpt lat="45.93234" lon="4.76645">
        <ele>171</ele>
        <time>2018-07-08T08:38:40Z</time>
      </trkpt>
      <trkpt lat="45.93239" lon="4.76649">
        <ele>171</ele>
        <time>2018-07-08T08:38:41Z</time>
      </trkpt>
      <trkpt lat="45.93243" lon="4.76654">
        <ele>171</ele>
        <time>2018-07-08T08:38:42Z</time>
      </trkpt>
      <trkpt lat="45.93247" lon="4.76658">
        <ele>171</ele>
        <time>2018-07-08T08:38:43Z</time>
      </trkpt>
      <trkpt lat="45.93252" lon="4.76662">
        <ele>172</ele>
        <time>2018-07-08T08:38:44Z</time>
      </trkpt>
      <trkpt lat="45.93256" lon="4.76667">
        <ele>172</ele>
        <time>2018-07-08T08:38:45Z</time>
      </trkpt>
      <trkpt lat="45.9326" lon="4.76671">
        <ele>172</ele>
        <time>2018-07-08T08:38:46Z</time>
      </trkpt>
      <trkpt lat="45.93265" lon="4.76675">
        <ele>172</ele>
        <time>2018-07-08T08:38:47Z</time>
      </trkpt>
      <trkpt lat="45.9327" lon="4.76679">
        <ele>172</ele>
        <time>2018-07-08T08:38:48Z</time>
      </trkpt>
      <trkpt lat="45.93274" lon="4.76685">
        <ele>172</ele>
        <time>2018-07-08T08:38:49Z</time>
      </trkpt>
      <trkpt lat="45.93279" lon="4.7669">
        <ele>172</ele>
        <time>2018-07-08T08:38:50Z</time>
      </trkpt>
      <trkpt lat="45.93283" lon="4.76695">
        <ele>172</ele>
        <time>2018-07-08T08:38:51Z</time>
      </trkpt>
      <trkpt lat="45.93286" lon="4.767">
        <ele>172</ele>
        <time>2018-07-08T08:38:52Z</time>
      </trkpt>
      <trkpt lat="45.93292" lon="4.76705">
        <ele>172</ele>
        <time>2018-07-08T08:38:53Z</time>
      </trkpt>
      <trkpt lat="45.93297" lon="4.76708">
        <ele>172</ele>
        <time>2018-07-08T08:38:54Z</time>
      </trkpt>
      <trkpt lat="45.93303" lon="4.76711">
        <ele>172</ele>
        <time>2018-07-08T08:38:55Z</time>
      </trkpt>
      <trkpt lat="45.93307" lon="4.76716">
        <ele>172</ele>
        <time>2018-07-08T08:38:56Z</time>
      </trkpt>
      <trkpt lat="45.93311" lon="4.76718">
        <ele>172</ele>
        <time>2018-07-08T08:38:57Z</time>
      </trkpt>
      <trkpt lat="45.93316" lon="4.76724">
        <ele>172</ele>
        <time>2018-07-08T08:38:58Z</time>
      </trkpt>
      <trkpt lat="45.9332" lon="4.76728">
        <ele>172</ele>
        <time>2018-07-08T08:38:59Z</time>
      </trkpt>
      <trkpt lat="45.93325" lon="4.76734">
        <ele>172</ele>
        <time>2018-07-08T08:39:00Z</time>
      </trkpt>
      <trkpt lat="45.9333" lon="4.76739">
        <ele>173</ele>
        <time>2018-07-08T08:39:01Z</time>
      </trkpt>
      <trkpt lat="45.93335" lon="4.76744">
        <ele>173</ele>
        <time>2018-07-08T08:39:02Z</time>
      </trkpt>
      <trkpt lat="45.93339" lon="4.76747">
        <ele>173</ele>
        <time>2018-07-08T08:39:03Z</time>
      </trkpt>
      <trkpt lat="45.93344" lon="4.76752">
        <ele>173</ele>
        <time>2018-07-08T08:39:04Z</time>
      </trkpt>
      <trkpt lat="45.93349" lon="4.76757">
        <ele>172</ele>
        <time>2018-07-08T08:39:05Z</time>
      </trkpt>
      <trkpt lat="45.93354" lon="4.76761">
        <ele>172</ele>
        <time>2018-07-08T08:39:06Z</time>
      </trkpt>
      <trkpt lat="45.93359" lon="4.76766">
        <ele>172</ele>
        <time>2018-07-08T08:39:07Z</time>
      </trkpt>
      <trkpt lat="45.93364" lon="4.7677">
        <ele>172</ele>
        <time>2018-07-08T08:39:08Z</time>
      </trkpt>
      <trkpt lat="45.93369" lon="4.76775">
        <ele>172</ele>
        <time>2018-07-08T08:39:09Z</time>
      </trkpt>
      <trkpt lat="45.93373" lon="4.76779">
        <ele>172</ele>
        <time>2018-07-08T08:39:10Z</time>
      </trkpt>
      <trkpt lat="45.93378" lon="4.76784">
        <ele>172</ele>
        <time>2018-07-08T08:39:11Z</time>
      </trkpt>
      <trkpt lat="45.93382" lon="4.76789">
        <ele>172</ele>
        <time>2018-07-08T08:39:12Z</time>
      </trkpt>
      <trkpt lat="45.93387" lon="4.76793">
        <ele>172</ele>
        <time>2018-07-08T08:39:13Z</time>
      </trkpt>
      <trkpt lat="45.93389" lon="4.76798">
        <ele>172</ele>
        <time>2018-07-08T08:39:14Z</time>
      </trkpt>
      <trkpt lat="45.93394" lon="4.76804">
        <ele>172</ele>
        <time>2018-07-08T08:39:15Z</time>
      </trkpt>
      <trkpt lat="45.93399" lon="4.76809">
        <ele>172</ele>
        <time>2018-07-08T08:39:16Z</time>
      </trkpt>
      <trkpt lat="45.93403" lon="4.76815">
        <ele>172</ele>
        <time>2018-07-08T08:39:17Z</time>
      </trkpt>
      <trkpt lat="45.93407" lon="4.76822">
        <ele>172</ele>
        <time>2018-07-08T08:39:18Z</time>
      </trkpt>
      <trkpt lat="45.93411" lon="4.76828">
        <ele>172</ele>
        <time>2018-07-08T08:39:19Z</time>
      </trkpt>
      <trkpt lat="45.93414" lon="4.76834">
        <ele>172</ele>
        <time>2018-07-08T08:39:20Z</time>
      </trkpt>
      <trkpt lat="45.93417" lon="4.76841">
        <ele>172</ele>
        <time>2018-07-08T08:39:21Z</time>
      </trkpt>
      <trkpt lat="45.93419" lon="4.76848">
        <ele>171</ele>
        <time>2018-07-08T08:39:22Z</time>
      </trkpt>
      <trkpt lat="45.93422" lon="4.76855">
        <ele>171</ele>
        <time>2018-07-08T08:39:23Z</time>
      </trkpt>
      <trkpt lat="45.93425" lon="4.76862">
        <ele>171</ele>
        <time>2018-07-08T08:39:24Z</time>
      </trkpt>
      <trkpt lat="45.93428" lon="4.76868">
        <ele>171</ele>
        <time>2018-07-08T08:39:25Z</time>
      </trkpt>
      <trkpt lat="45.9343" lon="4.76876">
        <ele>171</ele>
        <time>2018-07-08T08:39:26Z</time>
      </trkpt>
      <trkpt lat="45.93434" lon="4.76883">
        <ele>171</ele>
        <time>2018-07-08T08:39:27Z</time>
      </trkpt>
      <trkpt lat="45.93436" lon="4.76891">
        <ele>171</ele>
        <time>2018-07-08T08:39:28Z</time>
      </trkpt>
      <trkpt lat="45.93439" lon="4.76899">
        <ele>170</ele>
        <time>2018-07-08T08:39:29Z</time>
      </trkpt>
      <trkpt lat="45.93441" lon="4.76908">
        <ele>170</ele>
        <time>2018-07-08T08:39:30Z</time>
      </trkpt>
      <trkpt lat="45.93444" lon="4.76917">
        <ele>170</ele>
        <time>2018-07-08T08:39:31Z</time>
      </trkpt>
      <trkpt lat="45.93446" lon="4.76925">
        <ele>170</ele>
        <time>2018-07-08T08:39:32Z</time>
      </trkpt>
      <trkpt lat="45.93447" lon="4.76934">
        <ele>170</ele>
        <time>2018-07-08T08:39:33Z</time>
      </trkpt>
      <trkpt lat="45.93448" lon="4.76941">
        <ele>170</ele>
        <time>2018-07-08T08:39:34Z</time>
      </trkpt>
      <trkpt lat="45.93449" lon="4.76948">
        <ele>170</ele>
        <time>2018-07-08T08:39:35Z</time>
      </trkpt>
      <trkpt lat="45.9345" lon="4.76956">
        <ele>170</ele>
        <time>2018-07-08T08:39:36Z</time>
      </trkpt>
      <trkpt lat="45.93451" lon="4.76964">
        <ele>170</ele>
        <time>2018-07-08T08:39:37Z</time>
      </trkpt>
      <trkpt lat="45.93452" lon="4.76971">
        <ele>170</ele>
        <time>2018-07-08T08:39:38Z</time>
      </trkpt>
      <trkpt lat="45.93454" lon="4.76981">
        <ele>170</ele>
        <time>2018-07-08T08:39:39Z</time>
      </trkpt>
      <trkpt lat="45.93455" lon="4.76988">
        <ele>170</ele>
        <time>2018-07-08T08:39:40Z</time>
      </trkpt>
      <trkpt lat="45.93457" lon="4.76997">
        <ele>170</ele>
        <time>2018-07-08T08:39:41Z</time>
      </trkpt>
      <trkpt lat="45.93457" lon="4.77004">
        <ele>170</ele>
        <time>2018-07-08T08:39:42Z</time>
      </trkpt>
      <trkpt lat="45.93459" lon="4.77013">
        <ele>170</ele>
        <time>2018-07-08T08:39:43Z</time>
      </trkpt>
      <trkpt lat="45.9346" lon="4.77022">
        <ele>170</ele>
        <time>2018-07-08T08:39:44Z</time>
      </trkpt>
      <trkpt lat="45.93461" lon="4.7703">
        <ele>170</ele>
        <time>2018-07-08T08:39:45Z</time>
      </trkpt>
      <trkpt lat="45.93461" lon="4.77041">
        <ele>170</ele>
        <time>2018-07-08T08:39:46Z</time>
      </trkpt>
      <trkpt lat="45.93464" lon="4.77049">
        <ele>170</ele>
        <time>2018-07-08T08:39:47Z</time>
      </trkpt>
      <trkpt lat="45.93465" lon="4.77057">
        <ele>170</ele>
        <time>2018-07-08T08:39:48Z</time>
      </trkpt>
      <trkpt lat="45.93468" lon="4.77064">
        <ele>170</ele>
        <time>2018-07-08T08:39:49Z</time>
      </trkpt>
      <trkpt lat="45.93469" lon="4.77071">
        <ele>170</ele>
        <time>2018-07-08T08:39:50Z</time>
      </trkpt>
      <trkpt lat="45.93472" lon="4.77079">
        <ele>170</ele>
        <time>2018-07-08T08:39:51Z</time>
      </trkpt>
      <trkpt lat="45.93473" lon="4.77088">
        <ele>169</ele>
        <time>2018-07-08T08:39:52Z</time>
      </trkpt>
      <trkpt lat="45.93475" lon="4.77095">
        <ele>169</ele>
        <time>2018-07-08T08:39:53Z</time>
      </trkpt>
      <trkpt lat="45.93476" lon="4.77103">
        <ele>169</ele>
        <time>2018-07-08T08:39:54Z</time>
      </trkpt>
      <trkpt lat="45.93478" lon="4.7711">
        <ele>169</ele>
        <time>2018-07-08T08:39:55Z</time>
      </trkpt>
      <trkpt lat="45.93479" lon="4.7712">
        <ele>169</ele>
        <time>2018-07-08T08:39:56Z</time>
      </trkpt>
      <trkpt lat="45.9348" lon="4.77128">
        <ele>169</ele>
        <time>2018-07-08T08:39:57Z</time>
      </trkpt>
      <trkpt lat="45.93482" lon="4.77135">
        <ele>169</ele>
        <time>2018-07-08T08:39:58Z</time>
      </trkpt>
      <trkpt lat="45.93484" lon="4.77145">
        <ele>169</ele>
        <time>2018-07-08T08:39:59Z</time>
      </trkpt>
      <trkpt lat="45.93486" lon="4.77154">
        <ele>169</ele>
        <time>2018-07-08T08:40:00Z</time>
      </trkpt>
      <trkpt lat="45.93488" lon="4.77162">
        <ele>169</ele>
        <time>2018-07-08T08:40:01Z</time>
      </trkpt>
      <trkpt lat="45.9349" lon="4.7717">
        <ele>169</ele>
        <time>2018-07-08T08:40:02Z</time>
      </trkpt>
      <trkpt lat="45.93491" lon="4.7718">
        <ele>169</ele>
        <time>2018-07-08T08:40:03Z</time>
      </trkpt>
      <trkpt lat="45.93493" lon="4.77189">
        <ele>169</ele>
        <time>2018-07-08T08:40:04Z</time>
      </trkpt>
      <trkpt lat="45.93494" lon="4.77196">
        <ele>169</ele>
        <time>2018-07-08T08:40:05Z</time>
      </trkpt>
      <trkpt lat="45.93496" lon="4.77203">
        <ele>169</ele>
        <time>2018-07-08T08:40:06Z</time>
      </trkpt>
      <trkpt lat="45.93498" lon="4.77211">
        <ele>169</ele>
        <time>2018-07-08T08:40:07Z</time>
      </trkpt>
      <trkpt lat="45.93501" lon="4.7722">
        <ele>169</ele>
        <time>2018-07-08T08:40:08Z</time>
      </trkpt>
      <trkpt lat="45.93501" lon="4.7723">
        <ele>169</ele>
        <time>2018-07-08T08:40:09Z</time>
      </trkpt>
      <trkpt lat="45.93502" lon="4.77238">
        <ele>169</ele>
        <time>2018-07-08T08:40:10Z</time>
      </trkpt>
      <trkpt lat="45.93506" lon="4.77245">
        <ele>170</ele>
        <time>2018-07-08T08:40:11Z</time>
      </trkpt>
      <trkpt lat="45.93508" lon="4.77254">
        <ele>170</ele>
        <time>2018-07-08T08:40:12Z</time>
      </trkpt>
      <trkpt lat="45.93508" lon="4.77263">
        <ele>170</ele>
        <time>2018-07-08T08:40:13Z</time>
      </trkpt>
      <trkpt lat="45.93511" lon="4.7727">
        <ele>170</ele>
        <time>2018-07-08T08:40:14Z</time>
      </trkpt>
      <trkpt lat="45.93512" lon="4.77278">
        <ele>170</ele>
        <time>2018-07-08T08:40:15Z</time>
      </trkpt>
      <trkpt lat="45.93514" lon="4.77286">
        <ele>170</ele>
        <time>2018-07-08T08:40:16Z</time>
      </trkpt>
      <trkpt lat="45.93516" lon="4.77294">
        <ele>170</ele>
        <time>2018-07-08T08:40:17Z</time>
      </trkpt>
      <trkpt lat="45.93519" lon="4.77302">
        <ele>170</ele>
        <time>2018-07-08T08:40:18Z</time>
      </trkpt>
      <trkpt lat="45.9352" lon="4.77311">
        <ele>170</ele>
        <time>2018-07-08T08:40:19Z</time>
      </trkpt>
      <trkpt lat="45.93521" lon="4.7732">
        <ele>170</ele>
        <time>2018-07-08T08:40:20Z</time>
      </trkpt>
      <trkpt lat="45.93523" lon="4.77329">
        <ele>170</ele>
        <time>2018-07-08T08:40:21Z</time>
      </trkpt>
      <trkpt lat="45.93524" lon="4.77336">
        <ele>170</ele>
        <time>2018-07-08T08:40:22Z</time>
      </trkpt>
      <trkpt lat="45.93526" lon="4.77345">
        <ele>170</ele>
        <time>2018-07-08T08:40:23Z</time>
      </trkpt>
      <trkpt lat="45.93528" lon="4.77351">
        <ele>170</ele>
        <time>2018-07-08T08:40:24Z</time>
      </trkpt>
      <trkpt lat="45.9353" lon="4.77359">
        <ele>170</ele>
        <time>2018-07-08T08:40:25Z</time>
      </trkpt>
      <trkpt lat="45.93532" lon="4.77367">
        <ele>170</ele>
        <time>2018-07-08T08:40:26Z</time>
      </trkpt>
      <trkpt lat="45.93534" lon="4.77375">
        <ele>170</ele>
        <time>2018-07-08T08:40:27Z</time>
      </trkpt>
      <trkpt lat="45.93537" lon="4.77381">
        <ele>170</ele>
        <time>2018-07-08T08:40:28Z</time>
      </trkpt>
      <trkpt lat="45.93538" lon="4.77388">
        <ele>170</ele>
        <time>2018-07-08T08:40:29Z</time>
      </trkpt>
      <trkpt lat="45.9354" lon="4.77396">
        <ele>170</ele>
        <time>2018-07-08T08:40:30Z</time>
      </trkpt>
      <trkpt lat="45.93542" lon="4.77404">
        <ele>170</ele>
        <time>2018-07-08T08:40:31Z</time>
      </trkpt>
      <trkpt lat="45.93544" lon="4.77412">
        <ele>170</ele>
        <time>2018-07-08T08:40:32Z</time>
      </trkpt>
      <trkpt lat="45.93545" lon="4.7742">
        <ele>170</ele>
        <time>2018-07-08T08:40:33Z</time>
      </trkpt>
      <trkpt lat="45.93546" lon="4.77428">
        <ele>169</ele>
        <time>2018-07-08T08:40:34Z</time>
      </trkpt>
      <trkpt lat="45.93548" lon="4.77436">
        <ele>169</ele>
        <time>2018-07-08T08:40:35Z</time>
      </trkpt>
      <trkpt lat="45.9355" lon="4.77444">
        <ele>169</ele>
        <time>2018-07-08T08:40:36Z</time>
      </trkpt>
      <trkpt lat="45.93551" lon="4.77451">
        <ele>169</ele>
        <time>2018-07-08T08:40:37Z</time>
      </trkpt>
      <trkpt lat="45.93553" lon="4.77461">
        <ele>169</ele>
        <time>2018-07-08T08:40:38Z</time>
      </trkpt>
      <trkpt lat="45.93555" lon="4.7747">
        <ele>169</ele>
        <time>2018-07-08T08:40:39Z</time>
      </trkpt>
      <trkpt lat="45.93557" lon="4.77478">
        <ele>169</ele>
        <time>2018-07-08T08:40:40Z</time>
      </trkpt>
      <trkpt lat="45.9356" lon="4.77486">
        <ele>169</ele>
        <time>2018-07-08T08:40:41Z</time>
      </trkpt>
      <trkpt lat="45.93562" lon="4.77494">
        <ele>169</ele>
        <time>2018-07-08T08:40:42Z</time>
      </trkpt>
      <trkpt lat="45.93564" lon="4.77504">
        <ele>169</ele>
        <time>2018-07-08T08:40:43Z</time>
      </trkpt>
      <trkpt lat="45.93565" lon="4.77512">
        <ele>169</ele>
        <time>2018-07-08T08:40:44Z</time>
      </trkpt>
      <trkpt lat="45.93567" lon="4.77521">
        <ele>169</ele>
        <time>2018-07-08T08:40:45Z</time>
      </trkpt>
      <trkpt lat="45.93569" lon="4.7753">
        <ele>169</ele>
        <time>2018-07-08T08:40:46Z</time>
      </trkpt>
      <trkpt lat="45.9357" lon="4.77537">
        <ele>169</ele>
        <time>2018-07-08T08:40:47Z</time>
      </trkpt>
      <trkpt lat="45.93572" lon="4.77545">
        <ele>169</ele>
        <time>2018-07-08T08:40:48Z</time>
      </trkpt>
      <trkpt lat="45.93575" lon="4.77553">
        <ele>169</ele>
        <time>2018-07-08T08:40:49Z</time>
      </trkpt>
      <trkpt lat="45.93576" lon="4.77561">
        <ele>169</ele>
        <time>2018-07-08T08:40:50Z</time>
      </trkpt>
      <trkpt lat="45.93578" lon="4.77568">
        <ele>170</ele>
        <time>2018-07-08T08:40:51Z</time>
      </trkpt>
      <trkpt lat="45.9358" lon="4.77575">
        <ele>170</ele>
        <time>2018-07-08T08:40:52Z</time>
      </trkpt>
      <trkpt lat="45.93582" lon="4.77582">
        <ele>170</ele>
        <time>2018-07-08T08:40:53Z</time>
      </trkpt>
      <trkpt lat="45.93584" lon="4.77589">
        <ele>170</ele>
        <time>2018-07-08T08:40:54Z</time>
      </trkpt>
      <trkpt lat="45.93586" lon="4.77597">
        <ele>170</ele>
        <time>2018-07-08T08:40:55Z</time>
      </trkpt>
      <trkpt lat="45.93589" lon="4.77604">
        <ele>170</ele>
        <time>2018-07-08T08:40:56Z</time>
      </trkpt>
      <trkpt lat="45.93591" lon="4.77612">
        <ele>170</ele>
        <time>2018-07-08T08:40:57Z</time>
      </trkpt>
      <trkpt lat="45.93594" lon="4.77619">
        <ele>170</ele>
        <time>2018-07-08T08:40:58Z</time>
      </trkpt>
      <trkpt lat="45.93596" lon="4.77626">
        <ele>169</ele>
        <time>2018-07-08T08:40:59Z</time>
      </trkpt>
      <trkpt lat="45.93599" lon="4.77633">
        <ele>169</ele>
        <time>2018-07-08T08:41:00Z</time>
      </trkpt>
      <trkpt lat="45.93601" lon="4.77639">
        <ele>169</ele>
        <time>2018-07-08T08:41:01Z</time>
      </trkpt>
      <trkpt lat="45.93604" lon="4.77645">
        <ele>169</ele>
        <time>2018-07-08T08:41:02Z</time>
      </trkpt>
      <trkpt lat="45.93607" lon="4.77652">
        <ele>169</ele>
        <time>2018-07-08T08:41:03Z</time>
      </trkpt>
      <trkpt lat="45.9361" lon="4.77657">
        <ele>169</ele>
        <time>2018-07-08T08:41:04Z</time>
      </trkpt>
      <trkpt lat="45.93612" lon="4.77663">
        <ele>169</ele>
        <time>2018-07-08T08:41:05Z</time>
      </trkpt>
      <trkpt lat="45.93614" lon="4.7767">
        <ele>169</ele>
        <time>2018-07-08T08:41:06Z</time>
      </trkpt>
      <trkpt lat="45.93617" lon="4.77676">
        <ele>169</ele>
        <time>2018-07-08T08:41:07Z</time>
      </trkpt>
      <trkpt lat="45.93619" lon="4.77682">
        <ele>169</ele>
        <time>2018-07-08T08:41:08Z</time>
      </trkpt>
      <trkpt lat="45.93622" lon="4.77688">
        <ele>169</ele>
        <time>2018-07-08T08:41:09Z</time>
      </trkpt>
      <trkpt lat="45.93625" lon="4.77694">
        <ele>169</ele>
        <time>2018-07-08T08:41:10Z</time>
      </trkpt>
      <trkpt lat="45.93628" lon="4.777">
        <ele>169</ele>
        <time>2018-07-08T08:41:11Z</time>
      </trkpt>
      <trkpt lat="45.9363" lon="4.77705">
        <ele>170</ele>
        <time>2018-07-08T08:41:12Z</time>
      </trkpt>
      <trkpt lat="45.93633" lon="4.77711">
        <ele>170</ele>
        <time>2018-07-08T08:41:13Z</time>
      </trkpt>
      <trkpt lat="45.93636" lon="4.77717">
        <ele>170</ele>
        <time>2018-07-08T08:41:14Z</time>
      </trkpt>
      <trkpt lat="45.93639" lon="4.77722">
        <ele>170</ele>
        <time>2018-07-08T08:41:15Z</time>
      </trkpt>
      <trkpt lat="45.93642" lon="4.77727">
        <ele>170</ele>
        <time>2018-07-08T08:41:16Z</time>
      </trkpt>
      <trkpt lat="45.93646" lon="4.77731">
        <ele>170</ele>
        <time>2018-07-08T08:41:17Z</time>
      </trkpt>
      <trkpt lat="45.93651" lon="4.77738">
        <ele>170</ele>
        <time>2018-07-08T08:41:19Z</time>
      </trkpt>
      <trkpt lat="45.93652" lon="4.7774">
        <ele>170</ele>
        <time>2018-07-08T08:41:20Z</time>
      </trkpt>
      <trkpt lat="45.93658" lon="4.7775">
        <ele>171</ele>
        <time>2018-07-08T08:41:22Z</time>
      </trkpt>
      <trkpt lat="45.93659" lon="4.77751">
        <ele>171</ele>
        <time>2018-07-08T08:41:23Z</time>
      </trkpt>
      <trkpt lat="45.93664" lon="4.77759">
        <ele>171</ele>
        <time>2018-07-08T08:41:25Z</time>
      </trkpt>
      <trkpt lat="45.93668" lon="4.77764">
        <ele>170</ele>
        <time>2018-07-08T08:41:26Z</time>
      </trkpt>
      <trkpt lat="45.93673" lon="4.77772">
        <ele>170</ele>
        <time>2018-07-08T08:41:28Z</time>
      </trkpt>
      <trkpt lat="45.93676" lon="4.77776">
        <ele>170</ele>
        <time>2018-07-08T08:41:29Z</time>
      </trkpt>
      <trkpt lat="45.93681" lon="4.77783">
        <ele>170</ele>
        <time>2018-07-08T08:41:31Z</time>
      </trkpt>
      <trkpt lat="45.93683" lon="4.77787">
        <ele>170</ele>
        <time>2018-07-08T08:41:32Z</time>
      </trkpt>
      <trkpt lat="45.93688" lon="4.77794">
        <ele>170</ele>
        <time>2018-07-08T08:41:35Z</time>
      </trkpt>
      <trkpt lat="45.93693" lon="4.77801">
        <ele>169</ele>
        <time>2018-07-08T08:41:36Z</time>
      </trkpt>
      <trkpt lat="45.93698" lon="4.77808">
        <ele>169</ele>
        <time>2018-07-08T08:41:38Z</time>
      </trkpt>
      <trkpt lat="45.93701" lon="4.77811">
        <ele>169</ele>
        <time>2018-07-08T08:41:39Z</time>
      </trkpt>
      <trkpt lat="45.93706" lon="4.77818">
        <ele>169</ele>
        <time>2018-07-08T08:41:42Z</time>
      </trkpt>
      <trkpt lat="45.93711" lon="4.77825">
        <ele>169</ele>
        <time>2018-07-08T08:41:43Z</time>
      </trkpt>
      <trkpt lat="45.93718" lon="4.77833">
        <ele>168</ele>
        <time>2018-07-08T08:41:45Z</time>
      </trkpt>
      <trkpt lat="45.93721" lon="4.77837">
        <ele>167</ele>
        <time>2018-07-08T08:41:46Z</time>
      </trkpt>
      <trkpt lat="45.93725" lon="4.77841">
        <ele>167</ele>
        <time>2018-07-08T08:41:47Z</time>
      </trkpt>
      <trkpt lat="45.93728" lon="4.77845">
        <ele>167</ele>
        <time>2018-07-08T08:41:48Z</time>
      </trkpt>
      <trkpt lat="45.93735" lon="4.77852">
        <ele>167</ele>
        <time>2018-07-08T08:41:50Z</time>
      </trkpt>
      <trkpt lat="45.93739" lon="4.77856">
        <ele>167</ele>
        <time>2018-07-08T08:41:51Z</time>
      </trkpt>
      <trkpt lat="45.93743" lon="4.77861">
        <ele>167</ele>
        <time>2018-07-08T08:41:52Z</time>
      </trkpt>
      <trkpt lat="45.93747" lon="4.77865">
        <ele>167</ele>
        <time>2018-07-08T08:41:53Z</time>
      </trkpt>
      <trkpt lat="45.93755" lon="4.77872">
        <ele>166</ele>
        <time>2018-07-08T08:41:55Z</time>
      </trkpt>
      <trkpt lat="45.93758" lon="4.77876">
        <ele>166</ele>
        <time>2018-07-08T08:41:56Z</time>
      </trkpt>
      <trkpt lat="45.93765" lon="4.77883">
        <ele>166</ele>
        <time>2018-07-08T08:41:58Z</time>
      </trkpt>
      <trkpt lat="45.93769" lon="4.77887">
        <ele>166</ele>
        <time>2018-07-08T08:41:59Z</time>
      </trkpt>
      <trkpt lat="45.93775" lon="4.77896">
        <ele>166</ele>
        <time>2018-07-08T08:42:01Z</time>
      </trkpt>
      <trkpt lat="45.93778" lon="4.77901">
        <ele>166</ele>
        <time>2018-07-08T08:42:02Z</time>
      </trkpt>
      <trkpt lat="45.93782" lon="4.77906">
        <ele>166</ele>
        <time>2018-07-08T08:42:03Z</time>
      </trkpt>
      <trkpt lat="45.93786" lon="4.7791">
        <ele>166</ele>
        <time>2018-07-08T08:42:04Z</time>
      </trkpt>
      <trkpt lat="45.93789" lon="4.77915">
        <ele>166</ele>
        <time>2018-07-08T08:42:05Z</time>
      </trkpt>
      <trkpt lat="45.93793" lon="4.7792">
        <ele>168</ele>
        <time>2018-07-08T08:42:06Z</time>
      </trkpt>
      <trkpt lat="45.93799" lon="4.77929">
        <ele>168</ele>
        <time>2018-07-08T08:42:08Z</time>
      </trkpt>
      <trkpt lat="45.93804" lon="4.77935">
        <ele>169</ele>
        <time>2018-07-08T08:42:09Z</time>
      </trkpt>
      <trkpt lat="45.93808" lon="4.77939">
        <ele>169</ele>
        <time>2018-07-08T08:42:10Z</time>
      </trkpt>
      <trkpt lat="45.93811" lon="4.77944">
        <ele>169</ele>
        <time>2018-07-08T08:42:11Z</time>
      </trkpt>
      <trkpt lat="45.93813" lon="4.77949">
        <ele>169</ele>
        <time>2018-07-08T08:42:12Z</time>
      </trkpt>
      <trkpt lat="45.93816" lon="4.77954">
        <ele>170</ele>
        <time>2018-07-08T08:42:13Z</time>
      </trkpt>
      <trkpt lat="45.93821" lon="4.7796">
        <ele>170</ele>
        <time>2018-07-08T08:42:14Z</time>
      </trkpt>
      <trkpt lat="45.93824" lon="4.77966">
        <ele>171</ele>
        <time>2018-07-08T08:42:15Z</time>
      </trkpt>
      <trkpt lat="45.93827" lon="4.7797">
        <ele>172</ele>
        <time>2018-07-08T08:42:16Z</time>
      </trkpt>
      <trkpt lat="45.9383" lon="4.77976">
        <ele>173</ele>
        <time>2018-07-08T08:42:17Z</time>
      </trkpt>
      <trkpt lat="45.93835" lon="4.77985">
        <ele>178</ele>
        <time>2018-07-08T08:42:20Z</time>
      </trkpt>
      <trkpt lat="45.93836" lon="4.77987">
        <ele>179</ele>
        <time>2018-07-08T08:42:21Z</time>
      </trkpt>
      <trkpt lat="45.93838" lon="4.77995">
        <ele>179</ele>
        <time>2018-07-08T08:42:24Z</time>
      </trkpt>
      <trkpt lat="45.9384" lon="4.78007">
        <ele>180</ele>
        <time>2018-07-08T08:42:25Z</time>
      </trkpt>
      <trkpt lat="45.93841" lon="4.78019">
        <ele>181</ele>
        <time>2018-07-08T08:42:27Z</time>
      </trkpt>
      <trkpt lat="45.93844" lon="4.78024">
        <ele>182</ele>
        <time>2018-07-08T08:42:28Z</time>
      </trkpt>
      <trkpt lat="45.93848" lon="4.78029">
        <ele>182</ele>
        <time>2018-07-08T08:42:30Z</time>
      </trkpt>
      <trkpt lat="45.93854" lon="4.78032">
        <ele>183</ele>
        <time>2018-07-08T08:42:31Z</time>
      </trkpt>
      <trkpt lat="45.93862" lon="4.7803">
        <ele>183</ele>
        <time>2018-07-08T08:42:34Z</time>
      </trkpt>
      <trkpt lat="45.93863" lon="4.7803">
        <ele>183</ele>
        <time>2018-07-08T08:42:35Z</time>
      </trkpt>
      <trkpt lat="45.93871" lon="4.78028">
        <ele>183</ele>
        <time>2018-07-08T08:42:37Z</time>
      </trkpt>
      <trkpt lat="45.93872" lon="4.78028">
        <ele>183</ele>
        <time>2018-07-08T08:42:38Z</time>
      </trkpt>
      <trkpt lat="45.9388" lon="4.78021">
        <ele>184</ele>
        <time>2018-07-08T08:42:43Z</time>
      </trkpt>
      <trkpt lat="45.93882" lon="4.78019">
        <ele>184</ele>
        <time>2018-07-08T08:42:44Z</time>
      </trkpt>
      <trkpt lat="45.93888" lon="4.78013">
        <ele>184</ele>
        <time>2018-07-08T08:42:47Z</time>
      </trkpt>
      <trkpt lat="45.93889" lon="4.78011">
        <ele>184</ele>
        <time>2018-07-08T08:42:48Z</time>
      </trkpt>
      <trkpt lat="45.93895" lon="4.78004">
        <ele>185</ele>
        <time>2018-07-08T08:42:51Z</time>
      </trkpt>
      <trkpt lat="45.93897" lon="4.78002">
        <ele>185</ele>
        <time>2018-07-08T08:42:52Z</time>
      </trkpt>
      <trkpt lat="45.93904" lon="4.77996">
        <ele>183</ele>
        <time>2018-07-08T08:42:55Z</time>
      </trkpt>
      <trkpt lat="45.93906" lon="4.77994">
        <ele>183</ele>
        <time>2018-07-08T08:42:56Z</time>
      </trkpt>
      <trkpt lat="45.93912" lon="4.77989">
        <ele>183</ele>
        <time>2018-07-08T08:42:59Z</time>
      </trkpt>
      <trkpt lat="45.93914" lon="4.77987">
        <ele>183</ele>
        <time>2018-07-08T08:43:00Z</time>
      </trkpt>
      <trkpt lat="45.93922" lon="4.77983">
        <ele>188</ele>
        <time>2018-07-08T08:43:04Z</time>
      </trkpt>
      <trkpt lat="45.93923" lon="4.77981">
        <ele>188</ele>
        <time>2018-07-08T08:43:05Z</time>
      </trkpt>
      <trkpt lat="45.93931" lon="4.77977">
        <ele>188</ele>
        <time>2018-07-08T08:43:09Z</time>
      </trkpt>
      <trkpt lat="45.93933" lon="4.77976">
        <ele>189</ele>
        <time>2018-07-08T08:43:10Z</time>
      </trkpt>
      <trkpt lat="45.93941" lon="4.77971">
        <ele>189</ele>
        <time>2018-07-08T08:43:14Z</time>
      </trkpt>
      <trkpt lat="45.93943" lon="4.7797">
        <ele>189</ele>
        <time>2018-07-08T08:43:15Z</time>
      </trkpt>
      <trkpt lat="45.93951" lon="4.77965">
        <ele>190</ele>
        <time>2018-07-08T08:43:19Z</time>
      </trkpt>
      <trkpt lat="45.93952" lon="4.77964">
        <ele>190</ele>
        <time>2018-07-08T08:43:20Z</time>
      </trkpt>
      <trkpt lat="45.93959" lon="4.77957">
        <ele>190</ele>
        <time>2018-07-08T08:43:24Z</time>
      </trkpt>
      <trkpt lat="45.93961" lon="4.77955">
        <ele>190</ele>
        <time>2018-07-08T08:43:25Z</time>
      </trkpt>
      <trkpt lat="45.93967" lon="4.77949">
        <ele>190</ele>
        <time>2018-07-08T08:43:29Z</time>
      </trkpt>
      <trkpt lat="45.93969" lon="4.77948">
        <ele>191</ele>
        <time>2018-07-08T08:43:30Z</time>
      </trkpt>
      <trkpt lat="45.93976" lon="4.77943">
        <ele>191</ele>
        <time>2018-07-08T08:43:34Z</time>
      </trkpt>
      <trkpt lat="45.93977" lon="4.77942">
        <ele>191</ele>
        <time>2018-07-08T08:43:35Z</time>
      </trkpt>
      <trkpt lat="45.93985" lon="4.77938">
        <ele>191</ele>
        <time>2018-07-08T08:43:39Z</time>
      </trkpt>
      <trkpt lat="45.93986" lon="4.77937">
        <ele>192</ele>
        <time>2018-07-08T08:43:40Z</time>
      </trkpt>
      <trkpt lat="45.93994" lon="4.77934">
        <ele>192</ele>
        <time>2018-07-08T08:43:44Z</time>
      </trkpt>
      <trkpt lat="45.93996" lon="4.77934">
        <ele>192</ele>
        <time>2018-07-08T08:43:45Z</time>
      </trkpt>
      <trkpt lat="45.94005" lon="4.77935">
        <ele>198</ele>
        <time>2018-07-08T08:43:50Z</time>
      </trkpt>
      <trkpt lat="45.94006" lon="4.77937">
        <ele>198</ele>
        <time>2018-07-08T08:43:51Z</time>
      </trkpt>
      <trkpt lat="45.94011" lon="4.77947">
        <ele>199</ele>
        <time>2018-07-08T08:43:56Z</time>
      </trkpt>
      <trkpt lat="45.94012" lon="4.77949">
        <ele>199</ele>
        <time>2018-07-08T08:43:57Z</time>
      </trkpt>
      <trkpt lat="45.94015" lon="4.7796">
        <ele>200</ele>
        <time>2018-07-08T08:44:02Z</time>
      </trkpt>
      <trkpt lat="45.94015" lon="4.77963">
        <ele>200</ele>
        <time>2018-07-08T08:44:03Z</time>
      </trkpt>
      <trkpt lat="45.94014" lon="4.77974">
        <ele>200</ele>
        <time>2018-07-08T08:44:06Z</time>
      </trkpt>
      <trkpt lat="45.94014" lon="4.77978">
        <ele>199</ele>
        <time>2018-07-08T08:44:07Z</time>
      </trkpt>
      <trkpt lat="45.94012" lon="4.77989">
        <ele>199</ele>
        <time>2018-07-08T08:44:10Z</time>
      </trkpt>
      <trkpt lat="45.94012" lon="4.77993">
        <ele>198</ele>
        <time>2018-07-08T08:44:11Z</time>
      </trkpt>
      <trkpt lat="45.94009" lon="4.78002">
        <ele>198</ele>
        <time>2018-07-08T08:44:14Z</time>
      </trkpt>
      <trkpt lat="45.94008" lon="4.78006">
        <ele>198</ele>
        <time>2018-07-08T08:44:15Z</time>
      </trkpt>
      <trkpt lat="45.94006" lon="4.78016">
        <ele>199</ele>
        <time>2018-07-08T08:44:18Z</time>
      </trkpt>
      <trkpt lat="45.94005" lon="4.7802">
        <ele>200</ele>
        <time>2018-07-08T08:44:19Z</time>
      </trkpt>
      <trkpt lat="45.94004" lon="4.78028">
        <ele>200</ele>
        <time>2018-07-08T08:44:21Z</time>
      </trkpt>
      <trkpt lat="45.94003" lon="4.78032">
        <ele>201</ele>
        <time>2018-07-08T08:44:22Z</time>
      </trkpt>
      <trkpt lat="45.93999" lon="4.78046">
        <ele>195</ele>
        <time>2018-07-08T08:44:23Z</time>
      </trkpt>
      <trkpt lat="45.93996" lon="4.78056">
        <ele>195</ele>
        <time>2018-07-08T08:44:25Z</time>
      </trkpt>
      <trkpt lat="45.93996" lon="4.78059">
        <ele>195</ele>
        <time>2018-07-08T08:44:26Z</time>
      </trkpt>
      <trkpt lat="45.93995" lon="4.78063">
        <ele>196</ele>
        <time>2018-07-08T08:44:27Z</time>
      </trkpt>
      <trkpt lat="45.93994" lon="4.78073">
        <ele>197</ele>
        <time>2018-07-08T08:44:28Z</time>
      </trkpt>
      <trkpt lat="45.93992" lon="4.78084">
        <ele>198</ele>
        <time>2018-07-08T08:44:30Z</time>
      </trkpt>
      <trkpt lat="45.93992" lon="4.7809">
        <ele>198</ele>
        <time>2018-07-08T08:44:31Z</time>
      </trkpt>
      <trkpt lat="45.9399" lon="4.78102">
        <ele>197</ele>
        <time>2018-07-08T08:44:33Z</time>
      </trkpt>
      <trkpt lat="45.93989" lon="4.78108">
        <ele>197</ele>
        <time>2018-07-08T08:44:34Z</time>
      </trkpt>
      <trkpt lat="45.93988" lon="4.7812">
        <ele>197</ele>
        <time>2018-07-08T08:44:37Z</time>
      </trkpt>
      <trkpt lat="45.93987" lon="4.78124">
        <ele>197</ele>
        <time>2018-07-08T08:44:38Z</time>
      </trkpt>
      <trkpt lat="45.93987" lon="4.78128">
        <ele>197</ele>
        <time>2018-07-08T08:44:39Z</time>
      </trkpt>
      <trkpt lat="45.93985" lon="4.7814">
        <ele>197</ele>
        <time>2018-07-08T08:44:40Z</time>
      </trkpt>
      <trkpt lat="45.93985" lon="4.78151">
        <ele>198</ele>
        <time>2018-07-08T08:44:43Z</time>
      </trkpt>
      <trkpt lat="45.93985" lon="4.78154">
        <ele>198</ele>
        <time>2018-07-08T08:44:44Z</time>
      </trkpt>
      <trkpt lat="45.93986" lon="4.78156">
        <ele>198</ele>
        <time>2018-07-08T08:44:45Z</time>
      </trkpt>
      <trkpt lat="45.93991" lon="4.78168">
        <ele>199</ele>
        <time>2018-07-08T08:44:46Z</time>
      </trkpt>
      <trkpt lat="45.93998" lon="4.78172">
        <ele>200</ele>
        <time>2018-07-08T08:44:49Z</time>
      </trkpt>
      <trkpt lat="45.94" lon="4.78173">
        <ele>200</ele>
        <time>2018-07-08T08:44:50Z</time>
      </trkpt>
      <trkpt lat="45.94006" lon="4.78177">
        <ele>202</ele>
        <time>2018-07-08T08:44:53Z</time>
      </trkpt>
      <trkpt lat="45.94009" lon="4.78178">
        <ele>203</ele>
        <time>2018-07-08T08:44:54Z</time>
      </trkpt>
      <trkpt lat="45.94016" lon="4.78182">
        <ele>203</ele>
        <time>2018-07-08T08:44:57Z</time>
      </trkpt>
      <trkpt lat="45.94018" lon="4.78183">
        <ele>203</ele>
        <time>2018-07-08T08:44:58Z</time>
      </trkpt>
      <trkpt lat="45.94024" lon="4.78187">
        <ele>204</ele>
        <time>2018-07-08T08:45:01Z</time>
      </trkpt>
      <trkpt lat="45.94026" lon="4.78189">
        <ele>204</ele>
        <time>2018-07-08T08:45:02Z</time>
      </trkpt>
      <trkpt lat="45.94031" lon="4.78196">
        <ele>204</ele>
        <time>2018-07-08T08:45:05Z</time>
      </trkpt>
      <trkpt lat="45.94033" lon="4.78198">
        <ele>204</ele>
        <time>2018-07-08T08:45:06Z</time>
      </trkpt>
      <trkpt lat="45.94038" lon="4.78204">
        <ele>205</ele>
        <time>2018-07-08T08:45:09Z</time>
      </trkpt>
      <trkpt lat="45.94041" lon="4.78206">
        <ele>205</ele>
        <time>2018-07-08T08:45:10Z</time>
      </trkpt>
      <trkpt lat="45.94046" lon="4.78211">
        <ele>205</ele>
        <time>2018-07-08T08:45:13Z</time>
      </trkpt>
      <trkpt lat="45.94049" lon="4.78213">
        <ele>205</ele>
        <time>2018-07-08T08:45:14Z</time>
      </trkpt>
      <trkpt lat="45.94056" lon="4.78219">
        <ele>205</ele>
        <time>2018-07-08T08:45:17Z</time>
      </trkpt>
      <trkpt lat="45.94058" lon="4.7822">
        <ele>206</ele>
        <time>2018-07-08T08:45:18Z</time>
      </trkpt>
      <trkpt lat="45.94066" lon="4.78225">
        <ele>206</ele>
        <time>2018-07-08T08:45:22Z</time>
      </trkpt>
      <trkpt lat="45.94067" lon="4.78226">
        <ele>206</ele>
        <time>2018-07-08T08:45:23Z</time>
      </trkpt>
      <trkpt lat="45.94074" lon="4.78229">
        <ele>206</ele>
        <time>2018-07-08T08:45:26Z</time>
      </trkpt>
      <trkpt lat="45.94076" lon="4.78229">
        <ele>206</ele>
        <time>2018-07-08T08:45:27Z</time>
      </trkpt>
      <trkpt lat="45.94085" lon="4.78233">
        <ele>211</ele>
        <time>2018-07-08T08:45:31Z</time>
      </trkpt>
      <trkpt lat="45.94087" lon="4.78234">
        <ele>211</ele>
        <time>2018-07-08T08:45:32Z</time>
      </trkpt>
      <trkpt lat="45.94093" lon="4.78239">
        <ele>211</ele>
        <time>2018-07-08T08:45:35Z</time>
      </trkpt>
      <trkpt lat="45.94095" lon="4.7824">
        <ele>211</ele>
        <time>2018-07-08T08:45:36Z</time>
      </trkpt>
      <trkpt lat="45.94102" lon="4.78246">
        <ele>212</ele>
        <time>2018-07-08T08:45:39Z</time>
      </trkpt>
      <trkpt lat="45.94104" lon="4.78248">
        <ele>212</ele>
        <time>2018-07-08T08:45:40Z</time>
      </trkpt>
      <trkpt lat="45.94109" lon="4.78255">
        <ele>212</ele>
        <time>2018-07-08T08:45:43Z</time>
      </trkpt>
      <trkpt lat="45.94111" lon="4.78257">
        <ele>212</ele>
        <time>2018-07-08T08:45:44Z</time>
      </trkpt>
      <trkpt lat="45.94118" lon="4.78261">
        <ele>213</ele>
        <time>2018-07-08T08:45:47Z</time>
      </trkpt>
      <trkpt lat="45.9412" lon="4.78262">
        <ele>213</ele>
        <time>2018-07-08T08:45:48Z</time>
      </trkpt>
      <trkpt lat="45.94128" lon="4.78266">
        <ele>214</ele>
        <time>2018-07-08T08:45:51Z</time>
      </trkpt>
      <trkpt lat="45.9413" lon="4.78267">
        <ele>214</ele>
        <time>2018-07-08T08:45:52Z</time>
      </trkpt>
      <trkpt lat="45.94138" lon="4.7827">
        <ele>215</ele>
        <time>2018-07-08T08:45:55Z</time>
      </trkpt>
      <trkpt lat="45.94141" lon="4.78271">
        <ele>215</ele>
        <time>2018-07-08T08:45:56Z</time>
      </trkpt>
      <trkpt lat="45.94149" lon="4.78274">
        <ele>215</ele>
        <time>2018-07-08T08:45:59Z</time>
      </trkpt>
      <trkpt lat="45.94151" lon="4.78276">
        <ele>215</ele>
        <time>2018-07-08T08:46:00Z</time>
      </trkpt>
      <trkpt lat="45.94158" lon="4.7828">
        <ele>216</ele>
        <time>2018-07-08T08:46:03Z</time>
      </trkpt>
      <trkpt lat="45.9416" lon="4.78282">
        <ele>216</ele>
        <time>2018-07-08T08:46:04Z</time>
      </trkpt>
      <trkpt lat="45.94166" lon="4.78287">
        <ele>216</ele>
        <time>2018-07-08T08:46:07Z</time>
      </trkpt>
      <trkpt lat="45.94169" lon="4.78288">
        <ele>220</ele>
        <time>2018-07-08T08:46:08Z</time>
      </trkpt>
      <trkpt lat="45.94176" lon="4.78292">
        <ele>221</ele>
        <time>2018-07-08T08:46:11Z</time>
      </trkpt>
      <trkpt lat="45.94179" lon="4.78294">
        <ele>221</ele>
        <time>2018-07-08T08:46:12Z</time>
      </trkpt>
      <trkpt lat="45.94186" lon="4.78297">
        <ele>221</ele>
        <time>2018-07-08T08:46:15Z</time>
      </trkpt>
      <trkpt lat="45.94189" lon="4.78298">
        <ele>221</ele>
        <time>2018-07-08T08:46:16Z</time>
      </trkpt>
      <trkpt lat="45.94196" lon="4.78298">
        <ele>221</ele>
        <time>2018-07-08T08:46:19Z</time>
      </trkpt>
      <trkpt lat="45.94199" lon="4.78299">
        <ele>221</ele>
        <time>2018-07-08T08:46:20Z</time>
      </trkpt>
      <trkpt lat="45.94205" lon="4.783">
        <ele>221</ele>
        <time>2018-07-08T08:46:23Z</time>
      </trkpt>
      <trkpt lat="45.94208" lon="4.783">
        <ele>221</ele>
        <time>2018-07-08T08:46:24Z</time>
      </trkpt>
      <trkpt lat="45.94216" lon="4.78301">
        <ele>221</ele>
        <time>2018-07-08T08:46:27Z</time>
      </trkpt>
      <trkpt lat="45.94218" lon="4.78301">
        <ele>221</ele>
        <time>2018-07-08T08:46:28Z</time>
      </trkpt>
      <trkpt lat="45.94226" lon="4.78302">
        <ele>222</ele>
        <time>2018-07-08T08:46:31Z</time>
      </trkpt>
      <trkpt lat="45.94228" lon="4.78303">
        <ele>222</ele>
        <time>2018-07-08T08:46:32Z</time>
      </trkpt>
      <trkpt lat="45.94236" lon="4.78305">
        <ele>222</ele>
        <time>2018-07-08T08:46:35Z</time>
      </trkpt>
      <trkpt lat="45.94239" lon="4.78306">
        <ele>222</ele>
        <time>2018-07-08T08:46:36Z</time>
      </trkpt>
      <trkpt lat="45.94248" lon="4.78309">
        <ele>221</ele>
        <time>2018-07-08T08:46:39Z</time>
      </trkpt>
      <trkpt lat="45.9425" lon="4.7831">
        <ele>226</ele>
        <time>2018-07-08T08:46:40Z</time>
      </trkpt>
      <trkpt lat="45.94258" lon="4.78315">
        <ele>226</ele>
        <time>2018-07-08T08:46:43Z</time>
      </trkpt>
      <trkpt lat="45.9426" lon="4.78316">
        <ele>226</ele>
        <time>2018-07-08T08:46:44Z</time>
      </trkpt>
      <trkpt lat="45.94267" lon="4.78322">
        <ele>226</ele>
        <time>2018-07-08T08:46:47Z</time>
      </trkpt>
      <trkpt lat="45.94269" lon="4.78324">
        <ele>226</ele>
        <time>2018-07-08T08:46:48Z</time>
      </trkpt>
      <trkpt lat="45.94275" lon="4.7833">
        <ele>227</ele>
        <time>2018-07-08T08:46:51Z</time>
      </trkpt>
      <trkpt lat="45.94277" lon="4.78332">
        <ele>227</ele>
        <time>2018-07-08T08:46:52Z</time>
      </trkpt>
      <trkpt lat="45.94284" lon="4.78339">
        <ele>227</ele>
        <time>2018-07-08T08:46:55Z</time>
      </trkpt>
      <trkpt lat="45.94286" lon="4.78341">
        <ele>228</ele>
        <time>2018-07-08T08:46:56Z</time>
      </trkpt>
      <trkpt lat="45.94291" lon="4.78349">
        <ele>228</ele>
        <time>2018-07-08T08:46:59Z</time>
      </trkpt>
      <trkpt lat="45.94293" lon="4.78352">
        <ele>228</ele>
        <time>2018-07-08T08:47:00Z</time>
      </trkpt>
      <trkpt lat="45.94298" lon="4.78361">
        <ele>229</ele>
        <time>2018-07-08T08:47:03Z</time>
      </trkpt>
      <trkpt lat="45.94299" lon="4.78363">
        <ele>229</ele>
        <time>2018-07-08T08:47:04Z</time>
      </trkpt>
      <trkpt lat="45.94303" lon="4.78371">
        <ele>229</ele>
        <time>2018-07-08T08:47:07Z</time>
      </trkpt>
      <trkpt lat="45.94304" lon="4.78374">
        <ele>229</ele>
        <time>2018-07-08T08:47:08Z</time>
      </trkpt>
      <trkpt lat="45.94309" lon="4.78385">
        <ele>230</ele>
        <time>2018-07-08T08:47:12Z</time>
      </trkpt>
      <trkpt lat="45.9431" lon="4.78388">
        <ele>230</ele>
        <time>2018-07-08T08:47:13Z</time>
      </trkpt>
      <trkpt lat="45.94314" lon="4.78396">
        <ele>230</ele>
        <time>2018-07-08T08:47:16Z</time>
      </trkpt>
      <trkpt lat="45.94315" lon="4.78399">
        <ele>230</ele>
        <time>2018-07-08T08:47:17Z</time>
      </trkpt>
      <trkpt lat="45.94318" lon="4.78408">
        <ele>230</ele>
        <time>2018-07-08T08:47:20Z</time>
      </trkpt>
      <trkpt lat="45.94319" lon="4.78411">
        <ele>230</ele>
        <time>2018-07-08T08:47:21Z</time>
      </trkpt>
      <trkpt lat="45.94324" lon="4.78422">
        <ele>233</ele>
        <time>2018-07-08T08:47:25Z</time>
      </trkpt>
      <trkpt lat="45.94325" lon="4.78425">
        <ele>233</ele>
        <time>2018-07-08T08:47:26Z</time>
      </trkpt>
      <trkpt lat="45.94329" lon="4.78435">
        <ele>235</ele>
        <time>2018-07-08T08:47:30Z</time>
      </trkpt>
      <trkpt lat="45.9433" lon="4.78438">
        <ele>235</ele>
        <time>2018-07-08T08:47:31Z</time>
      </trkpt>
      <trkpt lat="45.94335" lon="4.78445">
        <ele>234</ele>
        <time>2018-07-08T08:47:34Z</time>
      </trkpt>
      <trkpt lat="45.94337" lon="4.78448">
        <ele>234</ele>
        <time>2018-07-08T08:47:35Z</time>
      </trkpt>
      <trkpt lat="45.94342" lon="4.78456">
        <ele>235</ele>
        <time>2018-07-08T08:47:38Z</time>
      </trkpt>
      <trkpt lat="45.94344" lon="4.78458">
        <ele>235</ele>
        <time>2018-07-08T08:47:39Z</time>
      </trkpt>
      <trkpt lat="45.94351" lon="4.78465">
        <ele>236</ele>
        <time>2018-07-08T08:47:42Z</time>
      </trkpt>
      <trkpt lat="45.94353" lon="4.78467">
        <ele>236</ele>
        <time>2018-07-08T08:47:43Z</time>
      </trkpt>
      <trkpt lat="45.94359" lon="4.78472">
        <ele>236</ele>
        <time>2018-07-08T08:47:46Z</time>
      </trkpt>
      <trkpt lat="45.9436" lon="4.78475">
        <ele>236</ele>
        <time>2018-07-08T08:47:47Z</time>
      </trkpt>
      <trkpt lat="45.94365" lon="4.78482">
        <ele>236</ele>
        <time>2018-07-08T08:47:50Z</time>
      </trkpt>
      <trkpt lat="45.94367" lon="4.78485">
        <ele>236</ele>
        <time>2018-07-08T08:47:51Z</time>
      </trkpt>
      <trkpt lat="45.94373" lon="4.78492">
        <ele>236</ele>
        <time>2018-07-08T08:47:54Z</time>
      </trkpt>
      <trkpt lat="45.94375" lon="4.78495">
        <ele>236</ele>
        <time>2018-07-08T08:47:55Z</time>
      </trkpt>
      <trkpt lat="45.94381" lon="4.78501">
        <ele>238</ele>
        <time>2018-07-08T08:47:58Z</time>
      </trkpt>
      <trkpt lat="45.94383" lon="4.78504">
        <ele>238</ele>
        <time>2018-07-08T08:47:59Z</time>
      </trkpt>
      <trkpt lat="45.94389" lon="4.78511">
        <ele>238</ele>
        <time>2018-07-08T08:48:03Z</time>
      </trkpt>
      <trkpt lat="45.94391" lon="4.78513">
        <ele>238</ele>
        <time>2018-07-08T08:48:04Z</time>
      </trkpt>
      <trkpt lat="45.94397" lon="4.7852">
        <ele>237</ele>
        <time>2018-07-08T08:48:07Z</time>
      </trkpt>
      <trkpt lat="45.94399" lon="4.78522">
        <ele>237</ele>
        <time>2018-07-08T08:48:08Z</time>
      </trkpt>
      <trkpt lat="45.94405" lon="4.78529">
        <ele>237</ele>
        <time>2018-07-08T08:48:11Z</time>
      </trkpt>
      <trkpt lat="45.94407" lon="4.78531">
        <ele>238</ele>
        <time>2018-07-08T08:48:12Z</time>
      </trkpt>
      <trkpt lat="45.94412" lon="4.78538">
        <ele>238</ele>
        <time>2018-07-08T08:48:15Z</time>
      </trkpt>
      <trkpt lat="45.94414" lon="4.78541">
        <ele>238</ele>
        <time>2018-07-08T08:48:16Z</time>
      </trkpt>
      <trkpt lat="45.94418" lon="4.78549">
        <ele>238</ele>
        <time>2018-07-08T08:48:19Z</time>
      </trkpt>
      <trkpt lat="45.9442" lon="4.78552">
        <ele>238</ele>
        <time>2018-07-08T08:48:20Z</time>
      </trkpt>
      <trkpt lat="45.94426" lon="4.7856">
        <ele>238</ele>
        <time>2018-07-08T08:48:23Z</time>
      </trkpt>
      <trkpt lat="45.94428" lon="4.78562">
        <ele>238</ele>
        <time>2018-07-08T08:48:24Z</time>
      </trkpt>
      <trkpt lat="45.94434" lon="4.7857">
        <ele>238</ele>
        <time>2018-07-08T08:48:27Z</time>
      </trkpt>
      <trkpt lat="45.94436" lon="4.78572">
        <ele>238</ele>
        <time>2018-07-08T08:48:28Z</time>
      </trkpt>
      <trkpt lat="45.94441" lon="4.7858">
        <ele>239</ele>
        <time>2018-07-08T08:48:31Z</time>
      </trkpt>
      <trkpt lat="45.94443" lon="4.78583">
        <ele>239</ele>
        <time>2018-07-08T08:48:32Z</time>
      </trkpt>
      <trkpt lat="45.94447" lon="4.78593">
        <ele>240</ele>
        <time>2018-07-08T08:48:35Z</time>
      </trkpt>
      <trkpt lat="45.94448" lon="4.78596">
        <ele>240</ele>
        <time>2018-07-08T08:48:36Z</time>
      </trkpt>
      <trkpt lat="45.94453" lon="4.78603">
        <ele>240</ele>
        <time>2018-07-08T08:48:39Z</time>
      </trkpt>
      <trkpt lat="45.94455" lon="4.78605">
        <ele>240</ele>
        <time>2018-07-08T08:48:40Z</time>
      </trkpt>
      <trkpt lat="45.94459" lon="4.78614">
        <ele>241</ele>
        <time>2018-07-08T08:48:43Z</time>
      </trkpt>
      <trkpt lat="45.94461" lon="4.78617">
        <ele>241</ele>
        <time>2018-07-08T08:48:44Z</time>
      </trkpt>
      <trkpt lat="45.94465" lon="4.78625">
        <ele>241</ele>
        <time>2018-07-08T08:48:47Z</time>
      </trkpt>
      <trkpt lat="45.94466" lon="4.78628">
        <ele>241</ele>
        <time>2018-07-08T08:48:48Z</time>
      </trkpt>
      <trkpt lat="45.9447" lon="4.78638">
        <ele>241</ele>
        <time>2018-07-08T08:48:51Z</time>
      </trkpt>
      <trkpt lat="45.9447" lon="4.78641">
        <ele>241</ele>
        <time>2018-07-08T08:48:52Z</time>
      </trkpt>
      <trkpt lat="45.94473" lon="4.78653">
        <ele>241</ele>
        <time>2018-07-08T08:48:56Z</time>
      </trkpt>
      <trkpt lat="45.94474" lon="4.78656">
        <ele>241</ele>
        <time>2018-07-08T08:48:57Z</time>
      </trkpt>
      <trkpt lat="45.94475" lon="4.78669">
        <ele>243</ele>
        <time>2018-07-08T08:49:01Z</time>
      </trkpt>
      <trkpt lat="45.94475" lon="4.78671">
        <ele>244</ele>
        <time>2018-07-08T08:49:02Z</time>
      </trkpt>
      <trkpt lat="45.94478" lon="4.78683">
        <ele>244</ele>
        <time>2018-07-08T08:49:06Z</time>
      </trkpt>
      <trkpt lat="45.94478" lon="4.78686">
        <ele>244</ele>
        <time>2018-07-08T08:49:07Z</time>
      </trkpt>
      <trkpt lat="45.9448" lon="4.78697">
        <ele>244</ele>
        <time>2018-07-08T08:49:11Z</time>
      </trkpt>
      <trkpt lat="45.9448" lon="4.78699">
        <ele>245</ele>
        <time>2018-07-08T08:49:12Z</time>
      </trkpt>
      <trkpt lat="45.94481" lon="4.78711">
        <ele>245</ele>
        <time>2018-07-08T08:49:17Z</time>
      </trkpt>
      <trkpt lat="45.94482" lon="4.78713">
        <ele>245</ele>
        <time>2018-07-08T08:49:18Z</time>
      </trkpt>
      <trkpt lat="45.94481" lon="4.78725">
        <ele>246</ele>
        <time>2018-07-08T08:49:22Z</time>
      </trkpt>
      <trkpt lat="45.94481" lon="4.78729">
        <ele>246</ele>
        <time>2018-07-08T08:49:23Z</time>
      </trkpt>
      <trkpt lat="45.94482" lon="4.7874">
        <ele>246</ele>
        <time>2018-07-08T08:49:27Z</time>
      </trkpt>
      <trkpt lat="45.94482" lon="4.78743">
        <ele>246</ele>
        <time>2018-07-08T08:49:28Z</time>
      </trkpt>
      <trkpt lat="45.94479" lon="4.78754">
        <ele>249</ele>
        <time>2018-07-08T08:49:32Z</time>
      </trkpt>
      <trkpt lat="45.94479" lon="4.78757">
        <ele>249</ele>
        <time>2018-07-08T08:49:33Z</time>
      </trkpt>
      <trkpt lat="45.94478" lon="4.78767">
        <ele>249</ele>
        <time>2018-07-08T08:49:37Z</time>
      </trkpt>
      <trkpt lat="45.94478" lon="4.7877">
        <ele>250</ele>
        <time>2018-07-08T08:49:38Z</time>
      </trkpt>
      <trkpt lat="45.94473" lon="4.7878">
        <ele>250</ele>
        <time>2018-07-08T08:49:44Z</time>
      </trkpt>
      <trkpt lat="45.94472" lon="4.78781">
        <ele>250</ele>
        <time>2018-07-08T08:49:45Z</time>
      </trkpt>
      <trkpt lat="45.94468" lon="4.7879">
        <ele>250</ele>
        <time>2018-07-08T08:49:49Z</time>
      </trkpt>
      <trkpt lat="45.94466" lon="4.78792">
        <ele>250</ele>
        <time>2018-07-08T08:49:50Z</time>
      </trkpt>
      <trkpt lat="45.94463" lon="4.78803">
        <ele>251</ele>
        <time>2018-07-08T08:49:54Z</time>
      </trkpt>
      <trkpt lat="45.94462" lon="4.78806">
        <ele>251</ele>
        <time>2018-07-08T08:49:55Z</time>
      </trkpt>
      <trkpt lat="45.94459" lon="4.78817">
        <ele>251</ele>
        <time>2018-07-08T08:49:59Z</time>
      </trkpt>
      <trkpt lat="45.94458" lon="4.78819">
        <ele>251</ele>
        <time>2018-07-08T08:50:00Z</time>
      </trkpt>
      <trkpt lat="45.94456" lon="4.78829">
        <ele>251</ele>
        <time>2018-07-08T08:50:04Z</time>
      </trkpt>
      <trkpt lat="45.94455" lon="4.78832">
        <ele>251</ele>
        <time>2018-07-08T08:50:05Z</time>
      </trkpt>
      <trkpt lat="45.94453" lon="4.78844">
        <ele>253</ele>
        <time>2018-07-08T08:50:10Z</time>
      </trkpt>
      <trkpt lat="45.94453" lon="4.78847">
        <ele>253</ele>
        <time>2018-07-08T08:50:11Z</time>
      </trkpt>
      <trkpt lat="45.94452" lon="4.78859">
        <ele>253</ele>
        <time>2018-07-08T08:50:15Z</time>
      </trkpt>
      <trkpt lat="45.94452" lon="4.78862">
        <ele>253</ele>
        <time>2018-07-08T08:50:16Z</time>
      </trkpt>
      <trkpt lat="45.94452" lon="4.78875">
        <ele>253</ele>
        <time>2018-07-08T08:50:20Z</time>
      </trkpt>
      <trkpt lat="45.94452" lon="4.78878">
        <ele>253</ele>
        <time>2018-07-08T08:50:21Z</time>
      </trkpt>
      <trkpt lat="45.94453" lon="4.78889">
        <ele>253</ele>
        <time>2018-07-08T08:50:25Z</time>
      </trkpt>
      <trkpt lat="45.94454" lon="4.78892">
        <ele>253</ele>
        <time>2018-07-08T08:50:26Z</time>
      </trkpt>
      <trkpt lat="45.94455" lon="4.78902">
        <ele>253</ele>
        <time>2018-07-08T08:50:29Z</time>
      </trkpt>
      <trkpt lat="45.94456" lon="4.78905">
        <ele>253</ele>
        <time>2018-07-08T08:50:30Z</time>
      </trkpt>
      <trkpt lat="45.94457" lon="4.78918">
        <ele>254</ele>
        <time>2018-07-08T08:50:34Z</time>
      </trkpt>
      <trkpt lat="45.94457" lon="4.78921">
        <ele>254</ele>
        <time>2018-07-08T08:50:35Z</time>
      </trkpt>
      <trkpt lat="45.9446" lon="4.7893">
        <ele>254</ele>
        <time>2018-07-08T08:50:38Z</time>
      </trkpt>
      <trkpt lat="45.94461" lon="4.78933">
        <ele>254</ele>
        <time>2018-07-08T08:50:39Z</time>
      </trkpt>
      <trkpt lat="45.94466" lon="4.78943">
        <ele>254</ele>
        <time>2018-07-08T08:50:43Z</time>
      </trkpt>
      <trkpt lat="45.94467" lon="4.78946">
        <ele>254</ele>
        <time>2018-07-08T08:50:44Z</time>
      </trkpt>
      <trkpt lat="45.94469" lon="4.78955">
        <ele>254</ele>
        <time>2018-07-08T08:50:47Z</time>
      </trkpt>
      <trkpt lat="45.94471" lon="4.78958">
        <ele>254</ele>
        <time>2018-07-08T08:50:48Z</time>
      </trkpt>
      <trkpt lat="45.94475" lon="4.78968">
        <ele>254</ele>
        <time>2018-07-08T08:50:52Z</time>
      </trkpt>
      <trkpt lat="45.94476" lon="4.78971">
        <ele>254</ele>
        <time>2018-07-08T08:50:53Z</time>
      </trkpt>
      <trkpt lat="45.94481" lon="4.7898">
        <ele>254</ele>
        <time>2018-07-08T08:50:56Z</time>
      </trkpt>
      <trkpt lat="45.94482" lon="4.78983">
        <ele>254</ele>
        <time>2018-07-08T08:50:57Z</time>
      </trkpt>
      <trkpt lat="45.94485" lon="4.78991">
        <ele>254</ele>
        <time>2018-07-08T08:51:00Z</time>
      </trkpt>
      <trkpt lat="45.94487" lon="4.78994">
        <ele>254</ele>
        <time>2018-07-08T08:51:01Z</time>
      </trkpt>
      <trkpt lat="45.94491" lon="4.79002">
        <ele>254</ele>
        <time>2018-07-08T08:51:04Z</time>
      </trkpt>
      <trkpt lat="45.94492" lon="4.79004">
        <ele>254</ele>
        <time>2018-07-08T08:51:05Z</time>
      </trkpt>
      <trkpt lat="45.94497" lon="4.79012">
        <ele>254</ele>
        <time>2018-07-08T08:51:08Z</time>
      </trkpt>
      <trkpt lat="45.94499" lon="4.79015">
        <ele>254</ele>
        <time>2018-07-08T08:51:09Z</time>
      </trkpt>
      <trkpt lat="45.94503" lon="4.79024">
        <ele>255</ele>
        <time>2018-07-08T08:51:12Z</time>
      </trkpt>
      <trkpt lat="45.94505" lon="4.79027">
        <ele>255</ele>
        <time>2018-07-08T08:51:13Z</time>
      </trkpt>
      <trkpt lat="45.9451" lon="4.79036">
        <ele>255</ele>
        <time>2018-07-08T08:51:16Z</time>
      </trkpt>
      <trkpt lat="45.94512" lon="4.79039">
        <ele>255</ele>
        <time>2018-07-08T08:51:17Z</time>
      </trkpt>
      <trkpt lat="45.94518" lon="4.79048">
        <ele>255</ele>
        <time>2018-07-08T08:51:20Z</time>
      </trkpt>
      <trkpt lat="45.9452" lon="4.79051">
        <ele>255</ele>
        <time>2018-07-08T08:51:21Z</time>
      </trkpt>
      <trkpt lat="45.94524" lon="4.79058">
        <ele>255</ele>
        <time>2018-07-08T08:51:23Z</time>
      </trkpt>
      <trkpt lat="45.9453" lon="4.7907">
        <ele>255</ele>
        <time>2018-07-08T08:51:24Z</time>
      </trkpt>
      <trkpt lat="45.94533" lon="4.79077">
        <ele>255</ele>
        <time>2018-07-08T08:51:26Z</time>
      </trkpt>
      <trkpt lat="45.94535" lon="4.79084">
        <ele>256</ele>
        <time>2018-07-08T08:51:27Z</time>
      </trkpt>
      <trkpt lat="45.94539" lon="4.79093">
        <ele>256</ele>
        <time>2018-07-08T08:51:29Z</time>
      </trkpt>
      <trkpt lat="45.94541" lon="4.79098">
        <ele>256</ele>
        <time>2018-07-08T08:51:30Z</time>
      </trkpt>
      <trkpt lat="45.94544" lon="4.79103">
        <ele>256</ele>
        <time>2018-07-08T08:51:31Z</time>
      </trkpt>
      <trkpt lat="45.94548" lon="4.79108">
        <ele>256</ele>
        <time>2018-07-08T08:51:32Z</time>
      </trkpt>
      <trkpt lat="45.94553" lon="4.79118">
        <ele>257</ele>
        <time>2018-07-08T08:51:34Z</time>
      </trkpt>
      <trkpt lat="45.94556" lon="4.79123">
        <ele>257</ele>
        <time>2018-07-08T08:51:35Z</time>
      </trkpt>
      <trkpt lat="45.94559" lon="4.79127">
        <ele>257</ele>
        <time>2018-07-08T08:51:36Z</time>
      </trkpt>
      <trkpt lat="45.94561" lon="4.79134">
        <ele>257</ele>
        <time>2018-07-08T08:51:37Z</time>
      </trkpt>
      <trkpt lat="45.94565" lon="4.79145">
        <ele>257</ele>
        <time>2018-07-08T08:51:39Z</time>
      </trkpt>
      <trkpt lat="45.94567" lon="4.7915">
        <ele>257</ele>
        <time>2018-07-08T08:51:40Z</time>
      </trkpt>
      <trkpt lat="45.94573" lon="4.79159">
        <ele>258</ele>
        <time>2018-07-08T08:51:42Z</time>
      </trkpt>
      <trkpt lat="45.94576" lon="4.79165">
        <ele>258</ele>
        <time>2018-07-08T08:51:43Z</time>
      </trkpt>
      <trkpt lat="45.94581" lon="4.79174">
        <ele>258</ele>
        <time>2018-07-08T08:51:45Z</time>
      </trkpt>
      <trkpt lat="45.94584" lon="4.79178">
        <ele>258</ele>
        <time>2018-07-08T08:51:46Z</time>
      </trkpt>
      <trkpt lat="45.94585" lon="4.79183">
        <ele>258</ele>
        <time>2018-07-08T08:51:47Z</time>
      </trkpt>
      <trkpt lat="45.94589" lon="4.7919">
        <ele>258</ele>
        <time>2018-07-08T08:51:48Z</time>
      </trkpt>
      <trkpt lat="45.94593" lon="4.79195">
        <ele>257</ele>
        <time>2018-07-08T08:51:49Z</time>
      </trkpt>
      <trkpt lat="45.94593" lon="4.79203">
        <ele>257</ele>
        <time>2018-07-08T08:51:50Z</time>
      </trkpt>
      <trkpt lat="45.94596" lon="4.79209">
        <ele>257</ele>
        <time>2018-07-08T08:51:51Z</time>
      </trkpt>
      <trkpt lat="45.94599" lon="4.79215">
        <ele>257</ele>
        <time>2018-07-08T08:51:52Z</time>
      </trkpt>
      <trkpt lat="45.94602" lon="4.79226">
        <ele>256</ele>
        <time>2018-07-08T08:51:54Z</time>
      </trkpt>
      <trkpt lat="45.94605" lon="4.79231">
        <ele>256</ele>
        <time>2018-07-08T08:51:55Z</time>
      </trkpt>
      <trkpt lat="45.94608" lon="4.79235">
        <ele>256</ele>
        <time>2018-07-08T08:51:56Z</time>
      </trkpt>
      <trkpt lat="45.94611" lon="4.79241">
        <ele>256</ele>
        <time>2018-07-08T08:51:57Z</time>
      </trkpt>
      <trkpt lat="45.94614" lon="4.79246">
        <ele>256</ele>
        <time>2018-07-08T08:51:58Z</time>
      </trkpt>
      <trkpt lat="45.94615" lon="4.79252">
        <ele>255</ele>
        <time>2018-07-08T08:51:59Z</time>
      </trkpt>
      <trkpt lat="45.94617" lon="4.79264">
        <ele>255</ele>
        <time>2018-07-08T08:52:01Z</time>
      </trkpt>
      <trkpt lat="45.94618" lon="4.79271">
        <ele>255</ele>
        <time>2018-07-08T08:52:02Z</time>
      </trkpt>
      <trkpt lat="45.94623" lon="4.79278">
        <ele>255</ele>
        <time>2018-07-08T08:52:04Z</time>
      </trkpt>
      <trkpt lat="45.94625" lon="4.79281">
        <ele>255</ele>
        <time>2018-07-08T08:52:05Z</time>
      </trkpt>
      <trkpt lat="45.9463" lon="4.79289">
        <ele>254</ele>
        <time>2018-07-08T08:52:06Z</time>
      </trkpt>
      <trkpt lat="45.94633" lon="4.79293">
        <ele>254</ele>
        <time>2018-07-08T08:52:07Z</time>
      </trkpt>
      <trkpt lat="45.94638" lon="4.79303">
        <ele>254</ele>
        <time>2018-07-08T08:52:09Z</time>
      </trkpt>
      <trkpt lat="45.9464" lon="4.79308">
        <ele>254</ele>
        <time>2018-07-08T08:52:10Z</time>
      </trkpt>
      <trkpt lat="45.94645" lon="4.79318">
        <ele>254</ele>
        <time>2018-07-08T08:52:12Z</time>
      </trkpt>
      <trkpt lat="45.94648" lon="4.79322">
        <ele>254</ele>
        <time>2018-07-08T08:52:13Z</time>
      </trkpt>
      <trkpt lat="45.9465" lon="4.79327">
        <ele>254</ele>
        <time>2018-07-08T08:52:14Z</time>
      </trkpt>
      <trkpt lat="45.94653" lon="4.79333">
        <ele>254</ele>
        <time>2018-07-08T08:52:15Z</time>
      </trkpt>
      <trkpt lat="45.94656" lon="4.79338">
        <ele>254</ele>
        <time>2018-07-08T08:52:16Z</time>
      </trkpt>
      <trkpt lat="45.94658" lon="4.79344">
        <ele>254</ele>
        <time>2018-07-08T08:52:17Z</time>
      </trkpt>
      <trkpt lat="45.94664" lon="4.79353">
        <ele>254</ele>
        <time>2018-07-08T08:52:19Z</time>
      </trkpt>
      <trkpt lat="45.94667" lon="4.79358">
        <ele>253</ele>
        <time>2018-07-08T08:52:20Z</time>
      </trkpt>
      <trkpt lat="45.9467" lon="4.79362">
        <ele>253</ele>
        <time>2018-07-08T08:52:21Z</time>
      </trkpt>
      <trkpt lat="45.94672" lon="4.79368">
        <ele>253</ele>
        <time>2018-07-08T08:52:22Z</time>
      </trkpt>
      <trkpt lat="45.94677" lon="4.79378">
        <ele>253</ele>
        <time>2018-07-08T08:52:24Z</time>
      </trkpt>
      <trkpt lat="45.9468" lon="4.79382">
        <ele>253</ele>
        <time>2018-07-08T08:52:25Z</time>
      </trkpt>
      <trkpt lat="45.94685" lon="4.79392">
        <ele>253</ele>
        <time>2018-07-08T08:52:27Z</time>
      </trkpt>
      <trkpt lat="45.94687" lon="4.79398">
        <ele>253</ele>
        <time>2018-07-08T08:52:28Z</time>
      </trkpt>
      <trkpt lat="45.9469" lon="4.79404">
        <ele>253</ele>
        <time>2018-07-08T08:52:29Z</time>
      </trkpt>
      <trkpt lat="45.94694" lon="4.79409">
        <ele>253</ele>
        <time>2018-07-08T08:52:30Z</time>
      </trkpt>
      <trkpt lat="45.94699" lon="4.79419">
        <ele>253</ele>
        <time>2018-07-08T08:52:32Z</time>
      </trkpt>
      <trkpt lat="45.94702" lon="4.79424">
        <ele>253</ele>
        <time>2018-07-08T08:52:33Z</time>
      </trkpt>
      <trkpt lat="45.94705" lon="4.79429">
        <ele>253</ele>
        <time>2018-07-08T08:52:34Z</time>
      </trkpt>
      <trkpt lat="45.94708" lon="4.79435">
        <ele>253</ele>
        <time>2018-07-08T08:52:35Z</time>
      </trkpt>
      <trkpt lat="45.94713" lon="4.79446">
        <ele>253</ele>
        <time>2018-07-08T08:52:37Z</time>
      </trkpt>
      <trkpt lat="45.94715" lon="4.79452">
        <ele>253</ele>
        <time>2018-07-08T08:52:38Z</time>
      </trkpt>
      <trkpt lat="45.94718" lon="4.79458">
        <ele>253</ele>
        <time>2018-07-08T08:52:39Z</time>
      </trkpt>
      <trkpt lat="45.9472" lon="4.79464">
        <ele>253</ele>
        <time>2018-07-08T08:52:40Z</time>
      </trkpt>
      <trkpt lat="45.94723" lon="4.79471">
        <ele>253</ele>
        <time>2018-07-08T08:52:41Z</time>
      </trkpt>
      <trkpt lat="45.94726" lon="4.79478">
        <ele>253</ele>
        <time>2018-07-08T08:52:42Z</time>
      </trkpt>
      <trkpt lat="45.94728" lon="4.79484">
        <ele>253</ele>
        <time>2018-07-08T08:52:43Z</time>
      </trkpt>
      <trkpt lat="45.94731" lon="4.7949">
        <ele>253</ele>
        <time>2018-07-08T08:52:44Z</time>
      </trkpt>
      <trkpt lat="45.94734" lon="4.79497">
        <ele>252</ele>
        <time>2018-07-08T08:52:45Z</time>
      </trkpt>
      <trkpt lat="45.94736" lon="4.79502">
        <ele>252</ele>
        <time>2018-07-08T08:52:46Z</time>
      </trkpt>
      <trkpt lat="45.94738" lon="4.79509">
        <ele>252</ele>
        <time>2018-07-08T08:52:47Z</time>
      </trkpt>
      <trkpt lat="45.94742" lon="4.79515">
        <ele>252</ele>
        <time>2018-07-08T08:52:48Z</time>
      </trkpt>
      <trkpt lat="45.94744" lon="4.79523">
        <ele>253</ele>
        <time>2018-07-08T08:52:49Z</time>
      </trkpt>
      <trkpt lat="45.94747" lon="4.79528">
        <ele>253</ele>
        <time>2018-07-08T08:52:50Z</time>
      </trkpt>
      <trkpt lat="45.9475" lon="4.79534">
        <ele>252</ele>
        <time>2018-07-08T08:52:51Z</time>
      </trkpt>
      <trkpt lat="45.94752" lon="4.79539">
        <ele>252</ele>
        <time>2018-07-08T08:52:52Z</time>
      </trkpt>
      <trkpt lat="45.94754" lon="4.79547">
        <ele>252</ele>
        <time>2018-07-08T08:52:53Z</time>
      </trkpt>
      <trkpt lat="45.94756" lon="4.79553">
        <ele>252</ele>
        <time>2018-07-08T08:52:54Z</time>
      </trkpt>
      <trkpt lat="45.94758" lon="4.7956">
        <ele>252</ele>
        <time>2018-07-08T08:52:55Z</time>
      </trkpt>
      <trkpt lat="45.94759" lon="4.79568">
        <ele>252</ele>
        <time>2018-07-08T08:52:56Z</time>
      </trkpt>
      <trkpt lat="45.94759" lon="4.79575">
        <ele>252</ele>
        <time>2018-07-08T08:52:57Z</time>
      </trkpt>
      <trkpt lat="45.94757" lon="4.79584">
        <ele>252</ele>
        <time>2018-07-08T08:52:58Z</time>
      </trkpt>
      <trkpt lat="45.94758" lon="4.79594">
        <ele>253</ele>
        <time>2018-07-08T08:52:59Z</time>
      </trkpt>
      <trkpt lat="45.94759" lon="4.79599">
        <ele>253</ele>
        <time>2018-07-08T08:53:00Z</time>
      </trkpt>
      <trkpt lat="45.94759" lon="4.79602">
        <ele>253</ele>
        <time>2018-07-08T08:53:01Z</time>
      </trkpt>
      <trkpt lat="45.94761" lon="4.79613">
        <ele>253</ele>
        <time>2018-07-08T08:53:02Z</time>
      </trkpt>
      <trkpt lat="45.94763" lon="4.79619">
        <ele>253</ele>
        <time>2018-07-08T08:53:03Z</time>
      </trkpt>
      <trkpt lat="45.94765" lon="4.79625">
        <ele>253</ele>
        <time>2018-07-08T08:53:04Z</time>
      </trkpt>
      <trkpt lat="45.94769" lon="4.79636">
        <ele>254</ele>
        <time>2018-07-08T08:53:06Z</time>
      </trkpt>
      <trkpt lat="45.9477" lon="4.79643">
        <ele>254</ele>
        <time>2018-07-08T08:53:07Z</time>
      </trkpt>
      <trkpt lat="45.94773" lon="4.79654">
        <ele>254</ele>
        <time>2018-07-08T08:53:09Z</time>
      </trkpt>
      <trkpt lat="45.94775" lon="4.7966">
        <ele>254</ele>
        <time>2018-07-08T08:53:10Z</time>
      </trkpt>
      <trkpt lat="45.94777" lon="4.79666">
        <ele>254</ele>
        <time>2018-07-08T08:53:11Z</time>
      </trkpt>
      <trkpt lat="45.94779" lon="4.79674">
        <ele>254</ele>
        <time>2018-07-08T08:53:12Z</time>
      </trkpt>
      <trkpt lat="45.94781" lon="4.7968">
        <ele>254</ele>
        <time>2018-07-08T08:53:13Z</time>
      </trkpt>
      <trkpt lat="45.94783" lon="4.79686">
        <ele>254</ele>
        <time>2018-07-08T08:53:14Z</time>
      </trkpt>
      <trkpt lat="45.94786" lon="4.79693">
        <ele>254</ele>
        <time>2018-07-08T08:53:15Z</time>
      </trkpt>
      <trkpt lat="45.94789" lon="4.79698">
        <ele>254</ele>
        <time>2018-07-08T08:53:16Z</time>
      </trkpt>
      <trkpt lat="45.94792" lon="4.79706">
        <ele>254</ele>
        <time>2018-07-08T08:53:17Z</time>
      </trkpt>
      <trkpt lat="45.94794" lon="4.79713">
        <ele>254</ele>
        <time>2018-07-08T08:53:18Z</time>
      </trkpt>
      <trkpt lat="45.94796" lon="4.79719">
        <ele>254</ele>
        <time>2018-07-08T08:53:19Z</time>
      </trkpt>
      <trkpt lat="45.94798" lon="4.79726">
        <ele>254</ele>
        <time>2018-07-08T08:53:20Z</time>
      </trkpt>
      <trkpt lat="45.94801" lon="4.79733">
        <ele>254</ele>
        <time>2018-07-08T08:53:21Z</time>
      </trkpt>
      <trkpt lat="45.94803" lon="4.79739">
        <ele>254</ele>
        <time>2018-07-08T08:53:22Z</time>
      </trkpt>
      <trkpt lat="45.94805" lon="4.79745">
        <ele>254</ele>
        <time>2018-07-08T08:53:23Z</time>
      </trkpt>
      <trkpt lat="45.94806" lon="4.79752">
        <ele>254</ele>
        <time>2018-07-08T08:53:24Z</time>
      </trkpt>
      <trkpt lat="45.94807" lon="4.79759">
        <ele>254</ele>
        <time>2018-07-08T08:53:25Z</time>
      </trkpt>
      <trkpt lat="45.94809" lon="4.79767">
        <ele>254</ele>
        <time>2018-07-08T08:53:26Z</time>
      </trkpt>
      <trkpt lat="45.94812" lon="4.79775">
        <ele>254</ele>
        <time>2018-07-08T08:53:27Z</time>
      </trkpt>
      <trkpt lat="45.94814" lon="4.79782">
        <ele>254</ele>
        <time>2018-07-08T08:53:28Z</time>
      </trkpt>
      <trkpt lat="45.94818" lon="4.79791">
        <ele>254</ele>
        <time>2018-07-08T08:53:29Z</time>
      </trkpt>
      <trkpt lat="45.94819" lon="4.79799">
        <ele>254</ele>
        <time>2018-07-08T08:53:30Z</time>
      </trkpt>
      <trkpt lat="45.9482" lon="4.79806">
        <ele>254</ele>
        <time>2018-07-08T08:53:31Z</time>
      </trkpt>
      <trkpt lat="45.94823" lon="4.79813">
        <ele>254</ele>
        <time>2018-07-08T08:53:32Z</time>
      </trkpt>
      <trkpt lat="45.94825" lon="4.7982">
        <ele>254</ele>
        <time>2018-07-08T08:53:33Z</time>
      </trkpt>
      <trkpt lat="45.94826" lon="4.79827">
        <ele>254</ele>
        <time>2018-07-08T08:53:34Z</time>
      </trkpt>
      <trkpt lat="45.94828" lon="4.79834">
        <ele>254</ele>
        <time>2018-07-08T08:53:35Z</time>
      </trkpt>
      <trkpt lat="45.94829" lon="4.79841">
        <ele>254</ele>
        <time>2018-07-08T08:53:36Z</time>
      </trkpt>
      <trkpt lat="45.94831" lon="4.79848">
        <ele>254</ele>
        <time>2018-07-08T08:53:37Z</time>
      </trkpt>
      <trkpt lat="45.94833" lon="4.79855">
        <ele>255</ele>
        <time>2018-07-08T08:53:38Z</time>
      </trkpt>
      <trkpt lat="45.94835" lon="4.79861">
        <ele>255</ele>
        <time>2018-07-08T08:53:39Z</time>
      </trkpt>
      <trkpt lat="45.94836" lon="4.79868">
        <ele>255</ele>
        <time>2018-07-08T08:53:40Z</time>
      </trkpt>
      <trkpt lat="45.94837" lon="4.79875">
        <ele>255</ele>
        <time>2018-07-08T08:53:41Z</time>
      </trkpt>
      <trkpt lat="45.9484" lon="4.79882">
        <ele>255</ele>
        <time>2018-07-08T08:53:42Z</time>
      </trkpt>
      <trkpt lat="45.9484" lon="4.79889">
        <ele>255</ele>
        <time>2018-07-08T08:53:43Z</time>
      </trkpt>
      <trkpt lat="45.94843" lon="4.79896">
        <ele>255</ele>
        <time>2018-07-08T08:53:44Z</time>
      </trkpt>
      <trkpt lat="45.94844" lon="4.79904">
        <ele>256</ele>
        <time>2018-07-08T08:53:45Z</time>
      </trkpt>
      <trkpt lat="45.94847" lon="4.79909">
        <ele>256</ele>
        <time>2018-07-08T08:53:46Z</time>
      </trkpt>
      <trkpt lat="45.94849" lon="4.79915">
        <ele>256</ele>
        <time>2018-07-08T08:53:47Z</time>
      </trkpt>
      <trkpt lat="45.94851" lon="4.79921">
        <ele>256</ele>
        <time>2018-07-08T08:53:48Z</time>
      </trkpt>
      <trkpt lat="45.94854" lon="4.79927">
        <ele>256</ele>
        <time>2018-07-08T08:53:49Z</time>
      </trkpt>
      <trkpt lat="45.94855" lon="4.79934">
        <ele>256</ele>
        <time>2018-07-08T08:53:50Z</time>
      </trkpt>
      <trkpt lat="45.94857" lon="4.7994">
        <ele>256</ele>
        <time>2018-07-08T08:53:51Z</time>
      </trkpt>
      <trkpt lat="45.94861" lon="4.79946">
        <ele>256</ele>
        <time>2018-07-08T08:53:52Z</time>
      </trkpt>
      <trkpt lat="45.94862" lon="4.79951">
        <ele>256</ele>
        <time>2018-07-08T08:53:53Z</time>
      </trkpt>
      <trkpt lat="45.94866" lon="4.79957">
        <ele>256</ele>
        <time>2018-07-08T08:53:54Z</time>
      </trkpt>
      <trkpt lat="45.94869" lon="4.79964">
        <ele>256</ele>
        <time>2018-07-08T08:53:55Z</time>
      </trkpt>
      <trkpt lat="45.94871" lon="4.7997">
        <ele>256</ele>
        <time>2018-07-08T08:53:56Z</time>
      </trkpt>
      <trkpt lat="45.94872" lon="4.79977">
        <ele>256</ele>
        <time>2018-07-08T08:53:57Z</time>
      </trkpt>
      <trkpt lat="45.94874" lon="4.79983">
        <ele>256</ele>
        <time>2018-07-08T08:53:58Z</time>
      </trkpt>
      <trkpt lat="45.94876" lon="4.7999">
        <ele>256</ele>
        <time>2018-07-08T08:53:59Z</time>
      </trkpt>
      <trkpt lat="45.94879" lon="4.79996">
        <ele>256</ele>
        <time>2018-07-08T08:54:00Z</time>
      </trkpt>
      <trkpt lat="45.9488" lon="4.80002">
        <ele>256</ele>
        <time>2018-07-08T08:54:01Z</time>
      </trkpt>
      <trkpt lat="45.94883" lon="4.80009">
        <ele>256</ele>
        <time>2018-07-08T08:54:02Z</time>
      </trkpt>
      <trkpt lat="45.94885" lon="4.80015">
        <ele>256</ele>
        <time>2018-07-08T08:54:03Z</time>
      </trkpt>
      <trkpt lat="45.94888" lon="4.80021">
        <ele>256</ele>
        <time>2018-07-08T08:54:04Z</time>
      </trkpt>
      <trkpt lat="45.94892" lon="4.80032">
        <ele>256</ele>
        <time>2018-07-08T08:54:06Z</time>
      </trkpt>
      <trkpt lat="45.94894" lon="4.80038">
        <ele>256</ele>
        <time>2018-07-08T08:54:07Z</time>
      </trkpt>
      <trkpt lat="45.94896" lon="4.80044">
        <ele>256</ele>
        <time>2018-07-08T08:54:08Z</time>
      </trkpt>
      <trkpt lat="45.94898" lon="4.8005">
        <ele>256</ele>
        <time>2018-07-08T08:54:09Z</time>
      </trkpt>
      <trkpt lat="45.949" lon="4.80057">
        <ele>256</ele>
        <time>2018-07-08T08:54:10Z</time>
      </trkpt>
      <trkpt lat="45.94902" lon="4.80065">
        <ele>256</ele>
        <time>2018-07-08T08:54:11Z</time>
      </trkpt>
      <trkpt lat="45.94903" lon="4.80072">
        <ele>256</ele>
        <time>2018-07-08T08:54:12Z</time>
      </trkpt>
      <trkpt lat="45.94906" lon="4.80078">
        <ele>257</ele>
        <time>2018-07-08T08:54:13Z</time>
      </trkpt>
      <trkpt lat="45.94908" lon="4.80086">
        <ele>257</ele>
        <time>2018-07-08T08:54:14Z</time>
      </trkpt>
      <trkpt lat="45.94909" lon="4.80092">
        <ele>257</ele>
        <time>2018-07-08T08:54:15Z</time>
      </trkpt>
      <trkpt lat="45.94911" lon="4.80099">
        <ele>256</ele>
        <time>2018-07-08T08:54:16Z</time>
      </trkpt>
      <trkpt lat="45.94912" lon="4.80106">
        <ele>256</ele>
        <time>2018-07-08T08:54:17Z</time>
      </trkpt>
      <trkpt lat="45.94912" lon="4.80113">
        <ele>256</ele>
        <time>2018-07-08T08:54:18Z</time>
      </trkpt>
      <trkpt lat="45.94914" lon="4.80119">
        <ele>256</ele>
        <time>2018-07-08T08:54:19Z</time>
      </trkpt>
      <trkpt lat="45.94916" lon="4.80125">
        <ele>256</ele>
        <time>2018-07-08T08:54:20Z</time>
      </trkpt>
      <trkpt lat="45.94917" lon="4.80132">
        <ele>256</ele>
        <time>2018-07-08T08:54:21Z</time>
      </trkpt>
      <trkpt lat="45.94919" lon="4.80139">
        <ele>256</ele>
        <time>2018-07-08T08:54:22Z</time>
      </trkpt>
      <trkpt lat="45.94921" lon="4.80146">
        <ele>256</ele>
        <time>2018-07-08T08:54:23Z</time>
      </trkpt>
      <trkpt lat="45.94922" lon="4.80153">
        <ele>255</ele>
        <time>2018-07-08T08:54:24Z</time>
      </trkpt>
      <trkpt lat="45.94925" lon="4.80159">
        <ele>255</ele>
        <time>2018-07-08T08:54:25Z</time>
      </trkpt>
      <trkpt lat="45.94926" lon="4.80165">
        <ele>255</ele>
        <time>2018-07-08T08:54:26Z</time>
      </trkpt>
      <trkpt lat="45.94927" lon="4.80172">
        <ele>255</ele>
        <time>2018-07-08T08:54:27Z</time>
      </trkpt>
      <trkpt lat="45.94929" lon="4.80179">
        <ele>256</ele>
        <time>2018-07-08T08:54:28Z</time>
      </trkpt>
      <trkpt lat="45.94931" lon="4.80185">
        <ele>256</ele>
        <time>2018-07-08T08:54:29Z</time>
      </trkpt>
      <trkpt lat="45.94934" lon="4.80197">
        <ele>256</ele>
        <time>2018-07-08T08:54:31Z</time>
      </trkpt>
      <trkpt lat="45.94935" lon="4.80205">
        <ele>256</ele>
        <time>2018-07-08T08:54:32Z</time>
      </trkpt>
      <trkpt lat="45.94937" lon="4.80212">
        <ele>256</ele>
        <time>2018-07-08T08:54:33Z</time>
      </trkpt>
      <trkpt lat="45.94938" lon="4.8022">
        <ele>256</ele>
        <time>2018-07-08T08:54:34Z</time>
      </trkpt>
      <trkpt lat="45.94939" lon="4.80226">
        <ele>256</ele>
        <time>2018-07-08T08:54:35Z</time>
      </trkpt>
      <trkpt lat="45.94939" lon="4.80233">
        <ele>256</ele>
        <time>2018-07-08T08:54:36Z</time>
      </trkpt>
      <trkpt lat="45.94941" lon="4.80239">
        <ele>256</ele>
        <time>2018-07-08T08:54:37Z</time>
      </trkpt>
      <trkpt lat="45.94941" lon="4.80248">
        <ele>256</ele>
        <time>2018-07-08T08:54:38Z</time>
      </trkpt>
      <trkpt lat="45.94941" lon="4.80254">
        <ele>257</ele>
        <time>2018-07-08T08:54:39Z</time>
      </trkpt>
      <trkpt lat="45.94942" lon="4.80263">
        <ele>257</ele>
        <time>2018-07-08T08:54:40Z</time>
      </trkpt>
      <trkpt lat="45.94941" lon="4.8027">
        <ele>257</ele>
        <time>2018-07-08T08:54:41Z</time>
      </trkpt>
      <trkpt lat="45.94941" lon="4.80277">
        <ele>257</ele>
        <time>2018-07-08T08:54:42Z</time>
      </trkpt>
      <trkpt lat="45.94942" lon="4.80285">
        <ele>257</ele>
        <time>2018-07-08T08:54:43Z</time>
      </trkpt>
      <trkpt lat="45.94942" lon="4.80291">
        <ele>257</ele>
        <time>2018-07-08T08:54:44Z</time>
      </trkpt>
      <trkpt lat="45.94942" lon="4.80299">
        <ele>257</ele>
        <time>2018-07-08T08:54:45Z</time>
      </trkpt>
      <trkpt lat="45.94942" lon="4.80307">
        <ele>257</ele>
        <time>2018-07-08T08:54:46Z</time>
      </trkpt>
      <trkpt lat="45.94942" lon="4.80314">
        <ele>257</ele>
        <time>2018-07-08T08:54:47Z</time>
      </trkpt>
      <trkpt lat="45.94943" lon="4.8032">
        <ele>257</ele>
        <time>2018-07-08T08:54:48Z</time>
      </trkpt>
      <trkpt lat="45.94943" lon="4.80327">
        <ele>257</ele>
        <time>2018-07-08T08:54:49Z</time>
      </trkpt>
      <trkpt lat="45.94942" lon="4.80334">
        <ele>258</ele>
        <time>2018-07-08T08:54:50Z</time>
      </trkpt>
      <trkpt lat="45.94941" lon="4.80343">
        <ele>258</ele>
        <time>2018-07-08T08:54:51Z</time>
      </trkpt>
      <trkpt lat="45.94942" lon="4.8035">
        <ele>258</ele>
        <time>2018-07-08T08:54:52Z</time>
      </trkpt>
      <trkpt lat="45.94943" lon="4.80363">
        <ele>258</ele>
        <time>2018-07-08T08:54:54Z</time>
      </trkpt>
      <trkpt lat="45.94943" lon="4.80369">
        <ele>258</ele>
        <time>2018-07-08T08:54:55Z</time>
      </trkpt>
      <trkpt lat="45.94942" lon="4.80377">
        <ele>258</ele>
        <time>2018-07-08T08:54:56Z</time>
      </trkpt>
      <trkpt lat="45.94944" lon="4.80382">
        <ele>258</ele>
        <time>2018-07-08T08:54:57Z</time>
      </trkpt>
      <trkpt lat="45.94944" lon="4.80389">
        <ele>258</ele>
        <time>2018-07-08T08:54:58Z</time>
      </trkpt>
      <trkpt lat="45.94944" lon="4.80398">
        <ele>258</ele>
        <time>2018-07-08T08:54:59Z</time>
      </trkpt>
      <trkpt lat="45.94945" lon="4.80407">
        <ele>258</ele>
        <time>2018-07-08T08:55:00Z</time>
      </trkpt>
      <trkpt lat="45.94946" lon="4.80414">
        <ele>259</ele>
        <time>2018-07-08T08:55:01Z</time>
      </trkpt>
      <trkpt lat="45.94946" lon="4.80421">
        <ele>259</ele>
        <time>2018-07-08T08:55:02Z</time>
      </trkpt>
      <trkpt lat="45.94946" lon="4.80428">
        <ele>259</ele>
        <time>2018-07-08T08:55:03Z</time>
      </trkpt>
      <trkpt lat="45.94945" lon="4.80434">
        <ele>259</ele>
        <time>2018-07-08T08:55:04Z</time>
      </trkpt>
      <trkpt lat="45.94945" lon="4.80441">
        <ele>259</ele>
        <time>2018-07-08T08:55:05Z</time>
      </trkpt>
      <trkpt lat="45.94944" lon="4.8045">
        <ele>259</ele>
        <time>2018-07-08T08:55:06Z</time>
      </trkpt>
      <trkpt lat="45.94944" lon="4.80458">
        <ele>258</ele>
        <time>2018-07-08T08:55:07Z</time>
      </trkpt>
      <trkpt lat="45.94944" lon="4.80466">
        <ele>258</ele>
        <time>2018-07-08T08:55:08Z</time>
      </trkpt>
      <trkpt lat="45.94943" lon="4.80475">
        <ele>258</ele>
        <time>2018-07-08T08:55:09Z</time>
      </trkpt>
      <trkpt lat="45.94943" lon="4.8048">
        <ele>258</ele>
        <time>2018-07-08T08:55:10Z</time>
      </trkpt>
      <trkpt lat="45.94943" lon="4.80489">
        <ele>258</ele>
        <time>2018-07-08T08:55:11Z</time>
      </trkpt>
      <trkpt lat="45.94943" lon="4.80496">
        <ele>258</ele>
        <time>2018-07-08T08:55:12Z</time>
      </trkpt>
      <trkpt lat="45.94943" lon="4.80503">
        <ele>258</ele>
        <time>2018-07-08T08:55:13Z</time>
      </trkpt>
      <trkpt lat="45.94943" lon="4.8051">
        <ele>258</ele>
        <time>2018-07-08T08:55:14Z</time>
      </trkpt>
      <trkpt lat="45.94944" lon="4.80516">
        <ele>258</ele>
        <time>2018-07-08T08:55:15Z</time>
      </trkpt>
      <trkpt lat="45.94944" lon="4.80525">
        <ele>258</ele>
        <time>2018-07-08T08:55:16Z</time>
      </trkpt>
      <trkpt lat="45.94946" lon="4.80532">
        <ele>258</ele>
        <time>2018-07-08T08:55:17Z</time>
      </trkpt>
      <trkpt lat="45.94946" lon="4.80539">
        <ele>258</ele>
        <time>2018-07-08T08:55:18Z</time>
      </trkpt>
      <trkpt lat="45.94946" lon="4.80546">
        <ele>258</ele>
        <time>2018-07-08T08:55:19Z</time>
      </trkpt>
      <trkpt lat="45.94946" lon="4.80554">
        <ele>258</ele>
        <time>2018-07-08T08:55:20Z</time>
      </trkpt>
      <trkpt lat="45.94946" lon="4.8056">
        <ele>257</ele>
        <time>2018-07-08T08:55:21Z</time>
      </trkpt>
      <trkpt lat="45.94946" lon="4.80567">
        <ele>257</ele>
        <time>2018-07-08T08:55:22Z</time>
      </trkpt>
      <trkpt lat="45.94947" lon="4.80574">
        <ele>257</ele>
        <time>2018-07-08T08:55:23Z</time>
      </trkpt>
      <trkpt lat="45.94947" lon="4.8058">
        <ele>257</ele>
        <time>2018-07-08T08:55:24Z</time>
      </trkpt>
      <trkpt lat="45.94947" lon="4.80587">
        <ele>258</ele>
        <time>2018-07-08T08:55:25Z</time>
      </trkpt>
      <trkpt lat="45.94948" lon="4.80593">
        <ele>258</ele>
        <time>2018-07-08T08:55:26Z</time>
      </trkpt>
      <trkpt lat="45.94948" lon="4.806">
        <ele>258</ele>
        <time>2018-07-08T08:55:27Z</time>
      </trkpt>
      <trkpt lat="45.94948" lon="4.80608">
        <ele>258</ele>
        <time>2018-07-08T08:55:28Z</time>
      </trkpt>
      <trkpt lat="45.94949" lon="4.80616">
        <ele>258</ele>
        <time>2018-07-08T08:55:29Z</time>
      </trkpt>
      <trkpt lat="45.94949" lon="4.80623">
        <ele>258</ele>
        <time>2018-07-08T08:55:30Z</time>
      </trkpt>
      <trkpt lat="45.9495" lon="4.80629">
        <ele>258</ele>
        <time>2018-07-08T08:55:31Z</time>
      </trkpt>
      <trkpt lat="45.94949" lon="4.80636">
        <ele>258</ele>
        <time>2018-07-08T08:55:32Z</time>
      </trkpt>
      <trkpt lat="45.9495" lon="4.80643">
        <ele>258</ele>
        <time>2018-07-08T08:55:33Z</time>
      </trkpt>
      <trkpt lat="45.94951" lon="4.80652">
        <ele>259</ele>
        <time>2018-07-08T08:55:34Z</time>
      </trkpt>
      <trkpt lat="45.94952" lon="4.80659">
        <ele>259</ele>
        <time>2018-07-08T08:55:35Z</time>
      </trkpt>
      <trkpt lat="45.94952" lon="4.80667">
        <ele>259</ele>
        <time>2018-07-08T08:55:36Z</time>
      </trkpt>
      <trkpt lat="45.94953" lon="4.80672">
        <ele>259</ele>
        <time>2018-07-08T08:55:37Z</time>
      </trkpt>
      <trkpt lat="45.94954" lon="4.80678">
        <ele>259</ele>
        <time>2018-07-08T08:55:38Z</time>
      </trkpt>
      <trkpt lat="45.94953" lon="4.80687">
        <ele>259</ele>
        <time>2018-07-08T08:55:39Z</time>
      </trkpt>
      <trkpt lat="45.94952" lon="4.80694">
        <ele>259</ele>
        <time>2018-07-08T08:55:40Z</time>
      </trkpt>
      <trkpt lat="45.94953" lon="4.807">
        <ele>259</ele>
        <time>2018-07-08T08:55:41Z</time>
      </trkpt>
      <trkpt lat="45.94953" lon="4.80708">
        <ele>259</ele>
        <time>2018-07-08T08:55:42Z</time>
      </trkpt>
      <trkpt lat="45.94953" lon="4.80714">
        <ele>259</ele>
        <time>2018-07-08T08:55:43Z</time>
      </trkpt>
      <trkpt lat="45.94953" lon="4.80723">
        <ele>259</ele>
        <time>2018-07-08T08:55:44Z</time>
      </trkpt>
      <trkpt lat="45.94954" lon="4.80731">
        <ele>259</ele>
        <time>2018-07-08T08:55:45Z</time>
      </trkpt>
      <trkpt lat="45.94954" lon="4.80738">
        <ele>259</ele>
        <time>2018-07-08T08:55:46Z</time>
      </trkpt>
      <trkpt lat="45.94953" lon="4.80746">
        <ele>259</ele>
        <time>2018-07-08T08:55:47Z</time>
      </trkpt>
      <trkpt lat="45.94952" lon="4.80753">
        <ele>259</ele>
        <time>2018-07-08T08:55:48Z</time>
      </trkpt>
      <trkpt lat="45.94952" lon="4.80761">
        <ele>259</ele>
        <time>2018-07-08T08:55:49Z</time>
      </trkpt>
      <trkpt lat="45.9495" lon="4.80771">
        <ele>259</ele>
        <time>2018-07-08T08:55:52Z</time>
      </trkpt>
      <trkpt lat="45.9495" lon="4.80774">
        <ele>259</ele>
        <time>2018-07-08T08:55:53Z</time>
      </trkpt>
      <trkpt lat="45.94948" lon="4.80785">
        <ele>259</ele>
        <time>2018-07-08T08:55:57Z</time>
      </trkpt>
      <trkpt lat="45.94947" lon="4.80787">
        <ele>259</ele>
        <time>2018-07-08T08:55:58Z</time>
      </trkpt>
      <trkpt lat="45.94945" lon="4.80799">
        <ele>259</ele>
        <time>2018-07-08T08:56:09Z</time>
      </trkpt>
      <trkpt lat="45.94946" lon="4.80809">
        <ele>258</ele>
        <time>2018-07-08T08:56:10Z</time>
      </trkpt>
      <trkpt lat="45.94948" lon="4.80813">
        <ele>258</ele>
        <time>2018-07-08T08:56:12Z</time>
      </trkpt>
      <trkpt lat="45.94953" lon="4.80821">
        <ele>258</ele>
        <time>2018-07-08T08:56:13Z</time>
      </trkpt>
      <trkpt lat="45.94956" lon="4.80828">
        <ele>258</ele>
        <time>2018-07-08T08:56:14Z</time>
      </trkpt>
      <trkpt lat="45.94958" lon="4.80834">
        <ele>258</ele>
        <time>2018-07-08T08:56:15Z</time>
      </trkpt>
      <trkpt lat="45.9496" lon="4.80841">
        <ele>259</ele>
        <time>2018-07-08T08:56:16Z</time>
      </trkpt>
      <trkpt lat="45.94962" lon="4.80849">
        <ele>259</ele>
        <time>2018-07-08T08:56:17Z</time>
      </trkpt>
      <trkpt lat="45.94963" lon="4.80857">
        <ele>259</ele>
        <time>2018-07-08T08:56:18Z</time>
      </trkpt>
      <trkpt lat="45.94964" lon="4.80865">
        <ele>259</ele>
        <time>2018-07-08T08:56:19Z</time>
      </trkpt>
      <trkpt lat="45.94965" lon="4.80871">
        <ele>259</ele>
        <time>2018-07-08T08:56:20Z</time>
      </trkpt>
      <trkpt lat="45.94966" lon="4.80879">
        <ele>258</ele>
        <time>2018-07-08T08:56:21Z</time>
      </trkpt>
      <trkpt lat="45.94968" lon="4.80887">
        <ele>258</ele>
        <time>2018-07-08T08:56:22Z</time>
      </trkpt>
      <trkpt lat="45.94968" lon="4.80896">
        <ele>258</ele>
        <time>2018-07-08T08:56:23Z</time>
      </trkpt>
      <trkpt lat="45.94971" lon="4.80905">
        <ele>258</ele>
        <time>2018-07-08T08:56:24Z</time>
      </trkpt>
      <trkpt lat="45.94972" lon="4.80913">
        <ele>258</ele>
        <time>2018-07-08T08:56:25Z</time>
      </trkpt>
      <trkpt lat="45.94973" lon="4.80922">
        <ele>258</ele>
        <time>2018-07-08T08:56:26Z</time>
      </trkpt>
      <trkpt lat="45.94975" lon="4.80929">
        <ele>258</ele>
        <time>2018-07-08T08:56:27Z</time>
      </trkpt>
      <trkpt lat="45.94975" lon="4.80937">
        <ele>258</ele>
        <time>2018-07-08T08:56:28Z</time>
      </trkpt>
      <trkpt lat="45.94979" lon="4.80944">
        <ele>258</ele>
        <time>2018-07-08T08:56:29Z</time>
      </trkpt>
      <trkpt lat="45.9498" lon="4.8095">
        <ele>258</ele>
        <time>2018-07-08T08:56:30Z</time>
      </trkpt>
      <trkpt lat="45.94981" lon="4.8096">
        <ele>258</ele>
        <time>2018-07-08T08:56:31Z</time>
      </trkpt>
      <trkpt lat="45.94982" lon="4.80968">
        <ele>258</ele>
        <time>2018-07-08T08:56:32Z</time>
      </trkpt>
      <trkpt lat="45.94986" lon="4.80977">
        <ele>258</ele>
        <time>2018-07-08T08:56:33Z</time>
      </trkpt>
      <trkpt lat="45.94988" lon="4.80985">
        <ele>258</ele>
        <time>2018-07-08T08:56:34Z</time>
      </trkpt>
      <trkpt lat="45.94989" lon="4.80994">
        <ele>257</ele>
        <time>2018-07-08T08:56:35Z</time>
      </trkpt>
      <trkpt lat="45.9499" lon="4.81002">
        <ele>257</ele>
        <time>2018-07-08T08:56:36Z</time>
      </trkpt>
      <trkpt lat="45.94991" lon="4.81011">
        <ele>257</ele>
        <time>2018-07-08T08:56:37Z</time>
      </trkpt>
      <trkpt lat="45.94991" lon="4.8102">
        <ele>257</ele>
        <time>2018-07-08T08:56:38Z</time>
      </trkpt>
      <trkpt lat="45.94992" lon="4.81029">
        <ele>257</ele>
        <time>2018-07-08T08:56:39Z</time>
      </trkpt>
      <trkpt lat="45.94993" lon="4.81037">
        <ele>257</ele>
        <time>2018-07-08T08:56:40Z</time>
      </trkpt>
      <trkpt lat="45.94993" lon="4.81046">
        <ele>257</ele>
        <time>2018-07-08T08:56:41Z</time>
      </trkpt>
      <trkpt lat="45.94994" lon="4.81056">
        <ele>257</ele>
        <time>2018-07-08T08:56:42Z</time>
      </trkpt>
      <trkpt lat="45.94993" lon="4.81066">
        <ele>257</ele>
        <time>2018-07-08T08:56:43Z</time>
      </trkpt>
      <trkpt lat="45.94993" lon="4.81074">
        <ele>257</ele>
        <time>2018-07-08T08:56:44Z</time>
      </trkpt>
      <trkpt lat="45.94994" lon="4.81083">
        <ele>257</ele>
        <time>2018-07-08T08:56:45Z</time>
      </trkpt>
      <trkpt lat="45.94994" lon="4.81093">
        <ele>257</ele>
        <time>2018-07-08T08:56:46Z</time>
      </trkpt>
      <trkpt lat="45.94995" lon="4.81102">
        <ele>257</ele>
        <time>2018-07-08T08:56:47Z</time>
      </trkpt>
      <trkpt lat="45.94997" lon="4.8111">
        <ele>257</ele>
        <time>2018-07-08T08:56:48Z</time>
      </trkpt>
      <trkpt lat="45.94997" lon="4.81119">
        <ele>257</ele>
        <time>2018-07-08T08:56:49Z</time>
      </trkpt>
      <trkpt lat="45.94999" lon="4.8113">
        <ele>256</ele>
        <time>2018-07-08T08:56:50Z</time>
      </trkpt>
      <trkpt lat="45.95" lon="4.8114">
        <ele>256</ele>
        <time>2018-07-08T08:56:51Z</time>
      </trkpt>
      <trkpt lat="45.95001" lon="4.81152">
        <ele>256</ele>
        <time>2018-07-08T08:56:52Z</time>
      </trkpt>
      <trkpt lat="45.95002" lon="4.81163">
        <ele>256</ele>
        <time>2018-07-08T08:56:53Z</time>
      </trkpt>
      <trkpt lat="45.95005" lon="4.81171">
        <ele>256</ele>
        <time>2018-07-08T08:56:54Z</time>
      </trkpt>
      <trkpt lat="45.95006" lon="4.81182">
        <ele>256</ele>
        <time>2018-07-08T08:56:55Z</time>
      </trkpt>
      <trkpt lat="45.95007" lon="4.81189">
        <ele>256</ele>
        <time>2018-07-08T08:56:56Z</time>
      </trkpt>
      <trkpt lat="45.95008" lon="4.81201">
        <ele>256</ele>
        <time>2018-07-08T08:56:57Z</time>
      </trkpt>
      <trkpt lat="45.9501" lon="4.81213">
        <ele>256</ele>
        <time>2018-07-08T08:56:58Z</time>
      </trkpt>
      <trkpt lat="45.95011" lon="4.81227">
        <ele>256</ele>
        <time>2018-07-08T08:56:59Z</time>
      </trkpt>
      <trkpt lat="45.95013" lon="4.81239">
        <ele>256</ele>
        <time>2018-07-08T08:57:00Z</time>
      </trkpt>
      <trkpt lat="45.95012" lon="4.81249">
        <ele>256</ele>
        <time>2018-07-08T08:57:01Z</time>
      </trkpt>
      <trkpt lat="45.95013" lon="4.8126">
        <ele>256</ele>
        <time>2018-07-08T08:57:02Z</time>
      </trkpt>
      <trkpt lat="45.95014" lon="4.8127">
        <ele>255</ele>
        <time>2018-07-08T08:57:03Z</time>
      </trkpt>
      <trkpt lat="45.95016" lon="4.8128">
        <ele>255</ele>
        <time>2018-07-08T08:57:04Z</time>
      </trkpt>
      <trkpt lat="45.95018" lon="4.8129">
        <ele>255</ele>
        <time>2018-07-08T08:57:05Z</time>
      </trkpt>
      <trkpt lat="45.9502" lon="4.81299">
        <ele>255</ele>
        <time>2018-07-08T08:57:06Z</time>
      </trkpt>
      <trkpt lat="45.95022" lon="4.81307">
        <ele>255</ele>
        <time>2018-07-08T08:57:07Z</time>
      </trkpt>
      <trkpt lat="45.95025" lon="4.81316">
        <ele>255</ele>
        <time>2018-07-08T08:57:08Z</time>
      </trkpt>
      <trkpt lat="45.95028" lon="4.81325">
        <ele>255</ele>
        <time>2018-07-08T08:57:09Z</time>
      </trkpt>
      <trkpt lat="45.95031" lon="4.81334">
        <ele>254</ele>
        <time>2018-07-08T08:57:10Z</time>
      </trkpt>
      <trkpt lat="45.95032" lon="4.81344">
        <ele>254</ele>
        <time>2018-07-08T08:57:11Z</time>
      </trkpt>
      <trkpt lat="45.95036" lon="4.81355">
        <ele>254</ele>
        <time>2018-07-08T08:57:12Z</time>
      </trkpt>
      <trkpt lat="45.95038" lon="4.81363">
        <ele>254</ele>
        <time>2018-07-08T08:57:13Z</time>
      </trkpt>
      <trkpt lat="45.95041" lon="4.81372">
        <ele>254</ele>
        <time>2018-07-08T08:57:14Z</time>
      </trkpt>
      <trkpt lat="45.95044" lon="4.8138">
        <ele>254</ele>
        <time>2018-07-08T08:57:15Z</time>
      </trkpt>
      <trkpt lat="45.95047" lon="4.81389">
        <ele>253</ele>
        <time>2018-07-08T08:57:16Z</time>
      </trkpt>
      <trkpt lat="45.9505" lon="4.81398">
        <ele>253</ele>
        <time>2018-07-08T08:57:17Z</time>
      </trkpt>
      <trkpt lat="45.95052" lon="4.81405">
        <ele>253</ele>
        <time>2018-07-08T08:57:18Z</time>
      </trkpt>
      <trkpt lat="45.95056" lon="4.81414">
        <ele>253</ele>
        <time>2018-07-08T08:57:19Z</time>
      </trkpt>
      <trkpt lat="45.95059" lon="4.81423">
        <ele>253</ele>
        <time>2018-07-08T08:57:20Z</time>
      </trkpt>
      <trkpt lat="45.95063" lon="4.81433">
        <ele>253</ele>
        <time>2018-07-08T08:57:21Z</time>
      </trkpt>
      <trkpt lat="45.95066" lon="4.81444">
        <ele>253</ele>
        <time>2018-07-08T08:57:22Z</time>
      </trkpt>
      <trkpt lat="45.9507" lon="4.81453">
        <ele>253</ele>
        <time>2018-07-08T08:57:23Z</time>
      </trkpt>
      <trkpt lat="45.95073" lon="4.81462">
        <ele>253</ele>
        <time>2018-07-08T08:57:24Z</time>
      </trkpt>
      <trkpt lat="45.95077" lon="4.81472">
        <ele>253</ele>
        <time>2018-07-08T08:57:25Z</time>
      </trkpt>
      <trkpt lat="45.9508" lon="4.81483">
        <ele>253</ele>
        <time>2018-07-08T08:57:26Z</time>
      </trkpt>
      <trkpt lat="45.95083" lon="4.81493">
        <ele>252</ele>
        <time>2018-07-08T08:57:27Z</time>
      </trkpt>
      <trkpt lat="45.95087" lon="4.81502">
        <ele>252</ele>
        <time>2018-07-08T08:57:28Z</time>
      </trkpt>
      <trkpt lat="45.9509" lon="4.8151">
        <ele>252</ele>
        <time>2018-07-08T08:57:29Z</time>
      </trkpt>
      <trkpt lat="45.95092" lon="4.81519">
        <ele>251</ele>
        <time>2018-07-08T08:57:30Z</time>
      </trkpt>
      <trkpt lat="45.95098" lon="4.81529">
        <ele>251</ele>
        <time>2018-07-08T08:57:31Z</time>
      </trkpt>
      <trkpt lat="45.95101" lon="4.81538">
        <ele>251</ele>
        <time>2018-07-08T08:57:32Z</time>
      </trkpt>
      <trkpt lat="45.95105" lon="4.81547">
        <ele>251</ele>
        <time>2018-07-08T08:57:33Z</time>
      </trkpt>
      <trkpt lat="45.95109" lon="4.81556">
        <ele>251</ele>
        <time>2018-07-08T08:57:34Z</time>
      </trkpt>
      <trkpt lat="45.95111" lon="4.81565">
        <ele>251</ele>
        <time>2018-07-08T08:57:35Z</time>
      </trkpt>
      <trkpt lat="45.95115" lon="4.81573">
        <ele>251</ele>
        <time>2018-07-08T08:57:36Z</time>
      </trkpt>
      <trkpt lat="45.95118" lon="4.81582">
        <ele>251</ele>
        <time>2018-07-08T08:57:37Z</time>
      </trkpt>
      <trkpt lat="45.95121" lon="4.8159">
        <ele>252</ele>
        <time>2018-07-08T08:57:38Z</time>
      </trkpt>
      <trkpt lat="45.95123" lon="4.81599">
        <ele>252</ele>
        <time>2018-07-08T08:57:39Z</time>
      </trkpt>
      <trkpt lat="45.95126" lon="4.81606">
        <ele>252</ele>
        <time>2018-07-08T08:57:40Z</time>
      </trkpt>
      <trkpt lat="45.95128" lon="4.81614">
        <ele>252</ele>
        <time>2018-07-08T08:57:41Z</time>
      </trkpt>
      <trkpt lat="45.95131" lon="4.81621">
        <ele>252</ele>
        <time>2018-07-08T08:57:42Z</time>
      </trkpt>
      <trkpt lat="45.95133" lon="4.81631">
        <ele>253</ele>
        <time>2018-07-08T08:57:43Z</time>
      </trkpt>
      <trkpt lat="45.95134" lon="4.81639">
        <ele>253</ele>
        <time>2018-07-08T08:57:44Z</time>
      </trkpt>
      <trkpt lat="45.95136" lon="4.81645">
        <ele>253</ele>
        <time>2018-07-08T08:57:45Z</time>
      </trkpt>
      <trkpt lat="45.95139" lon="4.81652">
        <ele>253</ele>
        <time>2018-07-08T08:57:46Z</time>
      </trkpt>
      <trkpt lat="45.95141" lon="4.81657">
        <ele>253</ele>
        <time>2018-07-08T08:57:47Z</time>
      </trkpt>
      <trkpt lat="45.95143" lon="4.81664">
        <ele>253</ele>
        <time>2018-07-08T08:57:48Z</time>
      </trkpt>
      <trkpt lat="45.95145" lon="4.8167">
        <ele>255</ele>
        <time>2018-07-08T08:57:49Z</time>
      </trkpt>
      <trkpt lat="45.95149" lon="4.81676">
        <ele>255</ele>
        <time>2018-07-08T08:57:50Z</time>
      </trkpt>
      <trkpt lat="45.95151" lon="4.81682">
        <ele>255</ele>
        <time>2018-07-08T08:57:51Z</time>
      </trkpt>
      <trkpt lat="45.95154" lon="4.81691">
        <ele>255</ele>
        <time>2018-07-08T08:57:53Z</time>
      </trkpt>
      <trkpt lat="45.95157" lon="4.81697">
        <ele>255</ele>
        <time>2018-07-08T08:57:54Z</time>
      </trkpt>
      <trkpt lat="45.95159" lon="4.81705">
        <ele>255</ele>
        <time>2018-07-08T08:57:56Z</time>
      </trkpt>
      <trkpt lat="45.9516" lon="4.81712">
        <ele>256</ele>
        <time>2018-07-08T08:57:57Z</time>
      </trkpt>
      <trkpt lat="45.95163" lon="4.81719">
        <ele>256</ele>
        <time>2018-07-08T08:57:59Z</time>
      </trkpt>
      <trkpt lat="45.95165" lon="4.81728">
        <ele>256</ele>
        <time>2018-07-08T08:58:00Z</time>
      </trkpt>
      <trkpt lat="45.95168" lon="4.81737">
        <ele>257</ele>
        <time>2018-07-08T08:58:02Z</time>
      </trkpt>
      <trkpt lat="45.95171" lon="4.81742">
        <ele>257</ele>
        <time>2018-07-08T08:58:03Z</time>
      </trkpt>
      <trkpt lat="45.95175" lon="4.81751">
        <ele>258</ele>
        <time>2018-07-08T08:58:05Z</time>
      </trkpt>
      <trkpt lat="45.95178" lon="4.81756">
        <ele>258</ele>
        <time>2018-07-08T08:58:06Z</time>
      </trkpt>
      <trkpt lat="45.95184" lon="4.81764">
        <ele>258</ele>
        <time>2018-07-08T08:58:08Z</time>
      </trkpt>
      <trkpt lat="45.95187" lon="4.81768">
        <ele>258</ele>
        <time>2018-07-08T08:58:09Z</time>
      </trkpt>
      <trkpt lat="45.95193" lon="4.81777">
        <ele>258</ele>
        <time>2018-07-08T08:58:11Z</time>
      </trkpt>
      <trkpt lat="45.95195" lon="4.81781">
        <ele>258</ele>
        <time>2018-07-08T08:58:12Z</time>
      </trkpt>
      <trkpt lat="45.95199" lon="4.81788">
        <ele>259</ele>
        <time>2018-07-08T08:58:14Z</time>
      </trkpt>
      <trkpt lat="45.95203" lon="4.81794">
        <ele>259</ele>
        <time>2018-07-08T08:58:15Z</time>
      </trkpt>
      <trkpt lat="45.95207" lon="4.81803">
        <ele>259</ele>
        <time>2018-07-08T08:58:17Z</time>
      </trkpt>
      <trkpt lat="45.9521" lon="4.81807">
        <ele>259</ele>
        <time>2018-07-08T08:58:18Z</time>
      </trkpt>
      <trkpt lat="45.95215" lon="4.81816">
        <ele>259</ele>
        <time>2018-07-08T08:58:20Z</time>
      </trkpt>
      <trkpt lat="45.95218" lon="4.81821">
        <ele>259</ele>
        <time>2018-07-08T08:58:21Z</time>
      </trkpt>
      <trkpt lat="45.95223" lon="4.8183">
        <ele>259</ele>
        <time>2018-07-08T08:58:23Z</time>
      </trkpt>
      <trkpt lat="45.95227" lon="4.81833">
        <ele>259</ele>
        <time>2018-07-08T08:58:24Z</time>
      </trkpt>
      <trkpt lat="45.95231" lon="4.81836">
        <ele>260</ele>
        <time>2018-07-08T08:58:25Z</time>
      </trkpt>
      <trkpt lat="45.95235" lon="4.8184">
        <ele>260</ele>
        <time>2018-07-08T08:58:26Z</time>
      </trkpt>
      <trkpt lat="45.95237" lon="4.81846">
        <ele>260</ele>
        <time>2018-07-08T08:58:27Z</time>
      </trkpt>
      <trkpt lat="45.9524" lon="4.81851">
        <ele>260</ele>
        <time>2018-07-08T08:58:28Z</time>
      </trkpt>
      <trkpt lat="45.95243" lon="4.81856">
        <ele>260</ele>
        <time>2018-07-08T08:58:29Z</time>
      </trkpt>
      <trkpt lat="45.95247" lon="4.81859">
        <ele>260</ele>
        <time>2018-07-08T08:58:30Z</time>
      </trkpt>
      <trkpt lat="45.9525" lon="4.8187">
        <ele>260</ele>
        <time>2018-07-08T08:58:32Z</time>
      </trkpt>
      <trkpt lat="45.95253" lon="4.81874">
        <ele>260</ele>
        <time>2018-07-08T08:58:33Z</time>
      </trkpt>
      <trkpt lat="45.95256" lon="4.81879">
        <ele>260</ele>
        <time>2018-07-08T08:58:34Z</time>
      </trkpt>
      <trkpt lat="45.9526" lon="4.81884">
        <ele>260</ele>
        <time>2018-07-08T08:58:35Z</time>
      </trkpt>
      <trkpt lat="45.95263" lon="4.81889">
        <ele>260</ele>
        <time>2018-07-08T08:58:36Z</time>
      </trkpt>
      <trkpt lat="45.95268" lon="4.81893">
        <ele>260</ele>
        <time>2018-07-08T08:58:37Z</time>
      </trkpt>
      <trkpt lat="45.95272" lon="4.81897">
        <ele>260</ele>
        <time>2018-07-08T08:58:38Z</time>
      </trkpt>
      <trkpt lat="45.95276" lon="4.81902">
        <ele>260</ele>
        <time>2018-07-08T08:58:39Z</time>
      </trkpt>
      <trkpt lat="45.95281" lon="4.8191">
        <ele>260</ele>
        <time>2018-07-08T08:58:41Z</time>
      </trkpt>
      <trkpt lat="45.95285" lon="4.81914">
        <ele>260</ele>
        <time>2018-07-08T08:58:42Z</time>
      </trkpt>
      <trkpt lat="45.95287" lon="4.81919">
        <ele>261</ele>
        <time>2018-07-08T08:58:43Z</time>
      </trkpt>
      <trkpt lat="45.95291" lon="4.81925">
        <ele>261</ele>
        <time>2018-07-08T08:58:44Z</time>
      </trkpt>
      <trkpt lat="45.95296" lon="4.81935">
        <ele>261</ele>
        <time>2018-07-08T08:58:46Z</time>
      </trkpt>
      <trkpt lat="45.953" lon="4.8194">
        <ele>261</ele>
        <time>2018-07-08T08:58:47Z</time>
      </trkpt>
      <trkpt lat="45.95304" lon="4.81944">
        <ele>261</ele>
        <time>2018-07-08T08:58:48Z</time>
      </trkpt>
      <trkpt lat="45.95308" lon="4.81948">
        <ele>261</ele>
        <time>2018-07-08T08:58:49Z</time>
      </trkpt>
      <trkpt lat="45.95311" lon="4.81953">
        <ele>262</ele>
        <time>2018-07-08T08:58:50Z</time>
      </trkpt>
      <trkpt lat="45.95315" lon="4.81958">
        <ele>262</ele>
        <time>2018-07-08T08:58:51Z</time>
      </trkpt>
      <trkpt lat="45.9532" lon="4.81963">
        <ele>262</ele>
        <time>2018-07-08T08:58:52Z</time>
      </trkpt>
      <trkpt lat="45.95324" lon="4.81969">
        <ele>262</ele>
        <time>2018-07-08T08:58:53Z</time>
      </trkpt>
      <trkpt lat="45.95331" lon="4.81971">
        <ele>262</ele>
        <time>2018-07-08T08:58:54Z</time>
      </trkpt>
      <trkpt lat="45.95335" lon="4.81976">
        <ele>262</ele>
        <time>2018-07-08T08:58:55Z</time>
      </trkpt>
      <trkpt lat="45.9534" lon="4.81978">
        <ele>262</ele>
        <time>2018-07-08T08:58:56Z</time>
      </trkpt>
      <trkpt lat="45.95345" lon="4.81982">
        <ele>262</ele>
        <time>2018-07-08T08:58:57Z</time>
      </trkpt>
      <trkpt lat="45.95351" lon="4.81987">
        <ele>262</ele>
        <time>2018-07-08T08:58:58Z</time>
      </trkpt>
      <trkpt lat="45.95354" lon="4.81991">
        <ele>262</ele>
        <time>2018-07-08T08:58:59Z</time>
      </trkpt>
      <trkpt lat="45.95358" lon="4.81995">
        <ele>262</ele>
        <time>2018-07-08T08:59:00Z</time>
      </trkpt>
      <trkpt lat="45.95363" lon="4.82001">
        <ele>262</ele>
        <time>2018-07-08T08:59:01Z</time>
      </trkpt>
      <trkpt lat="45.95367" lon="4.82006">
        <ele>262</ele>
        <time>2018-07-08T08:59:02Z</time>
      </trkpt>
      <trkpt lat="45.95372" lon="4.8201">
        <ele>262</ele>
        <time>2018-07-08T08:59:03Z</time>
      </trkpt>
      <trkpt lat="45.95376" lon="4.82016">
        <ele>262</ele>
        <time>2018-07-08T08:59:04Z</time>
      </trkpt>
      <trkpt lat="45.9538" lon="4.82021">
        <ele>262</ele>
        <time>2018-07-08T08:59:05Z</time>
      </trkpt>
      <trkpt lat="45.95383" lon="4.82025">
        <ele>262</ele>
        <time>2018-07-08T08:59:06Z</time>
      </trkpt>
      <trkpt lat="45.95388" lon="4.82029">
        <ele>261</ele>
        <time>2018-07-08T08:59:07Z</time>
      </trkpt>
      <trkpt lat="45.95392" lon="4.82034">
        <ele>261</ele>
        <time>2018-07-08T08:59:08Z</time>
      </trkpt>
      <trkpt lat="45.95396" lon="4.82039">
        <ele>261</ele>
        <time>2018-07-08T08:59:09Z</time>
      </trkpt>
      <trkpt lat="45.95403" lon="4.82047">
        <ele>261</ele>
        <time>2018-07-08T08:59:11Z</time>
      </trkpt>
      <trkpt lat="45.95407" lon="4.82051">
        <ele>261</ele>
        <time>2018-07-08T08:59:12Z</time>
      </trkpt>
      <trkpt lat="45.95411" lon="4.82056">
        <ele>261</ele>
        <time>2018-07-08T08:59:13Z</time>
      </trkpt>
      <trkpt lat="45.95416" lon="4.82061">
        <ele>261</ele>
        <time>2018-07-08T08:59:14Z</time>
      </trkpt>
      <trkpt lat="45.95421" lon="4.82067">
        <ele>260</ele>
        <time>2018-07-08T08:59:15Z</time>
      </trkpt>
      <trkpt lat="45.95425" lon="4.82074">
        <ele>260</ele>
        <time>2018-07-08T08:59:16Z</time>
      </trkpt>
      <trkpt lat="45.95429" lon="4.82079">
        <ele>260</ele>
        <time>2018-07-08T08:59:17Z</time>
      </trkpt>
      <trkpt lat="45.95434" lon="4.82084">
        <ele>261</ele>
        <time>2018-07-08T08:59:18Z</time>
      </trkpt>
      <trkpt lat="45.95436" lon="4.8209">
        <ele>261</ele>
        <time>2018-07-08T08:59:19Z</time>
      </trkpt>
      <trkpt lat="45.9544" lon="4.82094">
        <ele>260</ele>
        <time>2018-07-08T08:59:20Z</time>
      </trkpt>
      <trkpt lat="45.95446" lon="4.82097">
        <ele>260</ele>
        <time>2018-07-08T08:59:21Z</time>
      </trkpt>
      <trkpt lat="45.95451" lon="4.82101">
        <ele>260</ele>
        <time>2018-07-08T08:59:22Z</time>
      </trkpt>
      <trkpt lat="45.95455" lon="4.82102">
        <ele>260</ele>
        <time>2018-07-08T08:59:23Z</time>
      </trkpt>
      <trkpt lat="45.95461" lon="4.82108">
        <ele>260</ele>
        <time>2018-07-08T08:59:24Z</time>
      </trkpt>
      <trkpt lat="45.95466" lon="4.82112">
        <ele>260</ele>
        <time>2018-07-08T08:59:25Z</time>
      </trkpt>
      <trkpt lat="45.95469" lon="4.82117">
        <ele>260</ele>
        <time>2018-07-08T08:59:26Z</time>
      </trkpt>
      <trkpt lat="45.95476" lon="4.82125">
        <ele>260</ele>
        <time>2018-07-08T08:59:28Z</time>
      </trkpt>
      <trkpt lat="45.95479" lon="4.8213">
        <ele>260</ele>
        <time>2018-07-08T08:59:29Z</time>
      </trkpt>
      <trkpt lat="45.95483" lon="4.82135">
        <ele>260</ele>
        <time>2018-07-08T08:59:30Z</time>
      </trkpt>
      <trkpt lat="45.95488" lon="4.82141">
        <ele>260</ele>
        <time>2018-07-08T08:59:31Z</time>
      </trkpt>
      <trkpt lat="45.95495" lon="4.82146">
        <ele>260</ele>
        <time>2018-07-08T08:59:32Z</time>
      </trkpt>
      <trkpt lat="45.955" lon="4.82152">
        <ele>260</ele>
        <time>2018-07-08T08:59:33Z</time>
      </trkpt>
      <trkpt lat="45.95505" lon="4.82158">
        <ele>260</ele>
        <time>2018-07-08T08:59:34Z</time>
      </trkpt>
      <trkpt lat="45.95511" lon="4.82162">
        <ele>260</ele>
        <time>2018-07-08T08:59:35Z</time>
      </trkpt>
      <trkpt lat="45.95517" lon="4.82168">
        <ele>259</ele>
        <time>2018-07-08T08:59:36Z</time>
      </trkpt>
      <trkpt lat="45.95521" lon="4.82172">
        <ele>259</ele>
        <time>2018-07-08T08:59:37Z</time>
      </trkpt>
      <trkpt lat="45.95527" lon="4.82177">
        <ele>259</ele>
        <time>2018-07-08T08:59:38Z</time>
      </trkpt>
      <trkpt lat="45.95531" lon="4.82182">
        <ele>259</ele>
        <time>2018-07-08T08:59:39Z</time>
      </trkpt>
      <trkpt lat="45.95538" lon="4.82186">
        <ele>259</ele>
        <time>2018-07-08T08:59:40Z</time>
      </trkpt>
      <trkpt lat="45.95541" lon="4.82192">
        <ele>259</ele>
        <time>2018-07-08T08:59:41Z</time>
      </trkpt>
      <trkpt lat="45.95546" lon="4.82196">
        <ele>259</ele>
        <time>2018-07-08T08:59:42Z</time>
      </trkpt>
      <trkpt lat="45.9555" lon="4.822">
        <ele>259</ele>
        <time>2018-07-08T08:59:43Z</time>
      </trkpt>
      <trkpt lat="45.95555" lon="4.82203">
        <ele>259</ele>
        <time>2018-07-08T08:59:44Z</time>
      </trkpt>
      <trkpt lat="45.9556" lon="4.82208">
        <ele>258</ele>
        <time>2018-07-08T08:59:45Z</time>
      </trkpt>
      <trkpt lat="45.95564" lon="4.8221">
        <ele>258</ele>
        <time>2018-07-08T08:59:46Z</time>
      </trkpt>
      <trkpt lat="45.95569" lon="4.82215">
        <ele>258</ele>
        <time>2018-07-08T08:59:47Z</time>
      </trkpt>
      <trkpt lat="45.95575" lon="4.82218">
        <ele>258</ele>
        <time>2018-07-08T08:59:48Z</time>
      </trkpt>
      <trkpt lat="45.95581" lon="4.82221">
        <ele>258</ele>
        <time>2018-07-08T08:59:49Z</time>
      </trkpt>
      <trkpt lat="45.95586" lon="4.82225">
        <ele>257</ele>
        <time>2018-07-08T08:59:50Z</time>
      </trkpt>
      <trkpt lat="45.95592" lon="4.82227">
        <ele>257</ele>
        <time>2018-07-08T08:59:51Z</time>
      </trkpt>
      <trkpt lat="45.956" lon="4.8223">
        <ele>257</ele>
        <time>2018-07-08T08:59:52Z</time>
      </trkpt>
      <trkpt lat="45.95606" lon="4.82231">
        <ele>257</ele>
        <time>2018-07-08T08:59:53Z</time>
      </trkpt>
      <trkpt lat="45.95612" lon="4.82231">
        <ele>257</ele>
        <time>2018-07-08T08:59:54Z</time>
      </trkpt>
      <trkpt lat="45.95617" lon="4.82231">
        <ele>257</ele>
        <time>2018-07-08T08:59:55Z</time>
      </trkpt>
      <trkpt lat="45.95624" lon="4.8223">
        <ele>257</ele>
        <time>2018-07-08T08:59:57Z</time>
      </trkpt>
      <trkpt lat="45.95633" lon="4.82228">
        <ele>257</ele>
        <time>2018-07-08T08:59:58Z</time>
      </trkpt>
      <trkpt lat="45.9564" lon="4.82228">
        <ele>257</ele>
        <time>2018-07-08T08:59:59Z</time>
      </trkpt>
      <trkpt lat="45.95646" lon="4.82228">
        <ele>257</ele>
        <time>2018-07-08T09:00:00Z</time>
      </trkpt>
      <trkpt lat="45.95652" lon="4.82229">
        <ele>257</ele>
        <time>2018-07-08T09:00:01Z</time>
      </trkpt>
      <trkpt lat="45.95659" lon="4.82232">
        <ele>257</ele>
        <time>2018-07-08T09:00:02Z</time>
      </trkpt>
      <trkpt lat="45.95665" lon="4.82235">
        <ele>256</ele>
        <time>2018-07-08T09:00:03Z</time>
      </trkpt>
      <trkpt lat="45.95672" lon="4.8224">
        <ele>255</ele>
        <time>2018-07-08T09:00:04Z</time>
      </trkpt>
      <trkpt lat="45.95677" lon="4.82245">
        <ele>255</ele>
        <time>2018-07-08T09:00:05Z</time>
      </trkpt>
      <trkpt lat="45.95685" lon="4.82249">
        <ele>255</ele>
        <time>2018-07-08T09:00:06Z</time>
      </trkpt>
      <trkpt lat="45.9569" lon="4.82254">
        <ele>255</ele>
        <time>2018-07-08T09:00:07Z</time>
      </trkpt>
      <trkpt lat="45.95695" lon="4.82259">
        <ele>255</ele>
        <time>2018-07-08T09:00:08Z</time>
      </trkpt>
      <trkpt lat="45.95698" lon="4.82265">
        <ele>255</ele>
        <time>2018-07-08T09:00:09Z</time>
      </trkpt>
      <trkpt lat="45.95702" lon="4.8227">
        <ele>255</ele>
        <time>2018-07-08T09:00:10Z</time>
      </trkpt>
      <trkpt lat="45.95706" lon="4.82274">
        <ele>255</ele>
        <time>2018-07-08T09:00:11Z</time>
      </trkpt>
      <trkpt lat="45.95712" lon="4.82278">
        <ele>255</ele>
        <time>2018-07-08T09:00:12Z</time>
      </trkpt>
      <trkpt lat="45.95717" lon="4.82281">
        <ele>255</ele>
        <time>2018-07-08T09:00:13Z</time>
      </trkpt>
      <trkpt lat="45.95722" lon="4.82286">
        <ele>255</ele>
        <time>2018-07-08T09:00:14Z</time>
      </trkpt>
      <trkpt lat="45.95726" lon="4.82293">
        <ele>255</ele>
        <time>2018-07-08T09:00:15Z</time>
      </trkpt>
      <trkpt lat="45.95731" lon="4.823">
        <ele>255</ele>
        <time>2018-07-08T09:00:16Z</time>
      </trkpt>
      <trkpt lat="45.95737" lon="4.82303">
        <ele>255</ele>
        <time>2018-07-08T09:00:17Z</time>
      </trkpt>
      <trkpt lat="45.95742" lon="4.82309">
        <ele>255</ele>
        <time>2018-07-08T09:00:18Z</time>
      </trkpt>
      <trkpt lat="45.95747" lon="4.82315">
        <ele>256</ele>
        <time>2018-07-08T09:00:19Z</time>
      </trkpt>
      <trkpt lat="45.95752" lon="4.8232">
        <ele>253</ele>
        <time>2018-07-08T09:00:20Z</time>
      </trkpt>
      <trkpt lat="45.95761" lon="4.82324">
        <ele>253</ele>
        <time>2018-07-08T09:00:21Z</time>
      </trkpt>
      <trkpt lat="45.95767" lon="4.82329">
        <ele>253</ele>
        <time>2018-07-08T09:00:22Z</time>
      </trkpt>
      <trkpt lat="45.95774" lon="4.82336">
        <ele>254</ele>
        <time>2018-07-08T09:00:23Z</time>
      </trkpt>
      <trkpt lat="45.9578" lon="4.82342">
        <ele>253</ele>
        <time>2018-07-08T09:00:24Z</time>
      </trkpt>
      <trkpt lat="45.95785" lon="4.82348">
        <ele>253</ele>
        <time>2018-07-08T09:00:25Z</time>
      </trkpt>
      <trkpt lat="45.9579" lon="4.82354">
        <ele>253</ele>
        <time>2018-07-08T09:00:26Z</time>
      </trkpt>
      <trkpt lat="45.95794" lon="4.82357">
        <ele>252</ele>
        <time>2018-07-08T09:00:27Z</time>
      </trkpt>
      <trkpt lat="45.95801" lon="4.8236">
        <ele>252</ele>
        <time>2018-07-08T09:00:28Z</time>
      </trkpt>
      <trkpt lat="45.95807" lon="4.82363">
        <ele>252</ele>
        <time>2018-07-08T09:00:29Z</time>
      </trkpt>
      <trkpt lat="45.95813" lon="4.82364">
        <ele>252</ele>
        <time>2018-07-08T09:00:30Z</time>
      </trkpt>
      <trkpt lat="45.95821" lon="4.82365">
        <ele>251</ele>
        <time>2018-07-08T09:00:31Z</time>
      </trkpt>
      <trkpt lat="45.95826" lon="4.82366">
        <ele>251</ele>
        <time>2018-07-08T09:00:32Z</time>
      </trkpt>
      <trkpt lat="45.95833" lon="4.82367">
        <ele>251</ele>
        <time>2018-07-08T09:00:33Z</time>
      </trkpt>
      <trkpt lat="45.95841" lon="4.8237">
        <ele>246</ele>
        <time>2018-07-08T09:00:34Z</time>
      </trkpt>
      <trkpt lat="45.95848" lon="4.82373">
        <ele>246</ele>
        <time>2018-07-08T09:00:35Z</time>
      </trkpt>
      <trkpt lat="45.95858" lon="4.82373">
        <ele>245</ele>
        <time>2018-07-08T09:00:36Z</time>
      </trkpt>
      <trkpt lat="45.95866" lon="4.82373">
        <ele>245</ele>
        <time>2018-07-08T09:00:37Z</time>
      </trkpt>
      <trkpt lat="45.95874" lon="4.82372">
        <ele>244</ele>
        <time>2018-07-08T09:00:38Z</time>
      </trkpt>
      <trkpt lat="45.9588" lon="4.82372">
        <ele>244</ele>
        <time>2018-07-08T09:00:39Z</time>
      </trkpt>
      <trkpt lat="45.95887" lon="4.82371">
        <ele>243</ele>
        <time>2018-07-08T09:00:40Z</time>
      </trkpt>
      <trkpt lat="45.95895" lon="4.82372">
        <ele>243</ele>
        <time>2018-07-08T09:00:41Z</time>
      </trkpt>
      <trkpt lat="45.95904" lon="4.8237">
        <ele>243</ele>
        <time>2018-07-08T09:00:42Z</time>
      </trkpt>
      <trkpt lat="45.95912" lon="4.82368">
        <ele>242</ele>
        <time>2018-07-08T09:00:43Z</time>
      </trkpt>
      <trkpt lat="45.95921" lon="4.82367">
        <ele>238</ele>
        <time>2018-07-08T09:00:44Z</time>
      </trkpt>
      <trkpt lat="45.95929" lon="4.82365">
        <ele>238</ele>
        <time>2018-07-08T09:00:45Z</time>
      </trkpt>
      <trkpt lat="45.95939" lon="4.82363">
        <ele>238</ele>
        <time>2018-07-08T09:00:46Z</time>
      </trkpt>
      <trkpt lat="45.95948" lon="4.8236">
        <ele>237</ele>
        <time>2018-07-08T09:00:47Z</time>
      </trkpt>
      <trkpt lat="45.95956" lon="4.82359">
        <ele>237</ele>
        <time>2018-07-08T09:00:48Z</time>
      </trkpt>
      <trkpt lat="45.95964" lon="4.82358">
        <ele>237</ele>
        <time>2018-07-08T09:00:49Z</time>
      </trkpt>
      <trkpt lat="45.95973" lon="4.82357">
        <ele>237</ele>
        <time>2018-07-08T09:00:50Z</time>
      </trkpt>
      <trkpt lat="45.9598" lon="4.8236">
        <ele>237</ele>
        <time>2018-07-08T09:00:51Z</time>
      </trkpt>
      <trkpt lat="45.95986" lon="4.8236">
        <ele>236</ele>
        <time>2018-07-08T09:00:52Z</time>
      </trkpt>
      <trkpt lat="45.95992" lon="4.82358">
        <ele>236</ele>
        <time>2018-07-08T09:00:53Z</time>
      </trkpt>
      <trkpt lat="45.95998" lon="4.8236">
        <ele>236</ele>
        <time>2018-07-08T09:00:54Z</time>
      </trkpt>
      <trkpt lat="45.96005" lon="4.82362">
        <ele>235</ele>
        <time>2018-07-08T09:00:56Z</time>
      </trkpt>
      <trkpt lat="45.96009" lon="4.82365">
        <ele>235</ele>
        <time>2018-07-08T09:00:57Z</time>
      </trkpt>
      <trkpt lat="45.96012" lon="4.82371">
        <ele>235</ele>
        <time>2018-07-08T09:00:58Z</time>
      </trkpt>
      <trkpt lat="45.96014" lon="4.82377">
        <ele>235</ele>
        <time>2018-07-08T09:00:59Z</time>
      </trkpt>
      <trkpt lat="45.96017" lon="4.82388">
        <ele>235</ele>
        <time>2018-07-08T09:01:01Z</time>
      </trkpt>
      <trkpt lat="45.96017" lon="4.82395">
        <ele>235</ele>
        <time>2018-07-08T09:01:02Z</time>
      </trkpt>
      <trkpt lat="45.96016" lon="4.82403">
        <ele>235</ele>
        <time>2018-07-08T09:01:03Z</time>
      </trkpt>
      <trkpt lat="45.96018" lon="4.82412">
        <ele>235</ele>
        <time>2018-07-08T09:01:04Z</time>
      </trkpt>
      <trkpt lat="45.96016" lon="4.82421">
        <ele>235</ele>
        <time>2018-07-08T09:01:05Z</time>
      </trkpt>
      <trkpt lat="45.96015" lon="4.82431">
        <ele>235</ele>
        <time>2018-07-08T09:01:06Z</time>
      </trkpt>
      <trkpt lat="45.96014" lon="4.82439">
        <ele>235</ele>
        <time>2018-07-08T09:01:07Z</time>
      </trkpt>
      <trkpt lat="45.96012" lon="4.82445">
        <ele>235</ele>
        <time>2018-07-08T09:01:08Z</time>
      </trkpt>
      <trkpt lat="45.96011" lon="4.82451">
        <ele>235</ele>
        <time>2018-07-08T09:01:09Z</time>
      </trkpt>
      <trkpt lat="45.9601" lon="4.82458">
        <ele>235</ele>
        <time>2018-07-08T09:01:10Z</time>
      </trkpt>
      <trkpt lat="45.96011" lon="4.82464">
        <ele>235</ele>
        <time>2018-07-08T09:01:11Z</time>
      </trkpt>
      <trkpt lat="45.9601" lon="4.82472">
        <ele>235</ele>
        <time>2018-07-08T09:01:12Z</time>
      </trkpt>
      <trkpt lat="45.9601" lon="4.82479">
        <ele>235</ele>
        <time>2018-07-08T09:01:13Z</time>
      </trkpt>
      <trkpt lat="45.96009" lon="4.82486">
        <ele>235</ele>
        <time>2018-07-08T09:01:14Z</time>
      </trkpt>
      <trkpt lat="45.96008" lon="4.82492">
        <ele>235</ele>
        <time>2018-07-08T09:01:15Z</time>
      </trkpt>
      <trkpt lat="45.96007" lon="4.82499">
        <ele>235</ele>
        <time>2018-07-08T09:01:16Z</time>
      </trkpt>
      <trkpt lat="45.96006" lon="4.82506">
        <ele>235</ele>
        <time>2018-07-08T09:01:17Z</time>
      </trkpt>
      <trkpt lat="45.96006" lon="4.82513">
        <ele>235</ele>
        <time>2018-07-08T09:01:18Z</time>
      </trkpt>
      <trkpt lat="45.96006" lon="4.82522">
        <ele>235</ele>
        <time>2018-07-08T09:01:20Z</time>
      </trkpt>
      <trkpt lat="45.96003" lon="4.82532">
        <ele>235</ele>
        <time>2018-07-08T09:01:21Z</time>
      </trkpt>
      <trkpt lat="45.96002" lon="4.82539">
        <ele>235</ele>
        <time>2018-07-08T09:01:22Z</time>
      </trkpt>
      <trkpt lat="45.96002" lon="4.82546">
        <ele>235</ele>
        <time>2018-07-08T09:01:23Z</time>
      </trkpt>
      <trkpt lat="45.96006" lon="4.82555">
        <ele>235</ele>
        <time>2018-07-08T09:01:24Z</time>
      </trkpt>
      <trkpt lat="45.96007" lon="4.82562">
        <ele>234</ele>
        <time>2018-07-08T09:01:25Z</time>
      </trkpt>
      <trkpt lat="45.96011" lon="4.82568">
        <ele>234</ele>
        <time>2018-07-08T09:01:26Z</time>
      </trkpt>
      <trkpt lat="45.96012" lon="4.82576">
        <ele>234</ele>
        <time>2018-07-08T09:01:27Z</time>
      </trkpt>
      <trkpt lat="45.96013" lon="4.82583">
        <ele>234</ele>
        <time>2018-07-08T09:01:28Z</time>
      </trkpt>
      <trkpt lat="45.96018" lon="4.82589">
        <ele>235</ele>
        <time>2018-07-08T09:01:29Z</time>
      </trkpt>
      <trkpt lat="45.96021" lon="4.82595">
        <ele>235</ele>
        <time>2018-07-08T09:01:30Z</time>
      </trkpt>
      <trkpt lat="45.96024" lon="4.82601">
        <ele>235</ele>
        <time>2018-07-08T09:01:31Z</time>
      </trkpt>
      <trkpt lat="45.96025" lon="4.82608">
        <ele>235</ele>
        <time>2018-07-08T09:01:32Z</time>
      </trkpt>
      <trkpt lat="45.96027" lon="4.82616">
        <ele>235</ele>
        <time>2018-07-08T09:01:33Z</time>
      </trkpt>
      <trkpt lat="45.96029" lon="4.82624">
        <ele>235</ele>
        <time>2018-07-08T09:01:34Z</time>
      </trkpt>
      <trkpt lat="45.96032" lon="4.8263">
        <ele>235</ele>
        <time>2018-07-08T09:01:35Z</time>
      </trkpt>
      <trkpt lat="45.96035" lon="4.82638">
        <ele>235</ele>
        <time>2018-07-08T09:01:36Z</time>
      </trkpt>
      <trkpt lat="45.96034" lon="4.82644">
        <ele>235</ele>
        <time>2018-07-08T09:01:37Z</time>
      </trkpt>
      <trkpt lat="45.96038" lon="4.82654">
        <ele>235</ele>
        <time>2018-07-08T09:01:39Z</time>
      </trkpt>
      <trkpt lat="45.96043" lon="4.82659">
        <ele>235</ele>
        <time>2018-07-08T09:01:40Z</time>
      </trkpt>
      <trkpt lat="45.96047" lon="4.8267">
        <ele>236</ele>
        <time>2018-07-08T09:01:42Z</time>
      </trkpt>
      <trkpt lat="45.96049" lon="4.82677">
        <ele>236</ele>
        <time>2018-07-08T09:01:43Z</time>
      </trkpt>
      <trkpt lat="45.96051" lon="4.82684">
        <ele>236</ele>
        <time>2018-07-08T09:01:44Z</time>
      </trkpt>
      <trkpt lat="45.96054" lon="4.82691">
        <ele>237</ele>
        <time>2018-07-08T09:01:45Z</time>
      </trkpt>
      <trkpt lat="45.96057" lon="4.82697">
        <ele>237</ele>
        <time>2018-07-08T09:01:46Z</time>
      </trkpt>
      <trkpt lat="45.9606" lon="4.82703">
        <ele>237</ele>
        <time>2018-07-08T09:01:47Z</time>
      </trkpt>
      <trkpt lat="45.96062" lon="4.82711">
        <ele>237</ele>
        <time>2018-07-08T09:01:48Z</time>
      </trkpt>
      <trkpt lat="45.96064" lon="4.82717">
        <ele>237</ele>
        <time>2018-07-08T09:01:49Z</time>
      </trkpt>
      <trkpt lat="45.96068" lon="4.82723">
        <ele>237</ele>
        <time>2018-07-08T09:01:50Z</time>
      </trkpt>
      <trkpt lat="45.9607" lon="4.82729">
        <ele>237</ele>
        <time>2018-07-08T09:01:51Z</time>
      </trkpt>
      <trkpt lat="45.96073" lon="4.82735">
        <ele>237</ele>
        <time>2018-07-08T09:01:52Z</time>
      </trkpt>
      <trkpt lat="45.96075" lon="4.82742">
        <ele>237</ele>
        <time>2018-07-08T09:01:53Z</time>
      </trkpt>
      <trkpt lat="45.96078" lon="4.82749">
        <ele>237</ele>
        <time>2018-07-08T09:01:54Z</time>
      </trkpt>
      <trkpt lat="45.9608" lon="4.82756">
        <ele>237</ele>
        <time>2018-07-08T09:01:55Z</time>
      </trkpt>
      <trkpt lat="45.96082" lon="4.82763">
        <ele>238</ele>
        <time>2018-07-08T09:01:56Z</time>
      </trkpt>
      <trkpt lat="45.96083" lon="4.82772">
        <ele>238</ele>
        <time>2018-07-08T09:01:57Z</time>
      </trkpt>
      <trkpt lat="45.96086" lon="4.82779">
        <ele>237</ele>
        <time>2018-07-08T09:01:58Z</time>
      </trkpt>
      <trkpt lat="45.96086" lon="4.82787">
        <ele>237</ele>
        <time>2018-07-08T09:01:59Z</time>
      </trkpt>
      <trkpt lat="45.96088" lon="4.82795">
        <ele>237</ele>
        <time>2018-07-08T09:02:00Z</time>
      </trkpt>
      <trkpt lat="45.96091" lon="4.82802">
        <ele>237</ele>
        <time>2018-07-08T09:02:01Z</time>
      </trkpt>
      <trkpt lat="45.96091" lon="4.82812">
        <ele>237</ele>
        <time>2018-07-08T09:02:02Z</time>
      </trkpt>
      <trkpt lat="45.96092" lon="4.82821">
        <ele>237</ele>
        <time>2018-07-08T09:02:03Z</time>
      </trkpt>
      <trkpt lat="45.96093" lon="4.82829">
        <ele>237</ele>
        <time>2018-07-08T09:02:04Z</time>
      </trkpt>
      <trkpt lat="45.96094" lon="4.82837">
        <ele>237</ele>
        <time>2018-07-08T09:02:05Z</time>
      </trkpt>
      <trkpt lat="45.96095" lon="4.82845">
        <ele>237</ele>
        <time>2018-07-08T09:02:06Z</time>
      </trkpt>
      <trkpt lat="45.96093" lon="4.82852">
        <ele>237</ele>
        <time>2018-07-08T09:02:07Z</time>
      </trkpt>
      <trkpt lat="45.96094" lon="4.82863">
        <ele>237</ele>
        <time>2018-07-08T09:02:09Z</time>
      </trkpt>
      <trkpt lat="45.96092" lon="4.8287">
        <ele>237</ele>
        <time>2018-07-08T09:02:10Z</time>
      </trkpt>
      <trkpt lat="45.96092" lon="4.82876">
        <ele>237</ele>
        <time>2018-07-08T09:02:11Z</time>
      </trkpt>
      <trkpt lat="45.9609" lon="4.82883">
        <ele>237</ele>
        <time>2018-07-08T09:02:12Z</time>
      </trkpt>
      <trkpt lat="45.96088" lon="4.82892">
        <ele>237</ele>
        <time>2018-07-08T09:02:13Z</time>
      </trkpt>
      <trkpt lat="45.96087" lon="4.82899">
        <ele>238</ele>
        <time>2018-07-08T09:02:14Z</time>
      </trkpt>
      <trkpt lat="45.96086" lon="4.82905">
        <ele>238</ele>
        <time>2018-07-08T09:02:15Z</time>
      </trkpt>
      <trkpt lat="45.96085" lon="4.82912">
        <ele>238</ele>
        <time>2018-07-08T09:02:16Z</time>
      </trkpt>
      <trkpt lat="45.96082" lon="4.82919">
        <ele>238</ele>
        <time>2018-07-08T09:02:17Z</time>
      </trkpt>
      <trkpt lat="45.96082" lon="4.82925">
        <ele>239</ele>
        <time>2018-07-08T09:02:18Z</time>
      </trkpt>
      <trkpt lat="45.9608" lon="4.82933">
        <ele>240</ele>
        <time>2018-07-08T09:02:19Z</time>
      </trkpt>
      <trkpt lat="45.96078" lon="4.8294">
        <ele>240</ele>
        <time>2018-07-08T09:02:20Z</time>
      </trkpt>
      <trkpt lat="45.96076" lon="4.82946">
        <ele>241</ele>
        <time>2018-07-08T09:02:21Z</time>
      </trkpt>
      <trkpt lat="45.96076" lon="4.82953">
        <ele>241</ele>
        <time>2018-07-08T09:02:22Z</time>
      </trkpt>
      <trkpt lat="45.96074" lon="4.82959">
        <ele>241</ele>
        <time>2018-07-08T09:02:23Z</time>
      </trkpt>
      <trkpt lat="45.96072" lon="4.82965">
        <ele>241</ele>
        <time>2018-07-08T09:02:24Z</time>
      </trkpt>
      <trkpt lat="45.9607" lon="4.82971">
        <ele>241</ele>
        <time>2018-07-08T09:02:25Z</time>
      </trkpt>
      <trkpt lat="45.96067" lon="4.82978">
        <ele>241</ele>
        <time>2018-07-08T09:02:26Z</time>
      </trkpt>
      <trkpt lat="45.96066" lon="4.82991">
        <ele>241</ele>
        <time>2018-07-08T09:02:28Z</time>
      </trkpt>
      <trkpt lat="45.96066" lon="4.82996">
        <ele>241</ele>
        <time>2018-07-08T09:02:29Z</time>
      </trkpt>
      <trkpt lat="45.96068" lon="4.83005">
        <ele>241</ele>
        <time>2018-07-08T09:02:30Z</time>
      </trkpt>
      <trkpt lat="45.96066" lon="4.83012">
        <ele>242</ele>
        <time>2018-07-08T09:02:31Z</time>
      </trkpt>
      <trkpt lat="45.96066" lon="4.83024">
        <ele>242</ele>
        <time>2018-07-08T09:02:33Z</time>
      </trkpt>
      <trkpt lat="45.96068" lon="4.8303">
        <ele>243</ele>
        <time>2018-07-08T09:02:34Z</time>
      </trkpt>
      <trkpt lat="45.96072" lon="4.83037">
        <ele>243</ele>
        <time>2018-07-08T09:02:35Z</time>
      </trkpt>
      <trkpt lat="45.96074" lon="4.83044">
        <ele>243</ele>
        <time>2018-07-08T09:02:36Z</time>
      </trkpt>
      <trkpt lat="45.96076" lon="4.83056">
        <ele>242</ele>
        <time>2018-07-08T09:02:38Z</time>
      </trkpt>
      <trkpt lat="45.96077" lon="4.83062">
        <ele>242</ele>
        <time>2018-07-08T09:02:39Z</time>
      </trkpt>
      <trkpt lat="45.96078" lon="4.83068">
        <ele>242</ele>
        <time>2018-07-08T09:02:40Z</time>
      </trkpt>
      <trkpt lat="45.9608" lon="4.83074">
        <ele>241</ele>
        <time>2018-07-08T09:02:41Z</time>
      </trkpt>
      <trkpt lat="45.96079" lon="4.83082">
        <ele>241</ele>
        <time>2018-07-08T09:02:42Z</time>
      </trkpt>
      <trkpt lat="45.96082" lon="4.83089">
        <ele>241</ele>
        <time>2018-07-08T09:02:43Z</time>
      </trkpt>
      <trkpt lat="45.96084" lon="4.83096">
        <ele>240</ele>
        <time>2018-07-08T09:02:44Z</time>
      </trkpt>
      <trkpt lat="45.96084" lon="4.83104">
        <ele>240</ele>
        <time>2018-07-08T09:02:45Z</time>
      </trkpt>
      <trkpt lat="45.96084" lon="4.83111">
        <ele>240</ele>
        <time>2018-07-08T09:02:46Z</time>
      </trkpt>
      <trkpt lat="45.96086" lon="4.83117">
        <ele>240</ele>
        <time>2018-07-08T09:02:47Z</time>
      </trkpt>
      <trkpt lat="45.96086" lon="4.83124">
        <ele>240</ele>
        <time>2018-07-08T09:02:48Z</time>
      </trkpt>
      <trkpt lat="45.96086" lon="4.8313">
        <ele>240</ele>
        <time>2018-07-08T09:02:49Z</time>
      </trkpt>
      <trkpt lat="45.96087" lon="4.83138">
        <ele>240</ele>
        <time>2018-07-08T09:02:50Z</time>
      </trkpt>
      <trkpt lat="45.96087" lon="4.83146">
        <ele>240</ele>
        <time>2018-07-08T09:02:51Z</time>
      </trkpt>
      <trkpt lat="45.96088" lon="4.83153">
        <ele>240</ele>
        <time>2018-07-08T09:02:52Z</time>
      </trkpt>
      <trkpt lat="45.96088" lon="4.83162">
        <ele>240</ele>
        <time>2018-07-08T09:02:53Z</time>
      </trkpt>
      <trkpt lat="45.96089" lon="4.83168">
        <ele>240</ele>
        <time>2018-07-08T09:02:54Z</time>
      </trkpt>
      <trkpt lat="45.96089" lon="4.83175">
        <ele>240</ele>
        <time>2018-07-08T09:02:55Z</time>
      </trkpt>
      <trkpt lat="45.96091" lon="4.83187">
        <ele>240</ele>
        <time>2018-07-08T09:02:57Z</time>
      </trkpt>
      <trkpt lat="45.96091" lon="4.83193">
        <ele>240</ele>
        <time>2018-07-08T09:02:58Z</time>
      </trkpt>
      <trkpt lat="45.9609" lon="4.83201">
        <ele>240</ele>
        <time>2018-07-08T09:02:59Z</time>
      </trkpt>
      <trkpt lat="45.9609" lon="4.83209">
        <ele>240</ele>
        <time>2018-07-08T09:03:00Z</time>
      </trkpt>
      <trkpt lat="45.9609" lon="4.83217">
        <ele>240</ele>
        <time>2018-07-08T09:03:01Z</time>
      </trkpt>
      <trkpt lat="45.96091" lon="4.83224">
        <ele>240</ele>
        <time>2018-07-08T09:03:02Z</time>
      </trkpt>
      <trkpt lat="45.96091" lon="4.83236">
        <ele>240</ele>
        <time>2018-07-08T09:03:04Z</time>
      </trkpt>
      <trkpt lat="45.96091" lon="4.83242">
        <ele>240</ele>
        <time>2018-07-08T09:03:05Z</time>
      </trkpt>
      <trkpt lat="45.9609" lon="4.83253">
        <ele>240</ele>
        <time>2018-07-08T09:03:07Z</time>
      </trkpt>
      <trkpt lat="45.9609" lon="4.8326">
        <ele>241</ele>
        <time>2018-07-08T09:03:08Z</time>
      </trkpt>
      <trkpt lat="45.96091" lon="4.83266">
        <ele>241</ele>
        <time>2018-07-08T09:03:09Z</time>
      </trkpt>
      <trkpt lat="45.9609" lon="4.83273">
        <ele>241</ele>
        <time>2018-07-08T09:03:10Z</time>
      </trkpt>
      <trkpt lat="45.9609" lon="4.83285">
        <ele>241</ele>
        <time>2018-07-08T09:03:12Z</time>
      </trkpt>
      <trkpt lat="45.96092" lon="4.83291">
        <ele>241</ele>
        <time>2018-07-08T09:03:13Z</time>
      </trkpt>
      <trkpt lat="45.96092" lon="4.83297">
        <ele>241</ele>
        <time>2018-07-08T09:03:14Z</time>
      </trkpt>
      <trkpt lat="45.96093" lon="4.83304">
        <ele>241</ele>
        <time>2018-07-08T09:03:15Z</time>
      </trkpt>
      <trkpt lat="45.96093" lon="4.83311">
        <ele>241</ele>
        <time>2018-07-08T09:03:16Z</time>
      </trkpt>
      <trkpt lat="45.96094" lon="4.83318">
        <ele>241</ele>
        <time>2018-07-08T09:03:17Z</time>
      </trkpt>
      <trkpt lat="45.96096" lon="4.8333">
        <ele>241</ele>
        <time>2018-07-08T09:03:19Z</time>
      </trkpt>
      <trkpt lat="45.96098" lon="4.83335">
        <ele>242</ele>
        <time>2018-07-08T09:03:20Z</time>
      </trkpt>
      <trkpt lat="45.96101" lon="4.83347">
        <ele>242</ele>
        <time>2018-07-08T09:03:22Z</time>
      </trkpt>
      <trkpt lat="45.96102" lon="4.83353">
        <ele>242</ele>
        <time>2018-07-08T09:03:23Z</time>
      </trkpt>
      <trkpt lat="45.96104" lon="4.83359">
        <ele>242</ele>
        <time>2018-07-08T09:03:24Z</time>
      </trkpt>
      <trkpt lat="45.96106" lon="4.83367">
        <ele>242</ele>
        <time>2018-07-08T09:03:25Z</time>
      </trkpt>
      <trkpt lat="45.96111" lon="4.83377">
        <ele>242</ele>
        <time>2018-07-08T09:03:27Z</time>
      </trkpt>
      <trkpt lat="45.96113" lon="4.83383">
        <ele>242</ele>
        <time>2018-07-08T09:03:28Z</time>
      </trkpt>
      <trkpt lat="45.96114" lon="4.83395">
        <ele>243</ele>
        <time>2018-07-08T09:03:30Z</time>
      </trkpt>
      <trkpt lat="45.96115" lon="4.83401">
        <ele>243</ele>
        <time>2018-07-08T09:03:31Z</time>
      </trkpt>
      <trkpt lat="45.96116" lon="4.83413">
        <ele>243</ele>
        <time>2018-07-08T09:03:33Z</time>
      </trkpt>
      <trkpt lat="45.96118" lon="4.83419">
        <ele>243</ele>
        <time>2018-07-08T09:03:34Z</time>
      </trkpt>
      <trkpt lat="45.9612" lon="4.83427">
        <ele>243</ele>
        <time>2018-07-08T09:03:36Z</time>
      </trkpt>
      <trkpt lat="45.96121" lon="4.83434">
        <ele>242</ele>
        <time>2018-07-08T09:03:37Z</time>
      </trkpt>
      <trkpt lat="45.96123" lon="4.83445">
        <ele>242</ele>
        <time>2018-07-08T09:03:39Z</time>
      </trkpt>
      <trkpt lat="45.96124" lon="4.83451">
        <ele>242</ele>
        <time>2018-07-08T09:03:40Z</time>
      </trkpt>
      <trkpt lat="45.96127" lon="4.83461">
        <ele>242</ele>
        <time>2018-07-08T09:03:42Z</time>
      </trkpt>
      <trkpt lat="45.96129" lon="4.83467">
        <ele>242</ele>
        <time>2018-07-08T09:03:43Z</time>
      </trkpt>
      <trkpt lat="45.96132" lon="4.83477">
        <ele>242</ele>
        <time>2018-07-08T09:03:45Z</time>
      </trkpt>
      <trkpt lat="45.96133" lon="4.83482">
        <ele>242</ele>
        <time>2018-07-08T09:03:46Z</time>
      </trkpt>
      <trkpt lat="45.96135" lon="4.83493">
        <ele>242</ele>
        <time>2018-07-08T09:03:48Z</time>
      </trkpt>
      <trkpt lat="45.96135" lon="4.83498">
        <ele>242</ele>
        <time>2018-07-08T09:03:49Z</time>
      </trkpt>
      <trkpt lat="45.96136" lon="4.83506">
        <ele>241</ele>
        <time>2018-07-08T09:03:51Z</time>
      </trkpt>
      <trkpt lat="45.96137" lon="4.83513">
        <ele>242</ele>
        <time>2018-07-08T09:03:52Z</time>
      </trkpt>
      <trkpt lat="45.9614" lon="4.83524">
        <ele>242</ele>
        <time>2018-07-08T09:03:56Z</time>
      </trkpt>
      <trkpt lat="45.96143" lon="4.83536">
        <ele>242</ele>
        <time>2018-07-08T09:03:57Z</time>
      </trkpt>
      <trkpt lat="45.96145" lon="4.83546">
        <ele>242</ele>
        <time>2018-07-08T09:03:59Z</time>
      </trkpt>
      <trkpt lat="45.96146" lon="4.83552">
        <ele>242</ele>
        <time>2018-07-08T09:04:00Z</time>
      </trkpt>
      <trkpt lat="45.96148" lon="4.83564">
        <ele>241</ele>
        <time>2018-07-08T09:04:02Z</time>
      </trkpt>
      <trkpt lat="45.96148" lon="4.83567">
        <ele>241</ele>
        <time>2018-07-08T09:04:03Z</time>
      </trkpt>
      <trkpt lat="45.96149" lon="4.83574">
        <ele>241</ele>
        <time>2018-07-08T09:04:04Z</time>
      </trkpt>
      <trkpt lat="45.96149" lon="4.8358">
        <ele>241</ele>
        <time>2018-07-08T09:04:05Z</time>
      </trkpt>
      <trkpt lat="45.9615" lon="4.83592">
        <ele>242</ele>
        <time>2018-07-08T09:04:07Z</time>
      </trkpt>
      <trkpt lat="45.96152" lon="4.83598">
        <ele>242</ele>
        <time>2018-07-08T09:04:08Z</time>
      </trkpt>
      <trkpt lat="45.96154" lon="4.83604">
        <ele>242</ele>
        <time>2018-07-08T09:04:09Z</time>
      </trkpt>
      <trkpt lat="45.96155" lon="4.8361">
        <ele>242</ele>
        <time>2018-07-08T09:04:10Z</time>
      </trkpt>
      <trkpt lat="45.96157" lon="4.83616">
        <ele>242</ele>
        <time>2018-07-08T09:04:11Z</time>
      </trkpt>
      <trkpt lat="45.96158" lon="4.83623">
        <ele>242</ele>
        <time>2018-07-08T09:04:12Z</time>
      </trkpt>
      <trkpt lat="45.96163" lon="4.83635">
        <ele>243</ele>
        <time>2018-07-08T09:04:14Z</time>
      </trkpt>
      <trkpt lat="45.96164" lon="4.8364">
        <ele>243</ele>
        <time>2018-07-08T09:04:15Z</time>
      </trkpt>
      <trkpt lat="45.96166" lon="4.83645">
        <ele>243</ele>
        <time>2018-07-08T09:04:16Z</time>
      </trkpt>
      <trkpt lat="45.9617" lon="4.83651">
        <ele>242</ele>
        <time>2018-07-08T09:04:17Z</time>
      </trkpt>
      <trkpt lat="45.96175" lon="4.8366">
        <ele>242</ele>
        <time>2018-07-08T09:04:19Z</time>
      </trkpt>
      <trkpt lat="45.96179" lon="4.83664">
        <ele>242</ele>
        <time>2018-07-08T09:04:20Z</time>
      </trkpt>
      <trkpt lat="45.96183" lon="4.83668">
        <ele>243</ele>
        <time>2018-07-08T09:04:21Z</time>
      </trkpt>
      <trkpt lat="45.96186" lon="4.83672">
        <ele>243</ele>
        <time>2018-07-08T09:04:22Z</time>
      </trkpt>
      <trkpt lat="45.96192" lon="4.83681">
        <ele>243</ele>
        <time>2018-07-08T09:04:24Z</time>
      </trkpt>
      <trkpt lat="45.96195" lon="4.83685">
        <ele>243</ele>
        <time>2018-07-08T09:04:25Z</time>
      </trkpt>
      <trkpt lat="45.96199" lon="4.83689">
        <ele>243</ele>
        <time>2018-07-08T09:04:26Z</time>
      </trkpt>
      <trkpt lat="45.96202" lon="4.83693">
        <ele>243</ele>
        <time>2018-07-08T09:04:27Z</time>
      </trkpt>
      <trkpt lat="45.96208" lon="4.83702">
        <ele>243</ele>
        <time>2018-07-08T09:04:29Z</time>
      </trkpt>
      <trkpt lat="45.96212" lon="4.83706">
        <ele>244</ele>
        <time>2018-07-08T09:04:30Z</time>
      </trkpt>
      <trkpt lat="45.96215" lon="4.83712">
        <ele>244</ele>
        <time>2018-07-08T09:04:31Z</time>
      </trkpt>
      <trkpt lat="45.96219" lon="4.83714">
        <ele>244</ele>
        <time>2018-07-08T09:04:32Z</time>
      </trkpt>
      <trkpt lat="45.96225" lon="4.83722">
        <ele>244</ele>
        <time>2018-07-08T09:04:34Z</time>
      </trkpt>
      <trkpt lat="45.96229" lon="4.83726">
        <ele>244</ele>
        <time>2018-07-08T09:04:35Z</time>
      </trkpt>
      <trkpt lat="45.96232" lon="4.8373">
        <ele>244</ele>
        <time>2018-07-08T09:04:36Z</time>
      </trkpt>
      <trkpt lat="45.96237" lon="4.83733">
        <ele>244</ele>
        <time>2018-07-08T09:04:37Z</time>
      </trkpt>
      <trkpt lat="45.9624" lon="4.83737">
        <ele>244</ele>
        <time>2018-07-08T09:04:38Z</time>
      </trkpt>
      <trkpt lat="45.96244" lon="4.83741">
        <ele>244</ele>
        <time>2018-07-08T09:04:39Z</time>
      </trkpt>
      <trkpt lat="45.96251" lon="4.83749">
        <ele>244</ele>
        <time>2018-07-08T09:04:41Z</time>
      </trkpt>
      <trkpt lat="45.96255" lon="4.83753">
        <ele>244</ele>
        <time>2018-07-08T09:04:42Z</time>
      </trkpt>
      <trkpt lat="45.96259" lon="4.83757">
        <ele>244</ele>
        <time>2018-07-08T09:04:43Z</time>
      </trkpt>
      <trkpt lat="45.96263" lon="4.83761">
        <ele>245</ele>
        <time>2018-07-08T09:04:44Z</time>
      </trkpt>
      <trkpt lat="45.96266" lon="4.83766">
        <ele>245</ele>
        <time>2018-07-08T09:04:45Z</time>
      </trkpt>
      <trkpt lat="45.96271" lon="4.83769">
        <ele>245</ele>
        <time>2018-07-08T09:04:46Z</time>
      </trkpt>
      <trkpt lat="45.96277" lon="4.83777">
        <ele>245</ele>
        <time>2018-07-08T09:04:48Z</time>
      </trkpt>
      <trkpt lat="45.96281" lon="4.83781">
        <ele>245</ele>
        <time>2018-07-08T09:04:49Z</time>
      </trkpt>
      <trkpt lat="45.96285" lon="4.83785">
        <ele>245</ele>
        <time>2018-07-08T09:04:50Z</time>
      </trkpt>
      <trkpt lat="45.96289" lon="4.83789">
        <ele>245</ele>
        <time>2018-07-08T09:04:51Z</time>
      </trkpt>
      <trkpt lat="45.96294" lon="4.83791">
        <ele>245</ele>
        <time>2018-07-08T09:04:52Z</time>
      </trkpt>
      <trkpt lat="45.96297" lon="4.83796">
        <ele>245</ele>
        <time>2018-07-08T09:04:53Z</time>
      </trkpt>
      <trkpt lat="45.96301" lon="4.83799">
        <ele>245</ele>
        <time>2018-07-08T09:04:54Z</time>
      </trkpt>
      <trkpt lat="45.96305" lon="4.83803">
        <ele>245</ele>
        <time>2018-07-08T09:04:55Z</time>
      </trkpt>
      <trkpt lat="45.9631" lon="4.83806">
        <ele>245</ele>
        <time>2018-07-08T09:04:56Z</time>
      </trkpt>
      <trkpt lat="45.96314" lon="4.8381">
        <ele>245</ele>
        <time>2018-07-08T09:04:57Z</time>
      </trkpt>
      <trkpt lat="45.96317" lon="4.83813">
        <ele>244</ele>
        <time>2018-07-08T09:04:58Z</time>
      </trkpt>
      <trkpt lat="45.96321" lon="4.83817">
        <ele>244</ele>
        <time>2018-07-08T09:04:59Z</time>
      </trkpt>
      <trkpt lat="45.96327" lon="4.83821">
        <ele>244</ele>
        <time>2018-07-08T09:05:00Z</time>
      </trkpt>
      <trkpt lat="45.96331" lon="4.83824">
        <ele>244</ele>
        <time>2018-07-08T09:05:01Z</time>
      </trkpt>
      <trkpt lat="45.96334" lon="4.83828">
        <ele>244</ele>
        <time>2018-07-08T09:05:02Z</time>
      </trkpt>
      <trkpt lat="45.96339" lon="4.83832">
        <ele>244</ele>
        <time>2018-07-08T09:05:03Z</time>
      </trkpt>
      <trkpt lat="45.96344" lon="4.83839">
        <ele>245</ele>
        <time>2018-07-08T09:05:05Z</time>
      </trkpt>
      <trkpt lat="45.96347" lon="4.83844">
        <ele>245</ele>
        <time>2018-07-08T09:05:06Z</time>
      </trkpt>
      <trkpt lat="45.96351" lon="4.83849">
        <ele>246</ele>
        <time>2018-07-08T09:05:07Z</time>
      </trkpt>
      <trkpt lat="45.96354" lon="4.83854">
        <ele>246</ele>
        <time>2018-07-08T09:05:08Z</time>
      </trkpt>
      <trkpt lat="45.96357" lon="4.83859">
        <ele>247</ele>
        <time>2018-07-08T09:05:09Z</time>
      </trkpt>
      <trkpt lat="45.96361" lon="4.83864">
        <ele>247</ele>
        <time>2018-07-08T09:05:10Z</time>
      </trkpt>
      <trkpt lat="45.96366" lon="4.83873">
        <ele>247</ele>
        <time>2018-07-08T09:05:12Z</time>
      </trkpt>
      <trkpt lat="45.96369" lon="4.83879">
        <ele>247</ele>
        <time>2018-07-08T09:05:13Z</time>
      </trkpt>
      <trkpt lat="45.96375" lon="4.83888">
        <ele>248</ele>
        <time>2018-07-08T09:05:15Z</time>
      </trkpt>
      <trkpt lat="45.96378" lon="4.83892">
        <ele>248</ele>
        <time>2018-07-08T09:05:16Z</time>
      </trkpt>
      <trkpt lat="45.96382" lon="4.83902">
        <ele>248</ele>
        <time>2018-07-08T09:05:18Z</time>
      </trkpt>
      <trkpt lat="45.96384" lon="4.83907">
        <ele>248</ele>
        <time>2018-07-08T09:05:19Z</time>
      </trkpt>
      <trkpt lat="45.96388" lon="4.83917">
        <ele>251</ele>
        <time>2018-07-08T09:05:21Z</time>
      </trkpt>
      <trkpt lat="45.9639" lon="4.83922">
        <ele>251</ele>
        <time>2018-07-08T09:05:22Z</time>
      </trkpt>
      <trkpt lat="45.96395" lon="4.8393">
        <ele>251</ele>
        <time>2018-07-08T09:05:24Z</time>
      </trkpt>
      <trkpt lat="45.96397" lon="4.83934">
        <ele>251</ele>
        <time>2018-07-08T09:05:25Z</time>
      </trkpt>
      <trkpt lat="45.96402" lon="4.83942">
        <ele>251</ele>
        <time>2018-07-08T09:05:27Z</time>
      </trkpt>
      <trkpt lat="45.96404" lon="4.83946">
        <ele>251</ele>
        <time>2018-07-08T09:05:28Z</time>
      </trkpt>
      <trkpt lat="45.96409" lon="4.83954">
        <ele>252</ele>
        <time>2018-07-08T09:05:30Z</time>
      </trkpt>
      <trkpt lat="45.96412" lon="4.83958">
        <ele>252</ele>
        <time>2018-07-08T09:05:31Z</time>
      </trkpt>
      <trkpt lat="45.96417" lon="4.83968">
        <ele>252</ele>
        <time>2018-07-08T09:05:35Z</time>
      </trkpt>
      <trkpt lat="45.96418" lon="4.83971">
        <ele>250</ele>
        <time>2018-07-08T09:05:36Z</time>
      </trkpt>
      <trkpt lat="45.96422" lon="4.83981">
        <ele>251</ele>
        <time>2018-07-08T09:05:39Z</time>
      </trkpt>
      <trkpt lat="45.96423" lon="4.83984">
        <ele>251</ele>
        <time>2018-07-08T09:05:40Z</time>
      </trkpt>
      <trkpt lat="45.96425" lon="4.83994">
        <ele>252</ele>
        <time>2018-07-08T09:05:43Z</time>
      </trkpt>
      <trkpt lat="45.96426" lon="4.83998">
        <ele>252</ele>
        <time>2018-07-08T09:05:44Z</time>
      </trkpt>
      <trkpt lat="45.9643" lon="4.84008">
        <ele>252</ele>
        <time>2018-07-08T09:05:47Z</time>
      </trkpt>
      <trkpt lat="45.96431" lon="4.84012">
        <ele>252</ele>
        <time>2018-07-08T09:05:48Z</time>
      </trkpt>
      <trkpt lat="45.96433" lon="4.84022">
        <ele>251</ele>
        <time>2018-07-08T09:05:51Z</time>
      </trkpt>
      <trkpt lat="45.96434" lon="4.84026">
        <ele>251</ele>
        <time>2018-07-08T09:05:52Z</time>
      </trkpt>
      <trkpt lat="45.96436" lon="4.84034">
        <ele>251</ele>
        <time>2018-07-08T09:05:54Z</time>
      </trkpt>
      <trkpt lat="45.9644" lon="4.84045">
        <ele>251</ele>
        <time>2018-07-08T09:05:55Z</time>
      </trkpt>
      <trkpt lat="45.96443" lon="4.84054">
        <ele>251</ele>
        <time>2018-07-08T09:05:58Z</time>
      </trkpt>
      <trkpt lat="45.96445" lon="4.84057">
        <ele>251</ele>
        <time>2018-07-08T09:05:59Z</time>
      </trkpt>
      <trkpt lat="45.96449" lon="4.84067">
        <ele>251</ele>
        <time>2018-07-08T09:06:02Z</time>
      </trkpt>
      <trkpt lat="45.9645" lon="4.8407">
        <ele>251</ele>
        <time>2018-07-08T09:06:03Z</time>
      </trkpt>
      <trkpt lat="45.96453" lon="4.84078">
        <ele>251</ele>
        <time>2018-07-08T09:06:05Z</time>
      </trkpt>
      <trkpt lat="45.96454" lon="4.84082">
        <ele>251</ele>
        <time>2018-07-08T09:06:06Z</time>
      </trkpt>
      <trkpt lat="45.96458" lon="4.8409">
        <ele>252</ele>
        <time>2018-07-08T09:06:08Z</time>
      </trkpt>
      <trkpt lat="45.96459" lon="4.84095">
        <ele>252</ele>
        <time>2018-07-08T09:06:09Z</time>
      </trkpt>
      <trkpt lat="45.96463" lon="4.84104">
        <ele>251</ele>
        <time>2018-07-08T09:06:11Z</time>
      </trkpt>
      <trkpt lat="45.96464" lon="4.84107">
        <ele>251</ele>
        <time>2018-07-08T09:06:12Z</time>
      </trkpt>
      <trkpt lat="45.96468" lon="4.84116">
        <ele>251</ele>
        <time>2018-07-08T09:06:14Z</time>
      </trkpt>
      <trkpt lat="45.96469" lon="4.84121">
        <ele>251</ele>
        <time>2018-07-08T09:06:15Z</time>
      </trkpt>
      <trkpt lat="45.96472" lon="4.8413">
        <ele>251</ele>
        <time>2018-07-08T09:06:17Z</time>
      </trkpt>
      <trkpt lat="45.96473" lon="4.84135">
        <ele>251</ele>
        <time>2018-07-08T09:06:18Z</time>
      </trkpt>
      <trkpt lat="45.96477" lon="4.8415">
        <ele>251</ele>
        <time>2018-07-08T09:06:19Z</time>
      </trkpt>
      <trkpt lat="45.96479" lon="4.8416">
        <ele>251</ele>
        <time>2018-07-08T09:06:21Z</time>
      </trkpt>
      <trkpt lat="45.9648" lon="4.84165">
        <ele>251</ele>
        <time>2018-07-08T09:06:22Z</time>
      </trkpt>
      <trkpt lat="45.96483" lon="4.84175">
        <ele>251</ele>
        <time>2018-07-08T09:06:24Z</time>
      </trkpt>
      <trkpt lat="45.96484" lon="4.84181">
        <ele>251</ele>
        <time>2018-07-08T09:06:25Z</time>
      </trkpt>
      <trkpt lat="45.96487" lon="4.84192">
        <ele>251</ele>
        <time>2018-07-08T09:06:27Z</time>
      </trkpt>
      <trkpt lat="45.96488" lon="4.84198">
        <ele>251</ele>
        <time>2018-07-08T09:06:28Z</time>
      </trkpt>
      <trkpt lat="45.96491" lon="4.8421">
        <ele>252</ele>
        <time>2018-07-08T09:06:30Z</time>
      </trkpt>
      <trkpt lat="45.96492" lon="4.84216">
        <ele>252</ele>
        <time>2018-07-08T09:06:31Z</time>
      </trkpt>
      <trkpt lat="45.96494" lon="4.84222">
        <ele>252</ele>
        <time>2018-07-08T09:06:32Z</time>
      </trkpt>
      <trkpt lat="45.96495" lon="4.8423">
        <ele>252</ele>
        <time>2018-07-08T09:06:33Z</time>
      </trkpt>
      <trkpt lat="45.96496" lon="4.84237">
        <ele>251</ele>
        <time>2018-07-08T09:06:34Z</time>
      </trkpt>
      <trkpt lat="45.96497" lon="4.84246">
        <ele>251</ele>
        <time>2018-07-08T09:06:35Z</time>
      </trkpt>
      <trkpt lat="45.96498" lon="4.84252">
        <ele>251</ele>
        <time>2018-07-08T09:06:36Z</time>
      </trkpt>
      <trkpt lat="45.96499" lon="4.8426">
        <ele>251</ele>
        <time>2018-07-08T09:06:37Z</time>
      </trkpt>
      <trkpt lat="45.96501" lon="4.84266">
        <ele>251</ele>
        <time>2018-07-08T09:06:38Z</time>
      </trkpt>
      <trkpt lat="45.96502" lon="4.84272">
        <ele>250</ele>
        <time>2018-07-08T09:06:39Z</time>
      </trkpt>
      <trkpt lat="45.96505" lon="4.84285">
        <ele>250</ele>
        <time>2018-07-08T09:06:41Z</time>
      </trkpt>
      <trkpt lat="45.96507" lon="4.84292">
        <ele>250</ele>
        <time>2018-07-08T09:06:42Z</time>
      </trkpt>
      <trkpt lat="45.96507" lon="4.84297">
        <ele>250</ele>
        <time>2018-07-08T09:06:43Z</time>
      </trkpt>
      <trkpt lat="45.9651" lon="4.84304">
        <ele>250</ele>
        <time>2018-07-08T09:06:44Z</time>
      </trkpt>
      <trkpt lat="45.96512" lon="4.84311">
        <ele>250</ele>
        <time>2018-07-08T09:06:45Z</time>
      </trkpt>
      <trkpt lat="45.96515" lon="4.84318">
        <ele>250</ele>
        <time>2018-07-08T09:06:46Z</time>
      </trkpt>
      <trkpt lat="45.96517" lon="4.84325">
        <ele>250</ele>
        <time>2018-07-08T09:06:47Z</time>
      </trkpt>
      <trkpt lat="45.96518" lon="4.84333">
        <ele>251</ele>
        <time>2018-07-08T09:06:48Z</time>
      </trkpt>
      <trkpt lat="45.9652" lon="4.84341">
        <ele>251</ele>
        <time>2018-07-08T09:06:49Z</time>
      </trkpt>
      <trkpt lat="45.96522" lon="4.84348">
        <ele>251</ele>
        <time>2018-07-08T09:06:50Z</time>
      </trkpt>
      <trkpt lat="45.96524" lon="4.84355">
        <ele>251</ele>
        <time>2018-07-08T09:06:51Z</time>
      </trkpt>
      <trkpt lat="45.96525" lon="4.84363">
        <ele>251</ele>
        <time>2018-07-08T09:06:52Z</time>
      </trkpt>
      <trkpt lat="45.96528" lon="4.84371">
        <ele>251</ele>
        <time>2018-07-08T09:06:53Z</time>
      </trkpt>
      <trkpt lat="45.96529" lon="4.84379">
        <ele>251</ele>
        <time>2018-07-08T09:06:54Z</time>
      </trkpt>
      <trkpt lat="45.96528" lon="4.84387">
        <ele>251</ele>
        <time>2018-07-08T09:06:55Z</time>
      </trkpt>
      <trkpt lat="45.96528" lon="4.84396">
        <ele>252</ele>
        <time>2018-07-08T09:06:56Z</time>
      </trkpt>
      <trkpt lat="45.96527" lon="4.84404">
        <ele>252</ele>
        <time>2018-07-08T09:06:57Z</time>
      </trkpt>
      <trkpt lat="45.96528" lon="4.84411">
        <ele>252</ele>
        <time>2018-07-08T09:06:58Z</time>
      </trkpt>
      <trkpt lat="45.96527" lon="4.84419">
        <ele>252</ele>
        <time>2018-07-08T09:06:59Z</time>
      </trkpt>
      <trkpt lat="45.96527" lon="4.84427">
        <ele>253</ele>
        <time>2018-07-08T09:07:00Z</time>
      </trkpt>
      <trkpt lat="45.96526" lon="4.84433">
        <ele>253</ele>
        <time>2018-07-08T09:07:01Z</time>
      </trkpt>
      <trkpt lat="45.96526" lon="4.84441">
        <ele>253</ele>
        <time>2018-07-08T09:07:02Z</time>
      </trkpt>
      <trkpt lat="45.96525" lon="4.84448">
        <ele>253</ele>
        <time>2018-07-08T09:07:03Z</time>
      </trkpt>
      <trkpt lat="45.96524" lon="4.84455">
        <ele>253</ele>
        <time>2018-07-08T09:07:04Z</time>
      </trkpt>
      <trkpt lat="45.96525" lon="4.84463">
        <ele>253</ele>
        <time>2018-07-08T09:07:05Z</time>
      </trkpt>
      <trkpt lat="45.96524" lon="4.84471">
        <ele>253</ele>
        <time>2018-07-08T09:07:06Z</time>
      </trkpt>
      <trkpt lat="45.96524" lon="4.8448">
        <ele>253</ele>
        <time>2018-07-08T09:07:07Z</time>
      </trkpt>
      <trkpt lat="45.96524" lon="4.84486">
        <ele>253</ele>
        <time>2018-07-08T09:07:08Z</time>
      </trkpt>
      <trkpt lat="45.96525" lon="4.84493">
        <ele>253</ele>
        <time>2018-07-08T09:07:09Z</time>
      </trkpt>
      <trkpt lat="45.96525" lon="4.84499">
        <ele>253</ele>
        <time>2018-07-08T09:07:10Z</time>
      </trkpt>
      <trkpt lat="45.96524" lon="4.84506">
        <ele>253</ele>
        <time>2018-07-08T09:07:11Z</time>
      </trkpt>
      <trkpt lat="45.96523" lon="4.84512">
        <ele>253</ele>
        <time>2018-07-08T09:07:12Z</time>
      </trkpt>
      <trkpt lat="45.96523" lon="4.84518">
        <ele>253</ele>
        <time>2018-07-08T09:07:13Z</time>
      </trkpt>
      <trkpt lat="45.96522" lon="4.84526">
        <ele>253</ele>
        <time>2018-07-08T09:07:14Z</time>
      </trkpt>
      <trkpt lat="45.96522" lon="4.84534">
        <ele>253</ele>
        <time>2018-07-08T09:07:15Z</time>
      </trkpt>
      <trkpt lat="45.96522" lon="4.84541">
        <ele>253</ele>
        <time>2018-07-08T09:07:16Z</time>
      </trkpt>
      <trkpt lat="45.96523" lon="4.84553">
        <ele>253</ele>
        <time>2018-07-08T09:07:18Z</time>
      </trkpt>
      <trkpt lat="45.96523" lon="4.84559">
        <ele>253</ele>
        <time>2018-07-08T09:07:19Z</time>
      </trkpt>
      <trkpt lat="45.96522" lon="4.84566">
        <ele>253</ele>
        <time>2018-07-08T09:07:20Z</time>
      </trkpt>
      <trkpt lat="45.96522" lon="4.84573">
        <ele>253</ele>
        <time>2018-07-08T09:07:21Z</time>
      </trkpt>
      <trkpt lat="45.96523" lon="4.84578">
        <ele>253</ele>
        <time>2018-07-08T09:07:22Z</time>
      </trkpt>
      <trkpt lat="45.96523" lon="4.84586">
        <ele>252</ele>
        <time>2018-07-08T09:07:23Z</time>
      </trkpt>
      <trkpt lat="45.96523" lon="4.84593">
        <ele>252</ele>
        <time>2018-07-08T09:07:24Z</time>
      </trkpt>
      <trkpt lat="45.96524" lon="4.84599">
        <ele>252</ele>
        <time>2018-07-08T09:07:25Z</time>
      </trkpt>
      <trkpt lat="45.96524" lon="4.84607">
        <ele>252</ele>
        <time>2018-07-08T09:07:26Z</time>
      </trkpt>
      <trkpt lat="45.96523" lon="4.84614">
        <ele>252</ele>
        <time>2018-07-08T09:07:27Z</time>
      </trkpt>
      <trkpt lat="45.96523" lon="4.84621">
        <ele>252</ele>
        <time>2018-07-08T09:07:28Z</time>
      </trkpt>
      <trkpt lat="45.96523" lon="4.84628">
        <ele>252</ele>
        <time>2018-07-08T09:07:29Z</time>
      </trkpt>
      <trkpt lat="45.96523" lon="4.84635">
        <ele>252</ele>
        <time>2018-07-08T09:07:30Z</time>
      </trkpt>
      <trkpt lat="45.96523" lon="4.84644">
        <ele>252</ele>
        <time>2018-07-08T09:07:31Z</time>
      </trkpt>
      <trkpt lat="45.96524" lon="4.8465">
        <ele>252</ele>
        <time>2018-07-08T09:07:32Z</time>
      </trkpt>
      <trkpt lat="45.96525" lon="4.84659">
        <ele>252</ele>
        <time>2018-07-08T09:07:33Z</time>
      </trkpt>
      <trkpt lat="45.96526" lon="4.84671">
        <ele>252</ele>
        <time>2018-07-08T09:07:35Z</time>
      </trkpt>
      <trkpt lat="45.96527" lon="4.84678">
        <ele>252</ele>
        <time>2018-07-08T09:07:36Z</time>
      </trkpt>
      <trkpt lat="45.96529" lon="4.84691">
        <ele>253</ele>
        <time>2018-07-08T09:07:38Z</time>
      </trkpt>
      <trkpt lat="45.9653" lon="4.84696">
        <ele>253</ele>
        <time>2018-07-08T09:07:39Z</time>
      </trkpt>
      <trkpt lat="45.96533" lon="4.84707">
        <ele>253</ele>
        <time>2018-07-08T09:07:41Z</time>
      </trkpt>
      <trkpt lat="45.96533" lon="4.84715">
        <ele>253</ele>
        <time>2018-07-08T09:07:42Z</time>
      </trkpt>
      <trkpt lat="45.96533" lon="4.84722">
        <ele>253</ele>
        <time>2018-07-08T09:07:43Z</time>
      </trkpt>
      <trkpt lat="45.96534" lon="4.84729">
        <ele>253</ele>
        <time>2018-07-08T09:07:44Z</time>
      </trkpt>
      <trkpt lat="45.96533" lon="4.84736">
        <ele>253</ele>
        <time>2018-07-08T09:07:45Z</time>
      </trkpt>
      <trkpt lat="45.96531" lon="4.84744">
        <ele>253</ele>
        <time>2018-07-08T09:07:46Z</time>
      </trkpt>
      <trkpt lat="45.96529" lon="4.8475">
        <ele>253</ele>
        <time>2018-07-08T09:07:47Z</time>
      </trkpt>
      <trkpt lat="45.96527" lon="4.84757">
        <ele>253</ele>
        <time>2018-07-08T09:07:48Z</time>
      </trkpt>
      <trkpt lat="45.96526" lon="4.84764">
        <ele>253</ele>
        <time>2018-07-08T09:07:49Z</time>
      </trkpt>
      <trkpt lat="45.96524" lon="4.8477">
        <ele>254</ele>
        <time>2018-07-08T09:07:50Z</time>
      </trkpt>
      <trkpt lat="45.96522" lon="4.84782">
        <ele>254</ele>
        <time>2018-07-08T09:07:52Z</time>
      </trkpt>
      <trkpt lat="45.96519" lon="4.84789">
        <ele>254</ele>
        <time>2018-07-08T09:07:53Z</time>
      </trkpt>
      <trkpt lat="45.96518" lon="4.84796">
        <ele>254</ele>
        <time>2018-07-08T09:07:54Z</time>
      </trkpt>
      <trkpt lat="45.96516" lon="4.84803">
        <ele>254</ele>
        <time>2018-07-08T09:07:55Z</time>
      </trkpt>
      <trkpt lat="45.96514" lon="4.84815">
        <ele>254</ele>
        <time>2018-07-08T09:07:57Z</time>
      </trkpt>
      <trkpt lat="45.96513" lon="4.84821">
        <ele>254</ele>
        <time>2018-07-08T09:07:58Z</time>
      </trkpt>
      <trkpt lat="45.96511" lon="4.84826">
        <ele>254</ele>
        <time>2018-07-08T09:08:00Z</time>
      </trkpt>
      <trkpt lat="45.96511" lon="4.84834">
        <ele>255</ele>
        <time>2018-07-08T09:08:01Z</time>
      </trkpt>
      <trkpt lat="45.96508" lon="4.84844">
        <ele>255</ele>
        <time>2018-07-08T09:08:03Z</time>
      </trkpt>
      <trkpt lat="45.96507" lon="4.84847">
        <ele>255</ele>
        <time>2018-07-08T09:08:04Z</time>
      </trkpt>
      <trkpt lat="45.96504" lon="4.84857">
        <ele>256</ele>
        <time>2018-07-08T09:08:07Z</time>
      </trkpt>
      <trkpt lat="45.96503" lon="4.84861">
        <ele>257</ele>
        <time>2018-07-08T09:08:08Z</time>
      </trkpt>
      <trkpt lat="45.96501" lon="4.84869">
        <ele>257</ele>
        <time>2018-07-08T09:08:10Z</time>
      </trkpt>
      <trkpt lat="45.965" lon="4.84873">
        <ele>255</ele>
        <time>2018-07-08T09:08:11Z</time>
      </trkpt>
      <trkpt lat="45.96497" lon="4.84882">
        <ele>255</ele>
        <time>2018-07-08T09:08:13Z</time>
      </trkpt>
      <trkpt lat="45.96496" lon="4.84886">
        <ele>255</ele>
        <time>2018-07-08T09:08:14Z</time>
      </trkpt>
      <trkpt lat="45.96494" lon="4.84896">
        <ele>256</ele>
        <time>2018-07-08T09:08:16Z</time>
      </trkpt>
      <trkpt lat="45.96492" lon="4.84901">
        <ele>256</ele>
        <time>2018-07-08T09:08:17Z</time>
      </trkpt>
      <trkpt lat="45.9649" lon="4.84911">
        <ele>256</ele>
        <time>2018-07-08T09:08:20Z</time>
      </trkpt>
      <trkpt lat="45.96489" lon="4.84914">
        <ele>256</ele>
        <time>2018-07-08T09:08:21Z</time>
      </trkpt>
      <trkpt lat="45.96488" lon="4.84924">
        <ele>259</ele>
        <time>2018-07-08T09:08:23Z</time>
      </trkpt>
      <trkpt lat="45.96487" lon="4.84928">
        <ele>259</ele>
        <time>2018-07-08T09:08:24Z</time>
      </trkpt>
      <trkpt lat="45.96485" lon="4.84937">
        <ele>260</ele>
        <time>2018-07-08T09:08:26Z</time>
      </trkpt>
      <trkpt lat="45.96484" lon="4.84941">
        <ele>260</ele>
        <time>2018-07-08T09:08:27Z</time>
      </trkpt>
      <trkpt lat="45.96482" lon="4.84954">
        <ele>261</ele>
        <time>2018-07-08T09:08:30Z</time>
      </trkpt>
      <trkpt lat="45.96481" lon="4.84958">
        <ele>261</ele>
        <time>2018-07-08T09:08:31Z</time>
      </trkpt>
      <trkpt lat="45.96479" lon="4.84968">
        <ele>262</ele>
        <time>2018-07-08T09:08:34Z</time>
      </trkpt>
      <trkpt lat="45.96479" lon="4.84972">
        <ele>262</ele>
        <time>2018-07-08T09:08:35Z</time>
      </trkpt>
      <trkpt lat="45.96477" lon="4.84981">
        <ele>262</ele>
        <time>2018-07-08T09:08:37Z</time>
      </trkpt>
      <trkpt lat="45.96476" lon="4.84984">
        <ele>262</ele>
        <time>2018-07-08T09:08:38Z</time>
      </trkpt>
      <trkpt lat="45.96473" lon="4.84993">
        <ele>263</ele>
        <time>2018-07-08T09:08:40Z</time>
      </trkpt>
      <trkpt lat="45.96472" lon="4.84997">
        <ele>263</ele>
        <time>2018-07-08T09:08:41Z</time>
      </trkpt>
      <trkpt lat="45.96471" lon="4.85008">
        <ele>266</ele>
        <time>2018-07-08T09:08:44Z</time>
      </trkpt>
      <trkpt lat="45.9647" lon="4.85012">
        <ele>266</ele>
        <time>2018-07-08T09:08:45Z</time>
      </trkpt>
      <trkpt lat="45.9647" lon="4.85022">
        <ele>266</ele>
        <time>2018-07-08T09:08:48Z</time>
      </trkpt>
      <trkpt lat="45.9647" lon="4.85026">
        <ele>266</ele>
        <time>2018-07-08T09:08:49Z</time>
      </trkpt>
      <trkpt lat="45.9647" lon="4.85037">
        <ele>266</ele>
        <time>2018-07-08T09:08:52Z</time>
      </trkpt>
      <trkpt lat="45.9647" lon="4.8504">
        <ele>266</ele>
        <time>2018-07-08T09:08:53Z</time>
      </trkpt>
      <trkpt lat="45.9647" lon="4.85051">
        <ele>266</ele>
        <time>2018-07-08T09:08:56Z</time>
      </trkpt>
      <trkpt lat="45.9647" lon="4.85055">
        <ele>266</ele>
        <time>2018-07-08T09:08:57Z</time>
      </trkpt>
      <trkpt lat="45.9647" lon="4.85065">
        <ele>266</ele>
        <time>2018-07-08T09:09:00Z</time>
      </trkpt>
      <trkpt lat="45.9647" lon="4.85068">
        <ele>266</ele>
        <time>2018-07-08T09:09:01Z</time>
      </trkpt>
      <trkpt lat="45.96468" lon="4.85078">
        <ele>267</ele>
        <time>2018-07-08T09:09:04Z</time>
      </trkpt>
      <trkpt lat="45.96468" lon="4.85082">
        <ele>267</ele>
        <time>2018-07-08T09:09:05Z</time>
      </trkpt>
      <trkpt lat="45.96467" lon="4.85094">
        <ele>268</ele>
        <time>2018-07-08T09:09:08Z</time>
      </trkpt>
      <trkpt lat="45.96467" lon="4.85098">
        <ele>268</ele>
        <time>2018-07-08T09:09:09Z</time>
      </trkpt>
      <trkpt lat="45.96465" lon="4.85109">
        <ele>268</ele>
        <time>2018-07-08T09:09:12Z</time>
      </trkpt>
      <trkpt lat="45.96465" lon="4.85112">
        <ele>268</ele>
        <time>2018-07-08T09:09:13Z</time>
      </trkpt>
      <trkpt lat="45.96464" lon="4.85119">
        <ele>268</ele>
        <time>2018-07-08T09:09:15Z</time>
      </trkpt>
      <trkpt lat="45.96461" lon="4.85131">
        <ele>268</ele>
        <time>2018-07-08T09:09:16Z</time>
      </trkpt>
      <trkpt lat="45.96457" lon="4.85142">
        <ele>268</ele>
        <time>2018-07-08T09:09:20Z</time>
      </trkpt>
      <trkpt lat="45.96456" lon="4.85145">
        <ele>268</ele>
        <time>2018-07-08T09:09:21Z</time>
      </trkpt>
      <trkpt lat="45.96454" lon="4.85157">
        <ele>268</ele>
        <time>2018-07-08T09:09:24Z</time>
      </trkpt>
      <trkpt lat="45.96454" lon="4.85161">
        <ele>268</ele>
        <time>2018-07-08T09:09:25Z</time>
      </trkpt>
      <trkpt lat="45.96453" lon="4.8517">
        <ele>269</ele>
        <time>2018-07-08T09:09:27Z</time>
      </trkpt>
      <trkpt lat="45.96453" lon="4.85174">
        <ele>269</ele>
        <time>2018-07-08T09:09:28Z</time>
      </trkpt>
      <trkpt lat="45.96452" lon="4.85184">
        <ele>269</ele>
        <time>2018-07-08T09:09:30Z</time>
      </trkpt>
      <trkpt lat="45.96451" lon="4.85188">
        <ele>269</ele>
        <time>2018-07-08T09:09:31Z</time>
      </trkpt>
      <trkpt lat="45.96451" lon="4.85193">
        <ele>269</ele>
        <time>2018-07-08T09:09:32Z</time>
      </trkpt>
      <trkpt lat="45.9645" lon="4.85207">
        <ele>269</ele>
        <time>2018-07-08T09:09:33Z</time>
      </trkpt>
      <trkpt lat="45.96451" lon="4.85218">
        <ele>269</ele>
        <time>2018-07-08T09:09:35Z</time>
      </trkpt>
      <trkpt lat="45.96451" lon="4.85224">
        <ele>269</ele>
        <time>2018-07-08T09:09:36Z</time>
      </trkpt>
      <trkpt lat="45.96451" lon="4.85235">
        <ele>269</ele>
        <time>2018-07-08T09:09:39Z</time>
      </trkpt>
      <trkpt lat="45.96452" lon="4.85244">
        <ele>269</ele>
        <time>2018-07-08T09:09:40Z</time>
      </trkpt>
      <trkpt lat="45.96451" lon="4.85254">
        <ele>270</ele>
        <time>2018-07-08T09:09:43Z</time>
      </trkpt>
      <trkpt lat="45.96451" lon="4.85265">
        <ele>270</ele>
        <time>2018-07-08T09:09:44Z</time>
      </trkpt>
      <trkpt lat="45.9645" lon="4.85276">
        <ele>270</ele>
        <time>2018-07-08T09:09:46Z</time>
      </trkpt>
      <trkpt lat="45.96451" lon="4.85278">
        <ele>270</ele>
        <time>2018-07-08T09:09:47Z</time>
      </trkpt>
      <trkpt lat="45.96451" lon="4.85282">
        <ele>270</ele>
        <time>2018-07-08T09:09:48Z</time>
      </trkpt>
      <trkpt lat="45.96452" lon="4.85291">
        <ele>270</ele>
        <time>2018-07-08T09:09:49Z</time>
      </trkpt>
      <trkpt lat="45.96454" lon="4.85303">
        <ele>271</ele>
        <time>2018-07-08T09:09:51Z</time>
      </trkpt>
      <trkpt lat="45.96454" lon="4.85309">
        <ele>271</ele>
        <time>2018-07-08T09:09:52Z</time>
      </trkpt>
      <trkpt lat="45.96455" lon="4.8532">
        <ele>271</ele>
        <time>2018-07-08T09:09:54Z</time>
      </trkpt>
      <trkpt lat="45.96456" lon="4.85322">
        <ele>271</ele>
        <time>2018-07-08T09:09:55Z</time>
      </trkpt>
      <trkpt lat="45.96457" lon="4.85335">
        <ele>272</ele>
        <time>2018-07-08T09:09:57Z</time>
      </trkpt>
      <trkpt lat="45.96457" lon="4.8534">
        <ele>272</ele>
        <time>2018-07-08T09:09:58Z</time>
      </trkpt>
      <trkpt lat="45.96458" lon="4.85351">
        <ele>272</ele>
        <time>2018-07-08T09:10:00Z</time>
      </trkpt>
      <trkpt lat="45.96459" lon="4.85356">
        <ele>272</ele>
        <time>2018-07-08T09:10:01Z</time>
      </trkpt>
      <trkpt lat="45.9646" lon="4.85367">
        <ele>272</ele>
        <time>2018-07-08T09:10:03Z</time>
      </trkpt>
      <trkpt lat="45.9646" lon="4.85372">
        <ele>272</ele>
        <time>2018-07-08T09:10:04Z</time>
      </trkpt>
      <trkpt lat="45.96461" lon="4.85383">
        <ele>272</ele>
        <time>2018-07-08T09:10:06Z</time>
      </trkpt>
      <trkpt lat="45.96461" lon="4.85388">
        <ele>272</ele>
        <time>2018-07-08T09:10:07Z</time>
      </trkpt>
      <trkpt lat="45.96462" lon="4.85399">
        <ele>272</ele>
        <time>2018-07-08T09:10:09Z</time>
      </trkpt>
      <trkpt lat="45.96463" lon="4.85404">
        <ele>272</ele>
        <time>2018-07-08T09:10:10Z</time>
      </trkpt>
      <trkpt lat="45.96463" lon="4.8541">
        <ele>272</ele>
        <time>2018-07-08T09:10:12Z</time>
      </trkpt>
      <trkpt lat="45.96464" lon="4.85419">
        <ele>272</ele>
        <time>2018-07-08T09:10:13Z</time>
      </trkpt>
      <trkpt lat="45.96465" lon="4.8543">
        <ele>272</ele>
        <time>2018-07-08T09:10:15Z</time>
      </trkpt>
      <trkpt lat="45.96465" lon="4.85436">
        <ele>272</ele>
        <time>2018-07-08T09:10:16Z</time>
      </trkpt>
      <trkpt lat="45.96465" lon="4.85442">
        <ele>272</ele>
        <time>2018-07-08T09:10:17Z</time>
      </trkpt>
      <trkpt lat="45.96465" lon="4.85449">
        <ele>272</ele>
        <time>2018-07-08T09:10:18Z</time>
      </trkpt>
      <trkpt lat="45.96465" lon="4.85455">
        <ele>272</ele>
        <time>2018-07-08T09:10:19Z</time>
      </trkpt>
      <trkpt lat="45.96465" lon="4.85464">
        <ele>272</ele>
        <time>2018-07-08T09:10:20Z</time>
      </trkpt>
      <trkpt lat="45.96465" lon="4.85477">
        <ele>272</ele>
        <time>2018-07-08T09:10:22Z</time>
      </trkpt>
      <trkpt lat="45.96466" lon="4.85483">
        <ele>272</ele>
        <time>2018-07-08T09:10:23Z</time>
      </trkpt>
      <trkpt lat="45.96467" lon="4.85495">
        <ele>272</ele>
        <time>2018-07-08T09:10:25Z</time>
      </trkpt>
      <trkpt lat="45.96467" lon="4.85498">
        <ele>272</ele>
        <time>2018-07-08T09:10:26Z</time>
      </trkpt>
      <trkpt lat="45.96467" lon="4.85506">
        <ele>272</ele>
        <time>2018-07-08T09:10:27Z</time>
      </trkpt>
      <trkpt lat="45.96467" lon="4.85512">
        <ele>272</ele>
        <time>2018-07-08T09:10:28Z</time>
      </trkpt>
      <trkpt lat="45.96467" lon="4.8552">
        <ele>272</ele>
        <time>2018-07-08T09:10:30Z</time>
      </trkpt>
      <trkpt lat="45.96466" lon="4.85528">
        <ele>272</ele>
        <time>2018-07-08T09:10:31Z</time>
      </trkpt>
      <trkpt lat="45.96467" lon="4.85539">
        <ele>272</ele>
        <time>2018-07-08T09:10:33Z</time>
      </trkpt>
      <trkpt lat="45.96466" lon="4.85544">
        <ele>272</ele>
        <time>2018-07-08T09:10:34Z</time>
      </trkpt>
      <trkpt lat="45.96466" lon="4.85556">
        <ele>272</ele>
        <time>2018-07-08T09:10:36Z</time>
      </trkpt>
      <trkpt lat="45.96467" lon="4.85562">
        <ele>272</ele>
        <time>2018-07-08T09:10:37Z</time>
      </trkpt>
      <trkpt lat="45.96467" lon="4.85573">
        <ele>271</ele>
        <time>2018-07-08T09:10:39Z</time>
      </trkpt>
      <trkpt lat="45.96468" lon="4.85578">
        <ele>271</ele>
        <time>2018-07-08T09:10:40Z</time>
      </trkpt>
      <trkpt lat="45.96469" lon="4.85589">
        <ele>271</ele>
        <time>2018-07-08T09:10:42Z</time>
      </trkpt>
      <trkpt lat="45.9647" lon="4.85595">
        <ele>271</ele>
        <time>2018-07-08T09:10:43Z</time>
      </trkpt>
      <trkpt lat="45.96471" lon="4.85607">
        <ele>271</ele>
        <time>2018-07-08T09:10:45Z</time>
      </trkpt>
      <trkpt lat="45.96472" lon="4.85612">
        <ele>271</ele>
        <time>2018-07-08T09:10:46Z</time>
      </trkpt>
      <trkpt lat="45.96473" lon="4.85623">
        <ele>271</ele>
        <time>2018-07-08T09:10:48Z</time>
      </trkpt>
      <trkpt lat="45.96473" lon="4.85629">
        <ele>271</ele>
        <time>2018-07-08T09:10:49Z</time>
      </trkpt>
      <trkpt lat="45.96473" lon="4.85641">
        <ele>271</ele>
        <time>2018-07-08T09:10:51Z</time>
      </trkpt>
      <trkpt lat="45.96474" lon="4.85647">
        <ele>271</ele>
        <time>2018-07-08T09:10:52Z</time>
      </trkpt>
      <trkpt lat="45.96475" lon="4.85658">
        <ele>271</ele>
        <time>2018-07-08T09:10:54Z</time>
      </trkpt>
      <trkpt lat="45.96476" lon="4.85663">
        <ele>271</ele>
        <time>2018-07-08T09:10:55Z</time>
      </trkpt>
      <trkpt lat="45.96477" lon="4.85674">
        <ele>272</ele>
        <time>2018-07-08T09:10:57Z</time>
      </trkpt>
      <trkpt lat="45.96478" lon="4.8568">
        <ele>272</ele>
        <time>2018-07-08T09:10:58Z</time>
      </trkpt>
      <trkpt lat="45.9648" lon="4.85692">
        <ele>272</ele>
        <time>2018-07-08T09:11:00Z</time>
      </trkpt>
      <trkpt lat="45.96481" lon="4.85698">
        <ele>272</ele>
        <time>2018-07-08T09:11:01Z</time>
      </trkpt>
      <trkpt lat="45.96483" lon="4.85709">
        <ele>272</ele>
        <time>2018-07-08T09:11:03Z</time>
      </trkpt>
      <trkpt lat="45.96484" lon="4.85715">
        <ele>272</ele>
        <time>2018-07-08T09:11:04Z</time>
      </trkpt>
      <trkpt lat="45.96485" lon="4.85726">
        <ele>273</ele>
        <time>2018-07-08T09:11:06Z</time>
      </trkpt>
      <trkpt lat="45.96486" lon="4.85732">
        <ele>273</ele>
        <time>2018-07-08T09:11:07Z</time>
      </trkpt>
      <trkpt lat="45.96487" lon="4.85743">
        <ele>273</ele>
        <time>2018-07-08T09:11:09Z</time>
      </trkpt>
      <trkpt lat="45.96487" lon="4.85749">
        <ele>273</ele>
        <time>2018-07-08T09:11:10Z</time>
      </trkpt>
      <trkpt lat="45.96488" lon="4.85757">
        <ele>274</ele>
        <time>2018-07-08T09:11:12Z</time>
      </trkpt>
      <trkpt lat="45.96489" lon="4.85765">
        <ele>274</ele>
        <time>2018-07-08T09:11:13Z</time>
      </trkpt>
      <trkpt lat="45.9649" lon="4.85777">
        <ele>274</ele>
        <time>2018-07-08T09:11:15Z</time>
      </trkpt>
      <trkpt lat="45.9649" lon="4.85782">
        <ele>274</ele>
        <time>2018-07-08T09:11:16Z</time>
      </trkpt>
      <trkpt lat="45.96492" lon="4.85792">
        <ele>274</ele>
        <time>2018-07-08T09:11:18Z</time>
      </trkpt>
      <trkpt lat="45.96493" lon="4.85796">
        <ele>274</ele>
        <time>2018-07-08T09:11:19Z</time>
      </trkpt>
      <trkpt lat="45.96495" lon="4.85806">
        <ele>274</ele>
        <time>2018-07-08T09:11:21Z</time>
      </trkpt>
      <trkpt lat="45.96496" lon="4.85812">
        <ele>274</ele>
        <time>2018-07-08T09:11:22Z</time>
      </trkpt>
      <trkpt lat="45.96497" lon="4.85824">
        <ele>275</ele>
        <time>2018-07-08T09:11:24Z</time>
      </trkpt>
      <trkpt lat="45.96496" lon="4.85829">
        <ele>275</ele>
        <time>2018-07-08T09:11:25Z</time>
      </trkpt>
      <trkpt lat="45.96499" lon="4.8584">
        <ele>275</ele>
        <time>2018-07-08T09:11:27Z</time>
      </trkpt>
      <trkpt lat="45.965" lon="4.85845">
        <ele>275</ele>
        <time>2018-07-08T09:11:28Z</time>
      </trkpt>
      <trkpt lat="45.965" lon="4.85851">
        <ele>275</ele>
        <time>2018-07-08T09:11:29Z</time>
      </trkpt>
      <trkpt lat="45.965" lon="4.85859">
        <ele>275</ele>
        <time>2018-07-08T09:11:30Z</time>
      </trkpt>
      <trkpt lat="45.96501" lon="4.85871">
        <ele>275</ele>
        <time>2018-07-08T09:11:32Z</time>
      </trkpt>
      <trkpt lat="45.96503" lon="4.85877">
        <ele>275</ele>
        <time>2018-07-08T09:11:33Z</time>
      </trkpt>
      <trkpt lat="45.96506" lon="4.85888">
        <ele>275</ele>
        <time>2018-07-08T09:11:35Z</time>
      </trkpt>
      <trkpt lat="45.96507" lon="4.85893">
        <ele>275</ele>
        <time>2018-07-08T09:11:36Z</time>
      </trkpt>
      <trkpt lat="45.96508" lon="4.859">
        <ele>275</ele>
        <time>2018-07-08T09:11:37Z</time>
      </trkpt>
      <trkpt lat="45.9651" lon="4.85905">
        <ele>275</ele>
        <time>2018-07-08T09:11:38Z</time>
      </trkpt>
      <trkpt lat="45.96512" lon="4.85911">
        <ele>275</ele>
        <time>2018-07-08T09:11:39Z</time>
      </trkpt>
      <trkpt lat="45.96514" lon="4.85917">
        <ele>275</ele>
        <time>2018-07-08T09:11:40Z</time>
      </trkpt>
      <trkpt lat="45.96516" lon="4.85923">
        <ele>275</ele>
        <time>2018-07-08T09:11:41Z</time>
      </trkpt>
      <trkpt lat="45.96519" lon="4.85929">
        <ele>275</ele>
        <time>2018-07-08T09:11:42Z</time>
      </trkpt>
      <trkpt lat="45.96523" lon="4.85941">
        <ele>275</ele>
        <time>2018-07-08T09:11:44Z</time>
      </trkpt>
      <trkpt lat="45.96525" lon="4.85946">
        <ele>275</ele>
        <time>2018-07-08T09:11:45Z</time>
      </trkpt>
      <trkpt lat="45.96528" lon="4.85953">
        <ele>275</ele>
        <time>2018-07-08T09:11:46Z</time>
      </trkpt>
      <trkpt lat="45.96531" lon="4.85958">
        <ele>275</ele>
        <time>2018-07-08T09:11:47Z</time>
      </trkpt>
      <trkpt lat="45.96535" lon="4.85968">
        <ele>275</ele>
        <time>2018-07-08T09:11:49Z</time>
      </trkpt>
      <trkpt lat="45.96537" lon="4.85972">
        <ele>275</ele>
        <time>2018-07-08T09:11:50Z</time>
      </trkpt>
      <trkpt lat="45.96541" lon="4.85981">
        <ele>275</ele>
        <time>2018-07-08T09:11:52Z</time>
      </trkpt>
      <trkpt lat="45.96544" lon="4.85985">
        <ele>275</ele>
        <time>2018-07-08T09:11:53Z</time>
      </trkpt>
      <trkpt lat="45.96548" lon="4.85994">
        <ele>276</ele>
        <time>2018-07-08T09:11:55Z</time>
      </trkpt>
      <trkpt lat="45.96551" lon="4.85999">
        <ele>276</ele>
        <time>2018-07-08T09:11:56Z</time>
      </trkpt>
      <trkpt lat="45.96556" lon="4.86008">
        <ele>276</ele>
        <time>2018-07-08T09:11:58Z</time>
      </trkpt>
      <trkpt lat="45.96558" lon="4.86012">
        <ele>276</ele>
        <time>2018-07-08T09:11:59Z</time>
      </trkpt>
      <trkpt lat="45.96563" lon="4.86022">
        <ele>276</ele>
        <time>2018-07-08T09:12:01Z</time>
      </trkpt>
      <trkpt lat="45.96565" lon="4.86027">
        <ele>276</ele>
        <time>2018-07-08T09:12:02Z</time>
      </trkpt>
      <trkpt lat="45.9657" lon="4.86036">
        <ele>276</ele>
        <time>2018-07-08T09:12:04Z</time>
      </trkpt>
      <trkpt lat="45.96572" lon="4.8604">
        <ele>276</ele>
        <time>2018-07-08T09:12:05Z</time>
      </trkpt>
      <trkpt lat="45.96577" lon="4.8605">
        <ele>276</ele>
        <time>2018-07-08T09:12:07Z</time>
      </trkpt>
      <trkpt lat="45.96579" lon="4.86054">
        <ele>277</ele>
        <time>2018-07-08T09:12:08Z</time>
      </trkpt>
      <trkpt lat="45.96583" lon="4.86062">
        <ele>277</ele>
        <time>2018-07-08T09:12:10Z</time>
      </trkpt>
      <trkpt lat="45.96584" lon="4.86065">
        <ele>279</ele>
        <time>2018-07-08T09:12:11Z</time>
      </trkpt>
      <trkpt lat="45.96587" lon="4.86071">
        <ele>279</ele>
        <time>2018-07-08T09:12:12Z</time>
      </trkpt>
      <trkpt lat="45.96589" lon="4.86076">
        <ele>279</ele>
        <time>2018-07-08T09:12:13Z</time>
      </trkpt>
      <trkpt lat="45.96592" lon="4.86085">
        <ele>279</ele>
        <time>2018-07-08T09:12:15Z</time>
      </trkpt>
      <trkpt lat="45.96593" lon="4.8609">
        <ele>280</ele>
        <time>2018-07-08T09:12:16Z</time>
      </trkpt>
      <trkpt lat="45.96595" lon="4.86101">
        <ele>280</ele>
        <time>2018-07-08T09:12:18Z</time>
      </trkpt>
      <trkpt lat="45.96595" lon="4.86106">
        <ele>281</ele>
        <time>2018-07-08T09:12:19Z</time>
      </trkpt>
      <trkpt lat="45.96595" lon="4.86116">
        <ele>281</ele>
        <time>2018-07-08T09:12:22Z</time>
      </trkpt>
      <trkpt lat="45.96595" lon="4.86119">
        <ele>281</ele>
        <time>2018-07-08T09:12:23Z</time>
      </trkpt>
      <trkpt lat="45.96595" lon="4.86128">
        <ele>281</ele>
        <time>2018-07-08T09:12:25Z</time>
      </trkpt>
      <trkpt lat="45.96593" lon="4.86141">
        <ele>281</ele>
        <time>2018-07-08T09:12:26Z</time>
      </trkpt>
      <trkpt lat="45.96591" lon="4.86152">
        <ele>281</ele>
        <time>2018-07-08T09:12:28Z</time>
      </trkpt>
      <trkpt lat="45.9659" lon="4.86154">
        <ele>281</ele>
        <time>2018-07-08T09:12:29Z</time>
      </trkpt>
      <trkpt lat="45.96589" lon="4.86164">
        <ele>280</ele>
        <time>2018-07-08T09:12:32Z</time>
      </trkpt>
      <trkpt lat="45.96588" lon="4.86168">
        <ele>281</ele>
        <time>2018-07-08T09:12:33Z</time>
      </trkpt>
      <trkpt lat="45.96587" lon="4.86177">
        <ele>281</ele>
        <time>2018-07-08T09:12:35Z</time>
      </trkpt>
      <trkpt lat="45.96587" lon="4.86181">
        <ele>281</ele>
        <time>2018-07-08T09:12:36Z</time>
      </trkpt>
      <trkpt lat="45.96586" lon="4.8619">
        <ele>282</ele>
        <time>2018-07-08T09:12:38Z</time>
      </trkpt>
      <trkpt lat="45.96586" lon="4.86194">
        <ele>282</ele>
        <time>2018-07-08T09:12:39Z</time>
      </trkpt>
      <trkpt lat="45.96586" lon="4.86207">
        <ele>282</ele>
        <time>2018-07-08T09:12:42Z</time>
      </trkpt>
      <trkpt lat="45.96586" lon="4.86212">
        <ele>282</ele>
        <time>2018-07-08T09:12:43Z</time>
      </trkpt>
      <trkpt lat="45.96586" lon="4.86221">
        <ele>282</ele>
        <time>2018-07-08T09:12:45Z</time>
      </trkpt>
      <trkpt lat="45.96586" lon="4.86225">
        <ele>282</ele>
        <time>2018-07-08T09:12:46Z</time>
      </trkpt>
      <trkpt lat="45.96585" lon="4.86234">
        <ele>282</ele>
        <time>2018-07-08T09:12:48Z</time>
      </trkpt>
      <trkpt lat="45.96585" lon="4.86238">
        <ele>282</ele>
        <time>2018-07-08T09:12:49Z</time>
      </trkpt>
      <trkpt lat="45.96584" lon="4.86251">
        <ele>281</ele>
        <time>2018-07-08T09:12:52Z</time>
      </trkpt>
      <trkpt lat="45.96584" lon="4.86255">
        <ele>282</ele>
        <time>2018-07-08T09:12:53Z</time>
      </trkpt>
      <trkpt lat="45.96583" lon="4.86266">
        <ele>281</ele>
        <time>2018-07-08T09:12:56Z</time>
      </trkpt>
      <trkpt lat="45.96583" lon="4.8627">
        <ele>282</ele>
        <time>2018-07-08T09:12:57Z</time>
      </trkpt>
      <trkpt lat="45.96582" lon="4.86281">
        <ele>282</ele>
        <time>2018-07-08T09:13:00Z</time>
      </trkpt>
      <trkpt lat="45.96582" lon="4.86284">
        <ele>282</ele>
        <time>2018-07-08T09:13:01Z</time>
      </trkpt>
      <trkpt lat="45.96581" lon="4.86295">
        <ele>282</ele>
        <time>2018-07-08T09:13:04Z</time>
      </trkpt>
      <trkpt lat="45.96581" lon="4.86298">
        <ele>282</ele>
        <time>2018-07-08T09:13:05Z</time>
      </trkpt>
      <trkpt lat="45.9658" lon="4.86309">
        <ele>283</ele>
        <time>2018-07-08T09:13:08Z</time>
      </trkpt>
      <trkpt lat="45.9658" lon="4.86312">
        <ele>283</ele>
        <time>2018-07-08T09:13:09Z</time>
      </trkpt>
      <trkpt lat="45.9658" lon="4.86324">
        <ele>284</ele>
        <time>2018-07-08T09:13:12Z</time>
      </trkpt>
      <trkpt lat="45.9658" lon="4.86328">
        <ele>284</ele>
        <time>2018-07-08T09:13:13Z</time>
      </trkpt>
      <trkpt lat="45.96579" lon="4.8634">
        <ele>285</ele>
        <time>2018-07-08T09:13:16Z</time>
      </trkpt>
      <trkpt lat="45.96579" lon="4.86344">
        <ele>285</ele>
        <time>2018-07-08T09:13:17Z</time>
      </trkpt>
      <trkpt lat="45.96579" lon="4.86353">
        <ele>285</ele>
        <time>2018-07-08T09:13:19Z</time>
      </trkpt>
      <trkpt lat="45.96579" lon="4.86357">
        <ele>285</ele>
        <time>2018-07-08T09:13:20Z</time>
      </trkpt>
      <trkpt lat="45.96578" lon="4.86366">
        <ele>286</ele>
        <time>2018-07-08T09:13:22Z</time>
      </trkpt>
      <trkpt lat="45.96578" lon="4.86371">
        <ele>286</ele>
        <time>2018-07-08T09:13:23Z</time>
      </trkpt>
      <trkpt lat="45.96578" lon="4.86376">
        <ele>286</ele>
        <time>2018-07-08T09:13:24Z</time>
      </trkpt>
      <trkpt lat="45.96578" lon="4.8639">
        <ele>287</ele>
        <time>2018-07-08T09:13:25Z</time>
      </trkpt>
      <trkpt lat="45.96577" lon="4.86402">
        <ele>288</ele>
        <time>2018-07-08T09:13:29Z</time>
      </trkpt>
      <trkpt lat="45.96577" lon="4.86406">
        <ele>288</ele>
        <time>2018-07-08T09:13:30Z</time>
      </trkpt>
      <trkpt lat="45.96577" lon="4.86418">
        <ele>290</ele>
        <time>2018-07-08T09:13:33Z</time>
      </trkpt>
      <trkpt lat="45.96577" lon="4.86422">
        <ele>289</ele>
        <time>2018-07-08T09:13:34Z</time>
      </trkpt>
      <trkpt lat="45.96577" lon="4.86435">
        <ele>289</ele>
        <time>2018-07-08T09:13:37Z</time>
      </trkpt>
      <trkpt lat="45.96577" lon="4.8644">
        <ele>289</ele>
        <time>2018-07-08T09:13:38Z</time>
      </trkpt>
      <trkpt lat="45.96578" lon="4.86452">
        <ele>289</ele>
        <time>2018-07-08T09:13:41Z</time>
      </trkpt>
      <trkpt lat="45.96578" lon="4.86456">
        <ele>289</ele>
        <time>2018-07-08T09:13:42Z</time>
      </trkpt>
      <trkpt lat="45.96577" lon="4.86468">
        <ele>289</ele>
        <time>2018-07-08T09:13:45Z</time>
      </trkpt>
      <trkpt lat="45.96577" lon="4.86472">
        <ele>289</ele>
        <time>2018-07-08T09:13:46Z</time>
      </trkpt>
      <trkpt lat="45.96579" lon="4.86484">
        <ele>290</ele>
        <time>2018-07-08T09:13:49Z</time>
      </trkpt>
      <trkpt lat="45.9658" lon="4.86488">
        <ele>290</ele>
        <time>2018-07-08T09:13:50Z</time>
      </trkpt>
      <trkpt lat="45.96582" lon="4.86495">
        <ele>291</ele>
        <time>2018-07-08T09:13:52Z</time>
      </trkpt>
      <trkpt lat="45.96584" lon="4.86499">
        <ele>292</ele>
        <time>2018-07-08T09:13:53Z</time>
      </trkpt>
      <trkpt lat="45.96588" lon="4.86506">
        <ele>292</ele>
        <time>2018-07-08T09:13:55Z</time>
      </trkpt>
      <trkpt lat="45.96595" lon="4.86515">
        <ele>291</ele>
        <time>2018-07-08T09:13:56Z</time>
      </trkpt>
      <trkpt lat="45.96601" lon="4.86522">
        <ele>291</ele>
        <time>2018-07-08T09:13:58Z</time>
      </trkpt>
      <trkpt lat="45.96604" lon="4.86525">
        <ele>291</ele>
        <time>2018-07-08T09:13:59Z</time>
      </trkpt>
      <trkpt lat="45.96611" lon="4.8653">
        <ele>291</ele>
        <time>2018-07-08T09:14:02Z</time>
      </trkpt>
      <trkpt lat="45.96616" lon="4.86535">
        <ele>291</ele>
        <time>2018-07-08T09:14:03Z</time>
      </trkpt>
      <trkpt lat="45.96623" lon="4.86541">
        <ele>291</ele>
        <time>2018-07-08T09:14:05Z</time>
      </trkpt>
      <trkpt lat="45.96628" lon="4.86543">
        <ele>291</ele>
        <time>2018-07-08T09:14:06Z</time>
      </trkpt>
      <trkpt lat="45.96635" lon="4.86548">
        <ele>291</ele>
        <time>2018-07-08T09:14:09Z</time>
      </trkpt>
      <trkpt lat="45.96637" lon="4.8655">
        <ele>291</ele>
        <time>2018-07-08T09:14:10Z</time>
      </trkpt>
      <trkpt lat="45.96639" lon="4.86553">
        <ele>291</ele>
        <time>2018-07-08T09:14:11Z</time>
      </trkpt>
      <trkpt lat="45.96645" lon="4.8656">
        <ele>291</ele>
        <time>2018-07-08T09:14:12Z</time>
      </trkpt>
      <trkpt lat="45.96653" lon="4.86567">
        <ele>290</ele>
        <time>2018-07-08T09:14:14Z</time>
      </trkpt>
      <trkpt lat="45.96656" lon="4.8657">
        <ele>290</ele>
        <time>2018-07-08T09:14:15Z</time>
      </trkpt>
      <trkpt lat="45.96662" lon="4.86576">
        <ele>290</ele>
        <time>2018-07-08T09:14:17Z</time>
      </trkpt>
      <trkpt lat="45.96665" lon="4.86579">
        <ele>290</ele>
        <time>2018-07-08T09:14:18Z</time>
      </trkpt>
      <trkpt lat="45.96672" lon="4.86585">
        <ele>290</ele>
        <time>2018-07-08T09:14:20Z</time>
      </trkpt>
      <trkpt lat="45.96675" lon="4.86588">
        <ele>290</ele>
        <time>2018-07-08T09:14:21Z</time>
      </trkpt>
      <trkpt lat="45.96681" lon="4.86594">
        <ele>290</ele>
        <time>2018-07-08T09:14:23Z</time>
      </trkpt>
      <trkpt lat="45.96685" lon="4.86598">
        <ele>290</ele>
        <time>2018-07-08T09:14:24Z</time>
      </trkpt>
      <trkpt lat="45.96691" lon="4.86604">
        <ele>290</ele>
        <time>2018-07-08T09:14:26Z</time>
      </trkpt>
      <trkpt lat="45.96695" lon="4.86608">
        <ele>290</ele>
        <time>2018-07-08T09:14:27Z</time>
      </trkpt>
      <trkpt lat="45.96702" lon="4.86613">
        <ele>290</ele>
        <time>2018-07-08T09:14:29Z</time>
      </trkpt>
      <trkpt lat="45.96706" lon="4.86615">
        <ele>290</ele>
        <time>2018-07-08T09:14:30Z</time>
      </trkpt>
      <trkpt lat="45.96712" lon="4.8662">
        <ele>290</ele>
        <time>2018-07-08T09:14:32Z</time>
      </trkpt>
      <trkpt lat="45.96716" lon="4.86623">
        <ele>290</ele>
        <time>2018-07-08T09:14:33Z</time>
      </trkpt>
      <trkpt lat="45.96722" lon="4.86627">
        <ele>290</ele>
        <time>2018-07-08T09:14:35Z</time>
      </trkpt>
      <trkpt lat="45.96726" lon="4.86629">
        <ele>290</ele>
        <time>2018-07-08T09:14:36Z</time>
      </trkpt>
      <trkpt lat="45.96732" lon="4.86634">
        <ele>290</ele>
        <time>2018-07-08T09:14:38Z</time>
      </trkpt>
      <trkpt lat="45.96736" lon="4.86637">
        <ele>290</ele>
        <time>2018-07-08T09:14:39Z</time>
      </trkpt>
      <trkpt lat="45.96741" lon="4.86646">
        <ele>290</ele>
        <time>2018-07-08T09:14:41Z</time>
      </trkpt>
      <trkpt lat="45.96742" lon="4.86652">
        <ele>290</ele>
        <time>2018-07-08T09:14:42Z</time>
      </trkpt>
      <trkpt lat="45.96738" lon="4.86661">
        <ele>290</ele>
        <time>2018-07-08T09:14:43Z</time>
      </trkpt>
      <trkpt lat="45.96737" lon="4.86665">
        <ele>290</ele>
        <time>2018-07-08T09:14:44Z</time>
      </trkpt>
      <trkpt lat="45.96734" lon="4.8667">
        <ele>290</ele>
        <time>2018-07-08T09:14:45Z</time>
      </trkpt>
      <trkpt lat="45.9673" lon="4.86675">
        <ele>290</ele>
        <time>2018-07-08T09:14:46Z</time>
      </trkpt>
      <trkpt lat="45.96727" lon="4.8668">
        <ele>289</ele>
        <time>2018-07-08T09:14:47Z</time>
      </trkpt>
      <trkpt lat="45.96724" lon="4.86686">
        <ele>289</ele>
        <time>2018-07-08T09:14:48Z</time>
      </trkpt>
      <trkpt lat="45.96719" lon="4.86696">
        <ele>289</ele>
        <time>2018-07-08T09:14:50Z</time>
      </trkpt>
      <trkpt lat="45.96716" lon="4.867">
        <ele>289</ele>
        <time>2018-07-08T09:14:51Z</time>
      </trkpt>
      <trkpt lat="45.96713" lon="4.86705">
        <ele>289</ele>
        <time>2018-07-08T09:14:52Z</time>
      </trkpt>
      <trkpt lat="45.96709" lon="4.8671">
        <ele>289</ele>
        <time>2018-07-08T09:14:53Z</time>
      </trkpt>
      <trkpt lat="45.96704" lon="4.86719">
        <ele>289</ele>
        <time>2018-07-08T09:14:55Z</time>
      </trkpt>
      <trkpt lat="45.967" lon="4.86724">
        <ele>289</ele>
        <time>2018-07-08T09:14:56Z</time>
      </trkpt>
      <trkpt lat="45.96697" lon="4.8673">
        <ele>289</ele>
        <time>2018-07-08T09:14:57Z</time>
      </trkpt>
      <trkpt lat="45.96693" lon="4.86736">
        <ele>289</ele>
        <time>2018-07-08T09:14:58Z</time>
      </trkpt>
      <trkpt lat="45.96689" lon="4.86742">
        <ele>289</ele>
        <time>2018-07-08T09:14:59Z</time>
      </trkpt>
      <trkpt lat="45.96685" lon="4.86748">
        <ele>289</ele>
        <time>2018-07-08T09:15:00Z</time>
      </trkpt>
      <trkpt lat="45.96682" lon="4.86753">
        <ele>289</ele>
        <time>2018-07-08T09:15:01Z</time>
      </trkpt>
      <trkpt lat="45.96679" lon="4.86759">
        <ele>289</ele>
        <time>2018-07-08T09:15:02Z</time>
      </trkpt>
      <trkpt lat="45.96675" lon="4.86766">
        <ele>289</ele>
        <time>2018-07-08T09:15:03Z</time>
      </trkpt>
      <trkpt lat="45.96671" lon="4.86772">
        <ele>289</ele>
        <time>2018-07-08T09:15:04Z</time>
      </trkpt>
      <trkpt lat="45.96668" lon="4.86778">
        <ele>289</ele>
        <time>2018-07-08T09:15:05Z</time>
      </trkpt>
      <trkpt lat="45.96664" lon="4.86784">
        <ele>288</ele>
        <time>2018-07-08T09:15:06Z</time>
      </trkpt>
      <trkpt lat="45.96661" lon="4.8679">
        <ele>288</ele>
        <time>2018-07-08T09:15:07Z</time>
      </trkpt>
      <trkpt lat="45.96657" lon="4.86796">
        <ele>288</ele>
        <time>2018-07-08T09:15:08Z</time>
      </trkpt>
      <trkpt lat="45.96654" lon="4.86802">
        <ele>288</ele>
        <time>2018-07-08T09:15:09Z</time>
      </trkpt>
      <trkpt lat="45.96651" lon="4.86808">
        <ele>288</ele>
        <time>2018-07-08T09:15:10Z</time>
      </trkpt>
      <trkpt lat="45.96648" lon="4.86814">
        <ele>288</ele>
        <time>2018-07-08T09:15:11Z</time>
      </trkpt>
      <trkpt lat="45.96646" lon="4.8682">
        <ele>288</ele>
        <time>2018-07-08T09:15:12Z</time>
      </trkpt>
      <trkpt lat="45.96643" lon="4.86827">
        <ele>288</ele>
        <time>2018-07-08T09:15:13Z</time>
      </trkpt>
      <trkpt lat="45.96639" lon="4.86833">
        <ele>288</ele>
        <time>2018-07-08T09:15:14Z</time>
      </trkpt>
      <trkpt lat="45.96635" lon="4.86839">
        <ele>287</ele>
        <time>2018-07-08T09:15:15Z</time>
      </trkpt>
      <trkpt lat="45.96631" lon="4.86844">
        <ele>287</ele>
        <time>2018-07-08T09:15:16Z</time>
      </trkpt>
      <trkpt lat="45.96629" lon="4.8685">
        <ele>287</ele>
        <time>2018-07-08T09:15:17Z</time>
      </trkpt>
      <trkpt lat="45.96625" lon="4.86855">
        <ele>287</ele>
        <time>2018-07-08T09:15:18Z</time>
      </trkpt>
      <trkpt lat="45.96621" lon="4.86863">
        <ele>287</ele>
        <time>2018-07-08T09:15:19Z</time>
      </trkpt>
      <trkpt lat="45.96619" lon="4.86868">
        <ele>287</ele>
        <time>2018-07-08T09:15:20Z</time>
      </trkpt>
      <trkpt lat="45.96616" lon="4.86873">
        <ele>287</ele>
        <time>2018-07-08T09:15:21Z</time>
      </trkpt>
      <trkpt lat="45.96613" lon="4.86878">
        <ele>287</ele>
        <time>2018-07-08T09:15:22Z</time>
      </trkpt>
      <trkpt lat="45.96609" lon="4.86885">
        <ele>287</ele>
        <time>2018-07-08T09:15:23Z</time>
      </trkpt>
      <trkpt lat="45.96605" lon="4.86891">
        <ele>287</ele>
        <time>2018-07-08T09:15:24Z</time>
      </trkpt>
      <trkpt lat="45.96603" lon="4.86897">
        <ele>286</ele>
        <time>2018-07-08T09:15:25Z</time>
      </trkpt>
      <trkpt lat="45.96599" lon="4.86904">
        <ele>286</ele>
        <time>2018-07-08T09:15:26Z</time>
      </trkpt>
      <trkpt lat="45.96595" lon="4.86911">
        <ele>286</ele>
        <time>2018-07-08T09:15:27Z</time>
      </trkpt>
      <trkpt lat="45.96591" lon="4.86916">
        <ele>286</ele>
        <time>2018-07-08T09:15:28Z</time>
      </trkpt>
      <trkpt lat="45.96587" lon="4.86922">
        <ele>285</ele>
        <time>2018-07-08T09:15:29Z</time>
      </trkpt>
      <trkpt lat="45.96583" lon="4.86928">
        <ele>284</ele>
        <time>2018-07-08T09:15:30Z</time>
      </trkpt>
      <trkpt lat="45.96577" lon="4.86934">
        <ele>284</ele>
        <time>2018-07-08T09:15:31Z</time>
      </trkpt>
      <trkpt lat="45.96572" lon="4.86938">
        <ele>284</ele>
        <time>2018-07-08T09:15:32Z</time>
      </trkpt>
      <trkpt lat="45.96569" lon="4.86945">
        <ele>284</ele>
        <time>2018-07-08T09:15:33Z</time>
      </trkpt>
      <trkpt lat="45.96566" lon="4.86951">
        <ele>284</ele>
        <time>2018-07-08T09:15:34Z</time>
      </trkpt>
      <trkpt lat="45.96562" lon="4.86957">
        <ele>283</ele>
        <time>2018-07-08T09:15:35Z</time>
      </trkpt>
      <trkpt lat="45.96558" lon="4.86962">
        <ele>283</ele>
        <time>2018-07-08T09:15:36Z</time>
      </trkpt>
      <trkpt lat="45.96553" lon="4.86971">
        <ele>283</ele>
        <time>2018-07-08T09:15:38Z</time>
      </trkpt>
      <trkpt lat="45.9655" lon="4.86976">
        <ele>283</ele>
        <time>2018-07-08T09:15:39Z</time>
      </trkpt>
      <trkpt lat="45.96543" lon="4.86983">
        <ele>283</ele>
        <time>2018-07-08T09:15:42Z</time>
      </trkpt>
      <trkpt lat="45.96542" lon="4.86986">
        <ele>283</ele>
        <time>2018-07-08T09:15:43Z</time>
      </trkpt>
      <trkpt lat="45.96541" lon="4.86996">
        <ele>283</ele>
        <time>2018-07-08T09:15:46Z</time>
      </trkpt>
      <trkpt lat="45.96541" lon="4.86999">
        <ele>283</ele>
        <time>2018-07-08T09:15:47Z</time>
      </trkpt>
      <trkpt lat="45.9654" lon="4.8701">
        <ele>283</ele>
        <time>2018-07-08T09:15:51Z</time>
      </trkpt>
      <trkpt lat="45.9654" lon="4.87013">
        <ele>283</ele>
        <time>2018-07-08T09:15:52Z</time>
      </trkpt>
      <trkpt lat="45.96546" lon="4.8702">
        <ele>283</ele>
        <time>2018-07-08T09:15:58Z</time>
      </trkpt>
      <trkpt lat="45.96547" lon="4.87021">
        <ele>283</ele>
        <time>2018-07-08T09:15:59Z</time>
      </trkpt>
      <trkpt lat="45.96549" lon="4.87025">
        <ele>283</ele>
        <time>2018-07-08T09:16:13Z</time>
      </trkpt>
      <trkpt lat="45.96549" lon="4.87025">
        <ele>283</ele>
        <time>2018-07-08T09:16:14Z</time>
      </trkpt>
      <trkpt lat="45.9655" lon="4.87027">
        <ele>283</ele>
        <time>2018-07-08T09:16:33Z</time>
      </trkpt>
      <trkpt lat="45.9655" lon="4.87027">
        <ele>283</ele>
        <time>2018-07-08T09:16:34Z</time>
      </trkpt>
      <trkpt lat="45.96548" lon="4.8703">
        <ele>283</ele>
        <time>2018-07-08T09:22:12Z</time>
      </trkpt>
      <trkpt lat="45.96548" lon="4.8703">
        <ele>283</ele>
        <time>2018-07-08T09:22:13Z</time>
      </trkpt>
      <trkpt lat="45.96549" lon="4.8703">
        <ele>283</ele>
        <time>2018-07-08T09:22:18Z</time>
      </trkpt>
      <trkpt lat="45.96549" lon="4.8703">
        <ele>283</ele>
        <time>2018-07-08T09:22:19Z</time>
      </trkpt>
      <trkpt lat="45.96542" lon="4.87026">
        <ele>283</ele>
        <time>2018-07-08T09:23:33Z</time>
      </trkpt>
      <trkpt lat="45.96541" lon="4.87026">
        <ele>283</ele>
        <time>2018-07-08T09:23:34Z</time>
      </trkpt>
      <trkpt lat="45.96534" lon="4.87018">
        <ele>283</ele>
        <time>2018-07-08T09:23:53Z</time>
      </trkpt>
      <trkpt lat="45.96534" lon="4.87018">
        <ele>283</ele>
        <time>2018-07-08T09:23:54Z</time>
      </trkpt>
      <trkpt lat="45.96541" lon="4.87023">
        <ele>283</ele>
        <time>2018-07-08T09:24:27Z</time>
      </trkpt>
      <trkpt lat="45.96542" lon="4.87024">
        <ele>283</ele>
        <time>2018-07-08T09:24:28Z</time>
      </trkpt>
      <trkpt lat="45.96542" lon="4.87025">
        <ele>283</ele>
        <time>2018-07-08T09:24:29Z</time>
      </trkpt>
      <trkpt lat="45.96543" lon="4.87025">
        <ele>283</ele>
        <time>2018-07-08T09:24:30Z</time>
      </trkpt>
      <trkpt lat="45.96543" lon="4.87026">
        <ele>283</ele>
        <time>2018-07-08T09:24:31Z</time>
      </trkpt>
      <trkpt lat="45.96548" lon="4.87031">
        <ele>283</ele>
        <time>2018-07-08T09:24:55Z</time>
      </trkpt>
      <trkpt lat="45.96548" lon="4.87031">
        <ele>283</ele>
        <time>2018-07-08T09:24:56Z</time>
      </trkpt>
      <trkpt lat="45.96548" lon="4.87031">
        <ele>283</ele>
        <time>2018-07-08T09:24:57Z</time>
      </trkpt>
      <trkpt lat="45.96556" lon="4.87033">
        <ele>283</ele>
        <time>2018-07-08T09:25:19Z</time>
      </trkpt>
      <trkpt lat="45.96557" lon="4.87037">
        <ele>283</ele>
        <time>2018-07-08T09:25:20Z</time>
      </trkpt>
      <trkpt lat="45.96559" lon="4.87045">
        <ele>283</ele>
        <time>2018-07-08T09:25:22Z</time>
      </trkpt>
      <trkpt lat="45.96559" lon="4.87049">
        <ele>283</ele>
        <time>2018-07-08T09:25:23Z</time>
      </trkpt>
      <trkpt lat="45.96561" lon="4.8706">
        <ele>283</ele>
        <time>2018-07-08T09:25:26Z</time>
      </trkpt>
      <trkpt lat="45.96561" lon="4.87063">
        <ele>283</ele>
        <time>2018-07-08T09:25:27Z</time>
      </trkpt>
      <trkpt lat="45.96557" lon="4.87072">
        <ele>283</ele>
        <time>2018-07-08T09:25:31Z</time>
      </trkpt>
      <trkpt lat="45.96555" lon="4.87073">
        <ele>283</ele>
        <time>2018-07-08T09:25:32Z</time>
      </trkpt>
      <trkpt lat="45.96547" lon="4.87075">
        <ele>283</ele>
        <time>2018-07-08T09:25:37Z</time>
      </trkpt>
      <trkpt lat="45.96545" lon="4.87074">
        <ele>283</ele>
        <time>2018-07-08T09:25:38Z</time>
      </trkpt>
      <trkpt lat="45.96541" lon="4.87064">
        <ele>283</ele>
        <time>2018-07-08T09:25:41Z</time>
      </trkpt>
      <trkpt lat="45.96541" lon="4.8706">
        <ele>283</ele>
        <time>2018-07-08T09:25:42Z</time>
      </trkpt>
      <trkpt lat="45.9654" lon="4.87048">
        <ele>283</ele>
        <time>2018-07-08T09:25:45Z</time>
      </trkpt>
      <trkpt lat="45.9654" lon="4.87045">
        <ele>283</ele>
        <time>2018-07-08T09:25:46Z</time>
      </trkpt>
      <trkpt lat="45.96541" lon="4.87034">
        <ele>283</ele>
        <time>2018-07-08T09:25:49Z</time>
      </trkpt>
      <trkpt lat="45.96541" lon="4.8703">
        <ele>283</ele>
        <time>2018-07-08T09:25:50Z</time>
      </trkpt>
      <trkpt lat="45.96543" lon="4.87018">
        <ele>283</ele>
        <time>2018-07-08T09:25:53Z</time>
      </trkpt>
      <trkpt lat="45.96543" lon="4.87014">
        <ele>283</ele>
        <time>2018-07-08T09:25:54Z</time>
      </trkpt>
      <trkpt lat="45.96544" lon="4.87003">
        <ele>283</ele>
        <time>2018-07-08T09:25:57Z</time>
      </trkpt>
      <trkpt lat="45.96544" lon="4.87">
        <ele>283</ele>
        <time>2018-07-08T09:25:58Z</time>
      </trkpt>
      <trkpt lat="45.9655" lon="4.86993">
        <ele>283</ele>
        <time>2018-07-08T09:26:02Z</time>
      </trkpt>
      <trkpt lat="45.96553" lon="4.86992">
        <ele>283</ele>
        <time>2018-07-08T09:26:03Z</time>
      </trkpt>
      <trkpt lat="45.96561" lon="4.86991">
        <ele>284</ele>
        <time>2018-07-08T09:26:06Z</time>
      </trkpt>
      <trkpt lat="45.96569" lon="4.86991">
        <ele>284</ele>
        <time>2018-07-08T09:26:07Z</time>
      </trkpt>
      <trkpt lat="45.96577" lon="4.86991">
        <ele>284</ele>
        <time>2018-07-08T09:26:11Z</time>
      </trkpt>
      <trkpt lat="45.96579" lon="4.86991">
        <ele>284</ele>
        <time>2018-07-08T09:26:12Z</time>
      </trkpt>
      <trkpt lat="45.96581" lon="4.8699">
        <ele>284</ele>
        <time>2018-07-08T09:26:13Z</time>
      </trkpt>
      <trkpt lat="45.96589" lon="4.86988">
        <ele>285</ele>
        <time>2018-07-08T09:26:14Z</time>
      </trkpt>
      <trkpt lat="45.96594" lon="4.86989">
        <ele>286</ele>
        <time>2018-07-08T09:26:16Z</time>
      </trkpt>
      <trkpt lat="45.96601" lon="4.86991">
        <ele>286</ele>
        <time>2018-07-08T09:26:17Z</time>
      </trkpt>
      <trkpt lat="45.96605" lon="4.86991">
        <ele>286</ele>
        <time>2018-07-08T09:26:19Z</time>
      </trkpt>
      <trkpt lat="45.96611" lon="4.86988">
        <ele>286</ele>
        <time>2018-07-08T09:26:20Z</time>
      </trkpt>
      <trkpt lat="45.96618" lon="4.86985">
        <ele>286</ele>
        <time>2018-07-08T09:26:24Z</time>
      </trkpt>
      <trkpt lat="45.96621" lon="4.86984">
        <ele>286</ele>
        <time>2018-07-08T09:26:25Z</time>
      </trkpt>
      <trkpt lat="45.96627" lon="4.86982">
        <ele>286</ele>
        <time>2018-07-08T09:26:27Z</time>
      </trkpt>
      <trkpt lat="45.96636" lon="4.86981">
        <ele>286</ele>
        <time>2018-07-08T09:26:28Z</time>
      </trkpt>
      <trkpt lat="45.96642" lon="4.86983">
        <ele>286</ele>
        <time>2018-07-08T09:26:30Z</time>
      </trkpt>
      <trkpt lat="45.96647" lon="4.86987">
        <ele>287</ele>
        <time>2018-07-08T09:26:31Z</time>
      </trkpt>
      <trkpt lat="45.96652" lon="4.86992">
        <ele>287</ele>
        <time>2018-07-08T09:26:33Z</time>
      </trkpt>
      <trkpt lat="45.96656" lon="4.86999">
        <ele>287</ele>
        <time>2018-07-08T09:26:34Z</time>
      </trkpt>
      <trkpt lat="45.96661" lon="4.87009">
        <ele>286</ele>
        <time>2018-07-08T09:26:36Z</time>
      </trkpt>
      <trkpt lat="45.96663" lon="4.87014">
        <ele>286</ele>
        <time>2018-07-08T09:26:37Z</time>
      </trkpt>
      <trkpt lat="45.96668" lon="4.87023">
        <ele>287</ele>
        <time>2018-07-08T09:26:39Z</time>
      </trkpt>
      <trkpt lat="45.96672" lon="4.87027">
        <ele>287</ele>
        <time>2018-07-08T09:26:40Z</time>
      </trkpt>
      <trkpt lat="45.96679" lon="4.87033">
        <ele>287</ele>
        <time>2018-07-08T09:26:42Z</time>
      </trkpt>
      <trkpt lat="45.96683" lon="4.87035">
        <ele>287</ele>
        <time>2018-07-08T09:26:43Z</time>
      </trkpt>
      <trkpt lat="45.9669" lon="4.87042">
        <ele>287</ele>
        <time>2018-07-08T09:26:45Z</time>
      </trkpt>
      <trkpt lat="45.96695" lon="4.87044">
        <ele>287</ele>
        <time>2018-07-08T09:26:46Z</time>
      </trkpt>
      <trkpt lat="45.967" lon="4.87048">
        <ele>287</ele>
        <time>2018-07-08T09:26:47Z</time>
      </trkpt>
      <trkpt lat="45.96706" lon="4.87052">
        <ele>287</ele>
        <time>2018-07-08T09:26:48Z</time>
      </trkpt>
      <trkpt lat="45.9671" lon="4.87055">
        <ele>287</ele>
        <time>2018-07-08T09:26:49Z</time>
      </trkpt>
      <trkpt lat="45.96715" lon="4.87058">
        <ele>287</ele>
        <time>2018-07-08T09:26:50Z</time>
      </trkpt>
      <trkpt lat="45.96723" lon="4.87064">
        <ele>287</ele>
        <time>2018-07-08T09:26:52Z</time>
      </trkpt>
      <trkpt lat="45.96727" lon="4.87066">
        <ele>287</ele>
        <time>2018-07-08T09:26:53Z</time>
      </trkpt>
      <trkpt lat="45.96733" lon="4.87072">
        <ele>287</ele>
        <time>2018-07-08T09:26:55Z</time>
      </trkpt>
      <trkpt lat="45.96738" lon="4.87075">
        <ele>287</ele>
        <time>2018-07-08T09:26:56Z</time>
      </trkpt>
      <trkpt lat="45.96745" lon="4.87082">
        <ele>287</ele>
        <time>2018-07-08T09:26:58Z</time>
      </trkpt>
      <trkpt lat="45.96748" lon="4.87086">
        <ele>287</ele>
        <time>2018-07-08T09:26:59Z</time>
      </trkpt>
      <trkpt lat="45.96754" lon="4.87094">
        <ele>287</ele>
        <time>2018-07-08T09:27:01Z</time>
      </trkpt>
      <trkpt lat="45.96758" lon="4.87099">
        <ele>287</ele>
        <time>2018-07-08T09:27:02Z</time>
      </trkpt>
      <trkpt lat="45.96763" lon="4.87109">
        <ele>286</ele>
        <time>2018-07-08T09:27:04Z</time>
      </trkpt>
      <trkpt lat="45.96767" lon="4.87113">
        <ele>286</ele>
        <time>2018-07-08T09:27:05Z</time>
      </trkpt>
      <trkpt lat="45.96773" lon="4.87123">
        <ele>286</ele>
        <time>2018-07-08T09:27:07Z</time>
      </trkpt>
      <trkpt lat="45.96775" lon="4.87127">
        <ele>286</ele>
        <time>2018-07-08T09:27:08Z</time>
      </trkpt>
      <trkpt lat="45.96778" lon="4.87137">
        <ele>286</ele>
        <time>2018-07-08T09:27:10Z</time>
      </trkpt>
      <trkpt lat="45.96781" lon="4.87142">
        <ele>286</ele>
        <time>2018-07-08T09:27:11Z</time>
      </trkpt>
      <trkpt lat="45.96787" lon="4.87148">
        <ele>286</ele>
        <time>2018-07-08T09:27:13Z</time>
      </trkpt>
      <trkpt lat="45.96791" lon="4.87148">
        <ele>286</ele>
        <time>2018-07-08T09:27:14Z</time>
      </trkpt>
      <trkpt lat="45.96796" lon="4.87145">
        <ele>286</ele>
        <time>2018-07-08T09:27:15Z</time>
      </trkpt>
      <trkpt lat="45.96799" lon="4.87141">
        <ele>286</ele>
        <time>2018-07-08T09:27:16Z</time>
      </trkpt>
      <trkpt lat="45.96803" lon="4.8713">
        <ele>286</ele>
        <time>2018-07-08T09:27:18Z</time>
      </trkpt>
      <trkpt lat="45.96804" lon="4.87124">
        <ele>286</ele>
        <time>2018-07-08T09:27:19Z</time>
      </trkpt>
      <trkpt lat="45.96807" lon="4.87112">
        <ele>286</ele>
        <time>2018-07-08T09:27:21Z</time>
      </trkpt>
      <trkpt lat="45.96809" lon="4.87106">
        <ele>286</ele>
        <time>2018-07-08T09:27:22Z</time>
      </trkpt>
      <trkpt lat="45.96812" lon="4.87094">
        <ele>287</ele>
        <time>2018-07-08T09:27:24Z</time>
      </trkpt>
      <trkpt lat="45.96814" lon="4.87088">
        <ele>287</ele>
        <time>2018-07-08T09:27:25Z</time>
      </trkpt>
      <trkpt lat="45.96816" lon="4.87075">
        <ele>287</ele>
        <time>2018-07-08T09:27:27Z</time>
      </trkpt>
      <trkpt lat="45.96817" lon="4.87068">
        <ele>287</ele>
        <time>2018-07-08T09:27:28Z</time>
      </trkpt>
      <trkpt lat="45.9682" lon="4.87061">
        <ele>287</ele>
        <time>2018-07-08T09:27:29Z</time>
      </trkpt>
      <trkpt lat="45.96821" lon="4.87053">
        <ele>287</ele>
        <time>2018-07-08T09:27:30Z</time>
      </trkpt>
      <trkpt lat="45.96825" lon="4.87047">
        <ele>287</ele>
        <time>2018-07-08T09:27:31Z</time>
      </trkpt>
      <trkpt lat="45.96829" lon="4.87041">
        <ele>288</ele>
        <time>2018-07-08T09:27:32Z</time>
      </trkpt>
      <trkpt lat="45.96831" lon="4.8703">
        <ele>288</ele>
        <time>2018-07-08T09:27:35Z</time>
      </trkpt>
      <trkpt lat="45.96833" lon="4.8702">
        <ele>288</ele>
        <time>2018-07-08T09:27:36Z</time>
      </trkpt>
      <trkpt lat="45.96836" lon="4.87011">
        <ele>288</ele>
        <time>2018-07-08T09:27:38Z</time>
      </trkpt>
      <trkpt lat="45.96838" lon="4.87006">
        <ele>288</ele>
        <time>2018-07-08T09:27:39Z</time>
      </trkpt>
      <trkpt lat="45.96842" lon="4.86995">
        <ele>288</ele>
        <time>2018-07-08T09:27:41Z</time>
      </trkpt>
      <trkpt lat="45.96844" lon="4.86989">
        <ele>288</ele>
        <time>2018-07-08T09:27:42Z</time>
      </trkpt>
      <trkpt lat="45.96847" lon="4.86978">
        <ele>288</ele>
        <time>2018-07-08T09:27:44Z</time>
      </trkpt>
      <trkpt lat="45.96847" lon="4.86971">
        <ele>288</ele>
        <time>2018-07-08T09:27:45Z</time>
      </trkpt>
      <trkpt lat="45.96849" lon="4.86965">
        <ele>288</ele>
        <time>2018-07-08T09:27:46Z</time>
      </trkpt>
      <trkpt lat="45.96851" lon="4.86959">
        <ele>288</ele>
        <time>2018-07-08T09:27:47Z</time>
      </trkpt>
      <trkpt lat="45.96855" lon="4.86947">
        <ele>288</ele>
        <time>2018-07-08T09:27:49Z</time>
      </trkpt>
      <trkpt lat="45.96856" lon="4.86943">
        <ele>288</ele>
        <time>2018-07-08T09:27:50Z</time>
      </trkpt>
      <trkpt lat="45.96858" lon="4.86937">
        <ele>288</ele>
        <time>2018-07-08T09:27:51Z</time>
      </trkpt>
      <trkpt lat="45.96861" lon="4.8693">
        <ele>288</ele>
        <time>2018-07-08T09:27:52Z</time>
      </trkpt>
      <trkpt lat="45.96864" lon="4.86919">
        <ele>288</ele>
        <time>2018-07-08T09:27:54Z</time>
      </trkpt>
      <trkpt lat="45.96867" lon="4.86913">
        <ele>289</ele>
        <time>2018-07-08T09:27:55Z</time>
      </trkpt>
      <trkpt lat="45.96871" lon="4.86903">
        <ele>289</ele>
        <time>2018-07-08T09:27:57Z</time>
      </trkpt>
      <trkpt lat="45.96872" lon="4.86898">
        <ele>289</ele>
        <time>2018-07-08T09:27:58Z</time>
      </trkpt>
      <trkpt lat="45.96875" lon="4.86887">
        <ele>289</ele>
        <time>2018-07-08T09:28:00Z</time>
      </trkpt>
      <trkpt lat="45.96877" lon="4.8688">
        <ele>289</ele>
        <time>2018-07-08T09:28:01Z</time>
      </trkpt>
      <trkpt lat="45.9688" lon="4.86875">
        <ele>289</ele>
        <time>2018-07-08T09:28:02Z</time>
      </trkpt>
      <trkpt lat="45.96882" lon="4.8687">
        <ele>289</ele>
        <time>2018-07-08T09:28:03Z</time>
      </trkpt>
      <trkpt lat="45.96885" lon="4.86863">
        <ele>289</ele>
        <time>2018-07-08T09:28:04Z</time>
      </trkpt>
      <trkpt lat="45.96886" lon="4.86858">
        <ele>289</ele>
        <time>2018-07-08T09:28:05Z</time>
      </trkpt>
      <trkpt lat="45.96891" lon="4.86849">
        <ele>289</ele>
        <time>2018-07-08T09:28:07Z</time>
      </trkpt>
      <trkpt lat="45.96892" lon="4.86846">
        <ele>289</ele>
        <time>2018-07-08T09:28:08Z</time>
      </trkpt>
      <trkpt lat="45.96894" lon="4.86841">
        <ele>289</ele>
        <time>2018-07-08T09:28:10Z</time>
      </trkpt>
      <trkpt lat="45.96899" lon="4.86831">
        <ele>288</ele>
        <time>2018-07-08T09:28:11Z</time>
      </trkpt>
      <trkpt lat="45.96902" lon="4.86821">
        <ele>288</ele>
        <time>2018-07-08T09:28:15Z</time>
      </trkpt>
      <trkpt lat="45.96903" lon="4.86817">
        <ele>288</ele>
        <time>2018-07-08T09:28:16Z</time>
      </trkpt>
      <trkpt lat="45.96909" lon="4.86808">
        <ele>288</ele>
        <time>2018-07-08T09:28:19Z</time>
      </trkpt>
      <trkpt lat="45.96916" lon="4.86804">
        <ele>288</ele>
        <time>2018-07-08T09:28:20Z</time>
      </trkpt>
      <trkpt lat="45.9692" lon="4.86807">
        <ele>287</ele>
        <time>2018-07-08T09:28:21Z</time>
      </trkpt>
      <trkpt lat="45.96924" lon="4.8681">
        <ele>287</ele>
        <time>2018-07-08T09:28:22Z</time>
      </trkpt>
      <trkpt lat="45.96928" lon="4.86818">
        <ele>287</ele>
        <time>2018-07-08T09:28:23Z</time>
      </trkpt>
      <trkpt lat="45.96932" lon="4.86822">
        <ele>287</ele>
        <time>2018-07-08T09:28:24Z</time>
      </trkpt>
      <trkpt lat="45.96937" lon="4.86826">
        <ele>287</ele>
        <time>2018-07-08T09:28:25Z</time>
      </trkpt>
      <trkpt lat="45.96942" lon="4.8683">
        <ele>287</ele>
        <time>2018-07-08T09:28:26Z</time>
      </trkpt>
      <trkpt lat="45.96948" lon="4.86833">
        <ele>287</ele>
        <time>2018-07-08T09:28:27Z</time>
      </trkpt>
      <trkpt lat="45.96954" lon="4.86835">
        <ele>287</ele>
        <time>2018-07-08T09:28:28Z</time>
      </trkpt>
      <trkpt lat="45.9696" lon="4.86837">
        <ele>287</ele>
        <time>2018-07-08T09:28:29Z</time>
      </trkpt>
      <trkpt lat="45.96966" lon="4.86839">
        <ele>286</ele>
        <time>2018-07-08T09:28:30Z</time>
      </trkpt>
      <trkpt lat="45.96972" lon="4.86841">
        <ele>286</ele>
        <time>2018-07-08T09:28:31Z</time>
      </trkpt>
      <trkpt lat="45.96978" lon="4.86843">
        <ele>286</ele>
        <time>2018-07-08T09:28:32Z</time>
      </trkpt>
      <trkpt lat="45.96984" lon="4.86845">
        <ele>286</ele>
        <time>2018-07-08T09:28:33Z</time>
      </trkpt>
      <trkpt lat="45.96991" lon="4.86845">
        <ele>286</ele>
        <time>2018-07-08T09:28:34Z</time>
      </trkpt>
      <trkpt lat="45.96997" lon="4.86845">
        <ele>286</ele>
        <time>2018-07-08T09:28:35Z</time>
      </trkpt>
      <trkpt lat="45.97003" lon="4.86846">
        <ele>285</ele>
        <time>2018-07-08T09:28:36Z</time>
      </trkpt>
      <trkpt lat="45.97009" lon="4.86846">
        <ele>285</ele>
        <time>2018-07-08T09:28:37Z</time>
      </trkpt>
      <trkpt lat="45.97015" lon="4.86845">
        <ele>285</ele>
        <time>2018-07-08T09:28:38Z</time>
      </trkpt>
      <trkpt lat="45.9702" lon="4.86844">
        <ele>285</ele>
        <time>2018-07-08T09:28:39Z</time>
      </trkpt>
      <trkpt lat="45.97026" lon="4.86844">
        <ele>285</ele>
        <time>2018-07-08T09:28:40Z</time>
      </trkpt>
      <trkpt lat="45.97032" lon="4.86844">
        <ele>285</ele>
        <time>2018-07-08T09:28:41Z</time>
      </trkpt>
      <trkpt lat="45.97038" lon="4.86843">
        <ele>285</ele>
        <time>2018-07-08T09:28:42Z</time>
      </trkpt>
      <trkpt lat="45.97044" lon="4.86841">
        <ele>285</ele>
        <time>2018-07-08T09:28:43Z</time>
      </trkpt>
      <trkpt lat="45.97049" lon="4.86841">
        <ele>285</ele>
        <time>2018-07-08T09:28:44Z</time>
      </trkpt>
      <trkpt lat="45.97055" lon="4.86841">
        <ele>285</ele>
        <time>2018-07-08T09:28:45Z</time>
      </trkpt>
      <trkpt lat="45.97061" lon="4.8684">
        <ele>284</ele>
        <time>2018-07-08T09:28:46Z</time>
      </trkpt>
      <trkpt lat="45.97069" lon="4.86839">
        <ele>284</ele>
        <time>2018-07-08T09:28:47Z</time>
      </trkpt>
      <trkpt lat="45.97075" lon="4.86838">
        <ele>284</ele>
        <time>2018-07-08T09:28:48Z</time>
      </trkpt>
      <trkpt lat="45.97079" lon="4.86837">
        <ele>284</ele>
        <time>2018-07-08T09:28:49Z</time>
      </trkpt>
      <trkpt lat="45.97085" lon="4.86834">
        <ele>284</ele>
        <time>2018-07-08T09:28:50Z</time>
      </trkpt>
      <trkpt lat="45.9709" lon="4.86835">
        <ele>284</ele>
        <time>2018-07-08T09:28:51Z</time>
      </trkpt>
      <trkpt lat="45.97095" lon="4.86834">
        <ele>284</ele>
        <time>2018-07-08T09:28:52Z</time>
      </trkpt>
      <trkpt lat="45.971" lon="4.86833">
        <ele>284</ele>
        <time>2018-07-08T09:28:53Z</time>
      </trkpt>
      <trkpt lat="45.97105" lon="4.86832">
        <ele>284</ele>
        <time>2018-07-08T09:28:54Z</time>
      </trkpt>
      <trkpt lat="45.97111" lon="4.86831">
        <ele>283</ele>
        <time>2018-07-08T09:28:55Z</time>
      </trkpt>
      <trkpt lat="45.97117" lon="4.8683">
        <ele>283</ele>
        <time>2018-07-08T09:28:56Z</time>
      </trkpt>
      <trkpt lat="45.97121" lon="4.86829">
        <ele>283</ele>
        <time>2018-07-08T09:28:57Z</time>
      </trkpt>
      <trkpt lat="45.97125" lon="4.86827">
        <ele>283</ele>
        <time>2018-07-08T09:28:58Z</time>
      </trkpt>
      <trkpt lat="45.97133" lon="4.86825">
        <ele>283</ele>
        <time>2018-07-08T09:29:00Z</time>
      </trkpt>
      <trkpt lat="45.97138" lon="4.86822">
        <ele>283</ele>
        <time>2018-07-08T09:29:01Z</time>
      </trkpt>
      <trkpt lat="45.97145" lon="4.86819">
        <ele>283</ele>
        <time>2018-07-08T09:29:02Z</time>
      </trkpt>
      <trkpt lat="45.97152" lon="4.86816">
        <ele>283</ele>
        <time>2018-07-08T09:29:03Z</time>
      </trkpt>
      <trkpt lat="45.97158" lon="4.86814">
        <ele>283</ele>
        <time>2018-07-08T09:29:04Z</time>
      </trkpt>
      <trkpt lat="45.97162" lon="4.86808">
        <ele>283</ele>
        <time>2018-07-08T09:29:05Z</time>
      </trkpt>
      <trkpt lat="45.97166" lon="4.86806">
        <ele>283</ele>
        <time>2018-07-08T09:29:06Z</time>
      </trkpt>
      <trkpt lat="45.97171" lon="4.86804">
        <ele>283</ele>
        <time>2018-07-08T09:29:07Z</time>
      </trkpt>
      <trkpt lat="45.97176" lon="4.86802">
        <ele>283</ele>
        <time>2018-07-08T09:29:08Z</time>
      </trkpt>
      <trkpt lat="45.97181" lon="4.868">
        <ele>284</ele>
        <time>2018-07-08T09:29:09Z</time>
      </trkpt>
      <trkpt lat="45.97188" lon="4.86795">
        <ele>284</ele>
        <time>2018-07-08T09:29:11Z</time>
      </trkpt>
      <trkpt lat="45.97195" lon="4.86792">
        <ele>284</ele>
        <time>2018-07-08T09:29:12Z</time>
      </trkpt>
      <trkpt lat="45.97199" lon="4.86791">
        <ele>284</ele>
        <time>2018-07-08T09:29:13Z</time>
      </trkpt>
      <trkpt lat="45.97205" lon="4.8679">
        <ele>284</ele>
        <time>2018-07-08T09:29:14Z</time>
      </trkpt>
      <trkpt lat="45.97211" lon="4.86788">
        <ele>284</ele>
        <time>2018-07-08T09:29:15Z</time>
      </trkpt>
      <trkpt lat="45.97217" lon="4.86788">
        <ele>284</ele>
        <time>2018-07-08T09:29:16Z</time>
      </trkpt>
      <trkpt lat="45.97222" lon="4.86787">
        <ele>284</ele>
        <time>2018-07-08T09:29:17Z</time>
      </trkpt>
      <trkpt lat="45.97227" lon="4.86788">
        <ele>284</ele>
        <time>2018-07-08T09:29:18Z</time>
      </trkpt>
      <trkpt lat="45.97233" lon="4.86791">
        <ele>284</ele>
        <time>2018-07-08T09:29:19Z</time>
      </trkpt>
      <trkpt lat="45.97237" lon="4.86794">
        <ele>284</ele>
        <time>2018-07-08T09:29:20Z</time>
      </trkpt>
      <trkpt lat="45.97242" lon="4.86799">
        <ele>284</ele>
        <time>2018-07-08T09:29:21Z</time>
      </trkpt>
      <trkpt lat="45.97247" lon="4.86803">
        <ele>284</ele>
        <time>2018-07-08T09:29:22Z</time>
      </trkpt>
      <trkpt lat="45.9725" lon="4.86809">
        <ele>285</ele>
        <time>2018-07-08T09:29:23Z</time>
      </trkpt>
      <trkpt lat="45.97255" lon="4.86814">
        <ele>285</ele>
        <time>2018-07-08T09:29:24Z</time>
      </trkpt>
      <trkpt lat="45.97259" lon="4.86821">
        <ele>285</ele>
        <time>2018-07-08T09:29:25Z</time>
      </trkpt>
      <trkpt lat="45.97263" lon="4.86826">
        <ele>285</ele>
        <time>2018-07-08T09:29:26Z</time>
      </trkpt>
      <trkpt lat="45.97266" lon="4.86833">
        <ele>285</ele>
        <time>2018-07-08T09:29:27Z</time>
      </trkpt>
      <trkpt lat="45.9727" lon="4.86839">
        <ele>285</ele>
        <time>2018-07-08T09:29:28Z</time>
      </trkpt>
      <trkpt lat="45.97272" lon="4.86842">
        <ele>285</ele>
        <time>2018-07-08T09:29:29Z</time>
      </trkpt>
      <trkpt lat="45.97276" lon="4.86849">
        <ele>285</ele>
        <time>2018-07-08T09:29:30Z</time>
      </trkpt>
      <trkpt lat="45.9728" lon="4.86855">
        <ele>285</ele>
        <time>2018-07-08T09:29:31Z</time>
      </trkpt>
      <trkpt lat="45.97283" lon="4.86861">
        <ele>285</ele>
        <time>2018-07-08T09:29:32Z</time>
      </trkpt>
      <trkpt lat="45.97287" lon="4.86867">
        <ele>285</ele>
        <time>2018-07-08T09:29:33Z</time>
      </trkpt>
      <trkpt lat="45.97292" lon="4.86873">
        <ele>285</ele>
        <time>2018-07-08T09:29:34Z</time>
      </trkpt>
      <trkpt lat="45.97295" lon="4.86877">
        <ele>284</ele>
        <time>2018-07-08T09:29:35Z</time>
      </trkpt>
      <trkpt lat="45.973" lon="4.86882">
        <ele>284</ele>
        <time>2018-07-08T09:29:36Z</time>
      </trkpt>
      <trkpt lat="45.97306" lon="4.86892">
        <ele>284</ele>
        <time>2018-07-08T09:29:38Z</time>
      </trkpt>
      <trkpt lat="45.97311" lon="4.86895">
        <ele>284</ele>
        <time>2018-07-08T09:29:39Z</time>
      </trkpt>
      <trkpt lat="45.97316" lon="4.86899">
        <ele>284</ele>
        <time>2018-07-08T09:29:40Z</time>
      </trkpt>
      <trkpt lat="45.97319" lon="4.86905">
        <ele>284</ele>
        <time>2018-07-08T09:29:41Z</time>
      </trkpt>
      <trkpt lat="45.97323" lon="4.8691">
        <ele>284</ele>
        <time>2018-07-08T09:29:42Z</time>
      </trkpt>
      <trkpt lat="45.97327" lon="4.86916">
        <ele>284</ele>
        <time>2018-07-08T09:29:43Z</time>
      </trkpt>
      <trkpt lat="45.97331" lon="4.86922">
        <ele>284</ele>
        <time>2018-07-08T09:29:44Z</time>
      </trkpt>
      <trkpt lat="45.97336" lon="4.86928">
        <ele>284</ele>
        <time>2018-07-08T09:29:45Z</time>
      </trkpt>
      <trkpt lat="45.97341" lon="4.86934">
        <ele>284</ele>
        <time>2018-07-08T09:29:46Z</time>
      </trkpt>
      <trkpt lat="45.97346" lon="4.86941">
        <ele>284</ele>
        <time>2018-07-08T09:29:47Z</time>
      </trkpt>
      <trkpt lat="45.97351" lon="4.86948">
        <ele>284</ele>
        <time>2018-07-08T09:29:48Z</time>
      </trkpt>
      <trkpt lat="45.97355" lon="4.86954">
        <ele>284</ele>
        <time>2018-07-08T09:29:49Z</time>
      </trkpt>
      <trkpt lat="45.9736" lon="4.86962">
        <ele>285</ele>
        <time>2018-07-08T09:29:50Z</time>
      </trkpt>
      <trkpt lat="45.97367" lon="4.86968">
        <ele>285</ele>
        <time>2018-07-08T09:29:51Z</time>
      </trkpt>
      <trkpt lat="45.97372" lon="4.86973">
        <ele>285</ele>
        <time>2018-07-08T09:29:52Z</time>
      </trkpt>
      <trkpt lat="45.97378" lon="4.86976">
        <ele>285</ele>
        <time>2018-07-08T09:29:53Z</time>
      </trkpt>
      <trkpt lat="45.97382" lon="4.86983">
        <ele>285</ele>
        <time>2018-07-08T09:29:54Z</time>
      </trkpt>
      <trkpt lat="45.97387" lon="4.86987">
        <ele>285</ele>
        <time>2018-07-08T09:29:55Z</time>
      </trkpt>
      <trkpt lat="45.97391" lon="4.86992">
        <ele>285</ele>
        <time>2018-07-08T09:29:56Z</time>
      </trkpt>
      <trkpt lat="45.97395" lon="4.86998">
        <ele>285</ele>
        <time>2018-07-08T09:29:57Z</time>
      </trkpt>
      <trkpt lat="45.974" lon="4.87002">
        <ele>285</ele>
        <time>2018-07-08T09:29:58Z</time>
      </trkpt>
      <trkpt lat="45.97404" lon="4.87007">
        <ele>285</ele>
        <time>2018-07-08T09:29:59Z</time>
      </trkpt>
      <trkpt lat="45.97408" lon="4.87011">
        <ele>285</ele>
        <time>2018-07-08T09:30:00Z</time>
      </trkpt>
      <trkpt lat="45.97412" lon="4.87016">
        <ele>285</ele>
        <time>2018-07-08T09:30:01Z</time>
      </trkpt>
      <trkpt lat="45.97416" lon="4.8702">
        <ele>285</ele>
        <time>2018-07-08T09:30:02Z</time>
      </trkpt>
      <trkpt lat="45.97419" lon="4.87024">
        <ele>284</ele>
        <time>2018-07-08T09:30:03Z</time>
      </trkpt>
      <trkpt lat="45.97425" lon="4.87028">
        <ele>284</ele>
        <time>2018-07-08T09:30:04Z</time>
      </trkpt>
      <trkpt lat="45.9743" lon="4.87031">
        <ele>284</ele>
        <time>2018-07-08T09:30:05Z</time>
      </trkpt>
      <trkpt lat="45.97433" lon="4.87037">
        <ele>284</ele>
        <time>2018-07-08T09:30:06Z</time>
      </trkpt>
      <trkpt lat="45.97437" lon="4.87041">
        <ele>284</ele>
        <time>2018-07-08T09:30:07Z</time>
      </trkpt>
      <trkpt lat="45.9744" lon="4.87045">
        <ele>284</ele>
        <time>2018-07-08T09:30:08Z</time>
      </trkpt>
      <trkpt lat="45.97444" lon="4.87049">
        <ele>284</ele>
        <time>2018-07-08T09:30:09Z</time>
      </trkpt>
      <trkpt lat="45.97448" lon="4.87052">
        <ele>284</ele>
        <time>2018-07-08T09:30:10Z</time>
      </trkpt>
      <trkpt lat="45.97452" lon="4.87057">
        <ele>284</ele>
        <time>2018-07-08T09:30:11Z</time>
      </trkpt>
      <trkpt lat="45.97456" lon="4.87062">
        <ele>284</ele>
        <time>2018-07-08T09:30:12Z</time>
      </trkpt>
      <trkpt lat="45.97461" lon="4.87067">
        <ele>284</ele>
        <time>2018-07-08T09:30:13Z</time>
      </trkpt>
      <trkpt lat="45.97465" lon="4.87071">
        <ele>284</ele>
        <time>2018-07-08T09:30:14Z</time>
      </trkpt>
      <trkpt lat="45.97469" lon="4.87076">
        <ele>284</ele>
        <time>2018-07-08T09:30:15Z</time>
      </trkpt>
      <trkpt lat="45.97473" lon="4.8708">
        <ele>284</ele>
        <time>2018-07-08T09:30:16Z</time>
      </trkpt>
      <trkpt lat="45.97479" lon="4.87084">
        <ele>283</ele>
        <time>2018-07-08T09:30:17Z</time>
      </trkpt>
      <trkpt lat="45.97483" lon="4.87089">
        <ele>283</ele>
        <time>2018-07-08T09:30:18Z</time>
      </trkpt>
      <trkpt lat="45.97487" lon="4.87094">
        <ele>283</ele>
        <time>2018-07-08T09:30:19Z</time>
      </trkpt>
      <trkpt lat="45.97492" lon="4.87098">
        <ele>283</ele>
        <time>2018-07-08T09:30:20Z</time>
      </trkpt>
      <trkpt lat="45.97496" lon="4.87103">
        <ele>283</ele>
        <time>2018-07-08T09:30:21Z</time>
      </trkpt>
      <trkpt lat="45.975" lon="4.87107">
        <ele>283</ele>
        <time>2018-07-08T09:30:22Z</time>
      </trkpt>
      <trkpt lat="45.97504" lon="4.87111">
        <ele>283</ele>
        <time>2018-07-08T09:30:23Z</time>
      </trkpt>
      <trkpt lat="45.97506" lon="4.87116">
        <ele>283</ele>
        <time>2018-07-08T09:30:24Z</time>
      </trkpt>
      <trkpt lat="45.9751" lon="4.87121">
        <ele>283</ele>
        <time>2018-07-08T09:30:25Z</time>
      </trkpt>
      <trkpt lat="45.97514" lon="4.87127">
        <ele>283</ele>
        <time>2018-07-08T09:30:26Z</time>
      </trkpt>
      <trkpt lat="45.97518" lon="4.87132">
        <ele>283</ele>
        <time>2018-07-08T09:30:27Z</time>
      </trkpt>
      <trkpt lat="45.97523" lon="4.87137">
        <ele>283</ele>
        <time>2018-07-08T09:30:28Z</time>
      </trkpt>
      <trkpt lat="45.97528" lon="4.87138">
        <ele>283</ele>
        <time>2018-07-08T09:30:29Z</time>
      </trkpt>
      <trkpt lat="45.97533" lon="4.87143">
        <ele>283</ele>
        <time>2018-07-08T09:30:30Z</time>
      </trkpt>
      <trkpt lat="45.97538" lon="4.87146">
        <ele>283</ele>
        <time>2018-07-08T09:30:31Z</time>
      </trkpt>
      <trkpt lat="45.97544" lon="4.87152">
        <ele>283</ele>
        <time>2018-07-08T09:30:32Z</time>
      </trkpt>
      <trkpt lat="45.97549" lon="4.87156">
        <ele>283</ele>
        <time>2018-07-08T09:30:33Z</time>
      </trkpt>
      <trkpt lat="45.97554" lon="4.87162">
        <ele>283</ele>
        <time>2018-07-08T09:30:34Z</time>
      </trkpt>
      <trkpt lat="45.9756" lon="4.87166">
        <ele>283</ele>
        <time>2018-07-08T09:30:35Z</time>
      </trkpt>
      <trkpt lat="45.97564" lon="4.8717">
        <ele>283</ele>
        <time>2018-07-08T09:30:36Z</time>
      </trkpt>
      <trkpt lat="45.97567" lon="4.87174">
        <ele>283</ele>
        <time>2018-07-08T09:30:37Z</time>
      </trkpt>
      <trkpt lat="45.97568" lon="4.87179">
        <ele>283</ele>
        <time>2018-07-08T09:30:38Z</time>
      </trkpt>
      <trkpt lat="45.97573" lon="4.87184">
        <ele>283</ele>
        <time>2018-07-08T09:30:39Z</time>
      </trkpt>
      <trkpt lat="45.97578" lon="4.87192">
        <ele>283</ele>
        <time>2018-07-08T09:30:41Z</time>
      </trkpt>
      <trkpt lat="45.97584" lon="4.87195">
        <ele>283</ele>
        <time>2018-07-08T09:30:42Z</time>
      </trkpt>
      <trkpt lat="45.97588" lon="4.872">
        <ele>283</ele>
        <time>2018-07-08T09:30:43Z</time>
      </trkpt>
      <trkpt lat="45.97594" lon="4.87203">
        <ele>283</ele>
        <time>2018-07-08T09:30:44Z</time>
      </trkpt>
      <trkpt lat="45.976" lon="4.87206">
        <ele>284</ele>
        <time>2018-07-08T09:30:45Z</time>
      </trkpt>
      <trkpt lat="45.97604" lon="4.8721">
        <ele>284</ele>
        <time>2018-07-08T09:30:46Z</time>
      </trkpt>
      <trkpt lat="45.97606" lon="4.87214">
        <ele>284</ele>
        <time>2018-07-08T09:30:47Z</time>
      </trkpt>
      <trkpt lat="45.97612" lon="4.87219">
        <ele>284</ele>
        <time>2018-07-08T09:30:48Z</time>
      </trkpt>
      <trkpt lat="45.97618" lon="4.87227">
        <ele>284</ele>
        <time>2018-07-08T09:30:50Z</time>
      </trkpt>
      <trkpt lat="45.97623" lon="4.87231">
        <ele>284</ele>
        <time>2018-07-08T09:30:51Z</time>
      </trkpt>
      <trkpt lat="45.97628" lon="4.87234">
        <ele>284</ele>
        <time>2018-07-08T09:30:52Z</time>
      </trkpt>
      <trkpt lat="45.97632" lon="4.87238">
        <ele>284</ele>
        <time>2018-07-08T09:30:53Z</time>
      </trkpt>
      <trkpt lat="45.97638" lon="4.87246">
        <ele>284</ele>
        <time>2018-07-08T09:30:55Z</time>
      </trkpt>
      <trkpt lat="45.97643" lon="4.8725">
        <ele>285</ele>
        <time>2018-07-08T09:30:56Z</time>
      </trkpt>
      <trkpt lat="45.97647" lon="4.87255">
        <ele>285</ele>
        <time>2018-07-08T09:30:57Z</time>
      </trkpt>
      <trkpt lat="45.97652" lon="4.8726">
        <ele>285</ele>
        <time>2018-07-08T09:30:58Z</time>
      </trkpt>
      <trkpt lat="45.97658" lon="4.87264">
        <ele>285</ele>
        <time>2018-07-08T09:30:59Z</time>
      </trkpt>
      <trkpt lat="45.97663" lon="4.87269">
        <ele>285</ele>
        <time>2018-07-08T09:31:00Z</time>
      </trkpt>
      <trkpt lat="45.9767" lon="4.87276">
        <ele>286</ele>
        <time>2018-07-08T09:31:02Z</time>
      </trkpt>
      <trkpt lat="45.97675" lon="4.8728">
        <ele>286</ele>
        <time>2018-07-08T09:31:03Z</time>
      </trkpt>
      <trkpt lat="45.97679" lon="4.87285">
        <ele>286</ele>
        <time>2018-07-08T09:31:04Z</time>
      </trkpt>
      <trkpt lat="45.97683" lon="4.87291">
        <ele>286</ele>
        <time>2018-07-08T09:31:05Z</time>
      </trkpt>
      <trkpt lat="45.97687" lon="4.87295">
        <ele>286</ele>
        <time>2018-07-08T09:31:06Z</time>
      </trkpt>
      <trkpt lat="45.97691" lon="4.87298">
        <ele>286</ele>
        <time>2018-07-08T09:31:07Z</time>
      </trkpt>
      <trkpt lat="45.97695" lon="4.87303">
        <ele>286</ele>
        <time>2018-07-08T09:31:08Z</time>
      </trkpt>
      <trkpt lat="45.97699" lon="4.87308">
        <ele>286</ele>
        <time>2018-07-08T09:31:09Z</time>
      </trkpt>
      <trkpt lat="45.97703" lon="4.87312">
        <ele>286</ele>
        <time>2018-07-08T09:31:10Z</time>
      </trkpt>
      <trkpt lat="45.97706" lon="4.87319">
        <ele>286</ele>
        <time>2018-07-08T09:31:11Z</time>
      </trkpt>
      <trkpt lat="45.97711" lon="4.87324">
        <ele>286</ele>
        <time>2018-07-08T09:31:12Z</time>
      </trkpt>
      <trkpt lat="45.97715" lon="4.87329">
        <ele>286</ele>
        <time>2018-07-08T09:31:13Z</time>
      </trkpt>
      <trkpt lat="45.9772" lon="4.87335">
        <ele>285</ele>
        <time>2018-07-08T09:31:14Z</time>
      </trkpt>
      <trkpt lat="45.97725" lon="4.8734">
        <ele>285</ele>
        <time>2018-07-08T09:31:15Z</time>
      </trkpt>
      <trkpt lat="45.97728" lon="4.87344">
        <ele>286</ele>
        <time>2018-07-08T09:31:16Z</time>
      </trkpt>
      <trkpt lat="45.97731" lon="4.8735">
        <ele>285</ele>
        <time>2018-07-08T09:31:17Z</time>
      </trkpt>
      <trkpt lat="45.97733" lon="4.87357">
        <ele>285</ele>
        <time>2018-07-08T09:31:18Z</time>
      </trkpt>
      <trkpt lat="45.97737" lon="4.87363">
        <ele>285</ele>
        <time>2018-07-08T09:31:19Z</time>
      </trkpt>
      <trkpt lat="45.97743" lon="4.87368">
        <ele>285</ele>
        <time>2018-07-08T09:31:20Z</time>
      </trkpt>
      <trkpt lat="45.97748" lon="4.87374">
        <ele>285</ele>
        <time>2018-07-08T09:31:21Z</time>
      </trkpt>
      <trkpt lat="45.97752" lon="4.87379">
        <ele>285</ele>
        <time>2018-07-08T09:31:22Z</time>
      </trkpt>
      <trkpt lat="45.97754" lon="4.87384">
        <ele>284</ele>
        <time>2018-07-08T09:31:23Z</time>
      </trkpt>
      <trkpt lat="45.97757" lon="4.87391">
        <ele>284</ele>
        <time>2018-07-08T09:31:24Z</time>
      </trkpt>
      <trkpt lat="45.97763" lon="4.87398">
        <ele>284</ele>
        <time>2018-07-08T09:31:25Z</time>
      </trkpt>
      <trkpt lat="45.97768" lon="4.87403">
        <ele>284</ele>
        <time>2018-07-08T09:31:26Z</time>
      </trkpt>
      <trkpt lat="45.97775" lon="4.87409">
        <ele>284</ele>
        <time>2018-07-08T09:31:27Z</time>
      </trkpt>
      <trkpt lat="45.97779" lon="4.87414">
        <ele>284</ele>
        <time>2018-07-08T09:31:28Z</time>
      </trkpt>
      <trkpt lat="45.97786" lon="4.87418">
        <ele>283</ele>
        <time>2018-07-08T09:31:29Z</time>
      </trkpt>
      <trkpt lat="45.9779" lon="4.87424">
        <ele>283</ele>
        <time>2018-07-08T09:31:30Z</time>
      </trkpt>
      <trkpt lat="45.97795" lon="4.87429">
        <ele>283</ele>
        <time>2018-07-08T09:31:31Z</time>
      </trkpt>
      <trkpt lat="45.978" lon="4.87434">
        <ele>283</ele>
        <time>2018-07-08T09:31:32Z</time>
      </trkpt>
      <trkpt lat="45.97805" lon="4.87439">
        <ele>282</ele>
        <time>2018-07-08T09:31:33Z</time>
      </trkpt>
      <trkpt lat="45.97811" lon="4.87444">
        <ele>282</ele>
        <time>2018-07-08T09:31:34Z</time>
      </trkpt>
      <trkpt lat="45.97816" lon="4.8745">
        <ele>282</ele>
        <time>2018-07-08T09:31:35Z</time>
      </trkpt>
      <trkpt lat="45.9782" lon="4.87455">
        <ele>282</ele>
        <time>2018-07-08T09:31:36Z</time>
      </trkpt>
      <trkpt lat="45.97825" lon="4.8746">
        <ele>282</ele>
        <time>2018-07-08T09:31:37Z</time>
      </trkpt>
      <trkpt lat="45.9783" lon="4.87466">
        <ele>282</ele>
        <time>2018-07-08T09:31:38Z</time>
      </trkpt>
      <trkpt lat="45.97835" lon="4.87472">
        <ele>281</ele>
        <time>2018-07-08T09:31:39Z</time>
      </trkpt>
      <trkpt lat="45.97841" lon="4.87477">
        <ele>281</ele>
        <time>2018-07-08T09:31:40Z</time>
      </trkpt>
      <trkpt lat="45.97845" lon="4.87483">
        <ele>281</ele>
        <time>2018-07-08T09:31:41Z</time>
      </trkpt>
      <trkpt lat="45.9785" lon="4.87489">
        <ele>281</ele>
        <time>2018-07-08T09:31:42Z</time>
      </trkpt>
      <trkpt lat="45.97855" lon="4.87493">
        <ele>281</ele>
        <time>2018-07-08T09:31:43Z</time>
      </trkpt>
      <trkpt lat="45.97859" lon="4.87498">
        <ele>281</ele>
        <time>2018-07-08T09:31:44Z</time>
      </trkpt>
      <trkpt lat="45.97864" lon="4.87503">
        <ele>281</ele>
        <time>2018-07-08T09:31:45Z</time>
      </trkpt>
      <trkpt lat="45.9787" lon="4.87508">
        <ele>281</ele>
        <time>2018-07-08T09:31:46Z</time>
      </trkpt>
      <trkpt lat="45.97877" lon="4.87512">
        <ele>281</ele>
        <time>2018-07-08T09:31:47Z</time>
      </trkpt>
      <trkpt lat="45.97882" lon="4.87512">
        <ele>281</ele>
        <time>2018-07-08T09:31:48Z</time>
      </trkpt>
      <trkpt lat="45.97888" lon="4.87514">
        <ele>281</ele>
        <time>2018-07-08T09:31:49Z</time>
      </trkpt>
      <trkpt lat="45.97893" lon="4.87519">
        <ele>280</ele>
        <time>2018-07-08T09:31:50Z</time>
      </trkpt>
      <trkpt lat="45.97898" lon="4.87522">
        <ele>280</ele>
        <time>2018-07-08T09:31:51Z</time>
      </trkpt>
      <trkpt lat="45.97904" lon="4.87522">
        <ele>280</ele>
        <time>2018-07-08T09:31:52Z</time>
      </trkpt>
      <trkpt lat="45.9791" lon="4.87523">
        <ele>280</ele>
        <time>2018-07-08T09:31:53Z</time>
      </trkpt>
      <trkpt lat="45.9792" lon="4.87526">
        <ele>279</ele>
        <time>2018-07-08T09:31:54Z</time>
      </trkpt>
      <trkpt lat="45.97926" lon="4.87529">
        <ele>279</ele>
        <time>2018-07-08T09:31:55Z</time>
      </trkpt>
      <trkpt lat="45.9793" lon="4.8753">
        <ele>279</ele>
        <time>2018-07-08T09:31:56Z</time>
      </trkpt>
      <trkpt lat="45.97936" lon="4.87533">
        <ele>279</ele>
        <time>2018-07-08T09:31:57Z</time>
      </trkpt>
      <trkpt lat="45.97941" lon="4.87535">
        <ele>279</ele>
        <time>2018-07-08T09:31:58Z</time>
      </trkpt>
      <trkpt lat="45.97948" lon="4.87538">
        <ele>279</ele>
        <time>2018-07-08T09:31:59Z</time>
      </trkpt>
      <trkpt lat="45.97953" lon="4.87542">
        <ele>279</ele>
        <time>2018-07-08T09:32:00Z</time>
      </trkpt>
      <trkpt lat="45.97957" lon="4.87545">
        <ele>279</ele>
        <time>2018-07-08T09:32:01Z</time>
      </trkpt>
      <trkpt lat="45.97963" lon="4.87551">
        <ele>279</ele>
        <time>2018-07-08T09:32:02Z</time>
      </trkpt>
      <trkpt lat="45.97969" lon="4.87556">
        <ele>279</ele>
        <time>2018-07-08T09:32:03Z</time>
      </trkpt>
      <trkpt lat="45.97974" lon="4.87559">
        <ele>279</ele>
        <time>2018-07-08T09:32:04Z</time>
      </trkpt>
      <trkpt lat="45.97979" lon="4.87564">
        <ele>279</ele>
        <time>2018-07-08T09:32:05Z</time>
      </trkpt>
      <trkpt lat="45.9798" lon="4.87572">
        <ele>279</ele>
        <time>2018-07-08T09:32:06Z</time>
      </trkpt>
      <trkpt lat="45.97982" lon="4.87578">
        <ele>280</ele>
        <time>2018-07-08T09:32:07Z</time>
      </trkpt>
      <trkpt lat="45.97985" lon="4.87584">
        <ele>280</ele>
        <time>2018-07-08T09:32:08Z</time>
      </trkpt>
      <trkpt lat="45.97987" lon="4.87589">
        <ele>280</ele>
        <time>2018-07-08T09:32:09Z</time>
      </trkpt>
      <trkpt lat="45.97992" lon="4.87596">
        <ele>280</ele>
        <time>2018-07-08T09:32:10Z</time>
      </trkpt>
      <trkpt lat="45.97996" lon="4.87602">
        <ele>280</ele>
        <time>2018-07-08T09:32:11Z</time>
      </trkpt>
      <trkpt lat="45.98" lon="4.87606">
        <ele>280</ele>
        <time>2018-07-08T09:32:12Z</time>
      </trkpt>
      <trkpt lat="45.98003" lon="4.87612">
        <ele>280</ele>
        <time>2018-07-08T09:32:13Z</time>
      </trkpt>
      <trkpt lat="45.98004" lon="4.87621">
        <ele>280</ele>
        <time>2018-07-08T09:32:14Z</time>
      </trkpt>
      <trkpt lat="45.98005" lon="4.87628">
        <ele>280</ele>
        <time>2018-07-08T09:32:15Z</time>
      </trkpt>
      <trkpt lat="45.98008" lon="4.87636">
        <ele>280</ele>
        <time>2018-07-08T09:32:16Z</time>
      </trkpt>
      <trkpt lat="45.98009" lon="4.87643">
        <ele>280</ele>
        <time>2018-07-08T09:32:17Z</time>
      </trkpt>
      <trkpt lat="45.98011" lon="4.87651">
        <ele>280</ele>
        <time>2018-07-08T09:32:18Z</time>
      </trkpt>
      <trkpt lat="45.98015" lon="4.87659">
        <ele>280</ele>
        <time>2018-07-08T09:32:19Z</time>
      </trkpt>
      <trkpt lat="45.98016" lon="4.87665">
        <ele>280</ele>
        <time>2018-07-08T09:32:20Z</time>
      </trkpt>
      <trkpt lat="45.98018" lon="4.87672">
        <ele>280</ele>
        <time>2018-07-08T09:32:21Z</time>
      </trkpt>
      <trkpt lat="45.9802" lon="4.8768">
        <ele>280</ele>
        <time>2018-07-08T09:32:22Z</time>
      </trkpt>
      <trkpt lat="45.98025" lon="4.87685">
        <ele>280</ele>
        <time>2018-07-08T09:32:23Z</time>
      </trkpt>
      <trkpt lat="45.98027" lon="4.87692">
        <ele>280</ele>
        <time>2018-07-08T09:32:24Z</time>
      </trkpt>
      <trkpt lat="45.98029" lon="4.87698">
        <ele>280</ele>
        <time>2018-07-08T09:32:25Z</time>
      </trkpt>
      <trkpt lat="45.98031" lon="4.87705">
        <ele>280</ele>
        <time>2018-07-08T09:32:26Z</time>
      </trkpt>
      <trkpt lat="45.98033" lon="4.87712">
        <ele>279</ele>
        <time>2018-07-08T09:32:27Z</time>
      </trkpt>
      <trkpt lat="45.98035" lon="4.8772">
        <ele>279</ele>
        <time>2018-07-08T09:32:28Z</time>
      </trkpt>
      <trkpt lat="45.98037" lon="4.87727">
        <ele>279</ele>
        <time>2018-07-08T09:32:29Z</time>
      </trkpt>
      <trkpt lat="45.9804" lon="4.87734">
        <ele>279</ele>
        <time>2018-07-08T09:32:30Z</time>
      </trkpt>
      <trkpt lat="45.98041" lon="4.8774">
        <ele>279</ele>
        <time>2018-07-08T09:32:31Z</time>
      </trkpt>
      <trkpt lat="45.98043" lon="4.87747">
        <ele>280</ele>
        <time>2018-07-08T09:32:32Z</time>
      </trkpt>
      <trkpt lat="45.98045" lon="4.87754">
        <ele>280</ele>
        <time>2018-07-08T09:32:33Z</time>
      </trkpt>
      <trkpt lat="45.98047" lon="4.87761">
        <ele>280</ele>
        <time>2018-07-08T09:32:34Z</time>
      </trkpt>
      <trkpt lat="45.9805" lon="4.87769">
        <ele>280</ele>
        <time>2018-07-08T09:32:35Z</time>
      </trkpt>
      <trkpt lat="45.98051" lon="4.87777">
        <ele>280</ele>
        <time>2018-07-08T09:32:36Z</time>
      </trkpt>
      <trkpt lat="45.98054" lon="4.87785">
        <ele>280</ele>
        <time>2018-07-08T09:32:37Z</time>
      </trkpt>
      <trkpt lat="45.98056" lon="4.87794">
        <ele>280</ele>
        <time>2018-07-08T09:32:38Z</time>
      </trkpt>
      <trkpt lat="45.98058" lon="4.87802">
        <ele>280</ele>
        <time>2018-07-08T09:32:39Z</time>
      </trkpt>
      <trkpt lat="45.98062" lon="4.87809">
        <ele>280</ele>
        <time>2018-07-08T09:32:40Z</time>
      </trkpt>
      <trkpt lat="45.98063" lon="4.87817">
        <ele>280</ele>
        <time>2018-07-08T09:32:41Z</time>
      </trkpt>
      <trkpt lat="45.98065" lon="4.87825">
        <ele>279</ele>
        <time>2018-07-08T09:32:42Z</time>
      </trkpt>
      <trkpt lat="45.98068" lon="4.87832">
        <ele>279</ele>
        <time>2018-07-08T09:32:43Z</time>
      </trkpt>
      <trkpt lat="45.98071" lon="4.87839">
        <ele>279</ele>
        <time>2018-07-08T09:32:44Z</time>
      </trkpt>
      <trkpt lat="45.98073" lon="4.87846">
        <ele>280</ele>
        <time>2018-07-08T09:32:45Z</time>
      </trkpt>
      <trkpt lat="45.98075" lon="4.87853">
        <ele>280</ele>
        <time>2018-07-08T09:32:46Z</time>
      </trkpt>
      <trkpt lat="45.98078" lon="4.8786">
        <ele>280</ele>
        <time>2018-07-08T09:32:47Z</time>
      </trkpt>
      <trkpt lat="45.9808" lon="4.87868">
        <ele>280</ele>
        <time>2018-07-08T09:32:48Z</time>
      </trkpt>
      <trkpt lat="45.98081" lon="4.87876">
        <ele>280</ele>
        <time>2018-07-08T09:32:49Z</time>
      </trkpt>
      <trkpt lat="45.98085" lon="4.87885">
        <ele>278</ele>
        <time>2018-07-08T09:32:50Z</time>
      </trkpt>
      <trkpt lat="45.98087" lon="4.87894">
        <ele>278</ele>
        <time>2018-07-08T09:32:51Z</time>
      </trkpt>
      <trkpt lat="45.98091" lon="4.87902">
        <ele>278</ele>
        <time>2018-07-08T09:32:52Z</time>
      </trkpt>
      <trkpt lat="45.98093" lon="4.8791">
        <ele>278</ele>
        <time>2018-07-08T09:32:53Z</time>
      </trkpt>
      <trkpt lat="45.98096" lon="4.87918">
        <ele>278</ele>
        <time>2018-07-08T09:32:54Z</time>
      </trkpt>
      <trkpt lat="45.98097" lon="4.87925">
        <ele>278</ele>
        <time>2018-07-08T09:32:55Z</time>
      </trkpt>
      <trkpt lat="45.981" lon="4.87933">
        <ele>277</ele>
        <time>2018-07-08T09:32:56Z</time>
      </trkpt>
      <trkpt lat="45.98103" lon="4.8794">
        <ele>277</ele>
        <time>2018-07-08T09:32:57Z</time>
      </trkpt>
      <trkpt lat="45.98105" lon="4.87948">
        <ele>277</ele>
        <time>2018-07-08T09:32:58Z</time>
      </trkpt>
      <trkpt lat="45.98108" lon="4.87956">
        <ele>277</ele>
        <time>2018-07-08T09:32:59Z</time>
      </trkpt>
      <trkpt lat="45.98111" lon="4.87963">
        <ele>277</ele>
        <time>2018-07-08T09:33:00Z</time>
      </trkpt>
      <trkpt lat="45.98113" lon="4.87971">
        <ele>277</ele>
        <time>2018-07-08T09:33:01Z</time>
      </trkpt>
      <trkpt lat="45.98116" lon="4.87979">
        <ele>277</ele>
        <time>2018-07-08T09:33:02Z</time>
      </trkpt>
      <trkpt lat="45.9812" lon="4.87987">
        <ele>277</ele>
        <time>2018-07-08T09:33:03Z</time>
      </trkpt>
      <trkpt lat="45.98122" lon="4.87995">
        <ele>277</ele>
        <time>2018-07-08T09:33:04Z</time>
      </trkpt>
      <trkpt lat="45.98124" lon="4.88002">
        <ele>276</ele>
        <time>2018-07-08T09:33:05Z</time>
      </trkpt>
      <trkpt lat="45.98125" lon="4.8801">
        <ele>276</ele>
        <time>2018-07-08T09:33:06Z</time>
      </trkpt>
      <trkpt lat="45.98128" lon="4.88018">
        <ele>276</ele>
        <time>2018-07-08T09:33:07Z</time>
      </trkpt>
      <trkpt lat="45.9813" lon="4.88026">
        <ele>276</ele>
        <time>2018-07-08T09:33:08Z</time>
      </trkpt>
      <trkpt lat="45.98133" lon="4.88034">
        <ele>276</ele>
        <time>2018-07-08T09:33:09Z</time>
      </trkpt>
      <trkpt lat="45.98134" lon="4.88041">
        <ele>276</ele>
        <time>2018-07-08T09:33:10Z</time>
      </trkpt>
      <trkpt lat="45.98136" lon="4.88049">
        <ele>275</ele>
        <time>2018-07-08T09:33:11Z</time>
      </trkpt>
      <trkpt lat="45.98138" lon="4.88057">
        <ele>275</ele>
        <time>2018-07-08T09:33:12Z</time>
      </trkpt>
      <trkpt lat="45.9814" lon="4.88065">
        <ele>275</ele>
        <time>2018-07-08T09:33:13Z</time>
      </trkpt>
      <trkpt lat="45.98143" lon="4.88074">
        <ele>275</ele>
        <time>2018-07-08T09:33:14Z</time>
      </trkpt>
      <trkpt lat="45.98145" lon="4.88081">
        <ele>275</ele>
        <time>2018-07-08T09:33:15Z</time>
      </trkpt>
      <trkpt lat="45.98148" lon="4.88089">
        <ele>274</ele>
        <time>2018-07-08T09:33:16Z</time>
      </trkpt>
      <trkpt lat="45.9815" lon="4.88097">
        <ele>274</ele>
        <time>2018-07-08T09:33:17Z</time>
      </trkpt>
      <trkpt lat="45.98153" lon="4.88106">
        <ele>274</ele>
        <time>2018-07-08T09:33:18Z</time>
      </trkpt>
      <trkpt lat="45.98155" lon="4.88115">
        <ele>274</ele>
        <time>2018-07-08T09:33:19Z</time>
      </trkpt>
      <trkpt lat="45.98156" lon="4.88124">
        <ele>274</ele>
        <time>2018-07-08T09:33:20Z</time>
      </trkpt>
      <trkpt lat="45.98159" lon="4.88133">
        <ele>274</ele>
        <time>2018-07-08T09:33:21Z</time>
      </trkpt>
      <trkpt lat="45.98159" lon="4.88141">
        <ele>274</ele>
        <time>2018-07-08T09:33:22Z</time>
      </trkpt>
      <trkpt lat="45.98162" lon="4.88151">
        <ele>274</ele>
        <time>2018-07-08T09:33:23Z</time>
      </trkpt>
      <trkpt lat="45.98166" lon="4.8816">
        <ele>273</ele>
        <time>2018-07-08T09:33:24Z</time>
      </trkpt>
      <trkpt lat="45.98168" lon="4.88169">
        <ele>273</ele>
        <time>2018-07-08T09:33:25Z</time>
      </trkpt>
      <trkpt lat="45.9817" lon="4.88177">
        <ele>273</ele>
        <time>2018-07-08T09:33:26Z</time>
      </trkpt>
      <trkpt lat="45.98172" lon="4.88185">
        <ele>273</ele>
        <time>2018-07-08T09:33:27Z</time>
      </trkpt>
      <trkpt lat="45.98175" lon="4.88194">
        <ele>273</ele>
        <time>2018-07-08T09:33:28Z</time>
      </trkpt>
      <trkpt lat="45.98177" lon="4.88203">
        <ele>273</ele>
        <time>2018-07-08T09:33:29Z</time>
      </trkpt>
      <trkpt lat="45.9818" lon="4.88211">
        <ele>273</ele>
        <time>2018-07-08T09:33:30Z</time>
      </trkpt>
      <trkpt lat="45.98183" lon="4.88218">
        <ele>273</ele>
        <time>2018-07-08T09:33:31Z</time>
      </trkpt>
      <trkpt lat="45.98185" lon="4.88225">
        <ele>273</ele>
        <time>2018-07-08T09:33:32Z</time>
      </trkpt>
      <trkpt lat="45.98188" lon="4.88233">
        <ele>273</ele>
        <time>2018-07-08T09:33:33Z</time>
      </trkpt>
      <trkpt lat="45.98191" lon="4.88241">
        <ele>273</ele>
        <time>2018-07-08T09:33:34Z</time>
      </trkpt>
      <trkpt lat="45.98193" lon="4.88248">
        <ele>273</ele>
        <time>2018-07-08T09:33:35Z</time>
      </trkpt>
      <trkpt lat="45.98195" lon="4.88255">
        <ele>274</ele>
        <time>2018-07-08T09:33:36Z</time>
      </trkpt>
      <trkpt lat="45.98196" lon="4.88261">
        <ele>274</ele>
        <time>2018-07-08T09:33:37Z</time>
      </trkpt>
      <trkpt lat="45.98198" lon="4.88269">
        <ele>274</ele>
        <time>2018-07-08T09:33:38Z</time>
      </trkpt>
      <trkpt lat="45.98199" lon="4.88277">
        <ele>274</ele>
        <time>2018-07-08T09:33:39Z</time>
      </trkpt>
      <trkpt lat="45.982" lon="4.88286">
        <ele>274</ele>
        <time>2018-07-08T09:33:40Z</time>
      </trkpt>
      <trkpt lat="45.98203" lon="4.88292">
        <ele>274</ele>
        <time>2018-07-08T09:33:41Z</time>
      </trkpt>
      <trkpt lat="45.98203" lon="4.88299">
        <ele>274</ele>
        <time>2018-07-08T09:33:42Z</time>
      </trkpt>
      <trkpt lat="45.98208" lon="4.88306">
        <ele>274</ele>
        <time>2018-07-08T09:33:43Z</time>
      </trkpt>
      <trkpt lat="45.98208" lon="4.88314">
        <ele>274</ele>
        <time>2018-07-08T09:33:44Z</time>
      </trkpt>
      <trkpt lat="45.9821" lon="4.88322">
        <ele>274</ele>
        <time>2018-07-08T09:33:45Z</time>
      </trkpt>
      <trkpt lat="45.9821" lon="4.88329">
        <ele>274</ele>
        <time>2018-07-08T09:33:46Z</time>
      </trkpt>
      <trkpt lat="45.9821" lon="4.88339">
        <ele>275</ele>
        <time>2018-07-08T09:33:47Z</time>
      </trkpt>
      <trkpt lat="45.98209" lon="4.88346">
        <ele>275</ele>
        <time>2018-07-08T09:33:48Z</time>
      </trkpt>
      <trkpt lat="45.98209" lon="4.88354">
        <ele>275</ele>
        <time>2018-07-08T09:33:49Z</time>
      </trkpt>
      <trkpt lat="45.98209" lon="4.88364">
        <ele>275</ele>
        <time>2018-07-08T09:33:50Z</time>
      </trkpt>
      <trkpt lat="45.98211" lon="4.88372">
        <ele>275</ele>
        <time>2018-07-08T09:33:51Z</time>
      </trkpt>
      <trkpt lat="45.98212" lon="4.8838">
        <ele>275</ele>
        <time>2018-07-08T09:33:52Z</time>
      </trkpt>
      <trkpt lat="45.98211" lon="4.88389">
        <ele>275</ele>
        <time>2018-07-08T09:33:53Z</time>
      </trkpt>
      <trkpt lat="45.98213" lon="4.88397">
        <ele>275</ele>
        <time>2018-07-08T09:33:54Z</time>
      </trkpt>
      <trkpt lat="45.98213" lon="4.88406">
        <ele>275</ele>
        <time>2018-07-08T09:33:55Z</time>
      </trkpt>
      <trkpt lat="45.98214" lon="4.88413">
        <ele>275</ele>
        <time>2018-07-08T09:33:56Z</time>
      </trkpt>
      <trkpt lat="45.98217" lon="4.8842">
        <ele>276</ele>
        <time>2018-07-08T09:33:57Z</time>
      </trkpt>
      <trkpt lat="45.98219" lon="4.88427">
        <ele>276</ele>
        <time>2018-07-08T09:33:58Z</time>
      </trkpt>
      <trkpt lat="45.9822" lon="4.88434">
        <ele>276</ele>
        <time>2018-07-08T09:33:59Z</time>
      </trkpt>
      <trkpt lat="45.98223" lon="4.88442">
        <ele>276</ele>
        <time>2018-07-08T09:34:00Z</time>
      </trkpt>
      <trkpt lat="45.98224" lon="4.88449">
        <ele>276</ele>
        <time>2018-07-08T09:34:01Z</time>
      </trkpt>
      <trkpt lat="45.98226" lon="4.88456">
        <ele>276</ele>
        <time>2018-07-08T09:34:02Z</time>
      </trkpt>
      <trkpt lat="45.98228" lon="4.88464">
        <ele>276</ele>
        <time>2018-07-08T09:34:03Z</time>
      </trkpt>
      <trkpt lat="45.98232" lon="4.8847">
        <ele>276</ele>
        <time>2018-07-08T09:34:04Z</time>
      </trkpt>
      <trkpt lat="45.98234" lon="4.88476">
        <ele>276</ele>
        <time>2018-07-08T09:34:05Z</time>
      </trkpt>
      <trkpt lat="45.98237" lon="4.88485">
        <ele>276</ele>
        <time>2018-07-08T09:34:06Z</time>
      </trkpt>
      <trkpt lat="45.98238" lon="4.88493">
        <ele>276</ele>
        <time>2018-07-08T09:34:07Z</time>
      </trkpt>
      <trkpt lat="45.98239" lon="4.885">
        <ele>277</ele>
        <time>2018-07-08T09:34:08Z</time>
      </trkpt>
      <trkpt lat="45.98244" lon="4.8851">
        <ele>276</ele>
        <time>2018-07-08T09:34:10Z</time>
      </trkpt>
      <trkpt lat="45.98246" lon="4.88517">
        <ele>276</ele>
        <time>2018-07-08T09:34:11Z</time>
      </trkpt>
      <trkpt lat="45.98247" lon="4.88524">
        <ele>276</ele>
        <time>2018-07-08T09:34:12Z</time>
      </trkpt>
      <trkpt lat="45.98249" lon="4.88535">
        <ele>276</ele>
        <time>2018-07-08T09:34:13Z</time>
      </trkpt>
      <trkpt lat="45.98251" lon="4.88543">
        <ele>276</ele>
        <time>2018-07-08T09:34:14Z</time>
      </trkpt>
      <trkpt lat="45.98253" lon="4.88552">
        <ele>276</ele>
        <time>2018-07-08T09:34:15Z</time>
      </trkpt>
      <trkpt lat="45.98256" lon="4.88558">
        <ele>276</ele>
        <time>2018-07-08T09:34:16Z</time>
      </trkpt>
      <trkpt lat="45.98258" lon="4.88566">
        <ele>276</ele>
        <time>2018-07-08T09:34:17Z</time>
      </trkpt>
      <trkpt lat="45.98261" lon="4.88574">
        <ele>276</ele>
        <time>2018-07-08T09:34:18Z</time>
      </trkpt>
      <trkpt lat="45.98261" lon="4.88581">
        <ele>276</ele>
        <time>2018-07-08T09:34:19Z</time>
      </trkpt>
      <trkpt lat="45.98262" lon="4.88586">
        <ele>275</ele>
        <time>2018-07-08T09:34:20Z</time>
      </trkpt>
      <trkpt lat="45.98264" lon="4.88594">
        <ele>275</ele>
        <time>2018-07-08T09:34:21Z</time>
      </trkpt>
      <trkpt lat="45.98265" lon="4.886">
        <ele>275</ele>
        <time>2018-07-08T09:34:22Z</time>
      </trkpt>
      <trkpt lat="45.98267" lon="4.88608">
        <ele>276</ele>
        <time>2018-07-08T09:34:23Z</time>
      </trkpt>
      <trkpt lat="45.98265" lon="4.88615">
        <ele>276</ele>
        <time>2018-07-08T09:34:24Z</time>
      </trkpt>
      <trkpt lat="45.98267" lon="4.88623">
        <ele>276</ele>
        <time>2018-07-08T09:34:25Z</time>
      </trkpt>
      <trkpt lat="45.9827" lon="4.8863">
        <ele>276</ele>
        <time>2018-07-08T09:34:26Z</time>
      </trkpt>
      <trkpt lat="45.98272" lon="4.88637">
        <ele>276</ele>
        <time>2018-07-08T09:34:27Z</time>
      </trkpt>
      <trkpt lat="45.98273" lon="4.88645">
        <ele>276</ele>
        <time>2018-07-08T09:34:28Z</time>
      </trkpt>
      <trkpt lat="45.98276" lon="4.88653">
        <ele>276</ele>
        <time>2018-07-08T09:34:29Z</time>
      </trkpt>
      <trkpt lat="45.98279" lon="4.88659">
        <ele>276</ele>
        <time>2018-07-08T09:34:30Z</time>
      </trkpt>
      <trkpt lat="45.9828" lon="4.88666">
        <ele>276</ele>
        <time>2018-07-08T09:34:31Z</time>
      </trkpt>
      <trkpt lat="45.98282" lon="4.88672">
        <ele>276</ele>
        <time>2018-07-08T09:34:32Z</time>
      </trkpt>
      <trkpt lat="45.98284" lon="4.88678">
        <ele>276</ele>
        <time>2018-07-08T09:34:33Z</time>
      </trkpt>
      <trkpt lat="45.98286" lon="4.88684">
        <ele>276</ele>
        <time>2018-07-08T09:34:34Z</time>
      </trkpt>
      <trkpt lat="45.98288" lon="4.88691">
        <ele>276</ele>
        <time>2018-07-08T09:34:35Z</time>
      </trkpt>
      <trkpt lat="45.98291" lon="4.88698">
        <ele>276</ele>
        <time>2018-07-08T09:34:36Z</time>
      </trkpt>
      <trkpt lat="45.98292" lon="4.88704">
        <ele>276</ele>
        <time>2018-07-08T09:34:37Z</time>
      </trkpt>
      <trkpt lat="45.98296" lon="4.8871">
        <ele>276</ele>
        <time>2018-07-08T09:34:38Z</time>
      </trkpt>
      <trkpt lat="45.98298" lon="4.88717">
        <ele>276</ele>
        <time>2018-07-08T09:34:39Z</time>
      </trkpt>
      <trkpt lat="45.98299" lon="4.88723">
        <ele>276</ele>
        <time>2018-07-08T09:34:40Z</time>
      </trkpt>
      <trkpt lat="45.98301" lon="4.8873">
        <ele>276</ele>
        <time>2018-07-08T09:34:41Z</time>
      </trkpt>
      <trkpt lat="45.98303" lon="4.88736">
        <ele>276</ele>
        <time>2018-07-08T09:34:42Z</time>
      </trkpt>
      <trkpt lat="45.98306" lon="4.88741">
        <ele>276</ele>
        <time>2018-07-08T09:34:43Z</time>
      </trkpt>
      <trkpt lat="45.98307" lon="4.88748">
        <ele>276</ele>
        <time>2018-07-08T09:34:44Z</time>
      </trkpt>
      <trkpt lat="45.98306" lon="4.88758">
        <ele>276</ele>
        <time>2018-07-08T09:34:45Z</time>
      </trkpt>
      <trkpt lat="45.98309" lon="4.88764">
        <ele>276</ele>
        <time>2018-07-08T09:34:46Z</time>
      </trkpt>
      <trkpt lat="45.98311" lon="4.88771">
        <ele>277</ele>
        <time>2018-07-08T09:34:47Z</time>
      </trkpt>
      <trkpt lat="45.9831" lon="4.88783">
        <ele>277</ele>
        <time>2018-07-08T09:34:49Z</time>
      </trkpt>
      <trkpt lat="45.98312" lon="4.88792">
        <ele>277</ele>
        <time>2018-07-08T09:34:50Z</time>
      </trkpt>
      <trkpt lat="45.98315" lon="4.88803">
        <ele>277</ele>
        <time>2018-07-08T09:34:52Z</time>
      </trkpt>
      <trkpt lat="45.98317" lon="4.88809">
        <ele>277</ele>
        <time>2018-07-08T09:34:53Z</time>
      </trkpt>
      <trkpt lat="45.98318" lon="4.88816">
        <ele>277</ele>
        <time>2018-07-08T09:34:54Z</time>
      </trkpt>
      <trkpt lat="45.9832" lon="4.88822">
        <ele>277</ele>
        <time>2018-07-08T09:34:55Z</time>
      </trkpt>
      <trkpt lat="45.98322" lon="4.88831">
        <ele>278</ele>
        <time>2018-07-08T09:34:56Z</time>
      </trkpt>
      <trkpt lat="45.98324" lon="4.88838">
        <ele>278</ele>
        <time>2018-07-08T09:34:57Z</time>
      </trkpt>
      <trkpt lat="45.98326" lon="4.88845">
        <ele>278</ele>
        <time>2018-07-08T09:34:58Z</time>
      </trkpt>
      <trkpt lat="45.98328" lon="4.88852">
        <ele>278</ele>
        <time>2018-07-08T09:34:59Z</time>
      </trkpt>
      <trkpt lat="45.98329" lon="4.88858">
        <ele>278</ele>
        <time>2018-07-08T09:35:00Z</time>
      </trkpt>
      <trkpt lat="45.9833" lon="4.88865">
        <ele>278</ele>
        <time>2018-07-08T09:35:01Z</time>
      </trkpt>
      <trkpt lat="45.98332" lon="4.88872">
        <ele>278</ele>
        <time>2018-07-08T09:35:02Z</time>
      </trkpt>
      <trkpt lat="45.98333" lon="4.8888">
        <ele>278</ele>
        <time>2018-07-08T09:35:03Z</time>
      </trkpt>
      <trkpt lat="45.98335" lon="4.88887">
        <ele>280</ele>
        <time>2018-07-08T09:35:04Z</time>
      </trkpt>
      <trkpt lat="45.98336" lon="4.88895">
        <ele>280</ele>
        <time>2018-07-08T09:35:05Z</time>
      </trkpt>
      <trkpt lat="45.98337" lon="4.88903">
        <ele>280</ele>
        <time>2018-07-08T09:35:06Z</time>
      </trkpt>
      <trkpt lat="45.9834" lon="4.8891">
        <ele>280</ele>
        <time>2018-07-08T09:35:07Z</time>
      </trkpt>
      <trkpt lat="45.98342" lon="4.88917">
        <ele>280</ele>
        <time>2018-07-08T09:35:08Z</time>
      </trkpt>
      <trkpt lat="45.98344" lon="4.88924">
        <ele>280</ele>
        <time>2018-07-08T09:35:09Z</time>
      </trkpt>
      <trkpt lat="45.98345" lon="4.88932">
        <ele>281</ele>
        <time>2018-07-08T09:35:10Z</time>
      </trkpt>
      <trkpt lat="45.98347" lon="4.88939">
        <ele>281</ele>
        <time>2018-07-08T09:35:11Z</time>
      </trkpt>
      <trkpt lat="45.98349" lon="4.88945">
        <ele>282</ele>
        <time>2018-07-08T09:35:12Z</time>
      </trkpt>
      <trkpt lat="45.9835" lon="4.88954">
        <ele>282</ele>
        <time>2018-07-08T09:35:13Z</time>
      </trkpt>
      <trkpt lat="45.98352" lon="4.88961">
        <ele>282</ele>
        <time>2018-07-08T09:35:14Z</time>
      </trkpt>
      <trkpt lat="45.98355" lon="4.88968">
        <ele>282</ele>
        <time>2018-07-08T09:35:15Z</time>
      </trkpt>
      <trkpt lat="45.98357" lon="4.88974">
        <ele>282</ele>
        <time>2018-07-08T09:35:16Z</time>
      </trkpt>
      <trkpt lat="45.98359" lon="4.88981">
        <ele>282</ele>
        <time>2018-07-08T09:35:17Z</time>
      </trkpt>
      <trkpt lat="45.98361" lon="4.88987">
        <ele>282</ele>
        <time>2018-07-08T09:35:18Z</time>
      </trkpt>
      <trkpt lat="45.98363" lon="4.88995">
        <ele>282</ele>
        <time>2018-07-08T09:35:19Z</time>
      </trkpt>
      <trkpt lat="45.98365" lon="4.89002">
        <ele>283</ele>
        <time>2018-07-08T09:35:20Z</time>
      </trkpt>
      <trkpt lat="45.98366" lon="4.89009">
        <ele>283</ele>
        <time>2018-07-08T09:35:21Z</time>
      </trkpt>
      <trkpt lat="45.98368" lon="4.8902">
        <ele>284</ele>
        <time>2018-07-08T09:35:23Z</time>
      </trkpt>
      <trkpt lat="45.98369" lon="4.89026">
        <ele>284</ele>
        <time>2018-07-08T09:35:24Z</time>
      </trkpt>
      <trkpt lat="45.9837" lon="4.89038">
        <ele>284</ele>
        <time>2018-07-08T09:35:26Z</time>
      </trkpt>
      <trkpt lat="45.98371" lon="4.89045">
        <ele>284</ele>
        <time>2018-07-08T09:35:27Z</time>
      </trkpt>
      <trkpt lat="45.98373" lon="4.89051">
        <ele>284</ele>
        <time>2018-07-08T09:35:28Z</time>
      </trkpt>
      <trkpt lat="45.98374" lon="4.89057">
        <ele>284</ele>
        <time>2018-07-08T09:35:29Z</time>
      </trkpt>
      <trkpt lat="45.98377" lon="4.89068">
        <ele>284</ele>
        <time>2018-07-08T09:35:31Z</time>
      </trkpt>
      <trkpt lat="45.9838" lon="4.89073">
        <ele>284</ele>
        <time>2018-07-08T09:35:32Z</time>
      </trkpt>
      <trkpt lat="45.98382" lon="4.89078">
        <ele>285</ele>
        <time>2018-07-08T09:35:33Z</time>
      </trkpt>
      <trkpt lat="45.98385" lon="4.89084">
        <ele>285</ele>
        <time>2018-07-08T09:35:34Z</time>
      </trkpt>
      <trkpt lat="45.9839" lon="4.89093">
        <ele>285</ele>
        <time>2018-07-08T09:35:36Z</time>
      </trkpt>
      <trkpt lat="45.98392" lon="4.89097">
        <ele>285</ele>
        <time>2018-07-08T09:35:37Z</time>
      </trkpt>
      <trkpt lat="45.98397" lon="4.89106">
        <ele>285</ele>
        <time>2018-07-08T09:35:39Z</time>
      </trkpt>
      <trkpt lat="45.984" lon="4.8911">
        <ele>285</ele>
        <time>2018-07-08T09:35:40Z</time>
      </trkpt>
      <trkpt lat="45.98405" lon="4.89119">
        <ele>285</ele>
        <time>2018-07-08T09:35:42Z</time>
      </trkpt>
      <trkpt lat="45.98408" lon="4.89124">
        <ele>285</ele>
        <time>2018-07-08T09:35:43Z</time>
      </trkpt>
      <trkpt lat="45.98412" lon="4.89134">
        <ele>285</ele>
        <time>2018-07-08T09:35:45Z</time>
      </trkpt>
      <trkpt lat="45.98414" lon="4.89139">
        <ele>286</ele>
        <time>2018-07-08T09:35:46Z</time>
      </trkpt>
      <trkpt lat="45.98419" lon="4.89148">
        <ele>288</ele>
        <time>2018-07-08T09:35:48Z</time>
      </trkpt>
      <trkpt lat="45.98422" lon="4.89152">
        <ele>288</ele>
        <time>2018-07-08T09:35:49Z</time>
      </trkpt>
      <trkpt lat="45.98427" lon="4.89159">
        <ele>288</ele>
        <time>2018-07-08T09:35:51Z</time>
      </trkpt>
      <trkpt lat="45.98429" lon="4.89163">
        <ele>288</ele>
        <time>2018-07-08T09:35:52Z</time>
      </trkpt>
      <trkpt lat="45.98434" lon="4.89171">
        <ele>288</ele>
        <time>2018-07-08T09:35:54Z</time>
      </trkpt>
      <trkpt lat="45.98436" lon="4.89175">
        <ele>288</ele>
        <time>2018-07-08T09:35:55Z</time>
      </trkpt>
      <trkpt lat="45.98441" lon="4.89185">
        <ele>288</ele>
        <time>2018-07-08T09:35:59Z</time>
      </trkpt>
      <trkpt lat="45.98442" lon="4.89188">
        <ele>288</ele>
        <time>2018-07-08T09:36:00Z</time>
      </trkpt>
      <trkpt lat="45.98445" lon="4.89196">
        <ele>288</ele>
        <time>2018-07-08T09:36:02Z</time>
      </trkpt>
      <trkpt lat="45.98446" lon="4.892">
        <ele>289</ele>
        <time>2018-07-08T09:36:03Z</time>
      </trkpt>
      <trkpt lat="45.9845" lon="4.89207">
        <ele>289</ele>
        <time>2018-07-08T09:36:05Z</time>
      </trkpt>
      <trkpt lat="45.98453" lon="4.8921">
        <ele>289</ele>
        <time>2018-07-08T09:36:06Z</time>
      </trkpt>
      <trkpt lat="45.98457" lon="4.89217">
        <ele>289</ele>
        <time>2018-07-08T09:36:08Z</time>
      </trkpt>
      <trkpt lat="45.98459" lon="4.89221">
        <ele>289</ele>
        <time>2018-07-08T09:36:09Z</time>
      </trkpt>
      <trkpt lat="45.98464" lon="4.89231">
        <ele>289</ele>
        <time>2018-07-08T09:36:12Z</time>
      </trkpt>
      <trkpt lat="45.98466" lon="4.89236">
        <ele>289</ele>
        <time>2018-07-08T09:36:13Z</time>
      </trkpt>
      <trkpt lat="45.98471" lon="4.89243">
        <ele>289</ele>
        <time>2018-07-08T09:36:15Z</time>
      </trkpt>
      <trkpt lat="45.98473" lon="4.89247">
        <ele>289</ele>
        <time>2018-07-08T09:36:16Z</time>
      </trkpt>
      <trkpt lat="45.98477" lon="4.89255">
        <ele>291</ele>
        <time>2018-07-08T09:36:18Z</time>
      </trkpt>
      <trkpt lat="45.98483" lon="4.89266">
        <ele>291</ele>
        <time>2018-07-08T09:36:19Z</time>
      </trkpt>
      <trkpt lat="45.98488" lon="4.89272">
        <ele>292</ele>
        <time>2018-07-08T09:36:22Z</time>
      </trkpt>
      <trkpt lat="45.98493" lon="4.89279">
        <ele>292</ele>
        <time>2018-07-08T09:36:23Z</time>
      </trkpt>
      <trkpt lat="45.98499" lon="4.89288">
        <ele>292</ele>
        <time>2018-07-08T09:36:25Z</time>
      </trkpt>
      <trkpt lat="45.98504" lon="4.89293">
        <ele>292</ele>
        <time>2018-07-08T09:36:26Z</time>
      </trkpt>
      <trkpt lat="45.98507" lon="4.89297">
        <ele>293</ele>
        <time>2018-07-08T09:36:27Z</time>
      </trkpt>
      <trkpt lat="45.98511" lon="4.89301">
        <ele>293</ele>
        <time>2018-07-08T09:36:28Z</time>
      </trkpt>
      <trkpt lat="45.98513" lon="4.89306">
        <ele>293</ele>
        <time>2018-07-08T09:36:30Z</time>
      </trkpt>
      <trkpt lat="45.98516" lon="4.89312">
        <ele>293</ele>
        <time>2018-07-08T09:36:31Z</time>
      </trkpt>
      <trkpt lat="45.98517" lon="4.89314">
        <ele>293</ele>
        <time>2018-07-08T09:36:32Z</time>
      </trkpt>
      <trkpt lat="45.98523" lon="4.89321">
        <ele>293</ele>
        <time>2018-07-08T09:36:33Z</time>
      </trkpt>
      <trkpt lat="45.98526" lon="4.8933">
        <ele>293</ele>
        <time>2018-07-08T09:36:35Z</time>
      </trkpt>
      <trkpt lat="45.98527" lon="4.89334">
        <ele>295</ele>
        <time>2018-07-08T09:36:36Z</time>
      </trkpt>
      <trkpt lat="45.98534" lon="4.89344">
        <ele>295</ele>
        <time>2018-07-08T09:36:38Z</time>
      </trkpt>
      <trkpt lat="45.98537" lon="4.89349">
        <ele>295</ele>
        <time>2018-07-08T09:36:39Z</time>
      </trkpt>
      <trkpt lat="45.98543" lon="4.89357">
        <ele>295</ele>
        <time>2018-07-08T09:36:41Z</time>
      </trkpt>
      <trkpt lat="45.98547" lon="4.89361">
        <ele>295</ele>
        <time>2018-07-08T09:36:42Z</time>
      </trkpt>
      <trkpt lat="45.9855" lon="4.89365">
        <ele>295</ele>
        <time>2018-07-08T09:36:43Z</time>
      </trkpt>
      <trkpt lat="45.98554" lon="4.89369">
        <ele>295</ele>
        <time>2018-07-08T09:36:44Z</time>
      </trkpt>
      <trkpt lat="45.98561" lon="4.89376">
        <ele>295</ele>
        <time>2018-07-08T09:36:46Z</time>
      </trkpt>
      <trkpt lat="45.98566" lon="4.8938">
        <ele>295</ele>
        <time>2018-07-08T09:36:47Z</time>
      </trkpt>
      <trkpt lat="45.98571" lon="4.89385">
        <ele>295</ele>
        <time>2018-07-08T09:36:48Z</time>
      </trkpt>
      <trkpt lat="45.98576" lon="4.89389">
        <ele>295</ele>
        <time>2018-07-08T09:36:49Z</time>
      </trkpt>
      <trkpt lat="45.98582" lon="4.89398">
        <ele>295</ele>
        <time>2018-07-08T09:36:51Z</time>
      </trkpt>
      <trkpt lat="45.98586" lon="4.89402">
        <ele>292</ele>
        <time>2018-07-08T09:36:52Z</time>
      </trkpt>
      <trkpt lat="45.98591" lon="4.89404">
        <ele>292</ele>
        <time>2018-07-08T09:36:53Z</time>
      </trkpt>
      <trkpt lat="45.98596" lon="4.89407">
        <ele>292</ele>
        <time>2018-07-08T09:36:54Z</time>
      </trkpt>
      <trkpt lat="45.98599" lon="4.89411">
        <ele>292</ele>
        <time>2018-07-08T09:36:55Z</time>
      </trkpt>
      <trkpt lat="45.98605" lon="4.89415">
        <ele>292</ele>
        <time>2018-07-08T09:36:56Z</time>
      </trkpt>
      <trkpt lat="45.98608" lon="4.89419">
        <ele>292</ele>
        <time>2018-07-08T09:36:57Z</time>
      </trkpt>
      <trkpt lat="45.98612" lon="4.89424">
        <ele>292</ele>
        <time>2018-07-08T09:36:58Z</time>
      </trkpt>
      <trkpt lat="45.98619" lon="4.89428">
        <ele>291</ele>
        <time>2018-07-08T09:36:59Z</time>
      </trkpt>
      <trkpt lat="45.98621" lon="4.89433">
        <ele>291</ele>
        <time>2018-07-08T09:37:00Z</time>
      </trkpt>
      <trkpt lat="45.98628" lon="4.89441">
        <ele>291</ele>
        <time>2018-07-08T09:37:02Z</time>
      </trkpt>
      <trkpt lat="45.98631" lon="4.89443">
        <ele>291</ele>
        <time>2018-07-08T09:37:03Z</time>
      </trkpt>
      <trkpt lat="45.98634" lon="4.89448">
        <ele>291</ele>
        <time>2018-07-08T09:37:04Z</time>
      </trkpt>
      <trkpt lat="45.98638" lon="4.89452">
        <ele>291</ele>
        <time>2018-07-08T09:37:05Z</time>
      </trkpt>
      <trkpt lat="45.9864" lon="4.89457">
        <ele>291</ele>
        <time>2018-07-08T09:37:06Z</time>
      </trkpt>
      <trkpt lat="45.98646" lon="4.89462">
        <ele>291</ele>
        <time>2018-07-08T09:37:07Z</time>
      </trkpt>
      <trkpt lat="45.98651" lon="4.89466">
        <ele>290</ele>
        <time>2018-07-08T09:37:08Z</time>
      </trkpt>
      <trkpt lat="45.98656" lon="4.8947">
        <ele>290</ele>
        <time>2018-07-08T09:37:09Z</time>
      </trkpt>
      <trkpt lat="45.98661" lon="4.8948">
        <ele>290</ele>
        <time>2018-07-08T09:37:11Z</time>
      </trkpt>
      <trkpt lat="45.98663" lon="4.89484">
        <ele>290</ele>
        <time>2018-07-08T09:37:12Z</time>
      </trkpt>
      <trkpt lat="45.98668" lon="4.89489">
        <ele>289</ele>
        <time>2018-07-08T09:37:13Z</time>
      </trkpt>
      <trkpt lat="45.98671" lon="4.89492">
        <ele>289</ele>
        <time>2018-07-08T09:37:14Z</time>
      </trkpt>
      <trkpt lat="45.98675" lon="4.89497">
        <ele>289</ele>
        <time>2018-07-08T09:37:15Z</time>
      </trkpt>
      <trkpt lat="45.98679" lon="4.895">
        <ele>289</ele>
        <time>2018-07-08T09:37:16Z</time>
      </trkpt>
      <trkpt lat="45.98685" lon="4.89509">
        <ele>289</ele>
        <time>2018-07-08T09:37:18Z</time>
      </trkpt>
      <trkpt lat="45.98687" lon="4.89514">
        <ele>289</ele>
        <time>2018-07-08T09:37:19Z</time>
      </trkpt>
      <trkpt lat="45.9869" lon="4.89518">
        <ele>289</ele>
        <time>2018-07-08T09:37:20Z</time>
      </trkpt>
      <trkpt lat="45.98693" lon="4.89523">
        <ele>289</ele>
        <time>2018-07-08T09:37:21Z</time>
      </trkpt>
      <trkpt lat="45.98695" lon="4.89529">
        <ele>289</ele>
        <time>2018-07-08T09:37:22Z</time>
      </trkpt>
      <trkpt lat="45.98698" lon="4.89535">
        <ele>289</ele>
        <time>2018-07-08T09:37:23Z</time>
      </trkpt>
      <trkpt lat="45.98704" lon="4.89545">
        <ele>289</ele>
        <time>2018-07-08T09:37:25Z</time>
      </trkpt>
      <trkpt lat="45.98709" lon="4.89548">
        <ele>290</ele>
        <time>2018-07-08T09:37:26Z</time>
      </trkpt>
      <trkpt lat="45.98714" lon="4.89556">
        <ele>290</ele>
        <time>2018-07-08T09:37:28Z</time>
      </trkpt>
      <trkpt lat="45.98717" lon="4.89561">
        <ele>290</ele>
        <time>2018-07-08T09:37:29Z</time>
      </trkpt>
      <trkpt lat="45.98723" lon="4.89571">
        <ele>290</ele>
        <time>2018-07-08T09:37:31Z</time>
      </trkpt>
      <trkpt lat="45.98725" lon="4.89575">
        <ele>290</ele>
        <time>2018-07-08T09:37:32Z</time>
      </trkpt>
      <trkpt lat="45.98732" lon="4.89583">
        <ele>290</ele>
        <time>2018-07-08T09:37:34Z</time>
      </trkpt>
      <trkpt lat="45.98735" lon="4.89586">
        <ele>291</ele>
        <time>2018-07-08T09:37:35Z</time>
      </trkpt>
      <trkpt lat="45.98741" lon="4.89594">
        <ele>291</ele>
        <time>2018-07-08T09:37:37Z</time>
      </trkpt>
      <trkpt lat="45.98745" lon="4.89599">
        <ele>290</ele>
        <time>2018-07-08T09:37:38Z</time>
      </trkpt>
      <trkpt lat="45.9875" lon="4.89602">
        <ele>290</ele>
        <time>2018-07-08T09:37:39Z</time>
      </trkpt>
      <trkpt lat="45.98753" lon="4.89607">
        <ele>291</ele>
        <time>2018-07-08T09:37:40Z</time>
      </trkpt>
      <trkpt lat="45.98756" lon="4.89611">
        <ele>291</ele>
        <time>2018-07-08T09:37:41Z</time>
      </trkpt>
      <trkpt lat="45.9876" lon="4.89615">
        <ele>291</ele>
        <time>2018-07-08T09:37:42Z</time>
      </trkpt>
      <trkpt lat="45.98765" lon="4.89625">
        <ele>291</ele>
        <time>2018-07-08T09:37:44Z</time>
      </trkpt>
      <trkpt lat="45.98769" lon="4.89628">
        <ele>291</ele>
        <time>2018-07-08T09:37:45Z</time>
      </trkpt>
      <trkpt lat="45.98775" lon="4.89636">
        <ele>291</ele>
        <time>2018-07-08T09:37:47Z</time>
      </trkpt>
      <trkpt lat="45.98778" lon="4.8964">
        <ele>291</ele>
        <time>2018-07-08T09:37:48Z</time>
      </trkpt>
      <trkpt lat="45.98783" lon="4.89647">
        <ele>291</ele>
        <time>2018-07-08T09:37:50Z</time>
      </trkpt>
      <trkpt lat="45.98786" lon="4.89651">
        <ele>291</ele>
        <time>2018-07-08T09:37:51Z</time>
      </trkpt>
      <trkpt lat="45.9879" lon="4.89656">
        <ele>291</ele>
        <time>2018-07-08T09:37:53Z</time>
      </trkpt>
      <trkpt lat="45.98795" lon="4.89661">
        <ele>291</ele>
        <time>2018-07-08T09:37:54Z</time>
      </trkpt>
      <trkpt lat="45.98801" lon="4.89668">
        <ele>291</ele>
        <time>2018-07-08T09:37:56Z</time>
      </trkpt>
      <trkpt lat="45.98803" lon="4.89672">
        <ele>292</ele>
        <time>2018-07-08T09:37:57Z</time>
      </trkpt>
      <trkpt lat="45.98809" lon="4.89678">
        <ele>292</ele>
        <time>2018-07-08T09:37:59Z</time>
      </trkpt>
      <trkpt lat="45.98812" lon="4.89682">
        <ele>292</ele>
        <time>2018-07-08T09:38:00Z</time>
      </trkpt>
      <trkpt lat="45.98819" lon="4.89688">
        <ele>292</ele>
        <time>2018-07-08T09:38:02Z</time>
      </trkpt>
      <trkpt lat="45.98822" lon="4.89691">
        <ele>292</ele>
        <time>2018-07-08T09:38:03Z</time>
      </trkpt>
      <trkpt lat="45.98829" lon="4.89697">
        <ele>292</ele>
        <time>2018-07-08T09:38:05Z</time>
      </trkpt>
      <trkpt lat="45.98832" lon="4.897">
        <ele>292</ele>
        <time>2018-07-08T09:38:06Z</time>
      </trkpt>
      <trkpt lat="45.98839" lon="4.89707">
        <ele>292</ele>
        <time>2018-07-08T09:38:08Z</time>
      </trkpt>
      <trkpt lat="45.98842" lon="4.8971">
        <ele>293</ele>
        <time>2018-07-08T09:38:09Z</time>
      </trkpt>
      <trkpt lat="45.98849" lon="4.89715">
        <ele>293</ele>
        <time>2018-07-08T09:38:11Z</time>
      </trkpt>
      <trkpt lat="45.98852" lon="4.89718">
        <ele>293</ele>
        <time>2018-07-08T09:38:12Z</time>
      </trkpt>
      <trkpt lat="45.98859" lon="4.89724">
        <ele>293</ele>
        <time>2018-07-08T09:38:14Z</time>
      </trkpt>
      <trkpt lat="45.98863" lon="4.89726">
        <ele>293</ele>
        <time>2018-07-08T09:38:15Z</time>
      </trkpt>
      <trkpt lat="45.9887" lon="4.89731">
        <ele>293</ele>
        <time>2018-07-08T09:38:17Z</time>
      </trkpt>
      <trkpt lat="45.98873" lon="4.89734">
        <ele>293</ele>
        <time>2018-07-08T09:38:18Z</time>
      </trkpt>
      <trkpt lat="45.98881" lon="4.89739">
        <ele>293</ele>
        <time>2018-07-08T09:38:20Z</time>
      </trkpt>
      <trkpt lat="45.98884" lon="4.89742">
        <ele>293</ele>
        <time>2018-07-08T09:38:21Z</time>
      </trkpt>
      <trkpt lat="45.98891" lon="4.89746">
        <ele>293</ele>
        <time>2018-07-08T09:38:23Z</time>
      </trkpt>
      <trkpt lat="45.98895" lon="4.89749">
        <ele>293</ele>
        <time>2018-07-08T09:38:24Z</time>
      </trkpt>
      <trkpt lat="45.98902" lon="4.89755">
        <ele>293</ele>
        <time>2018-07-08T09:38:26Z</time>
      </trkpt>
      <trkpt lat="45.98905" lon="4.89757">
        <ele>293</ele>
        <time>2018-07-08T09:38:27Z</time>
      </trkpt>
      <trkpt lat="45.98913" lon="4.89762">
        <ele>293</ele>
        <time>2018-07-08T09:38:29Z</time>
      </trkpt>
      <trkpt lat="45.98917" lon="4.89764">
        <ele>293</ele>
        <time>2018-07-08T09:38:30Z</time>
      </trkpt>
      <trkpt lat="45.98925" lon="4.89769">
        <ele>293</ele>
        <time>2018-07-08T09:38:32Z</time>
      </trkpt>
      <trkpt lat="45.98929" lon="4.89772">
        <ele>293</ele>
        <time>2018-07-08T09:38:33Z</time>
      </trkpt>
      <trkpt lat="45.98934" lon="4.89775">
        <ele>293</ele>
        <time>2018-07-08T09:38:34Z</time>
      </trkpt>
      <trkpt lat="45.98938" lon="4.89778">
        <ele>293</ele>
        <time>2018-07-08T09:38:35Z</time>
      </trkpt>
      <trkpt lat="45.98943" lon="4.89781">
        <ele>293</ele>
        <time>2018-07-08T09:38:36Z</time>
      </trkpt>
      <trkpt lat="45.98947" lon="4.89784">
        <ele>293</ele>
        <time>2018-07-08T09:38:37Z</time>
      </trkpt>
      <trkpt lat="45.98952" lon="4.89787">
        <ele>293</ele>
        <time>2018-07-08T09:38:38Z</time>
      </trkpt>
      <trkpt lat="45.98956" lon="4.8979">
        <ele>293</ele>
        <time>2018-07-08T09:38:39Z</time>
      </trkpt>
      <trkpt lat="45.98962" lon="4.89797">
        <ele>293</ele>
        <time>2018-07-08T09:38:41Z</time>
      </trkpt>
      <trkpt lat="45.98963" lon="4.89801">
        <ele>293</ele>
        <time>2018-07-08T09:38:42Z</time>
      </trkpt>
      <trkpt lat="45.98968" lon="4.89805">
        <ele>293</ele>
        <time>2018-07-08T09:38:43Z</time>
      </trkpt>
      <trkpt lat="45.98972" lon="4.8981">
        <ele>293</ele>
        <time>2018-07-08T09:38:44Z</time>
      </trkpt>
      <trkpt lat="45.98979" lon="4.89818">
        <ele>293</ele>
        <time>2018-07-08T09:38:46Z</time>
      </trkpt>
      <trkpt lat="45.98982" lon="4.89824">
        <ele>293</ele>
        <time>2018-07-08T09:38:47Z</time>
      </trkpt>
      <trkpt lat="45.98987" lon="4.89828">
        <ele>293</ele>
        <time>2018-07-08T09:38:48Z</time>
      </trkpt>
      <trkpt lat="45.9899" lon="4.89833">
        <ele>293</ele>
        <time>2018-07-08T09:38:49Z</time>
      </trkpt>
      <trkpt lat="45.98995" lon="4.89838">
        <ele>293</ele>
        <time>2018-07-08T09:38:50Z</time>
      </trkpt>
      <trkpt lat="45.98998" lon="4.89842">
        <ele>293</ele>
        <time>2018-07-08T09:38:51Z</time>
      </trkpt>
      <trkpt lat="45.99003" lon="4.89853">
        <ele>293</ele>
        <time>2018-07-08T09:38:53Z</time>
      </trkpt>
      <trkpt lat="45.99006" lon="4.89857">
        <ele>293</ele>
        <time>2018-07-08T09:38:54Z</time>
      </trkpt>
      <trkpt lat="45.9901" lon="4.89862">
        <ele>293</ele>
        <time>2018-07-08T09:38:55Z</time>
      </trkpt>
      <trkpt lat="45.99014" lon="4.89866">
        <ele>293</ele>
        <time>2018-07-08T09:38:56Z</time>
      </trkpt>
      <trkpt lat="45.99021" lon="4.89873">
        <ele>293</ele>
        <time>2018-07-08T09:38:58Z</time>
      </trkpt>
      <trkpt lat="45.99022" lon="4.89879">
        <ele>293</ele>
        <time>2018-07-08T09:38:59Z</time>
      </trkpt>
      <trkpt lat="45.99026" lon="4.89883">
        <ele>293</ele>
        <time>2018-07-08T09:39:00Z</time>
      </trkpt>
      <trkpt lat="45.9903" lon="4.89888">
        <ele>293</ele>
        <time>2018-07-08T09:39:01Z</time>
      </trkpt>
      <trkpt lat="45.99033" lon="4.89892">
        <ele>293</ele>
        <time>2018-07-08T09:39:02Z</time>
      </trkpt>
      <trkpt lat="45.99036" lon="4.89897">
        <ele>293</ele>
        <time>2018-07-08T09:39:03Z</time>
      </trkpt>
      <trkpt lat="45.99039" lon="4.89903">
        <ele>293</ele>
        <time>2018-07-08T09:39:04Z</time>
      </trkpt>
      <trkpt lat="45.99042" lon="4.89908">
        <ele>293</ele>
        <time>2018-07-08T09:39:05Z</time>
      </trkpt>
      <trkpt lat="45.99048" lon="4.89911">
        <ele>293</ele>
        <time>2018-07-08T09:39:06Z</time>
      </trkpt>
      <trkpt lat="45.99051" lon="4.89916">
        <ele>293</ele>
        <time>2018-07-08T09:39:07Z</time>
      </trkpt>
      <trkpt lat="45.99058" lon="4.8992">
        <ele>294</ele>
        <time>2018-07-08T09:39:08Z</time>
      </trkpt>
      <trkpt lat="45.99062" lon="4.89925">
        <ele>294</ele>
        <time>2018-07-08T09:39:09Z</time>
      </trkpt>
      <trkpt lat="45.99064" lon="4.89932">
        <ele>294</ele>
        <time>2018-07-08T09:39:10Z</time>
      </trkpt>
      <trkpt lat="45.99067" lon="4.89937">
        <ele>294</ele>
        <time>2018-07-08T09:39:11Z</time>
      </trkpt>
      <trkpt lat="45.9907" lon="4.89942">
        <ele>294</ele>
        <time>2018-07-08T09:39:12Z</time>
      </trkpt>
      <trkpt lat="45.99073" lon="4.89947">
        <ele>294</ele>
        <time>2018-07-08T09:39:13Z</time>
      </trkpt>
      <trkpt lat="45.99076" lon="4.89952">
        <ele>294</ele>
        <time>2018-07-08T09:39:14Z</time>
      </trkpt>
      <trkpt lat="45.99079" lon="4.89957">
        <ele>294</ele>
        <time>2018-07-08T09:39:15Z</time>
      </trkpt>
      <trkpt lat="45.99083" lon="4.89959">
        <ele>294</ele>
        <time>2018-07-08T09:39:16Z</time>
      </trkpt>
      <trkpt lat="45.99087" lon="4.89964">
        <ele>295</ele>
        <time>2018-07-08T09:39:17Z</time>
      </trkpt>
      <trkpt lat="45.99092" lon="4.89973">
        <ele>295</ele>
        <time>2018-07-08T09:39:19Z</time>
      </trkpt>
      <trkpt lat="45.99095" lon="4.89978">
        <ele>295</ele>
        <time>2018-07-08T09:39:20Z</time>
      </trkpt>
      <trkpt lat="45.99099" lon="4.89982">
        <ele>295</ele>
        <time>2018-07-08T09:39:21Z</time>
      </trkpt>
      <trkpt lat="45.99102" lon="4.89986">
        <ele>295</ele>
        <time>2018-07-08T09:39:22Z</time>
      </trkpt>
      <trkpt lat="45.99108" lon="4.89993">
        <ele>295</ele>
        <time>2018-07-08T09:39:24Z</time>
      </trkpt>
      <trkpt lat="45.99112" lon="4.89997">
        <ele>295</ele>
        <time>2018-07-08T09:39:25Z</time>
      </trkpt>
      <trkpt lat="45.99118" lon="4.90006">
        <ele>296</ele>
        <time>2018-07-08T09:39:27Z</time>
      </trkpt>
      <trkpt lat="45.99121" lon="4.90009">
        <ele>296</ele>
        <time>2018-07-08T09:39:28Z</time>
      </trkpt>
      <trkpt lat="45.99125" lon="4.90014">
        <ele>296</ele>
        <time>2018-07-08T09:39:29Z</time>
      </trkpt>
      <trkpt lat="45.99129" lon="4.90018">
        <ele>296</ele>
        <time>2018-07-08T09:39:30Z</time>
      </trkpt>
      <trkpt lat="45.99135" lon="4.90025">
        <ele>297</ele>
        <time>2018-07-08T09:39:32Z</time>
      </trkpt>
      <trkpt lat="45.99138" lon="4.90029">
        <ele>297</ele>
        <time>2018-07-08T09:39:33Z</time>
      </trkpt>
      <trkpt lat="45.9914" lon="4.90035">
        <ele>297</ele>
        <time>2018-07-08T09:39:34Z</time>
      </trkpt>
      <trkpt lat="45.99144" lon="4.9004">
        <ele>297</ele>
        <time>2018-07-08T09:39:35Z</time>
      </trkpt>
      <trkpt lat="45.99147" lon="4.90045">
        <ele>297</ele>
        <time>2018-07-08T09:39:36Z</time>
      </trkpt>
      <trkpt lat="45.9915" lon="4.90051">
        <ele>297</ele>
        <time>2018-07-08T09:39:37Z</time>
      </trkpt>
      <trkpt lat="45.99155" lon="4.90055">
        <ele>297</ele>
        <time>2018-07-08T09:39:38Z</time>
      </trkpt>
      <trkpt lat="45.99158" lon="4.9006">
        <ele>297</ele>
        <time>2018-07-08T09:39:39Z</time>
      </trkpt>
      <trkpt lat="45.99165" lon="4.90067">
        <ele>297</ele>
        <time>2018-07-08T09:39:41Z</time>
      </trkpt>
      <trkpt lat="45.99169" lon="4.90071">
        <ele>297</ele>
        <time>2018-07-08T09:39:42Z</time>
      </trkpt>
      <trkpt lat="45.99173" lon="4.90077">
        <ele>298</ele>
        <time>2018-07-08T09:39:43Z</time>
      </trkpt>
      <trkpt lat="45.99177" lon="4.90082">
        <ele>298</ele>
        <time>2018-07-08T09:39:44Z</time>
      </trkpt>
      <trkpt lat="45.99182" lon="4.90092">
        <ele>297</ele>
        <time>2018-07-08T09:39:46Z</time>
      </trkpt>
      <trkpt lat="45.99186" lon="4.90094">
        <ele>297</ele>
        <time>2018-07-08T09:39:47Z</time>
      </trkpt>
      <trkpt lat="45.99189" lon="4.90098">
        <ele>297</ele>
        <time>2018-07-08T09:39:48Z</time>
      </trkpt>
      <trkpt lat="45.99193" lon="4.90101">
        <ele>297</ele>
        <time>2018-07-08T09:39:49Z</time>
      </trkpt>
      <trkpt lat="45.99198" lon="4.9011">
        <ele>297</ele>
        <time>2018-07-08T09:39:51Z</time>
      </trkpt>
      <trkpt lat="45.99204" lon="4.90115">
        <ele>297</ele>
        <time>2018-07-08T09:39:52Z</time>
      </trkpt>
      <trkpt lat="45.99207" lon="4.90121">
        <ele>297</ele>
        <time>2018-07-08T09:39:53Z</time>
      </trkpt>
      <trkpt lat="45.99213" lon="4.90127">
        <ele>297</ele>
        <time>2018-07-08T09:39:54Z</time>
      </trkpt>
      <trkpt lat="45.99219" lon="4.90135">
        <ele>297</ele>
        <time>2018-07-08T09:39:56Z</time>
      </trkpt>
      <trkpt lat="45.99221" lon="4.90139">
        <ele>297</ele>
        <time>2018-07-08T09:39:57Z</time>
      </trkpt>
      <trkpt lat="45.99225" lon="4.90142">
        <ele>297</ele>
        <time>2018-07-08T09:39:58Z</time>
      </trkpt>
      <trkpt lat="45.9923" lon="4.90147">
        <ele>297</ele>
        <time>2018-07-08T09:39:59Z</time>
      </trkpt>
      <trkpt lat="45.99233" lon="4.90154">
        <ele>297</ele>
        <time>2018-07-08T09:40:01Z</time>
      </trkpt>
      <trkpt lat="45.99239" lon="4.90159">
        <ele>297</ele>
        <time>2018-07-08T09:40:02Z</time>
      </trkpt>
      <trkpt lat="45.99241" lon="4.90164">
        <ele>297</ele>
        <time>2018-07-08T09:40:03Z</time>
      </trkpt>
      <trkpt lat="45.99245" lon="4.9017">
        <ele>297</ele>
        <time>2018-07-08T09:40:04Z</time>
      </trkpt>
      <trkpt lat="45.99248" lon="4.90175">
        <ele>297</ele>
        <time>2018-07-08T09:40:05Z</time>
      </trkpt>
      <trkpt lat="45.99252" lon="4.90181">
        <ele>297</ele>
        <time>2018-07-08T09:40:06Z</time>
      </trkpt>
      <trkpt lat="45.99256" lon="4.90187">
        <ele>298</ele>
        <time>2018-07-08T09:40:07Z</time>
      </trkpt>
      <trkpt lat="45.99259" lon="4.90192">
        <ele>298</ele>
        <time>2018-07-08T09:40:08Z</time>
      </trkpt>
      <trkpt lat="45.99257" lon="4.90198">
        <ele>298</ele>
        <time>2018-07-08T09:40:09Z</time>
      </trkpt>
      <trkpt lat="45.99263" lon="4.90204">
        <ele>298</ele>
        <time>2018-07-08T09:40:10Z</time>
      </trkpt>
      <trkpt lat="45.99263" lon="4.90214">
        <ele>298</ele>
        <time>2018-07-08T09:40:12Z</time>
      </trkpt>
      <trkpt lat="45.99267" lon="4.90218">
        <ele>298</ele>
        <time>2018-07-08T09:40:13Z</time>
      </trkpt>
      <trkpt lat="45.9927" lon="4.90223">
        <ele>298</ele>
        <time>2018-07-08T09:40:14Z</time>
      </trkpt>
      <trkpt lat="45.99276" lon="4.90228">
        <ele>298</ele>
        <time>2018-07-08T09:40:15Z</time>
      </trkpt>
      <trkpt lat="45.99282" lon="4.90237">
        <ele>298</ele>
        <time>2018-07-08T09:40:17Z</time>
      </trkpt>
      <trkpt lat="45.99285" lon="4.90241">
        <ele>298</ele>
        <time>2018-07-08T09:40:18Z</time>
      </trkpt>
      <trkpt lat="45.9929" lon="4.90251">
        <ele>299</ele>
        <time>2018-07-08T09:40:22Z</time>
      </trkpt>
      <trkpt lat="45.99292" lon="4.90254">
        <ele>299</ele>
        <time>2018-07-08T09:40:23Z</time>
      </trkpt>
      <trkpt lat="45.99297" lon="4.90259">
        <ele>299</ele>
        <time>2018-07-08T09:40:25Z</time>
      </trkpt>
      <trkpt lat="45.99299" lon="4.90262">
        <ele>299</ele>
        <time>2018-07-08T09:40:26Z</time>
      </trkpt>
      <trkpt lat="45.99304" lon="4.90272">
        <ele>299</ele>
        <time>2018-07-08T09:40:30Z</time>
      </trkpt>
      <trkpt lat="45.99305" lon="4.90274">
        <ele>299</ele>
        <time>2018-07-08T09:40:31Z</time>
      </trkpt>
      <trkpt lat="45.99309" lon="4.90281">
        <ele>299</ele>
        <time>2018-07-08T09:40:34Z</time>
      </trkpt>
      <trkpt lat="45.99311" lon="4.90284">
        <ele>299</ele>
        <time>2018-07-08T09:40:35Z</time>
      </trkpt>
      <trkpt lat="45.99315" lon="4.90289">
        <ele>299</ele>
        <time>2018-07-08T09:40:37Z</time>
      </trkpt>
      <trkpt lat="45.99325" lon="4.90294">
        <ele>299</ele>
        <time>2018-07-08T09:40:38Z</time>
      </trkpt>
      <trkpt lat="45.99333" lon="4.90295">
        <ele>299</ele>
        <time>2018-07-08T09:40:40Z</time>
      </trkpt>
      <trkpt lat="45.99337" lon="4.90296">
        <ele>300</ele>
        <time>2018-07-08T09:40:41Z</time>
      </trkpt>
      <trkpt lat="45.99342" lon="4.90296">
        <ele>300</ele>
        <time>2018-07-08T09:40:42Z</time>
      </trkpt>
      <trkpt lat="45.99346" lon="4.90296">
        <ele>300</ele>
        <time>2018-07-08T09:40:43Z</time>
      </trkpt>
      <trkpt lat="45.99351" lon="4.90295">
        <ele>300</ele>
        <time>2018-07-08T09:40:44Z</time>
      </trkpt>
      <trkpt lat="45.99356" lon="4.90295">
        <ele>300</ele>
        <time>2018-07-08T09:40:45Z</time>
      </trkpt>
      <trkpt lat="45.99365" lon="4.90294">
        <ele>300</ele>
        <time>2018-07-08T09:40:47Z</time>
      </trkpt>
      <trkpt lat="45.99369" lon="4.90294">
        <ele>300</ele>
        <time>2018-07-08T09:40:48Z</time>
      </trkpt>
      <trkpt lat="45.99377" lon="4.90295">
        <ele>300</ele>
        <time>2018-07-08T09:40:50Z</time>
      </trkpt>
      <trkpt lat="45.99382" lon="4.90295">
        <ele>300</ele>
        <time>2018-07-08T09:40:51Z</time>
      </trkpt>
      <trkpt lat="45.99385" lon="4.90297">
        <ele>300</ele>
        <time>2018-07-08T09:40:52Z</time>
      </trkpt>
      <trkpt lat="45.99391" lon="4.90298">
        <ele>300</ele>
        <time>2018-07-08T09:40:53Z</time>
      </trkpt>
      <trkpt lat="45.994" lon="4.90299">
        <ele>300</ele>
        <time>2018-07-08T09:40:55Z</time>
      </trkpt>
      <trkpt lat="45.99404" lon="4.90299">
        <ele>300</ele>
        <time>2018-07-08T09:40:56Z</time>
      </trkpt>
      <trkpt lat="45.99409" lon="4.90301">
        <ele>300</ele>
        <time>2018-07-08T09:40:57Z</time>
      </trkpt>
      <trkpt lat="45.99414" lon="4.90301">
        <ele>300</ele>
        <time>2018-07-08T09:40:58Z</time>
      </trkpt>
      <trkpt lat="45.9942" lon="4.90301">
        <ele>300</ele>
        <time>2018-07-08T09:40:59Z</time>
      </trkpt>
      <trkpt lat="45.99425" lon="4.90302">
        <ele>300</ele>
        <time>2018-07-08T09:41:00Z</time>
      </trkpt>
      <trkpt lat="45.9943" lon="4.90301">
        <ele>300</ele>
        <time>2018-07-08T09:41:01Z</time>
      </trkpt>
      <trkpt lat="45.99436" lon="4.90302">
        <ele>300</ele>
        <time>2018-07-08T09:41:02Z</time>
      </trkpt>
      <trkpt lat="45.99444" lon="4.90304">
        <ele>300</ele>
        <time>2018-07-08T09:41:04Z</time>
      </trkpt>
      <trkpt lat="45.99447" lon="4.90303">
        <ele>300</ele>
        <time>2018-07-08T09:41:05Z</time>
      </trkpt>
      <trkpt lat="45.99453" lon="4.90304">
        <ele>300</ele>
        <time>2018-07-08T09:41:07Z</time>
      </trkpt>
      <trkpt lat="45.99456" lon="4.90307">
        <ele>300</ele>
        <time>2018-07-08T09:41:08Z</time>
      </trkpt>
      <trkpt lat="45.99462" lon="4.90307">
        <ele>300</ele>
        <time>2018-07-08T09:41:09Z</time>
      </trkpt>
      <trkpt lat="45.99466" lon="4.90307">
        <ele>300</ele>
        <time>2018-07-08T09:41:10Z</time>
      </trkpt>
      <trkpt lat="45.9947" lon="4.90309">
        <ele>300</ele>
        <time>2018-07-08T09:41:11Z</time>
      </trkpt>
      <trkpt lat="45.99475" lon="4.90308">
        <ele>300</ele>
        <time>2018-07-08T09:41:12Z</time>
      </trkpt>
      <trkpt lat="45.9948" lon="4.90311">
        <ele>300</ele>
        <time>2018-07-08T09:41:15Z</time>
      </trkpt>
      <trkpt lat="45.99487" lon="4.90312">
        <ele>300</ele>
        <time>2018-07-08T09:41:16Z</time>
      </trkpt>
      <trkpt lat="45.99492" lon="4.90314">
        <ele>300</ele>
        <time>2018-07-08T09:41:17Z</time>
      </trkpt>
      <trkpt lat="45.99497" lon="4.90315">
        <ele>300</ele>
        <time>2018-07-08T09:41:18Z</time>
      </trkpt>
      <trkpt lat="45.99504" lon="4.90315">
        <ele>301</ele>
        <time>2018-07-08T09:41:20Z</time>
      </trkpt>
      <trkpt lat="45.9951" lon="4.90315">
        <ele>301</ele>
        <time>2018-07-08T09:41:21Z</time>
      </trkpt>
      <trkpt lat="45.99514" lon="4.90315">
        <ele>301</ele>
        <time>2018-07-08T09:41:22Z</time>
      </trkpt>
      <trkpt lat="45.99519" lon="4.90315">
        <ele>300</ele>
        <time>2018-07-08T09:41:23Z</time>
      </trkpt>
      <trkpt lat="45.99524" lon="4.90315">
        <ele>300</ele>
        <time>2018-07-08T09:41:24Z</time>
      </trkpt>
      <trkpt lat="45.99528" lon="4.90315">
        <ele>300</ele>
        <time>2018-07-08T09:41:25Z</time>
      </trkpt>
      <trkpt lat="45.99535" lon="4.90316">
        <ele>300</ele>
        <time>2018-07-08T09:41:27Z</time>
      </trkpt>
      <trkpt lat="45.9954" lon="4.90316">
        <ele>300</ele>
        <time>2018-07-08T09:41:28Z</time>
      </trkpt>
      <trkpt lat="45.99544" lon="4.90317">
        <ele>300</ele>
        <time>2018-07-08T09:41:30Z</time>
      </trkpt>
      <trkpt lat="45.99551" lon="4.90319">
        <ele>300</ele>
        <time>2018-07-08T09:41:31Z</time>
      </trkpt>
      <trkpt lat="45.99558" lon="4.9032">
        <ele>301</ele>
        <time>2018-07-08T09:41:35Z</time>
      </trkpt>
      <trkpt lat="45.9956" lon="4.9032">
        <ele>301</ele>
        <time>2018-07-08T09:41:36Z</time>
      </trkpt>
      <trkpt lat="45.99568" lon="4.90322">
        <ele>301</ele>
        <time>2018-07-08T09:41:39Z</time>
      </trkpt>
      <trkpt lat="45.9957" lon="4.90322">
        <ele>301</ele>
        <time>2018-07-08T09:41:40Z</time>
      </trkpt>
      <trkpt lat="45.99578" lon="4.90323">
        <ele>301</ele>
        <time>2018-07-08T09:41:43Z</time>
      </trkpt>
      <trkpt lat="45.99582" lon="4.90324">
        <ele>301</ele>
        <time>2018-07-08T09:41:44Z</time>
      </trkpt>
      <trkpt lat="45.99585" lon="4.90324">
        <ele>301</ele>
        <time>2018-07-08T09:41:45Z</time>
      </trkpt>
      <trkpt lat="45.99595" lon="4.90325">
        <ele>301</ele>
        <time>2018-07-08T09:41:46Z</time>
      </trkpt>
      <trkpt lat="45.99603" lon="4.90325">
        <ele>301</ele>
        <time>2018-07-08T09:41:48Z</time>
      </trkpt>
      <trkpt lat="45.99607" lon="4.90325">
        <ele>301</ele>
        <time>2018-07-08T09:41:49Z</time>
      </trkpt>
      <trkpt lat="45.99612" lon="4.90325">
        <ele>302</ele>
        <time>2018-07-08T09:41:51Z</time>
      </trkpt>
      <trkpt lat="45.99619" lon="4.90326">
        <ele>302</ele>
        <time>2018-07-08T09:41:52Z</time>
      </trkpt>
      <trkpt lat="45.99625" lon="4.90328">
        <ele>302</ele>
        <time>2018-07-08T09:41:53Z</time>
      </trkpt>
      <trkpt lat="45.99629" lon="4.90329">
        <ele>302</ele>
        <time>2018-07-08T09:41:54Z</time>
      </trkpt>
      <trkpt lat="45.99638" lon="4.90327">
        <ele>302</ele>
        <time>2018-07-08T09:41:57Z</time>
      </trkpt>
      <trkpt lat="45.9964" lon="4.90328">
        <ele>302</ele>
        <time>2018-07-08T09:41:58Z</time>
      </trkpt>
      <trkpt lat="45.99645" lon="4.90328">
        <ele>302</ele>
        <time>2018-07-08T09:41:59Z</time>
      </trkpt>
      <trkpt lat="45.9965" lon="4.90329">
        <ele>302</ele>
        <time>2018-07-08T09:42:00Z</time>
      </trkpt>
      <trkpt lat="45.99658" lon="4.90329">
        <ele>302</ele>
        <time>2018-07-08T09:42:04Z</time>
      </trkpt>
      <trkpt lat="45.9966" lon="4.90328">
        <ele>302</ele>
        <time>2018-07-08T09:42:05Z</time>
      </trkpt>
      <trkpt lat="45.99665" lon="4.90319">
        <ele>302</ele>
        <time>2018-07-08T09:42:08Z</time>
      </trkpt>
      <trkpt lat="45.99666" lon="4.90315">
        <ele>302</ele>
        <time>2018-07-08T09:42:09Z</time>
      </trkpt>
      <trkpt lat="45.99667" lon="4.90311">
        <ele>304</ele>
        <time>2018-07-08T09:42:10Z</time>
      </trkpt>
      <trkpt lat="45.99669" lon="4.90299">
        <ele>304</ele>
        <time>2018-07-08T09:42:11Z</time>
      </trkpt>
      <trkpt lat="45.99672" lon="4.90287">
        <ele>304</ele>
        <time>2018-07-08T09:42:13Z</time>
      </trkpt>
      <trkpt lat="45.99675" lon="4.90281">
        <ele>304</ele>
        <time>2018-07-08T09:42:14Z</time>
      </trkpt>
      <trkpt lat="45.99676" lon="4.90272">
        <ele>304</ele>
        <time>2018-07-08T09:42:16Z</time>
      </trkpt>
      <trkpt lat="45.99679" lon="4.90266">
        <ele>304</ele>
        <time>2018-07-08T09:42:17Z</time>
      </trkpt>
      <trkpt lat="45.99681" lon="4.90254">
        <ele>304</ele>
        <time>2018-07-08T09:42:19Z</time>
      </trkpt>
      <trkpt lat="45.99682" lon="4.90249">
        <ele>304</ele>
        <time>2018-07-08T09:42:20Z</time>
      </trkpt>
      <trkpt lat="45.9968" lon="4.90237">
        <ele>304</ele>
        <time>2018-07-08T09:42:22Z</time>
      </trkpt>
      <trkpt lat="45.99679" lon="4.90231">
        <ele>304</ele>
        <time>2018-07-08T09:42:23Z</time>
      </trkpt>
      <trkpt lat="45.99679" lon="4.90219">
        <ele>303</ele>
        <time>2018-07-08T09:42:25Z</time>
      </trkpt>
      <trkpt lat="45.9968" lon="4.90212">
        <ele>303</ele>
        <time>2018-07-08T09:42:26Z</time>
      </trkpt>
      <trkpt lat="45.99675" lon="4.90206">
        <ele>303</ele>
        <time>2018-07-08T09:42:27Z</time>
      </trkpt>
      <trkpt lat="45.99675" lon="4.90199">
        <ele>303</ele>
        <time>2018-07-08T09:42:28Z</time>
      </trkpt>
      <trkpt lat="45.99672" lon="4.9019">
        <ele>303</ele>
        <time>2018-07-08T09:42:29Z</time>
      </trkpt>
      <trkpt lat="45.9967" lon="4.90182">
        <ele>302</ele>
        <time>2018-07-08T09:42:30Z</time>
      </trkpt>
      <trkpt lat="45.99668" lon="4.90171">
        <ele>301</ele>
        <time>2018-07-08T09:42:31Z</time>
      </trkpt>
      <trkpt lat="45.99668" lon="4.90162">
        <ele>301</ele>
        <time>2018-07-08T09:42:32Z</time>
      </trkpt>
      <trkpt lat="45.99664" lon="4.90153">
        <ele>300</ele>
        <time>2018-07-08T09:42:33Z</time>
      </trkpt>
      <trkpt lat="45.99661" lon="4.90142">
        <ele>300</ele>
        <time>2018-07-08T09:42:34Z</time>
      </trkpt>
      <trkpt lat="45.99658" lon="4.9013">
        <ele>299</ele>
        <time>2018-07-08T09:42:35Z</time>
      </trkpt>
      <trkpt lat="45.99656" lon="4.90119">
        <ele>299</ele>
        <time>2018-07-08T09:42:36Z</time>
      </trkpt>
      <trkpt lat="45.99652" lon="4.90111">
        <ele>299</ele>
        <time>2018-07-08T09:42:37Z</time>
      </trkpt>
      <trkpt lat="45.99645" lon="4.90101">
        <ele>299</ele>
        <time>2018-07-08T09:42:38Z</time>
      </trkpt>
      <trkpt lat="45.9964" lon="4.90092">
        <ele>299</ele>
        <time>2018-07-08T09:42:39Z</time>
      </trkpt>
      <trkpt lat="45.99636" lon="4.90084">
        <ele>298</ele>
        <time>2018-07-08T09:42:40Z</time>
      </trkpt>
      <trkpt lat="45.99637" lon="4.90075">
        <ele>297</ele>
        <time>2018-07-08T09:42:41Z</time>
      </trkpt>
      <trkpt lat="45.99634" lon="4.90066">
        <ele>297</ele>
        <time>2018-07-08T09:42:42Z</time>
      </trkpt>
      <trkpt lat="45.99627" lon="4.90061">
        <ele>297</ele>
        <time>2018-07-08T09:42:43Z</time>
      </trkpt>
      <trkpt lat="45.9962" lon="4.90051">
        <ele>297</ele>
        <time>2018-07-08T09:42:44Z</time>
      </trkpt>
      <trkpt lat="45.99616" lon="4.90041">
        <ele>296</ele>
        <time>2018-07-08T09:42:45Z</time>
      </trkpt>
      <trkpt lat="45.99613" lon="4.90034">
        <ele>296</ele>
        <time>2018-07-08T09:42:46Z</time>
      </trkpt>
      <trkpt lat="45.99611" lon="4.90024">
        <ele>296</ele>
        <time>2018-07-08T09:42:47Z</time>
      </trkpt>
      <trkpt lat="45.99609" lon="4.90014">
        <ele>296</ele>
        <time>2018-07-08T09:42:48Z</time>
      </trkpt>
      <trkpt lat="45.99609" lon="4.90004">
        <ele>296</ele>
        <time>2018-07-08T09:42:49Z</time>
      </trkpt>
      <trkpt lat="45.99608" lon="4.89993">
        <ele>294</ele>
        <time>2018-07-08T09:42:50Z</time>
      </trkpt>
      <trkpt lat="45.99606" lon="4.89983">
        <ele>294</ele>
        <time>2018-07-08T09:42:51Z</time>
      </trkpt>
      <trkpt lat="45.99607" lon="4.89973">
        <ele>294</ele>
        <time>2018-07-08T09:42:52Z</time>
      </trkpt>
      <trkpt lat="45.99606" lon="4.89964">
        <ele>294</ele>
        <time>2018-07-08T09:42:53Z</time>
      </trkpt>
      <trkpt lat="45.99606" lon="4.89954">
        <ele>294</ele>
        <time>2018-07-08T09:42:54Z</time>
      </trkpt>
      <trkpt lat="45.99604" lon="4.89945">
        <ele>294</ele>
        <time>2018-07-08T09:42:55Z</time>
      </trkpt>
      <trkpt lat="45.99603" lon="4.89936">
        <ele>293</ele>
        <time>2018-07-08T09:42:56Z</time>
      </trkpt>
      <trkpt lat="45.99604" lon="4.89927">
        <ele>293</ele>
        <time>2018-07-08T09:42:57Z</time>
      </trkpt>
      <trkpt lat="45.99603" lon="4.89917">
        <ele>293</ele>
        <time>2018-07-08T09:42:58Z</time>
      </trkpt>
      <trkpt lat="45.99604" lon="4.89909">
        <ele>292</ele>
        <time>2018-07-08T09:42:59Z</time>
      </trkpt>
      <trkpt lat="45.99604" lon="4.899">
        <ele>292</ele>
        <time>2018-07-08T09:43:00Z</time>
      </trkpt>
      <trkpt lat="45.99602" lon="4.8989">
        <ele>292</ele>
        <time>2018-07-08T09:43:01Z</time>
      </trkpt>
      <trkpt lat="45.99602" lon="4.8988">
        <ele>292</ele>
        <time>2018-07-08T09:43:02Z</time>
      </trkpt>
      <trkpt lat="45.99602" lon="4.89871">
        <ele>293</ele>
        <time>2018-07-08T09:43:03Z</time>
      </trkpt>
      <trkpt lat="45.99602" lon="4.89862">
        <ele>293</ele>
        <time>2018-07-08T09:43:04Z</time>
      </trkpt>
      <trkpt lat="45.99602" lon="4.89853">
        <ele>293</ele>
        <time>2018-07-08T09:43:05Z</time>
      </trkpt>
      <trkpt lat="45.99601" lon="4.89844">
        <ele>293</ele>
        <time>2018-07-08T09:43:06Z</time>
      </trkpt>
      <trkpt lat="45.99606" lon="4.89836">
        <ele>293</ele>
        <time>2018-07-08T09:43:07Z</time>
      </trkpt>
      <trkpt lat="45.99608" lon="4.89827">
        <ele>292</ele>
        <time>2018-07-08T09:43:08Z</time>
      </trkpt>
      <trkpt lat="45.99608" lon="4.89818">
        <ele>292</ele>
        <time>2018-07-08T09:43:09Z</time>
      </trkpt>
      <trkpt lat="45.99602" lon="4.89808">
        <ele>292</ele>
        <time>2018-07-08T09:43:10Z</time>
      </trkpt>
      <trkpt lat="45.996" lon="4.898">
        <ele>292</ele>
        <time>2018-07-08T09:43:11Z</time>
      </trkpt>
      <trkpt lat="45.99603" lon="4.8979">
        <ele>292</ele>
        <time>2018-07-08T09:43:12Z</time>
      </trkpt>
      <trkpt lat="45.99606" lon="4.8978">
        <ele>292</ele>
        <time>2018-07-08T09:43:13Z</time>
      </trkpt>
      <trkpt lat="45.99609" lon="4.89769">
        <ele>292</ele>
        <time>2018-07-08T09:43:14Z</time>
      </trkpt>
      <trkpt lat="45.9961" lon="4.89762">
        <ele>292</ele>
        <time>2018-07-08T09:43:15Z</time>
      </trkpt>
      <trkpt lat="45.99608" lon="4.89753">
        <ele>292</ele>
        <time>2018-07-08T09:43:16Z</time>
      </trkpt>
      <trkpt lat="45.99606" lon="4.89744">
        <ele>292</ele>
        <time>2018-07-08T09:43:17Z</time>
      </trkpt>
      <trkpt lat="45.99607" lon="4.89734">
        <ele>292</ele>
        <time>2018-07-08T09:43:18Z</time>
      </trkpt>
      <trkpt lat="45.99606" lon="4.89728">
        <ele>292</ele>
        <time>2018-07-08T09:43:19Z</time>
      </trkpt>
      <trkpt lat="45.99604" lon="4.89721">
        <ele>292</ele>
        <time>2018-07-08T09:43:20Z</time>
      </trkpt>
      <trkpt lat="45.99606" lon="4.89713">
        <ele>292</ele>
        <time>2018-07-08T09:43:21Z</time>
      </trkpt>
      <trkpt lat="45.99604" lon="4.89703">
        <ele>292</ele>
        <time>2018-07-08T09:43:22Z</time>
      </trkpt>
      <trkpt lat="45.99606" lon="4.89697">
        <ele>291</ele>
        <time>2018-07-08T09:43:23Z</time>
      </trkpt>
      <trkpt lat="45.99607" lon="4.89689">
        <ele>291</ele>
        <time>2018-07-08T09:43:24Z</time>
      </trkpt>
      <trkpt lat="45.99606" lon="4.89681">
        <ele>291</ele>
        <time>2018-07-08T09:43:25Z</time>
      </trkpt>
      <trkpt lat="45.99605" lon="4.89671">
        <ele>292</ele>
        <time>2018-07-08T09:43:26Z</time>
      </trkpt>
      <trkpt lat="45.99605" lon="4.89661">
        <ele>291</ele>
        <time>2018-07-08T09:43:27Z</time>
      </trkpt>
      <trkpt lat="45.99606" lon="4.89652">
        <ele>291</ele>
        <time>2018-07-08T09:43:28Z</time>
      </trkpt>
      <trkpt lat="45.99605" lon="4.89643">
        <ele>291</ele>
        <time>2018-07-08T09:43:29Z</time>
      </trkpt>
      <trkpt lat="45.99605" lon="4.89634">
        <ele>291</ele>
        <time>2018-07-08T09:43:30Z</time>
      </trkpt>
      <trkpt lat="45.99605" lon="4.89625">
        <ele>291</ele>
        <time>2018-07-08T09:43:31Z</time>
      </trkpt>
      <trkpt lat="45.99603" lon="4.89617">
        <ele>291</ele>
        <time>2018-07-08T09:43:32Z</time>
      </trkpt>
      <trkpt lat="45.99602" lon="4.89609">
        <ele>291</ele>
        <time>2018-07-08T09:43:33Z</time>
      </trkpt>
      <trkpt lat="45.99602" lon="4.896">
        <ele>292</ele>
        <time>2018-07-08T09:43:34Z</time>
      </trkpt>
      <trkpt lat="45.99602" lon="4.8959">
        <ele>292</ele>
        <time>2018-07-08T09:43:35Z</time>
      </trkpt>
      <trkpt lat="45.99604" lon="4.8958">
        <ele>291</ele>
        <time>2018-07-08T09:43:36Z</time>
      </trkpt>
      <trkpt lat="45.99605" lon="4.89569">
        <ele>291</ele>
        <time>2018-07-08T09:43:37Z</time>
      </trkpt>
      <trkpt lat="45.99602" lon="4.8956">
        <ele>291</ele>
        <time>2018-07-08T09:43:38Z</time>
      </trkpt>
      <trkpt lat="45.99602" lon="4.89551">
        <ele>291</ele>
        <time>2018-07-08T09:43:39Z</time>
      </trkpt>
      <trkpt lat="45.99602" lon="4.89543">
        <ele>291</ele>
        <time>2018-07-08T09:43:40Z</time>
      </trkpt>
      <trkpt lat="45.99601" lon="4.89535">
        <ele>291</ele>
        <time>2018-07-08T09:43:41Z</time>
      </trkpt>
      <trkpt lat="45.99601" lon="4.89527">
        <ele>291</ele>
        <time>2018-07-08T09:43:42Z</time>
      </trkpt>
      <trkpt lat="45.996" lon="4.89518">
        <ele>291</ele>
        <time>2018-07-08T09:43:43Z</time>
      </trkpt>
      <trkpt lat="45.996" lon="4.8951">
        <ele>290</ele>
        <time>2018-07-08T09:43:44Z</time>
      </trkpt>
      <trkpt lat="45.99598" lon="4.89503">
        <ele>290</ele>
        <time>2018-07-08T09:43:45Z</time>
      </trkpt>
      <trkpt lat="45.99597" lon="4.89496">
        <ele>290</ele>
        <time>2018-07-08T09:43:46Z</time>
      </trkpt>
      <trkpt lat="45.99597" lon="4.89487">
        <ele>290</ele>
        <time>2018-07-08T09:43:47Z</time>
      </trkpt>
      <trkpt lat="45.99597" lon="4.8948">
        <ele>290</ele>
        <time>2018-07-08T09:43:48Z</time>
      </trkpt>
      <trkpt lat="45.99596" lon="4.89471">
        <ele>290</ele>
        <time>2018-07-08T09:43:49Z</time>
      </trkpt>
      <trkpt lat="45.99596" lon="4.89463">
        <ele>290</ele>
        <time>2018-07-08T09:43:50Z</time>
      </trkpt>
      <trkpt lat="45.99595" lon="4.89454">
        <ele>290</ele>
        <time>2018-07-08T09:43:51Z</time>
      </trkpt>
      <trkpt lat="45.99594" lon="4.89445">
        <ele>290</ele>
        <time>2018-07-08T09:43:52Z</time>
      </trkpt>
      <trkpt lat="45.99594" lon="4.89436">
        <ele>290</ele>
        <time>2018-07-08T09:43:53Z</time>
      </trkpt>
      <trkpt lat="45.99594" lon="4.89428">
        <ele>290</ele>
        <time>2018-07-08T09:43:54Z</time>
      </trkpt>
      <trkpt lat="45.99593" lon="4.8942">
        <ele>290</ele>
        <time>2018-07-08T09:43:55Z</time>
      </trkpt>
      <trkpt lat="45.99593" lon="4.89413">
        <ele>290</ele>
        <time>2018-07-08T09:43:56Z</time>
      </trkpt>
      <trkpt lat="45.99593" lon="4.89404">
        <ele>290</ele>
        <time>2018-07-08T09:43:57Z</time>
      </trkpt>
      <trkpt lat="45.99591" lon="4.89395">
        <ele>290</ele>
        <time>2018-07-08T09:43:58Z</time>
      </trkpt>
      <trkpt lat="45.9959" lon="4.89387">
        <ele>290</ele>
        <time>2018-07-08T09:43:59Z</time>
      </trkpt>
      <trkpt lat="45.99591" lon="4.89379">
        <ele>290</ele>
        <time>2018-07-08T09:44:00Z</time>
      </trkpt>
      <trkpt lat="45.9959" lon="4.89371">
        <ele>289</ele>
        <time>2018-07-08T09:44:01Z</time>
      </trkpt>
      <trkpt lat="45.99589" lon="4.89364">
        <ele>289</ele>
        <time>2018-07-08T09:44:02Z</time>
      </trkpt>
      <trkpt lat="45.99588" lon="4.89355">
        <ele>289</ele>
        <time>2018-07-08T09:44:03Z</time>
      </trkpt>
      <trkpt lat="45.99586" lon="4.89345">
        <ele>289</ele>
        <time>2018-07-08T09:44:04Z</time>
      </trkpt>
      <trkpt lat="45.99586" lon="4.89337">
        <ele>289</ele>
        <time>2018-07-08T09:44:05Z</time>
      </trkpt>
      <trkpt lat="45.99583" lon="4.89327">
        <ele>289</ele>
        <time>2018-07-08T09:44:06Z</time>
      </trkpt>
      <trkpt lat="45.99583" lon="4.89318">
        <ele>288</ele>
        <time>2018-07-08T09:44:07Z</time>
      </trkpt>
      <trkpt lat="45.99582" lon="4.89309">
        <ele>288</ele>
        <time>2018-07-08T09:44:08Z</time>
      </trkpt>
      <trkpt lat="45.99581" lon="4.893">
        <ele>288</ele>
        <time>2018-07-08T09:44:09Z</time>
      </trkpt>
      <trkpt lat="45.99581" lon="4.8929">
        <ele>288</ele>
        <time>2018-07-08T09:44:10Z</time>
      </trkpt>
      <trkpt lat="45.99581" lon="4.89281">
        <ele>288</ele>
        <time>2018-07-08T09:44:11Z</time>
      </trkpt>
      <trkpt lat="45.99579" lon="4.89273">
        <ele>288</ele>
        <time>2018-07-08T09:44:12Z</time>
      </trkpt>
      <trkpt lat="45.99577" lon="4.89264">
        <ele>288</ele>
        <time>2018-07-08T09:44:13Z</time>
      </trkpt>
      <trkpt lat="45.99577" lon="4.89256">
        <ele>288</ele>
        <time>2018-07-08T09:44:14Z</time>
      </trkpt>
      <trkpt lat="45.99579" lon="4.89248">
        <ele>288</ele>
        <time>2018-07-08T09:44:15Z</time>
      </trkpt>
      <trkpt lat="45.99578" lon="4.89239">
        <ele>288</ele>
        <time>2018-07-08T09:44:16Z</time>
      </trkpt>
      <trkpt lat="45.99576" lon="4.8923">
        <ele>288</ele>
        <time>2018-07-08T09:44:17Z</time>
      </trkpt>
      <trkpt lat="45.99575" lon="4.89223">
        <ele>288</ele>
        <time>2018-07-08T09:44:18Z</time>
      </trkpt>
      <trkpt lat="45.99575" lon="4.89215">
        <ele>288</ele>
        <time>2018-07-08T09:44:19Z</time>
      </trkpt>
      <trkpt lat="45.99576" lon="4.89206">
        <ele>288</ele>
        <time>2018-07-08T09:44:20Z</time>
      </trkpt>
      <trkpt lat="45.99575" lon="4.89197">
        <ele>288</ele>
        <time>2018-07-08T09:44:21Z</time>
      </trkpt>
      <trkpt lat="45.99575" lon="4.89188">
        <ele>288</ele>
        <time>2018-07-08T09:44:22Z</time>
      </trkpt>
      <trkpt lat="45.99574" lon="4.89178">
        <ele>288</ele>
        <time>2018-07-08T09:44:23Z</time>
      </trkpt>
      <trkpt lat="45.99572" lon="4.89169">
        <ele>288</ele>
        <time>2018-07-08T09:44:24Z</time>
      </trkpt>
      <trkpt lat="45.99572" lon="4.8916">
        <ele>288</ele>
        <time>2018-07-08T09:44:25Z</time>
      </trkpt>
      <trkpt lat="45.99572" lon="4.89151">
        <ele>289</ele>
        <time>2018-07-08T09:44:26Z</time>
      </trkpt>
      <trkpt lat="45.99571" lon="4.89142">
        <ele>289</ele>
        <time>2018-07-08T09:44:27Z</time>
      </trkpt>
      <trkpt lat="45.99571" lon="4.89132">
        <ele>289</ele>
        <time>2018-07-08T09:44:28Z</time>
      </trkpt>
      <trkpt lat="45.99572" lon="4.89123">
        <ele>289</ele>
        <time>2018-07-08T09:44:29Z</time>
      </trkpt>
      <trkpt lat="45.99575" lon="4.89114">
        <ele>289</ele>
        <time>2018-07-08T09:44:30Z</time>
      </trkpt>
      <trkpt lat="45.99575" lon="4.89105">
        <ele>289</ele>
        <time>2018-07-08T09:44:31Z</time>
      </trkpt>
      <trkpt lat="45.99579" lon="4.89097">
        <ele>289</ele>
        <time>2018-07-08T09:44:32Z</time>
      </trkpt>
      <trkpt lat="45.99578" lon="4.89089">
        <ele>289</ele>
        <time>2018-07-08T09:44:33Z</time>
      </trkpt>
      <trkpt lat="45.99579" lon="4.8908">
        <ele>289</ele>
        <time>2018-07-08T09:44:34Z</time>
      </trkpt>
      <trkpt lat="45.9958" lon="4.89072">
        <ele>289</ele>
        <time>2018-07-08T09:44:35Z</time>
      </trkpt>
      <trkpt lat="45.9958" lon="4.89062">
        <ele>289</ele>
        <time>2018-07-08T09:44:36Z</time>
      </trkpt>
      <trkpt lat="45.99583" lon="4.89054">
        <ele>288</ele>
        <time>2018-07-08T09:44:37Z</time>
      </trkpt>
      <trkpt lat="45.99584" lon="4.89047">
        <ele>289</ele>
        <time>2018-07-08T09:44:38Z</time>
      </trkpt>
      <trkpt lat="45.99585" lon="4.89039">
        <ele>289</ele>
        <time>2018-07-08T09:44:39Z</time>
      </trkpt>
      <trkpt lat="45.99587" lon="4.89031">
        <ele>289</ele>
        <time>2018-07-08T09:44:40Z</time>
      </trkpt>
      <trkpt lat="45.99588" lon="4.89023">
        <ele>288</ele>
        <time>2018-07-08T09:44:41Z</time>
      </trkpt>
      <trkpt lat="45.99589" lon="4.89015">
        <ele>288</ele>
        <time>2018-07-08T09:44:42Z</time>
      </trkpt>
      <trkpt lat="45.9959" lon="4.89008">
        <ele>288</ele>
        <time>2018-07-08T09:44:43Z</time>
      </trkpt>
      <trkpt lat="45.9959" lon="4.89">
        <ele>288</ele>
        <time>2018-07-08T09:44:44Z</time>
      </trkpt>
      <trkpt lat="45.9959" lon="4.88994">
        <ele>288</ele>
        <time>2018-07-08T09:44:45Z</time>
      </trkpt>
      <trkpt lat="45.99589" lon="4.88986">
        <ele>288</ele>
        <time>2018-07-08T09:44:46Z</time>
      </trkpt>
      <trkpt lat="45.99589" lon="4.88977">
        <ele>288</ele>
        <time>2018-07-08T09:44:47Z</time>
      </trkpt>
      <trkpt lat="45.99589" lon="4.88971">
        <ele>288</ele>
        <time>2018-07-08T09:44:48Z</time>
      </trkpt>
      <trkpt lat="45.9959" lon="4.88962">
        <ele>288</ele>
        <time>2018-07-08T09:44:49Z</time>
      </trkpt>
      <trkpt lat="45.9959" lon="4.88953">
        <ele>287</ele>
        <time>2018-07-08T09:44:50Z</time>
      </trkpt>
      <trkpt lat="45.99587" lon="4.88944">
        <ele>287</ele>
        <time>2018-07-08T09:44:51Z</time>
      </trkpt>
      <trkpt lat="45.99587" lon="4.88937">
        <ele>287</ele>
        <time>2018-07-08T09:44:52Z</time>
      </trkpt>
      <trkpt lat="45.99588" lon="4.88928">
        <ele>287</ele>
        <time>2018-07-08T09:44:53Z</time>
      </trkpt>
      <trkpt lat="45.99583" lon="4.8892">
        <ele>287</ele>
        <time>2018-07-08T09:44:54Z</time>
      </trkpt>
      <trkpt lat="45.99582" lon="4.8891">
        <ele>287</ele>
        <time>2018-07-08T09:44:55Z</time>
      </trkpt>
      <trkpt lat="45.9958" lon="4.88898">
        <ele>287</ele>
        <time>2018-07-08T09:44:56Z</time>
      </trkpt>
      <trkpt lat="45.99579" lon="4.88889">
        <ele>287</ele>
        <time>2018-07-08T09:44:57Z</time>
      </trkpt>
      <trkpt lat="45.99578" lon="4.8888">
        <ele>287</ele>
        <time>2018-07-08T09:44:58Z</time>
      </trkpt>
      <trkpt lat="45.99578" lon="4.88872">
        <ele>287</ele>
        <time>2018-07-08T09:44:59Z</time>
      </trkpt>
      <trkpt lat="45.99576" lon="4.88863">
        <ele>287</ele>
        <time>2018-07-08T09:45:00Z</time>
      </trkpt>
      <trkpt lat="45.99576" lon="4.88853">
        <ele>287</ele>
        <time>2018-07-08T09:45:01Z</time>
      </trkpt>
      <trkpt lat="45.99575" lon="4.88845">
        <ele>287</ele>
        <time>2018-07-08T09:45:02Z</time>
      </trkpt>
      <trkpt lat="45.99576" lon="4.88836">
        <ele>287</ele>
        <time>2018-07-08T09:45:03Z</time>
      </trkpt>
      <trkpt lat="45.99575" lon="4.88828">
        <ele>287</ele>
        <time>2018-07-08T09:45:04Z</time>
      </trkpt>
      <trkpt lat="45.99575" lon="4.88819">
        <ele>287</ele>
        <time>2018-07-08T09:45:05Z</time>
      </trkpt>
      <trkpt lat="45.99574" lon="4.88812">
        <ele>287</ele>
        <time>2018-07-08T09:45:06Z</time>
      </trkpt>
      <trkpt lat="45.99572" lon="4.88805">
        <ele>287</ele>
        <time>2018-07-08T09:45:07Z</time>
      </trkpt>
      <trkpt lat="45.9957" lon="4.88796">
        <ele>287</ele>
        <time>2018-07-08T09:45:08Z</time>
      </trkpt>
      <trkpt lat="45.99569" lon="4.88788">
        <ele>287</ele>
        <time>2018-07-08T09:45:09Z</time>
      </trkpt>
      <trkpt lat="45.99569" lon="4.88782">
        <ele>287</ele>
        <time>2018-07-08T09:45:10Z</time>
      </trkpt>
      <trkpt lat="45.99566" lon="4.88774">
        <ele>287</ele>
        <time>2018-07-08T09:45:11Z</time>
      </trkpt>
      <trkpt lat="45.99568" lon="4.88766">
        <ele>287</ele>
        <time>2018-07-08T09:45:12Z</time>
      </trkpt>
      <trkpt lat="45.99565" lon="4.88757">
        <ele>287</ele>
        <time>2018-07-08T09:45:13Z</time>
      </trkpt>
      <trkpt lat="45.99566" lon="4.88752">
        <ele>287</ele>
        <time>2018-07-08T09:45:14Z</time>
      </trkpt>
      <trkpt lat="45.99566" lon="4.88744">
        <ele>287</ele>
        <time>2018-07-08T09:45:15Z</time>
      </trkpt>
      <trkpt lat="45.99568" lon="4.88738">
        <ele>287</ele>
        <time>2018-07-08T09:45:16Z</time>
      </trkpt>
      <trkpt lat="45.99567" lon="4.88731">
        <ele>287</ele>
        <time>2018-07-08T09:45:17Z</time>
      </trkpt>
      <trkpt lat="45.99568" lon="4.88724">
        <ele>287</ele>
        <time>2018-07-08T09:45:18Z</time>
      </trkpt>
      <trkpt lat="45.99568" lon="4.88717">
        <ele>286</ele>
        <time>2018-07-08T09:45:19Z</time>
      </trkpt>
      <trkpt lat="45.99567" lon="4.88709">
        <ele>286</ele>
        <time>2018-07-08T09:45:20Z</time>
      </trkpt>
      <trkpt lat="45.99565" lon="4.887">
        <ele>286</ele>
        <time>2018-07-08T09:45:21Z</time>
      </trkpt>
      <trkpt lat="45.99562" lon="4.88691">
        <ele>286</ele>
        <time>2018-07-08T09:45:22Z</time>
      </trkpt>
      <trkpt lat="45.99563" lon="4.88682">
        <ele>286</ele>
        <time>2018-07-08T09:45:23Z</time>
      </trkpt>
      <trkpt lat="45.9956" lon="4.88675">
        <ele>286</ele>
        <time>2018-07-08T09:45:24Z</time>
      </trkpt>
      <trkpt lat="45.9956" lon="4.88666">
        <ele>286</ele>
        <time>2018-07-08T09:45:25Z</time>
      </trkpt>
      <trkpt lat="45.99558" lon="4.88656">
        <ele>286</ele>
        <time>2018-07-08T09:45:26Z</time>
      </trkpt>
      <trkpt lat="45.99556" lon="4.88645">
        <ele>286</ele>
        <time>2018-07-08T09:45:27Z</time>
      </trkpt>
      <trkpt lat="45.99554" lon="4.88638">
        <ele>286</ele>
        <time>2018-07-08T09:45:28Z</time>
      </trkpt>
      <trkpt lat="45.99552" lon="4.88628">
        <ele>286</ele>
        <time>2018-07-08T09:45:29Z</time>
      </trkpt>
      <trkpt lat="45.99552" lon="4.88618">
        <ele>286</ele>
        <time>2018-07-08T09:45:30Z</time>
      </trkpt>
      <trkpt lat="45.99551" lon="4.88608">
        <ele>286</ele>
        <time>2018-07-08T09:45:31Z</time>
      </trkpt>
      <trkpt lat="45.99551" lon="4.886">
        <ele>286</ele>
        <time>2018-07-08T09:45:32Z</time>
      </trkpt>
      <trkpt lat="45.99551" lon="4.88591">
        <ele>286</ele>
        <time>2018-07-08T09:45:33Z</time>
      </trkpt>
      <trkpt lat="45.99549" lon="4.88582">
        <ele>286</ele>
        <time>2018-07-08T09:45:34Z</time>
      </trkpt>
      <trkpt lat="45.99547" lon="4.88574">
        <ele>286</ele>
        <time>2018-07-08T09:45:35Z</time>
      </trkpt>
      <trkpt lat="45.99544" lon="4.88565">
        <ele>285</ele>
        <time>2018-07-08T09:45:36Z</time>
      </trkpt>
      <trkpt lat="45.99541" lon="4.88556">
        <ele>285</ele>
        <time>2018-07-08T09:45:37Z</time>
      </trkpt>
      <trkpt lat="45.99538" lon="4.88547">
        <ele>285</ele>
        <time>2018-07-08T09:45:38Z</time>
      </trkpt>
      <trkpt lat="45.99534" lon="4.8854">
        <ele>285</ele>
        <time>2018-07-08T09:45:39Z</time>
      </trkpt>
      <trkpt lat="45.9953" lon="4.88534">
        <ele>285</ele>
        <time>2018-07-08T09:45:40Z</time>
      </trkpt>
      <trkpt lat="45.99527" lon="4.88525">
        <ele>285</ele>
        <time>2018-07-08T09:45:41Z</time>
      </trkpt>
      <trkpt lat="45.99523" lon="4.88517">
        <ele>285</ele>
        <time>2018-07-08T09:45:42Z</time>
      </trkpt>
      <trkpt lat="45.99517" lon="4.88508">
        <ele>285</ele>
        <time>2018-07-08T09:45:43Z</time>
      </trkpt>
      <trkpt lat="45.99512" lon="4.885">
        <ele>284</ele>
        <time>2018-07-08T09:45:44Z</time>
      </trkpt>
      <trkpt lat="45.9951" lon="4.88494">
        <ele>284</ele>
        <time>2018-07-08T09:45:45Z</time>
      </trkpt>
      <trkpt lat="45.99505" lon="4.88485">
        <ele>284</ele>
        <time>2018-07-08T09:45:46Z</time>
      </trkpt>
      <trkpt lat="45.99501" lon="4.88477">
        <ele>284</ele>
        <time>2018-07-08T09:45:47Z</time>
      </trkpt>
      <trkpt lat="45.99496" lon="4.8847">
        <ele>284</ele>
        <time>2018-07-08T09:45:48Z</time>
      </trkpt>
      <trkpt lat="45.99492" lon="4.88462">
        <ele>284</ele>
        <time>2018-07-08T09:45:49Z</time>
      </trkpt>
      <trkpt lat="45.99489" lon="4.88455">
        <ele>284</ele>
        <time>2018-07-08T09:45:50Z</time>
      </trkpt>
      <trkpt lat="45.99484" lon="4.88448">
        <ele>284</ele>
        <time>2018-07-08T09:45:51Z</time>
      </trkpt>
      <trkpt lat="45.99481" lon="4.8844">
        <ele>284</ele>
        <time>2018-07-08T09:45:52Z</time>
      </trkpt>
      <trkpt lat="45.99475" lon="4.88436">
        <ele>284</ele>
        <time>2018-07-08T09:45:53Z</time>
      </trkpt>
      <trkpt lat="45.9947" lon="4.88431">
        <ele>284</ele>
        <time>2018-07-08T09:45:54Z</time>
      </trkpt>
      <trkpt lat="45.99463" lon="4.88426">
        <ele>284</ele>
        <time>2018-07-08T09:45:55Z</time>
      </trkpt>
      <trkpt lat="45.9946" lon="4.88421">
        <ele>284</ele>
        <time>2018-07-08T09:45:56Z</time>
      </trkpt>
      <trkpt lat="45.99454" lon="4.88416">
        <ele>283</ele>
        <time>2018-07-08T09:45:57Z</time>
      </trkpt>
      <trkpt lat="45.99448" lon="4.88409">
        <ele>283</ele>
        <time>2018-07-08T09:45:58Z</time>
      </trkpt>
      <trkpt lat="45.99443" lon="4.88403">
        <ele>283</ele>
        <time>2018-07-08T09:45:59Z</time>
      </trkpt>
      <trkpt lat="45.99439" lon="4.88395">
        <ele>283</ele>
        <time>2018-07-08T09:46:00Z</time>
      </trkpt>
      <trkpt lat="45.99434" lon="4.88387">
        <ele>283</ele>
        <time>2018-07-08T09:46:01Z</time>
      </trkpt>
      <trkpt lat="45.99431" lon="4.8838">
        <ele>283</ele>
        <time>2018-07-08T09:46:02Z</time>
      </trkpt>
      <trkpt lat="45.99428" lon="4.88372">
        <ele>283</ele>
        <time>2018-07-08T09:46:03Z</time>
      </trkpt>
      <trkpt lat="45.99423" lon="4.88363">
        <ele>283</ele>
        <time>2018-07-08T09:46:04Z</time>
      </trkpt>
      <trkpt lat="45.99421" lon="4.88354">
        <ele>283</ele>
        <time>2018-07-08T09:46:05Z</time>
      </trkpt>
      <trkpt lat="45.99417" lon="4.88347">
        <ele>282</ele>
        <time>2018-07-08T09:46:06Z</time>
      </trkpt>
      <trkpt lat="45.99415" lon="4.88338">
        <ele>282</ele>
        <time>2018-07-08T09:46:07Z</time>
      </trkpt>
      <trkpt lat="45.99411" lon="4.88331">
        <ele>282</ele>
        <time>2018-07-08T09:46:08Z</time>
      </trkpt>
      <trkpt lat="45.99407" lon="4.88323">
        <ele>283</ele>
        <time>2018-07-08T09:46:09Z</time>
      </trkpt>
      <trkpt lat="45.99401" lon="4.88315">
        <ele>283</ele>
        <time>2018-07-08T09:46:10Z</time>
      </trkpt>
      <trkpt lat="45.994" lon="4.8831">
        <ele>283</ele>
        <time>2018-07-08T09:46:11Z</time>
      </trkpt>
      <trkpt lat="45.99398" lon="4.88302">
        <ele>284</ele>
        <time>2018-07-08T09:46:12Z</time>
      </trkpt>
      <trkpt lat="45.99396" lon="4.88294">
        <ele>284</ele>
        <time>2018-07-08T09:46:13Z</time>
      </trkpt>
      <trkpt lat="45.99393" lon="4.88286">
        <ele>284</ele>
        <time>2018-07-08T09:46:14Z</time>
      </trkpt>
      <trkpt lat="45.99391" lon="4.8828">
        <ele>284</ele>
        <time>2018-07-08T09:46:15Z</time>
      </trkpt>
      <trkpt lat="45.99386" lon="4.88273">
        <ele>284</ele>
        <time>2018-07-08T09:46:16Z</time>
      </trkpt>
      <trkpt lat="45.99384" lon="4.88263">
        <ele>285</ele>
        <time>2018-07-08T09:46:17Z</time>
      </trkpt>
      <trkpt lat="45.9938" lon="4.88254">
        <ele>285</ele>
        <time>2018-07-08T09:46:18Z</time>
      </trkpt>
      <trkpt lat="45.99374" lon="4.88245">
        <ele>287</ele>
        <time>2018-07-08T09:46:19Z</time>
      </trkpt>
      <trkpt lat="45.99366" lon="4.88237">
        <ele>287</ele>
        <time>2018-07-08T09:46:20Z</time>
      </trkpt>
      <trkpt lat="45.99357" lon="4.88231">
        <ele>287</ele>
        <time>2018-07-08T09:46:21Z</time>
      </trkpt>
      <trkpt lat="45.99352" lon="4.88224">
        <ele>287</ele>
        <time>2018-07-08T09:46:22Z</time>
      </trkpt>
      <trkpt lat="45.99345" lon="4.88219">
        <ele>287</ele>
        <time>2018-07-08T09:46:23Z</time>
      </trkpt>
      <trkpt lat="45.99328" lon="4.88204">
        <ele>285</ele>
        <time>2018-07-08T09:46:26Z</time>
      </trkpt>
      <trkpt lat="45.99323" lon="4.88198">
        <ele>285</ele>
        <time>2018-07-08T09:46:27Z</time>
      </trkpt>
      <trkpt lat="45.99318" lon="4.88192">
        <ele>285</ele>
        <time>2018-07-08T09:46:28Z</time>
      </trkpt>
      <trkpt lat="45.99312" lon="4.88188">
        <ele>285</ele>
        <time>2018-07-08T09:46:29Z</time>
      </trkpt>
      <trkpt lat="45.99307" lon="4.88182">
        <ele>285</ele>
        <time>2018-07-08T09:46:30Z</time>
      </trkpt>
      <trkpt lat="45.99303" lon="4.88178">
        <ele>285</ele>
        <time>2018-07-08T09:46:31Z</time>
      </trkpt>
      <trkpt lat="45.99299" lon="4.88173">
        <ele>284</ele>
        <time>2018-07-08T09:46:32Z</time>
      </trkpt>
      <trkpt lat="45.99294" lon="4.88167">
        <ele>284</ele>
        <time>2018-07-08T09:46:33Z</time>
      </trkpt>
      <trkpt lat="45.99287" lon="4.88162">
        <ele>284</ele>
        <time>2018-07-08T09:46:34Z</time>
      </trkpt>
      <trkpt lat="45.99282" lon="4.88158">
        <ele>284</ele>
        <time>2018-07-08T09:46:35Z</time>
      </trkpt>
      <trkpt lat="45.99277" lon="4.88153">
        <ele>283</ele>
        <time>2018-07-08T09:46:36Z</time>
      </trkpt>
      <trkpt lat="45.99272" lon="4.88148">
        <ele>283</ele>
        <time>2018-07-08T09:46:37Z</time>
      </trkpt>
      <trkpt lat="45.99265" lon="4.8814">
        <ele>283</ele>
        <time>2018-07-08T09:46:38Z</time>
      </trkpt>
      <trkpt lat="45.9926" lon="4.88135">
        <ele>283</ele>
        <time>2018-07-08T09:46:39Z</time>
      </trkpt>
      <trkpt lat="45.99255" lon="4.8813">
        <ele>283</ele>
        <time>2018-07-08T09:46:40Z</time>
      </trkpt>
      <trkpt lat="45.9925" lon="4.88126">
        <ele>283</ele>
        <time>2018-07-08T09:46:41Z</time>
      </trkpt>
      <trkpt lat="45.99244" lon="4.88121">
        <ele>280</ele>
        <time>2018-07-08T09:46:42Z</time>
      </trkpt>
      <trkpt lat="45.99238" lon="4.88117">
        <ele>280</ele>
        <time>2018-07-08T09:46:43Z</time>
      </trkpt>
      <trkpt lat="45.99235" lon="4.88112">
        <ele>280</ele>
        <time>2018-07-08T09:46:44Z</time>
      </trkpt>
      <trkpt lat="45.99228" lon="4.88106">
        <ele>280</ele>
        <time>2018-07-08T09:46:45Z</time>
      </trkpt>
      <trkpt lat="45.99222" lon="4.88102">
        <ele>280</ele>
        <time>2018-07-08T09:46:46Z</time>
      </trkpt>
      <trkpt lat="45.99218" lon="4.88097">
        <ele>280</ele>
        <time>2018-07-08T09:46:47Z</time>
      </trkpt>
      <trkpt lat="45.99213" lon="4.88093">
        <ele>280</ele>
        <time>2018-07-08T09:46:48Z</time>
      </trkpt>
      <trkpt lat="45.99206" lon="4.88087">
        <ele>280</ele>
        <time>2018-07-08T09:46:49Z</time>
      </trkpt>
      <trkpt lat="45.992" lon="4.88083">
        <ele>280</ele>
        <time>2018-07-08T09:46:50Z</time>
      </trkpt>
      <trkpt lat="45.99192" lon="4.88078">
        <ele>280</ele>
        <time>2018-07-08T09:46:51Z</time>
      </trkpt>
      <trkpt lat="45.99186" lon="4.88073">
        <ele>279</ele>
        <time>2018-07-08T09:46:52Z</time>
      </trkpt>
      <trkpt lat="45.9918" lon="4.88068">
        <ele>279</ele>
        <time>2018-07-08T09:46:53Z</time>
      </trkpt>
      <trkpt lat="45.99173" lon="4.88063">
        <ele>279</ele>
        <time>2018-07-08T09:46:54Z</time>
      </trkpt>
      <trkpt lat="45.99167" lon="4.88059">
        <ele>279</ele>
        <time>2018-07-08T09:46:55Z</time>
      </trkpt>
      <trkpt lat="45.99158" lon="4.88052">
        <ele>279</ele>
        <time>2018-07-08T09:46:56Z</time>
      </trkpt>
      <trkpt lat="45.99155" lon="4.88048">
        <ele>279</ele>
        <time>2018-07-08T09:46:57Z</time>
      </trkpt>
      <trkpt lat="45.99149" lon="4.88042">
        <ele>279</ele>
        <time>2018-07-08T09:46:58Z</time>
      </trkpt>
      <trkpt lat="45.99142" lon="4.88039">
        <ele>279</ele>
        <time>2018-07-08T09:46:59Z</time>
      </trkpt>
      <trkpt lat="45.99136" lon="4.88034">
        <ele>279</ele>
        <time>2018-07-08T09:47:00Z</time>
      </trkpt>
      <trkpt lat="45.9913" lon="4.88029">
        <ele>279</ele>
        <time>2018-07-08T09:47:01Z</time>
      </trkpt>
      <trkpt lat="45.99123" lon="4.88026">
        <ele>278</ele>
        <time>2018-07-08T09:47:02Z</time>
      </trkpt>
      <trkpt lat="45.99117" lon="4.88023">
        <ele>278</ele>
        <time>2018-07-08T09:47:03Z</time>
      </trkpt>
      <trkpt lat="45.99111" lon="4.88019">
        <ele>278</ele>
        <time>2018-07-08T09:47:04Z</time>
      </trkpt>
      <trkpt lat="45.99104" lon="4.88015">
        <ele>278</ele>
        <time>2018-07-08T09:47:05Z</time>
      </trkpt>
      <trkpt lat="45.99096" lon="4.88011">
        <ele>278</ele>
        <time>2018-07-08T09:47:06Z</time>
      </trkpt>
      <trkpt lat="45.9909" lon="4.88007">
        <ele>278</ele>
        <time>2018-07-08T09:47:07Z</time>
      </trkpt>
      <trkpt lat="45.99082" lon="4.88003">
        <ele>278</ele>
        <time>2018-07-08T09:47:08Z</time>
      </trkpt>
      <trkpt lat="45.99074" lon="4.88">
        <ele>278</ele>
        <time>2018-07-08T09:47:09Z</time>
      </trkpt>
      <trkpt lat="45.99067" lon="4.87994">
        <ele>277</ele>
        <time>2018-07-08T09:47:10Z</time>
      </trkpt>
      <trkpt lat="45.99062" lon="4.87991">
        <ele>277</ele>
        <time>2018-07-08T09:47:11Z</time>
      </trkpt>
      <trkpt lat="45.99056" lon="4.87986">
        <ele>277</ele>
        <time>2018-07-08T09:47:12Z</time>
      </trkpt>
      <trkpt lat="45.99049" lon="4.87982">
        <ele>277</ele>
        <time>2018-07-08T09:47:13Z</time>
      </trkpt>
      <trkpt lat="45.99043" lon="4.87978">
        <ele>277</ele>
        <time>2018-07-08T09:47:14Z</time>
      </trkpt>
      <trkpt lat="45.99036" lon="4.87974">
        <ele>276</ele>
        <time>2018-07-08T09:47:15Z</time>
      </trkpt>
      <trkpt lat="45.99026" lon="4.87969">
        <ele>276</ele>
        <time>2018-07-08T09:47:16Z</time>
      </trkpt>
      <trkpt lat="45.9902" lon="4.87963">
        <ele>276</ele>
        <time>2018-07-08T09:47:17Z</time>
      </trkpt>
      <trkpt lat="45.99012" lon="4.87959">
        <ele>276</ele>
        <time>2018-07-08T09:47:18Z</time>
      </trkpt>
      <trkpt lat="45.99006" lon="4.87957">
        <ele>276</ele>
        <time>2018-07-08T09:47:19Z</time>
      </trkpt>
      <trkpt lat="45.98996" lon="4.87954">
        <ele>274</ele>
        <time>2018-07-08T09:47:20Z</time>
      </trkpt>
      <trkpt lat="45.98989" lon="4.87949">
        <ele>274</ele>
        <time>2018-07-08T09:47:21Z</time>
      </trkpt>
      <trkpt lat="45.98981" lon="4.87944">
        <ele>274</ele>
        <time>2018-07-08T09:47:22Z</time>
      </trkpt>
      <trkpt lat="45.98973" lon="4.87939">
        <ele>274</ele>
        <time>2018-07-08T09:47:23Z</time>
      </trkpt>
      <trkpt lat="45.98962" lon="4.87936">
        <ele>273</ele>
        <time>2018-07-08T09:47:24Z</time>
      </trkpt>
      <trkpt lat="45.98954" lon="4.8793">
        <ele>273</ele>
        <time>2018-07-08T09:47:25Z</time>
      </trkpt>
      <trkpt lat="45.98948" lon="4.87928">
        <ele>273</ele>
        <time>2018-07-08T09:47:26Z</time>
      </trkpt>
      <trkpt lat="45.9894" lon="4.87922">
        <ele>273</ele>
        <time>2018-07-08T09:47:27Z</time>
      </trkpt>
      <trkpt lat="45.9893" lon="4.87917">
        <ele>272</ele>
        <time>2018-07-08T09:47:28Z</time>
      </trkpt>
      <trkpt lat="45.98924" lon="4.8791">
        <ele>272</ele>
        <time>2018-07-08T09:47:29Z</time>
      </trkpt>
      <trkpt lat="45.98917" lon="4.87903">
        <ele>272</ele>
        <time>2018-07-08T09:47:30Z</time>
      </trkpt>
      <trkpt lat="45.9891" lon="4.87895">
        <ele>272</ele>
        <time>2018-07-08T09:47:31Z</time>
      </trkpt>
      <trkpt lat="45.98904" lon="4.87889">
        <ele>272</ele>
        <time>2018-07-08T09:47:32Z</time>
      </trkpt>
      <trkpt lat="45.98898" lon="4.87879">
        <ele>272</ele>
        <time>2018-07-08T09:47:33Z</time>
      </trkpt>
      <trkpt lat="45.98891" lon="4.87869">
        <ele>272</ele>
        <time>2018-07-08T09:47:34Z</time>
      </trkpt>
      <trkpt lat="45.98886" lon="4.87859">
        <ele>272</ele>
        <time>2018-07-08T09:47:35Z</time>
      </trkpt>
      <trkpt lat="45.98879" lon="4.8785">
        <ele>272</ele>
        <time>2018-07-08T09:47:36Z</time>
      </trkpt>
      <trkpt lat="45.9887" lon="4.87838">
        <ele>273</ele>
        <time>2018-07-08T09:47:37Z</time>
      </trkpt>
      <trkpt lat="45.98865" lon="4.87827">
        <ele>273</ele>
        <time>2018-07-08T09:47:38Z</time>
      </trkpt>
      <trkpt lat="45.9886" lon="4.87817">
        <ele>273</ele>
        <time>2018-07-08T09:47:39Z</time>
      </trkpt>
      <trkpt lat="45.98856" lon="4.87806">
        <ele>273</ele>
        <time>2018-07-08T09:47:40Z</time>
      </trkpt>
      <trkpt lat="45.98851" lon="4.87798">
        <ele>273</ele>
        <time>2018-07-08T09:47:41Z</time>
      </trkpt>
      <trkpt lat="45.98849" lon="4.87786">
        <ele>273</ele>
        <time>2018-07-08T09:47:42Z</time>
      </trkpt>
      <trkpt lat="45.98846" lon="4.87776">
        <ele>273</ele>
        <time>2018-07-08T09:47:43Z</time>
      </trkpt>
      <trkpt lat="45.98841" lon="4.87765">
        <ele>273</ele>
        <time>2018-07-08T09:47:44Z</time>
      </trkpt>
      <trkpt lat="45.98839" lon="4.87755">
        <ele>273</ele>
        <time>2018-07-08T09:47:45Z</time>
      </trkpt>
      <trkpt lat="45.98837" lon="4.87745">
        <ele>273</ele>
        <time>2018-07-08T09:47:46Z</time>
      </trkpt>
      <trkpt lat="45.98834" lon="4.87734">
        <ele>273</ele>
        <time>2018-07-08T09:47:47Z</time>
      </trkpt>
      <trkpt lat="45.98834" lon="4.87723">
        <ele>273</ele>
        <time>2018-07-08T09:47:48Z</time>
      </trkpt>
      <trkpt lat="45.98833" lon="4.87713">
        <ele>273</ele>
        <time>2018-07-08T09:47:49Z</time>
      </trkpt>
      <trkpt lat="45.98832" lon="4.87702">
        <ele>273</ele>
        <time>2018-07-08T09:47:50Z</time>
      </trkpt>
      <trkpt lat="45.98831" lon="4.87692">
        <ele>273</ele>
        <time>2018-07-08T09:47:51Z</time>
      </trkpt>
      <trkpt lat="45.98828" lon="4.87682">
        <ele>273</ele>
        <time>2018-07-08T09:47:52Z</time>
      </trkpt>
      <trkpt lat="45.98828" lon="4.87672">
        <ele>272</ele>
        <time>2018-07-08T09:47:53Z</time>
      </trkpt>
      <trkpt lat="45.98825" lon="4.87662">
        <ele>272</ele>
        <time>2018-07-08T09:47:54Z</time>
      </trkpt>
      <trkpt lat="45.98824" lon="4.87651">
        <ele>272</ele>
        <time>2018-07-08T09:47:55Z</time>
      </trkpt>
      <trkpt lat="45.98822" lon="4.87643">
        <ele>272</ele>
        <time>2018-07-08T09:47:56Z</time>
      </trkpt>
      <trkpt lat="45.9882" lon="4.87635">
        <ele>272</ele>
        <time>2018-07-08T09:47:57Z</time>
      </trkpt>
      <trkpt lat="45.98819" lon="4.87629">
        <ele>271</ele>
        <time>2018-07-08T09:47:58Z</time>
      </trkpt>
      <trkpt lat="45.98815" lon="4.87621">
        <ele>271</ele>
        <time>2018-07-08T09:47:59Z</time>
      </trkpt>
      <trkpt lat="45.98812" lon="4.87613">
        <ele>271</ele>
        <time>2018-07-08T09:48:00Z</time>
      </trkpt>
      <trkpt lat="45.98806" lon="4.87606">
        <ele>271</ele>
        <time>2018-07-08T09:48:01Z</time>
      </trkpt>
      <trkpt lat="45.98801" lon="4.87598">
        <ele>271</ele>
        <time>2018-07-08T09:48:02Z</time>
      </trkpt>
      <trkpt lat="45.98795" lon="4.87589">
        <ele>271</ele>
        <time>2018-07-08T09:48:03Z</time>
      </trkpt>
      <trkpt lat="45.9879" lon="4.87583">
        <ele>269</ele>
        <time>2018-07-08T09:48:04Z</time>
      </trkpt>
      <trkpt lat="45.98782" lon="4.87576">
        <ele>269</ele>
        <time>2018-07-08T09:48:05Z</time>
      </trkpt>
      <trkpt lat="45.98776" lon="4.87568">
        <ele>269</ele>
        <time>2018-07-08T09:48:06Z</time>
      </trkpt>
      <trkpt lat="45.98773" lon="4.87562">
        <ele>269</ele>
        <time>2018-07-08T09:48:07Z</time>
      </trkpt>
      <trkpt lat="45.98765" lon="4.87557">
        <ele>269</ele>
        <time>2018-07-08T09:48:08Z</time>
      </trkpt>
      <trkpt lat="45.98759" lon="4.87553">
        <ele>269</ele>
        <time>2018-07-08T09:48:09Z</time>
      </trkpt>
      <trkpt lat="45.9875" lon="4.87548">
        <ele>267</ele>
        <time>2018-07-08T09:48:10Z</time>
      </trkpt>
      <trkpt lat="45.98741" lon="4.87546">
        <ele>267</ele>
        <time>2018-07-08T09:48:11Z</time>
      </trkpt>
      <trkpt lat="45.98735" lon="4.87546">
        <ele>267</ele>
        <time>2018-07-08T09:48:12Z</time>
      </trkpt>
      <trkpt lat="45.98732" lon="4.87542">
        <ele>267</ele>
        <time>2018-07-08T09:48:13Z</time>
      </trkpt>
      <trkpt lat="45.98719" lon="4.87544">
        <ele>267</ele>
        <time>2018-07-08T09:48:14Z</time>
      </trkpt>
      <trkpt lat="45.98716" lon="4.8755">
        <ele>267</ele>
        <time>2018-07-08T09:48:15Z</time>
      </trkpt>
      <trkpt lat="45.98709" lon="4.87552">
        <ele>267</ele>
        <time>2018-07-08T09:48:16Z</time>
      </trkpt>
      <trkpt lat="45.98702" lon="4.87552">
        <ele>267</ele>
        <time>2018-07-08T09:48:17Z</time>
      </trkpt>
      <trkpt lat="45.98693" lon="4.87551">
        <ele>267</ele>
        <time>2018-07-08T09:48:18Z</time>
      </trkpt>
      <trkpt lat="45.98692" lon="4.87553">
        <ele>267</ele>
        <time>2018-07-08T09:48:19Z</time>
      </trkpt>
      <trkpt lat="45.98682" lon="4.8756">
        <ele>267</ele>
        <time>2018-07-08T09:48:20Z</time>
      </trkpt>
      <trkpt lat="45.98671" lon="4.87561">
        <ele>267</ele>
        <time>2018-07-08T09:48:21Z</time>
      </trkpt>
      <trkpt lat="45.98664" lon="4.87564">
        <ele>267</ele>
        <time>2018-07-08T09:48:23Z</time>
      </trkpt>
      <trkpt lat="45.98657" lon="4.87569">
        <ele>267</ele>
        <time>2018-07-08T09:48:24Z</time>
      </trkpt>
      <trkpt lat="45.98651" lon="4.87563">
        <ele>267</ele>
        <time>2018-07-08T09:48:26Z</time>
      </trkpt>
      <trkpt lat="45.98648" lon="4.87558">
        <ele>267</ele>
        <time>2018-07-08T09:48:27Z</time>
      </trkpt>
      <trkpt lat="45.98647" lon="4.87548">
        <ele>267</ele>
        <time>2018-07-08T09:48:29Z</time>
      </trkpt>
      <trkpt lat="45.9865" lon="4.8754">
        <ele>267</ele>
        <time>2018-07-08T09:48:30Z</time>
      </trkpt>
      <trkpt lat="45.98647" lon="4.87531">
        <ele>267</ele>
        <time>2018-07-08T09:48:32Z</time>
      </trkpt>
      <trkpt lat="45.98648" lon="4.87523">
        <ele>267</ele>
        <time>2018-07-08T09:48:33Z</time>
      </trkpt>
      <trkpt lat="45.98646" lon="4.87514">
        <ele>266</ele>
        <time>2018-07-08T09:48:34Z</time>
      </trkpt>
      <trkpt lat="45.98643" lon="4.87509">
        <ele>266</ele>
        <time>2018-07-08T09:48:35Z</time>
      </trkpt>
      <trkpt lat="45.98639" lon="4.875">
        <ele>267</ele>
        <time>2018-07-08T09:48:36Z</time>
      </trkpt>
      <trkpt lat="45.98637" lon="4.87494">
        <ele>267</ele>
        <time>2018-07-08T09:48:37Z</time>
      </trkpt>
      <trkpt lat="45.98636" lon="4.87485">
        <ele>267</ele>
        <time>2018-07-08T09:48:38Z</time>
      </trkpt>
      <trkpt lat="45.98633" lon="4.87478">
        <ele>268</ele>
        <time>2018-07-08T09:48:39Z</time>
      </trkpt>
      <trkpt lat="45.98629" lon="4.8747">
        <ele>268</ele>
        <time>2018-07-08T09:48:40Z</time>
      </trkpt>
      <trkpt lat="45.98628" lon="4.87463">
        <ele>268</ele>
        <time>2018-07-08T09:48:41Z</time>
      </trkpt>
      <trkpt lat="45.98627" lon="4.87456">
        <ele>268</ele>
        <time>2018-07-08T09:48:42Z</time>
      </trkpt>
      <trkpt lat="45.98625" lon="4.87449">
        <ele>268</ele>
        <time>2018-07-08T09:48:43Z</time>
      </trkpt>
      <trkpt lat="45.98624" lon="4.87436">
        <ele>269</ele>
        <time>2018-07-08T09:48:45Z</time>
      </trkpt>
      <trkpt lat="45.98622" lon="4.8743">
        <ele>269</ele>
        <time>2018-07-08T09:48:46Z</time>
      </trkpt>
      <trkpt lat="45.98621" lon="4.87422">
        <ele>269</ele>
        <time>2018-07-08T09:48:47Z</time>
      </trkpt>
      <trkpt lat="45.98618" lon="4.87416">
        <ele>271</ele>
        <time>2018-07-08T09:48:48Z</time>
      </trkpt>
      <trkpt lat="45.98615" lon="4.87405">
        <ele>271</ele>
        <time>2018-07-08T09:48:50Z</time>
      </trkpt>
      <trkpt lat="45.98615" lon="4.87399">
        <ele>271</ele>
        <time>2018-07-08T09:48:51Z</time>
      </trkpt>
      <trkpt lat="45.98613" lon="4.87388">
        <ele>271</ele>
        <time>2018-07-08T09:48:53Z</time>
      </trkpt>
      <trkpt lat="45.98612" lon="4.8738">
        <ele>271</ele>
        <time>2018-07-08T09:48:54Z</time>
      </trkpt>
      <trkpt lat="45.9861" lon="4.87368">
        <ele>271</ele>
        <time>2018-07-08T09:48:56Z</time>
      </trkpt>
      <trkpt lat="45.98609" lon="4.87363">
        <ele>272</ele>
        <time>2018-07-08T09:48:57Z</time>
      </trkpt>
      <trkpt lat="45.98607" lon="4.87356">
        <ele>272</ele>
        <time>2018-07-08T09:48:58Z</time>
      </trkpt>
      <trkpt lat="45.98606" lon="4.8735">
        <ele>272</ele>
        <time>2018-07-08T09:48:59Z</time>
      </trkpt>
      <trkpt lat="45.98605" lon="4.87344">
        <ele>272</ele>
        <time>2018-07-08T09:49:00Z</time>
      </trkpt>
      <trkpt lat="45.98604" lon="4.87338">
        <ele>272</ele>
        <time>2018-07-08T09:49:01Z</time>
      </trkpt>
      <trkpt lat="45.98602" lon="4.87325">
        <ele>274</ele>
        <time>2018-07-08T09:49:03Z</time>
      </trkpt>
      <trkpt lat="45.98601" lon="4.8732">
        <ele>274</ele>
        <time>2018-07-08T09:49:04Z</time>
      </trkpt>
      <trkpt lat="45.986" lon="4.87308">
        <ele>274</ele>
        <time>2018-07-08T09:49:06Z</time>
      </trkpt>
      <trkpt lat="45.986" lon="4.87305">
        <ele>274</ele>
        <time>2018-07-08T09:49:07Z</time>
      </trkpt>
      <trkpt lat="45.986" lon="4.87297">
        <ele>275</ele>
        <time>2018-07-08T09:49:08Z</time>
      </trkpt>
      <trkpt lat="45.98601" lon="4.8729">
        <ele>275</ele>
        <time>2018-07-08T09:49:09Z</time>
      </trkpt>
      <trkpt lat="45.98601" lon="4.87279">
        <ele>275</ele>
        <time>2018-07-08T09:49:11Z</time>
      </trkpt>
      <trkpt lat="45.98604" lon="4.87271">
        <ele>275</ele>
        <time>2018-07-08T09:49:12Z</time>
      </trkpt>
      <trkpt lat="45.98605" lon="4.8726">
        <ele>275</ele>
        <time>2018-07-08T09:49:14Z</time>
      </trkpt>
      <trkpt lat="45.98604" lon="4.87254">
        <ele>275</ele>
        <time>2018-07-08T09:49:15Z</time>
      </trkpt>
      <trkpt lat="45.98605" lon="4.87248">
        <ele>277</ele>
        <time>2018-07-08T09:49:17Z</time>
      </trkpt>
      <trkpt lat="45.98603" lon="4.87239">
        <ele>277</ele>
        <time>2018-07-08T09:49:18Z</time>
      </trkpt>
      <trkpt lat="45.98604" lon="4.87233">
        <ele>277</ele>
        <time>2018-07-08T09:49:19Z</time>
      </trkpt>
      <trkpt lat="45.98604" lon="4.87226">
        <ele>277</ele>
        <time>2018-07-08T09:49:20Z</time>
      </trkpt>
      <trkpt lat="45.98603" lon="4.87221">
        <ele>277</ele>
        <time>2018-07-08T09:49:21Z</time>
      </trkpt>
      <trkpt lat="45.98604" lon="4.8721">
        <ele>277</ele>
        <time>2018-07-08T09:49:22Z</time>
      </trkpt>
      <trkpt lat="45.98605" lon="4.87198">
        <ele>277</ele>
        <time>2018-07-08T09:49:24Z</time>
      </trkpt>
      <trkpt lat="45.98605" lon="4.87191">
        <ele>277</ele>
        <time>2018-07-08T09:49:25Z</time>
      </trkpt>
      <trkpt lat="45.98607" lon="4.87185">
        <ele>277</ele>
        <time>2018-07-08T09:49:26Z</time>
      </trkpt>
      <trkpt lat="45.98609" lon="4.87179">
        <ele>277</ele>
        <time>2018-07-08T09:49:27Z</time>
      </trkpt>
      <trkpt lat="45.98612" lon="4.87173">
        <ele>278</ele>
        <time>2018-07-08T09:49:28Z</time>
      </trkpt>
      <trkpt lat="45.98611" lon="4.87167">
        <ele>278</ele>
        <time>2018-07-08T09:49:29Z</time>
      </trkpt>
      <trkpt lat="45.98612" lon="4.87161">
        <ele>278</ele>
        <time>2018-07-08T09:49:30Z</time>
      </trkpt>
      <trkpt lat="45.98616" lon="4.87153">
        <ele>278</ele>
        <time>2018-07-08T09:49:31Z</time>
      </trkpt>
      <trkpt lat="45.98617" lon="4.87147">
        <ele>279</ele>
        <time>2018-07-08T09:49:32Z</time>
      </trkpt>
      <trkpt lat="45.98619" lon="4.87139">
        <ele>279</ele>
        <time>2018-07-08T09:49:33Z</time>
      </trkpt>
      <trkpt lat="45.98619" lon="4.87126">
        <ele>279</ele>
        <time>2018-07-08T09:49:35Z</time>
      </trkpt>
      <trkpt lat="45.98617" lon="4.87121">
        <ele>279</ele>
        <time>2018-07-08T09:49:36Z</time>
      </trkpt>
      <trkpt lat="45.98617" lon="4.87114">
        <ele>279</ele>
        <time>2018-07-08T09:49:37Z</time>
      </trkpt>
      <trkpt lat="45.98614" lon="4.87109">
        <ele>279</ele>
        <time>2018-07-08T09:49:38Z</time>
      </trkpt>
      <trkpt lat="45.98611" lon="4.87101">
        <ele>279</ele>
        <time>2018-07-08T09:49:40Z</time>
      </trkpt>
      <trkpt lat="45.9861" lon="4.87093">
        <ele>279</ele>
        <time>2018-07-08T09:49:41Z</time>
      </trkpt>
      <trkpt lat="45.98609" lon="4.87084">
        <ele>279</ele>
        <time>2018-07-08T09:49:43Z</time>
      </trkpt>
      <trkpt lat="45.9861" lon="4.87074">
        <ele>279</ele>
        <time>2018-07-08T09:49:44Z</time>
      </trkpt>
      <trkpt lat="45.98609" lon="4.87072">
        <ele>279</ele>
        <time>2018-07-08T09:49:45Z</time>
      </trkpt>
      <trkpt lat="45.98604" lon="4.87062">
        <ele>279</ele>
        <time>2018-07-08T09:49:46Z</time>
      </trkpt>
      <trkpt lat="45.98606" lon="4.87051">
        <ele>279</ele>
        <time>2018-07-08T09:49:48Z</time>
      </trkpt>
      <trkpt lat="45.98607" lon="4.87045">
        <ele>279</ele>
        <time>2018-07-08T09:49:49Z</time>
      </trkpt>
      <trkpt lat="45.98603" lon="4.87033">
        <ele>279</ele>
        <time>2018-07-08T09:49:51Z</time>
      </trkpt>
      <trkpt lat="45.98599" lon="4.87027">
        <ele>279</ele>
        <time>2018-07-08T09:49:52Z</time>
      </trkpt>
      <trkpt lat="45.98596" lon="4.87015">
        <ele>279</ele>
        <time>2018-07-08T09:49:54Z</time>
      </trkpt>
      <trkpt lat="45.98594" lon="4.87009">
        <ele>279</ele>
        <time>2018-07-08T09:49:55Z</time>
      </trkpt>
      <trkpt lat="45.98593" lon="4.87002">
        <ele>279</ele>
        <time>2018-07-08T09:49:56Z</time>
      </trkpt>
      <trkpt lat="45.98591" lon="4.86996">
        <ele>279</ele>
        <time>2018-07-08T09:49:57Z</time>
      </trkpt>
      <trkpt lat="45.98589" lon="4.86989">
        <ele>279</ele>
        <time>2018-07-08T09:49:58Z</time>
      </trkpt>
      <trkpt lat="45.98588" lon="4.86983">
        <ele>279</ele>
        <time>2018-07-08T09:49:59Z</time>
      </trkpt>
      <trkpt lat="45.98587" lon="4.86971">
        <ele>279</ele>
        <time>2018-07-08T09:50:01Z</time>
      </trkpt>
      <trkpt lat="45.98587" lon="4.86964">
        <ele>279</ele>
        <time>2018-07-08T09:50:02Z</time>
      </trkpt>
      <trkpt lat="45.9859" lon="4.86957">
        <ele>279</ele>
        <time>2018-07-08T09:50:03Z</time>
      </trkpt>
      <trkpt lat="45.98592" lon="4.86951">
        <ele>278</ele>
        <time>2018-07-08T09:50:04Z</time>
      </trkpt>
      <trkpt lat="45.98593" lon="4.86938">
        <ele>278</ele>
        <time>2018-07-08T09:50:06Z</time>
      </trkpt>
      <trkpt lat="45.98591" lon="4.86932">
        <ele>279</ele>
        <time>2018-07-08T09:50:07Z</time>
      </trkpt>
      <trkpt lat="45.98593" lon="4.8692">
        <ele>279</ele>
        <time>2018-07-08T09:50:09Z</time>
      </trkpt>
      <trkpt lat="45.98593" lon="4.86914">
        <ele>278</ele>
        <time>2018-07-08T09:50:10Z</time>
      </trkpt>
      <trkpt lat="45.98594" lon="4.86904">
        <ele>278</ele>
        <time>2018-07-08T09:50:12Z</time>
      </trkpt>
      <trkpt lat="45.98594" lon="4.86898">
        <ele>278</ele>
        <time>2018-07-08T09:50:13Z</time>
      </trkpt>
      <trkpt lat="45.98595" lon="4.86886">
        <ele>278</ele>
        <time>2018-07-08T09:50:15Z</time>
      </trkpt>
      <trkpt lat="45.98594" lon="4.86881">
        <ele>277</ele>
        <time>2018-07-08T09:50:16Z</time>
      </trkpt>
      <trkpt lat="45.98594" lon="4.86871">
        <ele>277</ele>
        <time>2018-07-08T09:50:18Z</time>
      </trkpt>
      <trkpt lat="45.98594" lon="4.86865">
        <ele>277</ele>
        <time>2018-07-08T09:50:19Z</time>
      </trkpt>
      <trkpt lat="45.98594" lon="4.86854">
        <ele>277</ele>
        <time>2018-07-08T09:50:21Z</time>
      </trkpt>
      <trkpt lat="45.98593" lon="4.86848">
        <ele>277</ele>
        <time>2018-07-08T09:50:22Z</time>
      </trkpt>
      <trkpt lat="45.98592" lon="4.86836">
        <ele>277</ele>
        <time>2018-07-08T09:50:24Z</time>
      </trkpt>
      <trkpt lat="45.98589" lon="4.8683">
        <ele>277</ele>
        <time>2018-07-08T09:50:25Z</time>
      </trkpt>
      <trkpt lat="45.98586" lon="4.86819">
        <ele>276</ele>
        <time>2018-07-08T09:50:27Z</time>
      </trkpt>
      <trkpt lat="45.98584" lon="4.86812">
        <ele>276</ele>
        <time>2018-07-08T09:50:28Z</time>
      </trkpt>
      <trkpt lat="45.98582" lon="4.868">
        <ele>277</ele>
        <time>2018-07-08T09:50:30Z</time>
      </trkpt>
      <trkpt lat="45.98581" lon="4.86794">
        <ele>277</ele>
        <time>2018-07-08T09:50:31Z</time>
      </trkpt>
      <trkpt lat="45.98579" lon="4.86782">
        <ele>277</ele>
        <time>2018-07-08T09:50:33Z</time>
      </trkpt>
      <trkpt lat="45.98578" lon="4.86775">
        <ele>277</ele>
        <time>2018-07-08T09:50:34Z</time>
      </trkpt>
      <trkpt lat="45.98577" lon="4.86768">
        <ele>277</ele>
        <time>2018-07-08T09:50:35Z</time>
      </trkpt>
      <trkpt lat="45.98575" lon="4.86761">
        <ele>277</ele>
        <time>2018-07-08T09:50:36Z</time>
      </trkpt>
      <trkpt lat="45.98575" lon="4.86753">
        <ele>277</ele>
        <time>2018-07-08T09:50:37Z</time>
      </trkpt>
      <trkpt lat="45.98574" lon="4.86746">
        <ele>276</ele>
        <time>2018-07-08T09:50:38Z</time>
      </trkpt>
      <trkpt lat="45.98574" lon="4.86739">
        <ele>277</ele>
        <time>2018-07-08T09:50:39Z</time>
      </trkpt>
      <trkpt lat="45.98572" lon="4.86731">
        <ele>277</ele>
        <time>2018-07-08T09:50:40Z</time>
      </trkpt>
      <trkpt lat="45.98572" lon="4.86724">
        <ele>277</ele>
        <time>2018-07-08T09:50:41Z</time>
      </trkpt>
      <trkpt lat="45.9857" lon="4.86717">
        <ele>277</ele>
        <time>2018-07-08T09:50:42Z</time>
      </trkpt>
      <trkpt lat="45.9857" lon="4.8671">
        <ele>277</ele>
        <time>2018-07-08T09:50:43Z</time>
      </trkpt>
      <trkpt lat="45.98569" lon="4.86703">
        <ele>277</ele>
        <time>2018-07-08T09:50:44Z</time>
      </trkpt>
      <trkpt lat="45.98568" lon="4.86696">
        <ele>277</ele>
        <time>2018-07-08T09:50:45Z</time>
      </trkpt>
      <trkpt lat="45.98568" lon="4.86689">
        <ele>277</ele>
        <time>2018-07-08T09:50:46Z</time>
      </trkpt>
      <trkpt lat="45.98568" lon="4.86681">
        <ele>276</ele>
        <time>2018-07-08T09:50:47Z</time>
      </trkpt>
      <trkpt lat="45.98567" lon="4.86673">
        <ele>276</ele>
        <time>2018-07-08T09:50:48Z</time>
      </trkpt>
      <trkpt lat="45.98566" lon="4.86666">
        <ele>277</ele>
        <time>2018-07-08T09:50:49Z</time>
      </trkpt>
      <trkpt lat="45.98566" lon="4.86658">
        <ele>277</ele>
        <time>2018-07-08T09:50:50Z</time>
      </trkpt>
      <trkpt lat="45.98566" lon="4.86652">
        <ele>277</ele>
        <time>2018-07-08T09:50:51Z</time>
      </trkpt>
      <trkpt lat="45.98565" lon="4.86644">
        <ele>277</ele>
        <time>2018-07-08T09:50:52Z</time>
      </trkpt>
      <trkpt lat="45.98563" lon="4.86638">
        <ele>277</ele>
        <time>2018-07-08T09:50:53Z</time>
      </trkpt>
      <trkpt lat="45.98563" lon="4.86631">
        <ele>278</ele>
        <time>2018-07-08T09:50:54Z</time>
      </trkpt>
      <trkpt lat="45.98563" lon="4.86625">
        <ele>278</ele>
        <time>2018-07-08T09:50:55Z</time>
      </trkpt>
      <trkpt lat="45.9856" lon="4.86617">
        <ele>278</ele>
        <time>2018-07-08T09:50:56Z</time>
      </trkpt>
      <trkpt lat="45.98558" lon="4.8661">
        <ele>278</ele>
        <time>2018-07-08T09:50:57Z</time>
      </trkpt>
      <trkpt lat="45.98558" lon="4.86604">
        <ele>278</ele>
        <time>2018-07-08T09:50:58Z</time>
      </trkpt>
      <trkpt lat="45.98555" lon="4.86596">
        <ele>278</ele>
        <time>2018-07-08T09:50:59Z</time>
      </trkpt>
      <trkpt lat="45.98555" lon="4.86589">
        <ele>278</ele>
        <time>2018-07-08T09:51:00Z</time>
      </trkpt>
      <trkpt lat="45.98551" lon="4.86581">
        <ele>278</ele>
        <time>2018-07-08T09:51:01Z</time>
      </trkpt>
      <trkpt lat="45.98549" lon="4.86574">
        <ele>278</ele>
        <time>2018-07-08T09:51:02Z</time>
      </trkpt>
      <trkpt lat="45.98546" lon="4.86567">
        <ele>278</ele>
        <time>2018-07-08T09:51:03Z</time>
      </trkpt>
      <trkpt lat="45.98544" lon="4.86561">
        <ele>278</ele>
        <time>2018-07-08T09:51:04Z</time>
      </trkpt>
      <trkpt lat="45.98542" lon="4.86555">
        <ele>278</ele>
        <time>2018-07-08T09:51:05Z</time>
      </trkpt>
      <trkpt lat="45.9854" lon="4.86549">
        <ele>278</ele>
        <time>2018-07-08T09:51:06Z</time>
      </trkpt>
      <trkpt lat="45.98535" lon="4.86543">
        <ele>278</ele>
        <time>2018-07-08T09:51:07Z</time>
      </trkpt>
      <trkpt lat="45.98532" lon="4.86537">
        <ele>279</ele>
        <time>2018-07-08T09:51:08Z</time>
      </trkpt>
      <trkpt lat="45.98528" lon="4.8653">
        <ele>279</ele>
        <time>2018-07-08T09:51:09Z</time>
      </trkpt>
      <trkpt lat="45.98524" lon="4.86523">
        <ele>279</ele>
        <time>2018-07-08T09:51:10Z</time>
      </trkpt>
      <trkpt lat="45.98519" lon="4.86516">
        <ele>279</ele>
        <time>2018-07-08T09:51:11Z</time>
      </trkpt>
      <trkpt lat="45.98517" lon="4.86509">
        <ele>279</ele>
        <time>2018-07-08T09:51:12Z</time>
      </trkpt>
      <trkpt lat="45.98514" lon="4.86503">
        <ele>279</ele>
        <time>2018-07-08T09:51:13Z</time>
      </trkpt>
      <trkpt lat="45.98511" lon="4.86496">
        <ele>279</ele>
        <time>2018-07-08T09:51:14Z</time>
      </trkpt>
      <trkpt lat="45.9851" lon="4.8649">
        <ele>279</ele>
        <time>2018-07-08T09:51:15Z</time>
      </trkpt>
      <trkpt lat="45.98507" lon="4.86485">
        <ele>279</ele>
        <time>2018-07-08T09:51:16Z</time>
      </trkpt>
      <trkpt lat="45.98505" lon="4.86478">
        <ele>278</ele>
        <time>2018-07-08T09:51:17Z</time>
      </trkpt>
      <trkpt lat="45.98503" lon="4.86472">
        <ele>278</ele>
        <time>2018-07-08T09:51:18Z</time>
      </trkpt>
      <trkpt lat="45.98501" lon="4.86466">
        <ele>278</ele>
        <time>2018-07-08T09:51:19Z</time>
      </trkpt>
      <trkpt lat="45.98497" lon="4.86461">
        <ele>278</ele>
        <time>2018-07-08T09:51:20Z</time>
      </trkpt>
      <trkpt lat="45.98495" lon="4.86455">
        <ele>278</ele>
        <time>2018-07-08T09:51:21Z</time>
      </trkpt>
      <trkpt lat="45.98491" lon="4.86448">
        <ele>278</ele>
        <time>2018-07-08T09:51:22Z</time>
      </trkpt>
      <trkpt lat="45.98489" lon="4.86443">
        <ele>278</ele>
        <time>2018-07-08T09:51:23Z</time>
      </trkpt>
      <trkpt lat="45.98486" lon="4.86437">
        <ele>278</ele>
        <time>2018-07-08T09:51:24Z</time>
      </trkpt>
      <trkpt lat="45.98483" lon="4.8643">
        <ele>278</ele>
        <time>2018-07-08T09:51:25Z</time>
      </trkpt>
      <trkpt lat="45.98479" lon="4.86423">
        <ele>278</ele>
        <time>2018-07-08T09:51:26Z</time>
      </trkpt>
      <trkpt lat="45.98475" lon="4.86417">
        <ele>278</ele>
        <time>2018-07-08T09:51:27Z</time>
      </trkpt>
      <trkpt lat="45.98474" lon="4.86411">
        <ele>277</ele>
        <time>2018-07-08T09:51:28Z</time>
      </trkpt>
      <trkpt lat="45.98472" lon="4.86405">
        <ele>277</ele>
        <time>2018-07-08T09:51:29Z</time>
      </trkpt>
      <trkpt lat="45.98471" lon="4.86398">
        <ele>277</ele>
        <time>2018-07-08T09:51:30Z</time>
      </trkpt>
      <trkpt lat="45.98469" lon="4.86392">
        <ele>277</ele>
        <time>2018-07-08T09:51:31Z</time>
      </trkpt>
      <trkpt lat="45.98466" lon="4.86384">
        <ele>277</ele>
        <time>2018-07-08T09:51:32Z</time>
      </trkpt>
      <trkpt lat="45.98464" lon="4.86377">
        <ele>277</ele>
        <time>2018-07-08T09:51:33Z</time>
      </trkpt>
      <trkpt lat="45.98462" lon="4.8637">
        <ele>277</ele>
        <time>2018-07-08T09:51:34Z</time>
      </trkpt>
      <trkpt lat="45.9846" lon="4.86363">
        <ele>277</ele>
        <time>2018-07-08T09:51:35Z</time>
      </trkpt>
      <trkpt lat="45.98459" lon="4.86357">
        <ele>277</ele>
        <time>2018-07-08T09:51:36Z</time>
      </trkpt>
      <trkpt lat="45.98457" lon="4.86351">
        <ele>277</ele>
        <time>2018-07-08T09:51:37Z</time>
      </trkpt>
      <trkpt lat="45.98456" lon="4.86343">
        <ele>277</ele>
        <time>2018-07-08T09:51:38Z</time>
      </trkpt>
      <trkpt lat="45.98453" lon="4.86336">
        <ele>277</ele>
        <time>2018-07-08T09:51:39Z</time>
      </trkpt>
      <trkpt lat="45.98451" lon="4.8633">
        <ele>276</ele>
        <time>2018-07-08T09:51:40Z</time>
      </trkpt>
      <trkpt lat="45.98448" lon="4.86322">
        <ele>276</ele>
        <time>2018-07-08T09:51:41Z</time>
      </trkpt>
      <trkpt lat="45.98446" lon="4.86316">
        <ele>276</ele>
        <time>2018-07-08T09:51:42Z</time>
      </trkpt>
      <trkpt lat="45.98444" lon="4.86309">
        <ele>276</ele>
        <time>2018-07-08T09:51:43Z</time>
      </trkpt>
      <trkpt lat="45.98443" lon="4.86301">
        <ele>276</ele>
        <time>2018-07-08T09:51:44Z</time>
      </trkpt>
      <trkpt lat="45.98442" lon="4.86294">
        <ele>276</ele>
        <time>2018-07-08T09:51:45Z</time>
      </trkpt>
      <trkpt lat="45.9844" lon="4.86286">
        <ele>276</ele>
        <time>2018-07-08T09:51:46Z</time>
      </trkpt>
      <trkpt lat="45.98439" lon="4.86279">
        <ele>276</ele>
        <time>2018-07-08T09:51:47Z</time>
      </trkpt>
      <trkpt lat="45.98438" lon="4.86273">
        <ele>276</ele>
        <time>2018-07-08T09:51:48Z</time>
      </trkpt>
      <trkpt lat="45.98435" lon="4.86262">
        <ele>275</ele>
        <time>2018-07-08T09:51:50Z</time>
      </trkpt>
      <trkpt lat="45.98434" lon="4.86256">
        <ele>275</ele>
        <time>2018-07-08T09:51:51Z</time>
      </trkpt>
      <trkpt lat="45.98432" lon="4.86246">
        <ele>275</ele>
        <time>2018-07-08T09:51:53Z</time>
      </trkpt>
      <trkpt lat="45.98432" lon="4.86241">
        <ele>275</ele>
        <time>2018-07-08T09:51:54Z</time>
      </trkpt>
      <trkpt lat="45.98432" lon="4.86231">
        <ele>275</ele>
        <time>2018-07-08T09:51:57Z</time>
      </trkpt>
      <trkpt lat="45.98431" lon="4.86227">
        <ele>275</ele>
        <time>2018-07-08T09:51:58Z</time>
      </trkpt>
      <trkpt lat="45.9843" lon="4.86219">
        <ele>275</ele>
        <time>2018-07-08T09:52:00Z</time>
      </trkpt>
      <trkpt lat="45.98428" lon="4.86207">
        <ele>275</ele>
        <time>2018-07-08T09:52:01Z</time>
      </trkpt>
      <trkpt lat="45.98427" lon="4.86197">
        <ele>275</ele>
        <time>2018-07-08T09:52:04Z</time>
      </trkpt>
      <trkpt lat="45.98426" lon="4.86186">
        <ele>275</ele>
        <time>2018-07-08T09:52:05Z</time>
      </trkpt>
      <trkpt lat="45.98424" lon="4.86177">
        <ele>275</ele>
        <time>2018-07-08T09:52:07Z</time>
      </trkpt>
      <trkpt lat="45.98423" lon="4.86169">
        <ele>276</ele>
        <time>2018-07-08T09:52:08Z</time>
      </trkpt>
      <trkpt lat="45.98421" lon="4.86157">
        <ele>276</ele>
        <time>2018-07-08T09:52:10Z</time>
      </trkpt>
      <trkpt lat="45.9842" lon="4.86151">
        <ele>276</ele>
        <time>2018-07-08T09:52:11Z</time>
      </trkpt>
      <trkpt lat="45.98417" lon="4.86139">
        <ele>276</ele>
        <time>2018-07-08T09:52:13Z</time>
      </trkpt>
      <trkpt lat="45.98416" lon="4.86133">
        <ele>276</ele>
        <time>2018-07-08T09:52:14Z</time>
      </trkpt>
      <trkpt lat="45.98414" lon="4.86125">
        <ele>276</ele>
        <time>2018-07-08T09:52:15Z</time>
      </trkpt>
      <trkpt lat="45.98413" lon="4.86118">
        <ele>277</ele>
        <time>2018-07-08T09:52:16Z</time>
      </trkpt>
      <trkpt lat="45.98413" lon="4.8611">
        <ele>277</ele>
        <time>2018-07-08T09:52:17Z</time>
      </trkpt>
      <trkpt lat="45.98411" lon="4.86101">
        <ele>277</ele>
        <time>2018-07-08T09:52:18Z</time>
      </trkpt>
      <trkpt lat="45.98409" lon="4.86093">
        <ele>277</ele>
        <time>2018-07-08T09:52:19Z</time>
      </trkpt>
      <trkpt lat="45.98409" lon="4.86085">
        <ele>277</ele>
        <time>2018-07-08T09:52:20Z</time>
      </trkpt>
      <trkpt lat="45.98405" lon="4.86075">
        <ele>277</ele>
        <time>2018-07-08T09:52:21Z</time>
      </trkpt>
      <trkpt lat="45.98403" lon="4.86065">
        <ele>277</ele>
        <time>2018-07-08T09:52:22Z</time>
      </trkpt>
      <trkpt lat="45.984" lon="4.86054">
        <ele>277</ele>
        <time>2018-07-08T09:52:23Z</time>
      </trkpt>
      <trkpt lat="45.98398" lon="4.86044">
        <ele>277</ele>
        <time>2018-07-08T09:52:24Z</time>
      </trkpt>
      <trkpt lat="45.98393" lon="4.86034">
        <ele>277</ele>
        <time>2018-07-08T09:52:25Z</time>
      </trkpt>
      <trkpt lat="45.98392" lon="4.86025">
        <ele>277</ele>
        <time>2018-07-08T09:52:26Z</time>
      </trkpt>
      <trkpt lat="45.98388" lon="4.86016">
        <ele>277</ele>
        <time>2018-07-08T09:52:27Z</time>
      </trkpt>
      <trkpt lat="45.98385" lon="4.86007">
        <ele>277</ele>
        <time>2018-07-08T09:52:28Z</time>
      </trkpt>
      <trkpt lat="45.9838" lon="4.85996">
        <ele>277</ele>
        <time>2018-07-08T09:52:29Z</time>
      </trkpt>
      <trkpt lat="45.98376" lon="4.85988">
        <ele>276</ele>
        <time>2018-07-08T09:52:30Z</time>
      </trkpt>
      <trkpt lat="45.98372" lon="4.8598">
        <ele>276</ele>
        <time>2018-07-08T09:52:31Z</time>
      </trkpt>
      <trkpt lat="45.98369" lon="4.85971">
        <ele>276</ele>
        <time>2018-07-08T09:52:32Z</time>
      </trkpt>
      <trkpt lat="45.98367" lon="4.85963">
        <ele>276</ele>
        <time>2018-07-08T09:52:33Z</time>
      </trkpt>
      <trkpt lat="45.98362" lon="4.85955">
        <ele>276</ele>
        <time>2018-07-08T09:52:34Z</time>
      </trkpt>
      <trkpt lat="45.98359" lon="4.85947">
        <ele>276</ele>
        <time>2018-07-08T09:52:35Z</time>
      </trkpt>
      <trkpt lat="45.98354" lon="4.8594">
        <ele>276</ele>
        <time>2018-07-08T09:52:36Z</time>
      </trkpt>
      <trkpt lat="45.98352" lon="4.85932">
        <ele>276</ele>
        <time>2018-07-08T09:52:37Z</time>
      </trkpt>
      <trkpt lat="45.9835" lon="4.85925">
        <ele>276</ele>
        <time>2018-07-08T09:52:38Z</time>
      </trkpt>
      <trkpt lat="45.98347" lon="4.85918">
        <ele>276</ele>
        <time>2018-07-08T09:52:39Z</time>
      </trkpt>
      <trkpt lat="45.98345" lon="4.8591">
        <ele>276</ele>
        <time>2018-07-08T09:52:40Z</time>
      </trkpt>
      <trkpt lat="45.98343" lon="4.85904">
        <ele>276</ele>
        <time>2018-07-08T09:52:41Z</time>
      </trkpt>
      <trkpt lat="45.98339" lon="4.85895">
        <ele>276</ele>
        <time>2018-07-08T09:52:42Z</time>
      </trkpt>
      <trkpt lat="45.98335" lon="4.85888">
        <ele>276</ele>
        <time>2018-07-08T09:52:43Z</time>
      </trkpt>
      <trkpt lat="45.98331" lon="4.85881">
        <ele>276</ele>
        <time>2018-07-08T09:52:44Z</time>
      </trkpt>
      <trkpt lat="45.9833" lon="4.85874">
        <ele>276</ele>
        <time>2018-07-08T09:52:45Z</time>
      </trkpt>
      <trkpt lat="45.98327" lon="4.85868">
        <ele>276</ele>
        <time>2018-07-08T09:52:46Z</time>
      </trkpt>
      <trkpt lat="45.98323" lon="4.85859">
        <ele>276</ele>
        <time>2018-07-08T09:52:47Z</time>
      </trkpt>
      <trkpt lat="45.98321" lon="4.85852">
        <ele>276</ele>
        <time>2018-07-08T09:52:48Z</time>
      </trkpt>
      <trkpt lat="45.98319" lon="4.85845">
        <ele>276</ele>
        <time>2018-07-08T09:52:49Z</time>
      </trkpt>
      <trkpt lat="45.98315" lon="4.85836">
        <ele>276</ele>
        <time>2018-07-08T09:52:50Z</time>
      </trkpt>
      <trkpt lat="45.98312" lon="4.85829">
        <ele>275</ele>
        <time>2018-07-08T09:52:51Z</time>
      </trkpt>
      <trkpt lat="45.98309" lon="4.85822">
        <ele>275</ele>
        <time>2018-07-08T09:52:52Z</time>
      </trkpt>
      <trkpt lat="45.98305" lon="4.85815">
        <ele>275</ele>
        <time>2018-07-08T09:52:53Z</time>
      </trkpt>
      <trkpt lat="45.98301" lon="4.85808">
        <ele>275</ele>
        <time>2018-07-08T09:52:54Z</time>
      </trkpt>
      <trkpt lat="45.98299" lon="4.85802">
        <ele>275</ele>
        <time>2018-07-08T09:52:55Z</time>
      </trkpt>
      <trkpt lat="45.98295" lon="4.85795">
        <ele>275</ele>
        <time>2018-07-08T09:52:56Z</time>
      </trkpt>
      <trkpt lat="45.98292" lon="4.85788">
        <ele>275</ele>
        <time>2018-07-08T09:52:57Z</time>
      </trkpt>
      <trkpt lat="45.9829" lon="4.85782">
        <ele>275</ele>
        <time>2018-07-08T09:52:58Z</time>
      </trkpt>
      <trkpt lat="45.98287" lon="4.85775">
        <ele>275</ele>
        <time>2018-07-08T09:52:59Z</time>
      </trkpt>
      <trkpt lat="45.98283" lon="4.8577">
        <ele>275</ele>
        <time>2018-07-08T09:53:00Z</time>
      </trkpt>
      <trkpt lat="45.98279" lon="4.85763">
        <ele>275</ele>
        <time>2018-07-08T09:53:01Z</time>
      </trkpt>
      <trkpt lat="45.98276" lon="4.85756">
        <ele>275</ele>
        <time>2018-07-08T09:53:02Z</time>
      </trkpt>
      <trkpt lat="45.98274" lon="4.85746">
        <ele>274</ele>
        <time>2018-07-08T09:53:03Z</time>
      </trkpt>
      <trkpt lat="45.98271" lon="4.85737">
        <ele>275</ele>
        <time>2018-07-08T09:53:04Z</time>
      </trkpt>
      <trkpt lat="45.98269" lon="4.85729">
        <ele>275</ele>
        <time>2018-07-08T09:53:05Z</time>
      </trkpt>
      <trkpt lat="45.98266" lon="4.85721">
        <ele>275</ele>
        <time>2018-07-08T09:53:06Z</time>
      </trkpt>
      <trkpt lat="45.98265" lon="4.85714">
        <ele>275</ele>
        <time>2018-07-08T09:53:07Z</time>
      </trkpt>
      <trkpt lat="45.98262" lon="4.85707">
        <ele>275</ele>
        <time>2018-07-08T09:53:08Z</time>
      </trkpt>
      <trkpt lat="45.98259" lon="4.857">
        <ele>275</ele>
        <time>2018-07-08T09:53:09Z</time>
      </trkpt>
      <trkpt lat="45.98257" lon="4.85693">
        <ele>275</ele>
        <time>2018-07-08T09:53:10Z</time>
      </trkpt>
      <trkpt lat="45.98252" lon="4.85685">
        <ele>275</ele>
        <time>2018-07-08T09:53:11Z</time>
      </trkpt>
      <trkpt lat="45.98247" lon="4.85677">
        <ele>276</ele>
        <time>2018-07-08T09:53:12Z</time>
      </trkpt>
      <trkpt lat="45.98245" lon="4.85669">
        <ele>276</ele>
        <time>2018-07-08T09:53:13Z</time>
      </trkpt>
      <trkpt lat="45.98242" lon="4.85661">
        <ele>276</ele>
        <time>2018-07-08T09:53:14Z</time>
      </trkpt>
      <trkpt lat="45.98238" lon="4.85654">
        <ele>276</ele>
        <time>2018-07-08T09:53:15Z</time>
      </trkpt>
      <trkpt lat="45.98234" lon="4.85646">
        <ele>277</ele>
        <time>2018-07-08T09:53:16Z</time>
      </trkpt>
      <trkpt lat="45.98231" lon="4.85638">
        <ele>277</ele>
        <time>2018-07-08T09:53:17Z</time>
      </trkpt>
      <trkpt lat="45.98228" lon="4.85629">
        <ele>277</ele>
        <time>2018-07-08T09:53:18Z</time>
      </trkpt>
      <trkpt lat="45.98224" lon="4.85621">
        <ele>277</ele>
        <time>2018-07-08T09:53:19Z</time>
      </trkpt>
      <trkpt lat="45.98222" lon="4.85614">
        <ele>277</ele>
        <time>2018-07-08T09:53:20Z</time>
      </trkpt>
      <trkpt lat="45.9822" lon="4.85607">
        <ele>277</ele>
        <time>2018-07-08T09:53:21Z</time>
      </trkpt>
      <trkpt lat="45.98217" lon="4.85599">
        <ele>277</ele>
        <time>2018-07-08T09:53:22Z</time>
      </trkpt>
      <trkpt lat="45.98215" lon="4.85592">
        <ele>277</ele>
        <time>2018-07-08T09:53:23Z</time>
      </trkpt>
      <trkpt lat="45.98211" lon="4.85584">
        <ele>277</ele>
        <time>2018-07-08T09:53:24Z</time>
      </trkpt>
      <trkpt lat="45.98206" lon="4.85576">
        <ele>276</ele>
        <time>2018-07-08T09:53:25Z</time>
      </trkpt>
      <trkpt lat="45.98203" lon="4.85568">
        <ele>276</ele>
        <time>2018-07-08T09:53:26Z</time>
      </trkpt>
      <trkpt lat="45.98199" lon="4.8556">
        <ele>276</ele>
        <time>2018-07-08T09:53:27Z</time>
      </trkpt>
      <trkpt lat="45.98194" lon="4.85552">
        <ele>276</ele>
        <time>2018-07-08T09:53:28Z</time>
      </trkpt>
      <trkpt lat="45.9819" lon="4.85544">
        <ele>276</ele>
        <time>2018-07-08T09:53:29Z</time>
      </trkpt>
      <trkpt lat="45.98186" lon="4.85535">
        <ele>276</ele>
        <time>2018-07-08T09:53:30Z</time>
      </trkpt>
      <trkpt lat="45.98183" lon="4.85527">
        <ele>276</ele>
        <time>2018-07-08T09:53:31Z</time>
      </trkpt>
      <trkpt lat="45.98179" lon="4.8552">
        <ele>275</ele>
        <time>2018-07-08T09:53:32Z</time>
      </trkpt>
      <trkpt lat="45.98176" lon="4.85512">
        <ele>275</ele>
        <time>2018-07-08T09:53:33Z</time>
      </trkpt>
      <trkpt lat="45.98172" lon="4.85504">
        <ele>275</ele>
        <time>2018-07-08T09:53:34Z</time>
      </trkpt>
      <trkpt lat="45.98171" lon="4.85497">
        <ele>275</ele>
        <time>2018-07-08T09:53:35Z</time>
      </trkpt>
      <trkpt lat="45.98168" lon="4.8549">
        <ele>275</ele>
        <time>2018-07-08T09:53:36Z</time>
      </trkpt>
      <trkpt lat="45.98163" lon="4.85481">
        <ele>275</ele>
        <time>2018-07-08T09:53:37Z</time>
      </trkpt>
      <trkpt lat="45.98158" lon="4.85476">
        <ele>275</ele>
        <time>2018-07-08T09:53:38Z</time>
      </trkpt>
      <trkpt lat="45.98155" lon="4.85467">
        <ele>275</ele>
        <time>2018-07-08T09:53:39Z</time>
      </trkpt>
      <trkpt lat="45.98153" lon="4.85459">
        <ele>275</ele>
        <time>2018-07-08T09:53:40Z</time>
      </trkpt>
      <trkpt lat="45.9815" lon="4.8545">
        <ele>276</ele>
        <time>2018-07-08T09:53:41Z</time>
      </trkpt>
      <trkpt lat="45.98148" lon="4.85443">
        <ele>276</ele>
        <time>2018-07-08T09:53:42Z</time>
      </trkpt>
      <trkpt lat="45.98144" lon="4.85434">
        <ele>276</ele>
        <time>2018-07-08T09:53:43Z</time>
      </trkpt>
      <trkpt lat="45.9814" lon="4.85426">
        <ele>276</ele>
        <time>2018-07-08T09:53:44Z</time>
      </trkpt>
      <trkpt lat="45.98138" lon="4.85418">
        <ele>276</ele>
        <time>2018-07-08T09:53:45Z</time>
      </trkpt>
      <trkpt lat="45.98132" lon="4.85413">
        <ele>276</ele>
        <time>2018-07-08T09:53:46Z</time>
      </trkpt>
      <trkpt lat="45.98126" lon="4.85405">
        <ele>276</ele>
        <time>2018-07-08T09:53:47Z</time>
      </trkpt>
      <trkpt lat="45.98123" lon="4.85397">
        <ele>276</ele>
        <time>2018-07-08T09:53:48Z</time>
      </trkpt>
      <trkpt lat="45.98121" lon="4.85389">
        <ele>276</ele>
        <time>2018-07-08T09:53:49Z</time>
      </trkpt>
      <trkpt lat="45.98117" lon="4.85379">
        <ele>276</ele>
        <time>2018-07-08T09:53:50Z</time>
      </trkpt>
      <trkpt lat="45.98114" lon="4.85371">
        <ele>276</ele>
        <time>2018-07-08T09:53:51Z</time>
      </trkpt>
      <trkpt lat="45.98111" lon="4.85363">
        <ele>276</ele>
        <time>2018-07-08T09:53:52Z</time>
      </trkpt>
      <trkpt lat="45.98108" lon="4.85355">
        <ele>276</ele>
        <time>2018-07-08T09:53:53Z</time>
      </trkpt>
      <trkpt lat="45.98106" lon="4.85348">
        <ele>276</ele>
        <time>2018-07-08T09:53:54Z</time>
      </trkpt>
      <trkpt lat="45.98103" lon="4.85341">
        <ele>276</ele>
        <time>2018-07-08T09:53:55Z</time>
      </trkpt>
      <trkpt lat="45.98101" lon="4.85334">
        <ele>276</ele>
        <time>2018-07-08T09:53:56Z</time>
      </trkpt>
      <trkpt lat="45.98101" lon="4.85323">
        <ele>276</ele>
        <time>2018-07-08T09:53:58Z</time>
      </trkpt>
      <trkpt lat="45.98098" lon="4.85317">
        <ele>276</ele>
        <time>2018-07-08T09:53:59Z</time>
      </trkpt>
      <trkpt lat="45.98097" lon="4.8531">
        <ele>276</ele>
        <time>2018-07-08T09:54:00Z</time>
      </trkpt>
      <trkpt lat="45.98091" lon="4.85303">
        <ele>276</ele>
        <time>2018-07-08T09:54:01Z</time>
      </trkpt>
      <trkpt lat="45.98089" lon="4.85298">
        <ele>276</ele>
        <time>2018-07-08T09:54:02Z</time>
      </trkpt>
      <trkpt lat="45.98085" lon="4.85291">
        <ele>276</ele>
        <time>2018-07-08T09:54:03Z</time>
      </trkpt>
      <trkpt lat="45.98084" lon="4.85279">
        <ele>276</ele>
        <time>2018-07-08T09:54:05Z</time>
      </trkpt>
      <trkpt lat="45.98082" lon="4.85273">
        <ele>276</ele>
        <time>2018-07-08T09:54:06Z</time>
      </trkpt>
      <trkpt lat="45.98078" lon="4.85267">
        <ele>276</ele>
        <time>2018-07-08T09:54:07Z</time>
      </trkpt>
      <trkpt lat="45.98075" lon="4.85262">
        <ele>276</ele>
        <time>2018-07-08T09:54:08Z</time>
      </trkpt>
      <trkpt lat="45.98071" lon="4.85257">
        <ele>276</ele>
        <time>2018-07-08T09:54:09Z</time>
      </trkpt>
      <trkpt lat="45.98068" lon="4.85252">
        <ele>276</ele>
        <time>2018-07-08T09:54:10Z</time>
      </trkpt>
      <trkpt lat="45.98062" lon="4.85243">
        <ele>276</ele>
        <time>2018-07-08T09:54:12Z</time>
      </trkpt>
      <trkpt lat="45.9806" lon="4.85239">
        <ele>276</ele>
        <time>2018-07-08T09:54:13Z</time>
      </trkpt>
      <trkpt lat="45.98058" lon="4.85226">
        <ele>276</ele>
        <time>2018-07-08T09:54:17Z</time>
      </trkpt>
      <trkpt lat="45.98058" lon="4.85224">
        <ele>276</ele>
        <time>2018-07-08T09:54:18Z</time>
      </trkpt>
      <trkpt lat="45.98054" lon="4.85213">
        <ele>276</ele>
        <time>2018-07-08T09:54:25Z</time>
      </trkpt>
      <trkpt lat="45.98053" lon="4.85211">
        <ele>276</ele>
        <time>2018-07-08T09:54:26Z</time>
      </trkpt>
      <trkpt lat="45.98052" lon="4.85208">
        <ele>276</ele>
        <time>2018-07-08T09:54:27Z</time>
      </trkpt>
      <trkpt lat="45.98047" lon="4.85199">
        <ele>276</ele>
        <time>2018-07-08T09:54:28Z</time>
      </trkpt>
      <trkpt lat="45.98044" lon="4.8519">
        <ele>276</ele>
        <time>2018-07-08T09:54:30Z</time>
      </trkpt>
      <trkpt lat="45.98042" lon="4.85186">
        <ele>276</ele>
        <time>2018-07-08T09:54:31Z</time>
      </trkpt>
      <trkpt lat="45.98038" lon="4.85174">
        <ele>275</ele>
        <time>2018-07-08T09:54:33Z</time>
      </trkpt>
      <trkpt lat="45.98036" lon="4.85167">
        <ele>275</ele>
        <time>2018-07-08T09:54:34Z</time>
      </trkpt>
      <trkpt lat="45.98035" lon="4.85159">
        <ele>275</ele>
        <time>2018-07-08T09:54:35Z</time>
      </trkpt>
      <trkpt lat="45.98034" lon="4.85151">
        <ele>275</ele>
        <time>2018-07-08T09:54:36Z</time>
      </trkpt>
      <trkpt lat="45.98029" lon="4.85143">
        <ele>275</ele>
        <time>2018-07-08T09:54:37Z</time>
      </trkpt>
      <trkpt lat="45.98026" lon="4.85135">
        <ele>275</ele>
        <time>2018-07-08T09:54:38Z</time>
      </trkpt>
      <trkpt lat="45.98025" lon="4.85126">
        <ele>274</ele>
        <time>2018-07-08T09:54:39Z</time>
      </trkpt>
      <trkpt lat="45.98022" lon="4.85118">
        <ele>274</ele>
        <time>2018-07-08T09:54:40Z</time>
      </trkpt>
      <trkpt lat="45.9802" lon="4.8511">
        <ele>274</ele>
        <time>2018-07-08T09:54:41Z</time>
      </trkpt>
      <trkpt lat="45.98017" lon="4.85101">
        <ele>274</ele>
        <time>2018-07-08T09:54:42Z</time>
      </trkpt>
      <trkpt lat="45.98015" lon="4.85092">
        <ele>274</ele>
        <time>2018-07-08T09:54:43Z</time>
      </trkpt>
      <trkpt lat="45.98014" lon="4.85083">
        <ele>273</ele>
        <time>2018-07-08T09:54:44Z</time>
      </trkpt>
      <trkpt lat="45.98014" lon="4.85075">
        <ele>273</ele>
        <time>2018-07-08T09:54:45Z</time>
      </trkpt>
      <trkpt lat="45.98013" lon="4.85066">
        <ele>273</ele>
        <time>2018-07-08T09:54:46Z</time>
      </trkpt>
      <trkpt lat="45.98014" lon="4.85058">
        <ele>273</ele>
        <time>2018-07-08T09:54:47Z</time>
      </trkpt>
      <trkpt lat="45.98014" lon="4.85049">
        <ele>273</ele>
        <time>2018-07-08T09:54:48Z</time>
      </trkpt>
      <trkpt lat="45.98014" lon="4.8504">
        <ele>273</ele>
        <time>2018-07-08T09:54:49Z</time>
      </trkpt>
      <trkpt lat="45.98016" lon="4.85033">
        <ele>273</ele>
        <time>2018-07-08T09:54:50Z</time>
      </trkpt>
      <trkpt lat="45.98016" lon="4.85025">
        <ele>273</ele>
        <time>2018-07-08T09:54:51Z</time>
      </trkpt>
      <trkpt lat="45.98016" lon="4.85017">
        <ele>273</ele>
        <time>2018-07-08T09:54:52Z</time>
      </trkpt>
      <trkpt lat="45.98015" lon="4.8501">
        <ele>272</ele>
        <time>2018-07-08T09:54:53Z</time>
      </trkpt>
      <trkpt lat="45.98015" lon="4.85001">
        <ele>272</ele>
        <time>2018-07-08T09:54:54Z</time>
      </trkpt>
      <trkpt lat="45.98014" lon="4.84994">
        <ele>272</ele>
        <time>2018-07-08T09:54:55Z</time>
      </trkpt>
      <trkpt lat="45.98013" lon="4.84987">
        <ele>272</ele>
        <time>2018-07-08T09:54:56Z</time>
      </trkpt>
      <trkpt lat="45.98011" lon="4.84979">
        <ele>272</ele>
        <time>2018-07-08T09:54:57Z</time>
      </trkpt>
      <trkpt lat="45.98011" lon="4.84971">
        <ele>272</ele>
        <time>2018-07-08T09:54:58Z</time>
      </trkpt>
      <trkpt lat="45.9801" lon="4.84963">
        <ele>272</ele>
        <time>2018-07-08T09:54:59Z</time>
      </trkpt>
      <trkpt lat="45.98008" lon="4.84956">
        <ele>272</ele>
        <time>2018-07-08T09:55:00Z</time>
      </trkpt>
      <trkpt lat="45.98006" lon="4.84949">
        <ele>272</ele>
        <time>2018-07-08T09:55:01Z</time>
      </trkpt>
      <trkpt lat="45.98006" lon="4.84941">
        <ele>272</ele>
        <time>2018-07-08T09:55:02Z</time>
      </trkpt>
      <trkpt lat="45.98006" lon="4.84933">
        <ele>272</ele>
        <time>2018-07-08T09:55:03Z</time>
      </trkpt>
      <trkpt lat="45.98005" lon="4.84927">
        <ele>272</ele>
        <time>2018-07-08T09:55:04Z</time>
      </trkpt>
      <trkpt lat="45.98004" lon="4.84919">
        <ele>272</ele>
        <time>2018-07-08T09:55:05Z</time>
      </trkpt>
      <trkpt lat="45.98003" lon="4.8491">
        <ele>272</ele>
        <time>2018-07-08T09:55:06Z</time>
      </trkpt>
      <trkpt lat="45.98002" lon="4.84901">
        <ele>272</ele>
        <time>2018-07-08T09:55:07Z</time>
      </trkpt>
      <trkpt lat="45.98002" lon="4.84892">
        <ele>272</ele>
        <time>2018-07-08T09:55:08Z</time>
      </trkpt>
      <trkpt lat="45.98002" lon="4.84883">
        <ele>272</ele>
        <time>2018-07-08T09:55:09Z</time>
      </trkpt>
      <trkpt lat="45.98002" lon="4.84874">
        <ele>272</ele>
        <time>2018-07-08T09:55:10Z</time>
      </trkpt>
      <trkpt lat="45.98002" lon="4.84865">
        <ele>272</ele>
        <time>2018-07-08T09:55:11Z</time>
      </trkpt>
      <trkpt lat="45.98002" lon="4.84857">
        <ele>272</ele>
        <time>2018-07-08T09:55:12Z</time>
      </trkpt>
      <trkpt lat="45.98001" lon="4.84849">
        <ele>272</ele>
        <time>2018-07-08T09:55:13Z</time>
      </trkpt>
      <trkpt lat="45.97999" lon="4.84843">
        <ele>272</ele>
        <time>2018-07-08T09:55:14Z</time>
      </trkpt>
      <trkpt lat="45.97998" lon="4.84836">
        <ele>272</ele>
        <time>2018-07-08T09:55:15Z</time>
      </trkpt>
      <trkpt lat="45.97997" lon="4.84828">
        <ele>272</ele>
        <time>2018-07-08T09:55:16Z</time>
      </trkpt>
      <trkpt lat="45.97997" lon="4.84821">
        <ele>273</ele>
        <time>2018-07-08T09:55:17Z</time>
      </trkpt>
      <trkpt lat="45.97996" lon="4.8481">
        <ele>273</ele>
        <time>2018-07-08T09:55:18Z</time>
      </trkpt>
      <trkpt lat="45.97996" lon="4.84801">
        <ele>274</ele>
        <time>2018-07-08T09:55:19Z</time>
      </trkpt>
      <trkpt lat="45.97992" lon="4.84797">
        <ele>274</ele>
        <time>2018-07-08T09:55:20Z</time>
      </trkpt>
      <trkpt lat="45.97994" lon="4.84789">
        <ele>274</ele>
        <time>2018-07-08T09:55:21Z</time>
      </trkpt>
      <trkpt lat="45.97994" lon="4.84781">
        <ele>274</ele>
        <time>2018-07-08T09:55:22Z</time>
      </trkpt>
      <trkpt lat="45.97994" lon="4.84773">
        <ele>274</ele>
        <time>2018-07-08T09:55:23Z</time>
      </trkpt>
      <trkpt lat="45.97996" lon="4.84767">
        <ele>275</ele>
        <time>2018-07-08T09:55:24Z</time>
      </trkpt>
      <trkpt lat="45.97996" lon="4.84759">
        <ele>275</ele>
        <time>2018-07-08T09:55:25Z</time>
      </trkpt>
      <trkpt lat="45.97996" lon="4.84751">
        <ele>275</ele>
        <time>2018-07-08T09:55:26Z</time>
      </trkpt>
      <trkpt lat="45.97995" lon="4.84742">
        <ele>275</ele>
        <time>2018-07-08T09:55:27Z</time>
      </trkpt>
      <trkpt lat="45.97995" lon="4.84734">
        <ele>275</ele>
        <time>2018-07-08T09:55:28Z</time>
      </trkpt>
      <trkpt lat="45.97994" lon="4.84726">
        <ele>275</ele>
        <time>2018-07-08T09:55:29Z</time>
      </trkpt>
      <trkpt lat="45.97993" lon="4.84718">
        <ele>275</ele>
        <time>2018-07-08T09:55:30Z</time>
      </trkpt>
      <trkpt lat="45.97992" lon="4.84711">
        <ele>275</ele>
        <time>2018-07-08T09:55:31Z</time>
      </trkpt>
      <trkpt lat="45.97991" lon="4.84704">
        <ele>275</ele>
        <time>2018-07-08T09:55:32Z</time>
      </trkpt>
      <trkpt lat="45.97989" lon="4.84693">
        <ele>275</ele>
        <time>2018-07-08T09:55:33Z</time>
      </trkpt>
      <trkpt lat="45.97988" lon="4.84684">
        <ele>275</ele>
        <time>2018-07-08T09:55:34Z</time>
      </trkpt>
      <trkpt lat="45.97988" lon="4.84676">
        <ele>275</ele>
        <time>2018-07-08T09:55:35Z</time>
      </trkpt>
      <trkpt lat="45.97987" lon="4.84668">
        <ele>275</ele>
        <time>2018-07-08T09:55:36Z</time>
      </trkpt>
      <trkpt lat="45.97986" lon="4.8466">
        <ele>274</ele>
        <time>2018-07-08T09:55:37Z</time>
      </trkpt>
      <trkpt lat="45.97984" lon="4.84652">
        <ele>274</ele>
        <time>2018-07-08T09:55:38Z</time>
      </trkpt>
      <trkpt lat="45.97983" lon="4.84645">
        <ele>275</ele>
        <time>2018-07-08T09:55:39Z</time>
      </trkpt>
      <trkpt lat="45.9798" lon="4.84638">
        <ele>275</ele>
        <time>2018-07-08T09:55:40Z</time>
      </trkpt>
      <trkpt lat="45.97979" lon="4.84632">
        <ele>275</ele>
        <time>2018-07-08T09:55:41Z</time>
      </trkpt>
      <trkpt lat="45.97977" lon="4.84625">
        <ele>275</ele>
        <time>2018-07-08T09:55:42Z</time>
      </trkpt>
      <trkpt lat="45.97976" lon="4.84618">
        <ele>275</ele>
        <time>2018-07-08T09:55:43Z</time>
      </trkpt>
      <trkpt lat="45.97975" lon="4.8461">
        <ele>275</ele>
        <time>2018-07-08T09:55:44Z</time>
      </trkpt>
      <trkpt lat="45.97973" lon="4.84602">
        <ele>275</ele>
        <time>2018-07-08T09:55:45Z</time>
      </trkpt>
      <trkpt lat="45.97971" lon="4.84593">
        <ele>275</ele>
        <time>2018-07-08T09:55:46Z</time>
      </trkpt>
      <trkpt lat="45.9797" lon="4.84585">
        <ele>275</ele>
        <time>2018-07-08T09:55:47Z</time>
      </trkpt>
      <trkpt lat="45.97969" lon="4.84577">
        <ele>275</ele>
        <time>2018-07-08T09:55:48Z</time>
      </trkpt>
      <trkpt lat="45.97968" lon="4.8457">
        <ele>275</ele>
        <time>2018-07-08T09:55:49Z</time>
      </trkpt>
      <trkpt lat="45.97967" lon="4.8456">
        <ele>275</ele>
        <time>2018-07-08T09:55:50Z</time>
      </trkpt>
      <trkpt lat="45.97964" lon="4.84548">
        <ele>275</ele>
        <time>2018-07-08T09:55:52Z</time>
      </trkpt>
      <trkpt lat="45.97962" lon="4.84539">
        <ele>275</ele>
        <time>2018-07-08T09:55:53Z</time>
      </trkpt>
      <trkpt lat="45.97959" lon="4.84531">
        <ele>275</ele>
        <time>2018-07-08T09:55:54Z</time>
      </trkpt>
      <trkpt lat="45.97958" lon="4.84524">
        <ele>275</ele>
        <time>2018-07-08T09:55:55Z</time>
      </trkpt>
      <trkpt lat="45.97962" lon="4.84519">
        <ele>275</ele>
        <time>2018-07-08T09:55:56Z</time>
      </trkpt>
      <trkpt lat="45.97959" lon="4.84511">
        <ele>275</ele>
        <time>2018-07-08T09:55:57Z</time>
      </trkpt>
      <trkpt lat="45.97957" lon="4.84503">
        <ele>275</ele>
        <time>2018-07-08T09:55:58Z</time>
      </trkpt>
      <trkpt lat="45.97954" lon="4.84495">
        <ele>275</ele>
        <time>2018-07-08T09:55:59Z</time>
      </trkpt>
      <trkpt lat="45.97953" lon="4.84487">
        <ele>275</ele>
        <time>2018-07-08T09:56:00Z</time>
      </trkpt>
      <trkpt lat="45.97951" lon="4.84479">
        <ele>275</ele>
        <time>2018-07-08T09:56:01Z</time>
      </trkpt>
      <trkpt lat="45.97951" lon="4.8447">
        <ele>275</ele>
        <time>2018-07-08T09:56:02Z</time>
      </trkpt>
      <trkpt lat="45.9795" lon="4.84462">
        <ele>275</ele>
        <time>2018-07-08T09:56:03Z</time>
      </trkpt>
      <trkpt lat="45.97949" lon="4.84455">
        <ele>275</ele>
        <time>2018-07-08T09:56:04Z</time>
      </trkpt>
      <trkpt lat="45.97949" lon="4.84448">
        <ele>275</ele>
        <time>2018-07-08T09:56:05Z</time>
      </trkpt>
      <trkpt lat="45.97946" lon="4.84441">
        <ele>275</ele>
        <time>2018-07-08T09:56:06Z</time>
      </trkpt>
      <trkpt lat="45.97944" lon="4.84433">
        <ele>275</ele>
        <time>2018-07-08T09:56:07Z</time>
      </trkpt>
      <trkpt lat="45.97942" lon="4.84425">
        <ele>275</ele>
        <time>2018-07-08T09:56:08Z</time>
      </trkpt>
      <trkpt lat="45.9794" lon="4.84418">
        <ele>275</ele>
        <time>2018-07-08T09:56:09Z</time>
      </trkpt>
      <trkpt lat="45.9794" lon="4.8441">
        <ele>275</ele>
        <time>2018-07-08T09:56:10Z</time>
      </trkpt>
      <trkpt lat="45.9794" lon="4.84403">
        <ele>275</ele>
        <time>2018-07-08T09:56:11Z</time>
      </trkpt>
      <trkpt lat="45.9794" lon="4.84395">
        <ele>275</ele>
        <time>2018-07-08T09:56:12Z</time>
      </trkpt>
      <trkpt lat="45.97938" lon="4.84388">
        <ele>275</ele>
        <time>2018-07-08T09:56:13Z</time>
      </trkpt>
      <trkpt lat="45.97937" lon="4.84381">
        <ele>275</ele>
        <time>2018-07-08T09:56:14Z</time>
      </trkpt>
      <trkpt lat="45.97934" lon="4.84373">
        <ele>275</ele>
        <time>2018-07-08T09:56:15Z</time>
      </trkpt>
      <trkpt lat="45.97933" lon="4.84367">
        <ele>275</ele>
        <time>2018-07-08T09:56:16Z</time>
      </trkpt>
      <trkpt lat="45.97932" lon="4.8436">
        <ele>275</ele>
        <time>2018-07-08T09:56:17Z</time>
      </trkpt>
      <trkpt lat="45.97931" lon="4.84352">
        <ele>275</ele>
        <time>2018-07-08T09:56:18Z</time>
      </trkpt>
      <trkpt lat="45.9793" lon="4.84345">
        <ele>275</ele>
        <time>2018-07-08T09:56:19Z</time>
      </trkpt>
      <trkpt lat="45.97928" lon="4.84337">
        <ele>275</ele>
        <time>2018-07-08T09:56:20Z</time>
      </trkpt>
      <trkpt lat="45.97926" lon="4.8433">
        <ele>275</ele>
        <time>2018-07-08T09:56:21Z</time>
      </trkpt>
      <trkpt lat="45.97925" lon="4.84323">
        <ele>275</ele>
        <time>2018-07-08T09:56:22Z</time>
      </trkpt>
      <trkpt lat="45.97924" lon="4.84316">
        <ele>275</ele>
        <time>2018-07-08T09:56:23Z</time>
      </trkpt>
      <trkpt lat="45.97923" lon="4.84309">
        <ele>275</ele>
        <time>2018-07-08T09:56:24Z</time>
      </trkpt>
      <trkpt lat="45.97922" lon="4.84303">
        <ele>275</ele>
        <time>2018-07-08T09:56:25Z</time>
      </trkpt>
      <trkpt lat="45.97923" lon="4.84295">
        <ele>275</ele>
        <time>2018-07-08T09:56:26Z</time>
      </trkpt>
      <trkpt lat="45.97922" lon="4.84288">
        <ele>275</ele>
        <time>2018-07-08T09:56:27Z</time>
      </trkpt>
      <trkpt lat="45.97923" lon="4.8428">
        <ele>275</ele>
        <time>2018-07-08T09:56:28Z</time>
      </trkpt>
      <trkpt lat="45.97926" lon="4.84273">
        <ele>275</ele>
        <time>2018-07-08T09:56:29Z</time>
      </trkpt>
      <trkpt lat="45.97929" lon="4.84267">
        <ele>275</ele>
        <time>2018-07-08T09:56:30Z</time>
      </trkpt>
      <trkpt lat="45.97932" lon="4.84261">
        <ele>275</ele>
        <time>2018-07-08T09:56:31Z</time>
      </trkpt>
      <trkpt lat="45.97937" lon="4.84256">
        <ele>275</ele>
        <time>2018-07-08T09:56:32Z</time>
      </trkpt>
      <trkpt lat="45.97939" lon="4.8425">
        <ele>275</ele>
        <time>2018-07-08T09:56:33Z</time>
      </trkpt>
      <trkpt lat="45.97943" lon="4.84246">
        <ele>275</ele>
        <time>2018-07-08T09:56:34Z</time>
      </trkpt>
      <trkpt lat="45.97948" lon="4.84242">
        <ele>275</ele>
        <time>2018-07-08T09:56:35Z</time>
      </trkpt>
      <trkpt lat="45.97953" lon="4.84237">
        <ele>275</ele>
        <time>2018-07-08T09:56:36Z</time>
      </trkpt>
      <trkpt lat="45.97956" lon="4.84232">
        <ele>275</ele>
        <time>2018-07-08T09:56:37Z</time>
      </trkpt>
      <trkpt lat="45.9796" lon="4.84228">
        <ele>274</ele>
        <time>2018-07-08T09:56:38Z</time>
      </trkpt>
      <trkpt lat="45.97964" lon="4.84225">
        <ele>274</ele>
        <time>2018-07-08T09:56:39Z</time>
      </trkpt>
      <trkpt lat="45.97969" lon="4.8422">
        <ele>274</ele>
        <time>2018-07-08T09:56:40Z</time>
      </trkpt>
      <trkpt lat="45.97973" lon="4.84217">
        <ele>274</ele>
        <time>2018-07-08T09:56:41Z</time>
      </trkpt>
      <trkpt lat="45.97978" lon="4.84212">
        <ele>274</ele>
        <time>2018-07-08T09:56:42Z</time>
      </trkpt>
      <trkpt lat="45.97984" lon="4.84208">
        <ele>274</ele>
        <time>2018-07-08T09:56:43Z</time>
      </trkpt>
      <trkpt lat="45.97989" lon="4.84203">
        <ele>274</ele>
        <time>2018-07-08T09:56:44Z</time>
      </trkpt>
      <trkpt lat="45.97993" lon="4.84199">
        <ele>274</ele>
        <time>2018-07-08T09:56:45Z</time>
      </trkpt>
      <trkpt lat="45.97996" lon="4.84194">
        <ele>274</ele>
        <time>2018-07-08T09:56:46Z</time>
      </trkpt>
      <trkpt lat="45.98001" lon="4.84191">
        <ele>274</ele>
        <time>2018-07-08T09:56:47Z</time>
      </trkpt>
      <trkpt lat="45.98004" lon="4.84186">
        <ele>274</ele>
        <time>2018-07-08T09:56:48Z</time>
      </trkpt>
      <trkpt lat="45.98009" lon="4.8418">
        <ele>274</ele>
        <time>2018-07-08T09:56:49Z</time>
      </trkpt>
      <trkpt lat="45.98013" lon="4.84176">
        <ele>274</ele>
        <time>2018-07-08T09:56:50Z</time>
      </trkpt>
      <trkpt lat="45.98017" lon="4.84171">
        <ele>274</ele>
        <time>2018-07-08T09:56:51Z</time>
      </trkpt>
      <trkpt lat="45.98021" lon="4.84167">
        <ele>274</ele>
        <time>2018-07-08T09:56:52Z</time>
      </trkpt>
      <trkpt lat="45.98027" lon="4.84163">
        <ele>273</ele>
        <time>2018-07-08T09:56:53Z</time>
      </trkpt>
      <trkpt lat="45.98031" lon="4.8416">
        <ele>273</ele>
        <time>2018-07-08T09:56:54Z</time>
      </trkpt>
      <trkpt lat="45.98035" lon="4.84155">
        <ele>273</ele>
        <time>2018-07-08T09:56:55Z</time>
      </trkpt>
      <trkpt lat="45.9804" lon="4.84151">
        <ele>273</ele>
        <time>2018-07-08T09:56:56Z</time>
      </trkpt>
      <trkpt lat="45.98044" lon="4.84148">
        <ele>273</ele>
        <time>2018-07-08T09:56:57Z</time>
      </trkpt>
      <trkpt lat="45.9805" lon="4.84144">
        <ele>273</ele>
        <time>2018-07-08T09:56:58Z</time>
      </trkpt>
      <trkpt lat="45.98055" lon="4.8414">
        <ele>273</ele>
        <time>2018-07-08T09:56:59Z</time>
      </trkpt>
      <trkpt lat="45.98059" lon="4.84137">
        <ele>273</ele>
        <time>2018-07-08T09:57:00Z</time>
      </trkpt>
      <trkpt lat="45.98063" lon="4.84132">
        <ele>273</ele>
        <time>2018-07-08T09:57:01Z</time>
      </trkpt>
      <trkpt lat="45.98067" lon="4.84127">
        <ele>273</ele>
        <time>2018-07-08T09:57:02Z</time>
      </trkpt>
      <trkpt lat="45.98071" lon="4.84123">
        <ele>273</ele>
        <time>2018-07-08T09:57:03Z</time>
      </trkpt>
      <trkpt lat="45.98076" lon="4.8412">
        <ele>273</ele>
        <time>2018-07-08T09:57:04Z</time>
      </trkpt>
      <trkpt lat="45.98081" lon="4.84116">
        <ele>273</ele>
        <time>2018-07-08T09:57:05Z</time>
      </trkpt>
      <trkpt lat="45.98086" lon="4.84112">
        <ele>273</ele>
        <time>2018-07-08T09:57:06Z</time>
      </trkpt>
      <trkpt lat="45.98091" lon="4.84109">
        <ele>273</ele>
        <time>2018-07-08T09:57:07Z</time>
      </trkpt>
      <trkpt lat="45.98096" lon="4.84104">
        <ele>273</ele>
        <time>2018-07-08T09:57:08Z</time>
      </trkpt>
      <trkpt lat="45.981" lon="4.841">
        <ele>273</ele>
        <time>2018-07-08T09:57:09Z</time>
      </trkpt>
      <trkpt lat="45.98106" lon="4.84096">
        <ele>273</ele>
        <time>2018-07-08T09:57:10Z</time>
      </trkpt>
      <trkpt lat="45.9811" lon="4.84092">
        <ele>273</ele>
        <time>2018-07-08T09:57:11Z</time>
      </trkpt>
      <trkpt lat="45.98115" lon="4.84086">
        <ele>273</ele>
        <time>2018-07-08T09:57:12Z</time>
      </trkpt>
      <trkpt lat="45.98119" lon="4.84079">
        <ele>273</ele>
        <time>2018-07-08T09:57:13Z</time>
      </trkpt>
      <trkpt lat="45.98123" lon="4.84074">
        <ele>273</ele>
        <time>2018-07-08T09:57:14Z</time>
      </trkpt>
      <trkpt lat="45.98128" lon="4.8407">
        <ele>273</ele>
        <time>2018-07-08T09:57:15Z</time>
      </trkpt>
      <trkpt lat="45.9813" lon="4.84064">
        <ele>273</ele>
        <time>2018-07-08T09:57:16Z</time>
      </trkpt>
      <trkpt lat="45.98135" lon="4.84061">
        <ele>273</ele>
        <time>2018-07-08T09:57:17Z</time>
      </trkpt>
      <trkpt lat="45.98139" lon="4.84056">
        <ele>273</ele>
        <time>2018-07-08T09:57:18Z</time>
      </trkpt>
      <trkpt lat="45.98143" lon="4.8405">
        <ele>273</ele>
        <time>2018-07-08T09:57:19Z</time>
      </trkpt>
      <trkpt lat="45.98147" lon="4.84045">
        <ele>273</ele>
        <time>2018-07-08T09:57:20Z</time>
      </trkpt>
      <trkpt lat="45.98151" lon="4.84039">
        <ele>273</ele>
        <time>2018-07-08T09:57:21Z</time>
      </trkpt>
      <trkpt lat="45.98156" lon="4.84033">
        <ele>273</ele>
        <time>2018-07-08T09:57:22Z</time>
      </trkpt>
      <trkpt lat="45.98159" lon="4.84027">
        <ele>273</ele>
        <time>2018-07-08T09:57:23Z</time>
      </trkpt>
      <trkpt lat="45.98162" lon="4.84022">
        <ele>273</ele>
        <time>2018-07-08T09:57:24Z</time>
      </trkpt>
      <trkpt lat="45.98166" lon="4.84014">
        <ele>273</ele>
        <time>2018-07-08T09:57:25Z</time>
      </trkpt>
      <trkpt lat="45.98169" lon="4.84008">
        <ele>273</ele>
        <time>2018-07-08T09:57:26Z</time>
      </trkpt>
      <trkpt lat="45.98172" lon="4.84">
        <ele>273</ele>
        <time>2018-07-08T09:57:27Z</time>
      </trkpt>
      <trkpt lat="45.98176" lon="4.83993">
        <ele>273</ele>
        <time>2018-07-08T09:57:28Z</time>
      </trkpt>
      <trkpt lat="45.98179" lon="4.83987">
        <ele>273</ele>
        <time>2018-07-08T09:57:29Z</time>
      </trkpt>
      <trkpt lat="45.98182" lon="4.8398">
        <ele>273</ele>
        <time>2018-07-08T09:57:30Z</time>
      </trkpt>
      <trkpt lat="45.98186" lon="4.83973">
        <ele>273</ele>
        <time>2018-07-08T09:57:31Z</time>
      </trkpt>
      <trkpt lat="45.98189" lon="4.83964">
        <ele>273</ele>
        <time>2018-07-08T09:57:32Z</time>
      </trkpt>
      <trkpt lat="45.98192" lon="4.83955">
        <ele>273</ele>
        <time>2018-07-08T09:57:33Z</time>
      </trkpt>
      <trkpt lat="45.98194" lon="4.8395">
        <ele>273</ele>
        <time>2018-07-08T09:57:34Z</time>
      </trkpt>
      <trkpt lat="45.98196" lon="4.83942">
        <ele>273</ele>
        <time>2018-07-08T09:57:35Z</time>
      </trkpt>
      <trkpt lat="45.98197" lon="4.83933">
        <ele>273</ele>
        <time>2018-07-08T09:57:36Z</time>
      </trkpt>
      <trkpt lat="45.98201" lon="4.83927">
        <ele>273</ele>
        <time>2018-07-08T09:57:37Z</time>
      </trkpt>
      <trkpt lat="45.98204" lon="4.8392">
        <ele>273</ele>
        <time>2018-07-08T09:57:38Z</time>
      </trkpt>
      <trkpt lat="45.98207" lon="4.83911">
        <ele>273</ele>
        <time>2018-07-08T09:57:39Z</time>
      </trkpt>
      <trkpt lat="45.9821" lon="4.83903">
        <ele>273</ele>
        <time>2018-07-08T09:57:40Z</time>
      </trkpt>
      <trkpt lat="45.98212" lon="4.83896">
        <ele>273</ele>
        <time>2018-07-08T09:57:41Z</time>
      </trkpt>
      <trkpt lat="45.98214" lon="4.83887">
        <ele>273</ele>
        <time>2018-07-08T09:57:42Z</time>
      </trkpt>
      <trkpt lat="45.98218" lon="4.8388">
        <ele>272</ele>
        <time>2018-07-08T09:57:43Z</time>
      </trkpt>
      <trkpt lat="45.9822" lon="4.83873">
        <ele>272</ele>
        <time>2018-07-08T09:57:44Z</time>
      </trkpt>
      <trkpt lat="45.98224" lon="4.83866">
        <ele>272</ele>
        <time>2018-07-08T09:57:45Z</time>
      </trkpt>
      <trkpt lat="45.98226" lon="4.83859">
        <ele>272</ele>
        <time>2018-07-08T09:57:46Z</time>
      </trkpt>
      <trkpt lat="45.98228" lon="4.83851">
        <ele>272</ele>
        <time>2018-07-08T09:57:47Z</time>
      </trkpt>
      <trkpt lat="45.98229" lon="4.83843">
        <ele>272</ele>
        <time>2018-07-08T09:57:48Z</time>
      </trkpt>
      <trkpt lat="45.9823" lon="4.83836">
        <ele>272</ele>
        <time>2018-07-08T09:57:49Z</time>
      </trkpt>
      <trkpt lat="45.98232" lon="4.8383">
        <ele>272</ele>
        <time>2018-07-08T09:57:50Z</time>
      </trkpt>
      <trkpt lat="45.98234" lon="4.83823">
        <ele>272</ele>
        <time>2018-07-08T09:57:51Z</time>
      </trkpt>
      <trkpt lat="45.98238" lon="4.83817">
        <ele>272</ele>
        <time>2018-07-08T09:57:52Z</time>
      </trkpt>
      <trkpt lat="45.98241" lon="4.83807">
        <ele>272</ele>
        <time>2018-07-08T09:57:53Z</time>
      </trkpt>
      <trkpt lat="45.98245" lon="4.83798">
        <ele>272</ele>
        <time>2018-07-08T09:57:54Z</time>
      </trkpt>
      <trkpt lat="45.98248" lon="4.8379">
        <ele>272</ele>
        <time>2018-07-08T09:57:55Z</time>
      </trkpt>
      <trkpt lat="45.9825" lon="4.83782">
        <ele>272</ele>
        <time>2018-07-08T09:57:56Z</time>
      </trkpt>
      <trkpt lat="45.98253" lon="4.83772">
        <ele>272</ele>
        <time>2018-07-08T09:57:57Z</time>
      </trkpt>
      <trkpt lat="45.98256" lon="4.83765">
        <ele>272</ele>
        <time>2018-07-08T09:57:58Z</time>
      </trkpt>
      <trkpt lat="45.9826" lon="4.83758">
        <ele>272</ele>
        <time>2018-07-08T09:57:59Z</time>
      </trkpt>
      <trkpt lat="45.98263" lon="4.8375">
        <ele>272</ele>
        <time>2018-07-08T09:58:00Z</time>
      </trkpt>
      <trkpt lat="45.98264" lon="4.83743">
        <ele>272</ele>
        <time>2018-07-08T09:58:01Z</time>
      </trkpt>
      <trkpt lat="45.98267" lon="4.83733">
        <ele>272</ele>
        <time>2018-07-08T09:58:02Z</time>
      </trkpt>
      <trkpt lat="45.9827" lon="4.83726">
        <ele>272</ele>
        <time>2018-07-08T09:58:03Z</time>
      </trkpt>
      <trkpt lat="45.98273" lon="4.83719">
        <ele>272</ele>
        <time>2018-07-08T09:58:04Z</time>
      </trkpt>
      <trkpt lat="45.98276" lon="4.83712">
        <ele>272</ele>
        <time>2018-07-08T09:58:05Z</time>
      </trkpt>
      <trkpt lat="45.98278" lon="4.83702">
        <ele>272</ele>
        <time>2018-07-08T09:58:06Z</time>
      </trkpt>
      <trkpt lat="45.98281" lon="4.83696">
        <ele>272</ele>
        <time>2018-07-08T09:58:07Z</time>
      </trkpt>
      <trkpt lat="45.98284" lon="4.83687">
        <ele>272</ele>
        <time>2018-07-08T09:58:08Z</time>
      </trkpt>
      <trkpt lat="45.98287" lon="4.83679">
        <ele>272</ele>
        <time>2018-07-08T09:58:09Z</time>
      </trkpt>
      <trkpt lat="45.98291" lon="4.83671">
        <ele>272</ele>
        <time>2018-07-08T09:58:10Z</time>
      </trkpt>
      <trkpt lat="45.98294" lon="4.83662">
        <ele>271</ele>
        <time>2018-07-08T09:58:11Z</time>
      </trkpt>
      <trkpt lat="45.98298" lon="4.83654">
        <ele>271</ele>
        <time>2018-07-08T09:58:12Z</time>
      </trkpt>
      <trkpt lat="45.983" lon="4.83646">
        <ele>271</ele>
        <time>2018-07-08T09:58:13Z</time>
      </trkpt>
      <trkpt lat="45.98304" lon="4.83639">
        <ele>271</ele>
        <time>2018-07-08T09:58:14Z</time>
      </trkpt>
      <trkpt lat="45.98309" lon="4.83631">
        <ele>271</ele>
        <time>2018-07-08T09:58:15Z</time>
      </trkpt>
      <trkpt lat="45.98312" lon="4.83625">
        <ele>271</ele>
        <time>2018-07-08T09:58:16Z</time>
      </trkpt>
      <trkpt lat="45.98315" lon="4.83618">
        <ele>271</ele>
        <time>2018-07-08T09:58:17Z</time>
      </trkpt>
      <trkpt lat="45.98318" lon="4.83611">
        <ele>271</ele>
        <time>2018-07-08T09:58:18Z</time>
      </trkpt>
      <trkpt lat="45.98321" lon="4.83606">
        <ele>271</ele>
        <time>2018-07-08T09:58:19Z</time>
      </trkpt>
      <trkpt lat="45.98323" lon="4.83601">
        <ele>271</ele>
        <time>2018-07-08T09:58:20Z</time>
      </trkpt>
      <trkpt lat="45.98327" lon="4.83596">
        <ele>271</ele>
        <time>2018-07-08T09:58:21Z</time>
      </trkpt>
      <trkpt lat="45.98331" lon="4.83591">
        <ele>270</ele>
        <time>2018-07-08T09:58:22Z</time>
      </trkpt>
      <trkpt lat="45.98335" lon="4.83585">
        <ele>270</ele>
        <time>2018-07-08T09:58:23Z</time>
      </trkpt>
      <trkpt lat="45.9834" lon="4.83579">
        <ele>270</ele>
        <time>2018-07-08T09:58:24Z</time>
      </trkpt>
      <trkpt lat="45.98344" lon="4.83573">
        <ele>270</ele>
        <time>2018-07-08T09:58:25Z</time>
      </trkpt>
      <trkpt lat="45.98349" lon="4.83568">
        <ele>269</ele>
        <time>2018-07-08T09:58:26Z</time>
      </trkpt>
      <trkpt lat="45.98354" lon="4.83562">
        <ele>269</ele>
        <time>2018-07-08T09:58:27Z</time>
      </trkpt>
      <trkpt lat="45.98358" lon="4.83557">
        <ele>269</ele>
        <time>2018-07-08T09:58:28Z</time>
      </trkpt>
      <trkpt lat="45.98363" lon="4.83551">
        <ele>269</ele>
        <time>2018-07-08T09:58:29Z</time>
      </trkpt>
      <trkpt lat="45.98369" lon="4.83542">
        <ele>269</ele>
        <time>2018-07-08T09:58:31Z</time>
      </trkpt>
      <trkpt lat="45.98373" lon="4.83536">
        <ele>269</ele>
        <time>2018-07-08T09:58:32Z</time>
      </trkpt>
      <trkpt lat="45.98377" lon="4.83532">
        <ele>269</ele>
        <time>2018-07-08T09:58:33Z</time>
      </trkpt>
      <trkpt lat="45.98381" lon="4.83526">
        <ele>269</ele>
        <time>2018-07-08T09:58:34Z</time>
      </trkpt>
      <trkpt lat="45.98386" lon="4.83519">
        <ele>269</ele>
        <time>2018-07-08T09:58:35Z</time>
      </trkpt>
      <trkpt lat="45.98391" lon="4.83511">
        <ele>269</ele>
        <time>2018-07-08T09:58:36Z</time>
      </trkpt>
      <trkpt lat="45.98395" lon="4.83506">
        <ele>269</ele>
        <time>2018-07-08T09:58:37Z</time>
      </trkpt>
      <trkpt lat="45.984" lon="4.835">
        <ele>269</ele>
        <time>2018-07-08T09:58:38Z</time>
      </trkpt>
      <trkpt lat="45.98405" lon="4.83495">
        <ele>269</ele>
        <time>2018-07-08T09:58:39Z</time>
      </trkpt>
      <trkpt lat="45.98407" lon="4.83488">
        <ele>269</ele>
        <time>2018-07-08T09:58:40Z</time>
      </trkpt>
      <trkpt lat="45.98412" lon="4.83483">
        <ele>269</ele>
        <time>2018-07-08T09:58:41Z</time>
      </trkpt>
      <trkpt lat="45.98417" lon="4.83478">
        <ele>268</ele>
        <time>2018-07-08T09:58:42Z</time>
      </trkpt>
      <trkpt lat="45.98421" lon="4.83472">
        <ele>268</ele>
        <time>2018-07-08T09:58:43Z</time>
      </trkpt>
      <trkpt lat="45.98426" lon="4.83466">
        <ele>268</ele>
        <time>2018-07-08T09:58:44Z</time>
      </trkpt>
      <trkpt lat="45.98431" lon="4.83461">
        <ele>268</ele>
        <time>2018-07-08T09:58:45Z</time>
      </trkpt>
      <trkpt lat="45.98435" lon="4.83456">
        <ele>268</ele>
        <time>2018-07-08T09:58:46Z</time>
      </trkpt>
      <trkpt lat="45.98439" lon="4.83449">
        <ele>268</ele>
        <time>2018-07-08T09:58:47Z</time>
      </trkpt>
      <trkpt lat="45.98443" lon="4.83444">
        <ele>268</ele>
        <time>2018-07-08T09:58:48Z</time>
      </trkpt>
      <trkpt lat="45.98447" lon="4.83439">
        <ele>268</ele>
        <time>2018-07-08T09:58:49Z</time>
      </trkpt>
      <trkpt lat="45.98451" lon="4.83434">
        <ele>268</ele>
        <time>2018-07-08T09:58:50Z</time>
      </trkpt>
      <trkpt lat="45.98453" lon="4.83427">
        <ele>269</ele>
        <time>2018-07-08T09:58:51Z</time>
      </trkpt>
      <trkpt lat="45.98457" lon="4.8342">
        <ele>269</ele>
        <time>2018-07-08T09:58:52Z</time>
      </trkpt>
      <trkpt lat="45.9846" lon="4.83415">
        <ele>269</ele>
        <time>2018-07-08T09:58:53Z</time>
      </trkpt>
      <trkpt lat="45.98464" lon="4.8341">
        <ele>269</ele>
        <time>2018-07-08T09:58:54Z</time>
      </trkpt>
      <trkpt lat="45.98468" lon="4.83404">
        <ele>269</ele>
        <time>2018-07-08T09:58:55Z</time>
      </trkpt>
      <trkpt lat="45.98472" lon="4.834">
        <ele>269</ele>
        <time>2018-07-08T09:58:56Z</time>
      </trkpt>
      <trkpt lat="45.98476" lon="4.83395">
        <ele>269</ele>
        <time>2018-07-08T09:58:57Z</time>
      </trkpt>
      <trkpt lat="45.9848" lon="4.8339">
        <ele>269</ele>
        <time>2018-07-08T09:58:58Z</time>
      </trkpt>
      <trkpt lat="45.98486" lon="4.8338">
        <ele>269</ele>
        <time>2018-07-08T09:59:00Z</time>
      </trkpt>
      <trkpt lat="45.9849" lon="4.83377">
        <ele>269</ele>
        <time>2018-07-08T09:59:01Z</time>
      </trkpt>
      <trkpt lat="45.98494" lon="4.83373">
        <ele>270</ele>
        <time>2018-07-08T09:59:02Z</time>
      </trkpt>
      <trkpt lat="45.98499" lon="4.83371">
        <ele>270</ele>
        <time>2018-07-08T09:59:03Z</time>
      </trkpt>
      <trkpt lat="45.98502" lon="4.83366">
        <ele>269</ele>
        <time>2018-07-08T09:59:04Z</time>
      </trkpt>
      <trkpt lat="45.98507" lon="4.8336">
        <ele>269</ele>
        <time>2018-07-08T09:59:05Z</time>
      </trkpt>
      <trkpt lat="45.98513" lon="4.83352">
        <ele>270</ele>
        <time>2018-07-08T09:59:07Z</time>
      </trkpt>
      <trkpt lat="45.98517" lon="4.83349">
        <ele>270</ele>
        <time>2018-07-08T09:59:08Z</time>
      </trkpt>
      <trkpt lat="45.98521" lon="4.83344">
        <ele>270</ele>
        <time>2018-07-08T09:59:09Z</time>
      </trkpt>
      <trkpt lat="45.98524" lon="4.8334">
        <ele>270</ele>
        <time>2018-07-08T09:59:10Z</time>
      </trkpt>
      <trkpt lat="45.98528" lon="4.83334">
        <ele>269</ele>
        <time>2018-07-08T09:59:11Z</time>
      </trkpt>
      <trkpt lat="45.98531" lon="4.83329">
        <ele>269</ele>
        <time>2018-07-08T09:59:12Z</time>
      </trkpt>
      <trkpt lat="45.9853" lon="4.83318">
        <ele>269</ele>
        <time>2018-07-08T09:59:13Z</time>
      </trkpt>
      <trkpt lat="45.98533" lon="4.8331">
        <ele>269</ele>
        <time>2018-07-08T09:59:14Z</time>
      </trkpt>
      <trkpt lat="45.98537" lon="4.83306">
        <ele>269</ele>
        <time>2018-07-08T09:59:15Z</time>
      </trkpt>
      <trkpt lat="45.98541" lon="4.833">
        <ele>269</ele>
        <time>2018-07-08T09:59:16Z</time>
      </trkpt>
      <trkpt lat="45.98547" lon="4.83292">
        <ele>269</ele>
        <time>2018-07-08T09:59:18Z</time>
      </trkpt>
      <trkpt lat="45.98551" lon="4.83287">
        <ele>269</ele>
        <time>2018-07-08T09:59:19Z</time>
      </trkpt>
      <trkpt lat="45.98555" lon="4.83284">
        <ele>269</ele>
        <time>2018-07-08T09:59:20Z</time>
      </trkpt>
      <trkpt lat="45.9856" lon="4.83279">
        <ele>269</ele>
        <time>2018-07-08T09:59:21Z</time>
      </trkpt>
      <trkpt lat="45.98563" lon="4.83274">
        <ele>269</ele>
        <time>2018-07-08T09:59:22Z</time>
      </trkpt>
      <trkpt lat="45.98568" lon="4.83267">
        <ele>269</ele>
        <time>2018-07-08T09:59:23Z</time>
      </trkpt>
      <trkpt lat="45.9857" lon="4.83261">
        <ele>269</ele>
        <time>2018-07-08T09:59:24Z</time>
      </trkpt>
      <trkpt lat="45.98574" lon="4.83257">
        <ele>268</ele>
        <time>2018-07-08T09:59:25Z</time>
      </trkpt>
      <trkpt lat="45.98579" lon="4.83251">
        <ele>268</ele>
        <time>2018-07-08T09:59:26Z</time>
      </trkpt>
      <trkpt lat="45.98582" lon="4.83247">
        <ele>268</ele>
        <time>2018-07-08T09:59:27Z</time>
      </trkpt>
      <trkpt lat="45.98586" lon="4.83242">
        <ele>268</ele>
        <time>2018-07-08T09:59:28Z</time>
      </trkpt>
      <trkpt lat="45.9859" lon="4.83237">
        <ele>268</ele>
        <time>2018-07-08T09:59:29Z</time>
      </trkpt>
      <trkpt lat="45.98594" lon="4.83232">
        <ele>268</ele>
        <time>2018-07-08T09:59:30Z</time>
      </trkpt>
      <trkpt lat="45.98599" lon="4.83227">
        <ele>268</ele>
        <time>2018-07-08T09:59:31Z</time>
      </trkpt>
      <trkpt lat="45.98601" lon="4.83219">
        <ele>267</ele>
        <time>2018-07-08T09:59:32Z</time>
      </trkpt>
      <trkpt lat="45.98606" lon="4.83213">
        <ele>267</ele>
        <time>2018-07-08T09:59:33Z</time>
      </trkpt>
      <trkpt lat="45.98611" lon="4.83209">
        <ele>267</ele>
        <time>2018-07-08T09:59:34Z</time>
      </trkpt>
      <trkpt lat="45.98615" lon="4.83204">
        <ele>267</ele>
        <time>2018-07-08T09:59:35Z</time>
      </trkpt>
      <trkpt lat="45.98621" lon="4.832">
        <ele>267</ele>
        <time>2018-07-08T09:59:36Z</time>
      </trkpt>
      <trkpt lat="45.98626" lon="4.83196">
        <ele>267</ele>
        <time>2018-07-08T09:59:37Z</time>
      </trkpt>
      <trkpt lat="45.9863" lon="4.8319">
        <ele>267</ele>
        <time>2018-07-08T09:59:38Z</time>
      </trkpt>
      <trkpt lat="45.98634" lon="4.83184">
        <ele>267</ele>
        <time>2018-07-08T09:59:39Z</time>
      </trkpt>
      <trkpt lat="45.98639" lon="4.83179">
        <ele>267</ele>
        <time>2018-07-08T09:59:40Z</time>
      </trkpt>
      <trkpt lat="45.98642" lon="4.83176">
        <ele>267</ele>
        <time>2018-07-08T09:59:41Z</time>
      </trkpt>
      <trkpt lat="45.98647" lon="4.83172">
        <ele>267</ele>
        <time>2018-07-08T09:59:42Z</time>
      </trkpt>
      <trkpt lat="45.98652" lon="4.83164">
        <ele>267</ele>
        <time>2018-07-08T09:59:43Z</time>
      </trkpt>
      <trkpt lat="45.98657" lon="4.83159">
        <ele>267</ele>
        <time>2018-07-08T09:59:44Z</time>
      </trkpt>
      <trkpt lat="45.98663" lon="4.83156">
        <ele>267</ele>
        <time>2018-07-08T09:59:45Z</time>
      </trkpt>
      <trkpt lat="45.9867" lon="4.83149">
        <ele>266</ele>
        <time>2018-07-08T09:59:46Z</time>
      </trkpt>
      <trkpt lat="45.98674" lon="4.83145">
        <ele>266</ele>
        <time>2018-07-08T09:59:47Z</time>
      </trkpt>
      <trkpt lat="45.98681" lon="4.83139">
        <ele>266</ele>
        <time>2018-07-08T09:59:48Z</time>
      </trkpt>
      <trkpt lat="45.98686" lon="4.83136">
        <ele>266</ele>
        <time>2018-07-08T09:59:49Z</time>
      </trkpt>
      <trkpt lat="45.98691" lon="4.83132">
        <ele>267</ele>
        <time>2018-07-08T09:59:50Z</time>
      </trkpt>
      <trkpt lat="45.98696" lon="4.83129">
        <ele>267</ele>
        <time>2018-07-08T09:59:51Z</time>
      </trkpt>
      <trkpt lat="45.98702" lon="4.83125">
        <ele>267</ele>
        <time>2018-07-08T09:59:52Z</time>
      </trkpt>
      <trkpt lat="45.98707" lon="4.83122">
        <ele>267</ele>
        <time>2018-07-08T09:59:53Z</time>
      </trkpt>
      <trkpt lat="45.98712" lon="4.83122">
        <ele>267</ele>
        <time>2018-07-08T09:59:54Z</time>
      </trkpt>
      <trkpt lat="45.98716" lon="4.83121">
        <ele>267</ele>
        <time>2018-07-08T09:59:55Z</time>
      </trkpt>
      <trkpt lat="45.98722" lon="4.83115">
        <ele>267</ele>
        <time>2018-07-08T09:59:56Z</time>
      </trkpt>
      <trkpt lat="45.98725" lon="4.83111">
        <ele>267</ele>
        <time>2018-07-08T09:59:57Z</time>
      </trkpt>
      <trkpt lat="45.9873" lon="4.83105">
        <ele>267</ele>
        <time>2018-07-08T09:59:58Z</time>
      </trkpt>
      <trkpt lat="45.98734" lon="4.831">
        <ele>267</ele>
        <time>2018-07-08T09:59:59Z</time>
      </trkpt>
      <trkpt lat="45.98739" lon="4.83095">
        <ele>267</ele>
        <time>2018-07-08T10:00:00Z</time>
      </trkpt>
      <trkpt lat="45.98743" lon="4.83093">
        <ele>267</ele>
        <time>2018-07-08T10:00:01Z</time>
      </trkpt>
      <trkpt lat="45.98749" lon="4.8309">
        <ele>267</ele>
        <time>2018-07-08T10:00:02Z</time>
      </trkpt>
      <trkpt lat="45.98754" lon="4.83086">
        <ele>266</ele>
        <time>2018-07-08T10:00:03Z</time>
      </trkpt>
      <trkpt lat="45.98759" lon="4.83082">
        <ele>266</ele>
        <time>2018-07-08T10:00:04Z</time>
      </trkpt>
      <trkpt lat="45.98765" lon="4.83077">
        <ele>266</ele>
        <time>2018-07-08T10:00:05Z</time>
      </trkpt>
      <trkpt lat="45.98769" lon="4.83072">
        <ele>266</ele>
        <time>2018-07-08T10:00:06Z</time>
      </trkpt>
      <trkpt lat="45.98774" lon="4.83064">
        <ele>265</ele>
        <time>2018-07-08T10:00:07Z</time>
      </trkpt>
      <trkpt lat="45.98778" lon="4.8306">
        <ele>265</ele>
        <time>2018-07-08T10:00:08Z</time>
      </trkpt>
      <trkpt lat="45.98783" lon="4.83056">
        <ele>265</ele>
        <time>2018-07-08T10:00:09Z</time>
      </trkpt>
      <trkpt lat="45.98788" lon="4.83053">
        <ele>265</ele>
        <time>2018-07-08T10:00:10Z</time>
      </trkpt>
      <trkpt lat="45.98794" lon="4.83049">
        <ele>265</ele>
        <time>2018-07-08T10:00:11Z</time>
      </trkpt>
      <trkpt lat="45.98798" lon="4.83044">
        <ele>265</ele>
        <time>2018-07-08T10:00:12Z</time>
      </trkpt>
      <trkpt lat="45.98804" lon="4.8304">
        <ele>264</ele>
        <time>2018-07-08T10:00:13Z</time>
      </trkpt>
      <trkpt lat="45.98808" lon="4.83037">
        <ele>264</ele>
        <time>2018-07-08T10:00:14Z</time>
      </trkpt>
      <trkpt lat="45.98814" lon="4.83033">
        <ele>264</ele>
        <time>2018-07-08T10:00:15Z</time>
      </trkpt>
      <trkpt lat="45.9882" lon="4.83029">
        <ele>264</ele>
        <time>2018-07-08T10:00:16Z</time>
      </trkpt>
      <trkpt lat="45.98825" lon="4.83024">
        <ele>264</ele>
        <time>2018-07-08T10:00:17Z</time>
      </trkpt>
      <trkpt lat="45.98831" lon="4.83022">
        <ele>264</ele>
        <time>2018-07-08T10:00:18Z</time>
      </trkpt>
      <trkpt lat="45.98838" lon="4.83016">
        <ele>261</ele>
        <time>2018-07-08T10:00:19Z</time>
      </trkpt>
      <trkpt lat="45.98842" lon="4.8301">
        <ele>262</ele>
        <time>2018-07-08T10:00:20Z</time>
      </trkpt>
      <trkpt lat="45.98848" lon="4.83005">
        <ele>261</ele>
        <time>2018-07-08T10:00:21Z</time>
      </trkpt>
      <trkpt lat="45.98854" lon="4.83">
        <ele>261</ele>
        <time>2018-07-08T10:00:22Z</time>
      </trkpt>
      <trkpt lat="45.98861" lon="4.82994">
        <ele>261</ele>
        <time>2018-07-08T10:00:23Z</time>
      </trkpt>
      <trkpt lat="45.98867" lon="4.82989">
        <ele>260</ele>
        <time>2018-07-08T10:00:24Z</time>
      </trkpt>
      <trkpt lat="45.98872" lon="4.82983">
        <ele>260</ele>
        <time>2018-07-08T10:00:25Z</time>
      </trkpt>
      <trkpt lat="45.98879" lon="4.82979">
        <ele>260</ele>
        <time>2018-07-08T10:00:26Z</time>
      </trkpt>
      <trkpt lat="45.98886" lon="4.82976">
        <ele>259</ele>
        <time>2018-07-08T10:00:27Z</time>
      </trkpt>
      <trkpt lat="45.98895" lon="4.8297">
        <ele>259</ele>
        <time>2018-07-08T10:00:28Z</time>
      </trkpt>
      <trkpt lat="45.98901" lon="4.82964">
        <ele>259</ele>
        <time>2018-07-08T10:00:29Z</time>
      </trkpt>
      <trkpt lat="45.98909" lon="4.82955">
        <ele>258</ele>
        <time>2018-07-08T10:00:30Z</time>
      </trkpt>
      <trkpt lat="45.98917" lon="4.82943">
        <ele>255</ele>
        <time>2018-07-08T10:00:31Z</time>
      </trkpt>
      <trkpt lat="45.98923" lon="4.82931">
        <ele>255</ele>
        <time>2018-07-08T10:00:32Z</time>
      </trkpt>
      <trkpt lat="45.98927" lon="4.82919">
        <ele>255</ele>
        <time>2018-07-08T10:00:33Z</time>
      </trkpt>
      <trkpt lat="45.98934" lon="4.82907">
        <ele>254</ele>
        <time>2018-07-08T10:00:34Z</time>
      </trkpt>
      <trkpt lat="45.98939" lon="4.82894">
        <ele>253</ele>
        <time>2018-07-08T10:00:35Z</time>
      </trkpt>
      <trkpt lat="45.98945" lon="4.8288">
        <ele>253</ele>
        <time>2018-07-08T10:00:36Z</time>
      </trkpt>
      <trkpt lat="45.98951" lon="4.82862">
        <ele>252</ele>
        <time>2018-07-08T10:00:37Z</time>
      </trkpt>
      <trkpt lat="45.9896" lon="4.82847">
        <ele>252</ele>
        <time>2018-07-08T10:00:38Z</time>
      </trkpt>
      <trkpt lat="45.98967" lon="4.82832">
        <ele>249</ele>
        <time>2018-07-08T10:00:39Z</time>
      </trkpt>
      <trkpt lat="45.98974" lon="4.82817">
        <ele>249</ele>
        <time>2018-07-08T10:00:40Z</time>
      </trkpt>
      <trkpt lat="45.9898" lon="4.82801">
        <ele>248</ele>
        <time>2018-07-08T10:00:41Z</time>
      </trkpt>
      <trkpt lat="45.98988" lon="4.82785">
        <ele>247</ele>
        <time>2018-07-08T10:00:42Z</time>
      </trkpt>
      <trkpt lat="45.98995" lon="4.82769">
        <ele>245</ele>
        <time>2018-07-08T10:00:43Z</time>
      </trkpt>
      <trkpt lat="45.99" lon="4.82752">
        <ele>242</ele>
        <time>2018-07-08T10:00:44Z</time>
      </trkpt>
      <trkpt lat="45.99007" lon="4.82737">
        <ele>240</ele>
        <time>2018-07-08T10:00:45Z</time>
      </trkpt>
      <trkpt lat="45.99013" lon="4.8272">
        <ele>239</ele>
        <time>2018-07-08T10:00:46Z</time>
      </trkpt>
      <trkpt lat="45.99021" lon="4.82705">
        <ele>238</ele>
        <time>2018-07-08T10:00:47Z</time>
      </trkpt>
      <trkpt lat="45.99027" lon="4.82691">
        <ele>238</ele>
        <time>2018-07-08T10:00:48Z</time>
      </trkpt>
      <trkpt lat="45.99033" lon="4.82679">
        <ele>238</ele>
        <time>2018-07-08T10:00:49Z</time>
      </trkpt>
      <trkpt lat="45.99039" lon="4.82665">
        <ele>236</ele>
        <time>2018-07-08T10:00:50Z</time>
      </trkpt>
      <trkpt lat="45.99044" lon="4.82653">
        <ele>236</ele>
        <time>2018-07-08T10:00:51Z</time>
      </trkpt>
      <trkpt lat="45.99049" lon="4.82641">
        <ele>236</ele>
        <time>2018-07-08T10:00:52Z</time>
      </trkpt>
      <trkpt lat="45.99055" lon="4.8263">
        <ele>236</ele>
        <time>2018-07-08T10:00:53Z</time>
      </trkpt>
      <trkpt lat="45.99059" lon="4.82619">
        <ele>236</ele>
        <time>2018-07-08T10:00:54Z</time>
      </trkpt>
      <trkpt lat="45.99064" lon="4.8261">
        <ele>236</ele>
        <time>2018-07-08T10:00:55Z</time>
      </trkpt>
      <trkpt lat="45.99068" lon="4.82602">
        <ele>236</ele>
        <time>2018-07-08T10:00:56Z</time>
      </trkpt>
      <trkpt lat="45.99071" lon="4.82595">
        <ele>235</ele>
        <time>2018-07-08T10:00:57Z</time>
      </trkpt>
      <trkpt lat="45.99075" lon="4.82585">
        <ele>235</ele>
        <time>2018-07-08T10:00:59Z</time>
      </trkpt>
      <trkpt lat="45.99075" lon="4.8258">
        <ele>235</ele>
        <time>2018-07-08T10:01:00Z</time>
      </trkpt>
      <trkpt lat="45.99072" lon="4.82576">
        <ele>235</ele>
        <time>2018-07-08T10:01:01Z</time>
      </trkpt>
      <trkpt lat="45.99068" lon="4.82571">
        <ele>235</ele>
        <time>2018-07-08T10:01:02Z</time>
      </trkpt>
      <trkpt lat="45.99062" lon="4.82566">
        <ele>235</ele>
        <time>2018-07-08T10:01:04Z</time>
      </trkpt>
      <trkpt lat="45.99057" lon="4.82563">
        <ele>235</ele>
        <time>2018-07-08T10:01:05Z</time>
      </trkpt>
      <trkpt lat="45.99049" lon="4.82559">
        <ele>235</ele>
        <time>2018-07-08T10:01:07Z</time>
      </trkpt>
      <trkpt lat="45.99044" lon="4.82557">
        <ele>235</ele>
        <time>2018-07-08T10:01:08Z</time>
      </trkpt>
      <trkpt lat="45.99037" lon="4.82552">
        <ele>235</ele>
        <time>2018-07-08T10:01:10Z</time>
      </trkpt>
      <trkpt lat="45.9903" lon="4.82549">
        <ele>235</ele>
        <time>2018-07-08T10:01:11Z</time>
      </trkpt>
      <trkpt lat="45.99025" lon="4.82547">
        <ele>235</ele>
        <time>2018-07-08T10:01:12Z</time>
      </trkpt>
      <trkpt lat="45.99021" lon="4.82542">
        <ele>235</ele>
        <time>2018-07-08T10:01:13Z</time>
      </trkpt>
      <trkpt lat="45.99018" lon="4.82536">
        <ele>235</ele>
        <time>2018-07-08T10:01:14Z</time>
      </trkpt>
      <trkpt lat="45.99013" lon="4.82531">
        <ele>235</ele>
        <time>2018-07-08T10:01:15Z</time>
      </trkpt>
      <trkpt lat="45.9901" lon="4.82526">
        <ele>235</ele>
        <time>2018-07-08T10:01:16Z</time>
      </trkpt>
      <trkpt lat="45.99005" lon="4.82521">
        <ele>235</ele>
        <time>2018-07-08T10:01:17Z</time>
      </trkpt>
      <trkpt lat="45.99004" lon="4.82515">
        <ele>235</ele>
        <time>2018-07-08T10:01:18Z</time>
      </trkpt>
      <trkpt lat="45.98999" lon="4.82507">
        <ele>236</ele>
        <time>2018-07-08T10:01:19Z</time>
      </trkpt>
      <trkpt lat="45.98997" lon="4.82501">
        <ele>235</ele>
        <time>2018-07-08T10:01:20Z</time>
      </trkpt>
      <trkpt lat="45.98993" lon="4.82494">
        <ele>236</ele>
        <time>2018-07-08T10:01:21Z</time>
      </trkpt>
      <trkpt lat="45.98991" lon="4.82487">
        <ele>236</ele>
        <time>2018-07-08T10:01:22Z</time>
      </trkpt>
      <trkpt lat="45.98989" lon="4.82481">
        <ele>236</ele>
        <time>2018-07-08T10:01:23Z</time>
      </trkpt>
      <trkpt lat="45.98989" lon="4.82471">
        <ele>236</ele>
        <time>2018-07-08T10:01:24Z</time>
      </trkpt>
      <trkpt lat="45.98986" lon="4.82465">
        <ele>236</ele>
        <time>2018-07-08T10:01:25Z</time>
      </trkpt>
      <trkpt lat="45.98985" lon="4.82457">
        <ele>236</ele>
        <time>2018-07-08T10:01:26Z</time>
      </trkpt>
      <trkpt lat="45.98983" lon="4.82452">
        <ele>236</ele>
        <time>2018-07-08T10:01:27Z</time>
      </trkpt>
      <trkpt lat="45.98981" lon="4.82444">
        <ele>236</ele>
        <time>2018-07-08T10:01:28Z</time>
      </trkpt>
      <trkpt lat="45.98979" lon="4.82437">
        <ele>236</ele>
        <time>2018-07-08T10:01:29Z</time>
      </trkpt>
      <trkpt lat="45.98979" lon="4.82431">
        <ele>236</ele>
        <time>2018-07-08T10:01:30Z</time>
      </trkpt>
      <trkpt lat="45.98976" lon="4.82423">
        <ele>236</ele>
        <time>2018-07-08T10:01:31Z</time>
      </trkpt>
      <trkpt lat="45.98976" lon="4.82416">
        <ele>235</ele>
        <time>2018-07-08T10:01:32Z</time>
      </trkpt>
      <trkpt lat="45.98974" lon="4.82408">
        <ele>235</ele>
        <time>2018-07-08T10:01:33Z</time>
      </trkpt>
      <trkpt lat="45.98972" lon="4.824">
        <ele>235</ele>
        <time>2018-07-08T10:01:34Z</time>
      </trkpt>
      <trkpt lat="45.98971" lon="4.82392">
        <ele>235</ele>
        <time>2018-07-08T10:01:35Z</time>
      </trkpt>
      <trkpt lat="45.98967" lon="4.82385">
        <ele>235</ele>
        <time>2018-07-08T10:01:36Z</time>
      </trkpt>
      <trkpt lat="45.98965" lon="4.82377">
        <ele>235</ele>
        <time>2018-07-08T10:01:37Z</time>
      </trkpt>
      <trkpt lat="45.98963" lon="4.8237">
        <ele>235</ele>
        <time>2018-07-08T10:01:38Z</time>
      </trkpt>
      <trkpt lat="45.98961" lon="4.82363">
        <ele>235</ele>
        <time>2018-07-08T10:01:39Z</time>
      </trkpt>
      <trkpt lat="45.98959" lon="4.82358">
        <ele>235</ele>
        <time>2018-07-08T10:01:40Z</time>
      </trkpt>
      <trkpt lat="45.98955" lon="4.82348">
        <ele>235</ele>
        <time>2018-07-08T10:01:41Z</time>
      </trkpt>
      <trkpt lat="45.98952" lon="4.82341">
        <ele>235</ele>
        <time>2018-07-08T10:01:42Z</time>
      </trkpt>
      <trkpt lat="45.98948" lon="4.82334">
        <ele>235</ele>
        <time>2018-07-08T10:01:43Z</time>
      </trkpt>
      <trkpt lat="45.98944" lon="4.82327">
        <ele>234</ele>
        <time>2018-07-08T10:01:44Z</time>
      </trkpt>
      <trkpt lat="45.9894" lon="4.8232">
        <ele>234</ele>
        <time>2018-07-08T10:01:45Z</time>
      </trkpt>
      <trkpt lat="45.98935" lon="4.82316">
        <ele>235</ele>
        <time>2018-07-08T10:01:46Z</time>
      </trkpt>
      <trkpt lat="45.98928" lon="4.82311">
        <ele>235</ele>
        <time>2018-07-08T10:01:47Z</time>
      </trkpt>
      <trkpt lat="45.98923" lon="4.82305">
        <ele>234</ele>
        <time>2018-07-08T10:01:48Z</time>
      </trkpt>
      <trkpt lat="45.98919" lon="4.82299">
        <ele>234</ele>
        <time>2018-07-08T10:01:49Z</time>
      </trkpt>
      <trkpt lat="45.98915" lon="4.82295">
        <ele>236</ele>
        <time>2018-07-08T10:01:50Z</time>
      </trkpt>
      <trkpt lat="45.98911" lon="4.82291">
        <ele>236</ele>
        <time>2018-07-08T10:01:51Z</time>
      </trkpt>
      <trkpt lat="45.98907" lon="4.82286">
        <ele>236</ele>
        <time>2018-07-08T10:01:52Z</time>
      </trkpt>
      <trkpt lat="45.98901" lon="4.82281">
        <ele>236</ele>
        <time>2018-07-08T10:01:53Z</time>
      </trkpt>
      <trkpt lat="45.98898" lon="4.82276">
        <ele>236</ele>
        <time>2018-07-08T10:01:54Z</time>
      </trkpt>
      <trkpt lat="45.98894" lon="4.82271">
        <ele>236</ele>
        <time>2018-07-08T10:01:55Z</time>
      </trkpt>
      <trkpt lat="45.98889" lon="4.82263">
        <ele>236</ele>
        <time>2018-07-08T10:01:56Z</time>
      </trkpt>
      <trkpt lat="45.98887" lon="4.82256">
        <ele>236</ele>
        <time>2018-07-08T10:01:57Z</time>
      </trkpt>
      <trkpt lat="45.98884" lon="4.82249">
        <ele>236</ele>
        <time>2018-07-08T10:01:58Z</time>
      </trkpt>
      <trkpt lat="45.9888" lon="4.82243">
        <ele>236</ele>
        <time>2018-07-08T10:01:59Z</time>
      </trkpt>
      <trkpt lat="45.98877" lon="4.82237">
        <ele>236</ele>
        <time>2018-07-08T10:02:00Z</time>
      </trkpt>
      <trkpt lat="45.98873" lon="4.8223">
        <ele>236</ele>
        <time>2018-07-08T10:02:01Z</time>
      </trkpt>
      <trkpt lat="45.9887" lon="4.82224">
        <ele>236</ele>
        <time>2018-07-08T10:02:02Z</time>
      </trkpt>
      <trkpt lat="45.98868" lon="4.82218">
        <ele>236</ele>
        <time>2018-07-08T10:02:03Z</time>
      </trkpt>
      <trkpt lat="45.98865" lon="4.82211">
        <ele>236</ele>
        <time>2018-07-08T10:02:04Z</time>
      </trkpt>
      <trkpt lat="45.98863" lon="4.82205">
        <ele>236</ele>
        <time>2018-07-08T10:02:05Z</time>
      </trkpt>
      <trkpt lat="45.98859" lon="4.82197">
        <ele>236</ele>
        <time>2018-07-08T10:02:06Z</time>
      </trkpt>
      <trkpt lat="45.98855" lon="4.82191">
        <ele>236</ele>
        <time>2018-07-08T10:02:07Z</time>
      </trkpt>
      <trkpt lat="45.98852" lon="4.82184">
        <ele>236</ele>
        <time>2018-07-08T10:02:08Z</time>
      </trkpt>
      <trkpt lat="45.98849" lon="4.82178">
        <ele>236</ele>
        <time>2018-07-08T10:02:09Z</time>
      </trkpt>
      <trkpt lat="45.98848" lon="4.82172">
        <ele>236</ele>
        <time>2018-07-08T10:02:10Z</time>
      </trkpt>
      <trkpt lat="45.98843" lon="4.82164">
        <ele>236</ele>
        <time>2018-07-08T10:02:11Z</time>
      </trkpt>
      <trkpt lat="45.9884" lon="4.82158">
        <ele>236</ele>
        <time>2018-07-08T10:02:12Z</time>
      </trkpt>
      <trkpt lat="45.98838" lon="4.82153">
        <ele>236</ele>
        <time>2018-07-08T10:02:13Z</time>
      </trkpt>
      <trkpt lat="45.98836" lon="4.82147">
        <ele>236</ele>
        <time>2018-07-08T10:02:14Z</time>
      </trkpt>
      <trkpt lat="45.98837" lon="4.82138">
        <ele>236</ele>
        <time>2018-07-08T10:02:15Z</time>
      </trkpt>
      <trkpt lat="45.98834" lon="4.82129">
        <ele>236</ele>
        <time>2018-07-08T10:02:16Z</time>
      </trkpt>
      <trkpt lat="45.98833" lon="4.8212">
        <ele>237</ele>
        <time>2018-07-08T10:02:17Z</time>
      </trkpt>
      <trkpt lat="45.98832" lon="4.82108">
        <ele>237</ele>
        <time>2018-07-08T10:02:19Z</time>
      </trkpt>
      <trkpt lat="45.98832" lon="4.82101">
        <ele>237</ele>
        <time>2018-07-08T10:02:20Z</time>
      </trkpt>
      <trkpt lat="45.98831" lon="4.82094">
        <ele>237</ele>
        <time>2018-07-08T10:02:21Z</time>
      </trkpt>
      <trkpt lat="45.9883" lon="4.82088">
        <ele>236</ele>
        <time>2018-07-08T10:02:22Z</time>
      </trkpt>
      <trkpt lat="45.98829" lon="4.82081">
        <ele>236</ele>
        <time>2018-07-08T10:02:23Z</time>
      </trkpt>
      <trkpt lat="45.98826" lon="4.82072">
        <ele>237</ele>
        <time>2018-07-08T10:02:24Z</time>
      </trkpt>
      <trkpt lat="45.98824" lon="4.82064">
        <ele>237</ele>
        <time>2018-07-08T10:02:25Z</time>
      </trkpt>
      <trkpt lat="45.98822" lon="4.82055">
        <ele>237</ele>
        <time>2018-07-08T10:02:26Z</time>
      </trkpt>
      <trkpt lat="45.98821" lon="4.82047">
        <ele>238</ele>
        <time>2018-07-08T10:02:27Z</time>
      </trkpt>
      <trkpt lat="45.9882" lon="4.8204">
        <ele>238</ele>
        <time>2018-07-08T10:02:28Z</time>
      </trkpt>
      <trkpt lat="45.98819" lon="4.8203">
        <ele>238</ele>
        <time>2018-07-08T10:02:29Z</time>
      </trkpt>
      <trkpt lat="45.98818" lon="4.82023">
        <ele>238</ele>
        <time>2018-07-08T10:02:30Z</time>
      </trkpt>
      <trkpt lat="45.98816" lon="4.82016">
        <ele>238</ele>
        <time>2018-07-08T10:02:31Z</time>
      </trkpt>
      <trkpt lat="45.98817" lon="4.8201">
        <ele>238</ele>
        <time>2018-07-08T10:02:32Z</time>
      </trkpt>
      <trkpt lat="45.98816" lon="4.82003">
        <ele>238</ele>
        <time>2018-07-08T10:02:33Z</time>
      </trkpt>
      <trkpt lat="45.98814" lon="4.81995">
        <ele>238</ele>
        <time>2018-07-08T10:02:34Z</time>
      </trkpt>
      <trkpt lat="45.98814" lon="4.81984">
        <ele>239</ele>
        <time>2018-07-08T10:02:36Z</time>
      </trkpt>
      <trkpt lat="45.98813" lon="4.81977">
        <ele>239</ele>
        <time>2018-07-08T10:02:37Z</time>
      </trkpt>
      <trkpt lat="45.98814" lon="4.8197">
        <ele>239</ele>
        <time>2018-07-08T10:02:38Z</time>
      </trkpt>
      <trkpt lat="45.98813" lon="4.81961">
        <ele>239</ele>
        <time>2018-07-08T10:02:39Z</time>
      </trkpt>
      <trkpt lat="45.9881" lon="4.81953">
        <ele>239</ele>
        <time>2018-07-08T10:02:40Z</time>
      </trkpt>
      <trkpt lat="45.98809" lon="4.81944">
        <ele>239</ele>
        <time>2018-07-08T10:02:41Z</time>
      </trkpt>
      <trkpt lat="45.98808" lon="4.81937">
        <ele>239</ele>
        <time>2018-07-08T10:02:42Z</time>
      </trkpt>
      <trkpt lat="45.98807" lon="4.81929">
        <ele>239</ele>
        <time>2018-07-08T10:02:43Z</time>
      </trkpt>
      <trkpt lat="45.98808" lon="4.81922">
        <ele>239</ele>
        <time>2018-07-08T10:02:44Z</time>
      </trkpt>
      <trkpt lat="45.98808" lon="4.81915">
        <ele>239</ele>
        <time>2018-07-08T10:02:45Z</time>
      </trkpt>
      <trkpt lat="45.98806" lon="4.81908">
        <ele>239</ele>
        <time>2018-07-08T10:02:46Z</time>
      </trkpt>
      <trkpt lat="45.98805" lon="4.81902">
        <ele>239</ele>
        <time>2018-07-08T10:02:47Z</time>
      </trkpt>
      <trkpt lat="45.98801" lon="4.81895">
        <ele>239</ele>
        <time>2018-07-08T10:02:48Z</time>
      </trkpt>
      <trkpt lat="45.98799" lon="4.81887">
        <ele>239</ele>
        <time>2018-07-08T10:02:49Z</time>
      </trkpt>
      <trkpt lat="45.98799" lon="4.8188">
        <ele>239</ele>
        <time>2018-07-08T10:02:50Z</time>
      </trkpt>
      <trkpt lat="45.98797" lon="4.81873">
        <ele>239</ele>
        <time>2018-07-08T10:02:51Z</time>
      </trkpt>
      <trkpt lat="45.98793" lon="4.81861">
        <ele>239</ele>
        <time>2018-07-08T10:02:53Z</time>
      </trkpt>
      <trkpt lat="45.98791" lon="4.81857">
        <ele>239</ele>
        <time>2018-07-08T10:02:54Z</time>
      </trkpt>
      <trkpt lat="45.98788" lon="4.81847">
        <ele>239</ele>
        <time>2018-07-08T10:02:56Z</time>
      </trkpt>
      <trkpt lat="45.98784" lon="4.81841">
        <ele>239</ele>
        <time>2018-07-08T10:02:57Z</time>
      </trkpt>
      <trkpt lat="45.98783" lon="4.81838">
        <ele>239</ele>
        <time>2018-07-08T10:02:58Z</time>
      </trkpt>
      <trkpt lat="45.98781" lon="4.81829">
        <ele>240</ele>
        <time>2018-07-08T10:02:59Z</time>
      </trkpt>
      <trkpt lat="45.98776" lon="4.81819">
        <ele>240</ele>
        <time>2018-07-08T10:03:01Z</time>
      </trkpt>
      <trkpt lat="45.98772" lon="4.81815">
        <ele>240</ele>
        <time>2018-07-08T10:03:02Z</time>
      </trkpt>
      <trkpt lat="45.98767" lon="4.81806">
        <ele>240</ele>
        <time>2018-07-08T10:03:04Z</time>
      </trkpt>
      <trkpt lat="45.98767" lon="4.81801">
        <ele>240</ele>
        <time>2018-07-08T10:03:05Z</time>
      </trkpt>
      <trkpt lat="45.98762" lon="4.81795">
        <ele>240</ele>
        <time>2018-07-08T10:03:06Z</time>
      </trkpt>
      <trkpt lat="45.98761" lon="4.8179">
        <ele>241</ele>
        <time>2018-07-08T10:03:07Z</time>
      </trkpt>
      <trkpt lat="45.98757" lon="4.81782">
        <ele>241</ele>
        <time>2018-07-08T10:03:09Z</time>
      </trkpt>
      <trkpt lat="45.98753" lon="4.81776">
        <ele>241</ele>
        <time>2018-07-08T10:03:10Z</time>
      </trkpt>
      <trkpt lat="45.98748" lon="4.81768">
        <ele>240</ele>
        <time>2018-07-08T10:03:12Z</time>
      </trkpt>
      <trkpt lat="45.98747" lon="4.81766">
        <ele>240</ele>
        <time>2018-07-08T10:03:13Z</time>
      </trkpt>
      <trkpt lat="45.98743" lon="4.81757">
        <ele>240</ele>
        <time>2018-07-08T10:03:14Z</time>
      </trkpt>
      <trkpt lat="45.98741" lon="4.81753">
        <ele>240</ele>
        <time>2018-07-08T10:03:15Z</time>
      </trkpt>
      <trkpt lat="45.98739" lon="4.81746">
        <ele>240</ele>
        <time>2018-07-08T10:03:16Z</time>
      </trkpt>
      <trkpt lat="45.98735" lon="4.81741">
        <ele>240</ele>
        <time>2018-07-08T10:03:17Z</time>
      </trkpt>
      <trkpt lat="45.98731" lon="4.8173">
        <ele>239</ele>
        <time>2018-07-08T10:03:19Z</time>
      </trkpt>
      <trkpt lat="45.98724" lon="4.81726">
        <ele>239</ele>
        <time>2018-07-08T10:03:20Z</time>
      </trkpt>
      <trkpt lat="45.98719" lon="4.81724">
        <ele>239</ele>
        <time>2018-07-08T10:03:21Z</time>
      </trkpt>
      <trkpt lat="45.98715" lon="4.81724">
        <ele>239</ele>
        <time>2018-07-08T10:03:22Z</time>
      </trkpt>
      <trkpt lat="45.98708" lon="4.81723">
        <ele>239</ele>
        <time>2018-07-08T10:03:23Z</time>
      </trkpt>
      <trkpt lat="45.98704" lon="4.81724">
        <ele>239</ele>
        <time>2018-07-08T10:03:24Z</time>
      </trkpt>
      <trkpt lat="45.98699" lon="4.81726">
        <ele>239</ele>
        <time>2018-07-08T10:03:26Z</time>
      </trkpt>
      <trkpt lat="45.98694" lon="4.81727">
        <ele>238</ele>
        <time>2018-07-08T10:03:27Z</time>
      </trkpt>
      <trkpt lat="45.98688" lon="4.8173">
        <ele>238</ele>
        <time>2018-07-08T10:03:28Z</time>
      </trkpt>
      <trkpt lat="45.98682" lon="4.81731">
        <ele>238</ele>
        <time>2018-07-08T10:03:29Z</time>
      </trkpt>
      <trkpt lat="45.98675" lon="4.81731">
        <ele>238</ele>
        <time>2018-07-08T10:03:30Z</time>
      </trkpt>
      <trkpt lat="45.98669" lon="4.81733">
        <ele>238</ele>
        <time>2018-07-08T10:03:31Z</time>
      </trkpt>
      <trkpt lat="45.98664" lon="4.81734">
        <ele>237</ele>
        <time>2018-07-08T10:03:32Z</time>
      </trkpt>
      <trkpt lat="45.98658" lon="4.81736">
        <ele>237</ele>
        <time>2018-07-08T10:03:33Z</time>
      </trkpt>
      <trkpt lat="45.98654" lon="4.81739">
        <ele>237</ele>
        <time>2018-07-08T10:03:34Z</time>
      </trkpt>
      <trkpt lat="45.98648" lon="4.81739">
        <ele>237</ele>
        <time>2018-07-08T10:03:35Z</time>
      </trkpt>
      <trkpt lat="45.98644" lon="4.81741">
        <ele>237</ele>
        <time>2018-07-08T10:03:36Z</time>
      </trkpt>
      <trkpt lat="45.98638" lon="4.81744">
        <ele>237</ele>
        <time>2018-07-08T10:03:37Z</time>
      </trkpt>
      <trkpt lat="45.9863" lon="4.81746">
        <ele>237</ele>
        <time>2018-07-08T10:03:39Z</time>
      </trkpt>
      <trkpt lat="45.98624" lon="4.81749">
        <ele>237</ele>
        <time>2018-07-08T10:03:40Z</time>
      </trkpt>
      <trkpt lat="45.9862" lon="4.81751">
        <ele>238</ele>
        <time>2018-07-08T10:03:41Z</time>
      </trkpt>
      <trkpt lat="45.98615" lon="4.81752">
        <ele>238</ele>
        <time>2018-07-08T10:03:42Z</time>
      </trkpt>
      <trkpt lat="45.9861" lon="4.81753">
        <ele>238</ele>
        <time>2018-07-08T10:03:43Z</time>
      </trkpt>
      <trkpt lat="45.98604" lon="4.81757">
        <ele>238</ele>
        <time>2018-07-08T10:03:44Z</time>
      </trkpt>
      <trkpt lat="45.98601" lon="4.81759">
        <ele>238</ele>
        <time>2018-07-08T10:03:45Z</time>
      </trkpt>
      <trkpt lat="45.98595" lon="4.81763">
        <ele>238</ele>
        <time>2018-07-08T10:03:46Z</time>
      </trkpt>
      <trkpt lat="45.98589" lon="4.81765">
        <ele>237</ele>
        <time>2018-07-08T10:03:47Z</time>
      </trkpt>
      <trkpt lat="45.98585" lon="4.81769">
        <ele>238</ele>
        <time>2018-07-08T10:03:48Z</time>
      </trkpt>
      <trkpt lat="45.98581" lon="4.81773">
        <ele>237</ele>
        <time>2018-07-08T10:03:49Z</time>
      </trkpt>
      <trkpt lat="45.98575" lon="4.81777">
        <ele>238</ele>
        <time>2018-07-08T10:03:50Z</time>
      </trkpt>
      <trkpt lat="45.9857" lon="4.81781">
        <ele>238</ele>
        <time>2018-07-08T10:03:51Z</time>
      </trkpt>
      <trkpt lat="45.98566" lon="4.81787">
        <ele>238</ele>
        <time>2018-07-08T10:03:52Z</time>
      </trkpt>
      <trkpt lat="45.98563" lon="4.81792">
        <ele>238</ele>
        <time>2018-07-08T10:03:53Z</time>
      </trkpt>
      <trkpt lat="45.98558" lon="4.81796">
        <ele>238</ele>
        <time>2018-07-08T10:03:54Z</time>
      </trkpt>
      <trkpt lat="45.98552" lon="4.81801">
        <ele>238</ele>
        <time>2018-07-08T10:03:55Z</time>
      </trkpt>
      <trkpt lat="45.98548" lon="4.81803">
        <ele>238</ele>
        <time>2018-07-08T10:03:56Z</time>
      </trkpt>
      <trkpt lat="45.98542" lon="4.81805">
        <ele>238</ele>
        <time>2018-07-08T10:03:57Z</time>
      </trkpt>
      <trkpt lat="45.98538" lon="4.81802">
        <ele>238</ele>
        <time>2018-07-08T10:03:58Z</time>
      </trkpt>
      <trkpt lat="45.98534" lon="4.818">
        <ele>238</ele>
        <time>2018-07-08T10:03:59Z</time>
      </trkpt>
      <trkpt lat="45.9853" lon="4.81795">
        <ele>238</ele>
        <time>2018-07-08T10:04:00Z</time>
      </trkpt>
      <trkpt lat="45.98524" lon="4.81785">
        <ele>238</ele>
        <time>2018-07-08T10:04:02Z</time>
      </trkpt>
      <trkpt lat="45.9852" lon="4.8178">
        <ele>238</ele>
        <time>2018-07-08T10:04:03Z</time>
      </trkpt>
      <trkpt lat="45.98518" lon="4.81775">
        <ele>238</ele>
        <time>2018-07-08T10:04:04Z</time>
      </trkpt>
      <trkpt lat="45.98514" lon="4.8177">
        <ele>238</ele>
        <time>2018-07-08T10:04:05Z</time>
      </trkpt>
      <trkpt lat="45.9851" lon="4.81765">
        <ele>237</ele>
        <time>2018-07-08T10:04:06Z</time>
      </trkpt>
      <trkpt lat="45.98506" lon="4.81759">
        <ele>237</ele>
        <time>2018-07-08T10:04:07Z</time>
      </trkpt>
      <trkpt lat="45.985" lon="4.81752">
        <ele>237</ele>
        <time>2018-07-08T10:04:09Z</time>
      </trkpt>
      <trkpt lat="45.98497" lon="4.81748">
        <ele>237</ele>
        <time>2018-07-08T10:04:10Z</time>
      </trkpt>
      <trkpt lat="45.98491" lon="4.81742">
        <ele>238</ele>
        <time>2018-07-08T10:04:12Z</time>
      </trkpt>
      <trkpt lat="45.98488" lon="4.81739">
        <ele>238</ele>
        <time>2018-07-08T10:04:13Z</time>
      </trkpt>
      <trkpt lat="45.98481" lon="4.81732">
        <ele>238</ele>
        <time>2018-07-08T10:04:15Z</time>
      </trkpt>
      <trkpt lat="45.98478" lon="4.81728">
        <ele>238</ele>
        <time>2018-07-08T10:04:16Z</time>
      </trkpt>
      <trkpt lat="45.98471" lon="4.8172">
        <ele>239</ele>
        <time>2018-07-08T10:04:18Z</time>
      </trkpt>
      <trkpt lat="45.98469" lon="4.81717">
        <ele>239</ele>
        <time>2018-07-08T10:04:19Z</time>
      </trkpt>
      <trkpt lat="45.98463" lon="4.81711">
        <ele>239</ele>
        <time>2018-07-08T10:04:22Z</time>
      </trkpt>
      <trkpt lat="45.98461" lon="4.81708">
        <ele>239</ele>
        <time>2018-07-08T10:04:23Z</time>
      </trkpt>
      <trkpt lat="45.98457" lon="4.81702">
        <ele>239</ele>
        <time>2018-07-08T10:04:25Z</time>
      </trkpt>
      <trkpt lat="45.98454" lon="4.81698">
        <ele>239</ele>
        <time>2018-07-08T10:04:26Z</time>
      </trkpt>
      <trkpt lat="45.9845" lon="4.8169">
        <ele>239</ele>
        <time>2018-07-08T10:04:28Z</time>
      </trkpt>
      <trkpt lat="45.98447" lon="4.81687">
        <ele>239</ele>
        <time>2018-07-08T10:04:29Z</time>
      </trkpt>
      <trkpt lat="45.9844" lon="4.81676">
        <ele>240</ele>
        <time>2018-07-08T10:04:30Z</time>
      </trkpt>
      <trkpt lat="45.98434" lon="4.81668">
        <ele>240</ele>
        <time>2018-07-08T10:04:32Z</time>
      </trkpt>
      <trkpt lat="45.9843" lon="4.81665">
        <ele>239</ele>
        <time>2018-07-08T10:04:33Z</time>
      </trkpt>
      <trkpt lat="45.98422" lon="4.81661">
        <ele>240</ele>
        <time>2018-07-08T10:04:35Z</time>
      </trkpt>
      <trkpt lat="45.98419" lon="4.81662">
        <ele>240</ele>
        <time>2018-07-08T10:04:36Z</time>
      </trkpt>
      <trkpt lat="45.98414" lon="4.81662">
        <ele>241</ele>
        <time>2018-07-08T10:04:37Z</time>
      </trkpt>
      <trkpt lat="45.98408" lon="4.81662">
        <ele>241</ele>
        <time>2018-07-08T10:04:38Z</time>
      </trkpt>
      <trkpt lat="45.984" lon="4.81664">
        <ele>242</ele>
        <time>2018-07-08T10:04:40Z</time>
      </trkpt>
      <trkpt lat="45.98394" lon="4.81667">
        <ele>243</ele>
        <time>2018-07-08T10:04:41Z</time>
      </trkpt>
      <trkpt lat="45.98386" lon="4.81669">
        <ele>243</ele>
        <time>2018-07-08T10:04:43Z</time>
      </trkpt>
      <trkpt lat="45.98381" lon="4.8167">
        <ele>244</ele>
        <time>2018-07-08T10:04:44Z</time>
      </trkpt>
      <trkpt lat="45.98376" lon="4.8167">
        <ele>244</ele>
        <time>2018-07-08T10:04:45Z</time>
      </trkpt>
      <trkpt lat="45.98371" lon="4.8167">
        <ele>244</ele>
        <time>2018-07-08T10:04:46Z</time>
      </trkpt>
      <trkpt lat="45.98363" lon="4.81673">
        <ele>244</ele>
        <time>2018-07-08T10:04:48Z</time>
      </trkpt>
      <trkpt lat="45.98358" lon="4.81673">
        <ele>245</ele>
        <time>2018-07-08T10:04:49Z</time>
      </trkpt>
      <trkpt lat="45.98349" lon="4.81673">
        <ele>245</ele>
        <time>2018-07-08T10:04:51Z</time>
      </trkpt>
      <trkpt lat="45.98345" lon="4.81671">
        <ele>245</ele>
        <time>2018-07-08T10:04:52Z</time>
      </trkpt>
      <trkpt lat="45.98337" lon="4.81667">
        <ele>246</ele>
        <time>2018-07-08T10:04:54Z</time>
      </trkpt>
      <trkpt lat="45.98333" lon="4.81665">
        <ele>246</ele>
        <time>2018-07-08T10:04:55Z</time>
      </trkpt>
      <trkpt lat="45.98325" lon="4.8166">
        <ele>246</ele>
        <time>2018-07-08T10:04:57Z</time>
      </trkpt>
      <trkpt lat="45.98321" lon="4.81657">
        <ele>246</ele>
        <time>2018-07-08T10:04:58Z</time>
      </trkpt>
      <trkpt lat="45.98317" lon="4.81653">
        <ele>246</ele>
        <time>2018-07-08T10:04:59Z</time>
      </trkpt>
      <trkpt lat="45.98312" lon="4.8165">
        <ele>246</ele>
        <time>2018-07-08T10:05:00Z</time>
      </trkpt>
      <trkpt lat="45.98307" lon="4.81646">
        <ele>246</ele>
        <time>2018-07-08T10:05:01Z</time>
      </trkpt>
      <trkpt lat="45.98303" lon="4.81642">
        <ele>246</ele>
        <time>2018-07-08T10:05:02Z</time>
      </trkpt>
      <trkpt lat="45.98299" lon="4.81639">
        <ele>246</ele>
        <time>2018-07-08T10:05:03Z</time>
      </trkpt>
      <trkpt lat="45.98296" lon="4.81634">
        <ele>247</ele>
        <time>2018-07-08T10:05:04Z</time>
      </trkpt>
      <trkpt lat="45.98292" lon="4.8163">
        <ele>247</ele>
        <time>2018-07-08T10:05:05Z</time>
      </trkpt>
      <trkpt lat="45.98288" lon="4.81626">
        <ele>247</ele>
        <time>2018-07-08T10:05:06Z</time>
      </trkpt>
      <trkpt lat="45.98285" lon="4.81622">
        <ele>247</ele>
        <time>2018-07-08T10:05:07Z</time>
      </trkpt>
      <trkpt lat="45.9828" lon="4.81616">
        <ele>247</ele>
        <time>2018-07-08T10:05:08Z</time>
      </trkpt>
      <trkpt lat="45.98278" lon="4.8161">
        <ele>247</ele>
        <time>2018-07-08T10:05:09Z</time>
      </trkpt>
      <trkpt lat="45.98274" lon="4.81604">
        <ele>247</ele>
        <time>2018-07-08T10:05:10Z</time>
      </trkpt>
      <trkpt lat="45.98274" lon="4.81598">
        <ele>247</ele>
        <time>2018-07-08T10:05:11Z</time>
      </trkpt>
      <trkpt lat="45.98271" lon="4.81591">
        <ele>247</ele>
        <time>2018-07-08T10:05:12Z</time>
      </trkpt>
      <trkpt lat="45.98268" lon="4.81579">
        <ele>247</ele>
        <time>2018-07-08T10:05:14Z</time>
      </trkpt>
      <trkpt lat="45.98266" lon="4.81573">
        <ele>247</ele>
        <time>2018-07-08T10:05:15Z</time>
      </trkpt>
      <trkpt lat="45.98263" lon="4.81568">
        <ele>247</ele>
        <time>2018-07-08T10:05:16Z</time>
      </trkpt>
      <trkpt lat="45.98258" lon="4.8156">
        <ele>247</ele>
        <time>2018-07-08T10:05:17Z</time>
      </trkpt>
      <trkpt lat="45.98256" lon="4.81548">
        <ele>247</ele>
        <time>2018-07-08T10:05:19Z</time>
      </trkpt>
      <trkpt lat="45.98253" lon="4.81541">
        <ele>247</ele>
        <time>2018-07-08T10:05:20Z</time>
      </trkpt>
      <trkpt lat="45.98251" lon="4.81533">
        <ele>247</ele>
        <time>2018-07-08T10:05:21Z</time>
      </trkpt>
      <trkpt lat="45.9825" lon="4.81527">
        <ele>249</ele>
        <time>2018-07-08T10:05:22Z</time>
      </trkpt>
      <trkpt lat="45.98248" lon="4.8152">
        <ele>249</ele>
        <time>2018-07-08T10:05:23Z</time>
      </trkpt>
      <trkpt lat="45.98245" lon="4.81513">
        <ele>249</ele>
        <time>2018-07-08T10:05:24Z</time>
      </trkpt>
      <trkpt lat="45.98242" lon="4.81506">
        <ele>249</ele>
        <time>2018-07-08T10:05:25Z</time>
      </trkpt>
      <trkpt lat="45.98238" lon="4.815">
        <ele>249</ele>
        <time>2018-07-08T10:05:26Z</time>
      </trkpt>
      <trkpt lat="45.98234" lon="4.81489">
        <ele>249</ele>
        <time>2018-07-08T10:05:28Z</time>
      </trkpt>
      <trkpt lat="45.98233" lon="4.81484">
        <ele>249</ele>
        <time>2018-07-08T10:05:29Z</time>
      </trkpt>
      <trkpt lat="45.9823" lon="4.81473">
        <ele>249</ele>
        <time>2018-07-08T10:05:31Z</time>
      </trkpt>
      <trkpt lat="45.98228" lon="4.81467">
        <ele>249</ele>
        <time>2018-07-08T10:05:32Z</time>
      </trkpt>
      <trkpt lat="45.98225" lon="4.81456">
        <ele>249</ele>
        <time>2018-07-08T10:05:34Z</time>
      </trkpt>
      <trkpt lat="45.98222" lon="4.8145">
        <ele>249</ele>
        <time>2018-07-08T10:05:35Z</time>
      </trkpt>
      <trkpt lat="45.9822" lon="4.81443">
        <ele>249</ele>
        <time>2018-07-08T10:05:36Z</time>
      </trkpt>
      <trkpt lat="45.98218" lon="4.81437">
        <ele>249</ele>
        <time>2018-07-08T10:05:37Z</time>
      </trkpt>
      <trkpt lat="45.98217" lon="4.81431">
        <ele>249</ele>
        <time>2018-07-08T10:05:38Z</time>
      </trkpt>
      <trkpt lat="45.98215" lon="4.81425">
        <ele>249</ele>
        <time>2018-07-08T10:05:39Z</time>
      </trkpt>
      <trkpt lat="45.98211" lon="4.81413">
        <ele>248</ele>
        <time>2018-07-08T10:05:41Z</time>
      </trkpt>
      <trkpt lat="45.98207" lon="4.81407">
        <ele>248</ele>
        <time>2018-07-08T10:05:42Z</time>
      </trkpt>
      <trkpt lat="45.98206" lon="4.81401">
        <ele>248</ele>
        <time>2018-07-08T10:05:43Z</time>
      </trkpt>
      <trkpt lat="45.98204" lon="4.81394">
        <ele>248</ele>
        <time>2018-07-08T10:05:44Z</time>
      </trkpt>
      <trkpt lat="45.98202" lon="4.81387">
        <ele>248</ele>
        <time>2018-07-08T10:05:45Z</time>
      </trkpt>
      <trkpt lat="45.98198" lon="4.81379">
        <ele>248</ele>
        <time>2018-07-08T10:05:46Z</time>
      </trkpt>
      <trkpt lat="45.98196" lon="4.81368">
        <ele>248</ele>
        <time>2018-07-08T10:05:48Z</time>
      </trkpt>
      <trkpt lat="45.98196" lon="4.8136">
        <ele>248</ele>
        <time>2018-07-08T10:05:49Z</time>
      </trkpt>
      <trkpt lat="45.98195" lon="4.81353">
        <ele>248</ele>
        <time>2018-07-08T10:05:50Z</time>
      </trkpt>
      <trkpt lat="45.98193" lon="4.81345">
        <ele>248</ele>
        <time>2018-07-08T10:05:51Z</time>
      </trkpt>
      <trkpt lat="45.98192" lon="4.81336">
        <ele>248</ele>
        <time>2018-07-08T10:05:52Z</time>
      </trkpt>
      <trkpt lat="45.98189" lon="4.81328">
        <ele>247</ele>
        <time>2018-07-08T10:05:53Z</time>
      </trkpt>
      <trkpt lat="45.98189" lon="4.8132">
        <ele>247</ele>
        <time>2018-07-08T10:05:54Z</time>
      </trkpt>
      <trkpt lat="45.98187" lon="4.81313">
        <ele>247</ele>
        <time>2018-07-08T10:05:55Z</time>
      </trkpt>
      <trkpt lat="45.98185" lon="4.81305">
        <ele>247</ele>
        <time>2018-07-08T10:05:56Z</time>
      </trkpt>
      <trkpt lat="45.98183" lon="4.81298">
        <ele>247</ele>
        <time>2018-07-08T10:05:57Z</time>
      </trkpt>
      <trkpt lat="45.98183" lon="4.81291">
        <ele>247</ele>
        <time>2018-07-08T10:05:58Z</time>
      </trkpt>
      <trkpt lat="45.98182" lon="4.81284">
        <ele>247</ele>
        <time>2018-07-08T10:05:59Z</time>
      </trkpt>
      <trkpt lat="45.9818" lon="4.81277">
        <ele>247</ele>
        <time>2018-07-08T10:06:00Z</time>
      </trkpt>
      <trkpt lat="45.98178" lon="4.8127">
        <ele>247</ele>
        <time>2018-07-08T10:06:01Z</time>
      </trkpt>
      <trkpt lat="45.98177" lon="4.81263">
        <ele>247</ele>
        <time>2018-07-08T10:06:02Z</time>
      </trkpt>
      <trkpt lat="45.98179" lon="4.81253">
        <ele>247</ele>
        <time>2018-07-08T10:06:03Z</time>
      </trkpt>
      <trkpt lat="45.98178" lon="4.81246">
        <ele>247</ele>
        <time>2018-07-08T10:06:04Z</time>
      </trkpt>
      <trkpt lat="45.98178" lon="4.81239">
        <ele>247</ele>
        <time>2018-07-08T10:06:05Z</time>
      </trkpt>
      <trkpt lat="45.9818" lon="4.81231">
        <ele>246</ele>
        <time>2018-07-08T10:06:06Z</time>
      </trkpt>
      <trkpt lat="45.98181" lon="4.81224">
        <ele>246</ele>
        <time>2018-07-08T10:06:07Z</time>
      </trkpt>
      <trkpt lat="45.98178" lon="4.81216">
        <ele>246</ele>
        <time>2018-07-08T10:06:08Z</time>
      </trkpt>
      <trkpt lat="45.98178" lon="4.81208">
        <ele>245</ele>
        <time>2018-07-08T10:06:09Z</time>
      </trkpt>
      <trkpt lat="45.98175" lon="4.81199">
        <ele>245</ele>
        <time>2018-07-08T10:06:10Z</time>
      </trkpt>
      <trkpt lat="45.98169" lon="4.8119">
        <ele>245</ele>
        <time>2018-07-08T10:06:11Z</time>
      </trkpt>
      <trkpt lat="45.98169" lon="4.81182">
        <ele>245</ele>
        <time>2018-07-08T10:06:12Z</time>
      </trkpt>
      <trkpt lat="45.98169" lon="4.81177">
        <ele>245</ele>
        <time>2018-07-08T10:06:13Z</time>
      </trkpt>
      <trkpt lat="45.98167" lon="4.81168">
        <ele>245</ele>
        <time>2018-07-08T10:06:14Z</time>
      </trkpt>
      <trkpt lat="45.98166" lon="4.81161">
        <ele>245</ele>
        <time>2018-07-08T10:06:15Z</time>
      </trkpt>
      <trkpt lat="45.98163" lon="4.81154">
        <ele>245</ele>
        <time>2018-07-08T10:06:16Z</time>
      </trkpt>
      <trkpt lat="45.98159" lon="4.81147">
        <ele>245</ele>
        <time>2018-07-08T10:06:17Z</time>
      </trkpt>
      <trkpt lat="45.98155" lon="4.81137">
        <ele>245</ele>
        <time>2018-07-08T10:06:18Z</time>
      </trkpt>
      <trkpt lat="45.98151" lon="4.81129">
        <ele>245</ele>
        <time>2018-07-08T10:06:19Z</time>
      </trkpt>
      <trkpt lat="45.98147" lon="4.81121">
        <ele>245</ele>
        <time>2018-07-08T10:06:20Z</time>
      </trkpt>
      <trkpt lat="45.98142" lon="4.81113">
        <ele>245</ele>
        <time>2018-07-08T10:06:21Z</time>
      </trkpt>
      <trkpt lat="45.98138" lon="4.81104">
        <ele>245</ele>
        <time>2018-07-08T10:06:22Z</time>
      </trkpt>
      <trkpt lat="45.98136" lon="4.81097">
        <ele>245</ele>
        <time>2018-07-08T10:06:23Z</time>
      </trkpt>
      <trkpt lat="45.98133" lon="4.8109">
        <ele>245</ele>
        <time>2018-07-08T10:06:24Z</time>
      </trkpt>
      <trkpt lat="45.98129" lon="4.81081">
        <ele>243</ele>
        <time>2018-07-08T10:06:25Z</time>
      </trkpt>
      <trkpt lat="45.98127" lon="4.81074">
        <ele>243</ele>
        <time>2018-07-08T10:06:26Z</time>
      </trkpt>
      <trkpt lat="45.98128" lon="4.81065">
        <ele>243</ele>
        <time>2018-07-08T10:06:27Z</time>
      </trkpt>
      <trkpt lat="45.98123" lon="4.81055">
        <ele>243</ele>
        <time>2018-07-08T10:06:28Z</time>
      </trkpt>
      <trkpt lat="45.98121" lon="4.81045">
        <ele>242</ele>
        <time>2018-07-08T10:06:29Z</time>
      </trkpt>
      <trkpt lat="45.98117" lon="4.81037">
        <ele>242</ele>
        <time>2018-07-08T10:06:30Z</time>
      </trkpt>
      <trkpt lat="45.98115" lon="4.81029">
        <ele>242</ele>
        <time>2018-07-08T10:06:31Z</time>
      </trkpt>
      <trkpt lat="45.98113" lon="4.81023">
        <ele>242</ele>
        <time>2018-07-08T10:06:32Z</time>
      </trkpt>
      <trkpt lat="45.98111" lon="4.81015">
        <ele>242</ele>
        <time>2018-07-08T10:06:33Z</time>
      </trkpt>
      <trkpt lat="45.98108" lon="4.81009">
        <ele>242</ele>
        <time>2018-07-08T10:06:34Z</time>
      </trkpt>
      <trkpt lat="45.98104" lon="4.81003">
        <ele>242</ele>
        <time>2018-07-08T10:06:35Z</time>
      </trkpt>
      <trkpt lat="45.98102" lon="4.80998">
        <ele>240</ele>
        <time>2018-07-08T10:06:36Z</time>
      </trkpt>
      <trkpt lat="45.98099" lon="4.80992">
        <ele>240</ele>
        <time>2018-07-08T10:06:37Z</time>
      </trkpt>
      <trkpt lat="45.98096" lon="4.8098">
        <ele>239</ele>
        <time>2018-07-08T10:06:39Z</time>
      </trkpt>
      <trkpt lat="45.98094" lon="4.80973">
        <ele>239</ele>
        <time>2018-07-08T10:06:40Z</time>
      </trkpt>
      <trkpt lat="45.98094" lon="4.80965">
        <ele>239</ele>
        <time>2018-07-08T10:06:41Z</time>
      </trkpt>
      <trkpt lat="45.98091" lon="4.80957">
        <ele>238</ele>
        <time>2018-07-08T10:06:42Z</time>
      </trkpt>
      <trkpt lat="45.98088" lon="4.80947">
        <ele>238</ele>
        <time>2018-07-08T10:06:43Z</time>
      </trkpt>
      <trkpt lat="45.98085" lon="4.80936">
        <ele>238</ele>
        <time>2018-07-08T10:06:44Z</time>
      </trkpt>
      <trkpt lat="45.98083" lon="4.80925">
        <ele>240</ele>
        <time>2018-07-08T10:06:45Z</time>
      </trkpt>
      <trkpt lat="45.98079" lon="4.80917">
        <ele>239</ele>
        <time>2018-07-08T10:06:46Z</time>
      </trkpt>
      <trkpt lat="45.98077" lon="4.80906">
        <ele>238</ele>
        <time>2018-07-08T10:06:47Z</time>
      </trkpt>
      <trkpt lat="45.98075" lon="4.80897">
        <ele>238</ele>
        <time>2018-07-08T10:06:48Z</time>
      </trkpt>
      <trkpt lat="45.98072" lon="4.80887">
        <ele>237</ele>
        <time>2018-07-08T10:06:49Z</time>
      </trkpt>
      <trkpt lat="45.98069" lon="4.80877">
        <ele>237</ele>
        <time>2018-07-08T10:06:50Z</time>
      </trkpt>
      <trkpt lat="45.98067" lon="4.80866">
        <ele>237</ele>
        <time>2018-07-08T10:06:51Z</time>
      </trkpt>
      <trkpt lat="45.98065" lon="4.80854">
        <ele>236</ele>
        <time>2018-07-08T10:06:52Z</time>
      </trkpt>
      <trkpt lat="45.98062" lon="4.80844">
        <ele>236</ele>
        <time>2018-07-08T10:06:53Z</time>
      </trkpt>
      <trkpt lat="45.98059" lon="4.80833">
        <ele>234</ele>
        <time>2018-07-08T10:06:54Z</time>
      </trkpt>
      <trkpt lat="45.98059" lon="4.80824">
        <ele>234</ele>
        <time>2018-07-08T10:06:55Z</time>
      </trkpt>
      <trkpt lat="45.98056" lon="4.80814">
        <ele>234</ele>
        <time>2018-07-08T10:06:56Z</time>
      </trkpt>
      <trkpt lat="45.98053" lon="4.80805">
        <ele>234</ele>
        <time>2018-07-08T10:06:57Z</time>
      </trkpt>
      <trkpt lat="45.98049" lon="4.80795">
        <ele>233</ele>
        <time>2018-07-08T10:06:58Z</time>
      </trkpt>
      <trkpt lat="45.98049" lon="4.80786">
        <ele>233</ele>
        <time>2018-07-08T10:06:59Z</time>
      </trkpt>
      <trkpt lat="45.98046" lon="4.80776">
        <ele>233</ele>
        <time>2018-07-08T10:07:00Z</time>
      </trkpt>
      <trkpt lat="45.98043" lon="4.80767">
        <ele>233</ele>
        <time>2018-07-08T10:07:01Z</time>
      </trkpt>
      <trkpt lat="45.98043" lon="4.80761">
        <ele>233</ele>
        <time>2018-07-08T10:07:02Z</time>
      </trkpt>
      <trkpt lat="45.98042" lon="4.80753">
        <ele>233</ele>
        <time>2018-07-08T10:07:03Z</time>
      </trkpt>
      <trkpt lat="45.98039" lon="4.80746">
        <ele>231</ele>
        <time>2018-07-08T10:07:04Z</time>
      </trkpt>
      <trkpt lat="45.98037" lon="4.80739">
        <ele>231</ele>
        <time>2018-07-08T10:07:05Z</time>
      </trkpt>
      <trkpt lat="45.98037" lon="4.80731">
        <ele>231</ele>
        <time>2018-07-08T10:07:06Z</time>
      </trkpt>
      <trkpt lat="45.98037" lon="4.80719">
        <ele>231</ele>
        <time>2018-07-08T10:07:08Z</time>
      </trkpt>
      <trkpt lat="45.98035" lon="4.80714">
        <ele>231</ele>
        <time>2018-07-08T10:07:09Z</time>
      </trkpt>
      <trkpt lat="45.98038" lon="4.80703">
        <ele>230</ele>
        <time>2018-07-08T10:07:11Z</time>
      </trkpt>
      <trkpt lat="45.9804" lon="4.80698">
        <ele>230</ele>
        <time>2018-07-08T10:07:12Z</time>
      </trkpt>
      <trkpt lat="45.98046" lon="4.80694">
        <ele>230</ele>
        <time>2018-07-08T10:07:14Z</time>
      </trkpt>
      <trkpt lat="45.98052" lon="4.80694">
        <ele>230</ele>
        <time>2018-07-08T10:07:15Z</time>
      </trkpt>
      <trkpt lat="45.98058" lon="4.80693">
        <ele>230</ele>
        <time>2018-07-08T10:07:16Z</time>
      </trkpt>
      <trkpt lat="45.98064" lon="4.80693">
        <ele>230</ele>
        <time>2018-07-08T10:07:17Z</time>
      </trkpt>
      <trkpt lat="45.98073" lon="4.80693">
        <ele>230</ele>
        <time>2018-07-08T10:07:18Z</time>
      </trkpt>
      <trkpt lat="45.98078" lon="4.80692">
        <ele>230</ele>
        <time>2018-07-08T10:07:19Z</time>
      </trkpt>
      <trkpt lat="45.98083" lon="4.80692">
        <ele>230</ele>
        <time>2018-07-08T10:07:20Z</time>
      </trkpt>
      <trkpt lat="45.98091" lon="4.80692">
        <ele>228</ele>
        <time>2018-07-08T10:07:21Z</time>
      </trkpt>
      <trkpt lat="45.98097" lon="4.80692">
        <ele>228</ele>
        <time>2018-07-08T10:07:22Z</time>
      </trkpt>
      <trkpt lat="45.98104" lon="4.80692">
        <ele>228</ele>
        <time>2018-07-08T10:07:23Z</time>
      </trkpt>
      <trkpt lat="45.9811" lon="4.8069">
        <ele>228</ele>
        <time>2018-07-08T10:07:24Z</time>
      </trkpt>
      <trkpt lat="45.98116" lon="4.80691">
        <ele>228</ele>
        <time>2018-07-08T10:07:25Z</time>
      </trkpt>
      <trkpt lat="45.98121" lon="4.8069">
        <ele>228</ele>
        <time>2018-07-08T10:07:26Z</time>
      </trkpt>
      <trkpt lat="45.98127" lon="4.8069">
        <ele>228</ele>
        <time>2018-07-08T10:07:27Z</time>
      </trkpt>
      <trkpt lat="45.98133" lon="4.80691">
        <ele>228</ele>
        <time>2018-07-08T10:07:28Z</time>
      </trkpt>
      <trkpt lat="45.9814" lon="4.80692">
        <ele>228</ele>
        <time>2018-07-08T10:07:29Z</time>
      </trkpt>
      <trkpt lat="45.98146" lon="4.80693">
        <ele>228</ele>
        <time>2018-07-08T10:07:30Z</time>
      </trkpt>
      <trkpt lat="45.98152" lon="4.80693">
        <ele>228</ele>
        <time>2018-07-08T10:07:31Z</time>
      </trkpt>
      <trkpt lat="45.98158" lon="4.8069">
        <ele>227</ele>
        <time>2018-07-08T10:07:32Z</time>
      </trkpt>
      <trkpt lat="45.98162" lon="4.80688">
        <ele>227</ele>
        <time>2018-07-08T10:07:33Z</time>
      </trkpt>
      <trkpt lat="45.98168" lon="4.80686">
        <ele>225</ele>
        <time>2018-07-08T10:07:34Z</time>
      </trkpt>
      <trkpt lat="45.98177" lon="4.80681">
        <ele>225</ele>
        <time>2018-07-08T10:07:35Z</time>
      </trkpt>
      <trkpt lat="45.98184" lon="4.80681">
        <ele>225</ele>
        <time>2018-07-08T10:07:36Z</time>
      </trkpt>
      <trkpt lat="45.9819" lon="4.80678">
        <ele>225</ele>
        <time>2018-07-08T10:07:37Z</time>
      </trkpt>
      <trkpt lat="45.98196" lon="4.80676">
        <ele>225</ele>
        <time>2018-07-08T10:07:38Z</time>
      </trkpt>
      <trkpt lat="45.98202" lon="4.80672">
        <ele>225</ele>
        <time>2018-07-08T10:07:39Z</time>
      </trkpt>
      <trkpt lat="45.98208" lon="4.80671">
        <ele>224</ele>
        <time>2018-07-08T10:07:40Z</time>
      </trkpt>
      <trkpt lat="45.98214" lon="4.80667">
        <ele>224</ele>
        <time>2018-07-08T10:07:41Z</time>
      </trkpt>
      <trkpt lat="45.98219" lon="4.80664">
        <ele>224</ele>
        <time>2018-07-08T10:07:42Z</time>
      </trkpt>
      <trkpt lat="45.98222" lon="4.8066">
        <ele>224</ele>
        <time>2018-07-08T10:07:43Z</time>
      </trkpt>
      <trkpt lat="45.98228" lon="4.80655">
        <ele>223</ele>
        <time>2018-07-08T10:07:44Z</time>
      </trkpt>
      <trkpt lat="45.98231" lon="4.80645">
        <ele>223</ele>
        <time>2018-07-08T10:07:45Z</time>
      </trkpt>
      <trkpt lat="45.98234" lon="4.80637">
        <ele>224</ele>
        <time>2018-07-08T10:07:46Z</time>
      </trkpt>
      <trkpt lat="45.98236" lon="4.8063">
        <ele>224</ele>
        <time>2018-07-08T10:07:47Z</time>
      </trkpt>
      <trkpt lat="45.98241" lon="4.80621">
        <ele>224</ele>
        <time>2018-07-08T10:07:48Z</time>
      </trkpt>
      <trkpt lat="45.98245" lon="4.80612">
        <ele>224</ele>
        <time>2018-07-08T10:07:49Z</time>
      </trkpt>
      <trkpt lat="45.98248" lon="4.80602">
        <ele>224</ele>
        <time>2018-07-08T10:07:50Z</time>
      </trkpt>
      <trkpt lat="45.9825" lon="4.80592">
        <ele>224</ele>
        <time>2018-07-08T10:07:51Z</time>
      </trkpt>
      <trkpt lat="45.98251" lon="4.80582">
        <ele>224</ele>
        <time>2018-07-08T10:07:52Z</time>
      </trkpt>
      <trkpt lat="45.98253" lon="4.80573">
        <ele>224</ele>
        <time>2018-07-08T10:07:53Z</time>
      </trkpt>
      <trkpt lat="45.98256" lon="4.80562">
        <ele>224</ele>
        <time>2018-07-08T10:07:54Z</time>
      </trkpt>
      <trkpt lat="45.98259" lon="4.80553">
        <ele>224</ele>
        <time>2018-07-08T10:07:55Z</time>
      </trkpt>
      <trkpt lat="45.98262" lon="4.80545">
        <ele>224</ele>
        <time>2018-07-08T10:07:56Z</time>
      </trkpt>
      <trkpt lat="45.98265" lon="4.80537">
        <ele>224</ele>
        <time>2018-07-08T10:07:57Z</time>
      </trkpt>
      <trkpt lat="45.98267" lon="4.8053">
        <ele>224</ele>
        <time>2018-07-08T10:07:58Z</time>
      </trkpt>
      <trkpt lat="45.9827" lon="4.80523">
        <ele>224</ele>
        <time>2018-07-08T10:07:59Z</time>
      </trkpt>
      <trkpt lat="45.98271" lon="4.80513">
        <ele>223</ele>
        <time>2018-07-08T10:08:00Z</time>
      </trkpt>
      <trkpt lat="45.98275" lon="4.80507">
        <ele>223</ele>
        <time>2018-07-08T10:08:01Z</time>
      </trkpt>
      <trkpt lat="45.98273" lon="4.80499">
        <ele>223</ele>
        <time>2018-07-08T10:08:02Z</time>
      </trkpt>
      <trkpt lat="45.98276" lon="4.80491">
        <ele>223</ele>
        <time>2018-07-08T10:08:03Z</time>
      </trkpt>
      <trkpt lat="45.98276" lon="4.80486">
        <ele>223</ele>
        <time>2018-07-08T10:08:04Z</time>
      </trkpt>
      <trkpt lat="45.98278" lon="4.80477">
        <ele>223</ele>
        <time>2018-07-08T10:08:05Z</time>
      </trkpt>
      <trkpt lat="45.9828" lon="4.80468">
        <ele>223</ele>
        <time>2018-07-08T10:08:06Z</time>
      </trkpt>
      <trkpt lat="45.98282" lon="4.8046">
        <ele>223</ele>
        <time>2018-07-08T10:08:07Z</time>
      </trkpt>
      <trkpt lat="45.98283" lon="4.8045">
        <ele>223</ele>
        <time>2018-07-08T10:08:08Z</time>
      </trkpt>
      <trkpt lat="45.98286" lon="4.8044">
        <ele>224</ele>
        <time>2018-07-08T10:08:09Z</time>
      </trkpt>
      <trkpt lat="45.98288" lon="4.80434">
        <ele>224</ele>
        <time>2018-07-08T10:08:10Z</time>
      </trkpt>
      <trkpt lat="45.98291" lon="4.80423">
        <ele>224</ele>
        <time>2018-07-08T10:08:11Z</time>
      </trkpt>
      <trkpt lat="45.98294" lon="4.80415">
        <ele>224</ele>
        <time>2018-07-08T10:08:12Z</time>
      </trkpt>
      <trkpt lat="45.98296" lon="4.80406">
        <ele>224</ele>
        <time>2018-07-08T10:08:13Z</time>
      </trkpt>
      <trkpt lat="45.98297" lon="4.80397">
        <ele>225</ele>
        <time>2018-07-08T10:08:14Z</time>
      </trkpt>
      <trkpt lat="45.98298" lon="4.8039">
        <ele>225</ele>
        <time>2018-07-08T10:08:15Z</time>
      </trkpt>
      <trkpt lat="45.98301" lon="4.80378">
        <ele>225</ele>
        <time>2018-07-08T10:08:17Z</time>
      </trkpt>
      <trkpt lat="45.98303" lon="4.80372">
        <ele>225</ele>
        <time>2018-07-08T10:08:18Z</time>
      </trkpt>
      <trkpt lat="45.98305" lon="4.80363">
        <ele>225</ele>
        <time>2018-07-08T10:08:20Z</time>
      </trkpt>
      <trkpt lat="45.98305" lon="4.80356">
        <ele>225</ele>
        <time>2018-07-08T10:08:21Z</time>
      </trkpt>
      <trkpt lat="45.98306" lon="4.80347">
        <ele>226</ele>
        <time>2018-07-08T10:08:22Z</time>
      </trkpt>
      <trkpt lat="45.98308" lon="4.8034">
        <ele>226</ele>
        <time>2018-07-08T10:08:23Z</time>
      </trkpt>
      <trkpt lat="45.9831" lon="4.80333">
        <ele>227</ele>
        <time>2018-07-08T10:08:24Z</time>
      </trkpt>
      <trkpt lat="45.98311" lon="4.80328">
        <ele>227</ele>
        <time>2018-07-08T10:08:25Z</time>
      </trkpt>
      <trkpt lat="45.98313" lon="4.80323">
        <ele>227</ele>
        <time>2018-07-08T10:08:26Z</time>
      </trkpt>
      <trkpt lat="45.98316" lon="4.80317">
        <ele>227</ele>
        <time>2018-07-08T10:08:27Z</time>
      </trkpt>
      <trkpt lat="45.98318" lon="4.80311">
        <ele>227</ele>
        <time>2018-07-08T10:08:28Z</time>
      </trkpt>
      <trkpt lat="45.98318" lon="4.80303">
        <ele>227</ele>
        <time>2018-07-08T10:08:29Z</time>
      </trkpt>
      <trkpt lat="45.9832" lon="4.80295">
        <ele>227</ele>
        <time>2018-07-08T10:08:30Z</time>
      </trkpt>
      <trkpt lat="45.98321" lon="4.80289">
        <ele>227</ele>
        <time>2018-07-08T10:08:31Z</time>
      </trkpt>
      <trkpt lat="45.98322" lon="4.80281">
        <ele>227</ele>
        <time>2018-07-08T10:08:33Z</time>
      </trkpt>
      <trkpt lat="45.98321" lon="4.80274">
        <ele>227</ele>
        <time>2018-07-08T10:08:34Z</time>
      </trkpt>
      <trkpt lat="45.98326" lon="4.80264">
        <ele>228</ele>
        <time>2018-07-08T10:08:37Z</time>
      </trkpt>
      <trkpt lat="45.9833" lon="4.80255">
        <ele>229</ele>
        <time>2018-07-08T10:08:38Z</time>
      </trkpt>
      <trkpt lat="45.98333" lon="4.80244">
        <ele>229</ele>
        <time>2018-07-08T10:08:40Z</time>
      </trkpt>
      <trkpt lat="45.98335" lon="4.80239">
        <ele>230</ele>
        <time>2018-07-08T10:08:41Z</time>
      </trkpt>
      <trkpt lat="45.98333" lon="4.80229">
        <ele>228</ele>
        <time>2018-07-08T10:08:43Z</time>
      </trkpt>
      <trkpt lat="45.98334" lon="4.80221">
        <ele>230</ele>
        <time>2018-07-08T10:08:44Z</time>
      </trkpt>
      <trkpt lat="45.98332" lon="4.80215">
        <ele>227</ele>
        <time>2018-07-08T10:08:45Z</time>
      </trkpt>
      <trkpt lat="45.9833" lon="4.80209">
        <ele>227</ele>
        <time>2018-07-08T10:08:46Z</time>
      </trkpt>
      <trkpt lat="45.98328" lon="4.80203">
        <ele>227</ele>
        <time>2018-07-08T10:08:47Z</time>
      </trkpt>
      <trkpt lat="45.98326" lon="4.80196">
        <ele>227</ele>
        <time>2018-07-08T10:08:48Z</time>
      </trkpt>
      <trkpt lat="45.98322" lon="4.80185">
        <ele>227</ele>
        <time>2018-07-08T10:08:50Z</time>
      </trkpt>
      <trkpt lat="45.98321" lon="4.8018">
        <ele>227</ele>
        <time>2018-07-08T10:08:51Z</time>
      </trkpt>
      <trkpt lat="45.98318" lon="4.80174">
        <ele>227</ele>
        <time>2018-07-08T10:08:52Z</time>
      </trkpt>
      <trkpt lat="45.98316" lon="4.80167">
        <ele>227</ele>
        <time>2018-07-08T10:08:53Z</time>
      </trkpt>
      <trkpt lat="45.98314" lon="4.80161">
        <ele>228</ele>
        <time>2018-07-08T10:08:54Z</time>
      </trkpt>
      <trkpt lat="45.98312" lon="4.80155">
        <ele>228</ele>
        <time>2018-07-08T10:08:55Z</time>
      </trkpt>
      <trkpt lat="45.9831" lon="4.80148">
        <ele>228</ele>
        <time>2018-07-08T10:08:56Z</time>
      </trkpt>
      <trkpt lat="45.98307" lon="4.80141">
        <ele>228</ele>
        <time>2018-07-08T10:08:57Z</time>
      </trkpt>
      <trkpt lat="45.98304" lon="4.80134">
        <ele>228</ele>
        <time>2018-07-08T10:08:58Z</time>
      </trkpt>
      <trkpt lat="45.98302" lon="4.80128">
        <ele>228</ele>
        <time>2018-07-08T10:08:59Z</time>
      </trkpt>
      <trkpt lat="45.98299" lon="4.80121">
        <ele>228</ele>
        <time>2018-07-08T10:09:00Z</time>
      </trkpt>
      <trkpt lat="45.98297" lon="4.80115">
        <ele>228</ele>
        <time>2018-07-08T10:09:01Z</time>
      </trkpt>
      <trkpt lat="45.98295" lon="4.80109">
        <ele>228</ele>
        <time>2018-07-08T10:09:02Z</time>
      </trkpt>
      <trkpt lat="45.98293" lon="4.80102">
        <ele>228</ele>
        <time>2018-07-08T10:09:03Z</time>
      </trkpt>
      <trkpt lat="45.98291" lon="4.80096">
        <ele>228</ele>
        <time>2018-07-08T10:09:04Z</time>
      </trkpt>
      <trkpt lat="45.98288" lon="4.80091">
        <ele>228</ele>
        <time>2018-07-08T10:09:05Z</time>
      </trkpt>
      <trkpt lat="45.98287" lon="4.80085">
        <ele>228</ele>
        <time>2018-07-08T10:09:06Z</time>
      </trkpt>
      <trkpt lat="45.98284" lon="4.80079">
        <ele>229</ele>
        <time>2018-07-08T10:09:07Z</time>
      </trkpt>
      <trkpt lat="45.98282" lon="4.80073">
        <ele>229</ele>
        <time>2018-07-08T10:09:08Z</time>
      </trkpt>
      <trkpt lat="45.9828" lon="4.80067">
        <ele>229</ele>
        <time>2018-07-08T10:09:09Z</time>
      </trkpt>
      <trkpt lat="45.98278" lon="4.8006">
        <ele>229</ele>
        <time>2018-07-08T10:09:10Z</time>
      </trkpt>
      <trkpt lat="45.98276" lon="4.80055">
        <ele>229</ele>
        <time>2018-07-08T10:09:11Z</time>
      </trkpt>
      <trkpt lat="45.98273" lon="4.80043">
        <ele>229</ele>
        <time>2018-07-08T10:09:13Z</time>
      </trkpt>
      <trkpt lat="45.98271" lon="4.80036">
        <ele>229</ele>
        <time>2018-07-08T10:09:14Z</time>
      </trkpt>
      <trkpt lat="45.98267" lon="4.8003">
        <ele>228</ele>
        <time>2018-07-08T10:09:15Z</time>
      </trkpt>
      <trkpt lat="45.98265" lon="4.80025">
        <ele>228</ele>
        <time>2018-07-08T10:09:16Z</time>
      </trkpt>
      <trkpt lat="45.98262" lon="4.80014">
        <ele>228</ele>
        <time>2018-07-08T10:09:18Z</time>
      </trkpt>
      <trkpt lat="45.98259" lon="4.80009">
        <ele>227</ele>
        <time>2018-07-08T10:09:19Z</time>
      </trkpt>
      <trkpt lat="45.98257" lon="4.80003">
        <ele>227</ele>
        <time>2018-07-08T10:09:20Z</time>
      </trkpt>
      <trkpt lat="45.98255" lon="4.79996">
        <ele>227</ele>
        <time>2018-07-08T10:09:21Z</time>
      </trkpt>
      <trkpt lat="45.98253" lon="4.7999">
        <ele>227</ele>
        <time>2018-07-08T10:09:22Z</time>
      </trkpt>
      <trkpt lat="45.98251" lon="4.79983">
        <ele>228</ele>
        <time>2018-07-08T10:09:23Z</time>
      </trkpt>
      <trkpt lat="45.98248" lon="4.79977">
        <ele>225</ele>
        <time>2018-07-08T10:09:24Z</time>
      </trkpt>
      <trkpt lat="45.98246" lon="4.7997">
        <ele>225</ele>
        <time>2018-07-08T10:09:25Z</time>
      </trkpt>
      <trkpt lat="45.98243" lon="4.79964">
        <ele>225</ele>
        <time>2018-07-08T10:09:26Z</time>
      </trkpt>
      <trkpt lat="45.98241" lon="4.79958">
        <ele>225</ele>
        <time>2018-07-08T10:09:27Z</time>
      </trkpt>
      <trkpt lat="45.98239" lon="4.79951">
        <ele>225</ele>
        <time>2018-07-08T10:09:28Z</time>
      </trkpt>
      <trkpt lat="45.98237" lon="4.79942">
        <ele>225</ele>
        <time>2018-07-08T10:09:29Z</time>
      </trkpt>
      <trkpt lat="45.98234" lon="4.79936">
        <ele>225</ele>
        <time>2018-07-08T10:09:30Z</time>
      </trkpt>
      <trkpt lat="45.98231" lon="4.79929">
        <ele>225</ele>
        <time>2018-07-08T10:09:31Z</time>
      </trkpt>
      <trkpt lat="45.98229" lon="4.79922">
        <ele>225</ele>
        <time>2018-07-08T10:09:32Z</time>
      </trkpt>
      <trkpt lat="45.98227" lon="4.79916">
        <ele>225</ele>
        <time>2018-07-08T10:09:33Z</time>
      </trkpt>
      <trkpt lat="45.98226" lon="4.79911">
        <ele>225</ele>
        <time>2018-07-08T10:09:34Z</time>
      </trkpt>
      <trkpt lat="45.98222" lon="4.79904">
        <ele>225</ele>
        <time>2018-07-08T10:09:35Z</time>
      </trkpt>
      <trkpt lat="45.9822" lon="4.79899">
        <ele>225</ele>
        <time>2018-07-08T10:09:36Z</time>
      </trkpt>
      <trkpt lat="45.98218" lon="4.79892">
        <ele>225</ele>
        <time>2018-07-08T10:09:37Z</time>
      </trkpt>
      <trkpt lat="45.98218" lon="4.79885">
        <ele>225</ele>
        <time>2018-07-08T10:09:38Z</time>
      </trkpt>
      <trkpt lat="45.98214" lon="4.7988">
        <ele>225</ele>
        <time>2018-07-08T10:09:39Z</time>
      </trkpt>
      <trkpt lat="45.98211" lon="4.79875">
        <ele>225</ele>
        <time>2018-07-08T10:09:40Z</time>
      </trkpt>
      <trkpt lat="45.98207" lon="4.79869">
        <ele>225</ele>
        <time>2018-07-08T10:09:41Z</time>
      </trkpt>
      <trkpt lat="45.98206" lon="4.79862">
        <ele>225</ele>
        <time>2018-07-08T10:09:42Z</time>
      </trkpt>
      <trkpt lat="45.98204" lon="4.79857">
        <ele>225</ele>
        <time>2018-07-08T10:09:43Z</time>
      </trkpt>
      <trkpt lat="45.98202" lon="4.79846">
        <ele>225</ele>
        <time>2018-07-08T10:09:45Z</time>
      </trkpt>
      <trkpt lat="45.98198" lon="4.7984">
        <ele>225</ele>
        <time>2018-07-08T10:09:46Z</time>
      </trkpt>
      <trkpt lat="45.98194" lon="4.79831">
        <ele>225</ele>
        <time>2018-07-08T10:09:48Z</time>
      </trkpt>
      <trkpt lat="45.98193" lon="4.79825">
        <ele>225</ele>
        <time>2018-07-08T10:09:49Z</time>
      </trkpt>
      <trkpt lat="45.9819" lon="4.79814">
        <ele>225</ele>
        <time>2018-07-08T10:09:51Z</time>
      </trkpt>
      <trkpt lat="45.98188" lon="4.79809">
        <ele>225</ele>
        <time>2018-07-08T10:09:52Z</time>
      </trkpt>
      <trkpt lat="45.98185" lon="4.79798">
        <ele>226</ele>
        <time>2018-07-08T10:09:54Z</time>
      </trkpt>
      <trkpt lat="45.98185" lon="4.79795">
        <ele>226</ele>
        <time>2018-07-08T10:09:55Z</time>
      </trkpt>
      <trkpt lat="45.98184" lon="4.79792">
        <ele>226</ele>
        <time>2018-07-08T10:09:56Z</time>
      </trkpt>
      <trkpt lat="45.98182" lon="4.79783">
        <ele>226</ele>
        <time>2018-07-08T10:09:57Z</time>
      </trkpt>
      <trkpt lat="45.98183" lon="4.7977">
        <ele>226</ele>
        <time>2018-07-08T10:10:01Z</time>
      </trkpt>
      <trkpt lat="45.98187" lon="4.7976">
        <ele>226</ele>
        <time>2018-07-08T10:10:02Z</time>
      </trkpt>
      <trkpt lat="45.98192" lon="4.79753">
        <ele>226</ele>
        <time>2018-07-08T10:10:04Z</time>
      </trkpt>
      <trkpt lat="45.98194" lon="4.79752">
        <ele>226</ele>
        <time>2018-07-08T10:10:05Z</time>
      </trkpt>
      <trkpt lat="45.98203" lon="4.79748">
        <ele>228</ele>
        <time>2018-07-08T10:10:08Z</time>
      </trkpt>
      <trkpt lat="45.98204" lon="4.79748">
        <ele>228</ele>
        <time>2018-07-08T10:10:09Z</time>
      </trkpt>
      <trkpt lat="45.98213" lon="4.79746">
        <ele>228</ele>
        <time>2018-07-08T10:10:12Z</time>
      </trkpt>
      <trkpt lat="45.98215" lon="4.79746">
        <ele>228</ele>
        <time>2018-07-08T10:10:13Z</time>
      </trkpt>
      <trkpt lat="45.98218" lon="4.79745">
        <ele>228</ele>
        <time>2018-07-08T10:10:14Z</time>
      </trkpt>
      <trkpt lat="45.98228" lon="4.79744">
        <ele>228</ele>
        <time>2018-07-08T10:10:15Z</time>
      </trkpt>
      <trkpt lat="45.98235" lon="4.79745">
        <ele>228</ele>
        <time>2018-07-08T10:10:18Z</time>
      </trkpt>
      <trkpt lat="45.98238" lon="4.79745">
        <ele>228</ele>
        <time>2018-07-08T10:10:19Z</time>
      </trkpt>
      <trkpt lat="45.98247" lon="4.79745">
        <ele>228</ele>
        <time>2018-07-08T10:10:22Z</time>
      </trkpt>
      <trkpt lat="45.98249" lon="4.79745">
        <ele>228</ele>
        <time>2018-07-08T10:10:23Z</time>
      </trkpt>
      <trkpt lat="45.98256" lon="4.79745">
        <ele>230</ele>
        <time>2018-07-08T10:10:26Z</time>
      </trkpt>
      <trkpt lat="45.98259" lon="4.79744">
        <ele>230</ele>
        <time>2018-07-08T10:10:27Z</time>
      </trkpt>
      <trkpt lat="45.98266" lon="4.79743">
        <ele>232</ele>
        <time>2018-07-08T10:10:30Z</time>
      </trkpt>
      <trkpt lat="45.98269" lon="4.79743">
        <ele>232</ele>
        <time>2018-07-08T10:10:31Z</time>
      </trkpt>
      <trkpt lat="45.98277" lon="4.79742">
        <ele>233</ele>
        <time>2018-07-08T10:10:34Z</time>
      </trkpt>
      <trkpt lat="45.9828" lon="4.79741">
        <ele>233</ele>
        <time>2018-07-08T10:10:35Z</time>
      </trkpt>
      <trkpt lat="45.98287" lon="4.79738">
        <ele>234</ele>
        <time>2018-07-08T10:10:38Z</time>
      </trkpt>
      <trkpt lat="45.98291" lon="4.79736">
        <ele>234</ele>
        <time>2018-07-08T10:10:39Z</time>
      </trkpt>
      <trkpt lat="45.98299" lon="4.79734">
        <ele>235</ele>
        <time>2018-07-08T10:10:42Z</time>
      </trkpt>
      <trkpt lat="45.98301" lon="4.79733">
        <ele>235</ele>
        <time>2018-07-08T10:10:43Z</time>
      </trkpt>
      <trkpt lat="45.98309" lon="4.79732">
        <ele>236</ele>
        <time>2018-07-08T10:10:46Z</time>
      </trkpt>
      <trkpt lat="45.98311" lon="4.79732">
        <ele>236</ele>
        <time>2018-07-08T10:10:47Z</time>
      </trkpt>
      <trkpt lat="45.98319" lon="4.79731">
        <ele>236</ele>
        <time>2018-07-08T10:10:50Z</time>
      </trkpt>
      <trkpt lat="45.98322" lon="4.79731">
        <ele>236</ele>
        <time>2018-07-08T10:10:51Z</time>
      </trkpt>
      <trkpt lat="45.98329" lon="4.79731">
        <ele>236</ele>
        <time>2018-07-08T10:10:54Z</time>
      </trkpt>
      <trkpt lat="45.98331" lon="4.79731">
        <ele>236</ele>
        <time>2018-07-08T10:10:55Z</time>
      </trkpt>
      <trkpt lat="45.98338" lon="4.79731">
        <ele>239</ele>
        <time>2018-07-08T10:10:58Z</time>
      </trkpt>
      <trkpt lat="45.98341" lon="4.79731">
        <ele>239</ele>
        <time>2018-07-08T10:10:59Z</time>
      </trkpt>
      <trkpt lat="45.98348" lon="4.7973">
        <ele>240</ele>
        <time>2018-07-08T10:11:02Z</time>
      </trkpt>
      <trkpt lat="45.98351" lon="4.7973">
        <ele>240</ele>
        <time>2018-07-08T10:11:03Z</time>
      </trkpt>
      <trkpt lat="45.98358" lon="4.79728">
        <ele>240</ele>
        <time>2018-07-08T10:11:06Z</time>
      </trkpt>
      <trkpt lat="45.98361" lon="4.79727">
        <ele>240</ele>
        <time>2018-07-08T10:11:07Z</time>
      </trkpt>
      <trkpt lat="45.9837" lon="4.79725">
        <ele>240</ele>
        <time>2018-07-08T10:11:10Z</time>
      </trkpt>
      <trkpt lat="45.98373" lon="4.79724">
        <ele>241</ele>
        <time>2018-07-08T10:11:11Z</time>
      </trkpt>
      <trkpt lat="45.98379" lon="4.79724">
        <ele>241</ele>
        <time>2018-07-08T10:11:13Z</time>
      </trkpt>
      <trkpt lat="45.98382" lon="4.79724">
        <ele>241</ele>
        <time>2018-07-08T10:11:14Z</time>
      </trkpt>
      <trkpt lat="45.98389" lon="4.79723">
        <ele>241</ele>
        <time>2018-07-08T10:11:16Z</time>
      </trkpt>
      <trkpt lat="45.98392" lon="4.79723">
        <ele>241</ele>
        <time>2018-07-08T10:11:17Z</time>
      </trkpt>
      <trkpt lat="45.98398" lon="4.79722">
        <ele>241</ele>
        <time>2018-07-08T10:11:19Z</time>
      </trkpt>
      <trkpt lat="45.98401" lon="4.79721">
        <ele>241</ele>
        <time>2018-07-08T10:11:20Z</time>
      </trkpt>
      <trkpt lat="45.9841" lon="4.79721">
        <ele>241</ele>
        <time>2018-07-08T10:11:23Z</time>
      </trkpt>
      <trkpt lat="45.98413" lon="4.7972">
        <ele>241</ele>
        <time>2018-07-08T10:11:24Z</time>
      </trkpt>
      <trkpt lat="45.98421" lon="4.79719">
        <ele>242</ele>
        <time>2018-07-08T10:11:27Z</time>
      </trkpt>
      <trkpt lat="45.98424" lon="4.79719">
        <ele>242</ele>
        <time>2018-07-08T10:11:28Z</time>
      </trkpt>
      <trkpt lat="45.98432" lon="4.79719">
        <ele>242</ele>
        <time>2018-07-08T10:11:31Z</time>
      </trkpt>
      <trkpt lat="45.98435" lon="4.79719">
        <ele>242</ele>
        <time>2018-07-08T10:11:32Z</time>
      </trkpt>
      <trkpt lat="45.98441" lon="4.7972">
        <ele>242</ele>
        <time>2018-07-08T10:11:34Z</time>
      </trkpt>
      <trkpt lat="45.98444" lon="4.7972">
        <ele>242</ele>
        <time>2018-07-08T10:11:35Z</time>
      </trkpt>
      <trkpt lat="45.9845" lon="4.7972">
        <ele>243</ele>
        <time>2018-07-08T10:11:37Z</time>
      </trkpt>
      <trkpt lat="45.98453" lon="4.7972">
        <ele>243</ele>
        <time>2018-07-08T10:11:38Z</time>
      </trkpt>
      <trkpt lat="45.98459" lon="4.7972">
        <ele>243</ele>
        <time>2018-07-08T10:11:40Z</time>
      </trkpt>
      <trkpt lat="45.98462" lon="4.79721">
        <ele>243</ele>
        <time>2018-07-08T10:11:41Z</time>
      </trkpt>
      <trkpt lat="45.98471" lon="4.79721">
        <ele>243</ele>
        <time>2018-07-08T10:11:44Z</time>
      </trkpt>
      <trkpt lat="45.98474" lon="4.79721">
        <ele>243</ele>
        <time>2018-07-08T10:11:45Z</time>
      </trkpt>
      <trkpt lat="45.98482" lon="4.79722">
        <ele>243</ele>
        <time>2018-07-08T10:11:48Z</time>
      </trkpt>
      <trkpt lat="45.98485" lon="4.79722">
        <ele>243</ele>
        <time>2018-07-08T10:11:49Z</time>
      </trkpt>
      <trkpt lat="45.98493" lon="4.79723">
        <ele>243</ele>
        <time>2018-07-08T10:11:52Z</time>
      </trkpt>
      <trkpt lat="45.98496" lon="4.79724">
        <ele>243</ele>
        <time>2018-07-08T10:11:53Z</time>
      </trkpt>
      <trkpt lat="45.98504" lon="4.79724">
        <ele>244</ele>
        <time>2018-07-08T10:11:56Z</time>
      </trkpt>
      <trkpt lat="45.98507" lon="4.79724">
        <ele>244</ele>
        <time>2018-07-08T10:11:57Z</time>
      </trkpt>
      <trkpt lat="45.98515" lon="4.79724">
        <ele>244</ele>
        <time>2018-07-08T10:12:01Z</time>
      </trkpt>
      <trkpt lat="45.98518" lon="4.79723">
        <ele>244</ele>
        <time>2018-07-08T10:12:02Z</time>
      </trkpt>
      <trkpt lat="45.98527" lon="4.79721">
        <ele>244</ele>
        <time>2018-07-08T10:12:05Z</time>
      </trkpt>
      <trkpt lat="45.9853" lon="4.7972">
        <ele>244</ele>
        <time>2018-07-08T10:12:06Z</time>
      </trkpt>
      <trkpt lat="45.98535" lon="4.79718">
        <ele>244</ele>
        <time>2018-07-08T10:12:08Z</time>
      </trkpt>
      <trkpt lat="45.98538" lon="4.79716">
        <ele>244</ele>
        <time>2018-07-08T10:12:09Z</time>
      </trkpt>
      <trkpt lat="45.98546" lon="4.7971">
        <ele>244</ele>
        <time>2018-07-08T10:12:12Z</time>
      </trkpt>
      <trkpt lat="45.98549" lon="4.79708">
        <ele>244</ele>
        <time>2018-07-08T10:12:13Z</time>
      </trkpt>
      <trkpt lat="45.98556" lon="4.79702">
        <ele>244</ele>
        <time>2018-07-08T10:12:16Z</time>
      </trkpt>
      <trkpt lat="45.98558" lon="4.79699">
        <ele>244</ele>
        <time>2018-07-08T10:12:17Z</time>
      </trkpt>
      <trkpt lat="45.98565" lon="4.79692">
        <ele>244</ele>
        <time>2018-07-08T10:12:20Z</time>
      </trkpt>
      <trkpt lat="45.98567" lon="4.7969">
        <ele>244</ele>
        <time>2018-07-08T10:12:21Z</time>
      </trkpt>
      <trkpt lat="45.98573" lon="4.79681">
        <ele>244</ele>
        <time>2018-07-08T10:12:24Z</time>
      </trkpt>
      <trkpt lat="45.98575" lon="4.79678">
        <ele>245</ele>
        <time>2018-07-08T10:12:25Z</time>
      </trkpt>
      <trkpt lat="45.98579" lon="4.79671">
        <ele>245</ele>
        <time>2018-07-08T10:12:27Z</time>
      </trkpt>
      <trkpt lat="45.98581" lon="4.79668">
        <ele>245</ele>
        <time>2018-07-08T10:12:28Z</time>
      </trkpt>
      <trkpt lat="45.98587" lon="4.79658">
        <ele>245</ele>
        <time>2018-07-08T10:12:31Z</time>
      </trkpt>
      <trkpt lat="45.98589" lon="4.79655">
        <ele>245</ele>
        <time>2018-07-08T10:12:32Z</time>
      </trkpt>
      <trkpt lat="45.98595" lon="4.79647">
        <ele>245</ele>
        <time>2018-07-08T10:12:35Z</time>
      </trkpt>
      <trkpt lat="45.98597" lon="4.79644">
        <ele>245</ele>
        <time>2018-07-08T10:12:36Z</time>
      </trkpt>
      <trkpt lat="45.98604" lon="4.79637">
        <ele>245</ele>
        <time>2018-07-08T10:12:39Z</time>
      </trkpt>
      <trkpt lat="45.98607" lon="4.79635">
        <ele>245</ele>
        <time>2018-07-08T10:12:40Z</time>
      </trkpt>
      <trkpt lat="45.98616" lon="4.79628">
        <ele>245</ele>
        <time>2018-07-08T10:12:41Z</time>
      </trkpt>
      <trkpt lat="45.98622" lon="4.79621">
        <ele>245</ele>
        <time>2018-07-08T10:12:43Z</time>
      </trkpt>
      <trkpt lat="45.98624" lon="4.79615">
        <ele>245</ele>
        <time>2018-07-08T10:12:44Z</time>
      </trkpt>
      <trkpt lat="45.98625" lon="4.79603">
        <ele>245</ele>
        <time>2018-07-08T10:12:46Z</time>
      </trkpt>
      <trkpt lat="45.9862" lon="4.79595">
        <ele>245</ele>
        <time>2018-07-08T10:12:47Z</time>
      </trkpt>
      <trkpt lat="45.98613" lon="4.79588">
        <ele>245</ele>
        <time>2018-07-08T10:12:49Z</time>
      </trkpt>
      <trkpt lat="45.98609" lon="4.79587">
        <ele>245</ele>
        <time>2018-07-08T10:12:50Z</time>
      </trkpt>
      <trkpt lat="45.98604" lon="4.79587">
        <ele>245</ele>
        <time>2018-07-08T10:12:51Z</time>
      </trkpt>
      <trkpt lat="45.98599" lon="4.79589">
        <ele>245</ele>
        <time>2018-07-08T10:12:52Z</time>
      </trkpt>
      <trkpt lat="45.98594" lon="4.7959">
        <ele>245</ele>
        <time>2018-07-08T10:12:53Z</time>
      </trkpt>
      <trkpt lat="45.98589" lon="4.79591">
        <ele>245</ele>
        <time>2018-07-08T10:12:54Z</time>
      </trkpt>
      <trkpt lat="45.98585" lon="4.79589">
        <ele>245</ele>
        <time>2018-07-08T10:12:55Z</time>
      </trkpt>
      <trkpt lat="45.9858" lon="4.79588">
        <ele>245</ele>
        <time>2018-07-08T10:12:56Z</time>
      </trkpt>
      <trkpt lat="45.98575" lon="4.79585">
        <ele>245</ele>
        <time>2018-07-08T10:12:57Z</time>
      </trkpt>
      <trkpt lat="45.98571" lon="4.79583">
        <ele>245</ele>
        <time>2018-07-08T10:12:58Z</time>
      </trkpt>
      <trkpt lat="45.98566" lon="4.79579">
        <ele>244</ele>
        <time>2018-07-08T10:12:59Z</time>
      </trkpt>
      <trkpt lat="45.98561" lon="4.79575">
        <ele>244</ele>
        <time>2018-07-08T10:13:00Z</time>
      </trkpt>
      <trkpt lat="45.98556" lon="4.79571">
        <ele>244</ele>
        <time>2018-07-08T10:13:01Z</time>
      </trkpt>
      <trkpt lat="45.98552" lon="4.79565">
        <ele>244</ele>
        <time>2018-07-08T10:13:02Z</time>
      </trkpt>
      <trkpt lat="45.98548" lon="4.79561">
        <ele>244</ele>
        <time>2018-07-08T10:13:03Z</time>
      </trkpt>
      <trkpt lat="45.98544" lon="4.79554">
        <ele>244</ele>
        <time>2018-07-08T10:13:04Z</time>
      </trkpt>
      <trkpt lat="45.98539" lon="4.79543">
        <ele>244</ele>
        <time>2018-07-08T10:13:06Z</time>
      </trkpt>
      <trkpt lat="45.98535" lon="4.79536">
        <ele>244</ele>
        <time>2018-07-08T10:13:07Z</time>
      </trkpt>
      <trkpt lat="45.98532" lon="4.79528">
        <ele>244</ele>
        <time>2018-07-08T10:13:08Z</time>
      </trkpt>
      <trkpt lat="45.98529" lon="4.79519">
        <ele>244</ele>
        <time>2018-07-08T10:13:09Z</time>
      </trkpt>
      <trkpt lat="45.98526" lon="4.79511">
        <ele>244</ele>
        <time>2018-07-08T10:13:10Z</time>
      </trkpt>
      <trkpt lat="45.98525" lon="4.795">
        <ele>244</ele>
        <time>2018-07-08T10:13:11Z</time>
      </trkpt>
      <trkpt lat="45.98523" lon="4.79492">
        <ele>243</ele>
        <time>2018-07-08T10:13:12Z</time>
      </trkpt>
      <trkpt lat="45.98522" lon="4.79484">
        <ele>244</ele>
        <time>2018-07-08T10:13:13Z</time>
      </trkpt>
      <trkpt lat="45.98522" lon="4.79475">
        <ele>244</ele>
        <time>2018-07-08T10:13:14Z</time>
      </trkpt>
      <trkpt lat="45.98521" lon="4.79466">
        <ele>244</ele>
        <time>2018-07-08T10:13:15Z</time>
      </trkpt>
      <trkpt lat="45.9852" lon="4.79458">
        <ele>244</ele>
        <time>2018-07-08T10:13:16Z</time>
      </trkpt>
      <trkpt lat="45.98519" lon="4.79449">
        <ele>244</ele>
        <time>2018-07-08T10:13:17Z</time>
      </trkpt>
      <trkpt lat="45.98518" lon="4.79442">
        <ele>244</ele>
        <time>2018-07-08T10:13:18Z</time>
      </trkpt>
      <trkpt lat="45.98516" lon="4.79433">
        <ele>244</ele>
        <time>2018-07-08T10:13:19Z</time>
      </trkpt>
      <trkpt lat="45.98514" lon="4.79425">
        <ele>244</ele>
        <time>2018-07-08T10:13:20Z</time>
      </trkpt>
      <trkpt lat="45.98514" lon="4.79418">
        <ele>244</ele>
        <time>2018-07-08T10:13:21Z</time>
      </trkpt>
      <trkpt lat="45.98513" lon="4.7941">
        <ele>244</ele>
        <time>2018-07-08T10:13:22Z</time>
      </trkpt>
      <trkpt lat="45.98514" lon="4.79401">
        <ele>244</ele>
        <time>2018-07-08T10:13:23Z</time>
      </trkpt>
      <trkpt lat="45.98514" lon="4.79392">
        <ele>244</ele>
        <time>2018-07-08T10:13:24Z</time>
      </trkpt>
      <trkpt lat="45.98513" lon="4.79383">
        <ele>244</ele>
        <time>2018-07-08T10:13:25Z</time>
      </trkpt>
      <trkpt lat="45.98513" lon="4.79374">
        <ele>243</ele>
        <time>2018-07-08T10:13:26Z</time>
      </trkpt>
      <trkpt lat="45.98511" lon="4.79365">
        <ele>243</ele>
        <time>2018-07-08T10:13:27Z</time>
      </trkpt>
      <trkpt lat="45.9851" lon="4.79356">
        <ele>243</ele>
        <time>2018-07-08T10:13:28Z</time>
      </trkpt>
      <trkpt lat="45.98508" lon="4.79347">
        <ele>243</ele>
        <time>2018-07-08T10:13:29Z</time>
      </trkpt>
      <trkpt lat="45.98506" lon="4.79339">
        <ele>243</ele>
        <time>2018-07-08T10:13:30Z</time>
      </trkpt>
      <trkpt lat="45.98504" lon="4.79332">
        <ele>243</ele>
        <time>2018-07-08T10:13:31Z</time>
      </trkpt>
      <trkpt lat="45.98501" lon="4.79324">
        <ele>243</ele>
        <time>2018-07-08T10:13:32Z</time>
      </trkpt>
      <trkpt lat="45.98499" lon="4.79316">
        <ele>243</ele>
        <time>2018-07-08T10:13:33Z</time>
      </trkpt>
      <trkpt lat="45.98497" lon="4.79309">
        <ele>243</ele>
        <time>2018-07-08T10:13:34Z</time>
      </trkpt>
      <trkpt lat="45.98494" lon="4.79301">
        <ele>243</ele>
        <time>2018-07-08T10:13:35Z</time>
      </trkpt>
      <trkpt lat="45.9849" lon="4.79294">
        <ele>243</ele>
        <time>2018-07-08T10:13:36Z</time>
      </trkpt>
      <trkpt lat="45.98487" lon="4.79285">
        <ele>243</ele>
        <time>2018-07-08T10:13:37Z</time>
      </trkpt>
      <trkpt lat="45.98484" lon="4.79277">
        <ele>243</ele>
        <time>2018-07-08T10:13:38Z</time>
      </trkpt>
      <trkpt lat="45.98481" lon="4.79269">
        <ele>243</ele>
        <time>2018-07-08T10:13:39Z</time>
      </trkpt>
      <trkpt lat="45.98476" lon="4.79261">
        <ele>243</ele>
        <time>2018-07-08T10:13:40Z</time>
      </trkpt>
      <trkpt lat="45.98471" lon="4.79253">
        <ele>243</ele>
        <time>2018-07-08T10:13:41Z</time>
      </trkpt>
      <trkpt lat="45.98467" lon="4.79245">
        <ele>243</ele>
        <time>2018-07-08T10:13:42Z</time>
      </trkpt>
      <trkpt lat="45.98462" lon="4.79236">
        <ele>243</ele>
        <time>2018-07-08T10:13:43Z</time>
      </trkpt>
      <trkpt lat="45.98458" lon="4.79228">
        <ele>243</ele>
        <time>2018-07-08T10:13:44Z</time>
      </trkpt>
      <trkpt lat="45.98453" lon="4.79219">
        <ele>243</ele>
        <time>2018-07-08T10:13:45Z</time>
      </trkpt>
      <trkpt lat="45.98449" lon="4.79211">
        <ele>242</ele>
        <time>2018-07-08T10:13:46Z</time>
      </trkpt>
      <trkpt lat="45.98445" lon="4.79202">
        <ele>242</ele>
        <time>2018-07-08T10:13:47Z</time>
      </trkpt>
      <trkpt lat="45.98441" lon="4.79195">
        <ele>242</ele>
        <time>2018-07-08T10:13:48Z</time>
      </trkpt>
      <trkpt lat="45.98435" lon="4.79187">
        <ele>242</ele>
        <time>2018-07-08T10:13:49Z</time>
      </trkpt>
      <trkpt lat="45.98432" lon="4.79181">
        <ele>242</ele>
        <time>2018-07-08T10:13:50Z</time>
      </trkpt>
      <trkpt lat="45.9843" lon="4.79174">
        <ele>242</ele>
        <time>2018-07-08T10:13:51Z</time>
      </trkpt>
      <trkpt lat="45.98424" lon="4.79167">
        <ele>242</ele>
        <time>2018-07-08T10:13:52Z</time>
      </trkpt>
      <trkpt lat="45.98419" lon="4.7916">
        <ele>242</ele>
        <time>2018-07-08T10:13:53Z</time>
      </trkpt>
      <trkpt lat="45.98415" lon="4.79152">
        <ele>242</ele>
        <time>2018-07-08T10:13:54Z</time>
      </trkpt>
      <trkpt lat="45.98411" lon="4.79144">
        <ele>242</ele>
        <time>2018-07-08T10:13:55Z</time>
      </trkpt>
      <trkpt lat="45.98408" lon="4.79137">
        <ele>242</ele>
        <time>2018-07-08T10:13:56Z</time>
      </trkpt>
      <trkpt lat="45.98404" lon="4.7913">
        <ele>242</ele>
        <time>2018-07-08T10:13:57Z</time>
      </trkpt>
      <trkpt lat="45.984" lon="4.79123">
        <ele>242</ele>
        <time>2018-07-08T10:13:58Z</time>
      </trkpt>
      <trkpt lat="45.98397" lon="4.79116">
        <ele>242</ele>
        <time>2018-07-08T10:13:59Z</time>
      </trkpt>
      <trkpt lat="45.98394" lon="4.79109">
        <ele>242</ele>
        <time>2018-07-08T10:14:00Z</time>
      </trkpt>
      <trkpt lat="45.9839" lon="4.79103">
        <ele>242</ele>
        <time>2018-07-08T10:14:01Z</time>
      </trkpt>
      <trkpt lat="45.98386" lon="4.79095">
        <ele>242</ele>
        <time>2018-07-08T10:14:02Z</time>
      </trkpt>
      <trkpt lat="45.9838" lon="4.79088">
        <ele>242</ele>
        <time>2018-07-08T10:14:03Z</time>
      </trkpt>
      <trkpt lat="45.98376" lon="4.7908">
        <ele>242</ele>
        <time>2018-07-08T10:14:04Z</time>
      </trkpt>
      <trkpt lat="45.98373" lon="4.79073">
        <ele>242</ele>
        <time>2018-07-08T10:14:05Z</time>
      </trkpt>
      <trkpt lat="45.98368" lon="4.79065">
        <ele>242</ele>
        <time>2018-07-08T10:14:06Z</time>
      </trkpt>
      <trkpt lat="45.98363" lon="4.79057">
        <ele>242</ele>
        <time>2018-07-08T10:14:07Z</time>
      </trkpt>
      <trkpt lat="45.9836" lon="4.79048">
        <ele>242</ele>
        <time>2018-07-08T10:14:08Z</time>
      </trkpt>
      <trkpt lat="45.98354" lon="4.79042">
        <ele>242</ele>
        <time>2018-07-08T10:14:09Z</time>
      </trkpt>
      <trkpt lat="45.98348" lon="4.79033">
        <ele>242</ele>
        <time>2018-07-08T10:14:10Z</time>
      </trkpt>
      <trkpt lat="45.98343" lon="4.79026">
        <ele>242</ele>
        <time>2018-07-08T10:14:11Z</time>
      </trkpt>
      <trkpt lat="45.98338" lon="4.7902">
        <ele>242</ele>
        <time>2018-07-08T10:14:12Z</time>
      </trkpt>
      <trkpt lat="45.98335" lon="4.79015">
        <ele>242</ele>
        <time>2018-07-08T10:14:13Z</time>
      </trkpt>
      <trkpt lat="45.98325" lon="4.7901">
        <ele>242</ele>
        <time>2018-07-08T10:14:14Z</time>
      </trkpt>
      <trkpt lat="45.98315" lon="4.79003">
        <ele>242</ele>
        <time>2018-07-08T10:14:15Z</time>
      </trkpt>
      <trkpt lat="45.98308" lon="4.78999">
        <ele>241</ele>
        <time>2018-07-08T10:14:16Z</time>
      </trkpt>
      <trkpt lat="45.98305" lon="4.78996">
        <ele>241</ele>
        <time>2018-07-08T10:14:17Z</time>
      </trkpt>
      <trkpt lat="45.98299" lon="4.78992">
        <ele>241</ele>
        <time>2018-07-08T10:14:18Z</time>
      </trkpt>
      <trkpt lat="45.98293" lon="4.7899">
        <ele>241</ele>
        <time>2018-07-08T10:14:19Z</time>
      </trkpt>
      <trkpt lat="45.98287" lon="4.78986">
        <ele>241</ele>
        <time>2018-07-08T10:14:20Z</time>
      </trkpt>
      <trkpt lat="45.98281" lon="4.78983">
        <ele>241</ele>
        <time>2018-07-08T10:14:21Z</time>
      </trkpt>
      <trkpt lat="45.98275" lon="4.7898">
        <ele>241</ele>
        <time>2018-07-08T10:14:22Z</time>
      </trkpt>
      <trkpt lat="45.98269" lon="4.78975">
        <ele>241</ele>
        <time>2018-07-08T10:14:23Z</time>
      </trkpt>
      <trkpt lat="45.98264" lon="4.78973">
        <ele>241</ele>
        <time>2018-07-08T10:14:24Z</time>
      </trkpt>
      <trkpt lat="45.98258" lon="4.7897">
        <ele>241</ele>
        <time>2018-07-08T10:14:25Z</time>
      </trkpt>
      <trkpt lat="45.98252" lon="4.78966">
        <ele>241</ele>
        <time>2018-07-08T10:14:26Z</time>
      </trkpt>
      <trkpt lat="45.98246" lon="4.78961">
        <ele>241</ele>
        <time>2018-07-08T10:14:27Z</time>
      </trkpt>
      <trkpt lat="45.9824" lon="4.78959">
        <ele>241</ele>
        <time>2018-07-08T10:14:28Z</time>
      </trkpt>
      <trkpt lat="45.98233" lon="4.78955">
        <ele>241</ele>
        <time>2018-07-08T10:14:29Z</time>
      </trkpt>
      <trkpt lat="45.98226" lon="4.78951">
        <ele>241</ele>
        <time>2018-07-08T10:14:30Z</time>
      </trkpt>
      <trkpt lat="45.98218" lon="4.78947">
        <ele>241</ele>
        <time>2018-07-08T10:14:31Z</time>
      </trkpt>
      <trkpt lat="45.98212" lon="4.78943">
        <ele>241</ele>
        <time>2018-07-08T10:14:32Z</time>
      </trkpt>
      <trkpt lat="45.98205" lon="4.7894">
        <ele>241</ele>
        <time>2018-07-08T10:14:33Z</time>
      </trkpt>
      <trkpt lat="45.982" lon="4.78935">
        <ele>241</ele>
        <time>2018-07-08T10:14:34Z</time>
      </trkpt>
      <trkpt lat="45.98194" lon="4.7893">
        <ele>241</ele>
        <time>2018-07-08T10:14:35Z</time>
      </trkpt>
      <trkpt lat="45.98187" lon="4.78926">
        <ele>241</ele>
        <time>2018-07-08T10:14:36Z</time>
      </trkpt>
      <trkpt lat="45.98183" lon="4.78923">
        <ele>240</ele>
        <time>2018-07-08T10:14:37Z</time>
      </trkpt>
      <trkpt lat="45.98179" lon="4.7892">
        <ele>240</ele>
        <time>2018-07-08T10:14:38Z</time>
      </trkpt>
      <trkpt lat="45.98173" lon="4.78917">
        <ele>240</ele>
        <time>2018-07-08T10:14:39Z</time>
      </trkpt>
      <trkpt lat="45.98168" lon="4.78914">
        <ele>240</ele>
        <time>2018-07-08T10:14:40Z</time>
      </trkpt>
      <trkpt lat="45.98161" lon="4.78911">
        <ele>240</ele>
        <time>2018-07-08T10:14:41Z</time>
      </trkpt>
      <trkpt lat="45.98155" lon="4.78907">
        <ele>240</ele>
        <time>2018-07-08T10:14:42Z</time>
      </trkpt>
      <trkpt lat="45.98147" lon="4.78903">
        <ele>240</ele>
        <time>2018-07-08T10:14:43Z</time>
      </trkpt>
      <trkpt lat="45.98139" lon="4.78899">
        <ele>240</ele>
        <time>2018-07-08T10:14:44Z</time>
      </trkpt>
      <trkpt lat="45.98132" lon="4.78895">
        <ele>240</ele>
        <time>2018-07-08T10:14:45Z</time>
      </trkpt>
      <trkpt lat="45.98127" lon="4.78891">
        <ele>240</ele>
        <time>2018-07-08T10:14:46Z</time>
      </trkpt>
      <trkpt lat="45.9812" lon="4.78888">
        <ele>240</ele>
        <time>2018-07-08T10:14:47Z</time>
      </trkpt>
      <trkpt lat="45.98115" lon="4.78886">
        <ele>240</ele>
        <time>2018-07-08T10:14:48Z</time>
      </trkpt>
      <trkpt lat="45.98109" lon="4.78883">
        <ele>240</ele>
        <time>2018-07-08T10:14:49Z</time>
      </trkpt>
      <trkpt lat="45.98102" lon="4.7888">
        <ele>240</ele>
        <time>2018-07-08T10:14:50Z</time>
      </trkpt>
      <trkpt lat="45.98097" lon="4.78874">
        <ele>239</ele>
        <time>2018-07-08T10:14:51Z</time>
      </trkpt>
      <trkpt lat="45.98091" lon="4.7887">
        <ele>239</ele>
        <time>2018-07-08T10:14:52Z</time>
      </trkpt>
      <trkpt lat="45.98087" lon="4.78866">
        <ele>239</ele>
        <time>2018-07-08T10:14:53Z</time>
      </trkpt>
      <trkpt lat="45.98079" lon="4.78862">
        <ele>239</ele>
        <time>2018-07-08T10:14:54Z</time>
      </trkpt>
      <trkpt lat="45.98074" lon="4.78857">
        <ele>239</ele>
        <time>2018-07-08T10:14:55Z</time>
      </trkpt>
      <trkpt lat="45.98068" lon="4.78852">
        <ele>239</ele>
        <time>2018-07-08T10:14:56Z</time>
      </trkpt>
      <trkpt lat="45.98062" lon="4.78848">
        <ele>239</ele>
        <time>2018-07-08T10:14:57Z</time>
      </trkpt>
      <trkpt lat="45.98055" lon="4.78842">
        <ele>239</ele>
        <time>2018-07-08T10:14:58Z</time>
      </trkpt>
      <trkpt lat="45.98049" lon="4.78838">
        <ele>238</ele>
        <time>2018-07-08T10:14:59Z</time>
      </trkpt>
      <trkpt lat="45.98042" lon="4.78835">
        <ele>238</ele>
        <time>2018-07-08T10:15:00Z</time>
      </trkpt>
      <trkpt lat="45.98037" lon="4.7883">
        <ele>238</ele>
        <time>2018-07-08T10:15:01Z</time>
      </trkpt>
      <trkpt lat="45.98031" lon="4.78827">
        <ele>238</ele>
        <time>2018-07-08T10:15:02Z</time>
      </trkpt>
      <trkpt lat="45.98025" lon="4.78822">
        <ele>238</ele>
        <time>2018-07-08T10:15:03Z</time>
      </trkpt>
      <trkpt lat="45.9802" lon="4.78818">
        <ele>238</ele>
        <time>2018-07-08T10:15:04Z</time>
      </trkpt>
      <trkpt lat="45.98014" lon="4.78815">
        <ele>238</ele>
        <time>2018-07-08T10:15:05Z</time>
      </trkpt>
      <trkpt lat="45.98008" lon="4.78811">
        <ele>238</ele>
        <time>2018-07-08T10:15:06Z</time>
      </trkpt>
      <trkpt lat="45.98002" lon="4.78807">
        <ele>238</ele>
        <time>2018-07-08T10:15:07Z</time>
      </trkpt>
      <trkpt lat="45.97997" lon="4.78804">
        <ele>238</ele>
        <time>2018-07-08T10:15:08Z</time>
      </trkpt>
      <trkpt lat="45.9799" lon="4.78798">
        <ele>238</ele>
        <time>2018-07-08T10:15:09Z</time>
      </trkpt>
      <trkpt lat="45.97983" lon="4.78793">
        <ele>238</ele>
        <time>2018-07-08T10:15:10Z</time>
      </trkpt>
      <trkpt lat="45.97977" lon="4.7879">
        <ele>238</ele>
        <time>2018-07-08T10:15:11Z</time>
      </trkpt>
      <trkpt lat="45.97972" lon="4.78785">
        <ele>238</ele>
        <time>2018-07-08T10:15:12Z</time>
      </trkpt>
      <trkpt lat="45.97965" lon="4.7878">
        <ele>238</ele>
        <time>2018-07-08T10:15:13Z</time>
      </trkpt>
      <trkpt lat="45.97958" lon="4.78774">
        <ele>238</ele>
        <time>2018-07-08T10:15:14Z</time>
      </trkpt>
      <trkpt lat="45.97952" lon="4.7877">
        <ele>238</ele>
        <time>2018-07-08T10:15:15Z</time>
      </trkpt>
      <trkpt lat="45.97946" lon="4.78766">
        <ele>238</ele>
        <time>2018-07-08T10:15:16Z</time>
      </trkpt>
      <trkpt lat="45.97939" lon="4.78762">
        <ele>238</ele>
        <time>2018-07-08T10:15:17Z</time>
      </trkpt>
      <trkpt lat="45.97931" lon="4.78756">
        <ele>238</ele>
        <time>2018-07-08T10:15:18Z</time>
      </trkpt>
      <trkpt lat="45.97924" lon="4.78752">
        <ele>237</ele>
        <time>2018-07-08T10:15:19Z</time>
      </trkpt>
      <trkpt lat="45.97919" lon="4.78748">
        <ele>237</ele>
        <time>2018-07-08T10:15:20Z</time>
      </trkpt>
      <trkpt lat="45.97914" lon="4.78743">
        <ele>237</ele>
        <time>2018-07-08T10:15:21Z</time>
      </trkpt>
      <trkpt lat="45.97907" lon="4.78739">
        <ele>237</ele>
        <time>2018-07-08T10:15:22Z</time>
      </trkpt>
      <trkpt lat="45.97902" lon="4.78736">
        <ele>237</ele>
        <time>2018-07-08T10:15:23Z</time>
      </trkpt>
      <trkpt lat="45.97895" lon="4.78731">
        <ele>237</ele>
        <time>2018-07-08T10:15:24Z</time>
      </trkpt>
      <trkpt lat="45.97888" lon="4.78727">
        <ele>236</ele>
        <time>2018-07-08T10:15:25Z</time>
      </trkpt>
      <trkpt lat="45.97881" lon="4.78722">
        <ele>236</ele>
        <time>2018-07-08T10:15:26Z</time>
      </trkpt>
      <trkpt lat="45.97875" lon="4.78718">
        <ele>236</ele>
        <time>2018-07-08T10:15:27Z</time>
      </trkpt>
      <trkpt lat="45.97869" lon="4.78712">
        <ele>236</ele>
        <time>2018-07-08T10:15:28Z</time>
      </trkpt>
      <trkpt lat="45.97863" lon="4.78707">
        <ele>236</ele>
        <time>2018-07-08T10:15:29Z</time>
      </trkpt>
      <trkpt lat="45.97855" lon="4.78702">
        <ele>236</ele>
        <time>2018-07-08T10:15:30Z</time>
      </trkpt>
      <trkpt lat="45.97847" lon="4.78697">
        <ele>236</ele>
        <time>2018-07-08T10:15:31Z</time>
      </trkpt>
      <trkpt lat="45.97839" lon="4.78693">
        <ele>236</ele>
        <time>2018-07-08T10:15:32Z</time>
      </trkpt>
      <trkpt lat="45.97832" lon="4.78689">
        <ele>235</ele>
        <time>2018-07-08T10:15:33Z</time>
      </trkpt>
      <trkpt lat="45.97824" lon="4.78685">
        <ele>235</ele>
        <time>2018-07-08T10:15:34Z</time>
      </trkpt>
      <trkpt lat="45.97813" lon="4.78682">
        <ele>235</ele>
        <time>2018-07-08T10:15:35Z</time>
      </trkpt>
      <trkpt lat="45.97805" lon="4.78679">
        <ele>235</ele>
        <time>2018-07-08T10:15:36Z</time>
      </trkpt>
      <trkpt lat="45.97794" lon="4.78674">
        <ele>235</ele>
        <time>2018-07-08T10:15:37Z</time>
      </trkpt>
      <trkpt lat="45.97787" lon="4.78669">
        <ele>235</ele>
        <time>2018-07-08T10:15:38Z</time>
      </trkpt>
      <trkpt lat="45.97781" lon="4.78667">
        <ele>235</ele>
        <time>2018-07-08T10:15:39Z</time>
      </trkpt>
      <trkpt lat="45.97774" lon="4.78664">
        <ele>235</ele>
        <time>2018-07-08T10:15:40Z</time>
      </trkpt>
      <trkpt lat="45.97766" lon="4.78659">
        <ele>235</ele>
        <time>2018-07-08T10:15:41Z</time>
      </trkpt>
      <trkpt lat="45.97759" lon="4.78654">
        <ele>235</ele>
        <time>2018-07-08T10:15:42Z</time>
      </trkpt>
      <trkpt lat="45.97752" lon="4.78651">
        <ele>235</ele>
        <time>2018-07-08T10:15:43Z</time>
      </trkpt>
      <trkpt lat="45.97745" lon="4.78648">
        <ele>234</ele>
        <time>2018-07-08T10:15:44Z</time>
      </trkpt>
      <trkpt lat="45.97737" lon="4.78645">
        <ele>234</ele>
        <time>2018-07-08T10:15:45Z</time>
      </trkpt>
      <trkpt lat="45.9773" lon="4.78641">
        <ele>234</ele>
        <time>2018-07-08T10:15:46Z</time>
      </trkpt>
      <trkpt lat="45.97723" lon="4.78638">
        <ele>234</ele>
        <time>2018-07-08T10:15:47Z</time>
      </trkpt>
      <trkpt lat="45.97715" lon="4.78635">
        <ele>234</ele>
        <time>2018-07-08T10:15:48Z</time>
      </trkpt>
      <trkpt lat="45.97709" lon="4.78632">
        <ele>234</ele>
        <time>2018-07-08T10:15:49Z</time>
      </trkpt>
      <trkpt lat="45.97701" lon="4.78629">
        <ele>234</ele>
        <time>2018-07-08T10:15:50Z</time>
      </trkpt>
      <trkpt lat="45.97693" lon="4.78625">
        <ele>234</ele>
        <time>2018-07-08T10:15:51Z</time>
      </trkpt>
      <trkpt lat="45.97686" lon="4.78622">
        <ele>234</ele>
        <time>2018-07-08T10:15:52Z</time>
      </trkpt>
      <trkpt lat="45.97678" lon="4.78619">
        <ele>234</ele>
        <time>2018-07-08T10:15:53Z</time>
      </trkpt>
      <trkpt lat="45.97671" lon="4.78617">
        <ele>234</ele>
        <time>2018-07-08T10:15:54Z</time>
      </trkpt>
      <trkpt lat="45.97663" lon="4.78614">
        <ele>233</ele>
        <time>2018-07-08T10:15:55Z</time>
      </trkpt>
      <trkpt lat="45.97655" lon="4.78611">
        <ele>233</ele>
        <time>2018-07-08T10:15:56Z</time>
      </trkpt>
      <trkpt lat="45.9765" lon="4.78608">
        <ele>233</ele>
        <time>2018-07-08T10:15:57Z</time>
      </trkpt>
      <trkpt lat="45.97643" lon="4.78605">
        <ele>233</ele>
        <time>2018-07-08T10:15:58Z</time>
      </trkpt>
      <trkpt lat="45.97636" lon="4.78601">
        <ele>233</ele>
        <time>2018-07-08T10:15:59Z</time>
      </trkpt>
      <trkpt lat="45.97629" lon="4.786">
        <ele>233</ele>
        <time>2018-07-08T10:16:00Z</time>
      </trkpt>
      <trkpt lat="45.97623" lon="4.78598">
        <ele>233</ele>
        <time>2018-07-08T10:16:01Z</time>
      </trkpt>
      <trkpt lat="45.97617" lon="4.78594">
        <ele>233</ele>
        <time>2018-07-08T10:16:02Z</time>
      </trkpt>
      <trkpt lat="45.9761" lon="4.78592">
        <ele>233</ele>
        <time>2018-07-08T10:16:03Z</time>
      </trkpt>
      <trkpt lat="45.97604" lon="4.7859">
        <ele>233</ele>
        <time>2018-07-08T10:16:04Z</time>
      </trkpt>
      <trkpt lat="45.97598" lon="4.78586">
        <ele>233</ele>
        <time>2018-07-08T10:16:05Z</time>
      </trkpt>
      <trkpt lat="45.97591" lon="4.78584">
        <ele>233</ele>
        <time>2018-07-08T10:16:06Z</time>
      </trkpt>
      <trkpt lat="45.97584" lon="4.78582">
        <ele>233</ele>
        <time>2018-07-08T10:16:07Z</time>
      </trkpt>
      <trkpt lat="45.97578" lon="4.78581">
        <ele>233</ele>
        <time>2018-07-08T10:16:08Z</time>
      </trkpt>
      <trkpt lat="45.97571" lon="4.78579">
        <ele>233</ele>
        <time>2018-07-08T10:16:09Z</time>
      </trkpt>
      <trkpt lat="45.97563" lon="4.78576">
        <ele>233</ele>
        <time>2018-07-08T10:16:10Z</time>
      </trkpt>
      <trkpt lat="45.97556" lon="4.78573">
        <ele>233</ele>
        <time>2018-07-08T10:16:11Z</time>
      </trkpt>
      <trkpt lat="45.97549" lon="4.78569">
        <ele>234</ele>
        <time>2018-07-08T10:16:12Z</time>
      </trkpt>
      <trkpt lat="45.97542" lon="4.78566">
        <ele>234</ele>
        <time>2018-07-08T10:16:13Z</time>
      </trkpt>
      <trkpt lat="45.97535" lon="4.78563">
        <ele>234</ele>
        <time>2018-07-08T10:16:14Z</time>
      </trkpt>
      <trkpt lat="45.97527" lon="4.78559">
        <ele>234</ele>
        <time>2018-07-08T10:16:15Z</time>
      </trkpt>
      <trkpt lat="45.9752" lon="4.78555">
        <ele>234</ele>
        <time>2018-07-08T10:16:16Z</time>
      </trkpt>
      <trkpt lat="45.97513" lon="4.7855">
        <ele>234</ele>
        <time>2018-07-08T10:16:17Z</time>
      </trkpt>
      <trkpt lat="45.97506" lon="4.78547">
        <ele>234</ele>
        <time>2018-07-08T10:16:18Z</time>
      </trkpt>
      <trkpt lat="45.975" lon="4.78542">
        <ele>233</ele>
        <time>2018-07-08T10:16:19Z</time>
      </trkpt>
      <trkpt lat="45.97494" lon="4.78537">
        <ele>233</ele>
        <time>2018-07-08T10:16:20Z</time>
      </trkpt>
      <trkpt lat="45.97487" lon="4.78533">
        <ele>233</ele>
        <time>2018-07-08T10:16:21Z</time>
      </trkpt>
      <trkpt lat="45.97482" lon="4.78527">
        <ele>233</ele>
        <time>2018-07-08T10:16:22Z</time>
      </trkpt>
      <trkpt lat="45.97475" lon="4.78523">
        <ele>233</ele>
        <time>2018-07-08T10:16:23Z</time>
      </trkpt>
      <trkpt lat="45.9747" lon="4.7852">
        <ele>233</ele>
        <time>2018-07-08T10:16:24Z</time>
      </trkpt>
      <trkpt lat="45.97464" lon="4.78514">
        <ele>233</ele>
        <time>2018-07-08T10:16:25Z</time>
      </trkpt>
      <trkpt lat="45.97458" lon="4.78509">
        <ele>233</ele>
        <time>2018-07-08T10:16:26Z</time>
      </trkpt>
      <trkpt lat="45.97452" lon="4.78505">
        <ele>234</ele>
        <time>2018-07-08T10:16:27Z</time>
      </trkpt>
      <trkpt lat="45.97446" lon="4.78501">
        <ele>234</ele>
        <time>2018-07-08T10:16:28Z</time>
      </trkpt>
      <trkpt lat="45.9744" lon="4.78496">
        <ele>234</ele>
        <time>2018-07-08T10:16:29Z</time>
      </trkpt>
      <trkpt lat="45.97434" lon="4.78491">
        <ele>234</ele>
        <time>2018-07-08T10:16:30Z</time>
      </trkpt>
      <trkpt lat="45.97428" lon="4.78486">
        <ele>234</ele>
        <time>2018-07-08T10:16:31Z</time>
      </trkpt>
      <trkpt lat="45.9742" lon="4.78478">
        <ele>234</ele>
        <time>2018-07-08T10:16:32Z</time>
      </trkpt>
      <trkpt lat="45.97414" lon="4.78472">
        <ele>233</ele>
        <time>2018-07-08T10:16:33Z</time>
      </trkpt>
      <trkpt lat="45.97408" lon="4.78466">
        <ele>233</ele>
        <time>2018-07-08T10:16:34Z</time>
      </trkpt>
      <trkpt lat="45.97403" lon="4.7846">
        <ele>233</ele>
        <time>2018-07-08T10:16:35Z</time>
      </trkpt>
      <trkpt lat="45.97397" lon="4.78453">
        <ele>233</ele>
        <time>2018-07-08T10:16:36Z</time>
      </trkpt>
      <trkpt lat="45.97392" lon="4.78446">
        <ele>233</ele>
        <time>2018-07-08T10:16:37Z</time>
      </trkpt>
      <trkpt lat="45.97386" lon="4.7844">
        <ele>233</ele>
        <time>2018-07-08T10:16:38Z</time>
      </trkpt>
      <trkpt lat="45.97382" lon="4.78435">
        <ele>233</ele>
        <time>2018-07-08T10:16:39Z</time>
      </trkpt>
      <trkpt lat="45.97377" lon="4.78429">
        <ele>233</ele>
        <time>2018-07-08T10:16:40Z</time>
      </trkpt>
      <trkpt lat="45.97371" lon="4.78424">
        <ele>233</ele>
        <time>2018-07-08T10:16:41Z</time>
      </trkpt>
      <trkpt lat="45.97366" lon="4.78419">
        <ele>233</ele>
        <time>2018-07-08T10:16:42Z</time>
      </trkpt>
      <trkpt lat="45.9736" lon="4.78413">
        <ele>233</ele>
        <time>2018-07-08T10:16:43Z</time>
      </trkpt>
      <trkpt lat="45.97354" lon="4.78407">
        <ele>232</ele>
        <time>2018-07-08T10:16:44Z</time>
      </trkpt>
      <trkpt lat="45.97349" lon="4.78402">
        <ele>232</ele>
        <time>2018-07-08T10:16:45Z</time>
      </trkpt>
      <trkpt lat="45.97343" lon="4.78396">
        <ele>232</ele>
        <time>2018-07-08T10:16:46Z</time>
      </trkpt>
      <trkpt lat="45.97338" lon="4.78391">
        <ele>233</ele>
        <time>2018-07-08T10:16:47Z</time>
      </trkpt>
      <trkpt lat="45.97333" lon="4.78386">
        <ele>232</ele>
        <time>2018-07-08T10:16:48Z</time>
      </trkpt>
      <trkpt lat="45.97329" lon="4.7838">
        <ele>232</ele>
        <time>2018-07-08T10:16:49Z</time>
      </trkpt>
      <trkpt lat="45.97324" lon="4.78374">
        <ele>232</ele>
        <time>2018-07-08T10:16:50Z</time>
      </trkpt>
      <trkpt lat="45.97319" lon="4.78369">
        <ele>232</ele>
        <time>2018-07-08T10:16:51Z</time>
      </trkpt>
      <trkpt lat="45.97314" lon="4.78363">
        <ele>232</ele>
        <time>2018-07-08T10:16:52Z</time>
      </trkpt>
      <trkpt lat="45.97309" lon="4.78357">
        <ele>232</ele>
        <time>2018-07-08T10:16:53Z</time>
      </trkpt>
      <trkpt lat="45.97304" lon="4.78351">
        <ele>232</ele>
        <time>2018-07-08T10:16:54Z</time>
      </trkpt>
      <trkpt lat="45.97298" lon="4.78344">
        <ele>232</ele>
        <time>2018-07-08T10:16:55Z</time>
      </trkpt>
      <trkpt lat="45.97294" lon="4.78336">
        <ele>232</ele>
        <time>2018-07-08T10:16:56Z</time>
      </trkpt>
      <trkpt lat="45.97289" lon="4.7833">
        <ele>232</ele>
        <time>2018-07-08T10:16:57Z</time>
      </trkpt>
      <trkpt lat="45.97285" lon="4.78322">
        <ele>232</ele>
        <time>2018-07-08T10:16:58Z</time>
      </trkpt>
      <trkpt lat="45.97279" lon="4.78315">
        <ele>232</ele>
        <time>2018-07-08T10:16:59Z</time>
      </trkpt>
      <trkpt lat="45.97274" lon="4.78307">
        <ele>232</ele>
        <time>2018-07-08T10:17:00Z</time>
      </trkpt>
      <trkpt lat="45.97269" lon="4.783">
        <ele>232</ele>
        <time>2018-07-08T10:17:01Z</time>
      </trkpt>
      <trkpt lat="45.97264" lon="4.78292">
        <ele>232</ele>
        <time>2018-07-08T10:17:02Z</time>
      </trkpt>
      <trkpt lat="45.97259" lon="4.78284">
        <ele>232</ele>
        <time>2018-07-08T10:17:03Z</time>
      </trkpt>
      <trkpt lat="45.97254" lon="4.78277">
        <ele>232</ele>
        <time>2018-07-08T10:17:04Z</time>
      </trkpt>
      <trkpt lat="45.97249" lon="4.78269">
        <ele>231</ele>
        <time>2018-07-08T10:17:05Z</time>
      </trkpt>
      <trkpt lat="45.97243" lon="4.78261">
        <ele>231</ele>
        <time>2018-07-08T10:17:06Z</time>
      </trkpt>
      <trkpt lat="45.97239" lon="4.78253">
        <ele>231</ele>
        <time>2018-07-08T10:17:07Z</time>
      </trkpt>
      <trkpt lat="45.97236" lon="4.78246">
        <ele>231</ele>
        <time>2018-07-08T10:17:08Z</time>
      </trkpt>
      <trkpt lat="45.97232" lon="4.78238">
        <ele>231</ele>
        <time>2018-07-08T10:17:09Z</time>
      </trkpt>
      <trkpt lat="45.97228" lon="4.7823">
        <ele>231</ele>
        <time>2018-07-08T10:17:10Z</time>
      </trkpt>
      <trkpt lat="45.97224" lon="4.78223">
        <ele>231</ele>
        <time>2018-07-08T10:17:11Z</time>
      </trkpt>
      <trkpt lat="45.97217" lon="4.78215">
        <ele>231</ele>
        <time>2018-07-08T10:17:12Z</time>
      </trkpt>
      <trkpt lat="45.97214" lon="4.78207">
        <ele>231</ele>
        <time>2018-07-08T10:17:13Z</time>
      </trkpt>
      <trkpt lat="45.9721" lon="4.78199">
        <ele>231</ele>
        <time>2018-07-08T10:17:14Z</time>
      </trkpt>
      <trkpt lat="45.97207" lon="4.78191">
        <ele>231</ele>
        <time>2018-07-08T10:17:15Z</time>
      </trkpt>
      <trkpt lat="45.97202" lon="4.78183">
        <ele>231</ele>
        <time>2018-07-08T10:17:16Z</time>
      </trkpt>
      <trkpt lat="45.97196" lon="4.78174">
        <ele>231</ele>
        <time>2018-07-08T10:17:17Z</time>
      </trkpt>
      <trkpt lat="45.97192" lon="4.78165">
        <ele>231</ele>
        <time>2018-07-08T10:17:18Z</time>
      </trkpt>
      <trkpt lat="45.97185" lon="4.78156">
        <ele>231</ele>
        <time>2018-07-08T10:17:19Z</time>
      </trkpt>
      <trkpt lat="45.9718" lon="4.78148">
        <ele>231</ele>
        <time>2018-07-08T10:17:20Z</time>
      </trkpt>
      <trkpt lat="45.97176" lon="4.78141">
        <ele>231</ele>
        <time>2018-07-08T10:17:21Z</time>
      </trkpt>
      <trkpt lat="45.97171" lon="4.78132">
        <ele>231</ele>
        <time>2018-07-08T10:17:22Z</time>
      </trkpt>
      <trkpt lat="45.97167" lon="4.78125">
        <ele>230</ele>
        <time>2018-07-08T10:17:23Z</time>
      </trkpt>
      <trkpt lat="45.97162" lon="4.78117">
        <ele>230</ele>
        <time>2018-07-08T10:17:24Z</time>
      </trkpt>
      <trkpt lat="45.97159" lon="4.78109">
        <ele>230</ele>
        <time>2018-07-08T10:17:25Z</time>
      </trkpt>
      <trkpt lat="45.97154" lon="4.78101">
        <ele>230</ele>
        <time>2018-07-08T10:17:26Z</time>
      </trkpt>
      <trkpt lat="45.9715" lon="4.78094">
        <ele>230</ele>
        <time>2018-07-08T10:17:27Z</time>
      </trkpt>
      <trkpt lat="45.97145" lon="4.78088">
        <ele>230</ele>
        <time>2018-07-08T10:17:28Z</time>
      </trkpt>
      <trkpt lat="45.9714" lon="4.78081">
        <ele>230</ele>
        <time>2018-07-08T10:17:29Z</time>
      </trkpt>
      <trkpt lat="45.97135" lon="4.78074">
        <ele>230</ele>
        <time>2018-07-08T10:17:30Z</time>
      </trkpt>
      <trkpt lat="45.9713" lon="4.78066">
        <ele>230</ele>
        <time>2018-07-08T10:17:31Z</time>
      </trkpt>
      <trkpt lat="45.97125" lon="4.78059">
        <ele>229</ele>
        <time>2018-07-08T10:17:32Z</time>
      </trkpt>
      <trkpt lat="45.97119" lon="4.78051">
        <ele>229</ele>
        <time>2018-07-08T10:17:33Z</time>
      </trkpt>
      <trkpt lat="45.97113" lon="4.78044">
        <ele>229</ele>
        <time>2018-07-08T10:17:34Z</time>
      </trkpt>
      <trkpt lat="45.97107" lon="4.78038">
        <ele>229</ele>
        <time>2018-07-08T10:17:35Z</time>
      </trkpt>
      <trkpt lat="45.97101" lon="4.78032">
        <ele>229</ele>
        <time>2018-07-08T10:17:36Z</time>
      </trkpt>
      <trkpt lat="45.97095" lon="4.78026">
        <ele>229</ele>
        <time>2018-07-08T10:17:37Z</time>
      </trkpt>
      <trkpt lat="45.97088" lon="4.78021">
        <ele>229</ele>
        <time>2018-07-08T10:17:38Z</time>
      </trkpt>
      <trkpt lat="45.9708" lon="4.78014">
        <ele>229</ele>
        <time>2018-07-08T10:17:39Z</time>
      </trkpt>
      <trkpt lat="45.97074" lon="4.78008">
        <ele>229</ele>
        <time>2018-07-08T10:17:40Z</time>
      </trkpt>
      <trkpt lat="45.97067" lon="4.78001">
        <ele>229</ele>
        <time>2018-07-08T10:17:41Z</time>
      </trkpt>
      <trkpt lat="45.9706" lon="4.77994">
        <ele>229</ele>
        <time>2018-07-08T10:17:42Z</time>
      </trkpt>
      <trkpt lat="45.97053" lon="4.77987">
        <ele>229</ele>
        <time>2018-07-08T10:17:43Z</time>
      </trkpt>
      <trkpt lat="45.97047" lon="4.7798">
        <ele>229</ele>
        <time>2018-07-08T10:17:44Z</time>
      </trkpt>
      <trkpt lat="45.9704" lon="4.77972">
        <ele>229</ele>
        <time>2018-07-08T10:17:45Z</time>
      </trkpt>
      <trkpt lat="45.97033" lon="4.77965">
        <ele>229</ele>
        <time>2018-07-08T10:17:46Z</time>
      </trkpt>
      <trkpt lat="45.97027" lon="4.77958">
        <ele>228</ele>
        <time>2018-07-08T10:17:47Z</time>
      </trkpt>
      <trkpt lat="45.9702" lon="4.77951">
        <ele>228</ele>
        <time>2018-07-08T10:17:48Z</time>
      </trkpt>
      <trkpt lat="45.97014" lon="4.77944">
        <ele>228</ele>
        <time>2018-07-08T10:17:49Z</time>
      </trkpt>
      <trkpt lat="45.97008" lon="4.77935">
        <ele>228</ele>
        <time>2018-07-08T10:17:50Z</time>
      </trkpt>
      <trkpt lat="45.97003" lon="4.77928">
        <ele>228</ele>
        <time>2018-07-08T10:17:51Z</time>
      </trkpt>
      <trkpt lat="45.96996" lon="4.7792">
        <ele>227</ele>
        <time>2018-07-08T10:17:52Z</time>
      </trkpt>
      <trkpt lat="45.96991" lon="4.77913">
        <ele>227</ele>
        <time>2018-07-08T10:17:53Z</time>
      </trkpt>
      <trkpt lat="45.96985" lon="4.77906">
        <ele>227</ele>
        <time>2018-07-08T10:17:54Z</time>
      </trkpt>
      <trkpt lat="45.96979" lon="4.77899">
        <ele>228</ele>
        <time>2018-07-08T10:17:55Z</time>
      </trkpt>
      <trkpt lat="45.96974" lon="4.77892">
        <ele>228</ele>
        <time>2018-07-08T10:17:56Z</time>
      </trkpt>
      <trkpt lat="45.96968" lon="4.77884">
        <ele>228</ele>
        <time>2018-07-08T10:17:57Z</time>
      </trkpt>
      <trkpt lat="45.96962" lon="4.77876">
        <ele>228</ele>
        <time>2018-07-08T10:17:58Z</time>
      </trkpt>
      <trkpt lat="45.96957" lon="4.77869">
        <ele>228</ele>
        <time>2018-07-08T10:17:59Z</time>
      </trkpt>
      <trkpt lat="45.96951" lon="4.77862">
        <ele>228</ele>
        <time>2018-07-08T10:18:00Z</time>
      </trkpt>
      <trkpt lat="45.96945" lon="4.77855">
        <ele>228</ele>
        <time>2018-07-08T10:18:01Z</time>
      </trkpt>
      <trkpt lat="45.96938" lon="4.77848">
        <ele>228</ele>
        <time>2018-07-08T10:18:02Z</time>
      </trkpt>
      <trkpt lat="45.96932" lon="4.7784">
        <ele>228</ele>
        <time>2018-07-08T10:18:03Z</time>
      </trkpt>
      <trkpt lat="45.96925" lon="4.77833">
        <ele>228</ele>
        <time>2018-07-08T10:18:04Z</time>
      </trkpt>
      <trkpt lat="45.96919" lon="4.77826">
        <ele>228</ele>
        <time>2018-07-08T10:18:05Z</time>
      </trkpt>
      <trkpt lat="45.96912" lon="4.77821">
        <ele>228</ele>
        <time>2018-07-08T10:18:06Z</time>
      </trkpt>
      <trkpt lat="45.96905" lon="4.77814">
        <ele>228</ele>
        <time>2018-07-08T10:18:07Z</time>
      </trkpt>
      <trkpt lat="45.96899" lon="4.77807">
        <ele>228</ele>
        <time>2018-07-08T10:18:08Z</time>
      </trkpt>
      <trkpt lat="45.96892" lon="4.77801">
        <ele>228</ele>
        <time>2018-07-08T10:18:09Z</time>
      </trkpt>
      <trkpt lat="45.96887" lon="4.77795">
        <ele>228</ele>
        <time>2018-07-08T10:18:10Z</time>
      </trkpt>
      <trkpt lat="45.96881" lon="4.77788">
        <ele>228</ele>
        <time>2018-07-08T10:18:11Z</time>
      </trkpt>
      <trkpt lat="45.96873" lon="4.77783">
        <ele>228</ele>
        <time>2018-07-08T10:18:12Z</time>
      </trkpt>
      <trkpt lat="45.96867" lon="4.77777">
        <ele>228</ele>
        <time>2018-07-08T10:18:13Z</time>
      </trkpt>
      <trkpt lat="45.96861" lon="4.7777">
        <ele>228</ele>
        <time>2018-07-08T10:18:14Z</time>
      </trkpt>
      <trkpt lat="45.96855" lon="4.77765">
        <ele>228</ele>
        <time>2018-07-08T10:18:15Z</time>
      </trkpt>
      <trkpt lat="45.96849" lon="4.77758">
        <ele>228</ele>
        <time>2018-07-08T10:18:16Z</time>
      </trkpt>
      <trkpt lat="45.96842" lon="4.77753">
        <ele>228</ele>
        <time>2018-07-08T10:18:17Z</time>
      </trkpt>
      <trkpt lat="45.96836" lon="4.77747">
        <ele>228</ele>
        <time>2018-07-08T10:18:18Z</time>
      </trkpt>
      <trkpt lat="45.9683" lon="4.77741">
        <ele>228</ele>
        <time>2018-07-08T10:18:19Z</time>
      </trkpt>
      <trkpt lat="45.96825" lon="4.77734">
        <ele>228</ele>
        <time>2018-07-08T10:18:20Z</time>
      </trkpt>
      <trkpt lat="45.96819" lon="4.77727">
        <ele>228</ele>
        <time>2018-07-08T10:18:21Z</time>
      </trkpt>
      <trkpt lat="45.96812" lon="4.77721">
        <ele>228</ele>
        <time>2018-07-08T10:18:22Z</time>
      </trkpt>
      <trkpt lat="45.96807" lon="4.77715">
        <ele>228</ele>
        <time>2018-07-08T10:18:23Z</time>
      </trkpt>
      <trkpt lat="45.96802" lon="4.77709">
        <ele>228</ele>
        <time>2018-07-08T10:18:24Z</time>
      </trkpt>
      <trkpt lat="45.96797" lon="4.77702">
        <ele>228</ele>
        <time>2018-07-08T10:18:25Z</time>
      </trkpt>
      <trkpt lat="45.96791" lon="4.77695">
        <ele>227</ele>
        <time>2018-07-08T10:18:26Z</time>
      </trkpt>
      <trkpt lat="45.96786" lon="4.77688">
        <ele>227</ele>
        <time>2018-07-08T10:18:27Z</time>
      </trkpt>
      <trkpt lat="45.9678" lon="4.77682">
        <ele>227</ele>
        <time>2018-07-08T10:18:28Z</time>
      </trkpt>
      <trkpt lat="45.96774" lon="4.77676">
        <ele>227</ele>
        <time>2018-07-08T10:18:29Z</time>
      </trkpt>
      <trkpt lat="45.96769" lon="4.7767">
        <ele>227</ele>
        <time>2018-07-08T10:18:30Z</time>
      </trkpt>
      <trkpt lat="45.96764" lon="4.77663">
        <ele>227</ele>
        <time>2018-07-08T10:18:31Z</time>
      </trkpt>
      <trkpt lat="45.96759" lon="4.77657">
        <ele>227</ele>
        <time>2018-07-08T10:18:32Z</time>
      </trkpt>
      <trkpt lat="45.96754" lon="4.77651">
        <ele>227</ele>
        <time>2018-07-08T10:18:33Z</time>
      </trkpt>
      <trkpt lat="45.9675" lon="4.77644">
        <ele>227</ele>
        <time>2018-07-08T10:18:34Z</time>
      </trkpt>
      <trkpt lat="45.96745" lon="4.77637">
        <ele>227</ele>
        <time>2018-07-08T10:18:35Z</time>
      </trkpt>
      <trkpt lat="45.96739" lon="4.77631">
        <ele>227</ele>
        <time>2018-07-08T10:18:36Z</time>
      </trkpt>
      <trkpt lat="45.96734" lon="4.77625">
        <ele>226</ele>
        <time>2018-07-08T10:18:37Z</time>
      </trkpt>
      <trkpt lat="45.96728" lon="4.77619">
        <ele>226</ele>
        <time>2018-07-08T10:18:38Z</time>
      </trkpt>
      <trkpt lat="45.96724" lon="4.77613">
        <ele>226</ele>
        <time>2018-07-08T10:18:39Z</time>
      </trkpt>
      <trkpt lat="45.96718" lon="4.77607">
        <ele>226</ele>
        <time>2018-07-08T10:18:40Z</time>
      </trkpt>
      <trkpt lat="45.96712" lon="4.77601">
        <ele>226</ele>
        <time>2018-07-08T10:18:41Z</time>
      </trkpt>
      <trkpt lat="45.96705" lon="4.77594">
        <ele>226</ele>
        <time>2018-07-08T10:18:42Z</time>
      </trkpt>
      <trkpt lat="45.96699" lon="4.77587">
        <ele>226</ele>
        <time>2018-07-08T10:18:43Z</time>
      </trkpt>
      <trkpt lat="45.96692" lon="4.77581">
        <ele>225</ele>
        <time>2018-07-08T10:18:44Z</time>
      </trkpt>
      <trkpt lat="45.96687" lon="4.77574">
        <ele>225</ele>
        <time>2018-07-08T10:18:45Z</time>
      </trkpt>
      <trkpt lat="45.96681" lon="4.77569">
        <ele>225</ele>
        <time>2018-07-08T10:18:46Z</time>
      </trkpt>
      <trkpt lat="45.96675" lon="4.77564">
        <ele>225</ele>
        <time>2018-07-08T10:18:47Z</time>
      </trkpt>
      <trkpt lat="45.96671" lon="4.7756">
        <ele>225</ele>
        <time>2018-07-08T10:18:48Z</time>
      </trkpt>
      <trkpt lat="45.96661" lon="4.77556">
        <ele>224</ele>
        <time>2018-07-08T10:18:49Z</time>
      </trkpt>
      <trkpt lat="45.96655" lon="4.77552">
        <ele>224</ele>
        <time>2018-07-08T10:18:50Z</time>
      </trkpt>
      <trkpt lat="45.96649" lon="4.77546">
        <ele>224</ele>
        <time>2018-07-08T10:18:51Z</time>
      </trkpt>
      <trkpt lat="45.96641" lon="4.7754">
        <ele>224</ele>
        <time>2018-07-08T10:18:52Z</time>
      </trkpt>
      <trkpt lat="45.96634" lon="4.77536">
        <ele>224</ele>
        <time>2018-07-08T10:18:53Z</time>
      </trkpt>
      <trkpt lat="45.96628" lon="4.77529">
        <ele>224</ele>
        <time>2018-07-08T10:18:54Z</time>
      </trkpt>
      <trkpt lat="45.96621" lon="4.77525">
        <ele>224</ele>
        <time>2018-07-08T10:18:55Z</time>
      </trkpt>
      <trkpt lat="45.96614" lon="4.7752">
        <ele>224</ele>
        <time>2018-07-08T10:18:56Z</time>
      </trkpt>
      <trkpt lat="45.96607" lon="4.77515">
        <ele>224</ele>
        <time>2018-07-08T10:18:57Z</time>
      </trkpt>
      <trkpt lat="45.96601" lon="4.77511">
        <ele>224</ele>
        <time>2018-07-08T10:18:58Z</time>
      </trkpt>
      <trkpt lat="45.96594" lon="4.77507">
        <ele>224</ele>
        <time>2018-07-08T10:18:59Z</time>
      </trkpt>
      <trkpt lat="45.96587" lon="4.77502">
        <ele>224</ele>
        <time>2018-07-08T10:19:00Z</time>
      </trkpt>
      <trkpt lat="45.9658" lon="4.77499">
        <ele>224</ele>
        <time>2018-07-08T10:19:01Z</time>
      </trkpt>
      <trkpt lat="45.9657" lon="4.77493">
        <ele>224</ele>
        <time>2018-07-08T10:19:02Z</time>
      </trkpt>
      <trkpt lat="45.96562" lon="4.77488">
        <ele>224</ele>
        <time>2018-07-08T10:19:03Z</time>
      </trkpt>
      <trkpt lat="45.96555" lon="4.77483">
        <ele>224</ele>
        <time>2018-07-08T10:19:04Z</time>
      </trkpt>
      <trkpt lat="45.96549" lon="4.77479">
        <ele>223</ele>
        <time>2018-07-08T10:19:05Z</time>
      </trkpt>
      <trkpt lat="45.96543" lon="4.77473">
        <ele>223</ele>
        <time>2018-07-08T10:19:06Z</time>
      </trkpt>
      <trkpt lat="45.96536" lon="4.77469">
        <ele>223</ele>
        <time>2018-07-08T10:19:07Z</time>
      </trkpt>
      <trkpt lat="45.96529" lon="4.77465">
        <ele>223</ele>
        <time>2018-07-08T10:19:08Z</time>
      </trkpt>
      <trkpt lat="45.96522" lon="4.77461">
        <ele>223</ele>
        <time>2018-07-08T10:19:09Z</time>
      </trkpt>
      <trkpt lat="45.96517" lon="4.77457">
        <ele>223</ele>
        <time>2018-07-08T10:19:10Z</time>
      </trkpt>
      <trkpt lat="45.9651" lon="4.77453">
        <ele>223</ele>
        <time>2018-07-08T10:19:11Z</time>
      </trkpt>
      <trkpt lat="45.96503" lon="4.77449">
        <ele>223</ele>
        <time>2018-07-08T10:19:12Z</time>
      </trkpt>
      <trkpt lat="45.96495" lon="4.77444">
        <ele>222</ele>
        <time>2018-07-08T10:19:13Z</time>
      </trkpt>
      <trkpt lat="45.96487" lon="4.7744">
        <ele>222</ele>
        <time>2018-07-08T10:19:14Z</time>
      </trkpt>
      <trkpt lat="45.9648" lon="4.77436">
        <ele>222</ele>
        <time>2018-07-08T10:19:15Z</time>
      </trkpt>
      <trkpt lat="45.96473" lon="4.77432">
        <ele>221</ele>
        <time>2018-07-08T10:19:16Z</time>
      </trkpt>
      <trkpt lat="45.96466" lon="4.77427">
        <ele>221</ele>
        <time>2018-07-08T10:19:17Z</time>
      </trkpt>
      <trkpt lat="45.9646" lon="4.77423">
        <ele>221</ele>
        <time>2018-07-08T10:19:18Z</time>
      </trkpt>
      <trkpt lat="45.96453" lon="4.77418">
        <ele>221</ele>
        <time>2018-07-08T10:19:19Z</time>
      </trkpt>
      <trkpt lat="45.96447" lon="4.77414">
        <ele>222</ele>
        <time>2018-07-08T10:19:20Z</time>
      </trkpt>
      <trkpt lat="45.96439" lon="4.77409">
        <ele>222</ele>
        <time>2018-07-08T10:19:21Z</time>
      </trkpt>
      <trkpt lat="45.96432" lon="4.77406">
        <ele>222</ele>
        <time>2018-07-08T10:19:22Z</time>
      </trkpt>
      <trkpt lat="45.96423" lon="4.77402">
        <ele>222</ele>
        <time>2018-07-08T10:19:23Z</time>
      </trkpt>
      <trkpt lat="45.96415" lon="4.77397">
        <ele>220</ele>
        <time>2018-07-08T10:19:24Z</time>
      </trkpt>
      <trkpt lat="45.96407" lon="4.77393">
        <ele>220</ele>
        <time>2018-07-08T10:19:25Z</time>
      </trkpt>
      <trkpt lat="45.96399" lon="4.77388">
        <ele>220</ele>
        <time>2018-07-08T10:19:26Z</time>
      </trkpt>
      <trkpt lat="45.96392" lon="4.77385">
        <ele>220</ele>
        <time>2018-07-08T10:19:27Z</time>
      </trkpt>
      <trkpt lat="45.96384" lon="4.7738">
        <ele>220</ele>
        <time>2018-07-08T10:19:28Z</time>
      </trkpt>
      <trkpt lat="45.96375" lon="4.77375">
        <ele>220</ele>
        <time>2018-07-08T10:19:29Z</time>
      </trkpt>
      <trkpt lat="45.96367" lon="4.7737">
        <ele>219</ele>
        <time>2018-07-08T10:19:30Z</time>
      </trkpt>
      <trkpt lat="45.9636" lon="4.77364">
        <ele>219</ele>
        <time>2018-07-08T10:19:31Z</time>
      </trkpt>
      <trkpt lat="45.96352" lon="4.77359">
        <ele>219</ele>
        <time>2018-07-08T10:19:32Z</time>
      </trkpt>
      <trkpt lat="45.96344" lon="4.77354">
        <ele>219</ele>
        <time>2018-07-08T10:19:33Z</time>
      </trkpt>
      <trkpt lat="45.96336" lon="4.7735">
        <ele>220</ele>
        <time>2018-07-08T10:19:34Z</time>
      </trkpt>
      <trkpt lat="45.96326" lon="4.77344">
        <ele>218</ele>
        <time>2018-07-08T10:19:35Z</time>
      </trkpt>
      <trkpt lat="45.96318" lon="4.77339">
        <ele>218</ele>
        <time>2018-07-08T10:19:36Z</time>
      </trkpt>
      <trkpt lat="45.96311" lon="4.77334">
        <ele>218</ele>
        <time>2018-07-08T10:19:37Z</time>
      </trkpt>
      <trkpt lat="45.96299" lon="4.7733">
        <ele>219</ele>
        <time>2018-07-08T10:19:38Z</time>
      </trkpt>
      <trkpt lat="45.96292" lon="4.77324">
        <ele>219</ele>
        <time>2018-07-08T10:19:39Z</time>
      </trkpt>
      <trkpt lat="45.96285" lon="4.7732">
        <ele>219</ele>
        <time>2018-07-08T10:19:40Z</time>
      </trkpt>
      <trkpt lat="45.96275" lon="4.77315">
        <ele>219</ele>
        <time>2018-07-08T10:19:41Z</time>
      </trkpt>
      <trkpt lat="45.96267" lon="4.77311">
        <ele>218</ele>
        <time>2018-07-08T10:19:42Z</time>
      </trkpt>
      <trkpt lat="45.96259" lon="4.77309">
        <ele>218</ele>
        <time>2018-07-08T10:19:43Z</time>
      </trkpt>
      <trkpt lat="45.96251" lon="4.77305">
        <ele>219</ele>
        <time>2018-07-08T10:19:44Z</time>
      </trkpt>
      <trkpt lat="45.96244" lon="4.77301">
        <ele>217</ele>
        <time>2018-07-08T10:19:45Z</time>
      </trkpt>
      <trkpt lat="45.96236" lon="4.77297">
        <ele>217</ele>
        <time>2018-07-08T10:19:46Z</time>
      </trkpt>
      <trkpt lat="45.96229" lon="4.77293">
        <ele>217</ele>
        <time>2018-07-08T10:19:47Z</time>
      </trkpt>
      <trkpt lat="45.96221" lon="4.77289">
        <ele>217</ele>
        <time>2018-07-08T10:19:48Z</time>
      </trkpt>
      <trkpt lat="45.96214" lon="4.77284">
        <ele>217</ele>
        <time>2018-07-08T10:19:49Z</time>
      </trkpt>
      <trkpt lat="45.96206" lon="4.77279">
        <ele>217</ele>
        <time>2018-07-08T10:19:50Z</time>
      </trkpt>
      <trkpt lat="45.96199" lon="4.77274">
        <ele>216</ele>
        <time>2018-07-08T10:19:51Z</time>
      </trkpt>
      <trkpt lat="45.96191" lon="4.77269">
        <ele>216</ele>
        <time>2018-07-08T10:19:52Z</time>
      </trkpt>
      <trkpt lat="45.96184" lon="4.77264">
        <ele>216</ele>
        <time>2018-07-08T10:19:53Z</time>
      </trkpt>
      <trkpt lat="45.96176" lon="4.7726">
        <ele>216</ele>
        <time>2018-07-08T10:19:54Z</time>
      </trkpt>
      <trkpt lat="45.96168" lon="4.77256">
        <ele>216</ele>
        <time>2018-07-08T10:19:55Z</time>
      </trkpt>
      <trkpt lat="45.9616" lon="4.77252">
        <ele>215</ele>
        <time>2018-07-08T10:19:56Z</time>
      </trkpt>
      <trkpt lat="45.96152" lon="4.77248">
        <ele>215</ele>
        <time>2018-07-08T10:19:57Z</time>
      </trkpt>
      <trkpt lat="45.96144" lon="4.77245">
        <ele>215</ele>
        <time>2018-07-08T10:19:58Z</time>
      </trkpt>
      <trkpt lat="45.96134" lon="4.77241">
        <ele>215</ele>
        <time>2018-07-08T10:19:59Z</time>
      </trkpt>
      <trkpt lat="45.96126" lon="4.77239">
        <ele>214</ele>
        <time>2018-07-08T10:20:00Z</time>
      </trkpt>
      <trkpt lat="45.96118" lon="4.77238">
        <ele>214</ele>
        <time>2018-07-08T10:20:01Z</time>
      </trkpt>
      <trkpt lat="45.96109" lon="4.77237">
        <ele>214</ele>
        <time>2018-07-08T10:20:02Z</time>
      </trkpt>
      <trkpt lat="45.961" lon="4.77237">
        <ele>213</ele>
        <time>2018-07-08T10:20:03Z</time>
      </trkpt>
      <trkpt lat="45.96093" lon="4.77237">
        <ele>212</ele>
        <time>2018-07-08T10:20:04Z</time>
      </trkpt>
      <trkpt lat="45.96083" lon="4.77237">
        <ele>210</ele>
        <time>2018-07-08T10:20:05Z</time>
      </trkpt>
      <trkpt lat="45.96074" lon="4.77239">
        <ele>210</ele>
        <time>2018-07-08T10:20:06Z</time>
      </trkpt>
      <trkpt lat="45.96065" lon="4.7724">
        <ele>209</ele>
        <time>2018-07-08T10:20:07Z</time>
      </trkpt>
      <trkpt lat="45.96056" lon="4.77241">
        <ele>209</ele>
        <time>2018-07-08T10:20:08Z</time>
      </trkpt>
      <trkpt lat="45.96047" lon="4.77242">
        <ele>209</ele>
        <time>2018-07-08T10:20:09Z</time>
      </trkpt>
      <trkpt lat="45.96037" lon="4.77244">
        <ele>208</ele>
        <time>2018-07-08T10:20:10Z</time>
      </trkpt>
      <trkpt lat="45.96026" lon="4.77245">
        <ele>207</ele>
        <time>2018-07-08T10:20:11Z</time>
      </trkpt>
      <trkpt lat="45.96015" lon="4.77246">
        <ele>206</ele>
        <time>2018-07-08T10:20:12Z</time>
      </trkpt>
      <trkpt lat="45.96005" lon="4.77243">
        <ele>205</ele>
        <time>2018-07-08T10:20:13Z</time>
      </trkpt>
      <trkpt lat="45.95995" lon="4.77241">
        <ele>203</ele>
        <time>2018-07-08T10:20:14Z</time>
      </trkpt>
      <trkpt lat="45.95985" lon="4.77237">
        <ele>202</ele>
        <time>2018-07-08T10:20:15Z</time>
      </trkpt>
      <trkpt lat="45.95979" lon="4.7723">
        <ele>202</ele>
        <time>2018-07-08T10:20:16Z</time>
      </trkpt>
      <trkpt lat="45.95971" lon="4.77223">
        <ele>202</ele>
        <time>2018-07-08T10:20:17Z</time>
      </trkpt>
      <trkpt lat="45.95965" lon="4.77214">
        <ele>202</ele>
        <time>2018-07-08T10:20:18Z</time>
      </trkpt>
      <trkpt lat="45.95959" lon="4.77203">
        <ele>201</ele>
        <time>2018-07-08T10:20:19Z</time>
      </trkpt>
      <trkpt lat="45.95953" lon="4.77192">
        <ele>201</ele>
        <time>2018-07-08T10:20:20Z</time>
      </trkpt>
      <trkpt lat="45.95949" lon="4.7718">
        <ele>201</ele>
        <time>2018-07-08T10:20:21Z</time>
      </trkpt>
      <trkpt lat="45.95947" lon="4.77168">
        <ele>200</ele>
        <time>2018-07-08T10:20:22Z</time>
      </trkpt>
      <trkpt lat="45.95946" lon="4.77155">
        <ele>201</ele>
        <time>2018-07-08T10:20:23Z</time>
      </trkpt>
      <trkpt lat="45.95945" lon="4.77141">
        <ele>201</ele>
        <time>2018-07-08T10:20:24Z</time>
      </trkpt>
      <trkpt lat="45.95945" lon="4.77128">
        <ele>202</ele>
        <time>2018-07-08T10:20:25Z</time>
      </trkpt>
      <trkpt lat="45.95943" lon="4.77115">
        <ele>201</ele>
        <time>2018-07-08T10:20:26Z</time>
      </trkpt>
      <trkpt lat="45.95944" lon="4.77101">
        <ele>201</ele>
        <time>2018-07-08T10:20:27Z</time>
      </trkpt>
      <trkpt lat="45.95947" lon="4.77088">
        <ele>201</ele>
        <time>2018-07-08T10:20:28Z</time>
      </trkpt>
      <trkpt lat="45.95949" lon="4.77076">
        <ele>200</ele>
        <time>2018-07-08T10:20:29Z</time>
      </trkpt>
      <trkpt lat="45.95954" lon="4.77064">
        <ele>200</ele>
        <time>2018-07-08T10:20:30Z</time>
      </trkpt>
      <trkpt lat="45.95958" lon="4.77052">
        <ele>200</ele>
        <time>2018-07-08T10:20:31Z</time>
      </trkpt>
      <trkpt lat="45.95962" lon="4.7704">
        <ele>200</ele>
        <time>2018-07-08T10:20:32Z</time>
      </trkpt>
      <trkpt lat="45.95966" lon="4.77029">
        <ele>200</ele>
        <time>2018-07-08T10:20:33Z</time>
      </trkpt>
      <trkpt lat="45.95971" lon="4.77017">
        <ele>200</ele>
        <time>2018-07-08T10:20:34Z</time>
      </trkpt>
      <trkpt lat="45.95976" lon="4.77009">
        <ele>200</ele>
        <time>2018-07-08T10:20:35Z</time>
      </trkpt>
      <trkpt lat="45.95979" lon="4.76999">
        <ele>198</ele>
        <time>2018-07-08T10:20:36Z</time>
      </trkpt>
      <trkpt lat="45.95982" lon="4.76987">
        <ele>198</ele>
        <time>2018-07-08T10:20:37Z</time>
      </trkpt>
      <trkpt lat="45.95981" lon="4.76977">
        <ele>197</ele>
        <time>2018-07-08T10:20:38Z</time>
      </trkpt>
      <trkpt lat="45.95981" lon="4.76964">
        <ele>196</ele>
        <time>2018-07-08T10:20:39Z</time>
      </trkpt>
      <trkpt lat="45.95978" lon="4.76952">
        <ele>196</ele>
        <time>2018-07-08T10:20:40Z</time>
      </trkpt>
      <trkpt lat="45.95973" lon="4.76942">
        <ele>196</ele>
        <time>2018-07-08T10:20:41Z</time>
      </trkpt>
      <trkpt lat="45.95965" lon="4.76933">
        <ele>195</ele>
        <time>2018-07-08T10:20:42Z</time>
      </trkpt>
      <trkpt lat="45.95958" lon="4.76924">
        <ele>195</ele>
        <time>2018-07-08T10:20:43Z</time>
      </trkpt>
      <trkpt lat="45.95949" lon="4.76915">
        <ele>193</ele>
        <time>2018-07-08T10:20:44Z</time>
      </trkpt>
      <trkpt lat="45.95942" lon="4.76906">
        <ele>192</ele>
        <time>2018-07-08T10:20:45Z</time>
      </trkpt>
      <trkpt lat="45.95933" lon="4.76898">
        <ele>192</ele>
        <time>2018-07-08T10:20:46Z</time>
      </trkpt>
      <trkpt lat="45.95926" lon="4.7689">
        <ele>192</ele>
        <time>2018-07-08T10:20:47Z</time>
      </trkpt>
      <trkpt lat="45.95918" lon="4.76881">
        <ele>192</ele>
        <time>2018-07-08T10:20:48Z</time>
      </trkpt>
      <trkpt lat="45.95911" lon="4.76872">
        <ele>191</ele>
        <time>2018-07-08T10:20:49Z</time>
      </trkpt>
      <trkpt lat="45.95903" lon="4.76863">
        <ele>191</ele>
        <time>2018-07-08T10:20:50Z</time>
      </trkpt>
      <trkpt lat="45.95897" lon="4.76856">
        <ele>191</ele>
        <time>2018-07-08T10:20:51Z</time>
      </trkpt>
      <trkpt lat="45.95888" lon="4.76847">
        <ele>191</ele>
        <time>2018-07-08T10:20:52Z</time>
      </trkpt>
      <trkpt lat="45.95881" lon="4.76839">
        <ele>191</ele>
        <time>2018-07-08T10:20:53Z</time>
      </trkpt>
      <trkpt lat="45.95873" lon="4.7683">
        <ele>191</ele>
        <time>2018-07-08T10:20:54Z</time>
      </trkpt>
      <trkpt lat="45.95866" lon="4.76822">
        <ele>191</ele>
        <time>2018-07-08T10:20:55Z</time>
      </trkpt>
      <trkpt lat="45.95859" lon="4.76814">
        <ele>191</ele>
        <time>2018-07-08T10:20:56Z</time>
      </trkpt>
      <trkpt lat="45.95852" lon="4.76806">
        <ele>191</ele>
        <time>2018-07-08T10:20:57Z</time>
      </trkpt>
      <trkpt lat="45.95844" lon="4.76799">
        <ele>191</ele>
        <time>2018-07-08T10:20:58Z</time>
      </trkpt>
      <trkpt lat="45.95837" lon="4.76791">
        <ele>191</ele>
        <time>2018-07-08T10:20:59Z</time>
      </trkpt>
      <trkpt lat="45.95832" lon="4.76782">
        <ele>190</ele>
        <time>2018-07-08T10:21:00Z</time>
      </trkpt>
      <trkpt lat="45.95828" lon="4.76771">
        <ele>190</ele>
        <time>2018-07-08T10:21:01Z</time>
      </trkpt>
      <trkpt lat="45.95824" lon="4.7676">
        <ele>190</ele>
        <time>2018-07-08T10:21:02Z</time>
      </trkpt>
      <trkpt lat="45.95822" lon="4.76749">
        <ele>190</ele>
        <time>2018-07-08T10:21:03Z</time>
      </trkpt>
      <trkpt lat="45.95821" lon="4.76738">
        <ele>190</ele>
        <time>2018-07-08T10:21:04Z</time>
      </trkpt>
      <trkpt lat="45.95819" lon="4.76727">
        <ele>190</ele>
        <time>2018-07-08T10:21:05Z</time>
      </trkpt>
      <trkpt lat="45.95818" lon="4.76715">
        <ele>189</ele>
        <time>2018-07-08T10:21:06Z</time>
      </trkpt>
      <trkpt lat="45.95816" lon="4.76705">
        <ele>189</ele>
        <time>2018-07-08T10:21:07Z</time>
      </trkpt>
      <trkpt lat="45.95816" lon="4.76694">
        <ele>189</ele>
        <time>2018-07-08T10:21:08Z</time>
      </trkpt>
      <trkpt lat="45.95815" lon="4.76684">
        <ele>189</ele>
        <time>2018-07-08T10:21:09Z</time>
      </trkpt>
      <trkpt lat="45.95813" lon="4.76673">
        <ele>189</ele>
        <time>2018-07-08T10:21:10Z</time>
      </trkpt>
      <trkpt lat="45.95812" lon="4.76664">
        <ele>188</ele>
        <time>2018-07-08T10:21:11Z</time>
      </trkpt>
      <trkpt lat="45.95812" lon="4.76654">
        <ele>188</ele>
        <time>2018-07-08T10:21:12Z</time>
      </trkpt>
      <trkpt lat="45.95811" lon="4.76644">
        <ele>188</ele>
        <time>2018-07-08T10:21:13Z</time>
      </trkpt>
      <trkpt lat="45.95809" lon="4.76635">
        <ele>188</ele>
        <time>2018-07-08T10:21:14Z</time>
      </trkpt>
      <trkpt lat="45.95808" lon="4.76625">
        <ele>188</ele>
        <time>2018-07-08T10:21:15Z</time>
      </trkpt>
      <trkpt lat="45.95806" lon="4.76616">
        <ele>188</ele>
        <time>2018-07-08T10:21:16Z</time>
      </trkpt>
      <trkpt lat="45.95803" lon="4.76607">
        <ele>188</ele>
        <time>2018-07-08T10:21:17Z</time>
      </trkpt>
      <trkpt lat="45.958" lon="4.76597">
        <ele>187</ele>
        <time>2018-07-08T10:21:18Z</time>
      </trkpt>
      <trkpt lat="45.95799" lon="4.76588">
        <ele>187</ele>
        <time>2018-07-08T10:21:19Z</time>
      </trkpt>
      <trkpt lat="45.95798" lon="4.76579">
        <ele>187</ele>
        <time>2018-07-08T10:21:20Z</time>
      </trkpt>
      <trkpt lat="45.95797" lon="4.76568">
        <ele>187</ele>
        <time>2018-07-08T10:21:21Z</time>
      </trkpt>
      <trkpt lat="45.95796" lon="4.7656">
        <ele>187</ele>
        <time>2018-07-08T10:21:22Z</time>
      </trkpt>
      <trkpt lat="45.95795" lon="4.7655">
        <ele>187</ele>
        <time>2018-07-08T10:21:23Z</time>
      </trkpt>
      <trkpt lat="45.95794" lon="4.76541">
        <ele>187</ele>
        <time>2018-07-08T10:21:24Z</time>
      </trkpt>
      <trkpt lat="45.95792" lon="4.76532">
        <ele>187</ele>
        <time>2018-07-08T10:21:25Z</time>
      </trkpt>
      <trkpt lat="45.95791" lon="4.76524">
        <ele>187</ele>
        <time>2018-07-08T10:21:26Z</time>
      </trkpt>
      <trkpt lat="45.95789" lon="4.76515">
        <ele>187</ele>
        <time>2018-07-08T10:21:27Z</time>
      </trkpt>
      <trkpt lat="45.95788" lon="4.76506">
        <ele>187</ele>
        <time>2018-07-08T10:21:28Z</time>
      </trkpt>
      <trkpt lat="45.95786" lon="4.76497">
        <ele>186</ele>
        <time>2018-07-08T10:21:29Z</time>
      </trkpt>
      <trkpt lat="45.95784" lon="4.76488">
        <ele>186</ele>
        <time>2018-07-08T10:21:30Z</time>
      </trkpt>
      <trkpt lat="45.95783" lon="4.76479">
        <ele>186</ele>
        <time>2018-07-08T10:21:31Z</time>
      </trkpt>
      <trkpt lat="45.95782" lon="4.76469">
        <ele>186</ele>
        <time>2018-07-08T10:21:32Z</time>
      </trkpt>
      <trkpt lat="45.95782" lon="4.76461">
        <ele>186</ele>
        <time>2018-07-08T10:21:33Z</time>
      </trkpt>
      <trkpt lat="45.95781" lon="4.76453">
        <ele>186</ele>
        <time>2018-07-08T10:21:34Z</time>
      </trkpt>
      <trkpt lat="45.9578" lon="4.76444">
        <ele>186</ele>
        <time>2018-07-08T10:21:35Z</time>
      </trkpt>
      <trkpt lat="45.95779" lon="4.76433">
        <ele>186</ele>
        <time>2018-07-08T10:21:36Z</time>
      </trkpt>
      <trkpt lat="45.95778" lon="4.76424">
        <ele>186</ele>
        <time>2018-07-08T10:21:37Z</time>
      </trkpt>
      <trkpt lat="45.95777" lon="4.76415">
        <ele>186</ele>
        <time>2018-07-08T10:21:38Z</time>
      </trkpt>
      <trkpt lat="45.95775" lon="4.76407">
        <ele>186</ele>
        <time>2018-07-08T10:21:39Z</time>
      </trkpt>
      <trkpt lat="45.95774" lon="4.76398">
        <ele>186</ele>
        <time>2018-07-08T10:21:40Z</time>
      </trkpt>
      <trkpt lat="45.95775" lon="4.76389">
        <ele>186</ele>
        <time>2018-07-08T10:21:41Z</time>
      </trkpt>
      <trkpt lat="45.95774" lon="4.76382">
        <ele>186</ele>
        <time>2018-07-08T10:21:42Z</time>
      </trkpt>
      <trkpt lat="45.95774" lon="4.76371">
        <ele>186</ele>
        <time>2018-07-08T10:21:43Z</time>
      </trkpt>
      <trkpt lat="45.95773" lon="4.76361">
        <ele>186</ele>
        <time>2018-07-08T10:21:44Z</time>
      </trkpt>
      <trkpt lat="45.95773" lon="4.76351">
        <ele>186</ele>
        <time>2018-07-08T10:21:45Z</time>
      </trkpt>
      <trkpt lat="45.95771" lon="4.76341">
        <ele>186</ele>
        <time>2018-07-08T10:21:46Z</time>
      </trkpt>
      <trkpt lat="45.95769" lon="4.76331">
        <ele>185</ele>
        <time>2018-07-08T10:21:47Z</time>
      </trkpt>
      <trkpt lat="45.9577" lon="4.76322">
        <ele>185</ele>
        <time>2018-07-08T10:21:48Z</time>
      </trkpt>
      <trkpt lat="45.95769" lon="4.76311">
        <ele>185</ele>
        <time>2018-07-08T10:21:49Z</time>
      </trkpt>
      <trkpt lat="45.95769" lon="4.76301">
        <ele>186</ele>
        <time>2018-07-08T10:21:50Z</time>
      </trkpt>
      <trkpt lat="45.95768" lon="4.76291">
        <ele>186</ele>
        <time>2018-07-08T10:21:51Z</time>
      </trkpt>
      <trkpt lat="45.95767" lon="4.76283">
        <ele>186</ele>
        <time>2018-07-08T10:21:52Z</time>
      </trkpt>
      <trkpt lat="45.95766" lon="4.76273">
        <ele>186</ele>
        <time>2018-07-08T10:21:53Z</time>
      </trkpt>
      <trkpt lat="45.95766" lon="4.76264">
        <ele>185</ele>
        <time>2018-07-08T10:21:54Z</time>
      </trkpt>
      <trkpt lat="45.95764" lon="4.76255">
        <ele>185</ele>
        <time>2018-07-08T10:21:55Z</time>
      </trkpt>
      <trkpt lat="45.95763" lon="4.76246">
        <ele>185</ele>
        <time>2018-07-08T10:21:56Z</time>
      </trkpt>
      <trkpt lat="45.95762" lon="4.76237">
        <ele>186</ele>
        <time>2018-07-08T10:21:57Z</time>
      </trkpt>
      <trkpt lat="45.95761" lon="4.76228">
        <ele>186</ele>
        <time>2018-07-08T10:21:58Z</time>
      </trkpt>
      <trkpt lat="45.95761" lon="4.76218">
        <ele>186</ele>
        <time>2018-07-08T10:21:59Z</time>
      </trkpt>
      <trkpt lat="45.9576" lon="4.76208">
        <ele>186</ele>
        <time>2018-07-08T10:22:00Z</time>
      </trkpt>
      <trkpt lat="45.95759" lon="4.76198">
        <ele>186</ele>
        <time>2018-07-08T10:22:01Z</time>
      </trkpt>
      <trkpt lat="45.95758" lon="4.76188">
        <ele>186</ele>
        <time>2018-07-08T10:22:02Z</time>
      </trkpt>
      <trkpt lat="45.95759" lon="4.76179">
        <ele>185</ele>
        <time>2018-07-08T10:22:03Z</time>
      </trkpt>
      <trkpt lat="45.95758" lon="4.76168">
        <ele>185</ele>
        <time>2018-07-08T10:22:04Z</time>
      </trkpt>
      <trkpt lat="45.95757" lon="4.76158">
        <ele>186</ele>
        <time>2018-07-08T10:22:05Z</time>
      </trkpt>
      <trkpt lat="45.95757" lon="4.76148">
        <ele>186</ele>
        <time>2018-07-08T10:22:06Z</time>
      </trkpt>
      <trkpt lat="45.95756" lon="4.76138">
        <ele>186</ele>
        <time>2018-07-08T10:22:07Z</time>
      </trkpt>
      <trkpt lat="45.95755" lon="4.76128">
        <ele>186</ele>
        <time>2018-07-08T10:22:08Z</time>
      </trkpt>
      <trkpt lat="45.95753" lon="4.7612">
        <ele>186</ele>
        <time>2018-07-08T10:22:09Z</time>
      </trkpt>
      <trkpt lat="45.95752" lon="4.76111">
        <ele>186</ele>
        <time>2018-07-08T10:22:10Z</time>
      </trkpt>
      <trkpt lat="45.9575" lon="4.76101">
        <ele>184</ele>
        <time>2018-07-08T10:22:11Z</time>
      </trkpt>
      <trkpt lat="45.95748" lon="4.76093">
        <ele>185</ele>
        <time>2018-07-08T10:22:12Z</time>
      </trkpt>
      <trkpt lat="45.95747" lon="4.76084">
        <ele>185</ele>
        <time>2018-07-08T10:22:13Z</time>
      </trkpt>
      <trkpt lat="45.95744" lon="4.76077">
        <ele>185</ele>
        <time>2018-07-08T10:22:14Z</time>
      </trkpt>
      <trkpt lat="45.95741" lon="4.7607">
        <ele>185</ele>
        <time>2018-07-08T10:22:15Z</time>
      </trkpt>
      <trkpt lat="45.95737" lon="4.76061">
        <ele>184</ele>
        <time>2018-07-08T10:22:16Z</time>
      </trkpt>
      <trkpt lat="45.95733" lon="4.76052">
        <ele>184</ele>
        <time>2018-07-08T10:22:17Z</time>
      </trkpt>
      <trkpt lat="45.95729" lon="4.76044">
        <ele>184</ele>
        <time>2018-07-08T10:22:18Z</time>
      </trkpt>
      <trkpt lat="45.95726" lon="4.76034">
        <ele>184</ele>
        <time>2018-07-08T10:22:19Z</time>
      </trkpt>
      <trkpt lat="45.95723" lon="4.76025">
        <ele>184</ele>
        <time>2018-07-08T10:22:20Z</time>
      </trkpt>
      <trkpt lat="45.95719" lon="4.76016">
        <ele>184</ele>
        <time>2018-07-08T10:22:21Z</time>
      </trkpt>
      <trkpt lat="45.95716" lon="4.76007">
        <ele>184</ele>
        <time>2018-07-08T10:22:22Z</time>
      </trkpt>
      <trkpt lat="45.95713" lon="4.75999">
        <ele>185</ele>
        <time>2018-07-08T10:22:23Z</time>
      </trkpt>
      <trkpt lat="45.95709" lon="4.75991">
        <ele>185</ele>
        <time>2018-07-08T10:22:24Z</time>
      </trkpt>
      <trkpt lat="45.95706" lon="4.75983">
        <ele>185</ele>
        <time>2018-07-08T10:22:25Z</time>
      </trkpt>
      <trkpt lat="45.95702" lon="4.75976">
        <ele>185</ele>
        <time>2018-07-08T10:22:26Z</time>
      </trkpt>
      <trkpt lat="45.95699" lon="4.75967">
        <ele>185</ele>
        <time>2018-07-08T10:22:27Z</time>
      </trkpt>
      <trkpt lat="45.95695" lon="4.7596">
        <ele>185</ele>
        <time>2018-07-08T10:22:28Z</time>
      </trkpt>
      <trkpt lat="45.95692" lon="4.75952">
        <ele>185</ele>
        <time>2018-07-08T10:22:29Z</time>
      </trkpt>
      <trkpt lat="45.95688" lon="4.75946">
        <ele>185</ele>
        <time>2018-07-08T10:22:30Z</time>
      </trkpt>
      <trkpt lat="45.95686" lon="4.75938">
        <ele>185</ele>
        <time>2018-07-08T10:22:31Z</time>
      </trkpt>
      <trkpt lat="45.95681" lon="4.7593">
        <ele>185</ele>
        <time>2018-07-08T10:22:32Z</time>
      </trkpt>
      <trkpt lat="45.95678" lon="4.75922">
        <ele>185</ele>
        <time>2018-07-08T10:22:33Z</time>
      </trkpt>
      <trkpt lat="45.95674" lon="4.75915">
        <ele>185</ele>
        <time>2018-07-08T10:22:34Z</time>
      </trkpt>
      <trkpt lat="45.95671" lon="4.75906">
        <ele>185</ele>
        <time>2018-07-08T10:22:35Z</time>
      </trkpt>
      <trkpt lat="45.95668" lon="4.75898">
        <ele>185</ele>
        <time>2018-07-08T10:22:36Z</time>
      </trkpt>
      <trkpt lat="45.95665" lon="4.75889">
        <ele>184</ele>
        <time>2018-07-08T10:22:37Z</time>
      </trkpt>
      <trkpt lat="45.95663" lon="4.7588">
        <ele>184</ele>
        <time>2018-07-08T10:22:38Z</time>
      </trkpt>
      <trkpt lat="45.9566" lon="4.75871">
        <ele>184</ele>
        <time>2018-07-08T10:22:39Z</time>
      </trkpt>
      <trkpt lat="45.95658" lon="4.75863">
        <ele>184</ele>
        <time>2018-07-08T10:22:40Z</time>
      </trkpt>
      <trkpt lat="45.95657" lon="4.75854">
        <ele>184</ele>
        <time>2018-07-08T10:22:41Z</time>
      </trkpt>
      <trkpt lat="45.95654" lon="4.75845">
        <ele>185</ele>
        <time>2018-07-08T10:22:42Z</time>
      </trkpt>
      <trkpt lat="45.95651" lon="4.75836">
        <ele>185</ele>
        <time>2018-07-08T10:22:43Z</time>
      </trkpt>
      <trkpt lat="45.9565" lon="4.75828">
        <ele>185</ele>
        <time>2018-07-08T10:22:44Z</time>
      </trkpt>
      <trkpt lat="45.95648" lon="4.75819">
        <ele>185</ele>
        <time>2018-07-08T10:22:45Z</time>
      </trkpt>
      <trkpt lat="45.95645" lon="4.7581">
        <ele>185</ele>
        <time>2018-07-08T10:22:46Z</time>
      </trkpt>
      <trkpt lat="45.95643" lon="4.75801">
        <ele>185</ele>
        <time>2018-07-08T10:22:47Z</time>
      </trkpt>
      <trkpt lat="45.95642" lon="4.75793">
        <ele>185</ele>
        <time>2018-07-08T10:22:48Z</time>
      </trkpt>
      <trkpt lat="45.9564" lon="4.75784">
        <ele>185</ele>
        <time>2018-07-08T10:22:49Z</time>
      </trkpt>
      <trkpt lat="45.9564" lon="4.75775">
        <ele>186</ele>
        <time>2018-07-08T10:22:50Z</time>
      </trkpt>
      <trkpt lat="45.95639" lon="4.75766">
        <ele>186</ele>
        <time>2018-07-08T10:22:51Z</time>
      </trkpt>
      <trkpt lat="45.95638" lon="4.75758">
        <ele>186</ele>
        <time>2018-07-08T10:22:52Z</time>
      </trkpt>
      <trkpt lat="45.95637" lon="4.75749">
        <ele>187</ele>
        <time>2018-07-08T10:22:53Z</time>
      </trkpt>
      <trkpt lat="45.95636" lon="4.75742">
        <ele>187</ele>
        <time>2018-07-08T10:22:54Z</time>
      </trkpt>
      <trkpt lat="45.95633" lon="4.75735">
        <ele>187</ele>
        <time>2018-07-08T10:22:55Z</time>
      </trkpt>
      <trkpt lat="45.95632" lon="4.75726">
        <ele>187</ele>
        <time>2018-07-08T10:22:56Z</time>
      </trkpt>
      <trkpt lat="45.95631" lon="4.75717">
        <ele>187</ele>
        <time>2018-07-08T10:22:57Z</time>
      </trkpt>
      <trkpt lat="45.9563" lon="4.7571">
        <ele>187</ele>
        <time>2018-07-08T10:22:58Z</time>
      </trkpt>
      <trkpt lat="45.95629" lon="4.75701">
        <ele>187</ele>
        <time>2018-07-08T10:22:59Z</time>
      </trkpt>
      <trkpt lat="45.95627" lon="4.75693">
        <ele>187</ele>
        <time>2018-07-08T10:23:00Z</time>
      </trkpt>
      <trkpt lat="45.95626" lon="4.75684">
        <ele>187</ele>
        <time>2018-07-08T10:23:01Z</time>
      </trkpt>
      <trkpt lat="45.95625" lon="4.75676">
        <ele>187</ele>
        <time>2018-07-08T10:23:02Z</time>
      </trkpt>
      <trkpt lat="45.95624" lon="4.75668">
        <ele>187</ele>
        <time>2018-07-08T10:23:03Z</time>
      </trkpt>
      <trkpt lat="45.95623" lon="4.75661">
        <ele>188</ele>
        <time>2018-07-08T10:23:04Z</time>
      </trkpt>
      <trkpt lat="45.95621" lon="4.75655">
        <ele>188</ele>
        <time>2018-07-08T10:23:05Z</time>
      </trkpt>
      <trkpt lat="45.95619" lon="4.75647">
        <ele>188</ele>
        <time>2018-07-08T10:23:06Z</time>
      </trkpt>
      <trkpt lat="45.95617" lon="4.75639">
        <ele>188</ele>
        <time>2018-07-08T10:23:07Z</time>
      </trkpt>
      <trkpt lat="45.95614" lon="4.75632">
        <ele>188</ele>
        <time>2018-07-08T10:23:08Z</time>
      </trkpt>
      <trkpt lat="45.95612" lon="4.75624">
        <ele>188</ele>
        <time>2018-07-08T10:23:09Z</time>
      </trkpt>
      <trkpt lat="45.9561" lon="4.75616">
        <ele>188</ele>
        <time>2018-07-08T10:23:10Z</time>
      </trkpt>
      <trkpt lat="45.95607" lon="4.75608">
        <ele>188</ele>
        <time>2018-07-08T10:23:11Z</time>
      </trkpt>
      <trkpt lat="45.95605" lon="4.75601">
        <ele>187</ele>
        <time>2018-07-08T10:23:12Z</time>
      </trkpt>
      <trkpt lat="45.95602" lon="4.75594">
        <ele>187</ele>
        <time>2018-07-08T10:23:13Z</time>
      </trkpt>
      <trkpt lat="45.95599" lon="4.75586">
        <ele>187</ele>
        <time>2018-07-08T10:23:14Z</time>
      </trkpt>
      <trkpt lat="45.95595" lon="4.7558">
        <ele>187</ele>
        <time>2018-07-08T10:23:15Z</time>
      </trkpt>
      <trkpt lat="45.95592" lon="4.75573">
        <ele>187</ele>
        <time>2018-07-08T10:23:16Z</time>
      </trkpt>
      <trkpt lat="45.95587" lon="4.75566">
        <ele>188</ele>
        <time>2018-07-08T10:23:17Z</time>
      </trkpt>
      <trkpt lat="45.95583" lon="4.75559">
        <ele>186</ele>
        <time>2018-07-08T10:23:18Z</time>
      </trkpt>
      <trkpt lat="45.95578" lon="4.75552">
        <ele>186</ele>
        <time>2018-07-08T10:23:19Z</time>
      </trkpt>
      <trkpt lat="45.95573" lon="4.75545">
        <ele>186</ele>
        <time>2018-07-08T10:23:20Z</time>
      </trkpt>
      <trkpt lat="45.95568" lon="4.7554">
        <ele>186</ele>
        <time>2018-07-08T10:23:21Z</time>
      </trkpt>
      <trkpt lat="45.95563" lon="4.75533">
        <ele>186</ele>
        <time>2018-07-08T10:23:22Z</time>
      </trkpt>
      <trkpt lat="45.95558" lon="4.75527">
        <ele>186</ele>
        <time>2018-07-08T10:23:23Z</time>
      </trkpt>
      <trkpt lat="45.95552" lon="4.75522">
        <ele>186</ele>
        <time>2018-07-08T10:23:24Z</time>
      </trkpt>
      <trkpt lat="45.95548" lon="4.75515">
        <ele>186</ele>
        <time>2018-07-08T10:23:25Z</time>
      </trkpt>
      <trkpt lat="45.95544" lon="4.75508">
        <ele>186</ele>
        <time>2018-07-08T10:23:26Z</time>
      </trkpt>
      <trkpt lat="45.9554" lon="4.75501">
        <ele>186</ele>
        <time>2018-07-08T10:23:27Z</time>
      </trkpt>
      <trkpt lat="45.95537" lon="4.75493">
        <ele>187</ele>
        <time>2018-07-08T10:23:28Z</time>
      </trkpt>
      <trkpt lat="45.95535" lon="4.75484">
        <ele>187</ele>
        <time>2018-07-08T10:23:29Z</time>
      </trkpt>
      <trkpt lat="45.95536" lon="4.75477">
        <ele>187</ele>
        <time>2018-07-08T10:23:30Z</time>
      </trkpt>
      <trkpt lat="45.95536" lon="4.75469">
        <ele>187</ele>
        <time>2018-07-08T10:23:31Z</time>
      </trkpt>
      <trkpt lat="45.95534" lon="4.7546">
        <ele>187</ele>
        <time>2018-07-08T10:23:32Z</time>
      </trkpt>
      <trkpt lat="45.95531" lon="4.75453">
        <ele>187</ele>
        <time>2018-07-08T10:23:33Z</time>
      </trkpt>
      <trkpt lat="45.95527" lon="4.75446">
        <ele>187</ele>
        <time>2018-07-08T10:23:34Z</time>
      </trkpt>
      <trkpt lat="45.95523" lon="4.75439">
        <ele>187</ele>
        <time>2018-07-08T10:23:35Z</time>
      </trkpt>
      <trkpt lat="45.95519" lon="4.75433">
        <ele>187</ele>
        <time>2018-07-08T10:23:36Z</time>
      </trkpt>
      <trkpt lat="45.95514" lon="4.75424">
        <ele>186</ele>
        <time>2018-07-08T10:23:37Z</time>
      </trkpt>
      <trkpt lat="45.95511" lon="4.75415">
        <ele>187</ele>
        <time>2018-07-08T10:23:38Z</time>
      </trkpt>
      <trkpt lat="45.95507" lon="4.75408">
        <ele>187</ele>
        <time>2018-07-08T10:23:39Z</time>
      </trkpt>
      <trkpt lat="45.95505" lon="4.754">
        <ele>187</ele>
        <time>2018-07-08T10:23:40Z</time>
      </trkpt>
      <trkpt lat="45.95502" lon="4.75392">
        <ele>188</ele>
        <time>2018-07-08T10:23:41Z</time>
      </trkpt>
      <trkpt lat="45.95498" lon="4.75384">
        <ele>185</ele>
        <time>2018-07-08T10:23:42Z</time>
      </trkpt>
      <trkpt lat="45.95494" lon="4.75377">
        <ele>185</ele>
        <time>2018-07-08T10:23:43Z</time>
      </trkpt>
      <trkpt lat="45.95491" lon="4.75369">
        <ele>186</ele>
        <time>2018-07-08T10:23:44Z</time>
      </trkpt>
      <trkpt lat="45.95487" lon="4.75362">
        <ele>186</ele>
        <time>2018-07-08T10:23:45Z</time>
      </trkpt>
      <trkpt lat="45.95483" lon="4.75354">
        <ele>186</ele>
        <time>2018-07-08T10:23:46Z</time>
      </trkpt>
      <trkpt lat="45.95479" lon="4.75347">
        <ele>186</ele>
        <time>2018-07-08T10:23:47Z</time>
      </trkpt>
      <trkpt lat="45.95473" lon="4.7534">
        <ele>186</ele>
        <time>2018-07-08T10:23:48Z</time>
      </trkpt>
      <trkpt lat="45.95469" lon="4.75334">
        <ele>186</ele>
        <time>2018-07-08T10:23:49Z</time>
      </trkpt>
      <trkpt lat="45.95466" lon="4.75327">
        <ele>188</ele>
        <time>2018-07-08T10:23:50Z</time>
      </trkpt>
      <trkpt lat="45.95464" lon="4.75321">
        <ele>188</ele>
        <time>2018-07-08T10:23:51Z</time>
      </trkpt>
      <trkpt lat="45.95461" lon="4.75314">
        <ele>188</ele>
        <time>2018-07-08T10:23:52Z</time>
      </trkpt>
      <trkpt lat="45.95458" lon="4.75307">
        <ele>188</ele>
        <time>2018-07-08T10:23:53Z</time>
      </trkpt>
      <trkpt lat="45.95455" lon="4.75301">
        <ele>188</ele>
        <time>2018-07-08T10:23:54Z</time>
      </trkpt>
      <trkpt lat="45.95452" lon="4.75295">
        <ele>188</ele>
        <time>2018-07-08T10:23:55Z</time>
      </trkpt>
      <trkpt lat="45.95449" lon="4.75289">
        <ele>188</ele>
        <time>2018-07-08T10:23:56Z</time>
      </trkpt>
      <trkpt lat="45.95446" lon="4.75283">
        <ele>188</ele>
        <time>2018-07-08T10:23:57Z</time>
      </trkpt>
      <trkpt lat="45.95443" lon="4.75277">
        <ele>189</ele>
        <time>2018-07-08T10:23:58Z</time>
      </trkpt>
      <trkpt lat="45.95441" lon="4.75272">
        <ele>189</ele>
        <time>2018-07-08T10:23:59Z</time>
      </trkpt>
      <trkpt lat="45.95437" lon="4.75266">
        <ele>189</ele>
        <time>2018-07-08T10:24:00Z</time>
      </trkpt>
      <trkpt lat="45.95434" lon="4.7526">
        <ele>189</ele>
        <time>2018-07-08T10:24:01Z</time>
      </trkpt>
      <trkpt lat="45.95432" lon="4.75253">
        <ele>189</ele>
        <time>2018-07-08T10:24:02Z</time>
      </trkpt>
      <trkpt lat="45.95429" lon="4.75247">
        <ele>190</ele>
        <time>2018-07-08T10:24:03Z</time>
      </trkpt>
      <trkpt lat="45.95426" lon="4.75243">
        <ele>190</ele>
        <time>2018-07-08T10:24:04Z</time>
      </trkpt>
      <trkpt lat="45.95423" lon="4.75237">
        <ele>190</ele>
        <time>2018-07-08T10:24:05Z</time>
      </trkpt>
      <trkpt lat="45.95419" lon="4.75231">
        <ele>190</ele>
        <time>2018-07-08T10:24:06Z</time>
      </trkpt>
      <trkpt lat="45.95415" lon="4.75224">
        <ele>189</ele>
        <time>2018-07-08T10:24:07Z</time>
      </trkpt>
      <trkpt lat="45.95412" lon="4.75219">
        <ele>189</ele>
        <time>2018-07-08T10:24:08Z</time>
      </trkpt>
      <trkpt lat="45.95408" lon="4.75214">
        <ele>189</ele>
        <time>2018-07-08T10:24:09Z</time>
      </trkpt>
      <trkpt lat="45.95404" lon="4.75208">
        <ele>189</ele>
        <time>2018-07-08T10:24:10Z</time>
      </trkpt>
      <trkpt lat="45.95399" lon="4.75202">
        <ele>189</ele>
        <time>2018-07-08T10:24:11Z</time>
      </trkpt>
      <trkpt lat="45.95396" lon="4.75196">
        <ele>189</ele>
        <time>2018-07-08T10:24:12Z</time>
      </trkpt>
      <trkpt lat="45.95393" lon="4.7519">
        <ele>189</ele>
        <time>2018-07-08T10:24:13Z</time>
      </trkpt>
      <trkpt lat="45.95391" lon="4.75183">
        <ele>189</ele>
        <time>2018-07-08T10:24:14Z</time>
      </trkpt>
      <trkpt lat="45.95389" lon="4.75176">
        <ele>189</ele>
        <time>2018-07-08T10:24:15Z</time>
      </trkpt>
      <trkpt lat="45.95386" lon="4.75172">
        <ele>189</ele>
        <time>2018-07-08T10:24:16Z</time>
      </trkpt>
      <trkpt lat="45.95382" lon="4.75166">
        <ele>191</ele>
        <time>2018-07-08T10:24:17Z</time>
      </trkpt>
      <trkpt lat="45.95378" lon="4.75161">
        <ele>191</ele>
        <time>2018-07-08T10:24:18Z</time>
      </trkpt>
      <trkpt lat="45.95374" lon="4.75151">
        <ele>191</ele>
        <time>2018-07-08T10:24:20Z</time>
      </trkpt>
      <trkpt lat="45.95371" lon="4.75146">
        <ele>191</ele>
        <time>2018-07-08T10:24:21Z</time>
      </trkpt>
      <trkpt lat="45.95368" lon="4.7514">
        <ele>191</ele>
        <time>2018-07-08T10:24:22Z</time>
      </trkpt>
      <trkpt lat="45.95363" lon="4.75136">
        <ele>191</ele>
        <time>2018-07-08T10:24:23Z</time>
      </trkpt>
      <trkpt lat="45.95359" lon="4.7513">
        <ele>191</ele>
        <time>2018-07-08T10:24:24Z</time>
      </trkpt>
      <trkpt lat="45.95356" lon="4.75126">
        <ele>191</ele>
        <time>2018-07-08T10:24:25Z</time>
      </trkpt>
      <trkpt lat="45.95352" lon="4.75121">
        <ele>191</ele>
        <time>2018-07-08T10:24:26Z</time>
      </trkpt>
      <trkpt lat="45.95349" lon="4.75116">
        <ele>192</ele>
        <time>2018-07-08T10:24:27Z</time>
      </trkpt>
      <trkpt lat="45.95346" lon="4.7511">
        <ele>192</ele>
        <time>2018-07-08T10:24:28Z</time>
      </trkpt>
      <trkpt lat="45.95343" lon="4.75104">
        <ele>192</ele>
        <time>2018-07-08T10:24:29Z</time>
      </trkpt>
      <trkpt lat="45.95341" lon="4.75098">
        <ele>192</ele>
        <time>2018-07-08T10:24:30Z</time>
      </trkpt>
      <trkpt lat="45.95337" lon="4.75092">
        <ele>192</ele>
        <time>2018-07-08T10:24:31Z</time>
      </trkpt>
      <trkpt lat="45.95333" lon="4.75086">
        <ele>192</ele>
        <time>2018-07-08T10:24:32Z</time>
      </trkpt>
      <trkpt lat="45.95331" lon="4.75082">
        <ele>193</ele>
        <time>2018-07-08T10:24:33Z</time>
      </trkpt>
      <trkpt lat="45.95326" lon="4.75076">
        <ele>192</ele>
        <time>2018-07-08T10:24:34Z</time>
      </trkpt>
      <trkpt lat="45.95323" lon="4.75069">
        <ele>192</ele>
        <time>2018-07-08T10:24:35Z</time>
      </trkpt>
      <trkpt lat="45.95318" lon="4.75063">
        <ele>192</ele>
        <time>2018-07-08T10:24:36Z</time>
      </trkpt>
      <trkpt lat="45.95311" lon="4.75057">
        <ele>192</ele>
        <time>2018-07-08T10:24:37Z</time>
      </trkpt>
      <trkpt lat="45.95307" lon="4.75051">
        <ele>192</ele>
        <time>2018-07-08T10:24:38Z</time>
      </trkpt>
      <trkpt lat="45.95303" lon="4.75045">
        <ele>191</ele>
        <time>2018-07-08T10:24:39Z</time>
      </trkpt>
      <trkpt lat="45.95299" lon="4.75038">
        <ele>191</ele>
        <time>2018-07-08T10:24:40Z</time>
      </trkpt>
      <trkpt lat="45.95295" lon="4.75032">
        <ele>191</ele>
        <time>2018-07-08T10:24:41Z</time>
      </trkpt>
      <trkpt lat="45.9529" lon="4.75026">
        <ele>191</ele>
        <time>2018-07-08T10:24:42Z</time>
      </trkpt>
      <trkpt lat="45.95287" lon="4.75019">
        <ele>191</ele>
        <time>2018-07-08T10:24:43Z</time>
      </trkpt>
      <trkpt lat="45.95285" lon="4.75015">
        <ele>191</ele>
        <time>2018-07-08T10:24:44Z</time>
      </trkpt>
      <trkpt lat="45.95281" lon="4.75008">
        <ele>191</ele>
        <time>2018-07-08T10:24:45Z</time>
      </trkpt>
      <trkpt lat="45.95279" lon="4.75003">
        <ele>191</ele>
        <time>2018-07-08T10:24:46Z</time>
      </trkpt>
      <trkpt lat="45.95276" lon="4.74997">
        <ele>192</ele>
        <time>2018-07-08T10:24:47Z</time>
      </trkpt>
      <trkpt lat="45.95273" lon="4.74991">
        <ele>192</ele>
        <time>2018-07-08T10:24:48Z</time>
      </trkpt>
      <trkpt lat="45.95267" lon="4.74985">
        <ele>192</ele>
        <time>2018-07-08T10:24:49Z</time>
      </trkpt>
      <trkpt lat="45.95265" lon="4.74979">
        <ele>192</ele>
        <time>2018-07-08T10:24:50Z</time>
      </trkpt>
      <trkpt lat="45.9526" lon="4.74973">
        <ele>192</ele>
        <time>2018-07-08T10:24:51Z</time>
      </trkpt>
      <trkpt lat="45.95257" lon="4.74967">
        <ele>192</ele>
        <time>2018-07-08T10:24:52Z</time>
      </trkpt>
      <trkpt lat="45.95254" lon="4.74961">
        <ele>192</ele>
        <time>2018-07-08T10:24:53Z</time>
      </trkpt>
      <trkpt lat="45.9525" lon="4.74955">
        <ele>192</ele>
        <time>2018-07-08T10:24:54Z</time>
      </trkpt>
      <trkpt lat="45.95247" lon="4.7495">
        <ele>192</ele>
        <time>2018-07-08T10:24:55Z</time>
      </trkpt>
      <trkpt lat="45.95242" lon="4.74945">
        <ele>192</ele>
        <time>2018-07-08T10:24:56Z</time>
      </trkpt>
      <trkpt lat="45.95238" lon="4.74939">
        <ele>192</ele>
        <time>2018-07-08T10:24:57Z</time>
      </trkpt>
      <trkpt lat="45.95234" lon="4.74934">
        <ele>192</ele>
        <time>2018-07-08T10:24:58Z</time>
      </trkpt>
      <trkpt lat="45.95231" lon="4.74929">
        <ele>192</ele>
        <time>2018-07-08T10:24:59Z</time>
      </trkpt>
      <trkpt lat="45.95227" lon="4.74922">
        <ele>192</ele>
        <time>2018-07-08T10:25:00Z</time>
      </trkpt>
      <trkpt lat="45.95223" lon="4.74915">
        <ele>193</ele>
        <time>2018-07-08T10:25:01Z</time>
      </trkpt>
      <trkpt lat="45.9522" lon="4.74908">
        <ele>193</ele>
        <time>2018-07-08T10:25:02Z</time>
      </trkpt>
      <trkpt lat="45.95215" lon="4.74903">
        <ele>193</ele>
        <time>2018-07-08T10:25:03Z</time>
      </trkpt>
      <trkpt lat="45.95211" lon="4.74898">
        <ele>193</ele>
        <time>2018-07-08T10:25:04Z</time>
      </trkpt>
      <trkpt lat="45.95208" lon="4.74892">
        <ele>194</ele>
        <time>2018-07-08T10:25:05Z</time>
      </trkpt>
      <trkpt lat="45.95204" lon="4.74886">
        <ele>194</ele>
        <time>2018-07-08T10:25:06Z</time>
      </trkpt>
      <trkpt lat="45.952" lon="4.7488">
        <ele>194</ele>
        <time>2018-07-08T10:25:07Z</time>
      </trkpt>
      <trkpt lat="45.95197" lon="4.74873">
        <ele>194</ele>
        <time>2018-07-08T10:25:08Z</time>
      </trkpt>
      <trkpt lat="45.95193" lon="4.74867">
        <ele>194</ele>
        <time>2018-07-08T10:25:09Z</time>
      </trkpt>
      <trkpt lat="45.95187" lon="4.74861">
        <ele>194</ele>
        <time>2018-07-08T10:25:10Z</time>
      </trkpt>
      <trkpt lat="45.95184" lon="4.74855">
        <ele>194</ele>
        <time>2018-07-08T10:25:11Z</time>
      </trkpt>
      <trkpt lat="45.9518" lon="4.74849">
        <ele>194</ele>
        <time>2018-07-08T10:25:12Z</time>
      </trkpt>
      <trkpt lat="45.95176" lon="4.74843">
        <ele>194</ele>
        <time>2018-07-08T10:25:13Z</time>
      </trkpt>
      <trkpt lat="45.95173" lon="4.74837">
        <ele>194</ele>
        <time>2018-07-08T10:25:14Z</time>
      </trkpt>
      <trkpt lat="45.95168" lon="4.74831">
        <ele>194</ele>
        <time>2018-07-08T10:25:15Z</time>
      </trkpt>
      <trkpt lat="45.95166" lon="4.74827">
        <ele>194</ele>
        <time>2018-07-08T10:25:16Z</time>
      </trkpt>
      <trkpt lat="45.95162" lon="4.74822">
        <ele>194</ele>
        <time>2018-07-08T10:25:17Z</time>
      </trkpt>
      <trkpt lat="45.95158" lon="4.74817">
        <ele>194</ele>
        <time>2018-07-08T10:25:18Z</time>
      </trkpt>
      <trkpt lat="45.95155" lon="4.74812">
        <ele>194</ele>
        <time>2018-07-08T10:25:19Z</time>
      </trkpt>
      <trkpt lat="45.95152" lon="4.74806">
        <ele>194</ele>
        <time>2018-07-08T10:25:20Z</time>
      </trkpt>
      <trkpt lat="45.95147" lon="4.74799">
        <ele>194</ele>
        <time>2018-07-08T10:25:21Z</time>
      </trkpt>
      <trkpt lat="45.95142" lon="4.74794">
        <ele>194</ele>
        <time>2018-07-08T10:25:22Z</time>
      </trkpt>
      <trkpt lat="45.95141" lon="4.74786">
        <ele>194</ele>
        <time>2018-07-08T10:25:23Z</time>
      </trkpt>
      <trkpt lat="45.95138" lon="4.7478">
        <ele>194</ele>
        <time>2018-07-08T10:25:24Z</time>
      </trkpt>
      <trkpt lat="45.95134" lon="4.74773">
        <ele>194</ele>
        <time>2018-07-08T10:25:25Z</time>
      </trkpt>
      <trkpt lat="45.95129" lon="4.74767">
        <ele>194</ele>
        <time>2018-07-08T10:25:26Z</time>
      </trkpt>
      <trkpt lat="45.95124" lon="4.7476">
        <ele>194</ele>
        <time>2018-07-08T10:25:27Z</time>
      </trkpt>
      <trkpt lat="45.95121" lon="4.74754">
        <ele>194</ele>
        <time>2018-07-08T10:25:28Z</time>
      </trkpt>
      <trkpt lat="45.95117" lon="4.74746">
        <ele>194</ele>
        <time>2018-07-08T10:25:29Z</time>
      </trkpt>
      <trkpt lat="45.95113" lon="4.74738">
        <ele>194</ele>
        <time>2018-07-08T10:25:30Z</time>
      </trkpt>
      <trkpt lat="45.9511" lon="4.74731">
        <ele>194</ele>
        <time>2018-07-08T10:25:31Z</time>
      </trkpt>
      <trkpt lat="45.95106" lon="4.74723">
        <ele>194</ele>
        <time>2018-07-08T10:25:32Z</time>
      </trkpt>
      <trkpt lat="45.95102" lon="4.74716">
        <ele>194</ele>
        <time>2018-07-08T10:25:33Z</time>
      </trkpt>
      <trkpt lat="45.95098" lon="4.7471">
        <ele>194</ele>
        <time>2018-07-08T10:25:34Z</time>
      </trkpt>
      <trkpt lat="45.95094" lon="4.74704">
        <ele>194</ele>
        <time>2018-07-08T10:25:35Z</time>
      </trkpt>
      <trkpt lat="45.95089" lon="4.74697">
        <ele>194</ele>
        <time>2018-07-08T10:25:36Z</time>
      </trkpt>
      <trkpt lat="45.95084" lon="4.74692">
        <ele>195</ele>
        <time>2018-07-08T10:25:37Z</time>
      </trkpt>
      <trkpt lat="45.9508" lon="4.74685">
        <ele>194</ele>
        <time>2018-07-08T10:25:38Z</time>
      </trkpt>
      <trkpt lat="45.95076" lon="4.74679">
        <ele>194</ele>
        <time>2018-07-08T10:25:39Z</time>
      </trkpt>
      <trkpt lat="45.95073" lon="4.74671">
        <ele>194</ele>
        <time>2018-07-08T10:25:40Z</time>
      </trkpt>
      <trkpt lat="45.95069" lon="4.74665">
        <ele>195</ele>
        <time>2018-07-08T10:25:41Z</time>
      </trkpt>
      <trkpt lat="45.95063" lon="4.74659">
        <ele>195</ele>
        <time>2018-07-08T10:25:42Z</time>
      </trkpt>
      <trkpt lat="45.9506" lon="4.74652">
        <ele>194</ele>
        <time>2018-07-08T10:25:43Z</time>
      </trkpt>
      <trkpt lat="45.95056" lon="4.74644">
        <ele>194</ele>
        <time>2018-07-08T10:25:44Z</time>
      </trkpt>
      <trkpt lat="45.9505" lon="4.74637">
        <ele>194</ele>
        <time>2018-07-08T10:25:45Z</time>
      </trkpt>
      <trkpt lat="45.95046" lon="4.74631">
        <ele>194</ele>
        <time>2018-07-08T10:25:46Z</time>
      </trkpt>
      <trkpt lat="45.95042" lon="4.74624">
        <ele>194</ele>
        <time>2018-07-08T10:25:47Z</time>
      </trkpt>
      <trkpt lat="45.95039" lon="4.74618">
        <ele>194</ele>
        <time>2018-07-08T10:25:48Z</time>
      </trkpt>
      <trkpt lat="45.95036" lon="4.74612">
        <ele>194</ele>
        <time>2018-07-08T10:25:49Z</time>
      </trkpt>
      <trkpt lat="45.95033" lon="4.74605">
        <ele>194</ele>
        <time>2018-07-08T10:25:50Z</time>
      </trkpt>
      <trkpt lat="45.95031" lon="4.74598">
        <ele>194</ele>
        <time>2018-07-08T10:25:51Z</time>
      </trkpt>
      <trkpt lat="45.9503" lon="4.74593">
        <ele>194</ele>
        <time>2018-07-08T10:25:52Z</time>
      </trkpt>
      <trkpt lat="45.95026" lon="4.74586">
        <ele>194</ele>
        <time>2018-07-08T10:25:53Z</time>
      </trkpt>
      <trkpt lat="45.95022" lon="4.74579">
        <ele>194</ele>
        <time>2018-07-08T10:25:54Z</time>
      </trkpt>
      <trkpt lat="45.95018" lon="4.74573">
        <ele>194</ele>
        <time>2018-07-08T10:25:55Z</time>
      </trkpt>
      <trkpt lat="45.95015" lon="4.74565">
        <ele>194</ele>
        <time>2018-07-08T10:25:56Z</time>
      </trkpt>
      <trkpt lat="45.95011" lon="4.74559">
        <ele>194</ele>
        <time>2018-07-08T10:25:57Z</time>
      </trkpt>
      <trkpt lat="45.95007" lon="4.74551">
        <ele>194</ele>
        <time>2018-07-08T10:25:58Z</time>
      </trkpt>
      <trkpt lat="45.95004" lon="4.74545">
        <ele>194</ele>
        <time>2018-07-08T10:25:59Z</time>
      </trkpt>
      <trkpt lat="45.95001" lon="4.74538">
        <ele>194</ele>
        <time>2018-07-08T10:26:00Z</time>
      </trkpt>
      <trkpt lat="45.94997" lon="4.7453">
        <ele>193</ele>
        <time>2018-07-08T10:26:01Z</time>
      </trkpt>
      <trkpt lat="45.94994" lon="4.74522">
        <ele>193</ele>
        <time>2018-07-08T10:26:02Z</time>
      </trkpt>
      <trkpt lat="45.94992" lon="4.74516">
        <ele>193</ele>
        <time>2018-07-08T10:26:03Z</time>
      </trkpt>
      <trkpt lat="45.94989" lon="4.7451">
        <ele>193</ele>
        <time>2018-07-08T10:26:04Z</time>
      </trkpt>
      <trkpt lat="45.94982" lon="4.74504">
        <ele>193</ele>
        <time>2018-07-08T10:26:05Z</time>
      </trkpt>
      <trkpt lat="45.94979" lon="4.74496">
        <ele>193</ele>
        <time>2018-07-08T10:26:06Z</time>
      </trkpt>
      <trkpt lat="45.94975" lon="4.74487">
        <ele>193</ele>
        <time>2018-07-08T10:26:07Z</time>
      </trkpt>
      <trkpt lat="45.9497" lon="4.74479">
        <ele>193</ele>
        <time>2018-07-08T10:26:08Z</time>
      </trkpt>
      <trkpt lat="45.94966" lon="4.7447">
        <ele>193</ele>
        <time>2018-07-08T10:26:09Z</time>
      </trkpt>
      <trkpt lat="45.94963" lon="4.74463">
        <ele>193</ele>
        <time>2018-07-08T10:26:10Z</time>
      </trkpt>
      <trkpt lat="45.94959" lon="4.74456">
        <ele>192</ele>
        <time>2018-07-08T10:26:11Z</time>
      </trkpt>
      <trkpt lat="45.94954" lon="4.74447">
        <ele>192</ele>
        <time>2018-07-08T10:26:12Z</time>
      </trkpt>
      <trkpt lat="45.94949" lon="4.74439">
        <ele>192</ele>
        <time>2018-07-08T10:26:13Z</time>
      </trkpt>
      <trkpt lat="45.94945" lon="4.74431">
        <ele>192</ele>
        <time>2018-07-08T10:26:14Z</time>
      </trkpt>
      <trkpt lat="45.9494" lon="4.74423">
        <ele>192</ele>
        <time>2018-07-08T10:26:15Z</time>
      </trkpt>
      <trkpt lat="45.94936" lon="4.74415">
        <ele>192</ele>
        <time>2018-07-08T10:26:16Z</time>
      </trkpt>
      <trkpt lat="45.94932" lon="4.74407">
        <ele>192</ele>
        <time>2018-07-08T10:26:17Z</time>
      </trkpt>
      <trkpt lat="45.94929" lon="4.744">
        <ele>192</ele>
        <time>2018-07-08T10:26:18Z</time>
      </trkpt>
      <trkpt lat="45.94925" lon="4.74392">
        <ele>192</ele>
        <time>2018-07-08T10:26:19Z</time>
      </trkpt>
      <trkpt lat="45.94921" lon="4.74387">
        <ele>192</ele>
        <time>2018-07-08T10:26:20Z</time>
      </trkpt>
      <trkpt lat="45.94918" lon="4.74379">
        <ele>192</ele>
        <time>2018-07-08T10:26:21Z</time>
      </trkpt>
      <trkpt lat="45.94915" lon="4.7437">
        <ele>191</ele>
        <time>2018-07-08T10:26:22Z</time>
      </trkpt>
      <trkpt lat="45.94911" lon="4.74361">
        <ele>191</ele>
        <time>2018-07-08T10:26:23Z</time>
      </trkpt>
      <trkpt lat="45.94908" lon="4.74354">
        <ele>191</ele>
        <time>2018-07-08T10:26:24Z</time>
      </trkpt>
      <trkpt lat="45.94902" lon="4.74346">
        <ele>191</ele>
        <time>2018-07-08T10:26:25Z</time>
      </trkpt>
      <trkpt lat="45.94898" lon="4.74338">
        <ele>191</ele>
        <time>2018-07-08T10:26:26Z</time>
      </trkpt>
      <trkpt lat="45.94894" lon="4.7433">
        <ele>191</ele>
        <time>2018-07-08T10:26:27Z</time>
      </trkpt>
      <trkpt lat="45.94889" lon="4.74323">
        <ele>191</ele>
        <time>2018-07-08T10:26:28Z</time>
      </trkpt>
      <trkpt lat="45.94885" lon="4.74314">
        <ele>191</ele>
        <time>2018-07-08T10:26:29Z</time>
      </trkpt>
      <trkpt lat="45.94882" lon="4.74305">
        <ele>191</ele>
        <time>2018-07-08T10:26:30Z</time>
      </trkpt>
      <trkpt lat="45.94876" lon="4.74297">
        <ele>191</ele>
        <time>2018-07-08T10:26:31Z</time>
      </trkpt>
      <trkpt lat="45.94871" lon="4.74289">
        <ele>191</ele>
        <time>2018-07-08T10:26:32Z</time>
      </trkpt>
      <trkpt lat="45.94868" lon="4.74282">
        <ele>191</ele>
        <time>2018-07-08T10:26:33Z</time>
      </trkpt>
      <trkpt lat="45.94864" lon="4.74275">
        <ele>190</ele>
        <time>2018-07-08T10:26:34Z</time>
      </trkpt>
      <trkpt lat="45.9486" lon="4.74268">
        <ele>190</ele>
        <time>2018-07-08T10:26:35Z</time>
      </trkpt>
      <trkpt lat="45.94856" lon="4.74261">
        <ele>190</ele>
        <time>2018-07-08T10:26:36Z</time>
      </trkpt>
      <trkpt lat="45.94852" lon="4.74252">
        <ele>190</ele>
        <time>2018-07-08T10:26:37Z</time>
      </trkpt>
      <trkpt lat="45.94848" lon="4.74245">
        <ele>190</ele>
        <time>2018-07-08T10:26:38Z</time>
      </trkpt>
      <trkpt lat="45.94844" lon="4.74236">
        <ele>190</ele>
        <time>2018-07-08T10:26:39Z</time>
      </trkpt>
      <trkpt lat="45.94841" lon="4.74227">
        <ele>190</ele>
        <time>2018-07-08T10:26:40Z</time>
      </trkpt>
      <trkpt lat="45.94837" lon="4.74218">
        <ele>190</ele>
        <time>2018-07-08T10:26:41Z</time>
      </trkpt>
      <trkpt lat="45.94832" lon="4.74211">
        <ele>189</ele>
        <time>2018-07-08T10:26:42Z</time>
      </trkpt>
      <trkpt lat="45.94828" lon="4.74204">
        <ele>189</ele>
        <time>2018-07-08T10:26:43Z</time>
      </trkpt>
      <trkpt lat="45.94825" lon="4.74198">
        <ele>189</ele>
        <time>2018-07-08T10:26:44Z</time>
      </trkpt>
      <trkpt lat="45.9482" lon="4.74191">
        <ele>189</ele>
        <time>2018-07-08T10:26:45Z</time>
      </trkpt>
      <trkpt lat="45.94818" lon="4.74184">
        <ele>189</ele>
        <time>2018-07-08T10:26:46Z</time>
      </trkpt>
      <trkpt lat="45.94814" lon="4.74177">
        <ele>189</ele>
        <time>2018-07-08T10:26:47Z</time>
      </trkpt>
      <trkpt lat="45.9481" lon="4.7417">
        <ele>189</ele>
        <time>2018-07-08T10:26:48Z</time>
      </trkpt>
      <trkpt lat="45.94806" lon="4.74163">
        <ele>189</ele>
        <time>2018-07-08T10:26:49Z</time>
      </trkpt>
      <trkpt lat="45.94804" lon="4.74156">
        <ele>189</ele>
        <time>2018-07-08T10:26:50Z</time>
      </trkpt>
      <trkpt lat="45.94799" lon="4.7415">
        <ele>189</ele>
        <time>2018-07-08T10:26:51Z</time>
      </trkpt>
      <trkpt lat="45.94794" lon="4.74144">
        <ele>189</ele>
        <time>2018-07-08T10:26:52Z</time>
      </trkpt>
      <trkpt lat="45.9479" lon="4.74139">
        <ele>189</ele>
        <time>2018-07-08T10:26:53Z</time>
      </trkpt>
      <trkpt lat="45.94786" lon="4.74133">
        <ele>189</ele>
        <time>2018-07-08T10:26:54Z</time>
      </trkpt>
      <trkpt lat="45.94782" lon="4.74127">
        <ele>189</ele>
        <time>2018-07-08T10:26:55Z</time>
      </trkpt>
      <trkpt lat="45.94777" lon="4.7412">
        <ele>189</ele>
        <time>2018-07-08T10:26:56Z</time>
      </trkpt>
      <trkpt lat="45.94773" lon="4.74114">
        <ele>189</ele>
        <time>2018-07-08T10:26:57Z</time>
      </trkpt>
      <trkpt lat="45.94769" lon="4.74107">
        <ele>189</ele>
        <time>2018-07-08T10:26:58Z</time>
      </trkpt>
      <trkpt lat="45.94764" lon="4.741">
        <ele>189</ele>
        <time>2018-07-08T10:26:59Z</time>
      </trkpt>
      <trkpt lat="45.9476" lon="4.74094">
        <ele>189</ele>
        <time>2018-07-08T10:27:00Z</time>
      </trkpt>
      <trkpt lat="45.94755" lon="4.74088">
        <ele>189</ele>
        <time>2018-07-08T10:27:01Z</time>
      </trkpt>
      <trkpt lat="45.94751" lon="4.74082">
        <ele>189</ele>
        <time>2018-07-08T10:27:02Z</time>
      </trkpt>
      <trkpt lat="45.94746" lon="4.74075">
        <ele>188</ele>
        <time>2018-07-08T10:27:03Z</time>
      </trkpt>
      <trkpt lat="45.94742" lon="4.74069">
        <ele>188</ele>
        <time>2018-07-08T10:27:04Z</time>
      </trkpt>
      <trkpt lat="45.94737" lon="4.74063">
        <ele>188</ele>
        <time>2018-07-08T10:27:05Z</time>
      </trkpt>
      <trkpt lat="45.94731" lon="4.74057">
        <ele>188</ele>
        <time>2018-07-08T10:27:06Z</time>
      </trkpt>
      <trkpt lat="45.94726" lon="4.7405">
        <ele>188</ele>
        <time>2018-07-08T10:27:07Z</time>
      </trkpt>
      <trkpt lat="45.94723" lon="4.74044">
        <ele>187</ele>
        <time>2018-07-08T10:27:08Z</time>
      </trkpt>
      <trkpt lat="45.94719" lon="4.74038">
        <ele>187</ele>
        <time>2018-07-08T10:27:09Z</time>
      </trkpt>
      <trkpt lat="45.94715" lon="4.74031">
        <ele>187</ele>
        <time>2018-07-08T10:27:10Z</time>
      </trkpt>
      <trkpt lat="45.94711" lon="4.74025">
        <ele>187</ele>
        <time>2018-07-08T10:27:11Z</time>
      </trkpt>
      <trkpt lat="45.94704" lon="4.74019">
        <ele>187</ele>
        <time>2018-07-08T10:27:12Z</time>
      </trkpt>
      <trkpt lat="45.947" lon="4.74013">
        <ele>187</ele>
        <time>2018-07-08T10:27:13Z</time>
      </trkpt>
      <trkpt lat="45.94697" lon="4.74008">
        <ele>187</ele>
        <time>2018-07-08T10:27:14Z</time>
      </trkpt>
      <trkpt lat="45.94694" lon="4.74002">
        <ele>187</ele>
        <time>2018-07-08T10:27:15Z</time>
      </trkpt>
      <trkpt lat="45.94689" lon="4.73997">
        <ele>187</ele>
        <time>2018-07-08T10:27:16Z</time>
      </trkpt>
      <trkpt lat="45.94685" lon="4.73991">
        <ele>187</ele>
        <time>2018-07-08T10:27:17Z</time>
      </trkpt>
      <trkpt lat="45.94681" lon="4.73985">
        <ele>187</ele>
        <time>2018-07-08T10:27:18Z</time>
      </trkpt>
      <trkpt lat="45.94676" lon="4.73979">
        <ele>187</ele>
        <time>2018-07-08T10:27:19Z</time>
      </trkpt>
      <trkpt lat="45.94671" lon="4.73974">
        <ele>187</ele>
        <time>2018-07-08T10:27:20Z</time>
      </trkpt>
      <trkpt lat="45.94666" lon="4.73968">
        <ele>187</ele>
        <time>2018-07-08T10:27:21Z</time>
      </trkpt>
      <trkpt lat="45.94662" lon="4.7396">
        <ele>187</ele>
        <time>2018-07-08T10:27:22Z</time>
      </trkpt>
      <trkpt lat="45.94658" lon="4.73956">
        <ele>187</ele>
        <time>2018-07-08T10:27:23Z</time>
      </trkpt>
      <trkpt lat="45.94653" lon="4.73949">
        <ele>187</ele>
        <time>2018-07-08T10:27:24Z</time>
      </trkpt>
      <trkpt lat="45.9465" lon="4.73942">
        <ele>187</ele>
        <time>2018-07-08T10:27:25Z</time>
      </trkpt>
      <trkpt lat="45.94645" lon="4.73935">
        <ele>187</ele>
        <time>2018-07-08T10:27:26Z</time>
      </trkpt>
      <trkpt lat="45.9464" lon="4.73929">
        <ele>187</ele>
        <time>2018-07-08T10:27:27Z</time>
      </trkpt>
      <trkpt lat="45.94635" lon="4.73922">
        <ele>187</ele>
        <time>2018-07-08T10:27:28Z</time>
      </trkpt>
      <trkpt lat="45.94629" lon="4.73917">
        <ele>187</ele>
        <time>2018-07-08T10:27:29Z</time>
      </trkpt>
      <trkpt lat="45.94624" lon="4.73912">
        <ele>187</ele>
        <time>2018-07-08T10:27:30Z</time>
      </trkpt>
      <trkpt lat="45.94618" lon="4.73905">
        <ele>187</ele>
        <time>2018-07-08T10:27:31Z</time>
      </trkpt>
      <trkpt lat="45.94613" lon="4.73899">
        <ele>187</ele>
        <time>2018-07-08T10:27:32Z</time>
      </trkpt>
      <trkpt lat="45.94608" lon="4.73892">
        <ele>187</ele>
        <time>2018-07-08T10:27:33Z</time>
      </trkpt>
      <trkpt lat="45.94603" lon="4.73886">
        <ele>187</ele>
        <time>2018-07-08T10:27:34Z</time>
      </trkpt>
      <trkpt lat="45.94598" lon="4.7388">
        <ele>187</ele>
        <time>2018-07-08T10:27:35Z</time>
      </trkpt>
      <trkpt lat="45.94589" lon="4.73871">
        <ele>187</ele>
        <time>2018-07-08T10:27:36Z</time>
      </trkpt>
      <trkpt lat="45.94582" lon="4.73865">
        <ele>186</ele>
        <time>2018-07-08T10:27:37Z</time>
      </trkpt>
      <trkpt lat="45.94577" lon="4.73859">
        <ele>186</ele>
        <time>2018-07-08T10:27:38Z</time>
      </trkpt>
      <trkpt lat="45.94571" lon="4.73853">
        <ele>186</ele>
        <time>2018-07-08T10:27:39Z</time>
      </trkpt>
      <trkpt lat="45.94566" lon="4.73847">
        <ele>186</ele>
        <time>2018-07-08T10:27:40Z</time>
      </trkpt>
      <trkpt lat="45.9456" lon="4.73841">
        <ele>186</ele>
        <time>2018-07-08T10:27:41Z</time>
      </trkpt>
      <trkpt lat="45.94556" lon="4.73835">
        <ele>186</ele>
        <time>2018-07-08T10:27:42Z</time>
      </trkpt>
      <trkpt lat="45.9455" lon="4.7383">
        <ele>186</ele>
        <time>2018-07-08T10:27:43Z</time>
      </trkpt>
      <trkpt lat="45.94546" lon="4.73826">
        <ele>186</ele>
        <time>2018-07-08T10:27:44Z</time>
      </trkpt>
      <trkpt lat="45.9454" lon="4.73821">
        <ele>186</ele>
        <time>2018-07-08T10:27:45Z</time>
      </trkpt>
      <trkpt lat="45.94534" lon="4.73815">
        <ele>186</ele>
        <time>2018-07-08T10:27:46Z</time>
      </trkpt>
      <trkpt lat="45.94529" lon="4.7381">
        <ele>186</ele>
        <time>2018-07-08T10:27:47Z</time>
      </trkpt>
      <trkpt lat="45.94522" lon="4.73804">
        <ele>186</ele>
        <time>2018-07-08T10:27:48Z</time>
      </trkpt>
      <trkpt lat="45.94517" lon="4.73798">
        <ele>186</ele>
        <time>2018-07-08T10:27:49Z</time>
      </trkpt>
      <trkpt lat="45.94512" lon="4.73793">
        <ele>186</ele>
        <time>2018-07-08T10:27:50Z</time>
      </trkpt>
      <trkpt lat="45.94508" lon="4.73788">
        <ele>186</ele>
        <time>2018-07-08T10:27:51Z</time>
      </trkpt>
      <trkpt lat="45.94502" lon="4.73781">
        <ele>186</ele>
        <time>2018-07-08T10:27:52Z</time>
      </trkpt>
      <trkpt lat="45.94497" lon="4.73776">
        <ele>186</ele>
        <time>2018-07-08T10:27:53Z</time>
      </trkpt>
      <trkpt lat="45.94493" lon="4.73769">
        <ele>186</ele>
        <time>2018-07-08T10:27:54Z</time>
      </trkpt>
      <trkpt lat="45.94489" lon="4.73763">
        <ele>186</ele>
        <time>2018-07-08T10:27:55Z</time>
      </trkpt>
      <trkpt lat="45.94486" lon="4.73755">
        <ele>186</ele>
        <time>2018-07-08T10:27:56Z</time>
      </trkpt>
      <trkpt lat="45.94484" lon="4.73747">
        <ele>186</ele>
        <time>2018-07-08T10:27:57Z</time>
      </trkpt>
      <trkpt lat="45.94484" lon="4.73738">
        <ele>186</ele>
        <time>2018-07-08T10:27:58Z</time>
      </trkpt>
      <trkpt lat="45.94484" lon="4.73729">
        <ele>186</ele>
        <time>2018-07-08T10:27:59Z</time>
      </trkpt>
      <trkpt lat="45.94485" lon="4.7372">
        <ele>186</ele>
        <time>2018-07-08T10:28:00Z</time>
      </trkpt>
      <trkpt lat="45.94485" lon="4.7371">
        <ele>186</ele>
        <time>2018-07-08T10:28:01Z</time>
      </trkpt>
      <trkpt lat="45.94487" lon="4.737">
        <ele>186</ele>
        <time>2018-07-08T10:28:02Z</time>
      </trkpt>
      <trkpt lat="45.94487" lon="4.7369">
        <ele>186</ele>
        <time>2018-07-08T10:28:03Z</time>
      </trkpt>
      <trkpt lat="45.94488" lon="4.7368">
        <ele>186</ele>
        <time>2018-07-08T10:28:04Z</time>
      </trkpt>
      <trkpt lat="45.9449" lon="4.73672">
        <ele>185</ele>
        <time>2018-07-08T10:28:05Z</time>
      </trkpt>
      <trkpt lat="45.94491" lon="4.73663">
        <ele>185</ele>
        <time>2018-07-08T10:28:06Z</time>
      </trkpt>
      <trkpt lat="45.94493" lon="4.73655">
        <ele>185</ele>
        <time>2018-07-08T10:28:07Z</time>
      </trkpt>
      <trkpt lat="45.94494" lon="4.73647">
        <ele>186</ele>
        <time>2018-07-08T10:28:08Z</time>
      </trkpt>
      <trkpt lat="45.94496" lon="4.73641">
        <ele>186</ele>
        <time>2018-07-08T10:28:09Z</time>
      </trkpt>
      <trkpt lat="45.94498" lon="4.73633">
        <ele>186</ele>
        <time>2018-07-08T10:28:10Z</time>
      </trkpt>
      <trkpt lat="45.94499" lon="4.73624">
        <ele>186</ele>
        <time>2018-07-08T10:28:11Z</time>
      </trkpt>
      <trkpt lat="45.94499" lon="4.73616">
        <ele>186</ele>
        <time>2018-07-08T10:28:12Z</time>
      </trkpt>
      <trkpt lat="45.945" lon="4.73608">
        <ele>184</ele>
        <time>2018-07-08T10:28:13Z</time>
      </trkpt>
      <trkpt lat="45.94501" lon="4.73598">
        <ele>184</ele>
        <time>2018-07-08T10:28:14Z</time>
      </trkpt>
      <trkpt lat="45.94503" lon="4.7359">
        <ele>185</ele>
        <time>2018-07-08T10:28:15Z</time>
      </trkpt>
      <trkpt lat="45.94503" lon="4.73583">
        <ele>185</ele>
        <time>2018-07-08T10:28:16Z</time>
      </trkpt>
      <trkpt lat="45.94503" lon="4.73574">
        <ele>184</ele>
        <time>2018-07-08T10:28:17Z</time>
      </trkpt>
      <trkpt lat="45.94503" lon="4.73564">
        <ele>184</ele>
        <time>2018-07-08T10:28:18Z</time>
      </trkpt>
      <trkpt lat="45.94504" lon="4.73555">
        <ele>183</ele>
        <time>2018-07-08T10:28:19Z</time>
      </trkpt>
      <trkpt lat="45.94504" lon="4.73545">
        <ele>183</ele>
        <time>2018-07-08T10:28:20Z</time>
      </trkpt>
      <trkpt lat="45.94504" lon="4.73535">
        <ele>183</ele>
        <time>2018-07-08T10:28:21Z</time>
      </trkpt>
      <trkpt lat="45.94505" lon="4.73525">
        <ele>183</ele>
        <time>2018-07-08T10:28:22Z</time>
      </trkpt>
      <trkpt lat="45.94505" lon="4.73516">
        <ele>183</ele>
        <time>2018-07-08T10:28:23Z</time>
      </trkpt>
      <trkpt lat="45.94506" lon="4.73506">
        <ele>183</ele>
        <time>2018-07-08T10:28:24Z</time>
      </trkpt>
      <trkpt lat="45.94507" lon="4.73495">
        <ele>182</ele>
        <time>2018-07-08T10:28:25Z</time>
      </trkpt>
      <trkpt lat="45.94505" lon="4.73485">
        <ele>182</ele>
        <time>2018-07-08T10:28:26Z</time>
      </trkpt>
      <trkpt lat="45.94506" lon="4.73474">
        <ele>182</ele>
        <time>2018-07-08T10:28:27Z</time>
      </trkpt>
      <trkpt lat="45.94505" lon="4.73462">
        <ele>181</ele>
        <time>2018-07-08T10:28:28Z</time>
      </trkpt>
      <trkpt lat="45.94504" lon="4.73452">
        <ele>181</ele>
        <time>2018-07-08T10:28:29Z</time>
      </trkpt>
      <trkpt lat="45.94507" lon="4.73444">
        <ele>181</ele>
        <time>2018-07-08T10:28:30Z</time>
      </trkpt>
      <trkpt lat="45.94508" lon="4.73433">
        <ele>181</ele>
        <time>2018-07-08T10:28:31Z</time>
      </trkpt>
      <trkpt lat="45.94508" lon="4.73423">
        <ele>180</ele>
        <time>2018-07-08T10:28:32Z</time>
      </trkpt>
      <trkpt lat="45.94507" lon="4.73411">
        <ele>179</ele>
        <time>2018-07-08T10:28:33Z</time>
      </trkpt>
      <trkpt lat="45.94506" lon="4.73401">
        <ele>179</ele>
        <time>2018-07-08T10:28:34Z</time>
      </trkpt>
      <trkpt lat="45.94505" lon="4.7339">
        <ele>179</ele>
        <time>2018-07-08T10:28:35Z</time>
      </trkpt>
      <trkpt lat="45.94504" lon="4.73381">
        <ele>178</ele>
        <time>2018-07-08T10:28:36Z</time>
      </trkpt>
      <trkpt lat="45.94503" lon="4.7337">
        <ele>178</ele>
        <time>2018-07-08T10:28:37Z</time>
      </trkpt>
      <trkpt lat="45.945" lon="4.7336">
        <ele>178</ele>
        <time>2018-07-08T10:28:38Z</time>
      </trkpt>
      <trkpt lat="45.94498" lon="4.73349">
        <ele>178</ele>
        <time>2018-07-08T10:28:39Z</time>
      </trkpt>
      <trkpt lat="45.94497" lon="4.73337">
        <ele>177</ele>
        <time>2018-07-08T10:28:40Z</time>
      </trkpt>
      <trkpt lat="45.94498" lon="4.73326">
        <ele>177</ele>
        <time>2018-07-08T10:28:41Z</time>
      </trkpt>
      <trkpt lat="45.94496" lon="4.73315">
        <ele>177</ele>
        <time>2018-07-08T10:28:42Z</time>
      </trkpt>
      <trkpt lat="45.94493" lon="4.73304">
        <ele>177</ele>
        <time>2018-07-08T10:28:43Z</time>
      </trkpt>
      <trkpt lat="45.9449" lon="4.73292">
        <ele>177</ele>
        <time>2018-07-08T10:28:44Z</time>
      </trkpt>
      <trkpt lat="45.94489" lon="4.7328">
        <ele>177</ele>
        <time>2018-07-08T10:28:45Z</time>
      </trkpt>
      <trkpt lat="45.94486" lon="4.73268">
        <ele>177</ele>
        <time>2018-07-08T10:28:46Z</time>
      </trkpt>
      <trkpt lat="45.94485" lon="4.73255">
        <ele>176</ele>
        <time>2018-07-08T10:28:47Z</time>
      </trkpt>
      <trkpt lat="45.94483" lon="4.73245">
        <ele>175</ele>
        <time>2018-07-08T10:28:48Z</time>
      </trkpt>
      <trkpt lat="45.94482" lon="4.73235">
        <ele>175</ele>
        <time>2018-07-08T10:28:49Z</time>
      </trkpt>
      <trkpt lat="45.94481" lon="4.73222">
        <ele>175</ele>
        <time>2018-07-08T10:28:50Z</time>
      </trkpt>
      <trkpt lat="45.94479" lon="4.73209">
        <ele>175</ele>
        <time>2018-07-08T10:28:51Z</time>
      </trkpt>
      <trkpt lat="45.94478" lon="4.73197">
        <ele>174</ele>
        <time>2018-07-08T10:28:52Z</time>
      </trkpt>
      <trkpt lat="45.94477" lon="4.73184">
        <ele>174</ele>
        <time>2018-07-08T10:28:53Z</time>
      </trkpt>
      <trkpt lat="45.94476" lon="4.73173">
        <ele>174</ele>
        <time>2018-07-08T10:28:54Z</time>
      </trkpt>
      <trkpt lat="45.94474" lon="4.73161">
        <ele>173</ele>
        <time>2018-07-08T10:28:55Z</time>
      </trkpt>
      <trkpt lat="45.94473" lon="4.73149">
        <ele>172</ele>
        <time>2018-07-08T10:28:56Z</time>
      </trkpt>
      <trkpt lat="45.94471" lon="4.73137">
        <ele>172</ele>
        <time>2018-07-08T10:28:57Z</time>
      </trkpt>
      <trkpt lat="45.9447" lon="4.73126">
        <ele>172</ele>
        <time>2018-07-08T10:28:58Z</time>
      </trkpt>
      <trkpt lat="45.94468" lon="4.73116">
        <ele>172</ele>
        <time>2018-07-08T10:28:59Z</time>
      </trkpt>
      <trkpt lat="45.94466" lon="4.73105">
        <ele>172</ele>
        <time>2018-07-08T10:29:00Z</time>
      </trkpt>
      <trkpt lat="45.94464" lon="4.73094">
        <ele>171</ele>
        <time>2018-07-08T10:29:01Z</time>
      </trkpt>
      <trkpt lat="45.94459" lon="4.73082">
        <ele>170</ele>
        <time>2018-07-08T10:29:02Z</time>
      </trkpt>
      <trkpt lat="45.94457" lon="4.73072">
        <ele>170</ele>
        <time>2018-07-08T10:29:03Z</time>
      </trkpt>
      <trkpt lat="45.94455" lon="4.73062">
        <ele>170</ele>
        <time>2018-07-08T10:29:04Z</time>
      </trkpt>
      <trkpt lat="45.94454" lon="4.73054">
        <ele>170</ele>
        <time>2018-07-08T10:29:05Z</time>
      </trkpt>
      <trkpt lat="45.94452" lon="4.73044">
        <ele>169</ele>
        <time>2018-07-08T10:29:06Z</time>
      </trkpt>
      <trkpt lat="45.94451" lon="4.73035">
        <ele>169</ele>
        <time>2018-07-08T10:29:07Z</time>
      </trkpt>
      <trkpt lat="45.94451" lon="4.73027">
        <ele>169</ele>
        <time>2018-07-08T10:29:08Z</time>
      </trkpt>
      <trkpt lat="45.94451" lon="4.73022">
        <ele>169</ele>
        <time>2018-07-08T10:29:09Z</time>
      </trkpt>
      <trkpt lat="45.9445" lon="4.73014">
        <ele>169</ele>
        <time>2018-07-08T10:29:10Z</time>
      </trkpt>
      <trkpt lat="45.9445" lon="4.73007">
        <ele>169</ele>
        <time>2018-07-08T10:29:11Z</time>
      </trkpt>
      <trkpt lat="45.94449" lon="4.72999">
        <ele>167</ele>
        <time>2018-07-08T10:29:12Z</time>
      </trkpt>
      <trkpt lat="45.94449" lon="4.72993">
        <ele>167</ele>
        <time>2018-07-08T10:29:13Z</time>
      </trkpt>
      <trkpt lat="45.94449" lon="4.72986">
        <ele>167</ele>
        <time>2018-07-08T10:29:14Z</time>
      </trkpt>
      <trkpt lat="45.94449" lon="4.72979">
        <ele>167</ele>
        <time>2018-07-08T10:29:15Z</time>
      </trkpt>
      <trkpt lat="45.94447" lon="4.72972">
        <ele>167</ele>
        <time>2018-07-08T10:29:16Z</time>
      </trkpt>
      <trkpt lat="45.94446" lon="4.72965">
        <ele>167</ele>
        <time>2018-07-08T10:29:17Z</time>
      </trkpt>
      <trkpt lat="45.94445" lon="4.72958">
        <ele>167</ele>
        <time>2018-07-08T10:29:18Z</time>
      </trkpt>
      <trkpt lat="45.94443" lon="4.72951">
        <ele>167</ele>
        <time>2018-07-08T10:29:19Z</time>
      </trkpt>
      <trkpt lat="45.94442" lon="4.72944">
        <ele>167</ele>
        <time>2018-07-08T10:29:20Z</time>
      </trkpt>
      <trkpt lat="45.9444" lon="4.72932">
        <ele>167</ele>
        <time>2018-07-08T10:29:22Z</time>
      </trkpt>
      <trkpt lat="45.94438" lon="4.72925">
        <ele>167</ele>
        <time>2018-07-08T10:29:23Z</time>
      </trkpt>
      <trkpt lat="45.94437" lon="4.72919">
        <ele>167</ele>
        <time>2018-07-08T10:29:24Z</time>
      </trkpt>
      <trkpt lat="45.94436" lon="4.72912">
        <ele>166</ele>
        <time>2018-07-08T10:29:25Z</time>
      </trkpt>
      <trkpt lat="45.94434" lon="4.72899">
        <ele>166</ele>
        <time>2018-07-08T10:29:27Z</time>
      </trkpt>
      <trkpt lat="45.94433" lon="4.72892">
        <ele>166</ele>
        <time>2018-07-08T10:29:28Z</time>
      </trkpt>
      <trkpt lat="45.94432" lon="4.72885">
        <ele>166</ele>
        <time>2018-07-08T10:29:29Z</time>
      </trkpt>
      <trkpt lat="45.94431" lon="4.72877">
        <ele>166</ele>
        <time>2018-07-08T10:29:30Z</time>
      </trkpt>
      <trkpt lat="45.94429" lon="4.72869">
        <ele>166</ele>
        <time>2018-07-08T10:29:31Z</time>
      </trkpt>
      <trkpt lat="45.94428" lon="4.7286">
        <ele>166</ele>
        <time>2018-07-08T10:29:32Z</time>
      </trkpt>
      <trkpt lat="45.94428" lon="4.72852">
        <ele>166</ele>
        <time>2018-07-08T10:29:33Z</time>
      </trkpt>
      <trkpt lat="45.94429" lon="4.72847">
        <ele>166</ele>
        <time>2018-07-08T10:29:34Z</time>
      </trkpt>
      <trkpt lat="45.94428" lon="4.72837">
        <ele>166</ele>
        <time>2018-07-08T10:29:35Z</time>
      </trkpt>
      <trkpt lat="45.94427" lon="4.72827">
        <ele>167</ele>
        <time>2018-07-08T10:29:36Z</time>
      </trkpt>
      <trkpt lat="45.94429" lon="4.72821">
        <ele>167</ele>
        <time>2018-07-08T10:29:37Z</time>
      </trkpt>
      <trkpt lat="45.94428" lon="4.72811">
        <ele>167</ele>
        <time>2018-07-08T10:29:38Z</time>
      </trkpt>
      <trkpt lat="45.94428" lon="4.72801">
        <ele>167</ele>
        <time>2018-07-08T10:29:39Z</time>
      </trkpt>
      <trkpt lat="45.94429" lon="4.72792">
        <ele>168</ele>
        <time>2018-07-08T10:29:40Z</time>
      </trkpt>
      <trkpt lat="45.94429" lon="4.72782">
        <ele>168</ele>
        <time>2018-07-08T10:29:41Z</time>
      </trkpt>
      <trkpt lat="45.94427" lon="4.7277">
        <ele>169</ele>
        <time>2018-07-08T10:29:42Z</time>
      </trkpt>
      <trkpt lat="45.94426" lon="4.72759">
        <ele>169</ele>
        <time>2018-07-08T10:29:43Z</time>
      </trkpt>
      <trkpt lat="45.94421" lon="4.72747">
        <ele>171</ele>
        <time>2018-07-08T10:29:44Z</time>
      </trkpt>
      <trkpt lat="45.9442" lon="4.72736">
        <ele>171</ele>
        <time>2018-07-08T10:29:45Z</time>
      </trkpt>
      <trkpt lat="45.94419" lon="4.72725">
        <ele>171</ele>
        <time>2018-07-08T10:29:46Z</time>
      </trkpt>
      <trkpt lat="45.94418" lon="4.72713">
        <ele>172</ele>
        <time>2018-07-08T10:29:47Z</time>
      </trkpt>
      <trkpt lat="45.94415" lon="4.72703">
        <ele>172</ele>
        <time>2018-07-08T10:29:48Z</time>
      </trkpt>
      <trkpt lat="45.94414" lon="4.72692">
        <ele>173</ele>
        <time>2018-07-08T10:29:49Z</time>
      </trkpt>
      <trkpt lat="45.94412" lon="4.72682">
        <ele>173</ele>
        <time>2018-07-08T10:29:50Z</time>
      </trkpt>
      <trkpt lat="45.94412" lon="4.72672">
        <ele>174</ele>
        <time>2018-07-08T10:29:51Z</time>
      </trkpt>
      <trkpt lat="45.9441" lon="4.72661">
        <ele>174</ele>
        <time>2018-07-08T10:29:52Z</time>
      </trkpt>
      <trkpt lat="45.9441" lon="4.72651">
        <ele>174</ele>
        <time>2018-07-08T10:29:53Z</time>
      </trkpt>
      <trkpt lat="45.94409" lon="4.7264">
        <ele>174</ele>
        <time>2018-07-08T10:29:54Z</time>
      </trkpt>
      <trkpt lat="45.94407" lon="4.72629">
        <ele>174</ele>
        <time>2018-07-08T10:29:55Z</time>
      </trkpt>
      <trkpt lat="45.94406" lon="4.72618">
        <ele>173</ele>
        <time>2018-07-08T10:29:56Z</time>
      </trkpt>
      <trkpt lat="45.94405" lon="4.72609">
        <ele>173</ele>
        <time>2018-07-08T10:29:57Z</time>
      </trkpt>
      <trkpt lat="45.94404" lon="4.726">
        <ele>173</ele>
        <time>2018-07-08T10:29:58Z</time>
      </trkpt>
      <trkpt lat="45.94402" lon="4.7259">
        <ele>173</ele>
        <time>2018-07-08T10:29:59Z</time>
      </trkpt>
      <trkpt lat="45.94401" lon="4.72582">
        <ele>173</ele>
        <time>2018-07-08T10:30:00Z</time>
      </trkpt>
      <trkpt lat="45.94401" lon="4.72574">
        <ele>173</ele>
        <time>2018-07-08T10:30:01Z</time>
      </trkpt>
      <trkpt lat="45.94399" lon="4.72565">
        <ele>173</ele>
        <time>2018-07-08T10:30:02Z</time>
      </trkpt>
      <trkpt lat="45.94396" lon="4.72556">
        <ele>173</ele>
        <time>2018-07-08T10:30:03Z</time>
      </trkpt>
      <trkpt lat="45.94393" lon="4.72547">
        <ele>173</ele>
        <time>2018-07-08T10:30:04Z</time>
      </trkpt>
      <trkpt lat="45.94391" lon="4.72538">
        <ele>174</ele>
        <time>2018-07-08T10:30:05Z</time>
      </trkpt>
      <trkpt lat="45.94389" lon="4.7253">
        <ele>174</ele>
        <time>2018-07-08T10:30:06Z</time>
      </trkpt>
      <trkpt lat="45.94386" lon="4.72522">
        <ele>174</ele>
        <time>2018-07-08T10:30:07Z</time>
      </trkpt>
      <trkpt lat="45.94384" lon="4.72513">
        <ele>174</ele>
        <time>2018-07-08T10:30:08Z</time>
      </trkpt>
      <trkpt lat="45.94381" lon="4.72505">
        <ele>174</ele>
        <time>2018-07-08T10:30:09Z</time>
      </trkpt>
      <trkpt lat="45.94379" lon="4.72497">
        <ele>173</ele>
        <time>2018-07-08T10:30:10Z</time>
      </trkpt>
      <trkpt lat="45.94377" lon="4.7249">
        <ele>173</ele>
        <time>2018-07-08T10:30:11Z</time>
      </trkpt>
      <trkpt lat="45.94374" lon="4.72482">
        <ele>173</ele>
        <time>2018-07-08T10:30:12Z</time>
      </trkpt>
      <trkpt lat="45.94369" lon="4.72474">
        <ele>173</ele>
        <time>2018-07-08T10:30:13Z</time>
      </trkpt>
      <trkpt lat="45.94365" lon="4.72467">
        <ele>173</ele>
        <time>2018-07-08T10:30:14Z</time>
      </trkpt>
      <trkpt lat="45.94361" lon="4.72459">
        <ele>173</ele>
        <time>2018-07-08T10:30:15Z</time>
      </trkpt>
      <trkpt lat="45.94359" lon="4.72452">
        <ele>173</ele>
        <time>2018-07-08T10:30:16Z</time>
      </trkpt>
      <trkpt lat="45.94355" lon="4.72444">
        <ele>173</ele>
        <time>2018-07-08T10:30:17Z</time>
      </trkpt>
      <trkpt lat="45.94352" lon="4.72435">
        <ele>173</ele>
        <time>2018-07-08T10:30:18Z</time>
      </trkpt>
      <trkpt lat="45.9435" lon="4.72427">
        <ele>173</ele>
        <time>2018-07-08T10:30:19Z</time>
      </trkpt>
      <trkpt lat="45.94347" lon="4.72419">
        <ele>173</ele>
        <time>2018-07-08T10:30:20Z</time>
      </trkpt>
      <trkpt lat="45.94343" lon="4.72412">
        <ele>173</ele>
        <time>2018-07-08T10:30:21Z</time>
      </trkpt>
      <trkpt lat="45.9434" lon="4.72404">
        <ele>173</ele>
        <time>2018-07-08T10:30:22Z</time>
      </trkpt>
      <trkpt lat="45.94338" lon="4.72395">
        <ele>172</ele>
        <time>2018-07-08T10:30:23Z</time>
      </trkpt>
      <trkpt lat="45.94334" lon="4.72387">
        <ele>172</ele>
        <time>2018-07-08T10:30:24Z</time>
      </trkpt>
      <trkpt lat="45.94331" lon="4.7238">
        <ele>172</ele>
        <time>2018-07-08T10:30:25Z</time>
      </trkpt>
      <trkpt lat="45.94328" lon="4.72373">
        <ele>172</ele>
        <time>2018-07-08T10:30:26Z</time>
      </trkpt>
      <trkpt lat="45.94324" lon="4.72366">
        <ele>172</ele>
        <time>2018-07-08T10:30:27Z</time>
      </trkpt>
      <trkpt lat="45.94321" lon="4.72359">
        <ele>172</ele>
        <time>2018-07-08T10:30:28Z</time>
      </trkpt>
      <trkpt lat="45.94317" lon="4.72351">
        <ele>172</ele>
        <time>2018-07-08T10:30:29Z</time>
      </trkpt>
      <trkpt lat="45.94311" lon="4.72345">
        <ele>172</ele>
        <time>2018-07-08T10:30:30Z</time>
      </trkpt>
      <trkpt lat="45.94307" lon="4.72335">
        <ele>172</ele>
        <time>2018-07-08T10:30:31Z</time>
      </trkpt>
      <trkpt lat="45.94303" lon="4.72328">
        <ele>171</ele>
        <time>2018-07-08T10:30:32Z</time>
      </trkpt>
      <trkpt lat="45.94298" lon="4.7232">
        <ele>171</ele>
        <time>2018-07-08T10:30:33Z</time>
      </trkpt>
      <trkpt lat="45.94295" lon="4.72313">
        <ele>171</ele>
        <time>2018-07-08T10:30:34Z</time>
      </trkpt>
      <trkpt lat="45.94292" lon="4.72304">
        <ele>171</ele>
        <time>2018-07-08T10:30:35Z</time>
      </trkpt>
      <trkpt lat="45.94288" lon="4.72296">
        <ele>171</ele>
        <time>2018-07-08T10:30:36Z</time>
      </trkpt>
      <trkpt lat="45.94285" lon="4.72291">
        <ele>171</ele>
        <time>2018-07-08T10:30:37Z</time>
      </trkpt>
      <trkpt lat="45.94281" lon="4.72284">
        <ele>171</ele>
        <time>2018-07-08T10:30:38Z</time>
      </trkpt>
      <trkpt lat="45.94278" lon="4.72277">
        <ele>171</ele>
        <time>2018-07-08T10:30:39Z</time>
      </trkpt>
      <trkpt lat="45.94274" lon="4.72273">
        <ele>171</ele>
        <time>2018-07-08T10:30:40Z</time>
      </trkpt>
      <trkpt lat="45.94269" lon="4.7227">
        <ele>171</ele>
        <time>2018-07-08T10:30:41Z</time>
      </trkpt>
      <trkpt lat="45.94264" lon="4.72268">
        <ele>171</ele>
        <time>2018-07-08T10:30:42Z</time>
      </trkpt>
      <trkpt lat="45.94259" lon="4.72277">
        <ele>171</ele>
        <time>2018-07-08T10:30:43Z</time>
      </trkpt>
      <trkpt lat="45.94254" lon="4.7228">
        <ele>171</ele>
        <time>2018-07-08T10:30:44Z</time>
      </trkpt>
      <trkpt lat="45.94248" lon="4.72282">
        <ele>171</ele>
        <time>2018-07-08T10:30:45Z</time>
      </trkpt>
      <trkpt lat="45.94243" lon="4.72285">
        <ele>171</ele>
        <time>2018-07-08T10:30:46Z</time>
      </trkpt>
      <trkpt lat="45.94236" lon="4.72286">
        <ele>171</ele>
        <time>2018-07-08T10:30:47Z</time>
      </trkpt>
      <trkpt lat="45.9423" lon="4.72288">
        <ele>171</ele>
        <time>2018-07-08T10:30:48Z</time>
      </trkpt>
      <trkpt lat="45.94223" lon="4.72288">
        <ele>171</ele>
        <time>2018-07-08T10:30:49Z</time>
      </trkpt>
      <trkpt lat="45.94216" lon="4.72289">
        <ele>171</ele>
        <time>2018-07-08T10:30:50Z</time>
      </trkpt>
      <trkpt lat="45.9421" lon="4.72289">
        <ele>171</ele>
        <time>2018-07-08T10:30:51Z</time>
      </trkpt>
      <trkpt lat="45.94203" lon="4.72289">
        <ele>171</ele>
        <time>2018-07-08T10:30:52Z</time>
      </trkpt>
      <trkpt lat="45.94197" lon="4.7229">
        <ele>171</ele>
        <time>2018-07-08T10:30:53Z</time>
      </trkpt>
      <trkpt lat="45.94191" lon="4.7229">
        <ele>171</ele>
        <time>2018-07-08T10:30:54Z</time>
      </trkpt>
      <trkpt lat="45.94184" lon="4.7229">
        <ele>171</ele>
        <time>2018-07-08T10:30:55Z</time>
      </trkpt>
      <trkpt lat="45.94178" lon="4.72288">
        <ele>171</ele>
        <time>2018-07-08T10:30:56Z</time>
      </trkpt>
      <trkpt lat="45.94172" lon="4.72288">
        <ele>171</ele>
        <time>2018-07-08T10:30:57Z</time>
      </trkpt>
      <trkpt lat="45.94165" lon="4.72288">
        <ele>171</ele>
        <time>2018-07-08T10:30:58Z</time>
      </trkpt>
      <trkpt lat="45.94159" lon="4.72288">
        <ele>171</ele>
        <time>2018-07-08T10:30:59Z</time>
      </trkpt>
      <trkpt lat="45.94153" lon="4.72284">
        <ele>171</ele>
        <time>2018-07-08T10:31:00Z</time>
      </trkpt>
      <trkpt lat="45.94148" lon="4.72282">
        <ele>171</ele>
        <time>2018-07-08T10:31:01Z</time>
      </trkpt>
      <trkpt lat="45.94143" lon="4.72281">
        <ele>171</ele>
        <time>2018-07-08T10:31:02Z</time>
      </trkpt>
      <trkpt lat="45.94137" lon="4.72279">
        <ele>171</ele>
        <time>2018-07-08T10:31:03Z</time>
      </trkpt>
      <trkpt lat="45.94132" lon="4.72276">
        <ele>171</ele>
        <time>2018-07-08T10:31:04Z</time>
      </trkpt>
      <trkpt lat="45.94126" lon="4.72274">
        <ele>171</ele>
        <time>2018-07-08T10:31:05Z</time>
      </trkpt>
      <trkpt lat="45.9412" lon="4.7227">
        <ele>171</ele>
        <time>2018-07-08T10:31:06Z</time>
      </trkpt>
      <trkpt lat="45.94113" lon="4.72267">
        <ele>171</ele>
        <time>2018-07-08T10:31:07Z</time>
      </trkpt>
      <trkpt lat="45.94107" lon="4.72265">
        <ele>171</ele>
        <time>2018-07-08T10:31:08Z</time>
      </trkpt>
      <trkpt lat="45.94101" lon="4.72264">
        <ele>171</ele>
        <time>2018-07-08T10:31:09Z</time>
      </trkpt>
      <trkpt lat="45.94094" lon="4.72265">
        <ele>171</ele>
        <time>2018-07-08T10:31:10Z</time>
      </trkpt>
      <trkpt lat="45.94088" lon="4.72266">
        <ele>171</ele>
        <time>2018-07-08T10:31:11Z</time>
      </trkpt>
      <trkpt lat="45.94081" lon="4.72268">
        <ele>171</ele>
        <time>2018-07-08T10:31:12Z</time>
      </trkpt>
      <trkpt lat="45.94076" lon="4.72273">
        <ele>171</ele>
        <time>2018-07-08T10:31:13Z</time>
      </trkpt>
      <trkpt lat="45.94071" lon="4.72279">
        <ele>171</ele>
        <time>2018-07-08T10:31:14Z</time>
      </trkpt>
      <trkpt lat="45.94066" lon="4.72286">
        <ele>171</ele>
        <time>2018-07-08T10:31:15Z</time>
      </trkpt>
      <trkpt lat="45.94059" lon="4.72291">
        <ele>171</ele>
        <time>2018-07-08T10:31:16Z</time>
      </trkpt>
      <trkpt lat="45.94053" lon="4.72297">
        <ele>171</ele>
        <time>2018-07-08T10:31:17Z</time>
      </trkpt>
      <trkpt lat="45.94049" lon="4.72303">
        <ele>171</ele>
        <time>2018-07-08T10:31:18Z</time>
      </trkpt>
      <trkpt lat="45.94044" lon="4.7231">
        <ele>171</ele>
        <time>2018-07-08T10:31:19Z</time>
      </trkpt>
      <trkpt lat="45.94038" lon="4.72316">
        <ele>171</ele>
        <time>2018-07-08T10:31:20Z</time>
      </trkpt>
      <trkpt lat="45.94033" lon="4.72323">
        <ele>171</ele>
        <time>2018-07-08T10:31:21Z</time>
      </trkpt>
      <trkpt lat="45.94029" lon="4.72332">
        <ele>171</ele>
        <time>2018-07-08T10:31:22Z</time>
      </trkpt>
      <trkpt lat="45.94024" lon="4.72339">
        <ele>171</ele>
        <time>2018-07-08T10:31:23Z</time>
      </trkpt>
      <trkpt lat="45.94018" lon="4.72349">
        <ele>171</ele>
        <time>2018-07-08T10:31:24Z</time>
      </trkpt>
      <trkpt lat="45.94012" lon="4.72355">
        <ele>171</ele>
        <time>2018-07-08T10:31:25Z</time>
      </trkpt>
      <trkpt lat="45.94006" lon="4.72362">
        <ele>171</ele>
        <time>2018-07-08T10:31:26Z</time>
      </trkpt>
      <trkpt lat="45.94" lon="4.72369">
        <ele>171</ele>
        <time>2018-07-08T10:31:27Z</time>
      </trkpt>
      <trkpt lat="45.93996" lon="4.72375">
        <ele>171</ele>
        <time>2018-07-08T10:31:28Z</time>
      </trkpt>
      <trkpt lat="45.93989" lon="4.72382">
        <ele>171</ele>
        <time>2018-07-08T10:31:29Z</time>
      </trkpt>
      <trkpt lat="45.93984" lon="4.72389">
        <ele>171</ele>
        <time>2018-07-08T10:31:30Z</time>
      </trkpt>
      <trkpt lat="45.93978" lon="4.72396">
        <ele>171</ele>
        <time>2018-07-08T10:31:31Z</time>
      </trkpt>
      <trkpt lat="45.93973" lon="4.72403">
        <ele>171</ele>
        <time>2018-07-08T10:31:32Z</time>
      </trkpt>
      <trkpt lat="45.93967" lon="4.72408">
        <ele>171</ele>
        <time>2018-07-08T10:31:33Z</time>
      </trkpt>
      <trkpt lat="45.93962" lon="4.72414">
        <ele>171</ele>
        <time>2018-07-08T10:31:34Z</time>
      </trkpt>
      <trkpt lat="45.93957" lon="4.72419">
        <ele>171</ele>
        <time>2018-07-08T10:31:35Z</time>
      </trkpt>
      <trkpt lat="45.93951" lon="4.72424">
        <ele>171</ele>
        <time>2018-07-08T10:31:36Z</time>
      </trkpt>
      <trkpt lat="45.93947" lon="4.72431">
        <ele>171</ele>
        <time>2018-07-08T10:31:37Z</time>
      </trkpt>
      <trkpt lat="45.93944" lon="4.72437">
        <ele>171</ele>
        <time>2018-07-08T10:31:38Z</time>
      </trkpt>
      <trkpt lat="45.9394" lon="4.72444">
        <ele>171</ele>
        <time>2018-07-08T10:31:39Z</time>
      </trkpt>
      <trkpt lat="45.93936" lon="4.72449">
        <ele>171</ele>
        <time>2018-07-08T10:31:40Z</time>
      </trkpt>
      <trkpt lat="45.93931" lon="4.72454">
        <ele>171</ele>
        <time>2018-07-08T10:31:41Z</time>
      </trkpt>
      <trkpt lat="45.93926" lon="4.72459">
        <ele>171</ele>
        <time>2018-07-08T10:31:42Z</time>
      </trkpt>
      <trkpt lat="45.93921" lon="4.72464">
        <ele>171</ele>
        <time>2018-07-08T10:31:43Z</time>
      </trkpt>
      <trkpt lat="45.93917" lon="4.72469">
        <ele>171</ele>
        <time>2018-07-08T10:31:44Z</time>
      </trkpt>
      <trkpt lat="45.93912" lon="4.72474">
        <ele>172</ele>
        <time>2018-07-08T10:31:45Z</time>
      </trkpt>
      <trkpt lat="45.93909" lon="4.72478">
        <ele>172</ele>
        <time>2018-07-08T10:31:46Z</time>
      </trkpt>
      <trkpt lat="45.93906" lon="4.72484">
        <ele>172</ele>
        <time>2018-07-08T10:31:47Z</time>
      </trkpt>
      <trkpt lat="45.93902" lon="4.72489">
        <ele>172</ele>
        <time>2018-07-08T10:31:48Z</time>
      </trkpt>
      <trkpt lat="45.93898" lon="4.72494">
        <ele>172</ele>
        <time>2018-07-08T10:31:49Z</time>
      </trkpt>
      <trkpt lat="45.93893" lon="4.72496">
        <ele>172</ele>
        <time>2018-07-08T10:31:50Z</time>
      </trkpt>
      <trkpt lat="45.9389" lon="4.72501">
        <ele>173</ele>
        <time>2018-07-08T10:31:51Z</time>
      </trkpt>
      <trkpt lat="45.93887" lon="4.72506">
        <ele>173</ele>
        <time>2018-07-08T10:31:52Z</time>
      </trkpt>
      <trkpt lat="45.93879" lon="4.7251">
        <ele>173</ele>
        <time>2018-07-08T10:31:54Z</time>
      </trkpt>
      <trkpt lat="45.93874" lon="4.72512">
        <ele>173</ele>
        <time>2018-07-08T10:31:55Z</time>
      </trkpt>
      <trkpt lat="45.93868" lon="4.72512">
        <ele>173</ele>
        <time>2018-07-08T10:31:56Z</time>
      </trkpt>
      <trkpt lat="45.93863" lon="4.72511">
        <ele>173</ele>
        <time>2018-07-08T10:31:57Z</time>
      </trkpt>
      <trkpt lat="45.93857" lon="4.72503">
        <ele>173</ele>
        <time>2018-07-08T10:32:00Z</time>
      </trkpt>
      <trkpt lat="45.93828" lon="4.72469">
        <ele>172</ele>
        <time>2018-07-08T10:32:05Z</time>
      </trkpt>
      <trkpt lat="45.93821" lon="4.72465">
        <ele>172</ele>
        <time>2018-07-08T10:32:06Z</time>
      </trkpt>
      <trkpt lat="45.93816" lon="4.7246">
        <ele>172</ele>
        <time>2018-07-08T10:32:07Z</time>
      </trkpt>
      <trkpt lat="45.93812" lon="4.72457">
        <ele>172</ele>
        <time>2018-07-08T10:32:08Z</time>
      </trkpt>
      <trkpt lat="45.93807" lon="4.72452">
        <ele>172</ele>
        <time>2018-07-08T10:32:09Z</time>
      </trkpt>
      <trkpt lat="45.93799" lon="4.72449">
        <ele>172</ele>
        <time>2018-07-08T10:32:10Z</time>
      </trkpt>
      <trkpt lat="45.93797" lon="4.72446">
        <ele>172</ele>
        <time>2018-07-08T10:32:11Z</time>
      </trkpt>
      <trkpt lat="45.93791" lon="4.72442">
        <ele>172</ele>
        <time>2018-07-08T10:32:12Z</time>
      </trkpt>
      <trkpt lat="45.93785" lon="4.72439">
        <ele>172</ele>
        <time>2018-07-08T10:32:13Z</time>
      </trkpt>
      <trkpt lat="45.93779" lon="4.72432">
        <ele>172</ele>
        <time>2018-07-08T10:32:14Z</time>
      </trkpt>
      <trkpt lat="45.93777" lon="4.72428">
        <ele>171</ele>
        <time>2018-07-08T10:32:15Z</time>
      </trkpt>
      <trkpt lat="45.93772" lon="4.72423">
        <ele>171</ele>
        <time>2018-07-08T10:32:16Z</time>
      </trkpt>
      <trkpt lat="45.93768" lon="4.72421">
        <ele>171</ele>
        <time>2018-07-08T10:32:17Z</time>
      </trkpt>
      <trkpt lat="45.93763" lon="4.72416">
        <ele>171</ele>
        <time>2018-07-08T10:32:18Z</time>
      </trkpt>
      <trkpt lat="45.93758" lon="4.72413">
        <ele>171</ele>
        <time>2018-07-08T10:32:19Z</time>
      </trkpt>
      <trkpt lat="45.93753" lon="4.72409">
        <ele>171</ele>
        <time>2018-07-08T10:32:20Z</time>
      </trkpt>
      <trkpt lat="45.93749" lon="4.72404">
        <ele>171</ele>
        <time>2018-07-08T10:32:21Z</time>
      </trkpt>
      <trkpt lat="45.93744" lon="4.724">
        <ele>171</ele>
        <time>2018-07-08T10:32:22Z</time>
      </trkpt>
      <trkpt lat="45.93741" lon="4.72395">
        <ele>171</ele>
        <time>2018-07-08T10:32:23Z</time>
      </trkpt>
      <trkpt lat="45.93737" lon="4.72392">
        <ele>171</ele>
        <time>2018-07-08T10:32:24Z</time>
      </trkpt>
      <trkpt lat="45.93733" lon="4.72385">
        <ele>171</ele>
        <time>2018-07-08T10:32:25Z</time>
      </trkpt>
      <trkpt lat="45.93728" lon="4.72381">
        <ele>171</ele>
        <time>2018-07-08T10:32:26Z</time>
      </trkpt>
      <trkpt lat="45.93724" lon="4.72379">
        <ele>171</ele>
        <time>2018-07-08T10:32:27Z</time>
      </trkpt>
      <trkpt lat="45.93719" lon="4.72375">
        <ele>172</ele>
        <time>2018-07-08T10:32:28Z</time>
      </trkpt>
      <trkpt lat="45.93715" lon="4.72371">
        <ele>172</ele>
        <time>2018-07-08T10:32:29Z</time>
      </trkpt>
      <trkpt lat="45.9371" lon="4.72367">
        <ele>172</ele>
        <time>2018-07-08T10:32:30Z</time>
      </trkpt>
      <trkpt lat="45.93706" lon="4.72364">
        <ele>171</ele>
        <time>2018-07-08T10:32:31Z</time>
      </trkpt>
      <trkpt lat="45.93701" lon="4.7236">
        <ele>171</ele>
        <time>2018-07-08T10:32:32Z</time>
      </trkpt>
      <trkpt lat="45.93696" lon="4.72356">
        <ele>171</ele>
        <time>2018-07-08T10:32:33Z</time>
      </trkpt>
      <trkpt lat="45.9369" lon="4.72351">
        <ele>171</ele>
        <time>2018-07-08T10:32:34Z</time>
      </trkpt>
      <trkpt lat="45.93685" lon="4.72347">
        <ele>171</ele>
        <time>2018-07-08T10:32:35Z</time>
      </trkpt>
      <trkpt lat="45.9368" lon="4.72341">
        <ele>171</ele>
        <time>2018-07-08T10:32:36Z</time>
      </trkpt>
      <trkpt lat="45.93675" lon="4.72334">
        <ele>171</ele>
        <time>2018-07-08T10:32:37Z</time>
      </trkpt>
      <trkpt lat="45.93669" lon="4.72326">
        <ele>171</ele>
        <time>2018-07-08T10:32:38Z</time>
      </trkpt>
      <trkpt lat="45.93666" lon="4.72323">
        <ele>171</ele>
        <time>2018-07-08T10:32:39Z</time>
      </trkpt>
      <trkpt lat="45.9366" lon="4.72318">
        <ele>172</ele>
        <time>2018-07-08T10:32:40Z</time>
      </trkpt>
      <trkpt lat="45.93655" lon="4.72314">
        <ele>172</ele>
        <time>2018-07-08T10:32:41Z</time>
      </trkpt>
      <trkpt lat="45.9365" lon="4.7231">
        <ele>172</ele>
        <time>2018-07-08T10:32:42Z</time>
      </trkpt>
      <trkpt lat="45.93646" lon="4.72305">
        <ele>172</ele>
        <time>2018-07-08T10:32:43Z</time>
      </trkpt>
      <trkpt lat="45.93642" lon="4.723">
        <ele>172</ele>
        <time>2018-07-08T10:32:44Z</time>
      </trkpt>
      <trkpt lat="45.93638" lon="4.72295">
        <ele>172</ele>
        <time>2018-07-08T10:32:45Z</time>
      </trkpt>
      <trkpt lat="45.93633" lon="4.72289">
        <ele>172</ele>
        <time>2018-07-08T10:32:46Z</time>
      </trkpt>
      <trkpt lat="45.93629" lon="4.72284">
        <ele>172</ele>
        <time>2018-07-08T10:32:47Z</time>
      </trkpt>
      <trkpt lat="45.93624" lon="4.72279">
        <ele>172</ele>
        <time>2018-07-08T10:32:48Z</time>
      </trkpt>
      <trkpt lat="45.93621" lon="4.72274">
        <ele>172</ele>
        <time>2018-07-08T10:32:49Z</time>
      </trkpt>
      <trkpt lat="45.93618" lon="4.72269">
        <ele>172</ele>
        <time>2018-07-08T10:32:50Z</time>
      </trkpt>
      <trkpt lat="45.93614" lon="4.72263">
        <ele>172</ele>
        <time>2018-07-08T10:32:51Z</time>
      </trkpt>
      <trkpt lat="45.93609" lon="4.7226">
        <ele>172</ele>
        <time>2018-07-08T10:32:52Z</time>
      </trkpt>
      <trkpt lat="45.93605" lon="4.72256">
        <ele>173</ele>
        <time>2018-07-08T10:32:53Z</time>
      </trkpt>
      <trkpt lat="45.936" lon="4.72248">
        <ele>173</ele>
        <time>2018-07-08T10:32:55Z</time>
      </trkpt>
      <trkpt lat="45.93598" lon="4.72242">
        <ele>173</ele>
        <time>2018-07-08T10:32:56Z</time>
      </trkpt>
      <trkpt lat="45.93591" lon="4.72235">
        <ele>173</ele>
        <time>2018-07-08T10:32:58Z</time>
      </trkpt>
      <trkpt lat="45.93585" lon="4.72233">
        <ele>173</ele>
        <time>2018-07-08T10:32:59Z</time>
      </trkpt>
      <trkpt lat="45.93579" lon="4.72232">
        <ele>173</ele>
        <time>2018-07-08T10:33:00Z</time>
      </trkpt>
      <trkpt lat="45.93575" lon="4.72229">
        <ele>173</ele>
        <time>2018-07-08T10:33:01Z</time>
      </trkpt>
      <trkpt lat="45.93567" lon="4.72224">
        <ele>173</ele>
        <time>2018-07-08T10:33:03Z</time>
      </trkpt>
      <trkpt lat="45.93564" lon="4.72223">
        <ele>173</ele>
        <time>2018-07-08T10:33:04Z</time>
      </trkpt>
      <trkpt lat="45.9356" lon="4.72219">
        <ele>173</ele>
        <time>2018-07-08T10:33:06Z</time>
      </trkpt>
      <trkpt lat="45.93552" lon="4.72217">
        <ele>173</ele>
        <time>2018-07-08T10:33:07Z</time>
      </trkpt>
      <trkpt lat="45.93545" lon="4.72222">
        <ele>172</ele>
        <time>2018-07-08T10:33:09Z</time>
      </trkpt>
      <trkpt lat="45.93543" lon="4.72227">
        <ele>172</ele>
        <time>2018-07-08T10:33:10Z</time>
      </trkpt>
      <trkpt lat="45.93539" lon="4.72238">
        <ele>172</ele>
        <time>2018-07-08T10:33:12Z</time>
      </trkpt>
      <trkpt lat="45.93537" lon="4.72245">
        <ele>172</ele>
        <time>2018-07-08T10:33:13Z</time>
      </trkpt>
      <trkpt lat="45.93532" lon="4.72254">
        <ele>172</ele>
        <time>2018-07-08T10:33:15Z</time>
      </trkpt>
      <trkpt lat="45.93531" lon="4.72262">
        <ele>172</ele>
        <time>2018-07-08T10:33:16Z</time>
      </trkpt>
      <trkpt lat="45.93528" lon="4.72267">
        <ele>172</ele>
        <time>2018-07-08T10:33:17Z</time>
      </trkpt>
      <trkpt lat="45.93526" lon="4.72276">
        <ele>172</ele>
        <time>2018-07-08T10:33:18Z</time>
      </trkpt>
      <trkpt lat="45.93522" lon="4.72282">
        <ele>172</ele>
        <time>2018-07-08T10:33:19Z</time>
      </trkpt>
      <trkpt lat="45.9352" lon="4.72288">
        <ele>172</ele>
        <time>2018-07-08T10:33:20Z</time>
      </trkpt>
      <trkpt lat="45.93516" lon="4.72291">
        <ele>172</ele>
        <time>2018-07-08T10:33:21Z</time>
      </trkpt>
      <trkpt lat="45.93513" lon="4.72298">
        <ele>172</ele>
        <time>2018-07-08T10:33:22Z</time>
      </trkpt>
      <trkpt lat="45.93509" lon="4.72304">
        <ele>173</ele>
        <time>2018-07-08T10:33:23Z</time>
      </trkpt>
      <trkpt lat="45.93505" lon="4.7231">
        <ele>173</ele>
        <time>2018-07-08T10:33:24Z</time>
      </trkpt>
      <trkpt lat="45.935" lon="4.72316">
        <ele>173</ele>
        <time>2018-07-08T10:33:25Z</time>
      </trkpt>
      <trkpt lat="45.93496" lon="4.72322">
        <ele>173</ele>
        <time>2018-07-08T10:33:26Z</time>
      </trkpt>
      <trkpt lat="45.93493" lon="4.7233">
        <ele>173</ele>
        <time>2018-07-08T10:33:27Z</time>
      </trkpt>
      <trkpt lat="45.93489" lon="4.72336">
        <ele>173</ele>
        <time>2018-07-08T10:33:28Z</time>
      </trkpt>
      <trkpt lat="45.93486" lon="4.7234">
        <ele>173</ele>
        <time>2018-07-08T10:33:29Z</time>
      </trkpt>
      <trkpt lat="45.93481" lon="4.72347">
        <ele>173</ele>
        <time>2018-07-08T10:33:30Z</time>
      </trkpt>
      <trkpt lat="45.93477" lon="4.72352">
        <ele>173</ele>
        <time>2018-07-08T10:33:31Z</time>
      </trkpt>
      <trkpt lat="45.93473" lon="4.72359">
        <ele>173</ele>
        <time>2018-07-08T10:33:32Z</time>
      </trkpt>
      <trkpt lat="45.93469" lon="4.72363">
        <ele>173</ele>
        <time>2018-07-08T10:33:33Z</time>
      </trkpt>
      <trkpt lat="45.93464" lon="4.72368">
        <ele>173</ele>
        <time>2018-07-08T10:33:34Z</time>
      </trkpt>
      <trkpt lat="45.9346" lon="4.72374">
        <ele>173</ele>
        <time>2018-07-08T10:33:35Z</time>
      </trkpt>
      <trkpt lat="45.93455" lon="4.72379">
        <ele>173</ele>
        <time>2018-07-08T10:33:36Z</time>
      </trkpt>
      <trkpt lat="45.93451" lon="4.72383">
        <ele>173</ele>
        <time>2018-07-08T10:33:37Z</time>
      </trkpt>
      <trkpt lat="45.93447" lon="4.72387">
        <ele>173</ele>
        <time>2018-07-08T10:33:38Z</time>
      </trkpt>
      <trkpt lat="45.93442" lon="4.72391">
        <ele>173</ele>
        <time>2018-07-08T10:33:39Z</time>
      </trkpt>
      <trkpt lat="45.93436" lon="4.72396">
        <ele>173</ele>
        <time>2018-07-08T10:33:40Z</time>
      </trkpt>
      <trkpt lat="45.93431" lon="4.724">
        <ele>174</ele>
        <time>2018-07-08T10:33:41Z</time>
      </trkpt>
      <trkpt lat="45.93425" lon="4.72402">
        <ele>174</ele>
        <time>2018-07-08T10:33:42Z</time>
      </trkpt>
      <trkpt lat="45.93417" lon="4.72406">
        <ele>174</ele>
        <time>2018-07-08T10:33:44Z</time>
      </trkpt>
      <trkpt lat="45.9341" lon="4.72408">
        <ele>174</ele>
        <time>2018-07-08T10:33:45Z</time>
      </trkpt>
      <trkpt lat="45.93404" lon="4.72407">
        <ele>174</ele>
        <time>2018-07-08T10:33:46Z</time>
      </trkpt>
      <trkpt lat="45.934" lon="4.72407">
        <ele>174</ele>
        <time>2018-07-08T10:33:47Z</time>
      </trkpt>
      <trkpt lat="45.93392" lon="4.72412">
        <ele>174</ele>
        <time>2018-07-08T10:33:49Z</time>
      </trkpt>
      <trkpt lat="45.93388" lon="4.72418">
        <ele>173</ele>
        <time>2018-07-08T10:33:50Z</time>
      </trkpt>
      <trkpt lat="45.93386" lon="4.72426">
        <ele>173</ele>
        <time>2018-07-08T10:33:51Z</time>
      </trkpt>
      <trkpt lat="45.93388" lon="4.72432">
        <ele>173</ele>
        <time>2018-07-08T10:33:52Z</time>
      </trkpt>
      <trkpt lat="45.9339" lon="4.7244">
        <ele>173</ele>
        <time>2018-07-08T10:33:53Z</time>
      </trkpt>
      <trkpt lat="45.93392" lon="4.72446">
        <ele>173</ele>
        <time>2018-07-08T10:33:54Z</time>
      </trkpt>
      <trkpt lat="45.93394" lon="4.72453">
        <ele>173</ele>
        <time>2018-07-08T10:33:55Z</time>
      </trkpt>
      <trkpt lat="45.93391" lon="4.72461">
        <ele>173</ele>
        <time>2018-07-08T10:33:56Z</time>
      </trkpt>
      <trkpt lat="45.93389" lon="4.72468">
        <ele>173</ele>
        <time>2018-07-08T10:33:57Z</time>
      </trkpt>
      <trkpt lat="45.93385" lon="4.72473">
        <ele>173</ele>
        <time>2018-07-08T10:33:58Z</time>
      </trkpt>
      <trkpt lat="45.9338" lon="4.72476">
        <ele>173</ele>
        <time>2018-07-08T10:33:59Z</time>
      </trkpt>
      <trkpt lat="45.93375" lon="4.72481">
        <ele>173</ele>
        <time>2018-07-08T10:34:00Z</time>
      </trkpt>
      <trkpt lat="45.9337" lon="4.72486">
        <ele>173</ele>
        <time>2018-07-08T10:34:01Z</time>
      </trkpt>
      <trkpt lat="45.93365" lon="4.72492">
        <ele>173</ele>
        <time>2018-07-08T10:34:02Z</time>
      </trkpt>
      <trkpt lat="45.9336" lon="4.72498">
        <ele>173</ele>
        <time>2018-07-08T10:34:03Z</time>
      </trkpt>
      <trkpt lat="45.93355" lon="4.72503">
        <ele>172</ele>
        <time>2018-07-08T10:34:04Z</time>
      </trkpt>
      <trkpt lat="45.9335" lon="4.72509">
        <ele>172</ele>
        <time>2018-07-08T10:34:05Z</time>
      </trkpt>
      <trkpt lat="45.93344" lon="4.72515">
        <ele>172</ele>
        <time>2018-07-08T10:34:06Z</time>
      </trkpt>
      <trkpt lat="45.9334" lon="4.7252">
        <ele>172</ele>
        <time>2018-07-08T10:34:07Z</time>
      </trkpt>
      <trkpt lat="45.93335" lon="4.72525">
        <ele>172</ele>
        <time>2018-07-08T10:34:08Z</time>
      </trkpt>
      <trkpt lat="45.93329" lon="4.72531">
        <ele>172</ele>
        <time>2018-07-08T10:34:09Z</time>
      </trkpt>
      <trkpt lat="45.93325" lon="4.72535">
        <ele>172</ele>
        <time>2018-07-08T10:34:10Z</time>
      </trkpt>
      <trkpt lat="45.93318" lon="4.72543">
        <ele>172</ele>
        <time>2018-07-08T10:34:12Z</time>
      </trkpt>
      <trkpt lat="45.93313" lon="4.72547">
        <ele>172</ele>
        <time>2018-07-08T10:34:13Z</time>
      </trkpt>
      <trkpt lat="45.93308" lon="4.72552">
        <ele>172</ele>
        <time>2018-07-08T10:34:14Z</time>
      </trkpt>
      <trkpt lat="45.93303" lon="4.72559">
        <ele>172</ele>
        <time>2018-07-08T10:34:15Z</time>
      </trkpt>
      <trkpt lat="45.93298" lon="4.72565">
        <ele>172</ele>
        <time>2018-07-08T10:34:16Z</time>
      </trkpt>
      <trkpt lat="45.93293" lon="4.7257">
        <ele>172</ele>
        <time>2018-07-08T10:34:17Z</time>
      </trkpt>
      <trkpt lat="45.93288" lon="4.72576">
        <ele>172</ele>
        <time>2018-07-08T10:34:18Z</time>
      </trkpt>
      <trkpt lat="45.93283" lon="4.72583">
        <ele>171</ele>
        <time>2018-07-08T10:34:19Z</time>
      </trkpt>
      <trkpt lat="45.93277" lon="4.72588">
        <ele>170</ele>
        <time>2018-07-08T10:34:20Z</time>
      </trkpt>
      <trkpt lat="45.93272" lon="4.72594">
        <ele>170</ele>
        <time>2018-07-08T10:34:21Z</time>
      </trkpt>
      <trkpt lat="45.93266" lon="4.72601">
        <ele>170</ele>
        <time>2018-07-08T10:34:22Z</time>
      </trkpt>
      <trkpt lat="45.93261" lon="4.72606">
        <ele>170</ele>
        <time>2018-07-08T10:34:23Z</time>
      </trkpt>
      <trkpt lat="45.93257" lon="4.72613">
        <ele>170</ele>
        <time>2018-07-08T10:34:24Z</time>
      </trkpt>
      <trkpt lat="45.93251" lon="4.7262">
        <ele>170</ele>
        <time>2018-07-08T10:34:25Z</time>
      </trkpt>
      <trkpt lat="45.93247" lon="4.72626">
        <ele>170</ele>
        <time>2018-07-08T10:34:26Z</time>
      </trkpt>
      <trkpt lat="45.93242" lon="4.72631">
        <ele>170</ele>
        <time>2018-07-08T10:34:27Z</time>
      </trkpt>
      <trkpt lat="45.93238" lon="4.72636">
        <ele>170</ele>
        <time>2018-07-08T10:34:28Z</time>
      </trkpt>
      <trkpt lat="45.93233" lon="4.72642">
        <ele>170</ele>
        <time>2018-07-08T10:34:29Z</time>
      </trkpt>
      <trkpt lat="45.93228" lon="4.72647">
        <ele>170</ele>
        <time>2018-07-08T10:34:30Z</time>
      </trkpt>
      <trkpt lat="45.93224" lon="4.72653">
        <ele>170</ele>
        <time>2018-07-08T10:34:31Z</time>
      </trkpt>
      <trkpt lat="45.9322" lon="4.72658">
        <ele>170</ele>
        <time>2018-07-08T10:34:32Z</time>
      </trkpt>
      <trkpt lat="45.93216" lon="4.72663">
        <ele>170</ele>
        <time>2018-07-08T10:34:33Z</time>
      </trkpt>
      <trkpt lat="45.93211" lon="4.72669">
        <ele>169</ele>
        <time>2018-07-08T10:34:34Z</time>
      </trkpt>
      <trkpt lat="45.93206" lon="4.72674">
        <ele>169</ele>
        <time>2018-07-08T10:34:35Z</time>
      </trkpt>
      <trkpt lat="45.93202" lon="4.72682">
        <ele>169</ele>
        <time>2018-07-08T10:34:36Z</time>
      </trkpt>
      <trkpt lat="45.93197" lon="4.72687">
        <ele>169</ele>
        <time>2018-07-08T10:34:37Z</time>
      </trkpt>
      <trkpt lat="45.93193" lon="4.72692">
        <ele>169</ele>
        <time>2018-07-08T10:34:38Z</time>
      </trkpt>
      <trkpt lat="45.93188" lon="4.72698">
        <ele>169</ele>
        <time>2018-07-08T10:34:39Z</time>
      </trkpt>
      <trkpt lat="45.93183" lon="4.72703">
        <ele>169</ele>
        <time>2018-07-08T10:34:40Z</time>
      </trkpt>
      <trkpt lat="45.93178" lon="4.72709">
        <ele>169</ele>
        <time>2018-07-08T10:34:41Z</time>
      </trkpt>
      <trkpt lat="45.93172" lon="4.72714">
        <ele>170</ele>
        <time>2018-07-08T10:34:42Z</time>
      </trkpt>
      <trkpt lat="45.93168" lon="4.7272">
        <ele>170</ele>
        <time>2018-07-08T10:34:43Z</time>
      </trkpt>
      <trkpt lat="45.93164" lon="4.72725">
        <ele>170</ele>
        <time>2018-07-08T10:34:44Z</time>
      </trkpt>
      <trkpt lat="45.93159" lon="4.72731">
        <ele>170</ele>
        <time>2018-07-08T10:34:45Z</time>
      </trkpt>
      <trkpt lat="45.93153" lon="4.72739">
        <ele>170</ele>
        <time>2018-07-08T10:34:46Z</time>
      </trkpt>
      <trkpt lat="45.93149" lon="4.72745">
        <ele>170</ele>
        <time>2018-07-08T10:34:47Z</time>
      </trkpt>
      <trkpt lat="45.93144" lon="4.72751">
        <ele>171</ele>
        <time>2018-07-08T10:34:48Z</time>
      </trkpt>
      <trkpt lat="45.93139" lon="4.72757">
        <ele>171</ele>
        <time>2018-07-08T10:34:49Z</time>
      </trkpt>
      <trkpt lat="45.93134" lon="4.72762">
        <ele>171</ele>
        <time>2018-07-08T10:34:50Z</time>
      </trkpt>
      <trkpt lat="45.93129" lon="4.72767">
        <ele>171</ele>
        <time>2018-07-08T10:34:51Z</time>
      </trkpt>
      <trkpt lat="45.93124" lon="4.72773">
        <ele>171</ele>
        <time>2018-07-08T10:34:52Z</time>
      </trkpt>
      <trkpt lat="45.93119" lon="4.72778">
        <ele>171</ele>
        <time>2018-07-08T10:34:53Z</time>
      </trkpt>
      <trkpt lat="45.93113" lon="4.72784">
        <ele>171</ele>
        <time>2018-07-08T10:34:54Z</time>
      </trkpt>
      <trkpt lat="45.93108" lon="4.72789">
        <ele>171</ele>
        <time>2018-07-08T10:34:55Z</time>
      </trkpt>
      <trkpt lat="45.93102" lon="4.72794">
        <ele>171</ele>
        <time>2018-07-08T10:34:56Z</time>
      </trkpt>
      <trkpt lat="45.93098" lon="4.72799">
        <ele>171</ele>
        <time>2018-07-08T10:34:57Z</time>
      </trkpt>
      <trkpt lat="45.93092" lon="4.72807">
        <ele>172</ele>
        <time>2018-07-08T10:34:58Z</time>
      </trkpt>
      <trkpt lat="45.93087" lon="4.72812">
        <ele>172</ele>
        <time>2018-07-08T10:34:59Z</time>
      </trkpt>
      <trkpt lat="45.93083" lon="4.72817">
        <ele>172</ele>
        <time>2018-07-08T10:35:00Z</time>
      </trkpt>
      <trkpt lat="45.93078" lon="4.72821">
        <ele>173</ele>
        <time>2018-07-08T10:35:01Z</time>
      </trkpt>
      <trkpt lat="45.93074" lon="4.72826">
        <ele>173</ele>
        <time>2018-07-08T10:35:02Z</time>
      </trkpt>
      <trkpt lat="45.93049" lon="4.72856">
        <ele>172</ele>
        <time>2018-07-08T10:35:09Z</time>
      </trkpt>
      <trkpt lat="45.93044" lon="4.72865">
        <ele>172</ele>
        <time>2018-07-08T10:35:10Z</time>
      </trkpt>
      <trkpt lat="45.93039" lon="4.72869">
        <ele>172</ele>
        <time>2018-07-08T10:35:11Z</time>
      </trkpt>
      <trkpt lat="45.93033" lon="4.72874">
        <ele>172</ele>
        <time>2018-07-08T10:35:12Z</time>
      </trkpt>
      <trkpt lat="45.93028" lon="4.72881">
        <ele>172</ele>
        <time>2018-07-08T10:35:13Z</time>
      </trkpt>
      <trkpt lat="45.93023" lon="4.72886">
        <ele>172</ele>
        <time>2018-07-08T10:35:14Z</time>
      </trkpt>
      <trkpt lat="45.93019" lon="4.72892">
        <ele>172</ele>
        <time>2018-07-08T10:35:15Z</time>
      </trkpt>
      <trkpt lat="45.93014" lon="4.72899">
        <ele>172</ele>
        <time>2018-07-08T10:35:16Z</time>
      </trkpt>
      <trkpt lat="45.93009" lon="4.72902">
        <ele>172</ele>
        <time>2018-07-08T10:35:17Z</time>
      </trkpt>
      <trkpt lat="45.93006" lon="4.72909">
        <ele>171</ele>
        <time>2018-07-08T10:35:18Z</time>
      </trkpt>
      <trkpt lat="45.93001" lon="4.72914">
        <ele>171</ele>
        <time>2018-07-08T10:35:19Z</time>
      </trkpt>
      <trkpt lat="45.92997" lon="4.7292">
        <ele>171</ele>
        <time>2018-07-08T10:35:20Z</time>
      </trkpt>
      <trkpt lat="45.92992" lon="4.72924">
        <ele>171</ele>
        <time>2018-07-08T10:35:21Z</time>
      </trkpt>
      <trkpt lat="45.92988" lon="4.72927">
        <ele>171</ele>
        <time>2018-07-08T10:35:22Z</time>
      </trkpt>
      <trkpt lat="45.92984" lon="4.72932">
        <ele>171</ele>
        <time>2018-07-08T10:35:23Z</time>
      </trkpt>
      <trkpt lat="45.9298" lon="4.72938">
        <ele>171</ele>
        <time>2018-07-08T10:35:24Z</time>
      </trkpt>
      <trkpt lat="45.92976" lon="4.72943">
        <ele>171</ele>
        <time>2018-07-08T10:35:25Z</time>
      </trkpt>
      <trkpt lat="45.92971" lon="4.72947">
        <ele>171</ele>
        <time>2018-07-08T10:35:26Z</time>
      </trkpt>
      <trkpt lat="45.92966" lon="4.72953">
        <ele>171</ele>
        <time>2018-07-08T10:35:27Z</time>
      </trkpt>
      <trkpt lat="45.92961" lon="4.72958">
        <ele>171</ele>
        <time>2018-07-08T10:35:28Z</time>
      </trkpt>
      <trkpt lat="45.92956" lon="4.72964">
        <ele>171</ele>
        <time>2018-07-08T10:35:29Z</time>
      </trkpt>
      <trkpt lat="45.92952" lon="4.7297">
        <ele>171</ele>
        <time>2018-07-08T10:35:30Z</time>
      </trkpt>
      <trkpt lat="45.92947" lon="4.72975">
        <ele>171</ele>
        <time>2018-07-08T10:35:31Z</time>
      </trkpt>
      <trkpt lat="45.92942" lon="4.72983">
        <ele>171</ele>
        <time>2018-07-08T10:35:32Z</time>
      </trkpt>
      <trkpt lat="45.92936" lon="4.7299">
        <ele>171</ele>
        <time>2018-07-08T10:35:33Z</time>
      </trkpt>
      <trkpt lat="45.92932" lon="4.72994">
        <ele>172</ele>
        <time>2018-07-08T10:35:34Z</time>
      </trkpt>
      <trkpt lat="45.92928" lon="4.72999">
        <ele>172</ele>
        <time>2018-07-08T10:35:35Z</time>
      </trkpt>
      <trkpt lat="45.92923" lon="4.73004">
        <ele>172</ele>
        <time>2018-07-08T10:35:36Z</time>
      </trkpt>
      <trkpt lat="45.92919" lon="4.73009">
        <ele>172</ele>
        <time>2018-07-08T10:35:37Z</time>
      </trkpt>
      <trkpt lat="45.92915" lon="4.73016">
        <ele>172</ele>
        <time>2018-07-08T10:35:38Z</time>
      </trkpt>
      <trkpt lat="45.92912" lon="4.73021">
        <ele>172</ele>
        <time>2018-07-08T10:35:39Z</time>
      </trkpt>
      <trkpt lat="45.92908" lon="4.73026">
        <ele>172</ele>
        <time>2018-07-08T10:35:40Z</time>
      </trkpt>
      <trkpt lat="45.92904" lon="4.73032">
        <ele>172</ele>
        <time>2018-07-08T10:35:41Z</time>
      </trkpt>
      <trkpt lat="45.929" lon="4.73037">
        <ele>172</ele>
        <time>2018-07-08T10:35:42Z</time>
      </trkpt>
      <trkpt lat="45.92896" lon="4.73043">
        <ele>172</ele>
        <time>2018-07-08T10:35:43Z</time>
      </trkpt>
      <trkpt lat="45.92893" lon="4.7305">
        <ele>172</ele>
        <time>2018-07-08T10:35:44Z</time>
      </trkpt>
      <trkpt lat="45.92889" lon="4.73056">
        <ele>172</ele>
        <time>2018-07-08T10:35:45Z</time>
      </trkpt>
      <trkpt lat="45.92886" lon="4.73061">
        <ele>172</ele>
        <time>2018-07-08T10:35:46Z</time>
      </trkpt>
      <trkpt lat="45.92883" lon="4.73067">
        <ele>172</ele>
        <time>2018-07-08T10:35:47Z</time>
      </trkpt>
      <trkpt lat="45.9288" lon="4.73073">
        <ele>172</ele>
        <time>2018-07-08T10:35:48Z</time>
      </trkpt>
      <trkpt lat="45.92875" lon="4.73077">
        <ele>172</ele>
        <time>2018-07-08T10:35:49Z</time>
      </trkpt>
      <trkpt lat="45.92871" lon="4.73083">
        <ele>172</ele>
        <time>2018-07-08T10:35:50Z</time>
      </trkpt>
      <trkpt lat="45.92867" lon="4.73089">
        <ele>172</ele>
        <time>2018-07-08T10:35:51Z</time>
      </trkpt>
      <trkpt lat="45.92864" lon="4.73094">
        <ele>171</ele>
        <time>2018-07-08T10:35:52Z</time>
      </trkpt>
      <trkpt lat="45.92861" lon="4.73098">
        <ele>171</ele>
        <time>2018-07-08T10:35:53Z</time>
      </trkpt>
      <trkpt lat="45.92855" lon="4.73101">
        <ele>171</ele>
        <time>2018-07-08T10:35:55Z</time>
      </trkpt>
      <trkpt lat="45.92849" lon="4.73101">
        <ele>171</ele>
        <time>2018-07-08T10:35:56Z</time>
      </trkpt>
      <trkpt lat="45.92846" lon="4.73092">
        <ele>171</ele>
        <time>2018-07-08T10:35:58Z</time>
      </trkpt>
      <trkpt lat="45.92846" lon="4.73085">
        <ele>171</ele>
        <time>2018-07-08T10:35:59Z</time>
      </trkpt>
      <trkpt lat="45.92844" lon="4.73073">
        <ele>171</ele>
        <time>2018-07-08T10:36:01Z</time>
      </trkpt>
      <trkpt lat="45.92843" lon="4.73065">
        <ele>171</ele>
        <time>2018-07-08T10:36:02Z</time>
      </trkpt>
      <trkpt lat="45.9284" lon="4.73058">
        <ele>171</ele>
        <time>2018-07-08T10:36:03Z</time>
      </trkpt>
      <trkpt lat="45.92839" lon="4.73051">
        <ele>171</ele>
        <time>2018-07-08T10:36:04Z</time>
      </trkpt>
      <trkpt lat="45.92837" lon="4.73043">
        <ele>171</ele>
        <time>2018-07-08T10:36:05Z</time>
      </trkpt>
      <trkpt lat="45.92835" lon="4.73035">
        <ele>171</ele>
        <time>2018-07-08T10:36:06Z</time>
      </trkpt>
      <trkpt lat="45.92833" lon="4.73026">
        <ele>170</ele>
        <time>2018-07-08T10:36:07Z</time>
      </trkpt>
      <trkpt lat="45.92832" lon="4.73019">
        <ele>170</ele>
        <time>2018-07-08T10:36:08Z</time>
      </trkpt>
      <trkpt lat="45.9283" lon="4.7301">
        <ele>170</ele>
        <time>2018-07-08T10:36:09Z</time>
      </trkpt>
      <trkpt lat="45.92829" lon="4.73001">
        <ele>170</ele>
        <time>2018-07-08T10:36:10Z</time>
      </trkpt>
      <trkpt lat="45.92828" lon="4.72994">
        <ele>170</ele>
        <time>2018-07-08T10:36:11Z</time>
      </trkpt>
      <trkpt lat="45.92828" lon="4.72987">
        <ele>170</ele>
        <time>2018-07-08T10:36:12Z</time>
      </trkpt>
      <trkpt lat="45.92828" lon="4.72978">
        <ele>170</ele>
        <time>2018-07-08T10:36:13Z</time>
      </trkpt>
      <trkpt lat="45.92826" lon="4.72971">
        <ele>170</ele>
        <time>2018-07-08T10:36:14Z</time>
      </trkpt>
      <trkpt lat="45.92826" lon="4.72964">
        <ele>170</ele>
        <time>2018-07-08T10:36:15Z</time>
      </trkpt>
      <trkpt lat="45.92825" lon="4.72956">
        <ele>170</ele>
        <time>2018-07-08T10:36:16Z</time>
      </trkpt>
      <trkpt lat="45.92825" lon="4.72948">
        <ele>170</ele>
        <time>2018-07-08T10:36:17Z</time>
      </trkpt>
      <trkpt lat="45.92824" lon="4.72942">
        <ele>170</ele>
        <time>2018-07-08T10:36:18Z</time>
      </trkpt>
      <trkpt lat="45.92823" lon="4.72935">
        <ele>170</ele>
        <time>2018-07-08T10:36:19Z</time>
      </trkpt>
      <trkpt lat="45.92823" lon="4.72928">
        <ele>170</ele>
        <time>2018-07-08T10:36:20Z</time>
      </trkpt>
      <trkpt lat="45.92822" lon="4.7292">
        <ele>170</ele>
        <time>2018-07-08T10:36:21Z</time>
      </trkpt>
      <trkpt lat="45.92822" lon="4.72913">
        <ele>170</ele>
        <time>2018-07-08T10:36:22Z</time>
      </trkpt>
      <trkpt lat="45.9282" lon="4.72905">
        <ele>170</ele>
        <time>2018-07-08T10:36:23Z</time>
      </trkpt>
      <trkpt lat="45.9282" lon="4.72898">
        <ele>170</ele>
        <time>2018-07-08T10:36:24Z</time>
      </trkpt>
      <trkpt lat="45.92818" lon="4.7289">
        <ele>170</ele>
        <time>2018-07-08T10:36:25Z</time>
      </trkpt>
      <trkpt lat="45.92817" lon="4.72884">
        <ele>170</ele>
        <time>2018-07-08T10:36:26Z</time>
      </trkpt>
      <trkpt lat="45.92816" lon="4.72874">
        <ele>170</ele>
        <time>2018-07-08T10:36:28Z</time>
      </trkpt>
      <trkpt lat="45.92814" lon="4.72867">
        <ele>170</ele>
        <time>2018-07-08T10:36:29Z</time>
      </trkpt>
      <trkpt lat="45.92814" lon="4.72861">
        <ele>170</ele>
        <time>2018-07-08T10:36:30Z</time>
      </trkpt>
      <trkpt lat="45.92812" lon="4.72854">
        <ele>170</ele>
        <time>2018-07-08T10:36:31Z</time>
      </trkpt>
      <trkpt lat="45.92811" lon="4.72849">
        <ele>170</ele>
        <time>2018-07-08T10:36:32Z</time>
      </trkpt>
      <trkpt lat="45.92809" lon="4.72842">
        <ele>170</ele>
        <time>2018-07-08T10:36:33Z</time>
      </trkpt>
      <trkpt lat="45.92807" lon="4.72835">
        <ele>170</ele>
        <time>2018-07-08T10:36:34Z</time>
      </trkpt>
      <trkpt lat="45.92806" lon="4.72827">
        <ele>171</ele>
        <time>2018-07-08T10:36:35Z</time>
      </trkpt>
      <trkpt lat="45.92805" lon="4.7282">
        <ele>171</ele>
        <time>2018-07-08T10:36:36Z</time>
      </trkpt>
      <trkpt lat="45.92803" lon="4.72814">
        <ele>171</ele>
        <time>2018-07-08T10:36:37Z</time>
      </trkpt>
      <trkpt lat="45.92802" lon="4.72807">
        <ele>171</ele>
        <time>2018-07-08T10:36:38Z</time>
      </trkpt>
      <trkpt lat="45.928" lon="4.728">
        <ele>171</ele>
        <time>2018-07-08T10:36:39Z</time>
      </trkpt>
      <trkpt lat="45.92796" lon="4.72791">
        <ele>171</ele>
        <time>2018-07-08T10:36:43Z</time>
      </trkpt>
      <trkpt lat="45.92789" lon="4.72795">
        <ele>170</ele>
        <time>2018-07-08T10:36:44Z</time>
      </trkpt>
      <trkpt lat="45.9278" lon="4.72799">
        <ele>170</ele>
        <time>2018-07-08T10:36:46Z</time>
      </trkpt>
      <trkpt lat="45.92775" lon="4.72801">
        <ele>170</ele>
        <time>2018-07-08T10:36:47Z</time>
      </trkpt>
      <trkpt lat="45.9277" lon="4.72804">
        <ele>170</ele>
        <time>2018-07-08T10:36:48Z</time>
      </trkpt>
      <trkpt lat="45.92767" lon="4.72808">
        <ele>170</ele>
        <time>2018-07-08T10:36:49Z</time>
      </trkpt>
      <trkpt lat="45.92763" lon="4.72812">
        <ele>170</ele>
        <time>2018-07-08T10:36:50Z</time>
      </trkpt>
      <trkpt lat="45.92757" lon="4.72817">
        <ele>170</ele>
        <time>2018-07-08T10:36:51Z</time>
      </trkpt>
      <trkpt lat="45.92754" lon="4.72819">
        <ele>170</ele>
        <time>2018-07-08T10:36:52Z</time>
      </trkpt>
      <trkpt lat="45.92747" lon="4.72823">
        <ele>169</ele>
        <time>2018-07-08T10:36:53Z</time>
      </trkpt>
      <trkpt lat="45.92742" lon="4.72826">
        <ele>169</ele>
        <time>2018-07-08T10:36:54Z</time>
      </trkpt>
      <trkpt lat="45.92737" lon="4.7283">
        <ele>169</ele>
        <time>2018-07-08T10:36:55Z</time>
      </trkpt>
      <trkpt lat="45.92731" lon="4.72834">
        <ele>169</ele>
        <time>2018-07-08T10:36:56Z</time>
      </trkpt>
      <trkpt lat="45.92726" lon="4.72838">
        <ele>169</ele>
        <time>2018-07-08T10:36:57Z</time>
      </trkpt>
      <trkpt lat="45.92721" lon="4.72842">
        <ele>169</ele>
        <time>2018-07-08T10:36:58Z</time>
      </trkpt>
      <trkpt lat="45.92716" lon="4.72845">
        <ele>169</ele>
        <time>2018-07-08T10:36:59Z</time>
      </trkpt>
      <trkpt lat="45.92711" lon="4.72849">
        <ele>169</ele>
        <time>2018-07-08T10:37:00Z</time>
      </trkpt>
      <trkpt lat="45.92706" lon="4.72853">
        <ele>169</ele>
        <time>2018-07-08T10:37:01Z</time>
      </trkpt>
      <trkpt lat="45.927" lon="4.72858">
        <ele>169</ele>
        <time>2018-07-08T10:37:02Z</time>
      </trkpt>
      <trkpt lat="45.92695" lon="4.72862">
        <ele>169</ele>
        <time>2018-07-08T10:37:03Z</time>
      </trkpt>
      <trkpt lat="45.92692" lon="4.72865">
        <ele>169</ele>
        <time>2018-07-08T10:37:04Z</time>
      </trkpt>
      <trkpt lat="45.92686" lon="4.7287">
        <ele>169</ele>
        <time>2018-07-08T10:37:05Z</time>
      </trkpt>
      <trkpt lat="45.9268" lon="4.72875">
        <ele>169</ele>
        <time>2018-07-08T10:37:06Z</time>
      </trkpt>
      <trkpt lat="45.92675" lon="4.7288">
        <ele>170</ele>
        <time>2018-07-08T10:37:07Z</time>
      </trkpt>
      <trkpt lat="45.9267" lon="4.72883">
        <ele>170</ele>
        <time>2018-07-08T10:37:08Z</time>
      </trkpt>
      <trkpt lat="45.92664" lon="4.72887">
        <ele>169</ele>
        <time>2018-07-08T10:37:09Z</time>
      </trkpt>
      <trkpt lat="45.92658" lon="4.7289">
        <ele>169</ele>
        <time>2018-07-08T10:37:10Z</time>
      </trkpt>
      <trkpt lat="45.92652" lon="4.72896">
        <ele>169</ele>
        <time>2018-07-08T10:37:11Z</time>
      </trkpt>
      <trkpt lat="45.92647" lon="4.729">
        <ele>169</ele>
        <time>2018-07-08T10:37:12Z</time>
      </trkpt>
      <trkpt lat="45.92641" lon="4.72906">
        <ele>169</ele>
        <time>2018-07-08T10:37:13Z</time>
      </trkpt>
      <trkpt lat="45.92637" lon="4.72909">
        <ele>169</ele>
        <time>2018-07-08T10:37:14Z</time>
      </trkpt>
      <trkpt lat="45.92631" lon="4.72914">
        <ele>169</ele>
        <time>2018-07-08T10:37:15Z</time>
      </trkpt>
      <trkpt lat="45.92626" lon="4.72918">
        <ele>170</ele>
        <time>2018-07-08T10:37:16Z</time>
      </trkpt>
      <trkpt lat="45.92619" lon="4.72924">
        <ele>169</ele>
        <time>2018-07-08T10:37:17Z</time>
      </trkpt>
      <trkpt lat="45.92612" lon="4.7293">
        <ele>169</ele>
        <time>2018-07-08T10:37:18Z</time>
      </trkpt>
      <trkpt lat="45.92606" lon="4.72935">
        <ele>169</ele>
        <time>2018-07-08T10:37:19Z</time>
      </trkpt>
      <trkpt lat="45.926" lon="4.72942">
        <ele>169</ele>
        <time>2018-07-08T10:37:20Z</time>
      </trkpt>
      <trkpt lat="45.92594" lon="4.72949">
        <ele>169</ele>
        <time>2018-07-08T10:37:21Z</time>
      </trkpt>
      <trkpt lat="45.92589" lon="4.72955">
        <ele>169</ele>
        <time>2018-07-08T10:37:22Z</time>
      </trkpt>
      <trkpt lat="45.92585" lon="4.72962">
        <ele>169</ele>
        <time>2018-07-08T10:37:23Z</time>
      </trkpt>
      <trkpt lat="45.9258" lon="4.72969">
        <ele>169</ele>
        <time>2018-07-08T10:37:24Z</time>
      </trkpt>
      <trkpt lat="45.92574" lon="4.72974">
        <ele>169</ele>
        <time>2018-07-08T10:37:25Z</time>
      </trkpt>
      <trkpt lat="45.92568" lon="4.72979">
        <ele>169</ele>
        <time>2018-07-08T10:37:26Z</time>
      </trkpt>
      <trkpt lat="45.9256" lon="4.72985">
        <ele>169</ele>
        <time>2018-07-08T10:37:27Z</time>
      </trkpt>
      <trkpt lat="45.92555" lon="4.72991">
        <ele>169</ele>
        <time>2018-07-08T10:37:28Z</time>
      </trkpt>
      <trkpt lat="45.92548" lon="4.72996">
        <ele>169</ele>
        <time>2018-07-08T10:37:29Z</time>
      </trkpt>
      <trkpt lat="45.92541" lon="4.73002">
        <ele>169</ele>
        <time>2018-07-08T10:37:30Z</time>
      </trkpt>
      <trkpt lat="45.92536" lon="4.73007">
        <ele>169</ele>
        <time>2018-07-08T10:37:31Z</time>
      </trkpt>
      <trkpt lat="45.9253" lon="4.73011">
        <ele>169</ele>
        <time>2018-07-08T10:37:32Z</time>
      </trkpt>
      <trkpt lat="45.92524" lon="4.73016">
        <ele>169</ele>
        <time>2018-07-08T10:37:33Z</time>
      </trkpt>
      <trkpt lat="45.92517" lon="4.73023">
        <ele>169</ele>
        <time>2018-07-08T10:37:34Z</time>
      </trkpt>
      <trkpt lat="45.92511" lon="4.73029">
        <ele>169</ele>
        <time>2018-07-08T10:37:35Z</time>
      </trkpt>
      <trkpt lat="45.92505" lon="4.73034">
        <ele>169</ele>
        <time>2018-07-08T10:37:36Z</time>
      </trkpt>
      <trkpt lat="45.92499" lon="4.73039">
        <ele>170</ele>
        <time>2018-07-08T10:37:37Z</time>
      </trkpt>
      <trkpt lat="45.92493" lon="4.73045">
        <ele>170</ele>
        <time>2018-07-08T10:37:38Z</time>
      </trkpt>
      <trkpt lat="45.92488" lon="4.73049">
        <ele>170</ele>
        <time>2018-07-08T10:37:39Z</time>
      </trkpt>
      <trkpt lat="45.92482" lon="4.73054">
        <ele>170</ele>
        <time>2018-07-08T10:37:40Z</time>
      </trkpt>
      <trkpt lat="45.92477" lon="4.73058">
        <ele>170</ele>
        <time>2018-07-08T10:37:41Z</time>
      </trkpt>
      <trkpt lat="45.92472" lon="4.73065">
        <ele>170</ele>
        <time>2018-07-08T10:37:42Z</time>
      </trkpt>
      <trkpt lat="45.92466" lon="4.7307">
        <ele>170</ele>
        <time>2018-07-08T10:37:43Z</time>
      </trkpt>
      <trkpt lat="45.92461" lon="4.73074">
        <ele>170</ele>
        <time>2018-07-08T10:37:44Z</time>
      </trkpt>
      <trkpt lat="45.92455" lon="4.73078">
        <ele>170</ele>
        <time>2018-07-08T10:37:45Z</time>
      </trkpt>
      <trkpt lat="45.92451" lon="4.73081">
        <ele>170</ele>
        <time>2018-07-08T10:37:46Z</time>
      </trkpt>
      <trkpt lat="45.92446" lon="4.73085">
        <ele>170</ele>
        <time>2018-07-08T10:37:47Z</time>
      </trkpt>
      <trkpt lat="45.92441" lon="4.73091">
        <ele>170</ele>
        <time>2018-07-08T10:37:48Z</time>
      </trkpt>
      <trkpt lat="45.92436" lon="4.73096">
        <ele>171</ele>
        <time>2018-07-08T10:37:49Z</time>
      </trkpt>
      <trkpt lat="45.92432" lon="4.731">
        <ele>171</ele>
        <time>2018-07-08T10:37:50Z</time>
      </trkpt>
      <trkpt lat="45.92427" lon="4.73104">
        <ele>171</ele>
        <time>2018-07-08T10:37:51Z</time>
      </trkpt>
      <trkpt lat="45.92422" lon="4.73107">
        <ele>171</ele>
        <time>2018-07-08T10:37:52Z</time>
      </trkpt>
      <trkpt lat="45.92417" lon="4.7311">
        <ele>170</ele>
        <time>2018-07-08T10:37:53Z</time>
      </trkpt>
      <trkpt lat="45.92414" lon="4.73115">
        <ele>171</ele>
        <time>2018-07-08T10:37:54Z</time>
      </trkpt>
      <trkpt lat="45.9241" lon="4.7312">
        <ele>171</ele>
        <time>2018-07-08T10:37:55Z</time>
      </trkpt>
      <trkpt lat="45.92408" lon="4.73127">
        <ele>171</ele>
        <time>2018-07-08T10:37:56Z</time>
      </trkpt>
      <trkpt lat="45.92407" lon="4.73135">
        <ele>171</ele>
        <time>2018-07-08T10:37:57Z</time>
      </trkpt>
      <trkpt lat="45.92408" lon="4.73141">
        <ele>171</ele>
        <time>2018-07-08T10:37:58Z</time>
      </trkpt>
      <trkpt lat="45.92407" lon="4.73149">
        <ele>171</ele>
        <time>2018-07-08T10:37:59Z</time>
      </trkpt>
      <trkpt lat="45.92408" lon="4.73158">
        <ele>170</ele>
        <time>2018-07-08T10:38:00Z</time>
      </trkpt>
      <trkpt lat="45.92408" lon="4.73166">
        <ele>170</ele>
        <time>2018-07-08T10:38:01Z</time>
      </trkpt>
      <trkpt lat="45.92408" lon="4.73174">
        <ele>170</ele>
        <time>2018-07-08T10:38:02Z</time>
      </trkpt>
      <trkpt lat="45.92408" lon="4.73182">
        <ele>171</ele>
        <time>2018-07-08T10:38:03Z</time>
      </trkpt>
      <trkpt lat="45.92407" lon="4.73191">
        <ele>171</ele>
        <time>2018-07-08T10:38:04Z</time>
      </trkpt>
      <trkpt lat="45.92406" lon="4.73199">
        <ele>171</ele>
        <time>2018-07-08T10:38:05Z</time>
      </trkpt>
      <trkpt lat="45.92406" lon="4.73208">
        <ele>171</ele>
        <time>2018-07-08T10:38:06Z</time>
      </trkpt>
      <trkpt lat="45.92406" lon="4.73217">
        <ele>171</ele>
        <time>2018-07-08T10:38:07Z</time>
      </trkpt>
      <trkpt lat="45.92406" lon="4.73226">
        <ele>171</ele>
        <time>2018-07-08T10:38:08Z</time>
      </trkpt>
      <trkpt lat="45.92408" lon="4.73233">
        <ele>171</ele>
        <time>2018-07-08T10:38:09Z</time>
      </trkpt>
      <trkpt lat="45.92408" lon="4.73242">
        <ele>171</ele>
        <time>2018-07-08T10:38:10Z</time>
      </trkpt>
      <trkpt lat="45.92409" lon="4.73249">
        <ele>171</ele>
        <time>2018-07-08T10:38:11Z</time>
      </trkpt>
      <trkpt lat="45.92409" lon="4.73256">
        <ele>171</ele>
        <time>2018-07-08T10:38:12Z</time>
      </trkpt>
      <trkpt lat="45.92409" lon="4.73264">
        <ele>171</ele>
        <time>2018-07-08T10:38:13Z</time>
      </trkpt>
      <trkpt lat="45.9241" lon="4.73273">
        <ele>171</ele>
        <time>2018-07-08T10:38:14Z</time>
      </trkpt>
      <trkpt lat="45.9241" lon="4.73281">
        <ele>171</ele>
        <time>2018-07-08T10:38:15Z</time>
      </trkpt>
      <trkpt lat="45.9241" lon="4.7329">
        <ele>171</ele>
        <time>2018-07-08T10:38:16Z</time>
      </trkpt>
      <trkpt lat="45.9241" lon="4.73298">
        <ele>171</ele>
        <time>2018-07-08T10:38:17Z</time>
      </trkpt>
      <trkpt lat="45.92411" lon="4.73306">
        <ele>171</ele>
        <time>2018-07-08T10:38:18Z</time>
      </trkpt>
      <trkpt lat="45.9241" lon="4.73315">
        <ele>171</ele>
        <time>2018-07-08T10:38:19Z</time>
      </trkpt>
      <trkpt lat="45.92412" lon="4.73323">
        <ele>171</ele>
        <time>2018-07-08T10:38:20Z</time>
      </trkpt>
      <trkpt lat="45.92413" lon="4.73331">
        <ele>171</ele>
        <time>2018-07-08T10:38:21Z</time>
      </trkpt>
      <trkpt lat="45.92415" lon="4.73339">
        <ele>171</ele>
        <time>2018-07-08T10:38:22Z</time>
      </trkpt>
      <trkpt lat="45.92416" lon="4.73347">
        <ele>171</ele>
        <time>2018-07-08T10:38:23Z</time>
      </trkpt>
      <trkpt lat="45.92417" lon="4.73357">
        <ele>171</ele>
        <time>2018-07-08T10:38:24Z</time>
      </trkpt>
      <trkpt lat="45.92419" lon="4.73365">
        <ele>172</ele>
        <time>2018-07-08T10:38:25Z</time>
      </trkpt>
      <trkpt lat="45.9242" lon="4.73373">
        <ele>172</ele>
        <time>2018-07-08T10:38:26Z</time>
      </trkpt>
      <trkpt lat="45.92422" lon="4.7338">
        <ele>172</ele>
        <time>2018-07-08T10:38:27Z</time>
      </trkpt>
      <trkpt lat="45.92423" lon="4.73387">
        <ele>172</ele>
        <time>2018-07-08T10:38:28Z</time>
      </trkpt>
      <trkpt lat="45.92425" lon="4.73395">
        <ele>172</ele>
        <time>2018-07-08T10:38:29Z</time>
      </trkpt>
      <trkpt lat="45.92429" lon="4.73401">
        <ele>172</ele>
        <time>2018-07-08T10:38:30Z</time>
      </trkpt>
      <trkpt lat="45.92432" lon="4.73406">
        <ele>172</ele>
        <time>2018-07-08T10:38:31Z</time>
      </trkpt>
      <trkpt lat="45.92436" lon="4.7341">
        <ele>172</ele>
        <time>2018-07-08T10:38:32Z</time>
      </trkpt>
      <trkpt lat="45.92441" lon="4.73414">
        <ele>172</ele>
        <time>2018-07-08T10:38:33Z</time>
      </trkpt>
      <trkpt lat="45.92445" lon="4.73418">
        <ele>173</ele>
        <time>2018-07-08T10:38:34Z</time>
      </trkpt>
      <trkpt lat="45.92449" lon="4.73421">
        <ele>173</ele>
        <time>2018-07-08T10:38:35Z</time>
      </trkpt>
      <trkpt lat="45.92453" lon="4.73425">
        <ele>173</ele>
        <time>2018-07-08T10:38:36Z</time>
      </trkpt>
      <trkpt lat="45.92458" lon="4.7343">
        <ele>173</ele>
        <time>2018-07-08T10:38:37Z</time>
      </trkpt>
      <trkpt lat="45.92461" lon="4.73435">
        <ele>173</ele>
        <time>2018-07-08T10:38:38Z</time>
      </trkpt>
      <trkpt lat="45.92463" lon="4.73444">
        <ele>173</ele>
        <time>2018-07-08T10:38:39Z</time>
      </trkpt>
      <trkpt lat="45.92465" lon="4.73452">
        <ele>173</ele>
        <time>2018-07-08T10:38:40Z</time>
      </trkpt>
      <trkpt lat="45.92466" lon="4.73461">
        <ele>173</ele>
        <time>2018-07-08T10:38:41Z</time>
      </trkpt>
      <trkpt lat="45.92467" lon="4.7347">
        <ele>173</ele>
        <time>2018-07-08T10:38:42Z</time>
      </trkpt>
      <trkpt lat="45.92467" lon="4.73478">
        <ele>173</ele>
        <time>2018-07-08T10:38:43Z</time>
      </trkpt>
      <trkpt lat="45.92467" lon="4.73487">
        <ele>173</ele>
        <time>2018-07-08T10:38:44Z</time>
      </trkpt>
      <trkpt lat="45.92466" lon="4.73495">
        <ele>173</ele>
        <time>2018-07-08T10:38:45Z</time>
      </trkpt>
      <trkpt lat="45.92466" lon="4.73503">
        <ele>174</ele>
        <time>2018-07-08T10:38:46Z</time>
      </trkpt>
      <trkpt lat="45.92466" lon="4.73511">
        <ele>174</ele>
        <time>2018-07-08T10:38:47Z</time>
      </trkpt>
      <trkpt lat="45.92465" lon="4.73517">
        <ele>174</ele>
        <time>2018-07-08T10:38:48Z</time>
      </trkpt>
      <trkpt lat="45.92466" lon="4.73524">
        <ele>174</ele>
        <time>2018-07-08T10:38:49Z</time>
      </trkpt>
      <trkpt lat="45.92466" lon="4.73535">
        <ele>174</ele>
        <time>2018-07-08T10:38:51Z</time>
      </trkpt>
      <trkpt lat="45.92466" lon="4.7354">
        <ele>174</ele>
        <time>2018-07-08T10:38:52Z</time>
      </trkpt>
      <trkpt lat="45.92465" lon="4.73551">
        <ele>173</ele>
        <time>2018-07-08T10:38:54Z</time>
      </trkpt>
      <trkpt lat="45.92465" lon="4.73559">
        <ele>173</ele>
        <time>2018-07-08T10:38:55Z</time>
      </trkpt>
      <trkpt lat="45.92466" lon="4.73565">
        <ele>173</ele>
        <time>2018-07-08T10:38:56Z</time>
      </trkpt>
      <trkpt lat="45.92466" lon="4.73573">
        <ele>173</ele>
        <time>2018-07-08T10:38:57Z</time>
      </trkpt>
      <trkpt lat="45.92466" lon="4.7358">
        <ele>173</ele>
        <time>2018-07-08T10:38:58Z</time>
      </trkpt>
      <trkpt lat="45.92467" lon="4.73589">
        <ele>174</ele>
        <time>2018-07-08T10:38:59Z</time>
      </trkpt>
      <trkpt lat="45.92468" lon="4.73597">
        <ele>174</ele>
        <time>2018-07-08T10:39:00Z</time>
      </trkpt>
      <trkpt lat="45.92469" lon="4.73608">
        <ele>174</ele>
        <time>2018-07-08T10:39:01Z</time>
      </trkpt>
      <trkpt lat="45.9247" lon="4.73616">
        <ele>174</ele>
        <time>2018-07-08T10:39:02Z</time>
      </trkpt>
      <trkpt lat="45.92471" lon="4.73624">
        <ele>174</ele>
        <time>2018-07-08T10:39:03Z</time>
      </trkpt>
      <trkpt lat="45.92471" lon="4.73631">
        <ele>174</ele>
        <time>2018-07-08T10:39:04Z</time>
      </trkpt>
      <trkpt lat="45.92472" lon="4.7364">
        <ele>174</ele>
        <time>2018-07-08T10:39:05Z</time>
      </trkpt>
      <trkpt lat="45.92472" lon="4.73647">
        <ele>174</ele>
        <time>2018-07-08T10:39:06Z</time>
      </trkpt>
      <trkpt lat="45.92472" lon="4.73654">
        <ele>174</ele>
        <time>2018-07-08T10:39:07Z</time>
      </trkpt>
      <trkpt lat="45.92472" lon="4.73665">
        <ele>174</ele>
        <time>2018-07-08T10:39:09Z</time>
      </trkpt>
      <trkpt lat="45.92471" lon="4.73672">
        <ele>174</ele>
        <time>2018-07-08T10:39:10Z</time>
      </trkpt>
      <trkpt lat="45.92471" lon="4.73681">
        <ele>174</ele>
        <time>2018-07-08T10:39:12Z</time>
      </trkpt>
      <trkpt lat="45.9247" lon="4.7369">
        <ele>174</ele>
        <time>2018-07-08T10:39:13Z</time>
      </trkpt>
      <trkpt lat="45.92465" lon="4.737">
        <ele>174</ele>
        <time>2018-07-08T10:39:17Z</time>
      </trkpt>
      <trkpt lat="45.92465" lon="4.73701">
        <ele>174</ele>
        <time>2018-07-08T10:39:18Z</time>
      </trkpt>
      <trkpt lat="45.92465" lon="4.73702">
        <ele>174</ele>
        <time>2018-07-08T10:39:20Z</time>
      </trkpt>
      <trkpt lat="45.92465" lon="4.73702">
        <ele>174</ele>
        <time>2018-07-08T10:39:21Z</time>
      </trkpt>
      <trkpt lat="45.92464" lon="4.73703">
        <ele>174</ele>
        <time>2018-07-08T10:39:24Z</time>
      </trkpt>
      <trkpt lat="45.92464" lon="4.73703">
        <ele>174</ele>
        <time>2018-07-08T10:39:25Z</time>
      </trkpt>
      <trkpt lat="45.92458" lon="4.73707">
        <ele>174</ele>
        <time>2018-07-08T10:39:58.013Z</time>
      </trkpt>
    </trkseg>
  </trk>
</gpx>